<?xml version="1.0" encoding="UTF-8" standalone="no" ?>
<gpx xmlns="http://www.topografix.com/GPX/1/1" xmlns:xsi="http://www.w3.org/2001/XMLSchema-instance" xsi:schemaLocation="http://www.topografix.com/GPX/1/1 http://www.topografix.com/GPX/1/1/gpx.xsd" version="1.1" creator="VisuGPX - https://www.visugpx.com">
  <metadata>
    <name>ski Col des Fontaines Aup du Pont</name>
    <desc><![CDATA[
]]></desc>
  </metadata>
  <trk>
    <name><![CDATA[ski Col des Fontaines Aup du Pont]]></name>
    <trkseg>
      <trkpt lat="45.28913" lon="6.21522">
        <ele>1165.1999511719</ele>
        <time>2020-02-16T07:28:33.000Z</time>
      </trkpt>
      <trkpt lat="45.28913" lon="6.21522">
        <ele>1165.1999511719</ele>
        <time>2020-02-16T07:28:44.000Z</time>
      </trkpt>
      <trkpt lat="45.28913" lon="6.21523">
        <ele>1164.8000488281</ele>
        <time>2020-02-16T07:28:54.000Z</time>
      </trkpt>
      <trkpt lat="45.28913" lon="6.21524">
        <ele>1164.4000244141</ele>
        <time>2020-02-16T07:29:03.000Z</time>
      </trkpt>
      <trkpt lat="45.28912" lon="6.21525">
        <ele>1164.5999755859</ele>
        <time>2020-02-16T07:29:13.000Z</time>
      </trkpt>
      <trkpt lat="45.28911" lon="6.21525">
        <ele>1164.1999511719</ele>
        <time>2020-02-16T07:29:19.000Z</time>
      </trkpt>
      <trkpt lat="45.28911" lon="6.21525">
        <ele>1164.1999511719</ele>
        <time>2020-02-16T07:29:23.000Z</time>
      </trkpt>
      <trkpt lat="45.28911" lon="6.21525">
        <ele>1164.1999511719</ele>
        <time>2020-02-16T07:29:40.000Z</time>
      </trkpt>
      <trkpt lat="45.28911" lon="6.21525">
        <ele>1164.1999511719</ele>
        <time>2020-02-16T07:29:55.000Z</time>
      </trkpt>
      <trkpt lat="45.28911" lon="6.21525">
        <ele>1164.5999755859</ele>
        <time>2020-02-16T07:30:09.000Z</time>
      </trkpt>
      <trkpt lat="45.28911" lon="6.21525">
        <ele>1164.4000244141</ele>
        <time>2020-02-16T07:30:19.000Z</time>
      </trkpt>
      <trkpt lat="45.28913" lon="6.21525">
        <ele>1164.4000244141</ele>
        <time>2020-02-16T07:30:24.000Z</time>
      </trkpt>
      <trkpt lat="45.28913" lon="6.21525">
        <ele>1164.4000244141</ele>
        <time>2020-02-16T07:30:35.000Z</time>
      </trkpt>
      <trkpt lat="45.28913" lon="6.21525">
        <ele>1164.4000244141</ele>
        <time>2020-02-16T07:30:49.000Z</time>
      </trkpt>
      <trkpt lat="45.28913" lon="6.21525">
        <ele>1164.4000244141</ele>
        <time>2020-02-16T07:31:10.000Z</time>
      </trkpt>
      <trkpt lat="45.28912" lon="6.21527">
        <ele>1164.1999511719</ele>
        <time>2020-02-16T07:31:23.000Z</time>
      </trkpt>
      <trkpt lat="45.28911" lon="6.21536">
        <ele>1164.4000244141</ele>
        <time>2020-02-16T07:31:28.000Z</time>
      </trkpt>
      <trkpt lat="45.28912" lon="6.21538">
        <ele>1164.1999511719</ele>
        <time>2020-02-16T07:31:29.000Z</time>
      </trkpt>
      <trkpt lat="45.28913" lon="6.21544">
        <ele>1163.5999755859</ele>
        <time>2020-02-16T07:31:34.000Z</time>
      </trkpt>
      <trkpt lat="45.28919" lon="6.21557">
        <ele>1163.1999511719</ele>
        <time>2020-02-16T07:31:41.000Z</time>
      </trkpt>
      <trkpt lat="45.2892" lon="6.21558">
        <ele>1163</ele>
        <time>2020-02-16T07:31:42.000Z</time>
      </trkpt>
      <trkpt lat="45.28924" lon="6.21568">
        <ele>1162</ele>
        <time>2020-02-16T07:31:49.000Z</time>
      </trkpt>
      <trkpt lat="45.28928" lon="6.21579">
        <ele>1161</ele>
        <time>2020-02-16T07:31:56.000Z</time>
      </trkpt>
      <trkpt lat="45.28929" lon="6.2158">
        <ele>1161</ele>
        <time>2020-02-16T07:31:57.000Z</time>
      </trkpt>
      <trkpt lat="45.28932" lon="6.21588">
        <ele>1160.4000244141</ele>
        <time>2020-02-16T07:32:03.000Z</time>
      </trkpt>
      <trkpt lat="45.28934" lon="6.21592">
        <ele>1159.8000488281</ele>
        <time>2020-02-16T07:32:07.000Z</time>
      </trkpt>
      <trkpt lat="45.28935" lon="6.21595">
        <ele>1159.5999755859</ele>
        <time>2020-02-16T07:32:09.000Z</time>
      </trkpt>
      <trkpt lat="45.2894" lon="6.21607">
        <ele>1159.1999511719</ele>
        <time>2020-02-16T07:32:15.000Z</time>
      </trkpt>
      <trkpt lat="45.28941" lon="6.21611">
        <ele>1158.5999755859</ele>
        <time>2020-02-16T07:32:17.000Z</time>
      </trkpt>
      <trkpt lat="45.28941" lon="6.21617">
        <ele>1158</ele>
        <time>2020-02-16T07:32:22.000Z</time>
      </trkpt>
      <trkpt lat="45.28944" lon="6.21623">
        <ele>1157.5999755859</ele>
        <time>2020-02-16T07:32:26.000Z</time>
      </trkpt>
      <trkpt lat="45.28945" lon="6.21625">
        <ele>1157.5999755859</ele>
        <time>2020-02-16T07:32:28.000Z</time>
      </trkpt>
      <trkpt lat="45.28952" lon="6.21636">
        <ele>1156.8000488281</ele>
        <time>2020-02-16T07:32:35.000Z</time>
      </trkpt>
      <trkpt lat="45.28954" lon="6.21637">
        <ele>1156.5999755859</ele>
        <time>2020-02-16T07:32:37.000Z</time>
      </trkpt>
      <trkpt lat="45.28958" lon="6.21641">
        <ele>1156.5999755859</ele>
        <time>2020-02-16T07:32:40.000Z</time>
      </trkpt>
      <trkpt lat="45.28962" lon="6.21646">
        <ele>1155.5999755859</ele>
        <time>2020-02-16T07:32:45.000Z</time>
      </trkpt>
      <trkpt lat="45.28964" lon="6.21647">
        <ele>1155.1999511719</ele>
        <time>2020-02-16T07:32:47.000Z</time>
      </trkpt>
      <trkpt lat="45.28972" lon="6.21657">
        <ele>1154.5999755859</ele>
        <time>2020-02-16T07:32:54.000Z</time>
      </trkpt>
      <trkpt lat="45.28974" lon="6.21657">
        <ele>1154.4000244141</ele>
        <time>2020-02-16T07:32:56.000Z</time>
      </trkpt>
      <trkpt lat="45.28979" lon="6.2166">
        <ele>1154</ele>
        <time>2020-02-16T07:33:00.000Z</time>
      </trkpt>
      <trkpt lat="45.28982" lon="6.21666">
        <ele>1153.5999755859</ele>
        <time>2020-02-16T07:33:05.000Z</time>
      </trkpt>
      <trkpt lat="45.28984" lon="6.21669">
        <ele>1153.1999511719</ele>
        <time>2020-02-16T07:33:07.000Z</time>
      </trkpt>
      <trkpt lat="45.28984" lon="6.21672">
        <ele>1152.8000488281</ele>
        <time>2020-02-16T07:33:09.000Z</time>
      </trkpt>
      <trkpt lat="45.28981" lon="6.21678">
        <ele>1152.4000244141</ele>
        <time>2020-02-16T07:33:11.000Z</time>
      </trkpt>
      <trkpt lat="45.28977" lon="6.21692">
        <ele>1151.5999755859</ele>
        <time>2020-02-16T07:33:16.000Z</time>
      </trkpt>
      <trkpt lat="45.28978" lon="6.21694">
        <ele>1151.4000244141</ele>
        <time>2020-02-16T07:33:17.000Z</time>
      </trkpt>
      <trkpt lat="45.28981" lon="6.21698">
        <ele>1150.8000488281</ele>
        <time>2020-02-16T07:33:20.000Z</time>
      </trkpt>
      <trkpt lat="45.28982" lon="6.21698">
        <ele>1150.1999511719</ele>
        <time>2020-02-16T07:33:23.000Z</time>
      </trkpt>
      <trkpt lat="45.28985" lon="6.217">
        <ele>1149.8000488281</ele>
        <time>2020-02-16T07:33:25.000Z</time>
      </trkpt>
      <trkpt lat="45.2899" lon="6.21709">
        <ele>1149.1999511719</ele>
        <time>2020-02-16T07:33:30.000Z</time>
      </trkpt>
      <trkpt lat="45.28992" lon="6.2171">
        <ele>1149</ele>
        <time>2020-02-16T07:33:31.000Z</time>
      </trkpt>
      <trkpt lat="45.28999" lon="6.21719">
        <ele>1148.1999511719</ele>
        <time>2020-02-16T07:33:37.000Z</time>
      </trkpt>
      <trkpt lat="45.29" lon="6.21719">
        <ele>1148</ele>
        <time>2020-02-16T07:33:38.000Z</time>
      </trkpt>
      <trkpt lat="45.29004" lon="6.21721">
        <ele>1147.1999511719</ele>
        <time>2020-02-16T07:33:43.000Z</time>
      </trkpt>
      <trkpt lat="45.29009" lon="6.21721">
        <ele>1146.8000488281</ele>
        <time>2020-02-16T07:33:46.000Z</time>
      </trkpt>
      <trkpt lat="45.29015" lon="6.21719">
        <ele>1146.5999755859</ele>
        <time>2020-02-16T07:33:50.000Z</time>
      </trkpt>
      <trkpt lat="45.29016" lon="6.21718">
        <ele>1146.5999755859</ele>
        <time>2020-02-16T07:33:51.000Z</time>
      </trkpt>
      <trkpt lat="45.29021" lon="6.21716">
        <ele>1145.8000488281</ele>
        <time>2020-02-16T07:33:55.000Z</time>
      </trkpt>
      <trkpt lat="45.29024" lon="6.21717">
        <ele>1145.5999755859</ele>
        <time>2020-02-16T07:33:57.000Z</time>
      </trkpt>
      <trkpt lat="45.2903" lon="6.21718">
        <ele>1144.8000488281</ele>
        <time>2020-02-16T07:34:01.000Z</time>
      </trkpt>
      <trkpt lat="45.29034" lon="6.21717">
        <ele>1144.1999511719</ele>
        <time>2020-02-16T07:34:05.000Z</time>
      </trkpt>
      <trkpt lat="45.29041" lon="6.21713">
        <ele>1144.1999511719</ele>
        <time>2020-02-16T07:34:12.000Z</time>
      </trkpt>
      <trkpt lat="45.29051" lon="6.21709">
        <ele>1145.1999511719</ele>
        <time>2020-02-16T07:34:19.000Z</time>
      </trkpt>
      <trkpt lat="45.29056" lon="6.21706">
        <ele>1145.8000488281</ele>
        <time>2020-02-16T07:34:23.000Z</time>
      </trkpt>
      <trkpt lat="45.29059" lon="6.21705">
        <ele>1146.1999511719</ele>
        <time>2020-02-16T07:34:25.000Z</time>
      </trkpt>
      <trkpt lat="45.29061" lon="6.21703">
        <ele>1146.4000244141</ele>
        <time>2020-02-16T07:34:26.000Z</time>
      </trkpt>
      <trkpt lat="45.29071" lon="6.21699">
        <ele>1147</ele>
        <time>2020-02-16T07:34:31.000Z</time>
      </trkpt>
      <trkpt lat="45.29081" lon="6.21696">
        <ele>1147</ele>
        <time>2020-02-16T07:34:35.000Z</time>
      </trkpt>
      <trkpt lat="45.29086" lon="6.21693">
        <ele>1147.1999511719</ele>
        <time>2020-02-16T07:34:40.000Z</time>
      </trkpt>
      <trkpt lat="45.29087" lon="6.21692">
        <ele>1147.4000244141</ele>
        <time>2020-02-16T07:34:41.000Z</time>
      </trkpt>
      <trkpt lat="45.29092" lon="6.21688">
        <ele>1147.8000488281</ele>
        <time>2020-02-16T07:34:46.000Z</time>
      </trkpt>
      <trkpt lat="45.29096" lon="6.21683">
        <ele>1147.8000488281</ele>
        <time>2020-02-16T07:34:51.000Z</time>
      </trkpt>
      <trkpt lat="45.29096" lon="6.21683">
        <ele>1148</ele>
        <time>2020-02-16T07:34:55.000Z</time>
      </trkpt>
      <trkpt lat="45.29096" lon="6.21683">
        <ele>1148.1999511719</ele>
        <time>2020-02-16T07:34:57.000Z</time>
      </trkpt>
      <trkpt lat="45.29097" lon="6.21678">
        <ele>1148.8000488281</ele>
        <time>2020-02-16T07:35:03.000Z</time>
      </trkpt>
      <trkpt lat="45.29097" lon="6.21674">
        <ele>1149</ele>
        <time>2020-02-16T07:35:06.000Z</time>
      </trkpt>
      <trkpt lat="45.29097" lon="6.21673">
        <ele>1149.1999511719</ele>
        <time>2020-02-16T07:35:08.000Z</time>
      </trkpt>
      <trkpt lat="45.29099" lon="6.21668">
        <ele>1150.1999511719</ele>
        <time>2020-02-16T07:35:14.000Z</time>
      </trkpt>
      <trkpt lat="45.29105" lon="6.21665">
        <ele>1151</ele>
        <time>2020-02-16T07:35:20.000Z</time>
      </trkpt>
      <trkpt lat="45.29105" lon="6.21663">
        <ele>1151.1999511719</ele>
        <time>2020-02-16T07:35:21.000Z</time>
      </trkpt>
      <trkpt lat="45.29107" lon="6.21661">
        <ele>1151.5999755859</ele>
        <time>2020-02-16T07:35:23.000Z</time>
      </trkpt>
      <trkpt lat="45.29108" lon="6.21661">
        <ele>1152</ele>
        <time>2020-02-16T07:35:25.000Z</time>
      </trkpt>
      <trkpt lat="45.2911" lon="6.21658">
        <ele>1152.4000244141</ele>
        <time>2020-02-16T07:35:27.000Z</time>
      </trkpt>
      <trkpt lat="45.29113" lon="6.21654">
        <ele>1153.1999511719</ele>
        <time>2020-02-16T07:35:31.000Z</time>
      </trkpt>
      <trkpt lat="45.29113" lon="6.21653">
        <ele>1153.4000244141</ele>
        <time>2020-02-16T07:35:32.000Z</time>
      </trkpt>
      <trkpt lat="45.29117" lon="6.21651">
        <ele>1154.5999755859</ele>
        <time>2020-02-16T07:35:37.000Z</time>
      </trkpt>
      <trkpt lat="45.29117" lon="6.21651">
        <ele>1154.8000488281</ele>
        <time>2020-02-16T07:35:38.000Z</time>
      </trkpt>
      <trkpt lat="45.29119" lon="6.21647">
        <ele>1155.5999755859</ele>
        <time>2020-02-16T07:35:44.000Z</time>
      </trkpt>
      <trkpt lat="45.29123" lon="6.21645">
        <ele>1156.8000488281</ele>
        <time>2020-02-16T07:35:49.000Z</time>
      </trkpt>
      <trkpt lat="45.29124" lon="6.21642">
        <ele>1157.1999511719</ele>
        <time>2020-02-16T07:35:51.000Z</time>
      </trkpt>
      <trkpt lat="45.29123" lon="6.2164">
        <ele>1157.8000488281</ele>
        <time>2020-02-16T07:35:54.000Z</time>
      </trkpt>
      <trkpt lat="45.29122" lon="6.21637">
        <ele>1158.1999511719</ele>
        <time>2020-02-16T07:35:56.000Z</time>
      </trkpt>
      <trkpt lat="45.29123" lon="6.21634">
        <ele>1158.8000488281</ele>
        <time>2020-02-16T07:36:01.000Z</time>
      </trkpt>
      <trkpt lat="45.29132" lon="6.21629">
        <ele>1159.5999755859</ele>
        <time>2020-02-16T07:36:07.000Z</time>
      </trkpt>
      <trkpt lat="45.29137" lon="6.21626">
        <ele>1160</ele>
        <time>2020-02-16T07:36:10.000Z</time>
      </trkpt>
      <trkpt lat="45.2914" lon="6.21624">
        <ele>1160.4000244141</ele>
        <time>2020-02-16T07:36:12.000Z</time>
      </trkpt>
      <trkpt lat="45.2914" lon="6.21618">
        <ele>1161</ele>
        <time>2020-02-16T07:36:16.000Z</time>
      </trkpt>
      <trkpt lat="45.2914" lon="6.21617">
        <ele>1161.4000244141</ele>
        <time>2020-02-16T07:36:17.000Z</time>
      </trkpt>
      <trkpt lat="45.2914" lon="6.21614">
        <ele>1162.1999511719</ele>
        <time>2020-02-16T07:36:20.000Z</time>
      </trkpt>
      <trkpt lat="45.29141" lon="6.2161">
        <ele>1162.4000244141</ele>
        <time>2020-02-16T07:36:22.000Z</time>
      </trkpt>
      <trkpt lat="45.29143" lon="6.21605">
        <ele>1163.1999511719</ele>
        <time>2020-02-16T07:36:27.000Z</time>
      </trkpt>
      <trkpt lat="45.29143" lon="6.21603">
        <ele>1163.4000244141</ele>
        <time>2020-02-16T07:36:28.000Z</time>
      </trkpt>
      <trkpt lat="45.29142" lon="6.216">
        <ele>1164</ele>
        <time>2020-02-16T07:36:33.000Z</time>
      </trkpt>
      <trkpt lat="45.29141" lon="6.21597">
        <ele>1164.4000244141</ele>
        <time>2020-02-16T07:36:35.000Z</time>
      </trkpt>
      <trkpt lat="45.2914" lon="6.21595">
        <ele>1165</ele>
        <time>2020-02-16T07:36:39.000Z</time>
      </trkpt>
      <trkpt lat="45.29139" lon="6.21594">
        <ele>1165.4000244141</ele>
        <time>2020-02-16T07:36:41.000Z</time>
      </trkpt>
      <trkpt lat="45.29141" lon="6.21592">
        <ele>1166</ele>
        <time>2020-02-16T07:36:44.000Z</time>
      </trkpt>
      <trkpt lat="45.29142" lon="6.21588">
        <ele>1166.5999755859</ele>
        <time>2020-02-16T07:36:48.000Z</time>
      </trkpt>
      <trkpt lat="45.29142" lon="6.21586">
        <ele>1167</ele>
        <time>2020-02-16T07:36:50.000Z</time>
      </trkpt>
      <trkpt lat="45.29143" lon="6.21581">
        <ele>1167.5999755859</ele>
        <time>2020-02-16T07:36:54.000Z</time>
      </trkpt>
      <trkpt lat="45.29143" lon="6.21581">
        <ele>1167.5999755859</ele>
        <time>2020-02-16T07:36:55.000Z</time>
      </trkpt>
      <trkpt lat="45.29148" lon="6.21578">
        <ele>1168.5999755859</ele>
        <time>2020-02-16T07:37:00.000Z</time>
      </trkpt>
      <trkpt lat="45.29148" lon="6.21578">
        <ele>1168.8000488281</ele>
        <time>2020-02-16T07:37:01.000Z</time>
      </trkpt>
      <trkpt lat="45.29152" lon="6.21574">
        <ele>1169.5999755859</ele>
        <time>2020-02-16T07:37:06.000Z</time>
      </trkpt>
      <trkpt lat="45.29152" lon="6.21574">
        <ele>1170</ele>
        <time>2020-02-16T07:37:07.000Z</time>
      </trkpt>
      <trkpt lat="45.29155" lon="6.21571">
        <ele>1170.5999755859</ele>
        <time>2020-02-16T07:37:12.000Z</time>
      </trkpt>
      <trkpt lat="45.29156" lon="6.21569">
        <ele>1171</ele>
        <time>2020-02-16T07:37:14.000Z</time>
      </trkpt>
      <trkpt lat="45.29157" lon="6.21566">
        <ele>1172</ele>
        <time>2020-02-16T07:37:20.000Z</time>
      </trkpt>
      <trkpt lat="45.29156" lon="6.21565">
        <ele>1172</ele>
        <time>2020-02-16T07:37:21.000Z</time>
      </trkpt>
      <trkpt lat="45.29155" lon="6.2156">
        <ele>1172.8000488281</ele>
        <time>2020-02-16T07:37:26.000Z</time>
      </trkpt>
      <trkpt lat="45.29155" lon="6.21558">
        <ele>1173.1999511719</ele>
        <time>2020-02-16T07:37:28.000Z</time>
      </trkpt>
      <trkpt lat="45.29156" lon="6.21557">
        <ele>1174.1999511719</ele>
        <time>2020-02-16T07:37:33.000Z</time>
      </trkpt>
      <trkpt lat="45.2916" lon="6.2155">
        <ele>1175.4000244141</ele>
        <time>2020-02-16T07:37:39.000Z</time>
      </trkpt>
      <trkpt lat="45.29161" lon="6.21546">
        <ele>1176.4000244141</ele>
        <time>2020-02-16T07:37:45.000Z</time>
      </trkpt>
      <trkpt lat="45.29161" lon="6.21546">
        <ele>1176.4000244141</ele>
        <time>2020-02-16T07:37:46.000Z</time>
      </trkpt>
      <trkpt lat="45.29161" lon="6.2154">
        <ele>1177.1999511719</ele>
        <time>2020-02-16T07:37:52.000Z</time>
      </trkpt>
      <trkpt lat="45.29162" lon="6.21538">
        <ele>1177.5999755859</ele>
        <time>2020-02-16T07:37:55.000Z</time>
      </trkpt>
      <trkpt lat="45.29162" lon="6.21537">
        <ele>1178.1999511719</ele>
        <time>2020-02-16T07:37:58.000Z</time>
      </trkpt>
      <trkpt lat="45.29163" lon="6.21536">
        <ele>1178.8000488281</ele>
        <time>2020-02-16T07:38:01.000Z</time>
      </trkpt>
      <trkpt lat="45.29164" lon="6.21533">
        <ele>1179</ele>
        <time>2020-02-16T07:38:02.000Z</time>
      </trkpt>
      <trkpt lat="45.29164" lon="6.21529">
        <ele>1179.5999755859</ele>
        <time>2020-02-16T07:38:08.000Z</time>
      </trkpt>
      <trkpt lat="45.29166" lon="6.21527">
        <ele>1179.8000488281</ele>
        <time>2020-02-16T07:38:10.000Z</time>
      </trkpt>
      <trkpt lat="45.29168" lon="6.21523">
        <ele>1180.8000488281</ele>
        <time>2020-02-16T07:38:15.000Z</time>
      </trkpt>
      <trkpt lat="45.29169" lon="6.21522">
        <ele>1181</ele>
        <time>2020-02-16T07:38:16.000Z</time>
      </trkpt>
      <trkpt lat="45.2917" lon="6.21519">
        <ele>1182</ele>
        <time>2020-02-16T07:38:22.000Z</time>
      </trkpt>
      <trkpt lat="45.2917" lon="6.21518">
        <ele>1182.4000244141</ele>
        <time>2020-02-16T07:38:23.000Z</time>
      </trkpt>
      <trkpt lat="45.29171" lon="6.21514">
        <ele>1183.1999511719</ele>
        <time>2020-02-16T07:38:29.000Z</time>
      </trkpt>
      <trkpt lat="45.29171" lon="6.21514">
        <ele>1183.1999511719</ele>
        <time>2020-02-16T07:38:30.000Z</time>
      </trkpt>
      <trkpt lat="45.29174" lon="6.21509">
        <ele>1184.1999511719</ele>
        <time>2020-02-16T07:38:35.000Z</time>
      </trkpt>
      <trkpt lat="45.29175" lon="6.21509">
        <ele>1184.5999755859</ele>
        <time>2020-02-16T07:38:37.000Z</time>
      </trkpt>
      <trkpt lat="45.29175" lon="6.21508">
        <ele>1185.4000244141</ele>
        <time>2020-02-16T07:38:42.000Z</time>
      </trkpt>
      <trkpt lat="45.29175" lon="6.21508">
        <ele>1185.5999755859</ele>
        <time>2020-02-16T07:38:44.000Z</time>
      </trkpt>
      <trkpt lat="45.29175" lon="6.21504">
        <ele>1186.4000244141</ele>
        <time>2020-02-16T07:38:49.000Z</time>
      </trkpt>
      <trkpt lat="45.29175" lon="6.21502">
        <ele>1186.8000488281</ele>
        <time>2020-02-16T07:38:52.000Z</time>
      </trkpt>
      <trkpt lat="45.29175" lon="6.21502">
        <ele>1187.5999755859</ele>
        <time>2020-02-16T07:38:55.000Z</time>
      </trkpt>
      <trkpt lat="45.29175" lon="6.215">
        <ele>1188.4000244141</ele>
        <time>2020-02-16T07:39:02.000Z</time>
      </trkpt>
      <trkpt lat="45.29176" lon="6.21499">
        <ele>1188.5999755859</ele>
        <time>2020-02-16T07:39:04.000Z</time>
      </trkpt>
      <trkpt lat="45.29176" lon="6.21495">
        <ele>1189.8000488281</ele>
        <time>2020-02-16T07:39:10.000Z</time>
      </trkpt>
      <trkpt lat="45.29176" lon="6.21495">
        <ele>1190</ele>
        <time>2020-02-16T07:39:11.000Z</time>
      </trkpt>
      <trkpt lat="45.29177" lon="6.21491">
        <ele>1191</ele>
        <time>2020-02-16T07:39:18.000Z</time>
      </trkpt>
      <trkpt lat="45.29177" lon="6.2149">
        <ele>1191.1999511719</ele>
        <time>2020-02-16T07:39:19.000Z</time>
      </trkpt>
      <trkpt lat="45.29178" lon="6.21487">
        <ele>1192.1999511719</ele>
        <time>2020-02-16T07:39:25.000Z</time>
      </trkpt>
      <trkpt lat="45.29178" lon="6.21487">
        <ele>1192.1999511719</ele>
        <time>2020-02-16T07:39:26.000Z</time>
      </trkpt>
      <trkpt lat="45.29179" lon="6.21484">
        <ele>1193.1999511719</ele>
        <time>2020-02-16T07:39:30.000Z</time>
      </trkpt>
      <trkpt lat="45.2918" lon="6.21481">
        <ele>1193.8000488281</ele>
        <time>2020-02-16T07:39:34.000Z</time>
      </trkpt>
      <trkpt lat="45.29183" lon="6.21478">
        <ele>1194.1999511719</ele>
        <time>2020-02-16T07:39:37.000Z</time>
      </trkpt>
      <trkpt lat="45.29193" lon="6.21472">
        <ele>1195.1999511719</ele>
        <time>2020-02-16T07:39:43.000Z</time>
      </trkpt>
      <trkpt lat="45.29194" lon="6.21471">
        <ele>1195.4000244141</ele>
        <time>2020-02-16T07:39:44.000Z</time>
      </trkpt>
      <trkpt lat="45.29206" lon="6.21469">
        <ele>1196.4000244141</ele>
        <time>2020-02-16T07:39:51.000Z</time>
      </trkpt>
      <trkpt lat="45.29206" lon="6.21469">
        <ele>1196.4000244141</ele>
        <time>2020-02-16T07:39:52.000Z</time>
      </trkpt>
      <trkpt lat="45.29207" lon="6.21468">
        <ele>1197.4000244141</ele>
        <time>2020-02-16T07:39:55.000Z</time>
      </trkpt>
      <trkpt lat="45.29209" lon="6.21464">
        <ele>1198.1999511719</ele>
        <time>2020-02-16T07:40:00.000Z</time>
      </trkpt>
      <trkpt lat="45.2921" lon="6.2146">
        <ele>1198.5999755859</ele>
        <time>2020-02-16T07:40:04.000Z</time>
      </trkpt>
      <trkpt lat="45.2921" lon="6.21459">
        <ele>1198.8000488281</ele>
        <time>2020-02-16T07:40:06.000Z</time>
      </trkpt>
      <trkpt lat="45.29211" lon="6.21456">
        <ele>1199.5999755859</ele>
        <time>2020-02-16T07:40:11.000Z</time>
      </trkpt>
      <trkpt lat="45.29211" lon="6.21455">
        <ele>1199.8000488281</ele>
        <time>2020-02-16T07:40:12.000Z</time>
      </trkpt>
      <trkpt lat="45.29211" lon="6.21451">
        <ele>1200.8000488281</ele>
        <time>2020-02-16T07:40:17.000Z</time>
      </trkpt>
      <trkpt lat="45.29211" lon="6.21451">
        <ele>1201</ele>
        <time>2020-02-16T07:40:18.000Z</time>
      </trkpt>
      <trkpt lat="45.29212" lon="6.21447">
        <ele>1201.8000488281</ele>
        <time>2020-02-16T07:40:22.000Z</time>
      </trkpt>
      <trkpt lat="45.29211" lon="6.21445">
        <ele>1202.1999511719</ele>
        <time>2020-02-16T07:40:24.000Z</time>
      </trkpt>
      <trkpt lat="45.29212" lon="6.21443">
        <ele>1202.8000488281</ele>
        <time>2020-02-16T07:40:28.000Z</time>
      </trkpt>
      <trkpt lat="45.29211" lon="6.21439">
        <ele>1203.8000488281</ele>
        <time>2020-02-16T07:40:33.000Z</time>
      </trkpt>
      <trkpt lat="45.2921" lon="6.21439">
        <ele>1204</ele>
        <time>2020-02-16T07:40:34.000Z</time>
      </trkpt>
      <trkpt lat="45.2921" lon="6.21436">
        <ele>1205</ele>
        <time>2020-02-16T07:40:40.000Z</time>
      </trkpt>
      <trkpt lat="45.2921" lon="6.21436">
        <ele>1205.1999511719</ele>
        <time>2020-02-16T07:40:41.000Z</time>
      </trkpt>
      <trkpt lat="45.29212" lon="6.21433">
        <ele>1206.4000244141</ele>
        <time>2020-02-16T07:40:47.000Z</time>
      </trkpt>
      <trkpt lat="45.29213" lon="6.21433">
        <ele>1206.5999755859</ele>
        <time>2020-02-16T07:40:48.000Z</time>
      </trkpt>
      <trkpt lat="45.29215" lon="6.2143">
        <ele>1207.4000244141</ele>
        <time>2020-02-16T07:40:54.000Z</time>
      </trkpt>
      <trkpt lat="45.29215" lon="6.2143">
        <ele>1207.5999755859</ele>
        <time>2020-02-16T07:40:55.000Z</time>
      </trkpt>
      <trkpt lat="45.29216" lon="6.21427">
        <ele>1208.5999755859</ele>
        <time>2020-02-16T07:41:01.000Z</time>
      </trkpt>
      <trkpt lat="45.29216" lon="6.21426">
        <ele>1208.8000488281</ele>
        <time>2020-02-16T07:41:03.000Z</time>
      </trkpt>
      <trkpt lat="45.29217" lon="6.21424">
        <ele>1209.5999755859</ele>
        <time>2020-02-16T07:41:07.000Z</time>
      </trkpt>
      <trkpt lat="45.29217" lon="6.21423">
        <ele>1211</ele>
        <time>2020-02-16T07:41:12.000Z</time>
      </trkpt>
      <trkpt lat="45.29219" lon="6.2142">
        <ele>1212</ele>
        <time>2020-02-16T07:41:17.000Z</time>
      </trkpt>
      <trkpt lat="45.2922" lon="6.21419">
        <ele>1212.5999755859</ele>
        <time>2020-02-16T07:41:21.000Z</time>
      </trkpt>
      <trkpt lat="45.29221" lon="6.21417">
        <ele>1213.1999511719</ele>
        <time>2020-02-16T07:41:23.000Z</time>
      </trkpt>
      <trkpt lat="45.29222" lon="6.21416">
        <ele>1213.5999755859</ele>
        <time>2020-02-16T07:41:27.000Z</time>
      </trkpt>
      <trkpt lat="45.29223" lon="6.21415">
        <ele>1214.4000244141</ele>
        <time>2020-02-16T07:41:30.000Z</time>
      </trkpt>
      <trkpt lat="45.29224" lon="6.21414">
        <ele>1215</ele>
        <time>2020-02-16T07:41:32.000Z</time>
      </trkpt>
      <trkpt lat="45.29226" lon="6.21412">
        <ele>1215.4000244141</ele>
        <time>2020-02-16T07:41:36.000Z</time>
      </trkpt>
      <trkpt lat="45.29227" lon="6.21411">
        <ele>1216.1999511719</ele>
        <time>2020-02-16T07:41:39.000Z</time>
      </trkpt>
      <trkpt lat="45.29227" lon="6.21411">
        <ele>1216.4000244141</ele>
        <time>2020-02-16T07:41:43.000Z</time>
      </trkpt>
      <trkpt lat="45.29228" lon="6.21409">
        <ele>1217.4000244141</ele>
        <time>2020-02-16T07:41:48.000Z</time>
      </trkpt>
      <trkpt lat="45.29229" lon="6.21408">
        <ele>1217.5999755859</ele>
        <time>2020-02-16T07:41:49.000Z</time>
      </trkpt>
      <trkpt lat="45.29232" lon="6.21404">
        <ele>1218.5999755859</ele>
        <time>2020-02-16T07:41:55.000Z</time>
      </trkpt>
      <trkpt lat="45.29232" lon="6.21404">
        <ele>1219.1999511719</ele>
        <time>2020-02-16T07:41:58.000Z</time>
      </trkpt>
      <trkpt lat="45.29232" lon="6.21404">
        <ele>1219.8000488281</ele>
        <time>2020-02-16T07:42:00.000Z</time>
      </trkpt>
      <trkpt lat="45.29234" lon="6.21398">
        <ele>1220.5999755859</ele>
        <time>2020-02-16T07:42:08.000Z</time>
      </trkpt>
      <trkpt lat="45.29235" lon="6.21397">
        <ele>1221</ele>
        <time>2020-02-16T07:42:09.000Z</time>
      </trkpt>
      <trkpt lat="45.29238" lon="6.21391">
        <ele>1222</ele>
        <time>2020-02-16T07:42:16.000Z</time>
      </trkpt>
      <trkpt lat="45.29238" lon="6.2139">
        <ele>1222.1999511719</ele>
        <time>2020-02-16T07:42:17.000Z</time>
      </trkpt>
      <trkpt lat="45.29237" lon="6.21386">
        <ele>1223</ele>
        <time>2020-02-16T07:42:25.000Z</time>
      </trkpt>
      <trkpt lat="45.29237" lon="6.21385">
        <ele>1223.1999511719</ele>
        <time>2020-02-16T07:42:26.000Z</time>
      </trkpt>
      <trkpt lat="45.29235" lon="6.21381">
        <ele>1224</ele>
        <time>2020-02-16T07:42:29.000Z</time>
      </trkpt>
      <trkpt lat="45.29232" lon="6.21376">
        <ele>1224.5999755859</ele>
        <time>2020-02-16T07:42:33.000Z</time>
      </trkpt>
      <trkpt lat="45.29231" lon="6.21374">
        <ele>1225.1999511719</ele>
        <time>2020-02-16T07:42:36.000Z</time>
      </trkpt>
      <trkpt lat="45.2923" lon="6.21373">
        <ele>1226.4000244141</ele>
        <time>2020-02-16T07:42:41.000Z</time>
      </trkpt>
      <trkpt lat="45.29228" lon="6.21371">
        <ele>1227.4000244141</ele>
        <time>2020-02-16T07:42:46.000Z</time>
      </trkpt>
      <trkpt lat="45.29228" lon="6.2137">
        <ele>1228.1999511719</ele>
        <time>2020-02-16T07:42:50.000Z</time>
      </trkpt>
      <trkpt lat="45.29228" lon="6.2137">
        <ele>1228.5999755859</ele>
        <time>2020-02-16T07:42:52.000Z</time>
      </trkpt>
      <trkpt lat="45.29229" lon="6.21366">
        <ele>1229.8000488281</ele>
        <time>2020-02-16T07:42:59.000Z</time>
      </trkpt>
      <trkpt lat="45.29229" lon="6.21365">
        <ele>1230</ele>
        <time>2020-02-16T07:43:00.000Z</time>
      </trkpt>
      <trkpt lat="45.29229" lon="6.21364">
        <ele>1230.4000244141</ele>
        <time>2020-02-16T07:43:02.000Z</time>
      </trkpt>
      <trkpt lat="45.2923" lon="6.21361">
        <ele>1230.8000488281</ele>
        <time>2020-02-16T07:43:05.000Z</time>
      </trkpt>
      <trkpt lat="45.29232" lon="6.21357">
        <ele>1231.1999511719</ele>
        <time>2020-02-16T07:43:07.000Z</time>
      </trkpt>
      <trkpt lat="45.29232" lon="6.21354">
        <ele>1231.8000488281</ele>
        <time>2020-02-16T07:43:10.000Z</time>
      </trkpt>
      <trkpt lat="45.29234" lon="6.21352">
        <ele>1232.4000244141</ele>
        <time>2020-02-16T07:43:13.000Z</time>
      </trkpt>
      <trkpt lat="45.29235" lon="6.2135">
        <ele>1232.8000488281</ele>
        <time>2020-02-16T07:43:16.000Z</time>
      </trkpt>
      <trkpt lat="45.29236" lon="6.21349">
        <ele>1233</ele>
        <time>2020-02-16T07:43:19.000Z</time>
      </trkpt>
      <trkpt lat="45.29237" lon="6.21347">
        <ele>1233.8000488281</ele>
        <time>2020-02-16T07:43:24.000Z</time>
      </trkpt>
      <trkpt lat="45.29237" lon="6.21346">
        <ele>1234.1999511719</ele>
        <time>2020-02-16T07:43:26.000Z</time>
      </trkpt>
      <trkpt lat="45.29239" lon="6.21342">
        <ele>1235</ele>
        <time>2020-02-16T07:43:29.000Z</time>
      </trkpt>
      <trkpt lat="45.29239" lon="6.21342">
        <ele>1235.5999755859</ele>
        <time>2020-02-16T07:43:31.000Z</time>
      </trkpt>
      <trkpt lat="45.29241" lon="6.21337">
        <ele>1236.1999511719</ele>
        <time>2020-02-16T07:43:36.000Z</time>
      </trkpt>
      <trkpt lat="45.29241" lon="6.21336">
        <ele>1236.1999511719</ele>
        <time>2020-02-16T07:43:37.000Z</time>
      </trkpt>
      <trkpt lat="45.29246" lon="6.21329">
        <ele>1237</ele>
        <time>2020-02-16T07:43:43.000Z</time>
      </trkpt>
      <trkpt lat="45.29247" lon="6.21328">
        <ele>1237.4000244141</ele>
        <time>2020-02-16T07:43:46.000Z</time>
      </trkpt>
      <trkpt lat="45.29247" lon="6.21327">
        <ele>1237.8000488281</ele>
        <time>2020-02-16T07:43:51.000Z</time>
      </trkpt>
      <trkpt lat="45.29248" lon="6.21327">
        <ele>1238</ele>
        <time>2020-02-16T07:44:03.000Z</time>
      </trkpt>
      <trkpt lat="45.29249" lon="6.21326">
        <ele>1238.4000244141</ele>
        <time>2020-02-16T07:44:07.000Z</time>
      </trkpt>
      <trkpt lat="45.29249" lon="6.21326">
        <ele>1238</ele>
        <time>2020-02-16T07:44:16.000Z</time>
      </trkpt>
      <trkpt lat="45.2925" lon="6.21326">
        <ele>1237.4000244141</ele>
        <time>2020-02-16T07:44:28.000Z</time>
      </trkpt>
      <trkpt lat="45.2925" lon="6.21326">
        <ele>1237.1999511719</ele>
        <time>2020-02-16T07:44:29.000Z</time>
      </trkpt>
      <trkpt lat="45.2925" lon="6.21326">
        <ele>1238.1999511719</ele>
        <time>2020-02-16T07:44:35.000Z</time>
      </trkpt>
      <trkpt lat="45.2925" lon="6.21326">
        <ele>1238</ele>
        <time>2020-02-16T07:44:41.000Z</time>
      </trkpt>
      <trkpt lat="45.2925" lon="6.21324">
        <ele>1238.5999755859</ele>
        <time>2020-02-16T07:44:49.000Z</time>
      </trkpt>
      <trkpt lat="45.29253" lon="6.21316">
        <ele>1239.1999511719</ele>
        <time>2020-02-16T07:44:56.000Z</time>
      </trkpt>
      <trkpt lat="45.29254" lon="6.21315">
        <ele>1239.5999755859</ele>
        <time>2020-02-16T07:44:57.000Z</time>
      </trkpt>
      <trkpt lat="45.29254" lon="6.21312">
        <ele>1240.4000244141</ele>
        <time>2020-02-16T07:45:02.000Z</time>
      </trkpt>
      <trkpt lat="45.29254" lon="6.21312">
        <ele>1241.1999511719</ele>
        <time>2020-02-16T07:45:05.000Z</time>
      </trkpt>
      <trkpt lat="45.29256" lon="6.2131">
        <ele>1241.4000244141</ele>
        <time>2020-02-16T07:45:14.000Z</time>
      </trkpt>
      <trkpt lat="45.29256" lon="6.21309">
        <ele>1241.4000244141</ele>
        <time>2020-02-16T07:45:15.000Z</time>
      </trkpt>
      <trkpt lat="45.2926" lon="6.21303">
        <ele>1242.4000244141</ele>
        <time>2020-02-16T07:45:22.000Z</time>
      </trkpt>
      <trkpt lat="45.29264" lon="6.21299">
        <ele>1243.5999755859</ele>
        <time>2020-02-16T07:45:28.000Z</time>
      </trkpt>
      <trkpt lat="45.29266" lon="6.21296">
        <ele>1244</ele>
        <time>2020-02-16T07:45:30.000Z</time>
      </trkpt>
      <trkpt lat="45.29267" lon="6.21294">
        <ele>1244.8000488281</ele>
        <time>2020-02-16T07:45:33.000Z</time>
      </trkpt>
      <trkpt lat="45.29272" lon="6.21287">
        <ele>1245.8000488281</ele>
        <time>2020-02-16T07:45:38.000Z</time>
      </trkpt>
      <trkpt lat="45.29273" lon="6.21286">
        <ele>1245.8000488281</ele>
        <time>2020-02-16T07:45:39.000Z</time>
      </trkpt>
      <trkpt lat="45.29275" lon="6.21281">
        <ele>1246.8000488281</ele>
        <time>2020-02-16T07:45:44.000Z</time>
      </trkpt>
      <trkpt lat="45.29277" lon="6.21277">
        <ele>1247.1999511719</ele>
        <time>2020-02-16T07:45:47.000Z</time>
      </trkpt>
      <trkpt lat="45.2928" lon="6.21274">
        <ele>1248.1999511719</ele>
        <time>2020-02-16T07:45:50.000Z</time>
      </trkpt>
      <trkpt lat="45.29282" lon="6.2127">
        <ele>1249.4000244141</ele>
        <time>2020-02-16T07:45:54.000Z</time>
      </trkpt>
      <trkpt lat="45.29282" lon="6.21269">
        <ele>1249.5999755859</ele>
        <time>2020-02-16T07:45:55.000Z</time>
      </trkpt>
      <trkpt lat="45.29283" lon="6.21267">
        <ele>1250.4000244141</ele>
        <time>2020-02-16T07:45:59.000Z</time>
      </trkpt>
      <trkpt lat="45.29294" lon="6.21261">
        <ele>1251.4000244141</ele>
        <time>2020-02-16T07:46:05.000Z</time>
      </trkpt>
      <trkpt lat="45.29304" lon="6.21259">
        <ele>1251.4000244141</ele>
        <time>2020-02-16T07:46:12.000Z</time>
      </trkpt>
      <trkpt lat="45.29306" lon="6.21258">
        <ele>1251.4000244141</ele>
        <time>2020-02-16T07:46:13.000Z</time>
      </trkpt>
      <trkpt lat="45.29317" lon="6.21251">
        <ele>1251.5999755859</ele>
        <time>2020-02-16T07:46:20.000Z</time>
      </trkpt>
      <trkpt lat="45.29318" lon="6.21245">
        <ele>1252.4000244141</ele>
        <time>2020-02-16T07:46:25.000Z</time>
      </trkpt>
      <trkpt lat="45.29318" lon="6.21243">
        <ele>1252.4000244141</ele>
        <time>2020-02-16T07:46:26.000Z</time>
      </trkpt>
      <trkpt lat="45.29322" lon="6.21238">
        <ele>1253.1999511719</ele>
        <time>2020-02-16T07:46:32.000Z</time>
      </trkpt>
      <trkpt lat="45.29323" lon="6.21233">
        <ele>1253.5999755859</ele>
        <time>2020-02-16T07:46:35.000Z</time>
      </trkpt>
      <trkpt lat="45.29325" lon="6.21229">
        <ele>1254.1999511719</ele>
        <time>2020-02-16T07:46:39.000Z</time>
      </trkpt>
      <trkpt lat="45.29324" lon="6.21227">
        <ele>1254.5999755859</ele>
        <time>2020-02-16T07:46:41.000Z</time>
      </trkpt>
      <trkpt lat="45.29323" lon="6.21222">
        <ele>1255.8000488281</ele>
        <time>2020-02-16T07:46:46.000Z</time>
      </trkpt>
      <trkpt lat="45.29322" lon="6.21218">
        <ele>1256.1999511719</ele>
        <time>2020-02-16T07:46:48.000Z</time>
      </trkpt>
      <trkpt lat="45.29321" lon="6.21214">
        <ele>1256.8000488281</ele>
        <time>2020-02-16T07:46:51.000Z</time>
      </trkpt>
      <trkpt lat="45.29317" lon="6.21208">
        <ele>1257.5999755859</ele>
        <time>2020-02-16T07:46:56.000Z</time>
      </trkpt>
      <trkpt lat="45.29317" lon="6.21206">
        <ele>1257.8000488281</ele>
        <time>2020-02-16T07:46:57.000Z</time>
      </trkpt>
      <trkpt lat="45.29317" lon="6.21199">
        <ele>1259</ele>
        <time>2020-02-16T07:47:03.000Z</time>
      </trkpt>
      <trkpt lat="45.29318" lon="6.21195">
        <ele>1260</ele>
        <time>2020-02-16T07:47:06.000Z</time>
      </trkpt>
      <trkpt lat="45.29319" lon="6.21194">
        <ele>1260.1999511719</ele>
        <time>2020-02-16T07:47:07.000Z</time>
      </trkpt>
      <trkpt lat="45.2932" lon="6.21188">
        <ele>1261</ele>
        <time>2020-02-16T07:47:14.000Z</time>
      </trkpt>
      <trkpt lat="45.2932" lon="6.21187">
        <ele>1261.1999511719</ele>
        <time>2020-02-16T07:47:15.000Z</time>
      </trkpt>
      <trkpt lat="45.29321" lon="6.21181">
        <ele>1262.1999511719</ele>
        <time>2020-02-16T07:47:22.000Z</time>
      </trkpt>
      <trkpt lat="45.29321" lon="6.21181">
        <ele>1262.4000244141</ele>
        <time>2020-02-16T07:47:23.000Z</time>
      </trkpt>
      <trkpt lat="45.29322" lon="6.21174">
        <ele>1263.4000244141</ele>
        <time>2020-02-16T07:47:30.000Z</time>
      </trkpt>
      <trkpt lat="45.29323" lon="6.21164">
        <ele>1264.5999755859</ele>
        <time>2020-02-16T07:47:39.000Z</time>
      </trkpt>
      <trkpt lat="45.29326" lon="6.21154">
        <ele>1265.5999755859</ele>
        <time>2020-02-16T07:47:47.000Z</time>
      </trkpt>
      <trkpt lat="45.29326" lon="6.21152">
        <ele>1265.8000488281</ele>
        <time>2020-02-16T07:47:48.000Z</time>
      </trkpt>
      <trkpt lat="45.29327" lon="6.21142">
        <ele>1266.8000488281</ele>
        <time>2020-02-16T07:47:54.000Z</time>
      </trkpt>
      <trkpt lat="45.29327" lon="6.2114">
        <ele>1267</ele>
        <time>2020-02-16T07:47:56.000Z</time>
      </trkpt>
      <trkpt lat="45.29328" lon="6.21137">
        <ele>1268</ele>
        <time>2020-02-16T07:48:02.000Z</time>
      </trkpt>
      <trkpt lat="45.29328" lon="6.21136">
        <ele>1268.4000244141</ele>
        <time>2020-02-16T07:48:04.000Z</time>
      </trkpt>
      <trkpt lat="45.29328" lon="6.21133">
        <ele>1269.1999511719</ele>
        <time>2020-02-16T07:48:09.000Z</time>
      </trkpt>
      <trkpt lat="45.29328" lon="6.21131">
        <ele>1269.4000244141</ele>
        <time>2020-02-16T07:48:10.000Z</time>
      </trkpt>
      <trkpt lat="45.29328" lon="6.21125">
        <ele>1270.4000244141</ele>
        <time>2020-02-16T07:48:16.000Z</time>
      </trkpt>
      <trkpt lat="45.29328" lon="6.21122">
        <ele>1271.1999511719</ele>
        <time>2020-02-16T07:48:18.000Z</time>
      </trkpt>
      <trkpt lat="45.29328" lon="6.21121">
        <ele>1271.4000244141</ele>
        <time>2020-02-16T07:48:20.000Z</time>
      </trkpt>
      <trkpt lat="45.29328" lon="6.21121">
        <ele>1272.1999511719</ele>
        <time>2020-02-16T07:48:26.000Z</time>
      </trkpt>
      <trkpt lat="45.29328" lon="6.21119">
        <ele>1272.5999755859</ele>
        <time>2020-02-16T07:48:27.000Z</time>
      </trkpt>
      <trkpt lat="45.29328" lon="6.21111">
        <ele>1273.5999755859</ele>
        <time>2020-02-16T07:48:32.000Z</time>
      </trkpt>
      <trkpt lat="45.29328" lon="6.21107">
        <ele>1274.1999511719</ele>
        <time>2020-02-16T07:48:35.000Z</time>
      </trkpt>
      <trkpt lat="45.29328" lon="6.21103">
        <ele>1274.5999755859</ele>
        <time>2020-02-16T07:48:39.000Z</time>
      </trkpt>
      <trkpt lat="45.29327" lon="6.21099">
        <ele>1275.1999511719</ele>
        <time>2020-02-16T07:48:43.000Z</time>
      </trkpt>
      <trkpt lat="45.29331" lon="6.21092">
        <ele>1275.8000488281</ele>
        <time>2020-02-16T07:48:46.000Z</time>
      </trkpt>
      <trkpt lat="45.29331" lon="6.21087">
        <ele>1276.8000488281</ele>
        <time>2020-02-16T07:48:51.000Z</time>
      </trkpt>
      <trkpt lat="45.29331" lon="6.21078">
        <ele>1278</ele>
        <time>2020-02-16T07:48:57.000Z</time>
      </trkpt>
      <trkpt lat="45.29331" lon="6.21076">
        <ele>1278.4000244141</ele>
        <time>2020-02-16T07:48:59.000Z</time>
      </trkpt>
      <trkpt lat="45.29331" lon="6.21069">
        <ele>1279</ele>
        <time>2020-02-16T07:49:04.000Z</time>
      </trkpt>
      <trkpt lat="45.29332" lon="6.21066">
        <ele>1280</ele>
        <time>2020-02-16T07:49:07.000Z</time>
      </trkpt>
      <trkpt lat="45.29332" lon="6.21065">
        <ele>1280.1999511719</ele>
        <time>2020-02-16T07:49:08.000Z</time>
      </trkpt>
      <trkpt lat="45.29331" lon="6.21061">
        <ele>1281.4000244141</ele>
        <time>2020-02-16T07:49:14.000Z</time>
      </trkpt>
      <trkpt lat="45.2933" lon="6.21059">
        <ele>1281.8000488281</ele>
        <time>2020-02-16T07:49:16.000Z</time>
      </trkpt>
      <trkpt lat="45.2933" lon="6.21055">
        <ele>1282.4000244141</ele>
        <time>2020-02-16T07:49:19.000Z</time>
      </trkpt>
      <trkpt lat="45.29326" lon="6.21047">
        <ele>1283.4000244141</ele>
        <time>2020-02-16T07:49:25.000Z</time>
      </trkpt>
      <trkpt lat="45.29324" lon="6.21041">
        <ele>1284.8000488281</ele>
        <time>2020-02-16T07:49:30.000Z</time>
      </trkpt>
      <trkpt lat="45.29324" lon="6.21036">
        <ele>1285.4000244141</ele>
        <time>2020-02-16T07:49:34.000Z</time>
      </trkpt>
      <trkpt lat="45.29324" lon="6.21032">
        <ele>1286</ele>
        <time>2020-02-16T07:49:37.000Z</time>
      </trkpt>
      <trkpt lat="45.29322" lon="6.21027">
        <ele>1286.5999755859</ele>
        <time>2020-02-16T07:49:42.000Z</time>
      </trkpt>
      <trkpt lat="45.29322" lon="6.21025">
        <ele>1287</ele>
        <time>2020-02-16T07:49:44.000Z</time>
      </trkpt>
      <trkpt lat="45.29322" lon="6.21019">
        <ele>1288.1999511719</ele>
        <time>2020-02-16T07:49:48.000Z</time>
      </trkpt>
      <trkpt lat="45.29322" lon="6.21018">
        <ele>1288.4000244141</ele>
        <time>2020-02-16T07:49:49.000Z</time>
      </trkpt>
      <trkpt lat="45.29322" lon="6.21015">
        <ele>1289.4000244141</ele>
        <time>2020-02-16T07:49:54.000Z</time>
      </trkpt>
      <trkpt lat="45.29323" lon="6.21009">
        <ele>1290.5999755859</ele>
        <time>2020-02-16T07:49:58.000Z</time>
      </trkpt>
      <trkpt lat="45.29325" lon="6.21006">
        <ele>1291.5999755859</ele>
        <time>2020-02-16T07:50:02.000Z</time>
      </trkpt>
      <trkpt lat="45.29327" lon="6.21003">
        <ele>1291.8000488281</ele>
        <time>2020-02-16T07:50:05.000Z</time>
      </trkpt>
      <trkpt lat="45.29328" lon="6.21">
        <ele>1292.5999755859</ele>
        <time>2020-02-16T07:50:09.000Z</time>
      </trkpt>
      <trkpt lat="45.29329" lon="6.20995">
        <ele>1293.5999755859</ele>
        <time>2020-02-16T07:50:14.000Z</time>
      </trkpt>
      <trkpt lat="45.29329" lon="6.20994">
        <ele>1293.8000488281</ele>
        <time>2020-02-16T07:50:15.000Z</time>
      </trkpt>
      <trkpt lat="45.2933" lon="6.20988">
        <ele>1294.8000488281</ele>
        <time>2020-02-16T07:50:22.000Z</time>
      </trkpt>
      <trkpt lat="45.29331" lon="6.20986">
        <ele>1295</ele>
        <time>2020-02-16T07:50:24.000Z</time>
      </trkpt>
      <trkpt lat="45.29331" lon="6.20983">
        <ele>1295.8000488281</ele>
        <time>2020-02-16T07:50:27.000Z</time>
      </trkpt>
      <trkpt lat="45.29332" lon="6.20978">
        <ele>1296.4000244141</ele>
        <time>2020-02-16T07:50:33.000Z</time>
      </trkpt>
      <trkpt lat="45.29332" lon="6.20978">
        <ele>1297</ele>
        <time>2020-02-16T07:50:37.000Z</time>
      </trkpt>
      <trkpt lat="45.29333" lon="6.20976">
        <ele>1298.4000244141</ele>
        <time>2020-02-16T07:50:42.000Z</time>
      </trkpt>
      <trkpt lat="45.29334" lon="6.20974">
        <ele>1298.8000488281</ele>
        <time>2020-02-16T07:50:44.000Z</time>
      </trkpt>
      <trkpt lat="45.29335" lon="6.20972">
        <ele>1299.5999755859</ele>
        <time>2020-02-16T07:50:48.000Z</time>
      </trkpt>
      <trkpt lat="45.29335" lon="6.20972">
        <ele>1300.8000488281</ele>
        <time>2020-02-16T07:50:53.000Z</time>
      </trkpt>
      <trkpt lat="45.29335" lon="6.20972">
        <ele>1301.4000244141</ele>
        <time>2020-02-16T07:50:55.000Z</time>
      </trkpt>
      <trkpt lat="45.29335" lon="6.20972">
        <ele>1302.1999511719</ele>
        <time>2020-02-16T07:50:57.000Z</time>
      </trkpt>
      <trkpt lat="45.29334" lon="6.20964">
        <ele>1302.5999755859</ele>
        <time>2020-02-16T07:51:03.000Z</time>
      </trkpt>
      <trkpt lat="45.29333" lon="6.20961">
        <ele>1303.5999755859</ele>
        <time>2020-02-16T07:51:06.000Z</time>
      </trkpt>
      <trkpt lat="45.29334" lon="6.20953">
        <ele>1305</ele>
        <time>2020-02-16T07:51:11.000Z</time>
      </trkpt>
      <trkpt lat="45.29334" lon="6.20952">
        <ele>1305.4000244141</ele>
        <time>2020-02-16T07:51:12.000Z</time>
      </trkpt>
      <trkpt lat="45.29334" lon="6.20952">
        <ele>1306</ele>
        <time>2020-02-16T07:51:14.000Z</time>
      </trkpt>
      <trkpt lat="45.29335" lon="6.20949">
        <ele>1307</ele>
        <time>2020-02-16T07:51:19.000Z</time>
      </trkpt>
      <trkpt lat="45.29336" lon="6.20946">
        <ele>1307.5999755859</ele>
        <time>2020-02-16T07:51:21.000Z</time>
      </trkpt>
      <trkpt lat="45.29337" lon="6.20943">
        <ele>1308.1999511719</ele>
        <time>2020-02-16T07:51:23.000Z</time>
      </trkpt>
      <trkpt lat="45.29337" lon="6.20939">
        <ele>1309</ele>
        <time>2020-02-16T07:51:27.000Z</time>
      </trkpt>
      <trkpt lat="45.29337" lon="6.20937">
        <ele>1309.1999511719</ele>
        <time>2020-02-16T07:51:28.000Z</time>
      </trkpt>
      <trkpt lat="45.29338" lon="6.20933">
        <ele>1310.4000244141</ele>
        <time>2020-02-16T07:51:31.000Z</time>
      </trkpt>
      <trkpt lat="45.29338" lon="6.2093">
        <ele>1310.8000488281</ele>
        <time>2020-02-16T07:51:33.000Z</time>
      </trkpt>
      <trkpt lat="45.29339" lon="6.20928">
        <ele>1311.4000244141</ele>
        <time>2020-02-16T07:51:36.000Z</time>
      </trkpt>
      <trkpt lat="45.2934" lon="6.20926">
        <ele>1311.8000488281</ele>
        <time>2020-02-16T07:51:39.000Z</time>
      </trkpt>
      <trkpt lat="45.2934" lon="6.20925">
        <ele>1312.4000244141</ele>
        <time>2020-02-16T07:51:42.000Z</time>
      </trkpt>
      <trkpt lat="45.29341" lon="6.2092">
        <ele>1313.4000244141</ele>
        <time>2020-02-16T07:51:48.000Z</time>
      </trkpt>
      <trkpt lat="45.29342" lon="6.20919">
        <ele>1313.5999755859</ele>
        <time>2020-02-16T07:51:49.000Z</time>
      </trkpt>
      <trkpt lat="45.29343" lon="6.20914">
        <ele>1314.5999755859</ele>
        <time>2020-02-16T07:51:55.000Z</time>
      </trkpt>
      <trkpt lat="45.29343" lon="6.20912">
        <ele>1314.8000488281</ele>
        <time>2020-02-16T07:51:56.000Z</time>
      </trkpt>
      <trkpt lat="45.29343" lon="6.20901">
        <ele>1315.8000488281</ele>
        <time>2020-02-16T07:52:04.000Z</time>
      </trkpt>
      <trkpt lat="45.29343" lon="6.20898">
        <ele>1316.8000488281</ele>
        <time>2020-02-16T07:52:09.000Z</time>
      </trkpt>
      <trkpt lat="45.29343" lon="6.20894">
        <ele>1317.4000244141</ele>
        <time>2020-02-16T07:52:12.000Z</time>
      </trkpt>
      <trkpt lat="45.29343" lon="6.20891">
        <ele>1318</ele>
        <time>2020-02-16T07:52:18.000Z</time>
      </trkpt>
      <trkpt lat="45.29344" lon="6.20887">
        <ele>1319</ele>
        <time>2020-02-16T07:52:21.000Z</time>
      </trkpt>
      <trkpt lat="45.29344" lon="6.20886">
        <ele>1319.1999511719</ele>
        <time>2020-02-16T07:52:22.000Z</time>
      </trkpt>
      <trkpt lat="45.29345" lon="6.2088">
        <ele>1320.4000244141</ele>
        <time>2020-02-16T07:52:28.000Z</time>
      </trkpt>
      <trkpt lat="45.29345" lon="6.20876">
        <ele>1320.8000488281</ele>
        <time>2020-02-16T07:52:31.000Z</time>
      </trkpt>
      <trkpt lat="45.29347" lon="6.2087">
        <ele>1321.5999755859</ele>
        <time>2020-02-16T07:52:35.000Z</time>
      </trkpt>
      <trkpt lat="45.29348" lon="6.20868">
        <ele>1322.1999511719</ele>
        <time>2020-02-16T07:52:38.000Z</time>
      </trkpt>
      <trkpt lat="45.29348" lon="6.20866">
        <ele>1322.5999755859</ele>
        <time>2020-02-16T07:52:41.000Z</time>
      </trkpt>
      <trkpt lat="45.29348" lon="6.20866">
        <ele>1323.8000488281</ele>
        <time>2020-02-16T07:52:45.000Z</time>
      </trkpt>
      <trkpt lat="45.29348" lon="6.20866">
        <ele>1324</ele>
        <time>2020-02-16T07:52:46.000Z</time>
      </trkpt>
      <trkpt lat="45.29348" lon="6.20866">
        <ele>1324</ele>
        <time>2020-02-16T07:53:01.000Z</time>
      </trkpt>
      <trkpt lat="45.29348" lon="6.20866">
        <ele>1324.4000244141</ele>
        <time>2020-02-16T07:53:15.000Z</time>
      </trkpt>
      <trkpt lat="45.29348" lon="6.20866">
        <ele>1324.4000244141</ele>
        <time>2020-02-16T07:53:32.000Z</time>
      </trkpt>
      <trkpt lat="45.29348" lon="6.20866">
        <ele>1324.4000244141</ele>
        <time>2020-02-16T07:53:46.000Z</time>
      </trkpt>
      <trkpt lat="45.29348" lon="6.20866">
        <ele>1324.8000488281</ele>
        <time>2020-02-16T07:53:56.000Z</time>
      </trkpt>
      <trkpt lat="45.29348" lon="6.20866">
        <ele>1324.8000488281</ele>
        <time>2020-02-16T07:53:59.000Z</time>
      </trkpt>
      <trkpt lat="45.29351" lon="6.20863">
        <ele>1324.8000488281</ele>
        <time>2020-02-16T07:54:06.000Z</time>
      </trkpt>
      <trkpt lat="45.29351" lon="6.20863">
        <ele>1324.8000488281</ele>
        <time>2020-02-16T07:54:20.000Z</time>
      </trkpt>
      <trkpt lat="45.29351" lon="6.20863">
        <ele>1324.5999755859</ele>
        <time>2020-02-16T07:54:39.000Z</time>
      </trkpt>
      <trkpt lat="45.29351" lon="6.20862">
        <ele>1324.5999755859</ele>
        <time>2020-02-16T07:54:53.000Z</time>
      </trkpt>
      <trkpt lat="45.29351" lon="6.20862">
        <ele>1324.5999755859</ele>
        <time>2020-02-16T07:55:04.000Z</time>
      </trkpt>
      <trkpt lat="45.29351" lon="6.20862">
        <ele>1324.5999755859</ele>
        <time>2020-02-16T07:55:24.000Z</time>
      </trkpt>
      <trkpt lat="45.29351" lon="6.20863">
        <ele>1324.4000244141</ele>
        <time>2020-02-16T07:55:41.000Z</time>
      </trkpt>
      <trkpt lat="45.29351" lon="6.20863">
        <ele>1325.4000244141</ele>
        <time>2020-02-16T07:55:49.000Z</time>
      </trkpt>
      <trkpt lat="45.29351" lon="6.20863">
        <ele>1326</ele>
        <time>2020-02-16T07:55:51.000Z</time>
      </trkpt>
      <trkpt lat="45.29351" lon="6.20863">
        <ele>1327</ele>
        <time>2020-02-16T07:55:56.000Z</time>
      </trkpt>
      <trkpt lat="45.29351" lon="6.20863">
        <ele>1327</ele>
        <time>2020-02-16T07:55:57.000Z</time>
      </trkpt>
      <trkpt lat="45.29351" lon="6.20863">
        <ele>1327.5999755859</ele>
        <time>2020-02-16T07:56:04.000Z</time>
      </trkpt>
      <trkpt lat="45.29353" lon="6.20857">
        <ele>1328.1999511719</ele>
        <time>2020-02-16T07:56:07.000Z</time>
      </trkpt>
      <trkpt lat="45.29353" lon="6.20855">
        <ele>1329.1999511719</ele>
        <time>2020-02-16T07:56:11.000Z</time>
      </trkpt>
      <trkpt lat="45.29354" lon="6.20853">
        <ele>1329.4000244141</ele>
        <time>2020-02-16T07:56:12.000Z</time>
      </trkpt>
      <trkpt lat="45.29355" lon="6.2084">
        <ele>1330.1999511719</ele>
        <time>2020-02-16T07:56:18.000Z</time>
      </trkpt>
      <trkpt lat="45.29356" lon="6.20837">
        <ele>1330.4000244141</ele>
        <time>2020-02-16T07:56:19.000Z</time>
      </trkpt>
      <trkpt lat="45.29358" lon="6.20825">
        <ele>1331.1999511719</ele>
        <time>2020-02-16T07:56:25.000Z</time>
      </trkpt>
      <trkpt lat="45.29358" lon="6.20822">
        <ele>1331.4000244141</ele>
        <time>2020-02-16T07:56:27.000Z</time>
      </trkpt>
      <trkpt lat="45.29361" lon="6.20814">
        <ele>1332.1999511719</ele>
        <time>2020-02-16T07:56:32.000Z</time>
      </trkpt>
      <trkpt lat="45.29362" lon="6.2081">
        <ele>1332.5999755859</ele>
        <time>2020-02-16T07:56:34.000Z</time>
      </trkpt>
      <trkpt lat="45.2936" lon="6.20803">
        <ele>1333.5999755859</ele>
        <time>2020-02-16T07:56:40.000Z</time>
      </trkpt>
      <trkpt lat="45.2936" lon="6.20802">
        <ele>1333.8000488281</ele>
        <time>2020-02-16T07:56:41.000Z</time>
      </trkpt>
      <trkpt lat="45.29359" lon="6.20796">
        <ele>1334.5999755859</ele>
        <time>2020-02-16T07:56:45.000Z</time>
      </trkpt>
      <trkpt lat="45.29359" lon="6.20792">
        <ele>1335.4000244141</ele>
        <time>2020-02-16T07:56:48.000Z</time>
      </trkpt>
      <trkpt lat="45.29359" lon="6.2079">
        <ele>1335.8000488281</ele>
        <time>2020-02-16T07:56:50.000Z</time>
      </trkpt>
      <trkpt lat="45.29363" lon="6.20781">
        <ele>1336.8000488281</ele>
        <time>2020-02-16T07:56:55.000Z</time>
      </trkpt>
      <trkpt lat="45.29363" lon="6.20779">
        <ele>1337</ele>
        <time>2020-02-16T07:56:56.000Z</time>
      </trkpt>
      <trkpt lat="45.29362" lon="6.20771">
        <ele>1338</ele>
        <time>2020-02-16T07:57:02.000Z</time>
      </trkpt>
      <trkpt lat="45.29362" lon="6.2077">
        <ele>1338.1999511719</ele>
        <time>2020-02-16T07:57:03.000Z</time>
      </trkpt>
      <trkpt lat="45.29364" lon="6.20765">
        <ele>1339.1999511719</ele>
        <time>2020-02-16T07:57:08.000Z</time>
      </trkpt>
      <trkpt lat="45.29365" lon="6.20764">
        <ele>1339.1999511719</ele>
        <time>2020-02-16T07:57:09.000Z</time>
      </trkpt>
      <trkpt lat="45.2936" lon="6.20756">
        <ele>1340.1999511719</ele>
        <time>2020-02-16T07:57:17.000Z</time>
      </trkpt>
      <trkpt lat="45.29359" lon="6.20749">
        <ele>1341.1999511719</ele>
        <time>2020-02-16T07:57:23.000Z</time>
      </trkpt>
      <trkpt lat="45.29358" lon="6.20748">
        <ele>1341.4000244141</ele>
        <time>2020-02-16T07:57:24.000Z</time>
      </trkpt>
      <trkpt lat="45.29358" lon="6.20743">
        <ele>1342.1999511719</ele>
        <time>2020-02-16T07:57:29.000Z</time>
      </trkpt>
      <trkpt lat="45.29358" lon="6.20741">
        <ele>1342.5999755859</ele>
        <time>2020-02-16T07:57:31.000Z</time>
      </trkpt>
      <trkpt lat="45.29356" lon="6.20735">
        <ele>1343.4000244141</ele>
        <time>2020-02-16T07:57:36.000Z</time>
      </trkpt>
      <trkpt lat="45.29356" lon="6.20733">
        <ele>1343.8000488281</ele>
        <time>2020-02-16T07:57:38.000Z</time>
      </trkpt>
      <trkpt lat="45.29356" lon="6.20726">
        <ele>1344.5999755859</ele>
        <time>2020-02-16T07:57:43.000Z</time>
      </trkpt>
      <trkpt lat="45.29356" lon="6.20725">
        <ele>1344.8000488281</ele>
        <time>2020-02-16T07:57:44.000Z</time>
      </trkpt>
      <trkpt lat="45.29355" lon="6.20716">
        <ele>1345.8000488281</ele>
        <time>2020-02-16T07:57:51.000Z</time>
      </trkpt>
      <trkpt lat="45.29355" lon="6.20715">
        <ele>1346</ele>
        <time>2020-02-16T07:57:52.000Z</time>
      </trkpt>
      <trkpt lat="45.29354" lon="6.20707">
        <ele>1346.5999755859</ele>
        <time>2020-02-16T07:57:58.000Z</time>
      </trkpt>
      <trkpt lat="45.29354" lon="6.20695">
        <ele>1346.8000488281</ele>
        <time>2020-02-16T07:58:06.000Z</time>
      </trkpt>
      <trkpt lat="45.29357" lon="6.20685">
        <ele>1346.8000488281</ele>
        <time>2020-02-16T07:58:12.000Z</time>
      </trkpt>
      <trkpt lat="45.29357" lon="6.20681">
        <ele>1347</ele>
        <time>2020-02-16T07:58:14.000Z</time>
      </trkpt>
      <trkpt lat="45.29359" lon="6.20673">
        <ele>1347.1999511719</ele>
        <time>2020-02-16T07:58:18.000Z</time>
      </trkpt>
      <trkpt lat="45.29359" lon="6.20663">
        <ele>1348</ele>
        <time>2020-02-16T07:58:24.000Z</time>
      </trkpt>
      <trkpt lat="45.29361" lon="6.20652">
        <ele>1347.8000488281</ele>
        <time>2020-02-16T07:58:31.000Z</time>
      </trkpt>
      <trkpt lat="45.29365" lon="6.20638">
        <ele>1348</ele>
        <time>2020-02-16T07:58:39.000Z</time>
      </trkpt>
      <trkpt lat="45.29369" lon="6.20633">
        <ele>1348.1999511719</ele>
        <time>2020-02-16T07:58:43.000Z</time>
      </trkpt>
      <trkpt lat="45.29371" lon="6.2063">
        <ele>1348.4000244141</ele>
        <time>2020-02-16T07:58:45.000Z</time>
      </trkpt>
      <trkpt lat="45.29373" lon="6.20621">
        <ele>1349.1999511719</ele>
        <time>2020-02-16T07:58:51.000Z</time>
      </trkpt>
      <trkpt lat="45.29373" lon="6.2062">
        <ele>1349.1999511719</ele>
        <time>2020-02-16T07:58:52.000Z</time>
      </trkpt>
      <trkpt lat="45.29374" lon="6.20614">
        <ele>1350.1999511719</ele>
        <time>2020-02-16T07:58:56.000Z</time>
      </trkpt>
      <trkpt lat="45.29374" lon="6.20613">
        <ele>1350.4000244141</ele>
        <time>2020-02-16T07:58:57.000Z</time>
      </trkpt>
      <trkpt lat="45.29376" lon="6.20607">
        <ele>1351.1999511719</ele>
        <time>2020-02-16T07:59:02.000Z</time>
      </trkpt>
      <trkpt lat="45.29376" lon="6.20605">
        <ele>1351.4000244141</ele>
        <time>2020-02-16T07:59:04.000Z</time>
      </trkpt>
      <trkpt lat="45.29377" lon="6.20603">
        <ele>1352</ele>
        <time>2020-02-16T07:59:07.000Z</time>
      </trkpt>
      <trkpt lat="45.2938" lon="6.20598">
        <ele>1352.5999755859</ele>
        <time>2020-02-16T07:59:11.000Z</time>
      </trkpt>
      <trkpt lat="45.29382" lon="6.20596">
        <ele>1352.8000488281</ele>
        <time>2020-02-16T07:59:13.000Z</time>
      </trkpt>
      <trkpt lat="45.29385" lon="6.20591">
        <ele>1353.4000244141</ele>
        <time>2020-02-16T07:59:18.000Z</time>
      </trkpt>
      <trkpt lat="45.29386" lon="6.20587">
        <ele>1353.5999755859</ele>
        <time>2020-02-16T07:59:21.000Z</time>
      </trkpt>
      <trkpt lat="45.29387" lon="6.20583">
        <ele>1353.8000488281</ele>
        <time>2020-02-16T07:59:24.000Z</time>
      </trkpt>
      <trkpt lat="45.29388" lon="6.20576">
        <ele>1354.4000244141</ele>
        <time>2020-02-16T07:59:29.000Z</time>
      </trkpt>
      <trkpt lat="45.29387" lon="6.20572">
        <ele>1354.5999755859</ele>
        <time>2020-02-16T07:59:32.000Z</time>
      </trkpt>
      <trkpt lat="45.29388" lon="6.20568">
        <ele>1355</ele>
        <time>2020-02-16T07:59:35.000Z</time>
      </trkpt>
      <trkpt lat="45.29391" lon="6.20559">
        <ele>1355.5999755859</ele>
        <time>2020-02-16T07:59:42.000Z</time>
      </trkpt>
      <trkpt lat="45.29391" lon="6.20556">
        <ele>1355.8000488281</ele>
        <time>2020-02-16T07:59:44.000Z</time>
      </trkpt>
      <trkpt lat="45.29392" lon="6.2055">
        <ele>1356.4000244141</ele>
        <time>2020-02-16T07:59:50.000Z</time>
      </trkpt>
      <trkpt lat="45.29392" lon="6.20548">
        <ele>1356.8000488281</ele>
        <time>2020-02-16T07:59:52.000Z</time>
      </trkpt>
      <trkpt lat="45.29395" lon="6.20542">
        <ele>1357.1999511719</ele>
        <time>2020-02-16T07:59:57.000Z</time>
      </trkpt>
      <trkpt lat="45.29398" lon="6.20539">
        <ele>1357.8000488281</ele>
        <time>2020-02-16T08:00:02.000Z</time>
      </trkpt>
      <trkpt lat="45.29399" lon="6.20538">
        <ele>1357.8000488281</ele>
        <time>2020-02-16T08:00:03.000Z</time>
      </trkpt>
      <trkpt lat="45.29402" lon="6.20537">
        <ele>1358.1999511719</ele>
        <time>2020-02-16T08:00:10.000Z</time>
      </trkpt>
      <trkpt lat="45.29402" lon="6.20537">
        <ele>1358.8000488281</ele>
        <time>2020-02-16T08:00:14.000Z</time>
      </trkpt>
      <trkpt lat="45.29402" lon="6.20537">
        <ele>1358.8000488281</ele>
        <time>2020-02-16T08:00:22.000Z</time>
      </trkpt>
      <trkpt lat="45.29405" lon="6.20538">
        <ele>1359.1999511719</ele>
        <time>2020-02-16T08:00:30.000Z</time>
      </trkpt>
      <trkpt lat="45.2941" lon="6.20542">
        <ele>1360</ele>
        <time>2020-02-16T08:00:36.000Z</time>
      </trkpt>
      <trkpt lat="45.29416" lon="6.20535">
        <ele>1360.8000488281</ele>
        <time>2020-02-16T08:00:44.000Z</time>
      </trkpt>
      <trkpt lat="45.29419" lon="6.20533">
        <ele>1361</ele>
        <time>2020-02-16T08:00:47.000Z</time>
      </trkpt>
      <trkpt lat="45.29419" lon="6.20533">
        <ele>1361.5999755859</ele>
        <time>2020-02-16T08:00:49.000Z</time>
      </trkpt>
      <trkpt lat="45.29421" lon="6.20529">
        <ele>1362</ele>
        <time>2020-02-16T08:00:54.000Z</time>
      </trkpt>
      <trkpt lat="45.29425" lon="6.20524">
        <ele>1362.1999511719</ele>
        <time>2020-02-16T08:00:58.000Z</time>
      </trkpt>
      <trkpt lat="45.29426" lon="6.20523">
        <ele>1362.4000244141</ele>
        <time>2020-02-16T08:00:59.000Z</time>
      </trkpt>
      <trkpt lat="45.29428" lon="6.20514">
        <ele>1363.1999511719</ele>
        <time>2020-02-16T08:01:05.000Z</time>
      </trkpt>
      <trkpt lat="45.29434" lon="6.20505">
        <ele>1364.1999511719</ele>
        <time>2020-02-16T08:01:12.000Z</time>
      </trkpt>
      <trkpt lat="45.2944" lon="6.20497">
        <ele>1365</ele>
        <time>2020-02-16T08:01:18.000Z</time>
      </trkpt>
      <trkpt lat="45.29443" lon="6.20493">
        <ele>1365.4000244141</ele>
        <time>2020-02-16T08:01:21.000Z</time>
      </trkpt>
      <trkpt lat="45.29444" lon="6.20491">
        <ele>1365.5999755859</ele>
        <time>2020-02-16T08:01:23.000Z</time>
      </trkpt>
      <trkpt lat="45.29444" lon="6.20489">
        <ele>1365.5999755859</ele>
        <time>2020-02-16T08:01:24.000Z</time>
      </trkpt>
      <trkpt lat="45.29445" lon="6.20484">
        <ele>1366.1999511719</ele>
        <time>2020-02-16T08:01:28.000Z</time>
      </trkpt>
      <trkpt lat="45.29446" lon="6.20482">
        <ele>1366.4000244141</ele>
        <time>2020-02-16T08:01:29.000Z</time>
      </trkpt>
      <trkpt lat="45.29445" lon="6.20477">
        <ele>1367</ele>
        <time>2020-02-16T08:01:33.000Z</time>
      </trkpt>
      <trkpt lat="45.29444" lon="6.20471">
        <ele>1367.4000244141</ele>
        <time>2020-02-16T08:01:38.000Z</time>
      </trkpt>
      <trkpt lat="45.29444" lon="6.20469">
        <ele>1367.4000244141</ele>
        <time>2020-02-16T08:01:39.000Z</time>
      </trkpt>
      <trkpt lat="45.29444" lon="6.20465">
        <ele>1368</ele>
        <time>2020-02-16T08:01:42.000Z</time>
      </trkpt>
      <trkpt lat="45.29445" lon="6.20464">
        <ele>1368.1999511719</ele>
        <time>2020-02-16T08:01:43.000Z</time>
      </trkpt>
      <trkpt lat="45.29445" lon="6.2046">
        <ele>1368.5999755859</ele>
        <time>2020-02-16T08:01:46.000Z</time>
      </trkpt>
      <trkpt lat="45.29445" lon="6.20457">
        <ele>1368.8000488281</ele>
        <time>2020-02-16T08:01:48.000Z</time>
      </trkpt>
      <trkpt lat="45.29446" lon="6.20451">
        <ele>1369.4000244141</ele>
        <time>2020-02-16T08:01:53.000Z</time>
      </trkpt>
      <trkpt lat="45.29447" lon="6.20447">
        <ele>1369.5999755859</ele>
        <time>2020-02-16T08:01:55.000Z</time>
      </trkpt>
      <trkpt lat="45.29447" lon="6.20442">
        <ele>1369.8000488281</ele>
        <time>2020-02-16T08:01:59.000Z</time>
      </trkpt>
      <trkpt lat="45.29446" lon="6.20434">
        <ele>1370.4000244141</ele>
        <time>2020-02-16T08:02:05.000Z</time>
      </trkpt>
      <trkpt lat="45.29447" lon="6.20428">
        <ele>1370.8000488281</ele>
        <time>2020-02-16T08:02:09.000Z</time>
      </trkpt>
      <trkpt lat="45.29446" lon="6.20425">
        <ele>1371</ele>
        <time>2020-02-16T08:02:11.000Z</time>
      </trkpt>
      <trkpt lat="45.29447" lon="6.20419">
        <ele>1371.8000488281</ele>
        <time>2020-02-16T08:02:16.000Z</time>
      </trkpt>
      <trkpt lat="45.29447" lon="6.20411">
        <ele>1372.4000244141</ele>
        <time>2020-02-16T08:02:21.000Z</time>
      </trkpt>
      <trkpt lat="45.29447" lon="6.20407">
        <ele>1373</ele>
        <time>2020-02-16T08:02:24.000Z</time>
      </trkpt>
      <trkpt lat="45.29448" lon="6.20402">
        <ele>1373.1999511719</ele>
        <time>2020-02-16T08:02:28.000Z</time>
      </trkpt>
      <trkpt lat="45.29448" lon="6.20397">
        <ele>1373.5999755859</ele>
        <time>2020-02-16T08:02:33.000Z</time>
      </trkpt>
      <trkpt lat="45.2945" lon="6.20393">
        <ele>1374</ele>
        <time>2020-02-16T08:02:36.000Z</time>
      </trkpt>
      <trkpt lat="45.29451" lon="6.2039">
        <ele>1374</ele>
        <time>2020-02-16T08:02:38.000Z</time>
      </trkpt>
      <trkpt lat="45.29452" lon="6.20382">
        <ele>1374.8000488281</ele>
        <time>2020-02-16T08:02:44.000Z</time>
      </trkpt>
      <trkpt lat="45.29452" lon="6.20378">
        <ele>1375</ele>
        <time>2020-02-16T08:02:47.000Z</time>
      </trkpt>
      <trkpt lat="45.29451" lon="6.20375">
        <ele>1375.4000244141</ele>
        <time>2020-02-16T08:02:49.000Z</time>
      </trkpt>
      <trkpt lat="45.2945" lon="6.20366">
        <ele>1375.8000488281</ele>
        <time>2020-02-16T08:02:55.000Z</time>
      </trkpt>
      <trkpt lat="45.2945" lon="6.20361">
        <ele>1376.1999511719</ele>
        <time>2020-02-16T08:02:59.000Z</time>
      </trkpt>
      <trkpt lat="45.29451" lon="6.20357">
        <ele>1376.8000488281</ele>
        <time>2020-02-16T08:03:02.000Z</time>
      </trkpt>
      <trkpt lat="45.29453" lon="6.20352">
        <ele>1377.1999511719</ele>
        <time>2020-02-16T08:03:06.000Z</time>
      </trkpt>
      <trkpt lat="45.29453" lon="6.20351">
        <ele>1377.4000244141</ele>
        <time>2020-02-16T08:03:07.000Z</time>
      </trkpt>
      <trkpt lat="45.29456" lon="6.20344">
        <ele>1377.8000488281</ele>
        <time>2020-02-16T08:03:12.000Z</time>
      </trkpt>
      <trkpt lat="45.29458" lon="6.2034">
        <ele>1378.1999511719</ele>
        <time>2020-02-16T08:03:15.000Z</time>
      </trkpt>
      <trkpt lat="45.29459" lon="6.20336">
        <ele>1378.8000488281</ele>
        <time>2020-02-16T08:03:19.000Z</time>
      </trkpt>
      <trkpt lat="45.29461" lon="6.20331">
        <ele>1379.1999511719</ele>
        <time>2020-02-16T08:03:23.000Z</time>
      </trkpt>
      <trkpt lat="45.29462" lon="6.20329">
        <ele>1379.5999755859</ele>
        <time>2020-02-16T08:03:25.000Z</time>
      </trkpt>
      <trkpt lat="45.29463" lon="6.20323">
        <ele>1380.4000244141</ele>
        <time>2020-02-16T08:03:29.000Z</time>
      </trkpt>
      <trkpt lat="45.29463" lon="6.20322">
        <ele>1380.4000244141</ele>
        <time>2020-02-16T08:03:30.000Z</time>
      </trkpt>
      <trkpt lat="45.29466" lon="6.20314">
        <ele>1381.1999511719</ele>
        <time>2020-02-16T08:03:36.000Z</time>
      </trkpt>
      <trkpt lat="45.29467" lon="6.20313">
        <ele>1381.4000244141</ele>
        <time>2020-02-16T08:03:37.000Z</time>
      </trkpt>
      <trkpt lat="45.2947" lon="6.20303">
        <ele>1382</ele>
        <time>2020-02-16T08:03:43.000Z</time>
      </trkpt>
      <trkpt lat="45.29471" lon="6.20302">
        <ele>1382.1999511719</ele>
        <time>2020-02-16T08:03:44.000Z</time>
      </trkpt>
      <trkpt lat="45.29474" lon="6.20299">
        <ele>1382.4000244141</ele>
        <time>2020-02-16T08:03:47.000Z</time>
      </trkpt>
      <trkpt lat="45.29474" lon="6.20298">
        <ele>1382.4000244141</ele>
        <time>2020-02-16T08:03:48.000Z</time>
      </trkpt>
      <trkpt lat="45.29477" lon="6.20291">
        <ele>1382.8000488281</ele>
        <time>2020-02-16T08:03:53.000Z</time>
      </trkpt>
      <trkpt lat="45.2948" lon="6.20283">
        <ele>1383.5999755859</ele>
        <time>2020-02-16T08:03:58.000Z</time>
      </trkpt>
      <trkpt lat="45.29481" lon="6.2028">
        <ele>1383.5999755859</ele>
        <time>2020-02-16T08:04:00.000Z</time>
      </trkpt>
      <trkpt lat="45.2948" lon="6.20275">
        <ele>1383.8000488281</ele>
        <time>2020-02-16T08:04:04.000Z</time>
      </trkpt>
      <trkpt lat="45.29479" lon="6.20272">
        <ele>1383.8000488281</ele>
        <time>2020-02-16T08:04:06.000Z</time>
      </trkpt>
      <trkpt lat="45.29478" lon="6.20269">
        <ele>1384.4000244141</ele>
        <time>2020-02-16T08:04:10.000Z</time>
      </trkpt>
      <trkpt lat="45.29478" lon="6.20267">
        <ele>1384.5999755859</ele>
        <time>2020-02-16T08:04:11.000Z</time>
      </trkpt>
      <trkpt lat="45.29478" lon="6.20262">
        <ele>1385.5999755859</ele>
        <time>2020-02-16T08:04:15.000Z</time>
      </trkpt>
      <trkpt lat="45.2948" lon="6.20255">
        <ele>1386</ele>
        <time>2020-02-16T08:04:20.000Z</time>
      </trkpt>
      <trkpt lat="45.29481" lon="6.20254">
        <ele>1386.1999511719</ele>
        <time>2020-02-16T08:04:21.000Z</time>
      </trkpt>
      <trkpt lat="45.29483" lon="6.20248">
        <ele>1386.5999755859</ele>
        <time>2020-02-16T08:04:26.000Z</time>
      </trkpt>
      <trkpt lat="45.29484" lon="6.20241">
        <ele>1387.4000244141</ele>
        <time>2020-02-16T08:04:32.000Z</time>
      </trkpt>
      <trkpt lat="45.29484" lon="6.20237">
        <ele>1387.5999755859</ele>
        <time>2020-02-16T08:04:35.000Z</time>
      </trkpt>
      <trkpt lat="45.29484" lon="6.20234">
        <ele>1388.1999511719</ele>
        <time>2020-02-16T08:04:38.000Z</time>
      </trkpt>
      <trkpt lat="45.29483" lon="6.2023">
        <ele>1388.8000488281</ele>
        <time>2020-02-16T08:04:41.000Z</time>
      </trkpt>
      <trkpt lat="45.29483" lon="6.20227">
        <ele>1389</ele>
        <time>2020-02-16T08:04:44.000Z</time>
      </trkpt>
      <trkpt lat="45.29483" lon="6.20222">
        <ele>1389.8000488281</ele>
        <time>2020-02-16T08:04:50.000Z</time>
      </trkpt>
      <trkpt lat="45.29484" lon="6.20221">
        <ele>1390</ele>
        <time>2020-02-16T08:04:51.000Z</time>
      </trkpt>
      <trkpt lat="45.29483" lon="6.20216">
        <ele>1390.8000488281</ele>
        <time>2020-02-16T08:04:55.000Z</time>
      </trkpt>
      <trkpt lat="45.29484" lon="6.20214">
        <ele>1391.1999511719</ele>
        <time>2020-02-16T08:04:57.000Z</time>
      </trkpt>
      <trkpt lat="45.29484" lon="6.2021">
        <ele>1391.5999755859</ele>
        <time>2020-02-16T08:05:00.000Z</time>
      </trkpt>
      <trkpt lat="45.29486" lon="6.20205">
        <ele>1392</ele>
        <time>2020-02-16T08:05:04.000Z</time>
      </trkpt>
      <trkpt lat="45.29487" lon="6.20205">
        <ele>1392</ele>
        <time>2020-02-16T08:05:05.000Z</time>
      </trkpt>
      <trkpt lat="45.29488" lon="6.20203">
        <ele>1392.1999511719</ele>
        <time>2020-02-16T08:05:06.000Z</time>
      </trkpt>
      <trkpt lat="45.29492" lon="6.202">
        <ele>1393.4000244141</ele>
        <time>2020-02-16T08:05:10.000Z</time>
      </trkpt>
      <trkpt lat="45.29493" lon="6.20198">
        <ele>1393.5999755859</ele>
        <time>2020-02-16T08:05:11.000Z</time>
      </trkpt>
      <trkpt lat="45.29495" lon="6.20193">
        <ele>1394.4000244141</ele>
        <time>2020-02-16T08:05:16.000Z</time>
      </trkpt>
      <trkpt lat="45.29496" lon="6.20186">
        <ele>1395</ele>
        <time>2020-02-16T08:05:21.000Z</time>
      </trkpt>
      <trkpt lat="45.29496" lon="6.20183">
        <ele>1395.5999755859</ele>
        <time>2020-02-16T08:05:24.000Z</time>
      </trkpt>
      <trkpt lat="45.29497" lon="6.20179">
        <ele>1396.1999511719</ele>
        <time>2020-02-16T08:05:27.000Z</time>
      </trkpt>
      <trkpt lat="45.29497" lon="6.20177">
        <ele>1396.5999755859</ele>
        <time>2020-02-16T08:05:29.000Z</time>
      </trkpt>
      <trkpt lat="45.29499" lon="6.20174">
        <ele>1397.5999755859</ele>
        <time>2020-02-16T08:05:32.000Z</time>
      </trkpt>
      <trkpt lat="45.295" lon="6.20172">
        <ele>1397.8000488281</ele>
        <time>2020-02-16T08:05:33.000Z</time>
      </trkpt>
      <trkpt lat="45.29502" lon="6.20166">
        <ele>1398.1999511719</ele>
        <time>2020-02-16T08:05:37.000Z</time>
      </trkpt>
      <trkpt lat="45.29502" lon="6.20166">
        <ele>1398.4000244141</ele>
        <time>2020-02-16T08:05:38.000Z</time>
      </trkpt>
      <trkpt lat="45.29503" lon="6.20162">
        <ele>1398.8000488281</ele>
        <time>2020-02-16T08:05:40.000Z</time>
      </trkpt>
      <trkpt lat="45.29503" lon="6.20159">
        <ele>1399.1999511719</ele>
        <time>2020-02-16T08:05:43.000Z</time>
      </trkpt>
      <trkpt lat="45.29504" lon="6.20155">
        <ele>1399.4000244141</ele>
        <time>2020-02-16T08:05:45.000Z</time>
      </trkpt>
      <trkpt lat="45.29503" lon="6.2015">
        <ele>1399.5999755859</ele>
        <time>2020-02-16T08:05:48.000Z</time>
      </trkpt>
      <trkpt lat="45.29502" lon="6.20149">
        <ele>1399.8000488281</ele>
        <time>2020-02-16T08:05:50.000Z</time>
      </trkpt>
      <trkpt lat="45.29501" lon="6.20147">
        <ele>1400</ele>
        <time>2020-02-16T08:05:52.000Z</time>
      </trkpt>
      <trkpt lat="45.29501" lon="6.20141">
        <ele>1400.8000488281</ele>
        <time>2020-02-16T08:05:57.000Z</time>
      </trkpt>
      <trkpt lat="45.29501" lon="6.2014">
        <ele>1401</ele>
        <time>2020-02-16T08:05:58.000Z</time>
      </trkpt>
      <trkpt lat="45.29501" lon="6.20137">
        <ele>1401.8000488281</ele>
        <time>2020-02-16T08:06:01.000Z</time>
      </trkpt>
      <trkpt lat="45.29502" lon="6.20134">
        <ele>1402</ele>
        <time>2020-02-16T08:06:03.000Z</time>
      </trkpt>
      <trkpt lat="45.29502" lon="6.20133">
        <ele>1402.1999511719</ele>
        <time>2020-02-16T08:06:04.000Z</time>
      </trkpt>
      <trkpt lat="45.29507" lon="6.20128">
        <ele>1403.4000244141</ele>
        <time>2020-02-16T08:06:09.000Z</time>
      </trkpt>
      <trkpt lat="45.2951" lon="6.20122">
        <ele>1404.4000244141</ele>
        <time>2020-02-16T08:06:15.000Z</time>
      </trkpt>
      <trkpt lat="45.29516" lon="6.20117">
        <ele>1404.4000244141</ele>
        <time>2020-02-16T08:06:21.000Z</time>
      </trkpt>
      <trkpt lat="45.29519" lon="6.20114">
        <ele>1404.8000488281</ele>
        <time>2020-02-16T08:06:26.000Z</time>
      </trkpt>
      <trkpt lat="45.29519" lon="6.20111">
        <ele>1405.4000244141</ele>
        <time>2020-02-16T08:06:30.000Z</time>
      </trkpt>
      <trkpt lat="45.2952" lon="6.20108">
        <ele>1405.8000488281</ele>
        <time>2020-02-16T08:06:32.000Z</time>
      </trkpt>
      <trkpt lat="45.29519" lon="6.20102">
        <ele>1406.5999755859</ele>
        <time>2020-02-16T08:06:37.000Z</time>
      </trkpt>
      <trkpt lat="45.29519" lon="6.20093">
        <ele>1407.4000244141</ele>
        <time>2020-02-16T08:06:42.000Z</time>
      </trkpt>
      <trkpt lat="45.29519" lon="6.20092">
        <ele>1407.5999755859</ele>
        <time>2020-02-16T08:06:43.000Z</time>
      </trkpt>
      <trkpt lat="45.2952" lon="6.2009">
        <ele>1407.8000488281</ele>
        <time>2020-02-16T08:06:44.000Z</time>
      </trkpt>
      <trkpt lat="45.29521" lon="6.20084">
        <ele>1408.5999755859</ele>
        <time>2020-02-16T08:06:49.000Z</time>
      </trkpt>
      <trkpt lat="45.29521" lon="6.2008">
        <ele>1409</ele>
        <time>2020-02-16T08:06:51.000Z</time>
      </trkpt>
      <trkpt lat="45.29521" lon="6.20078">
        <ele>1409.4000244141</ele>
        <time>2020-02-16T08:06:54.000Z</time>
      </trkpt>
      <trkpt lat="45.29523" lon="6.20072">
        <ele>1409.5999755859</ele>
        <time>2020-02-16T08:06:58.000Z</time>
      </trkpt>
      <trkpt lat="45.29524" lon="6.20071">
        <ele>1409.8000488281</ele>
        <time>2020-02-16T08:06:59.000Z</time>
      </trkpt>
      <trkpt lat="45.29525" lon="6.20068">
        <ele>1410.1999511719</ele>
        <time>2020-02-16T08:07:01.000Z</time>
      </trkpt>
      <trkpt lat="45.29533" lon="6.20076">
        <ele>1410.5999755859</ele>
        <time>2020-02-16T08:07:04.000Z</time>
      </trkpt>
      <trkpt lat="45.29534" lon="6.2007">
        <ele>1411</ele>
        <time>2020-02-16T08:07:09.000Z</time>
      </trkpt>
      <trkpt lat="45.29535" lon="6.2007">
        <ele>1411.1999511719</ele>
        <time>2020-02-16T08:07:10.000Z</time>
      </trkpt>
      <trkpt lat="45.29536" lon="6.20064">
        <ele>1411.5999755859</ele>
        <time>2020-02-16T08:07:14.000Z</time>
      </trkpt>
      <trkpt lat="45.29537" lon="6.20061">
        <ele>1412.1999511719</ele>
        <time>2020-02-16T08:07:17.000Z</time>
      </trkpt>
      <trkpt lat="45.29537" lon="6.20058">
        <ele>1412.8000488281</ele>
        <time>2020-02-16T08:07:19.000Z</time>
      </trkpt>
      <trkpt lat="45.29538" lon="6.20053">
        <ele>1413.4000244141</ele>
        <time>2020-02-16T08:07:23.000Z</time>
      </trkpt>
      <trkpt lat="45.2954" lon="6.20048">
        <ele>1414.5999755859</ele>
        <time>2020-02-16T08:07:29.000Z</time>
      </trkpt>
      <trkpt lat="45.2954" lon="6.2004">
        <ele>1415.5999755859</ele>
        <time>2020-02-16T08:07:34.000Z</time>
      </trkpt>
      <trkpt lat="45.29538" lon="6.20036">
        <ele>1416.1999511719</ele>
        <time>2020-02-16T08:07:38.000Z</time>
      </trkpt>
      <trkpt lat="45.29538" lon="6.20035">
        <ele>1416.5999755859</ele>
        <time>2020-02-16T08:07:39.000Z</time>
      </trkpt>
      <trkpt lat="45.29538" lon="6.20033">
        <ele>1416.8000488281</ele>
        <time>2020-02-16T08:07:40.000Z</time>
      </trkpt>
      <trkpt lat="45.29536" lon="6.20028">
        <ele>1417.5999755859</ele>
        <time>2020-02-16T08:07:46.000Z</time>
      </trkpt>
      <trkpt lat="45.29534" lon="6.20021">
        <ele>1418.5999755859</ele>
        <time>2020-02-16T08:07:52.000Z</time>
      </trkpt>
      <trkpt lat="45.29534" lon="6.20017">
        <ele>1419.8000488281</ele>
        <time>2020-02-16T08:07:57.000Z</time>
      </trkpt>
      <trkpt lat="45.29537" lon="6.20012">
        <ele>1420.5999755859</ele>
        <time>2020-02-16T08:08:02.000Z</time>
      </trkpt>
      <trkpt lat="45.29537" lon="6.20011">
        <ele>1421</ele>
        <time>2020-02-16T08:08:04.000Z</time>
      </trkpt>
      <trkpt lat="45.29539" lon="6.20008">
        <ele>1422</ele>
        <time>2020-02-16T08:08:08.000Z</time>
      </trkpt>
      <trkpt lat="45.29542" lon="6.20005">
        <ele>1422.8000488281</ele>
        <time>2020-02-16T08:08:11.000Z</time>
      </trkpt>
      <trkpt lat="45.29544" lon="6.20003">
        <ele>1423.1999511719</ele>
        <time>2020-02-16T08:08:13.000Z</time>
      </trkpt>
      <trkpt lat="45.29548" lon="6.2">
        <ele>1424</ele>
        <time>2020-02-16T08:08:18.000Z</time>
      </trkpt>
      <trkpt lat="45.29549" lon="6.2">
        <ele>1424.8000488281</ele>
        <time>2020-02-16T08:08:20.000Z</time>
      </trkpt>
      <trkpt lat="45.29552" lon="6.19998">
        <ele>1426</ele>
        <time>2020-02-16T08:08:24.000Z</time>
      </trkpt>
      <trkpt lat="45.29559" lon="6.19993">
        <ele>1427</ele>
        <time>2020-02-16T08:08:30.000Z</time>
      </trkpt>
      <trkpt lat="45.29562" lon="6.1999">
        <ele>1428</ele>
        <time>2020-02-16T08:08:35.000Z</time>
      </trkpt>
      <trkpt lat="45.29563" lon="6.1999">
        <ele>1428.1999511719</ele>
        <time>2020-02-16T08:08:36.000Z</time>
      </trkpt>
      <trkpt lat="45.29565" lon="6.19988">
        <ele>1429.1999511719</ele>
        <time>2020-02-16T08:08:42.000Z</time>
      </trkpt>
      <trkpt lat="45.29565" lon="6.19988">
        <ele>1429.4000244141</ele>
        <time>2020-02-16T08:08:43.000Z</time>
      </trkpt>
      <trkpt lat="45.29565" lon="6.19985">
        <ele>1430.5999755859</ele>
        <time>2020-02-16T08:08:46.000Z</time>
      </trkpt>
      <trkpt lat="45.29566" lon="6.19983">
        <ele>1431</ele>
        <time>2020-02-16T08:08:48.000Z</time>
      </trkpt>
      <trkpt lat="45.29568" lon="6.1998">
        <ele>1431.5999755859</ele>
        <time>2020-02-16T08:08:52.000Z</time>
      </trkpt>
      <trkpt lat="45.29569" lon="6.19979">
        <ele>1431.8000488281</ele>
        <time>2020-02-16T08:08:53.000Z</time>
      </trkpt>
      <trkpt lat="45.29572" lon="6.19974">
        <ele>1432.5999755859</ele>
        <time>2020-02-16T08:08:58.000Z</time>
      </trkpt>
      <trkpt lat="45.29571" lon="6.19972">
        <ele>1432.8000488281</ele>
        <time>2020-02-16T08:09:00.000Z</time>
      </trkpt>
      <trkpt lat="45.29571" lon="6.19968">
        <ele>1433.4000244141</ele>
        <time>2020-02-16T08:09:03.000Z</time>
      </trkpt>
      <trkpt lat="45.29571" lon="6.19966">
        <ele>1433.8000488281</ele>
        <time>2020-02-16T08:09:07.000Z</time>
      </trkpt>
      <trkpt lat="45.29571" lon="6.19965">
        <ele>1434.1999511719</ele>
        <time>2020-02-16T08:09:08.000Z</time>
      </trkpt>
      <trkpt lat="45.29572" lon="6.19963">
        <ele>1434.5999755859</ele>
        <time>2020-02-16T08:09:12.000Z</time>
      </trkpt>
      <trkpt lat="45.29572" lon="6.19961">
        <ele>1435</ele>
        <time>2020-02-16T08:09:14.000Z</time>
      </trkpt>
      <trkpt lat="45.29571" lon="6.19957">
        <ele>1435.8000488281</ele>
        <time>2020-02-16T08:09:17.000Z</time>
      </trkpt>
      <trkpt lat="45.29571" lon="6.19956">
        <ele>1436</ele>
        <time>2020-02-16T08:09:18.000Z</time>
      </trkpt>
      <trkpt lat="45.29571" lon="6.19952">
        <ele>1436.5999755859</ele>
        <time>2020-02-16T08:09:22.000Z</time>
      </trkpt>
      <trkpt lat="45.2957" lon="6.19948">
        <ele>1437.1999511719</ele>
        <time>2020-02-16T08:09:26.000Z</time>
      </trkpt>
      <trkpt lat="45.2957" lon="6.19946">
        <ele>1437.5999755859</ele>
        <time>2020-02-16T08:09:27.000Z</time>
      </trkpt>
      <trkpt lat="45.2957" lon="6.19942">
        <ele>1438.1999511719</ele>
        <time>2020-02-16T08:09:31.000Z</time>
      </trkpt>
      <trkpt lat="45.2957" lon="6.1994">
        <ele>1438.5999755859</ele>
        <time>2020-02-16T08:09:32.000Z</time>
      </trkpt>
      <trkpt lat="45.29572" lon="6.19934">
        <ele>1439.4000244141</ele>
        <time>2020-02-16T08:09:37.000Z</time>
      </trkpt>
      <trkpt lat="45.29574" lon="6.1993">
        <ele>1439.8000488281</ele>
        <time>2020-02-16T08:09:40.000Z</time>
      </trkpt>
      <trkpt lat="45.29576" lon="6.19926">
        <ele>1440.8000488281</ele>
        <time>2020-02-16T08:09:43.000Z</time>
      </trkpt>
      <trkpt lat="45.29578" lon="6.19923">
        <ele>1441.8000488281</ele>
        <time>2020-02-16T08:09:47.000Z</time>
      </trkpt>
      <trkpt lat="45.29578" lon="6.19921">
        <ele>1442</ele>
        <time>2020-02-16T08:09:48.000Z</time>
      </trkpt>
      <trkpt lat="45.29581" lon="6.19918">
        <ele>1442.8000488281</ele>
        <time>2020-02-16T08:09:53.000Z</time>
      </trkpt>
      <trkpt lat="45.29581" lon="6.19916">
        <ele>1443</ele>
        <time>2020-02-16T08:09:54.000Z</time>
      </trkpt>
      <trkpt lat="45.29586" lon="6.19911">
        <ele>1444</ele>
        <time>2020-02-16T08:09:59.000Z</time>
      </trkpt>
      <trkpt lat="45.29587" lon="6.1991">
        <ele>1444.1999511719</ele>
        <time>2020-02-16T08:10:00.000Z</time>
      </trkpt>
      <trkpt lat="45.29592" lon="6.19905">
        <ele>1445.4000244141</ele>
        <time>2020-02-16T08:10:05.000Z</time>
      </trkpt>
      <trkpt lat="45.29591" lon="6.199">
        <ele>1446.5999755859</ele>
        <time>2020-02-16T08:10:10.000Z</time>
      </trkpt>
      <trkpt lat="45.2959" lon="6.19896">
        <ele>1447.4000244141</ele>
        <time>2020-02-16T08:10:16.000Z</time>
      </trkpt>
      <trkpt lat="45.29591" lon="6.19895">
        <ele>1447.5999755859</ele>
        <time>2020-02-16T08:10:17.000Z</time>
      </trkpt>
      <trkpt lat="45.29595" lon="6.19891">
        <ele>1448.5999755859</ele>
        <time>2020-02-16T08:10:22.000Z</time>
      </trkpt>
      <trkpt lat="45.29596" lon="6.19891">
        <ele>1448.8000488281</ele>
        <time>2020-02-16T08:10:23.000Z</time>
      </trkpt>
      <trkpt lat="45.29598" lon="6.1989">
        <ele>1449.8000488281</ele>
        <time>2020-02-16T08:10:28.000Z</time>
      </trkpt>
      <trkpt lat="45.29599" lon="6.19889">
        <ele>1450</ele>
        <time>2020-02-16T08:10:29.000Z</time>
      </trkpt>
      <trkpt lat="45.29602" lon="6.19889">
        <ele>1451</ele>
        <time>2020-02-16T08:10:33.000Z</time>
      </trkpt>
      <trkpt lat="45.29604" lon="6.19888">
        <ele>1451.8000488281</ele>
        <time>2020-02-16T08:10:36.000Z</time>
      </trkpt>
      <trkpt lat="45.29606" lon="6.19886">
        <ele>1452.1999511719</ele>
        <time>2020-02-16T08:10:38.000Z</time>
      </trkpt>
      <trkpt lat="45.29608" lon="6.19882">
        <ele>1452.8000488281</ele>
        <time>2020-02-16T08:10:42.000Z</time>
      </trkpt>
      <trkpt lat="45.29609" lon="6.1988">
        <ele>1453.4000244141</ele>
        <time>2020-02-16T08:10:44.000Z</time>
      </trkpt>
      <trkpt lat="45.29611" lon="6.19879">
        <ele>1454.4000244141</ele>
        <time>2020-02-16T08:10:48.000Z</time>
      </trkpt>
      <trkpt lat="45.29612" lon="6.19878">
        <ele>1454.5999755859</ele>
        <time>2020-02-16T08:10:49.000Z</time>
      </trkpt>
      <trkpt lat="45.29614" lon="6.19875">
        <ele>1455.8000488281</ele>
        <time>2020-02-16T08:10:54.000Z</time>
      </trkpt>
      <trkpt lat="45.29616" lon="6.19873">
        <ele>1456.8000488281</ele>
        <time>2020-02-16T08:10:59.000Z</time>
      </trkpt>
      <trkpt lat="45.29616" lon="6.19873">
        <ele>1457</ele>
        <time>2020-02-16T08:11:00.000Z</time>
      </trkpt>
      <trkpt lat="45.29615" lon="6.19869">
        <ele>1458</ele>
        <time>2020-02-16T08:11:04.000Z</time>
      </trkpt>
      <trkpt lat="45.29615" lon="6.19864">
        <ele>1458.8000488281</ele>
        <time>2020-02-16T08:11:09.000Z</time>
      </trkpt>
      <trkpt lat="45.29616" lon="6.19863">
        <ele>1459.1999511719</ele>
        <time>2020-02-16T08:11:11.000Z</time>
      </trkpt>
      <trkpt lat="45.29616" lon="6.1986">
        <ele>1459.5999755859</ele>
        <time>2020-02-16T08:11:15.000Z</time>
      </trkpt>
      <trkpt lat="45.29618" lon="6.19858">
        <ele>1460.1999511719</ele>
        <time>2020-02-16T08:11:20.000Z</time>
      </trkpt>
      <trkpt lat="45.29619" lon="6.19857">
        <ele>1460.4000244141</ele>
        <time>2020-02-16T08:11:21.000Z</time>
      </trkpt>
      <trkpt lat="45.29623" lon="6.19853">
        <ele>1461.4000244141</ele>
        <time>2020-02-16T08:11:25.000Z</time>
      </trkpt>
      <trkpt lat="45.29627" lon="6.19849">
        <ele>1462.4000244141</ele>
        <time>2020-02-16T08:11:29.000Z</time>
      </trkpt>
      <trkpt lat="45.29628" lon="6.19842">
        <ele>1463.4000244141</ele>
        <time>2020-02-16T08:11:35.000Z</time>
      </trkpt>
      <trkpt lat="45.29629" lon="6.19835">
        <ele>1463.5999755859</ele>
        <time>2020-02-16T08:11:40.000Z</time>
      </trkpt>
      <trkpt lat="45.29628" lon="6.19828">
        <ele>1464.1999511719</ele>
        <time>2020-02-16T08:11:46.000Z</time>
      </trkpt>
      <trkpt lat="45.29627" lon="6.19826">
        <ele>1464.4000244141</ele>
        <time>2020-02-16T08:11:47.000Z</time>
      </trkpt>
      <trkpt lat="45.29626" lon="6.19821">
        <ele>1464.4000244141</ele>
        <time>2020-02-16T08:11:50.000Z</time>
      </trkpt>
      <trkpt lat="45.29626" lon="6.19821">
        <ele>1464.5999755859</ele>
        <time>2020-02-16T08:11:51.000Z</time>
      </trkpt>
      <trkpt lat="45.29626" lon="6.19813">
        <ele>1465.1999511719</ele>
        <time>2020-02-16T08:11:56.000Z</time>
      </trkpt>
      <trkpt lat="45.29626" lon="6.19806">
        <ele>1465.4000244141</ele>
        <time>2020-02-16T08:12:01.000Z</time>
      </trkpt>
      <trkpt lat="45.29627" lon="6.19805">
        <ele>1465.4000244141</ele>
        <time>2020-02-16T08:12:02.000Z</time>
      </trkpt>
      <trkpt lat="45.29627" lon="6.19799">
        <ele>1466</ele>
        <time>2020-02-16T08:12:07.000Z</time>
      </trkpt>
      <trkpt lat="45.29627" lon="6.19795">
        <ele>1466.4000244141</ele>
        <time>2020-02-16T08:12:11.000Z</time>
      </trkpt>
      <trkpt lat="45.29627" lon="6.19793">
        <ele>1466.5999755859</ele>
        <time>2020-02-16T08:12:13.000Z</time>
      </trkpt>
      <trkpt lat="45.29629" lon="6.19791">
        <ele>1467</ele>
        <time>2020-02-16T08:12:16.000Z</time>
      </trkpt>
      <trkpt lat="45.29631" lon="6.19789">
        <ele>1467.8000488281</ele>
        <time>2020-02-16T08:12:19.000Z</time>
      </trkpt>
      <trkpt lat="45.29633" lon="6.19786">
        <ele>1468.5999755859</ele>
        <time>2020-02-16T08:12:22.000Z</time>
      </trkpt>
      <trkpt lat="45.29633" lon="6.19785">
        <ele>1468.8000488281</ele>
        <time>2020-02-16T08:12:24.000Z</time>
      </trkpt>
      <trkpt lat="45.29635" lon="6.19781">
        <ele>1469</ele>
        <time>2020-02-16T08:12:27.000Z</time>
      </trkpt>
      <trkpt lat="45.29637" lon="6.19776">
        <ele>1469.8000488281</ele>
        <time>2020-02-16T08:12:32.000Z</time>
      </trkpt>
      <trkpt lat="45.29638" lon="6.19773">
        <ele>1469.8000488281</ele>
        <time>2020-02-16T08:12:35.000Z</time>
      </trkpt>
      <trkpt lat="45.2964" lon="6.19772">
        <ele>1470.4000244141</ele>
        <time>2020-02-16T08:12:38.000Z</time>
      </trkpt>
      <trkpt lat="45.29641" lon="6.19771">
        <ele>1471</ele>
        <time>2020-02-16T08:12:40.000Z</time>
      </trkpt>
      <trkpt lat="45.29644" lon="6.19767">
        <ele>1471.5999755859</ele>
        <time>2020-02-16T08:12:45.000Z</time>
      </trkpt>
      <trkpt lat="45.29648" lon="6.19762">
        <ele>1471.5999755859</ele>
        <time>2020-02-16T08:12:51.000Z</time>
      </trkpt>
      <trkpt lat="45.29649" lon="6.1976">
        <ele>1472.1999511719</ele>
        <time>2020-02-16T08:12:53.000Z</time>
      </trkpt>
      <trkpt lat="45.29649" lon="6.19757">
        <ele>1473</ele>
        <time>2020-02-16T08:12:56.000Z</time>
      </trkpt>
      <trkpt lat="45.2965" lon="6.19755">
        <ele>1473.4000244141</ele>
        <time>2020-02-16T08:12:58.000Z</time>
      </trkpt>
      <trkpt lat="45.29651" lon="6.19752">
        <ele>1474.4000244141</ele>
        <time>2020-02-16T08:13:02.000Z</time>
      </trkpt>
      <trkpt lat="45.29652" lon="6.19751">
        <ele>1474.5999755859</ele>
        <time>2020-02-16T08:13:03.000Z</time>
      </trkpt>
      <trkpt lat="45.29653" lon="6.19748">
        <ele>1475.5999755859</ele>
        <time>2020-02-16T08:13:07.000Z</time>
      </trkpt>
      <trkpt lat="45.29654" lon="6.19748">
        <ele>1476</ele>
        <time>2020-02-16T08:13:08.000Z</time>
      </trkpt>
      <trkpt lat="45.29659" lon="6.19744">
        <ele>1476.5999755859</ele>
        <time>2020-02-16T08:13:12.000Z</time>
      </trkpt>
      <trkpt lat="45.29659" lon="6.19744">
        <ele>1476.5999755859</ele>
        <time>2020-02-16T08:13:13.000Z</time>
      </trkpt>
      <trkpt lat="45.2966" lon="6.19738">
        <ele>1477.5999755859</ele>
        <time>2020-02-16T08:13:18.000Z</time>
      </trkpt>
      <trkpt lat="45.2966" lon="6.19738">
        <ele>1477.5999755859</ele>
        <time>2020-02-16T08:13:19.000Z</time>
      </trkpt>
      <trkpt lat="45.29661" lon="6.19734">
        <ele>1478</ele>
        <time>2020-02-16T08:13:23.000Z</time>
      </trkpt>
      <trkpt lat="45.29663" lon="6.1973">
        <ele>1478.8000488281</ele>
        <time>2020-02-16T08:13:27.000Z</time>
      </trkpt>
      <trkpt lat="45.29665" lon="6.19726">
        <ele>1479.1999511719</ele>
        <time>2020-02-16T08:13:30.000Z</time>
      </trkpt>
      <trkpt lat="45.29667" lon="6.19722">
        <ele>1479.8000488281</ele>
        <time>2020-02-16T08:13:35.000Z</time>
      </trkpt>
      <trkpt lat="45.29668" lon="6.19721">
        <ele>1480</ele>
        <time>2020-02-16T08:13:36.000Z</time>
      </trkpt>
      <trkpt lat="45.29669" lon="6.19714">
        <ele>1480.8000488281</ele>
        <time>2020-02-16T08:13:41.000Z</time>
      </trkpt>
      <trkpt lat="45.29671" lon="6.19713">
        <ele>1480.8000488281</ele>
        <time>2020-02-16T08:13:42.000Z</time>
      </trkpt>
      <trkpt lat="45.29672" lon="6.19712">
        <ele>1481</ele>
        <time>2020-02-16T08:13:43.000Z</time>
      </trkpt>
      <trkpt lat="45.29674" lon="6.19709">
        <ele>1481.1999511719</ele>
        <time>2020-02-16T08:13:45.000Z</time>
      </trkpt>
      <trkpt lat="45.29675" lon="6.19706">
        <ele>1481.4000244141</ele>
        <time>2020-02-16T08:13:47.000Z</time>
      </trkpt>
      <trkpt lat="45.29676" lon="6.19702">
        <ele>1482</ele>
        <time>2020-02-16T08:13:51.000Z</time>
      </trkpt>
      <trkpt lat="45.29676" lon="6.19701">
        <ele>1482</ele>
        <time>2020-02-16T08:13:52.000Z</time>
      </trkpt>
      <trkpt lat="45.29677" lon="6.19696">
        <ele>1482.8000488281</ele>
        <time>2020-02-16T08:13:57.000Z</time>
      </trkpt>
      <trkpt lat="45.29678" lon="6.19693">
        <ele>1483.1999511719</ele>
        <time>2020-02-16T08:13:59.000Z</time>
      </trkpt>
      <trkpt lat="45.2968" lon="6.19689">
        <ele>1483.8000488281</ele>
        <time>2020-02-16T08:14:03.000Z</time>
      </trkpt>
      <trkpt lat="45.29681" lon="6.19683">
        <ele>1484.1999511719</ele>
        <time>2020-02-16T08:14:08.000Z</time>
      </trkpt>
      <trkpt lat="45.29682" lon="6.19682">
        <ele>1484.4000244141</ele>
        <time>2020-02-16T08:14:09.000Z</time>
      </trkpt>
      <trkpt lat="45.2968" lon="6.19678">
        <ele>1484.8000488281</ele>
        <time>2020-02-16T08:14:13.000Z</time>
      </trkpt>
      <trkpt lat="45.2968" lon="6.19674">
        <ele>1485.1999511719</ele>
        <time>2020-02-16T08:14:18.000Z</time>
      </trkpt>
      <trkpt lat="45.2968" lon="6.19672">
        <ele>1485.4000244141</ele>
        <time>2020-02-16T08:14:19.000Z</time>
      </trkpt>
      <trkpt lat="45.29683" lon="6.19668">
        <ele>1486</ele>
        <time>2020-02-16T08:14:23.000Z</time>
      </trkpt>
      <trkpt lat="45.29684" lon="6.19667">
        <ele>1486.4000244141</ele>
        <time>2020-02-16T08:14:25.000Z</time>
      </trkpt>
      <trkpt lat="45.29686" lon="6.19663">
        <ele>1486.8000488281</ele>
        <time>2020-02-16T08:14:29.000Z</time>
      </trkpt>
      <trkpt lat="45.29689" lon="6.19657">
        <ele>1486.5999755859</ele>
        <time>2020-02-16T08:14:34.000Z</time>
      </trkpt>
      <trkpt lat="45.29695" lon="6.19651">
        <ele>1487</ele>
        <time>2020-02-16T08:14:40.000Z</time>
      </trkpt>
      <trkpt lat="45.29699" lon="6.19648">
        <ele>1487.4000244141</ele>
        <time>2020-02-16T08:14:44.000Z</time>
      </trkpt>
      <trkpt lat="45.297" lon="6.19646">
        <ele>1487.5999755859</ele>
        <time>2020-02-16T08:14:45.000Z</time>
      </trkpt>
      <trkpt lat="45.29702" lon="6.19639">
        <ele>1488.1999511719</ele>
        <time>2020-02-16T08:14:51.000Z</time>
      </trkpt>
      <trkpt lat="45.29702" lon="6.19639">
        <ele>1488.4000244141</ele>
        <time>2020-02-16T08:14:52.000Z</time>
      </trkpt>
      <trkpt lat="45.29702" lon="6.19638">
        <ele>1488.4000244141</ele>
        <time>2020-02-16T08:14:53.000Z</time>
      </trkpt>
      <trkpt lat="45.29705" lon="6.19634">
        <ele>1489.1999511719</ele>
        <time>2020-02-16T08:14:58.000Z</time>
      </trkpt>
      <trkpt lat="45.29708" lon="6.1963">
        <ele>1489.5999755859</ele>
        <time>2020-02-16T08:15:03.000Z</time>
      </trkpt>
      <trkpt lat="45.29709" lon="6.19629">
        <ele>1489.8000488281</ele>
        <time>2020-02-16T08:15:04.000Z</time>
      </trkpt>
      <trkpt lat="45.29709" lon="6.19628">
        <ele>1490</ele>
        <time>2020-02-16T08:15:05.000Z</time>
      </trkpt>
      <trkpt lat="45.29712" lon="6.19623">
        <ele>1490.4000244141</ele>
        <time>2020-02-16T08:15:11.000Z</time>
      </trkpt>
      <trkpt lat="45.29713" lon="6.19622">
        <ele>1490.5999755859</ele>
        <time>2020-02-16T08:15:13.000Z</time>
      </trkpt>
      <trkpt lat="45.29715" lon="6.1962">
        <ele>1491.1999511719</ele>
        <time>2020-02-16T08:15:16.000Z</time>
      </trkpt>
      <trkpt lat="45.29717" lon="6.19618">
        <ele>1491.8000488281</ele>
        <time>2020-02-16T08:15:19.000Z</time>
      </trkpt>
      <trkpt lat="45.29718" lon="6.19615">
        <ele>1492</ele>
        <time>2020-02-16T08:15:22.000Z</time>
      </trkpt>
      <trkpt lat="45.29722" lon="6.19612">
        <ele>1492.5999755859</ele>
        <time>2020-02-16T08:15:26.000Z</time>
      </trkpt>
      <trkpt lat="45.29724" lon="6.1961">
        <ele>1492.8000488281</ele>
        <time>2020-02-16T08:15:28.000Z</time>
      </trkpt>
      <trkpt lat="45.29726" lon="6.19609">
        <ele>1493</ele>
        <time>2020-02-16T08:15:29.000Z</time>
      </trkpt>
      <trkpt lat="45.2973" lon="6.19607">
        <ele>1493.5999755859</ele>
        <time>2020-02-16T08:15:34.000Z</time>
      </trkpt>
      <trkpt lat="45.29734" lon="6.19604">
        <ele>1494</ele>
        <time>2020-02-16T08:15:39.000Z</time>
      </trkpt>
      <trkpt lat="45.29736" lon="6.19603">
        <ele>1494.1999511719</ele>
        <time>2020-02-16T08:15:41.000Z</time>
      </trkpt>
      <trkpt lat="45.2974" lon="6.19598">
        <ele>1494.1999511719</ele>
        <time>2020-02-16T08:15:47.000Z</time>
      </trkpt>
      <trkpt lat="45.29746" lon="6.19591">
        <ele>1494.4000244141</ele>
        <time>2020-02-16T08:15:54.000Z</time>
      </trkpt>
      <trkpt lat="45.2975" lon="6.19585">
        <ele>1495</ele>
        <time>2020-02-16T08:15:59.000Z</time>
      </trkpt>
      <trkpt lat="45.29756" lon="6.19583">
        <ele>1496.1999511719</ele>
        <time>2020-02-16T08:16:05.000Z</time>
      </trkpt>
      <trkpt lat="45.29759" lon="6.19579">
        <ele>1497.1999511719</ele>
        <time>2020-02-16T08:16:10.000Z</time>
      </trkpt>
      <trkpt lat="45.2976" lon="6.19579">
        <ele>1497.1999511719</ele>
        <time>2020-02-16T08:16:11.000Z</time>
      </trkpt>
      <trkpt lat="45.29764" lon="6.19578">
        <ele>1497.8000488281</ele>
        <time>2020-02-16T08:16:18.000Z</time>
      </trkpt>
      <trkpt lat="45.29765" lon="6.19575">
        <ele>1498.4000244141</ele>
        <time>2020-02-16T08:16:21.000Z</time>
      </trkpt>
      <trkpt lat="45.29766" lon="6.19572">
        <ele>1498.5999755859</ele>
        <time>2020-02-16T08:16:24.000Z</time>
      </trkpt>
      <trkpt lat="45.29767" lon="6.19566">
        <ele>1498.8000488281</ele>
        <time>2020-02-16T08:16:27.000Z</time>
      </trkpt>
      <trkpt lat="45.2977" lon="6.19564">
        <ele>1499.1999511719</ele>
        <time>2020-02-16T08:16:29.000Z</time>
      </trkpt>
      <trkpt lat="45.29771" lon="6.19562">
        <ele>1499.4000244141</ele>
        <time>2020-02-16T08:16:31.000Z</time>
      </trkpt>
      <trkpt lat="45.29772" lon="6.1956">
        <ele>1500</ele>
        <time>2020-02-16T08:16:34.000Z</time>
      </trkpt>
      <trkpt lat="45.29775" lon="6.19556">
        <ele>1500.5999755859</ele>
        <time>2020-02-16T08:16:38.000Z</time>
      </trkpt>
      <trkpt lat="45.29775" lon="6.19555">
        <ele>1501</ele>
        <time>2020-02-16T08:16:40.000Z</time>
      </trkpt>
      <trkpt lat="45.29778" lon="6.19546">
        <ele>1501.5999755859</ele>
        <time>2020-02-16T08:16:46.000Z</time>
      </trkpt>
      <trkpt lat="45.29782" lon="6.19541">
        <ele>1502.4000244141</ele>
        <time>2020-02-16T08:16:52.000Z</time>
      </trkpt>
      <trkpt lat="45.29783" lon="6.19539">
        <ele>1502.5999755859</ele>
        <time>2020-02-16T08:16:56.000Z</time>
      </trkpt>
      <trkpt lat="45.29786" lon="6.19534">
        <ele>1503</ele>
        <time>2020-02-16T08:16:59.000Z</time>
      </trkpt>
      <trkpt lat="45.2979" lon="6.1953">
        <ele>1503.8000488281</ele>
        <time>2020-02-16T08:17:03.000Z</time>
      </trkpt>
      <trkpt lat="45.29791" lon="6.19529">
        <ele>1504</ele>
        <time>2020-02-16T08:17:05.000Z</time>
      </trkpt>
      <trkpt lat="45.29791" lon="6.19525">
        <ele>1504.8000488281</ele>
        <time>2020-02-16T08:17:08.000Z</time>
      </trkpt>
      <trkpt lat="45.29792" lon="6.19524">
        <ele>1505.1999511719</ele>
        <time>2020-02-16T08:17:10.000Z</time>
      </trkpt>
      <trkpt lat="45.29796" lon="6.19517">
        <ele>1505.5999755859</ele>
        <time>2020-02-16T08:17:15.000Z</time>
      </trkpt>
      <trkpt lat="45.298" lon="6.19516">
        <ele>1505.8000488281</ele>
        <time>2020-02-16T08:17:18.000Z</time>
      </trkpt>
      <trkpt lat="45.29803" lon="6.19514">
        <ele>1506.4000244141</ele>
        <time>2020-02-16T08:17:21.000Z</time>
      </trkpt>
      <trkpt lat="45.29808" lon="6.19507">
        <ele>1507</ele>
        <time>2020-02-16T08:17:25.000Z</time>
      </trkpt>
      <trkpt lat="45.2981" lon="6.19506">
        <ele>1507.4000244141</ele>
        <time>2020-02-16T08:17:27.000Z</time>
      </trkpt>
      <trkpt lat="45.29812" lon="6.195">
        <ele>1507.5999755859</ele>
        <time>2020-02-16T08:17:33.000Z</time>
      </trkpt>
      <trkpt lat="45.29816" lon="6.19493">
        <ele>1508</ele>
        <time>2020-02-16T08:17:40.000Z</time>
      </trkpt>
      <trkpt lat="45.2982" lon="6.19488">
        <ele>1507.8000488281</ele>
        <time>2020-02-16T08:17:45.000Z</time>
      </trkpt>
      <trkpt lat="45.29825" lon="6.1948">
        <ele>1507.4000244141</ele>
        <time>2020-02-16T08:17:53.000Z</time>
      </trkpt>
      <trkpt lat="45.2983" lon="6.19471">
        <ele>1507.5999755859</ele>
        <time>2020-02-16T08:18:00.000Z</time>
      </trkpt>
      <trkpt lat="45.29834" lon="6.19467">
        <ele>1507.8000488281</ele>
        <time>2020-02-16T08:18:05.000Z</time>
      </trkpt>
      <trkpt lat="45.29838" lon="6.19463">
        <ele>1508</ele>
        <time>2020-02-16T08:18:09.000Z</time>
      </trkpt>
      <trkpt lat="45.29838" lon="6.19463">
        <ele>1508.1999511719</ele>
        <time>2020-02-16T08:18:10.000Z</time>
      </trkpt>
      <trkpt lat="45.29839" lon="6.19456">
        <ele>1508.8000488281</ele>
        <time>2020-02-16T08:18:16.000Z</time>
      </trkpt>
      <trkpt lat="45.29839" lon="6.19452">
        <ele>1508.8000488281</ele>
        <time>2020-02-16T08:18:18.000Z</time>
      </trkpt>
      <trkpt lat="45.29839" lon="6.19448">
        <ele>1508.5999755859</ele>
        <time>2020-02-16T08:18:22.000Z</time>
      </trkpt>
      <trkpt lat="45.29842" lon="6.1944">
        <ele>1508.1999511719</ele>
        <time>2020-02-16T08:18:28.000Z</time>
      </trkpt>
      <trkpt lat="45.29847" lon="6.1943">
        <ele>1507.8000488281</ele>
        <time>2020-02-16T08:18:35.000Z</time>
      </trkpt>
      <trkpt lat="45.29851" lon="6.19421">
        <ele>1507.4000244141</ele>
        <time>2020-02-16T08:18:42.000Z</time>
      </trkpt>
      <trkpt lat="45.29853" lon="6.19415">
        <ele>1506.8000488281</ele>
        <time>2020-02-16T08:18:45.000Z</time>
      </trkpt>
      <trkpt lat="45.29857" lon="6.19409">
        <ele>1506.5999755859</ele>
        <time>2020-02-16T08:18:49.000Z</time>
      </trkpt>
      <trkpt lat="45.29859" lon="6.19399">
        <ele>1506</ele>
        <time>2020-02-16T08:18:55.000Z</time>
      </trkpt>
      <trkpt lat="45.2986" lon="6.19397">
        <ele>1505.8000488281</ele>
        <time>2020-02-16T08:18:56.000Z</time>
      </trkpt>
      <trkpt lat="45.29863" lon="6.19388">
        <ele>1505.1999511719</ele>
        <time>2020-02-16T08:19:02.000Z</time>
      </trkpt>
      <trkpt lat="45.29863" lon="6.1938">
        <ele>1504.5999755859</ele>
        <time>2020-02-16T08:19:06.000Z</time>
      </trkpt>
      <trkpt lat="45.29864" lon="6.19377">
        <ele>1504.5999755859</ele>
        <time>2020-02-16T08:19:08.000Z</time>
      </trkpt>
      <trkpt lat="45.29866" lon="6.19368">
        <ele>1504.8000488281</ele>
        <time>2020-02-16T08:19:13.000Z</time>
      </trkpt>
      <trkpt lat="45.2987" lon="6.19362">
        <ele>1505.1999511719</ele>
        <time>2020-02-16T08:19:19.000Z</time>
      </trkpt>
      <trkpt lat="45.29873" lon="6.1935">
        <ele>1505.1999511719</ele>
        <time>2020-02-16T08:19:25.000Z</time>
      </trkpt>
      <trkpt lat="45.29875" lon="6.19344">
        <ele>1504.5999755859</ele>
        <time>2020-02-16T08:19:30.000Z</time>
      </trkpt>
      <trkpt lat="45.29879" lon="6.19333">
        <ele>1504.8000488281</ele>
        <time>2020-02-16T08:19:36.000Z</time>
      </trkpt>
      <trkpt lat="45.29882" lon="6.19327">
        <ele>1504.8000488281</ele>
        <time>2020-02-16T08:19:41.000Z</time>
      </trkpt>
      <trkpt lat="45.29884" lon="6.19319">
        <ele>1505.1999511719</ele>
        <time>2020-02-16T08:19:47.000Z</time>
      </trkpt>
      <trkpt lat="45.29888" lon="6.19309">
        <ele>1505</ele>
        <time>2020-02-16T08:19:53.000Z</time>
      </trkpt>
      <trkpt lat="45.29889" lon="6.19302">
        <ele>1504.8000488281</ele>
        <time>2020-02-16T08:19:59.000Z</time>
      </trkpt>
      <trkpt lat="45.2989" lon="6.19293">
        <ele>1505.4000244141</ele>
        <time>2020-02-16T08:20:05.000Z</time>
      </trkpt>
      <trkpt lat="45.29892" lon="6.19289">
        <ele>1505.5999755859</ele>
        <time>2020-02-16T08:20:10.000Z</time>
      </trkpt>
      <trkpt lat="45.29893" lon="6.19287">
        <ele>1505.8000488281</ele>
        <time>2020-02-16T08:20:11.000Z</time>
      </trkpt>
      <trkpt lat="45.29893" lon="6.19279">
        <ele>1506.5999755859</ele>
        <time>2020-02-16T08:20:15.000Z</time>
      </trkpt>
      <trkpt lat="45.29892" lon="6.19277">
        <ele>1507</ele>
        <time>2020-02-16T08:20:18.000Z</time>
      </trkpt>
      <trkpt lat="45.29893" lon="6.19273">
        <ele>1507.4000244141</ele>
        <time>2020-02-16T08:20:21.000Z</time>
      </trkpt>
      <trkpt lat="45.29894" lon="6.19266">
        <ele>1507.8000488281</ele>
        <time>2020-02-16T08:20:27.000Z</time>
      </trkpt>
      <trkpt lat="45.29894" lon="6.19265">
        <ele>1508</ele>
        <time>2020-02-16T08:20:28.000Z</time>
      </trkpt>
      <trkpt lat="45.29898" lon="6.19257">
        <ele>1508.5999755859</ele>
        <time>2020-02-16T08:20:33.000Z</time>
      </trkpt>
      <trkpt lat="45.299" lon="6.19255">
        <ele>1509.1999511719</ele>
        <time>2020-02-16T08:20:36.000Z</time>
      </trkpt>
      <trkpt lat="45.29901" lon="6.19256">
        <ele>1509.5999755859</ele>
        <time>2020-02-16T08:20:40.000Z</time>
      </trkpt>
      <trkpt lat="45.29903" lon="6.19248">
        <ele>1510</ele>
        <time>2020-02-16T08:20:47.000Z</time>
      </trkpt>
      <trkpt lat="45.29903" lon="6.19242">
        <ele>1510.1999511719</ele>
        <time>2020-02-16T08:20:51.000Z</time>
      </trkpt>
      <trkpt lat="45.29905" lon="6.19236">
        <ele>1511.1999511719</ele>
        <time>2020-02-16T08:20:57.000Z</time>
      </trkpt>
      <trkpt lat="45.29907" lon="6.19232">
        <ele>1511.5999755859</ele>
        <time>2020-02-16T08:20:59.000Z</time>
      </trkpt>
      <trkpt lat="45.29911" lon="6.19228">
        <ele>1512.1999511719</ele>
        <time>2020-02-16T08:21:05.000Z</time>
      </trkpt>
      <trkpt lat="45.29918" lon="6.19222">
        <ele>1513.1999511719</ele>
        <time>2020-02-16T08:21:11.000Z</time>
      </trkpt>
      <trkpt lat="45.29919" lon="6.19213">
        <ele>1514.1999511719</ele>
        <time>2020-02-16T08:21:18.000Z</time>
      </trkpt>
      <trkpt lat="45.2992" lon="6.19211">
        <ele>1514.4000244141</ele>
        <time>2020-02-16T08:21:19.000Z</time>
      </trkpt>
      <trkpt lat="45.29921" lon="6.19207">
        <ele>1515.4000244141</ele>
        <time>2020-02-16T08:21:24.000Z</time>
      </trkpt>
      <trkpt lat="45.29921" lon="6.19206">
        <ele>1515.5999755859</ele>
        <time>2020-02-16T08:21:25.000Z</time>
      </trkpt>
      <trkpt lat="45.29921" lon="6.19202">
        <ele>1516</ele>
        <time>2020-02-16T08:21:27.000Z</time>
      </trkpt>
      <trkpt lat="45.29921" lon="6.19199">
        <ele>1516.5999755859</ele>
        <time>2020-02-16T08:21:30.000Z</time>
      </trkpt>
      <trkpt lat="45.29922" lon="6.19197">
        <ele>1517.5999755859</ele>
        <time>2020-02-16T08:21:34.000Z</time>
      </trkpt>
      <trkpt lat="45.29926" lon="6.19194">
        <ele>1518.4000244141</ele>
        <time>2020-02-16T08:21:37.000Z</time>
      </trkpt>
      <trkpt lat="45.29927" lon="6.19192">
        <ele>1518.8000488281</ele>
        <time>2020-02-16T08:21:39.000Z</time>
      </trkpt>
      <trkpt lat="45.2993" lon="6.19189">
        <ele>1519.8000488281</ele>
        <time>2020-02-16T08:21:43.000Z</time>
      </trkpt>
      <trkpt lat="45.29929" lon="6.19188">
        <ele>1520.4000244141</ele>
        <time>2020-02-16T08:21:46.000Z</time>
      </trkpt>
      <trkpt lat="45.29931" lon="6.19184">
        <ele>1521.1999511719</ele>
        <time>2020-02-16T08:21:49.000Z</time>
      </trkpt>
      <trkpt lat="45.2993" lon="6.19181">
        <ele>1521.5999755859</ele>
        <time>2020-02-16T08:21:51.000Z</time>
      </trkpt>
      <trkpt lat="45.29928" lon="6.19174">
        <ele>1522.1999511719</ele>
        <time>2020-02-16T08:21:56.000Z</time>
      </trkpt>
      <trkpt lat="45.29928" lon="6.19169">
        <ele>1523.1999511719</ele>
        <time>2020-02-16T08:21:59.000Z</time>
      </trkpt>
      <trkpt lat="45.29929" lon="6.19165">
        <ele>1524</ele>
        <time>2020-02-16T08:22:02.000Z</time>
      </trkpt>
      <trkpt lat="45.29929" lon="6.19158">
        <ele>1524</ele>
        <time>2020-02-16T08:22:08.000Z</time>
      </trkpt>
      <trkpt lat="45.29929" lon="6.19153">
        <ele>1524.4000244141</ele>
        <time>2020-02-16T08:22:12.000Z</time>
      </trkpt>
      <trkpt lat="45.2993" lon="6.19152">
        <ele>1524.5999755859</ele>
        <time>2020-02-16T08:22:14.000Z</time>
      </trkpt>
      <trkpt lat="45.2993" lon="6.19148">
        <ele>1525</ele>
        <time>2020-02-16T08:22:19.000Z</time>
      </trkpt>
      <trkpt lat="45.29932" lon="6.19139">
        <ele>1525</ele>
        <time>2020-02-16T08:22:25.000Z</time>
      </trkpt>
      <trkpt lat="45.29933" lon="6.19133">
        <ele>1524.1999511719</ele>
        <time>2020-02-16T08:22:31.000Z</time>
      </trkpt>
      <trkpt lat="45.29933" lon="6.19127">
        <ele>1524</ele>
        <time>2020-02-16T08:22:34.000Z</time>
      </trkpt>
      <trkpt lat="45.29932" lon="6.19119">
        <ele>1523.8000488281</ele>
        <time>2020-02-16T08:22:38.000Z</time>
      </trkpt>
      <trkpt lat="45.29932" lon="6.19113">
        <ele>1523.1999511719</ele>
        <time>2020-02-16T08:22:41.000Z</time>
      </trkpt>
      <trkpt lat="45.29932" lon="6.19107">
        <ele>1523</ele>
        <time>2020-02-16T08:22:44.000Z</time>
      </trkpt>
      <trkpt lat="45.29935" lon="6.19096">
        <ele>1522.8000488281</ele>
        <time>2020-02-16T08:22:50.000Z</time>
      </trkpt>
      <trkpt lat="45.29939" lon="6.19084">
        <ele>1522.8000488281</ele>
        <time>2020-02-16T08:22:57.000Z</time>
      </trkpt>
      <trkpt lat="45.2994" lon="6.19077">
        <ele>1523</ele>
        <time>2020-02-16T08:23:03.000Z</time>
      </trkpt>
      <trkpt lat="45.29941" lon="6.19069">
        <ele>1522.8000488281</ele>
        <time>2020-02-16T08:23:08.000Z</time>
      </trkpt>
      <trkpt lat="45.29943" lon="6.19062">
        <ele>1523.8000488281</ele>
        <time>2020-02-16T08:23:13.000Z</time>
      </trkpt>
      <trkpt lat="45.29944" lon="6.1906">
        <ele>1524.4000244141</ele>
        <time>2020-02-16T08:23:16.000Z</time>
      </trkpt>
      <trkpt lat="45.29946" lon="6.19054">
        <ele>1524.5999755859</ele>
        <time>2020-02-16T08:23:18.000Z</time>
      </trkpt>
      <trkpt lat="45.29948" lon="6.19048">
        <ele>1525.5999755859</ele>
        <time>2020-02-16T08:23:23.000Z</time>
      </trkpt>
      <trkpt lat="45.29946" lon="6.1904">
        <ele>1526.5999755859</ele>
        <time>2020-02-16T08:23:29.000Z</time>
      </trkpt>
      <trkpt lat="45.29946" lon="6.19034">
        <ele>1526.5999755859</ele>
        <time>2020-02-16T08:23:34.000Z</time>
      </trkpt>
      <trkpt lat="45.29946" lon="6.19027">
        <ele>1526.8000488281</ele>
        <time>2020-02-16T08:23:39.000Z</time>
      </trkpt>
      <trkpt lat="45.29949" lon="6.19024">
        <ele>1527.8000488281</ele>
        <time>2020-02-16T08:23:44.000Z</time>
      </trkpt>
      <trkpt lat="45.29951" lon="6.19022">
        <ele>1528.1999511719</ele>
        <time>2020-02-16T08:23:46.000Z</time>
      </trkpt>
      <trkpt lat="45.29954" lon="6.19017">
        <ele>1529</ele>
        <time>2020-02-16T08:23:49.000Z</time>
      </trkpt>
      <trkpt lat="45.29955" lon="6.19015">
        <ele>1529.4000244141</ele>
        <time>2020-02-16T08:23:53.000Z</time>
      </trkpt>
      <trkpt lat="45.29955" lon="6.19007">
        <ele>1529.5999755859</ele>
        <time>2020-02-16T08:23:58.000Z</time>
      </trkpt>
      <trkpt lat="45.29958" lon="6.19001">
        <ele>1530.1999511719</ele>
        <time>2020-02-16T08:24:03.000Z</time>
      </trkpt>
      <trkpt lat="45.2996" lon="6.18996">
        <ele>1531.4000244141</ele>
        <time>2020-02-16T08:24:08.000Z</time>
      </trkpt>
      <trkpt lat="45.29962" lon="6.18987">
        <ele>1532.4000244141</ele>
        <time>2020-02-16T08:24:14.000Z</time>
      </trkpt>
      <trkpt lat="45.29966" lon="6.18981">
        <ele>1533</ele>
        <time>2020-02-16T08:24:20.000Z</time>
      </trkpt>
      <trkpt lat="45.2997" lon="6.18977">
        <ele>1533.4000244141</ele>
        <time>2020-02-16T08:24:25.000Z</time>
      </trkpt>
      <trkpt lat="45.29971" lon="6.18975">
        <ele>1533.5999755859</ele>
        <time>2020-02-16T08:24:26.000Z</time>
      </trkpt>
      <trkpt lat="45.29975" lon="6.18971">
        <ele>1534.1999511719</ele>
        <time>2020-02-16T08:24:31.000Z</time>
      </trkpt>
      <trkpt lat="45.29978" lon="6.18969">
        <ele>1534.5999755859</ele>
        <time>2020-02-16T08:24:35.000Z</time>
      </trkpt>
      <trkpt lat="45.2998" lon="6.18967">
        <ele>1535.4000244141</ele>
        <time>2020-02-16T08:24:38.000Z</time>
      </trkpt>
      <trkpt lat="45.29981" lon="6.18966">
        <ele>1535.8000488281</ele>
        <time>2020-02-16T08:24:39.000Z</time>
      </trkpt>
      <trkpt lat="45.29981" lon="6.18961">
        <ele>1536.8000488281</ele>
        <time>2020-02-16T08:24:44.000Z</time>
      </trkpt>
      <trkpt lat="45.29983" lon="6.18958">
        <ele>1537.5999755859</ele>
        <time>2020-02-16T08:24:49.000Z</time>
      </trkpt>
      <trkpt lat="45.29983" lon="6.18956">
        <ele>1537.8000488281</ele>
        <time>2020-02-16T08:24:50.000Z</time>
      </trkpt>
      <trkpt lat="45.29986" lon="6.18953">
        <ele>1538.5999755859</ele>
        <time>2020-02-16T08:24:54.000Z</time>
      </trkpt>
      <trkpt lat="45.29987" lon="6.18951">
        <ele>1539</ele>
        <time>2020-02-16T08:24:56.000Z</time>
      </trkpt>
      <trkpt lat="45.29991" lon="6.18951">
        <ele>1540.1999511719</ele>
        <time>2020-02-16T08:25:00.000Z</time>
      </trkpt>
      <trkpt lat="45.29996" lon="6.18948">
        <ele>1541.4000244141</ele>
        <time>2020-02-16T08:25:05.000Z</time>
      </trkpt>
      <trkpt lat="45.29999" lon="6.18947">
        <ele>1542.4000244141</ele>
        <time>2020-02-16T08:25:09.000Z</time>
      </trkpt>
      <trkpt lat="45.30002" lon="6.18946">
        <ele>1543.1999511719</ele>
        <time>2020-02-16T08:25:13.000Z</time>
      </trkpt>
      <trkpt lat="45.30003" lon="6.18945">
        <ele>1543.5999755859</ele>
        <time>2020-02-16T08:25:14.000Z</time>
      </trkpt>
      <trkpt lat="45.30007" lon="6.18942">
        <ele>1544.8000488281</ele>
        <time>2020-02-16T08:25:19.000Z</time>
      </trkpt>
      <trkpt lat="45.30008" lon="6.18942">
        <ele>1545.1999511719</ele>
        <time>2020-02-16T08:25:20.000Z</time>
      </trkpt>
      <trkpt lat="45.30008" lon="6.1894">
        <ele>1545.8000488281</ele>
        <time>2020-02-16T08:25:23.000Z</time>
      </trkpt>
      <trkpt lat="45.30012" lon="6.18936">
        <ele>1546.4000244141</ele>
        <time>2020-02-16T08:25:27.000Z</time>
      </trkpt>
      <trkpt lat="45.30012" lon="6.18934">
        <ele>1546.4000244141</ele>
        <time>2020-02-16T08:25:29.000Z</time>
      </trkpt>
      <trkpt lat="45.30013" lon="6.18933">
        <ele>1547</ele>
        <time>2020-02-16T08:25:32.000Z</time>
      </trkpt>
      <trkpt lat="45.30015" lon="6.18928">
        <ele>1548</ele>
        <time>2020-02-16T08:25:36.000Z</time>
      </trkpt>
      <trkpt lat="45.30016" lon="6.18927">
        <ele>1548.5999755859</ele>
        <time>2020-02-16T08:25:38.000Z</time>
      </trkpt>
      <trkpt lat="45.30019" lon="6.18923">
        <ele>1549.1999511719</ele>
        <time>2020-02-16T08:25:42.000Z</time>
      </trkpt>
      <trkpt lat="45.30019" lon="6.18922">
        <ele>1549.4000244141</ele>
        <time>2020-02-16T08:25:43.000Z</time>
      </trkpt>
      <trkpt lat="45.30023" lon="6.18916">
        <ele>1550.1999511719</ele>
        <time>2020-02-16T08:25:48.000Z</time>
      </trkpt>
      <trkpt lat="45.30023" lon="6.18915">
        <ele>1550.4000244141</ele>
        <time>2020-02-16T08:25:49.000Z</time>
      </trkpt>
      <trkpt lat="45.30025" lon="6.1891">
        <ele>1551.4000244141</ele>
        <time>2020-02-16T08:25:53.000Z</time>
      </trkpt>
      <trkpt lat="45.30026" lon="6.18908">
        <ele>1551.8000488281</ele>
        <time>2020-02-16T08:25:55.000Z</time>
      </trkpt>
      <trkpt lat="45.30026" lon="6.18908">
        <ele>1552.4000244141</ele>
        <time>2020-02-16T08:25:57.000Z</time>
      </trkpt>
      <trkpt lat="45.30026" lon="6.18905">
        <ele>1553.1999511719</ele>
        <time>2020-02-16T08:26:00.000Z</time>
      </trkpt>
      <trkpt lat="45.30025" lon="6.18905">
        <ele>1553.4000244141</ele>
        <time>2020-02-16T08:26:01.000Z</time>
      </trkpt>
      <trkpt lat="45.30026" lon="6.189">
        <ele>1554.4000244141</ele>
        <time>2020-02-16T08:26:05.000Z</time>
      </trkpt>
      <trkpt lat="45.30025" lon="6.18898">
        <ele>1554.5999755859</ele>
        <time>2020-02-16T08:26:06.000Z</time>
      </trkpt>
      <trkpt lat="45.30025" lon="6.18895">
        <ele>1554.8000488281</ele>
        <time>2020-02-16T08:26:09.000Z</time>
      </trkpt>
      <trkpt lat="45.30025" lon="6.18889">
        <ele>1555.5999755859</ele>
        <time>2020-02-16T08:26:14.000Z</time>
      </trkpt>
      <trkpt lat="45.30024" lon="6.1888">
        <ele>1556.5999755859</ele>
        <time>2020-02-16T08:26:21.000Z</time>
      </trkpt>
      <trkpt lat="45.30024" lon="6.18877">
        <ele>1556.8000488281</ele>
        <time>2020-02-16T08:26:22.000Z</time>
      </trkpt>
      <trkpt lat="45.30024" lon="6.18875">
        <ele>1558</ele>
        <time>2020-02-16T08:26:27.000Z</time>
      </trkpt>
      <trkpt lat="45.30025" lon="6.1887">
        <ele>1559.1999511719</ele>
        <time>2020-02-16T08:26:31.000Z</time>
      </trkpt>
      <trkpt lat="45.30025" lon="6.1887">
        <ele>1559.1999511719</ele>
        <time>2020-02-16T08:26:32.000Z</time>
      </trkpt>
      <trkpt lat="45.30024" lon="6.18864">
        <ele>1559.5999755859</ele>
        <time>2020-02-16T08:26:37.000Z</time>
      </trkpt>
      <trkpt lat="45.30024" lon="6.18862">
        <ele>1560.1999511719</ele>
        <time>2020-02-16T08:26:40.000Z</time>
      </trkpt>
      <trkpt lat="45.30024" lon="6.18861">
        <ele>1561.4000244141</ele>
        <time>2020-02-16T08:26:43.000Z</time>
      </trkpt>
      <trkpt lat="45.30026" lon="6.18856">
        <ele>1562.5999755859</ele>
        <time>2020-02-16T08:26:47.000Z</time>
      </trkpt>
      <trkpt lat="45.30026" lon="6.18855">
        <ele>1562.8000488281</ele>
        <time>2020-02-16T08:26:48.000Z</time>
      </trkpt>
      <trkpt lat="45.30028" lon="6.18849">
        <ele>1563.4000244141</ele>
        <time>2020-02-16T08:26:52.000Z</time>
      </trkpt>
      <trkpt lat="45.30028" lon="6.18849">
        <ele>1563.5999755859</ele>
        <time>2020-02-16T08:26:53.000Z</time>
      </trkpt>
      <trkpt lat="45.3003" lon="6.18845">
        <ele>1564.4000244141</ele>
        <time>2020-02-16T08:26:57.000Z</time>
      </trkpt>
      <trkpt lat="45.30031" lon="6.18841">
        <ele>1564.8000488281</ele>
        <time>2020-02-16T08:27:00.000Z</time>
      </trkpt>
      <trkpt lat="45.30031" lon="6.1884">
        <ele>1565.1999511719</ele>
        <time>2020-02-16T08:27:02.000Z</time>
      </trkpt>
      <trkpt lat="45.30031" lon="6.18834">
        <ele>1565.8000488281</ele>
        <time>2020-02-16T08:27:06.000Z</time>
      </trkpt>
      <trkpt lat="45.30031" lon="6.18832">
        <ele>1566.1999511719</ele>
        <time>2020-02-16T08:27:08.000Z</time>
      </trkpt>
      <trkpt lat="45.30031" lon="6.1883">
        <ele>1566.8000488281</ele>
        <time>2020-02-16T08:27:10.000Z</time>
      </trkpt>
      <trkpt lat="45.30032" lon="6.18825">
        <ele>1567.4000244141</ele>
        <time>2020-02-16T08:27:14.000Z</time>
      </trkpt>
      <trkpt lat="45.30033" lon="6.18821">
        <ele>1568</ele>
        <time>2020-02-16T08:27:17.000Z</time>
      </trkpt>
      <trkpt lat="45.30033" lon="6.1882">
        <ele>1568.1999511719</ele>
        <time>2020-02-16T08:27:19.000Z</time>
      </trkpt>
      <trkpt lat="45.30034" lon="6.18817">
        <ele>1569</ele>
        <time>2020-02-16T08:27:24.000Z</time>
      </trkpt>
      <trkpt lat="45.30036" lon="6.18814">
        <ele>1569.1999511719</ele>
        <time>2020-02-16T08:27:25.000Z</time>
      </trkpt>
      <trkpt lat="45.30036" lon="6.18811">
        <ele>1569.8000488281</ele>
        <time>2020-02-16T08:27:30.000Z</time>
      </trkpt>
      <trkpt lat="45.30036" lon="6.1881">
        <ele>1570.1999511719</ele>
        <time>2020-02-16T08:27:32.000Z</time>
      </trkpt>
      <trkpt lat="45.30035" lon="6.18806">
        <ele>1571</ele>
        <time>2020-02-16T08:27:36.000Z</time>
      </trkpt>
      <trkpt lat="45.30035" lon="6.18805">
        <ele>1571.1999511719</ele>
        <time>2020-02-16T08:27:37.000Z</time>
      </trkpt>
      <trkpt lat="45.30037" lon="6.18802">
        <ele>1572</ele>
        <time>2020-02-16T08:27:42.000Z</time>
      </trkpt>
      <trkpt lat="45.30037" lon="6.18799">
        <ele>1572.4000244141</ele>
        <time>2020-02-16T08:27:43.000Z</time>
      </trkpt>
      <trkpt lat="45.30036" lon="6.18796">
        <ele>1573</ele>
        <time>2020-02-16T08:27:46.000Z</time>
      </trkpt>
      <trkpt lat="45.30036" lon="6.18794">
        <ele>1573.5999755859</ele>
        <time>2020-02-16T08:27:48.000Z</time>
      </trkpt>
      <trkpt lat="45.30036" lon="6.18791">
        <ele>1574.4000244141</ele>
        <time>2020-02-16T08:27:51.000Z</time>
      </trkpt>
      <trkpt lat="45.30036" lon="6.18791">
        <ele>1574.5999755859</ele>
        <time>2020-02-16T08:27:52.000Z</time>
      </trkpt>
      <trkpt lat="45.30039" lon="6.18787">
        <ele>1575.5999755859</ele>
        <time>2020-02-16T08:27:56.000Z</time>
      </trkpt>
      <trkpt lat="45.3004" lon="6.18785">
        <ele>1576</ele>
        <time>2020-02-16T08:27:57.000Z</time>
      </trkpt>
      <trkpt lat="45.30044" lon="6.18781">
        <ele>1576.5999755859</ele>
        <time>2020-02-16T08:28:01.000Z</time>
      </trkpt>
      <trkpt lat="45.30046" lon="6.18775">
        <ele>1577.1999511719</ele>
        <time>2020-02-16T08:28:05.000Z</time>
      </trkpt>
      <trkpt lat="45.30047" lon="6.18773">
        <ele>1577.4000244141</ele>
        <time>2020-02-16T08:28:07.000Z</time>
      </trkpt>
      <trkpt lat="45.30051" lon="6.18767">
        <ele>1578.1999511719</ele>
        <time>2020-02-16T08:28:13.000Z</time>
      </trkpt>
      <trkpt lat="45.30051" lon="6.18767">
        <ele>1578.1999511719</ele>
        <time>2020-02-16T08:28:14.000Z</time>
      </trkpt>
      <trkpt lat="45.30054" lon="6.1876">
        <ele>1578.4000244141</ele>
        <time>2020-02-16T08:28:18.000Z</time>
      </trkpt>
      <trkpt lat="45.30053" lon="6.18757">
        <ele>1579.1999511719</ele>
        <time>2020-02-16T08:28:22.000Z</time>
      </trkpt>
      <trkpt lat="45.30054" lon="6.18755">
        <ele>1579.4000244141</ele>
        <time>2020-02-16T08:28:24.000Z</time>
      </trkpt>
      <trkpt lat="45.30053" lon="6.18751">
        <ele>1580.1999511719</ele>
        <time>2020-02-16T08:28:28.000Z</time>
      </trkpt>
      <trkpt lat="45.30054" lon="6.18749">
        <ele>1580.4000244141</ele>
        <time>2020-02-16T08:28:29.000Z</time>
      </trkpt>
      <trkpt lat="45.30052" lon="6.18743">
        <ele>1581.4000244141</ele>
        <time>2020-02-16T08:28:33.000Z</time>
      </trkpt>
      <trkpt lat="45.3005" lon="6.1874">
        <ele>1582.1999511719</ele>
        <time>2020-02-16T08:28:37.000Z</time>
      </trkpt>
      <trkpt lat="45.3005" lon="6.1874">
        <ele>1582.4000244141</ele>
        <time>2020-02-16T08:28:38.000Z</time>
      </trkpt>
      <trkpt lat="45.30046" lon="6.18735">
        <ele>1583.4000244141</ele>
        <time>2020-02-16T08:28:43.000Z</time>
      </trkpt>
      <trkpt lat="45.30045" lon="6.18733">
        <ele>1583.5999755859</ele>
        <time>2020-02-16T08:28:44.000Z</time>
      </trkpt>
      <trkpt lat="45.30043" lon="6.18729">
        <ele>1584.4000244141</ele>
        <time>2020-02-16T08:28:47.000Z</time>
      </trkpt>
      <trkpt lat="45.30041" lon="6.18726">
        <ele>1585.4000244141</ele>
        <time>2020-02-16T08:28:51.000Z</time>
      </trkpt>
      <trkpt lat="45.3004" lon="6.18725">
        <ele>1585.5999755859</ele>
        <time>2020-02-16T08:28:52.000Z</time>
      </trkpt>
      <trkpt lat="45.30039" lon="6.18719">
        <ele>1586.8000488281</ele>
        <time>2020-02-16T08:28:57.000Z</time>
      </trkpt>
      <trkpt lat="45.30039" lon="6.18712">
        <ele>1587.8000488281</ele>
        <time>2020-02-16T08:29:01.000Z</time>
      </trkpt>
      <trkpt lat="45.30039" lon="6.18712">
        <ele>1588.4000244141</ele>
        <time>2020-02-16T08:29:03.000Z</time>
      </trkpt>
      <trkpt lat="45.3004" lon="6.18711">
        <ele>1589</ele>
        <time>2020-02-16T08:29:05.000Z</time>
      </trkpt>
      <trkpt lat="45.30042" lon="6.18705">
        <ele>1589.8000488281</ele>
        <time>2020-02-16T08:29:09.000Z</time>
      </trkpt>
      <trkpt lat="45.30042" lon="6.18705">
        <ele>1590</ele>
        <time>2020-02-16T08:29:10.000Z</time>
      </trkpt>
      <trkpt lat="45.30043" lon="6.18703">
        <ele>1590.8000488281</ele>
        <time>2020-02-16T08:29:14.000Z</time>
      </trkpt>
      <trkpt lat="45.30044" lon="6.18702">
        <ele>1591.1999511719</ele>
        <time>2020-02-16T08:29:15.000Z</time>
      </trkpt>
      <trkpt lat="45.30047" lon="6.18701">
        <ele>1592.4000244141</ele>
        <time>2020-02-16T08:29:19.000Z</time>
      </trkpt>
      <trkpt lat="45.30048" lon="6.18701">
        <ele>1592.5999755859</ele>
        <time>2020-02-16T08:29:20.000Z</time>
      </trkpt>
      <trkpt lat="45.30049" lon="6.187">
        <ele>1593.5999755859</ele>
        <time>2020-02-16T08:29:23.000Z</time>
      </trkpt>
      <trkpt lat="45.30051" lon="6.18697">
        <ele>1594</ele>
        <time>2020-02-16T08:29:25.000Z</time>
      </trkpt>
      <trkpt lat="45.30054" lon="6.18695">
        <ele>1594.4000244141</ele>
        <time>2020-02-16T08:29:31.000Z</time>
      </trkpt>
      <trkpt lat="45.30054" lon="6.18694">
        <ele>1594.5999755859</ele>
        <time>2020-02-16T08:29:32.000Z</time>
      </trkpt>
      <trkpt lat="45.30056" lon="6.18694">
        <ele>1595.5999755859</ele>
        <time>2020-02-16T08:29:35.000Z</time>
      </trkpt>
      <trkpt lat="45.30059" lon="6.1869">
        <ele>1596</ele>
        <time>2020-02-16T08:29:38.000Z</time>
      </trkpt>
      <trkpt lat="45.30059" lon="6.18685">
        <ele>1596.8000488281</ele>
        <time>2020-02-16T08:29:43.000Z</time>
      </trkpt>
      <trkpt lat="45.30059" lon="6.18682">
        <ele>1597.4000244141</ele>
        <time>2020-02-16T08:29:45.000Z</time>
      </trkpt>
      <trkpt lat="45.30058" lon="6.18678">
        <ele>1597.8000488281</ele>
        <time>2020-02-16T08:29:48.000Z</time>
      </trkpt>
      <trkpt lat="45.3006" lon="6.18677">
        <ele>1598.4000244141</ele>
        <time>2020-02-16T08:29:51.000Z</time>
      </trkpt>
      <trkpt lat="45.3006" lon="6.18676">
        <ele>1598.8000488281</ele>
        <time>2020-02-16T08:29:53.000Z</time>
      </trkpt>
      <trkpt lat="45.30059" lon="6.18673">
        <ele>1599.4000244141</ele>
        <time>2020-02-16T08:29:56.000Z</time>
      </trkpt>
      <trkpt lat="45.30059" lon="6.1867">
        <ele>1600</ele>
        <time>2020-02-16T08:29:58.000Z</time>
      </trkpt>
      <trkpt lat="45.30061" lon="6.18667">
        <ele>1600.5999755859</ele>
        <time>2020-02-16T08:30:01.000Z</time>
      </trkpt>
      <trkpt lat="45.30064" lon="6.1866">
        <ele>1601.1999511719</ele>
        <time>2020-02-16T08:30:07.000Z</time>
      </trkpt>
      <trkpt lat="45.30068" lon="6.18656">
        <ele>1602.1999511719</ele>
        <time>2020-02-16T08:30:12.000Z</time>
      </trkpt>
      <trkpt lat="45.30069" lon="6.18655">
        <ele>1603.4000244141</ele>
        <time>2020-02-16T08:30:16.000Z</time>
      </trkpt>
      <trkpt lat="45.30069" lon="6.18655">
        <ele>1603.8000488281</ele>
        <time>2020-02-16T08:30:17.000Z</time>
      </trkpt>
      <trkpt lat="45.30072" lon="6.18652">
        <ele>1604.5999755859</ele>
        <time>2020-02-16T08:30:20.000Z</time>
      </trkpt>
      <trkpt lat="45.30073" lon="6.18647">
        <ele>1605</ele>
        <time>2020-02-16T08:30:23.000Z</time>
      </trkpt>
      <trkpt lat="45.30074" lon="6.18645">
        <ele>1605.5999755859</ele>
        <time>2020-02-16T08:30:26.000Z</time>
      </trkpt>
      <trkpt lat="45.30073" lon="6.18642">
        <ele>1606</ele>
        <time>2020-02-16T08:30:29.000Z</time>
      </trkpt>
      <trkpt lat="45.30076" lon="6.18639">
        <ele>1606.4000244141</ele>
        <time>2020-02-16T08:30:34.000Z</time>
      </trkpt>
      <trkpt lat="45.30077" lon="6.18637">
        <ele>1606.5999755859</ele>
        <time>2020-02-16T08:30:35.000Z</time>
      </trkpt>
      <trkpt lat="45.30079" lon="6.18633">
        <ele>1607.4000244141</ele>
        <time>2020-02-16T08:30:39.000Z</time>
      </trkpt>
      <trkpt lat="45.30079" lon="6.18631">
        <ele>1607.8000488281</ele>
        <time>2020-02-16T08:30:40.000Z</time>
      </trkpt>
      <trkpt lat="45.30077" lon="6.18627">
        <ele>1608.5999755859</ele>
        <time>2020-02-16T08:30:44.000Z</time>
      </trkpt>
      <trkpt lat="45.30077" lon="6.18625">
        <ele>1609.1999511719</ele>
        <time>2020-02-16T08:30:45.000Z</time>
      </trkpt>
      <trkpt lat="45.30076" lon="6.18625">
        <ele>1610</ele>
        <time>2020-02-16T08:30:49.000Z</time>
      </trkpt>
      <trkpt lat="45.30078" lon="6.18622">
        <ele>1610.4000244141</ele>
        <time>2020-02-16T08:30:51.000Z</time>
      </trkpt>
      <trkpt lat="45.30078" lon="6.18621">
        <ele>1610.8000488281</ele>
        <time>2020-02-16T08:30:54.000Z</time>
      </trkpt>
      <trkpt lat="45.3008" lon="6.1862">
        <ele>1611.4000244141</ele>
        <time>2020-02-16T08:30:56.000Z</time>
      </trkpt>
      <trkpt lat="45.30084" lon="6.18613">
        <ele>1612.4000244141</ele>
        <time>2020-02-16T08:31:01.000Z</time>
      </trkpt>
      <trkpt lat="45.30088" lon="6.18608">
        <ele>1613.4000244141</ele>
        <time>2020-02-16T08:31:06.000Z</time>
      </trkpt>
      <trkpt lat="45.3009" lon="6.18606">
        <ele>1614.5999755859</ele>
        <time>2020-02-16T08:31:11.000Z</time>
      </trkpt>
      <trkpt lat="45.30091" lon="6.18603">
        <ele>1614.8000488281</ele>
        <time>2020-02-16T08:31:12.000Z</time>
      </trkpt>
      <trkpt lat="45.30092" lon="6.18601">
        <ele>1615.5999755859</ele>
        <time>2020-02-16T08:31:16.000Z</time>
      </trkpt>
      <trkpt lat="45.30092" lon="6.18599">
        <ele>1615.8000488281</ele>
        <time>2020-02-16T08:31:17.000Z</time>
      </trkpt>
      <trkpt lat="45.30094" lon="6.18592">
        <ele>1617</ele>
        <time>2020-02-16T08:31:23.000Z</time>
      </trkpt>
      <trkpt lat="45.30094" lon="6.18592">
        <ele>1617.1999511719</ele>
        <time>2020-02-16T08:31:24.000Z</time>
      </trkpt>
      <trkpt lat="45.30095" lon="6.18591">
        <ele>1618</ele>
        <time>2020-02-16T08:31:27.000Z</time>
      </trkpt>
      <trkpt lat="45.30096" lon="6.18586">
        <ele>1618.5999755859</ele>
        <time>2020-02-16T08:31:30.000Z</time>
      </trkpt>
      <trkpt lat="45.30097" lon="6.18584">
        <ele>1619</ele>
        <time>2020-02-16T08:31:32.000Z</time>
      </trkpt>
      <trkpt lat="45.30097" lon="6.18581">
        <ele>1620.1999511719</ele>
        <time>2020-02-16T08:31:36.000Z</time>
      </trkpt>
      <trkpt lat="45.30097" lon="6.18582">
        <ele>1620.4000244141</ele>
        <time>2020-02-16T08:31:37.000Z</time>
      </trkpt>
      <trkpt lat="45.30098" lon="6.18578">
        <ele>1621.1999511719</ele>
        <time>2020-02-16T08:31:42.000Z</time>
      </trkpt>
      <trkpt lat="45.301" lon="6.1857">
        <ele>1622.1999511719</ele>
        <time>2020-02-16T08:31:48.000Z</time>
      </trkpt>
      <trkpt lat="45.301" lon="6.18571">
        <ele>1622.4000244141</ele>
        <time>2020-02-16T08:31:49.000Z</time>
      </trkpt>
      <trkpt lat="45.30102" lon="6.18566">
        <ele>1623.4000244141</ele>
        <time>2020-02-16T08:31:54.000Z</time>
      </trkpt>
      <trkpt lat="45.30103" lon="6.18565">
        <ele>1623.5999755859</ele>
        <time>2020-02-16T08:31:55.000Z</time>
      </trkpt>
      <trkpt lat="45.30104" lon="6.18561">
        <ele>1624.4000244141</ele>
        <time>2020-02-16T08:31:59.000Z</time>
      </trkpt>
      <trkpt lat="45.30104" lon="6.18559">
        <ele>1624.5999755859</ele>
        <time>2020-02-16T08:32:01.000Z</time>
      </trkpt>
      <trkpt lat="45.30104" lon="6.18555">
        <ele>1625.4000244141</ele>
        <time>2020-02-16T08:32:05.000Z</time>
      </trkpt>
      <trkpt lat="45.30103" lon="6.18553">
        <ele>1625.8000488281</ele>
        <time>2020-02-16T08:32:07.000Z</time>
      </trkpt>
      <trkpt lat="45.301" lon="6.18546">
        <ele>1626.8000488281</ele>
        <time>2020-02-16T08:32:11.000Z</time>
      </trkpt>
      <trkpt lat="45.301" lon="6.18542">
        <ele>1627.8000488281</ele>
        <time>2020-02-16T08:32:16.000Z</time>
      </trkpt>
      <trkpt lat="45.301" lon="6.18539">
        <ele>1628.1999511719</ele>
        <time>2020-02-16T08:32:18.000Z</time>
      </trkpt>
      <trkpt lat="45.301" lon="6.18537">
        <ele>1629.1999511719</ele>
        <time>2020-02-16T08:32:21.000Z</time>
      </trkpt>
      <trkpt lat="45.30101" lon="6.18535">
        <ele>1630</ele>
        <time>2020-02-16T08:32:24.000Z</time>
      </trkpt>
      <trkpt lat="45.30102" lon="6.18533">
        <ele>1630.4000244141</ele>
        <time>2020-02-16T08:32:27.000Z</time>
      </trkpt>
      <trkpt lat="45.30104" lon="6.1853">
        <ele>1630.8000488281</ele>
        <time>2020-02-16T08:32:29.000Z</time>
      </trkpt>
      <trkpt lat="45.30108" lon="6.18527">
        <ele>1631.5999755859</ele>
        <time>2020-02-16T08:32:33.000Z</time>
      </trkpt>
      <trkpt lat="45.3011" lon="6.18525">
        <ele>1632</ele>
        <time>2020-02-16T08:32:35.000Z</time>
      </trkpt>
      <trkpt lat="45.30111" lon="6.18523">
        <ele>1632.8000488281</ele>
        <time>2020-02-16T08:32:38.000Z</time>
      </trkpt>
      <trkpt lat="45.30113" lon="6.18519">
        <ele>1633.4000244141</ele>
        <time>2020-02-16T08:32:42.000Z</time>
      </trkpt>
      <trkpt lat="45.30114" lon="6.18516">
        <ele>1634</ele>
        <time>2020-02-16T08:32:45.000Z</time>
      </trkpt>
      <trkpt lat="45.30114" lon="6.18515">
        <ele>1634.1999511719</ele>
        <time>2020-02-16T08:32:47.000Z</time>
      </trkpt>
      <trkpt lat="45.30113" lon="6.18511">
        <ele>1635</ele>
        <time>2020-02-16T08:32:52.000Z</time>
      </trkpt>
      <trkpt lat="45.30113" lon="6.18509">
        <ele>1635.1999511719</ele>
        <time>2020-02-16T08:32:53.000Z</time>
      </trkpt>
      <trkpt lat="45.30111" lon="6.18506">
        <ele>1636.1999511719</ele>
        <time>2020-02-16T08:32:57.000Z</time>
      </trkpt>
      <trkpt lat="45.30111" lon="6.18505">
        <ele>1636.4000244141</ele>
        <time>2020-02-16T08:32:59.000Z</time>
      </trkpt>
      <trkpt lat="45.30112" lon="6.18503">
        <ele>1637.1999511719</ele>
        <time>2020-02-16T08:33:02.000Z</time>
      </trkpt>
      <trkpt lat="45.30112" lon="6.185">
        <ele>1637.8000488281</ele>
        <time>2020-02-16T08:33:04.000Z</time>
      </trkpt>
      <trkpt lat="45.30112" lon="6.18496">
        <ele>1638.4000244141</ele>
        <time>2020-02-16T08:33:07.000Z</time>
      </trkpt>
      <trkpt lat="45.30113" lon="6.18494">
        <ele>1639.1999511719</ele>
        <time>2020-02-16T08:33:09.000Z</time>
      </trkpt>
      <trkpt lat="45.30114" lon="6.18493">
        <ele>1639.5999755859</ele>
        <time>2020-02-16T08:33:11.000Z</time>
      </trkpt>
      <trkpt lat="45.30116" lon="6.18491">
        <ele>1640.4000244141</ele>
        <time>2020-02-16T08:33:15.000Z</time>
      </trkpt>
      <trkpt lat="45.30118" lon="6.18489">
        <ele>1640.8000488281</ele>
        <time>2020-02-16T08:33:18.000Z</time>
      </trkpt>
      <trkpt lat="45.30118" lon="6.18487">
        <ele>1641.1999511719</ele>
        <time>2020-02-16T08:33:20.000Z</time>
      </trkpt>
      <trkpt lat="45.30118" lon="6.18485">
        <ele>1642</ele>
        <time>2020-02-16T08:33:22.000Z</time>
      </trkpt>
      <trkpt lat="45.30118" lon="6.18481">
        <ele>1643.1999511719</ele>
        <time>2020-02-16T08:33:26.000Z</time>
      </trkpt>
      <trkpt lat="45.30119" lon="6.18479">
        <ele>1643.4000244141</ele>
        <time>2020-02-16T08:33:27.000Z</time>
      </trkpt>
      <trkpt lat="45.30119" lon="6.18477">
        <ele>1644.1999511719</ele>
        <time>2020-02-16T08:33:30.000Z</time>
      </trkpt>
      <trkpt lat="45.30121" lon="6.18474">
        <ele>1645</ele>
        <time>2020-02-16T08:33:33.000Z</time>
      </trkpt>
      <trkpt lat="45.30122" lon="6.18473">
        <ele>1645.1999511719</ele>
        <time>2020-02-16T08:33:34.000Z</time>
      </trkpt>
      <trkpt lat="45.30125" lon="6.18467">
        <ele>1646.1999511719</ele>
        <time>2020-02-16T08:33:40.000Z</time>
      </trkpt>
      <trkpt lat="45.30125" lon="6.18467">
        <ele>1646.5999755859</ele>
        <time>2020-02-16T08:33:41.000Z</time>
      </trkpt>
      <trkpt lat="45.30129" lon="6.18463">
        <ele>1647.4000244141</ele>
        <time>2020-02-16T08:33:46.000Z</time>
      </trkpt>
      <trkpt lat="45.30133" lon="6.1846">
        <ele>1648.5999755859</ele>
        <time>2020-02-16T08:33:52.000Z</time>
      </trkpt>
      <trkpt lat="45.30134" lon="6.1846">
        <ele>1649.4000244141</ele>
        <time>2020-02-16T08:33:55.000Z</time>
      </trkpt>
      <trkpt lat="45.30135" lon="6.18459">
        <ele>1649.5999755859</ele>
        <time>2020-02-16T08:33:56.000Z</time>
      </trkpt>
      <trkpt lat="45.30137" lon="6.18458">
        <ele>1650.8000488281</ele>
        <time>2020-02-16T08:33:59.000Z</time>
      </trkpt>
      <trkpt lat="45.30138" lon="6.18458">
        <ele>1651.5999755859</ele>
        <time>2020-02-16T08:34:02.000Z</time>
      </trkpt>
      <trkpt lat="45.30139" lon="6.18457">
        <ele>1651.8000488281</ele>
        <time>2020-02-16T08:34:03.000Z</time>
      </trkpt>
      <trkpt lat="45.30142" lon="6.18454">
        <ele>1652.4000244141</ele>
        <time>2020-02-16T08:34:08.000Z</time>
      </trkpt>
      <trkpt lat="45.30142" lon="6.18451">
        <ele>1653</ele>
        <time>2020-02-16T08:34:10.000Z</time>
      </trkpt>
      <trkpt lat="45.30142" lon="6.18449">
        <ele>1653.5999755859</ele>
        <time>2020-02-16T08:34:13.000Z</time>
      </trkpt>
      <trkpt lat="45.30143" lon="6.18448">
        <ele>1654</ele>
        <time>2020-02-16T08:34:15.000Z</time>
      </trkpt>
      <trkpt lat="45.30144" lon="6.18444">
        <ele>1655</ele>
        <time>2020-02-16T08:34:20.000Z</time>
      </trkpt>
      <trkpt lat="45.30143" lon="6.18438">
        <ele>1656.1999511719</ele>
        <time>2020-02-16T08:34:25.000Z</time>
      </trkpt>
      <trkpt lat="45.30142" lon="6.18437">
        <ele>1656.1999511719</ele>
        <time>2020-02-16T08:34:26.000Z</time>
      </trkpt>
      <trkpt lat="45.30143" lon="6.18435">
        <ele>1657.1999511719</ele>
        <time>2020-02-16T08:34:30.000Z</time>
      </trkpt>
      <trkpt lat="45.30144" lon="6.18435">
        <ele>1657.5999755859</ele>
        <time>2020-02-16T08:34:32.000Z</time>
      </trkpt>
      <trkpt lat="45.30144" lon="6.18435">
        <ele>1658.1999511719</ele>
        <time>2020-02-16T08:34:34.000Z</time>
      </trkpt>
      <trkpt lat="45.30144" lon="6.18431">
        <ele>1659.4000244141</ele>
        <time>2020-02-16T08:34:39.000Z</time>
      </trkpt>
      <trkpt lat="45.30144" lon="6.18431">
        <ele>1659.5999755859</ele>
        <time>2020-02-16T08:34:40.000Z</time>
      </trkpt>
      <trkpt lat="45.30144" lon="6.18431">
        <ele>1660.1999511719</ele>
        <time>2020-02-16T08:35:00.000Z</time>
      </trkpt>
      <trkpt lat="45.30144" lon="6.18431">
        <ele>1660.1999511719</ele>
        <time>2020-02-16T08:35:15.000Z</time>
      </trkpt>
      <trkpt lat="45.30145" lon="6.18432">
        <ele>1660.5999755859</ele>
        <time>2020-02-16T08:35:18.000Z</time>
      </trkpt>
      <trkpt lat="45.30145" lon="6.18432">
        <ele>1661.1999511719</ele>
        <time>2020-02-16T08:35:29.000Z</time>
      </trkpt>
      <trkpt lat="45.30145" lon="6.18432">
        <ele>1660.1999511719</ele>
        <time>2020-02-16T08:35:43.000Z</time>
      </trkpt>
      <trkpt lat="45.30145" lon="6.18431">
        <ele>1660.1999511719</ele>
        <time>2020-02-16T08:35:57.000Z</time>
      </trkpt>
      <trkpt lat="45.30154" lon="6.18424">
        <ele>1661</ele>
        <time>2020-02-16T08:36:05.000Z</time>
      </trkpt>
      <trkpt lat="45.30158" lon="6.18417">
        <ele>1661.5999755859</ele>
        <time>2020-02-16T08:36:11.000Z</time>
      </trkpt>
      <trkpt lat="45.30158" lon="6.18416">
        <ele>1661.5999755859</ele>
        <time>2020-02-16T08:36:12.000Z</time>
      </trkpt>
      <trkpt lat="45.30159" lon="6.18408">
        <ele>1662.5999755859</ele>
        <time>2020-02-16T08:36:18.000Z</time>
      </trkpt>
      <trkpt lat="45.30159" lon="6.18408">
        <ele>1662.8000488281</ele>
        <time>2020-02-16T08:36:19.000Z</time>
      </trkpt>
      <trkpt lat="45.30159" lon="6.18403">
        <ele>1663.8000488281</ele>
        <time>2020-02-16T08:36:23.000Z</time>
      </trkpt>
      <trkpt lat="45.30159" lon="6.18402">
        <ele>1664</ele>
        <time>2020-02-16T08:36:24.000Z</time>
      </trkpt>
      <trkpt lat="45.3016" lon="6.18397">
        <ele>1665</ele>
        <time>2020-02-16T08:36:29.000Z</time>
      </trkpt>
      <trkpt lat="45.3016" lon="6.18395">
        <ele>1665</ele>
        <time>2020-02-16T08:36:30.000Z</time>
      </trkpt>
      <trkpt lat="45.3016" lon="6.18386">
        <ele>1665.5999755859</ele>
        <time>2020-02-16T08:36:37.000Z</time>
      </trkpt>
      <trkpt lat="45.30158" lon="6.18382">
        <ele>1666</ele>
        <time>2020-02-16T08:36:40.000Z</time>
      </trkpt>
      <trkpt lat="45.30157" lon="6.18378">
        <ele>1666.4000244141</ele>
        <time>2020-02-16T08:36:43.000Z</time>
      </trkpt>
      <trkpt lat="45.30158" lon="6.18372">
        <ele>1667</ele>
        <time>2020-02-16T08:36:48.000Z</time>
      </trkpt>
      <trkpt lat="45.30159" lon="6.18365">
        <ele>1667.8000488281</ele>
        <time>2020-02-16T08:36:53.000Z</time>
      </trkpt>
      <trkpt lat="45.30159" lon="6.18363">
        <ele>1668</ele>
        <time>2020-02-16T08:36:54.000Z</time>
      </trkpt>
      <trkpt lat="45.30159" lon="6.18359">
        <ele>1668.5999755859</ele>
        <time>2020-02-16T08:36:58.000Z</time>
      </trkpt>
      <trkpt lat="45.30159" lon="6.18355">
        <ele>1669</ele>
        <time>2020-02-16T08:37:01.000Z</time>
      </trkpt>
      <trkpt lat="45.30161" lon="6.18351">
        <ele>1669.4000244141</ele>
        <time>2020-02-16T08:37:05.000Z</time>
      </trkpt>
      <trkpt lat="45.30162" lon="6.18344">
        <ele>1670.4000244141</ele>
        <time>2020-02-16T08:37:11.000Z</time>
      </trkpt>
      <trkpt lat="45.30162" lon="6.18344">
        <ele>1670.5999755859</ele>
        <time>2020-02-16T08:37:12.000Z</time>
      </trkpt>
      <trkpt lat="45.3016" lon="6.18335">
        <ele>1671.4000244141</ele>
        <time>2020-02-16T08:37:17.000Z</time>
      </trkpt>
      <trkpt lat="45.30161" lon="6.18334">
        <ele>1671.5999755859</ele>
        <time>2020-02-16T08:37:18.000Z</time>
      </trkpt>
      <trkpt lat="45.30159" lon="6.18322">
        <ele>1672.5999755859</ele>
        <time>2020-02-16T08:37:25.000Z</time>
      </trkpt>
      <trkpt lat="45.30158" lon="6.18321">
        <ele>1672.8000488281</ele>
        <time>2020-02-16T08:37:26.000Z</time>
      </trkpt>
      <trkpt lat="45.30158" lon="6.18316">
        <ele>1673.5999755859</ele>
        <time>2020-02-16T08:37:30.000Z</time>
      </trkpt>
      <trkpt lat="45.30158" lon="6.18315">
        <ele>1673.8000488281</ele>
        <time>2020-02-16T08:37:31.000Z</time>
      </trkpt>
      <trkpt lat="45.3016" lon="6.18312">
        <ele>1674.8000488281</ele>
        <time>2020-02-16T08:37:35.000Z</time>
      </trkpt>
      <trkpt lat="45.3016" lon="6.1831">
        <ele>1675.1999511719</ele>
        <time>2020-02-16T08:37:38.000Z</time>
      </trkpt>
      <trkpt lat="45.30162" lon="6.18305">
        <ele>1675.8000488281</ele>
        <time>2020-02-16T08:37:42.000Z</time>
      </trkpt>
      <trkpt lat="45.30162" lon="6.18302">
        <ele>1676.4000244141</ele>
        <time>2020-02-16T08:37:45.000Z</time>
      </trkpt>
      <trkpt lat="45.30164" lon="6.18297">
        <ele>1677</ele>
        <time>2020-02-16T08:37:49.000Z</time>
      </trkpt>
      <trkpt lat="45.30165" lon="6.18295">
        <ele>1677.1999511719</ele>
        <time>2020-02-16T08:37:51.000Z</time>
      </trkpt>
      <trkpt lat="45.30168" lon="6.18289">
        <ele>1678</ele>
        <time>2020-02-16T08:37:57.000Z</time>
      </trkpt>
      <trkpt lat="45.30169" lon="6.18288">
        <ele>1678.1999511719</ele>
        <time>2020-02-16T08:37:58.000Z</time>
      </trkpt>
      <trkpt lat="45.3017" lon="6.18285">
        <ele>1679</ele>
        <time>2020-02-16T08:38:03.000Z</time>
      </trkpt>
      <trkpt lat="45.3017" lon="6.18285">
        <ele>1679</ele>
        <time>2020-02-16T08:38:04.000Z</time>
      </trkpt>
      <trkpt lat="45.30172" lon="6.1828">
        <ele>1680</ele>
        <time>2020-02-16T08:38:09.000Z</time>
      </trkpt>
      <trkpt lat="45.30173" lon="6.18279">
        <ele>1680.4000244141</ele>
        <time>2020-02-16T08:38:10.000Z</time>
      </trkpt>
      <trkpt lat="45.30176" lon="6.18276">
        <ele>1681.1999511719</ele>
        <time>2020-02-16T08:38:14.000Z</time>
      </trkpt>
      <trkpt lat="45.30177" lon="6.18271">
        <ele>1681.8000488281</ele>
        <time>2020-02-16T08:38:18.000Z</time>
      </trkpt>
      <trkpt lat="45.30177" lon="6.18266">
        <ele>1682.5999755859</ele>
        <time>2020-02-16T08:38:23.000Z</time>
      </trkpt>
      <trkpt lat="45.30178" lon="6.18266">
        <ele>1682.8000488281</ele>
        <time>2020-02-16T08:38:24.000Z</time>
      </trkpt>
      <trkpt lat="45.3018" lon="6.1826">
        <ele>1683.5999755859</ele>
        <time>2020-02-16T08:38:29.000Z</time>
      </trkpt>
      <trkpt lat="45.30179" lon="6.1826">
        <ele>1683.5999755859</ele>
        <time>2020-02-16T08:38:30.000Z</time>
      </trkpt>
      <trkpt lat="45.30181" lon="6.18255">
        <ele>1684.4000244141</ele>
        <time>2020-02-16T08:38:35.000Z</time>
      </trkpt>
      <trkpt lat="45.30181" lon="6.18252">
        <ele>1684.8000488281</ele>
        <time>2020-02-16T08:38:38.000Z</time>
      </trkpt>
      <trkpt lat="45.30181" lon="6.18247">
        <ele>1685.1999511719</ele>
        <time>2020-02-16T08:38:43.000Z</time>
      </trkpt>
      <trkpt lat="45.30181" lon="6.1824">
        <ele>1686</ele>
        <time>2020-02-16T08:38:47.000Z</time>
      </trkpt>
      <trkpt lat="45.3018" lon="6.18238">
        <ele>1686.5999755859</ele>
        <time>2020-02-16T08:38:50.000Z</time>
      </trkpt>
      <trkpt lat="45.30181" lon="6.18236">
        <ele>1687.1999511719</ele>
        <time>2020-02-16T08:38:53.000Z</time>
      </trkpt>
      <trkpt lat="45.30183" lon="6.18233">
        <ele>1688.1999511719</ele>
        <time>2020-02-16T08:38:57.000Z</time>
      </trkpt>
      <trkpt lat="45.30183" lon="6.18232">
        <ele>1688.4000244141</ele>
        <time>2020-02-16T08:38:58.000Z</time>
      </trkpt>
      <trkpt lat="45.30184" lon="6.18227">
        <ele>1689.4000244141</ele>
        <time>2020-02-16T08:39:03.000Z</time>
      </trkpt>
      <trkpt lat="45.30184" lon="6.18226">
        <ele>1689.4000244141</ele>
        <time>2020-02-16T08:39:04.000Z</time>
      </trkpt>
      <trkpt lat="45.30186" lon="6.18221">
        <ele>1690.4000244141</ele>
        <time>2020-02-16T08:39:09.000Z</time>
      </trkpt>
      <trkpt lat="45.30186" lon="6.18221">
        <ele>1690.5999755859</ele>
        <time>2020-02-16T08:39:10.000Z</time>
      </trkpt>
      <trkpt lat="45.30189" lon="6.18217">
        <ele>1691.5999755859</ele>
        <time>2020-02-16T08:39:15.000Z</time>
      </trkpt>
      <trkpt lat="45.30189" lon="6.18213">
        <ele>1692.5999755859</ele>
        <time>2020-02-16T08:39:20.000Z</time>
      </trkpt>
      <trkpt lat="45.30191" lon="6.1821">
        <ele>1693.5999755859</ele>
        <time>2020-02-16T08:39:23.000Z</time>
      </trkpt>
      <trkpt lat="45.30191" lon="6.1821">
        <ele>1693.5999755859</ele>
        <time>2020-02-16T08:39:24.000Z</time>
      </trkpt>
      <trkpt lat="45.30194" lon="6.18205">
        <ele>1694.8000488281</ele>
        <time>2020-02-16T08:39:29.000Z</time>
      </trkpt>
      <trkpt lat="45.30195" lon="6.18204">
        <ele>1695</ele>
        <time>2020-02-16T08:39:30.000Z</time>
      </trkpt>
      <trkpt lat="45.30196" lon="6.18201">
        <ele>1695.8000488281</ele>
        <time>2020-02-16T08:39:34.000Z</time>
      </trkpt>
      <trkpt lat="45.30195" lon="6.18199">
        <ele>1696.1999511719</ele>
        <time>2020-02-16T08:39:36.000Z</time>
      </trkpt>
      <trkpt lat="45.30196" lon="6.18193">
        <ele>1697</ele>
        <time>2020-02-16T08:39:41.000Z</time>
      </trkpt>
      <trkpt lat="45.30196" lon="6.18192">
        <ele>1697.1999511719</ele>
        <time>2020-02-16T08:39:42.000Z</time>
      </trkpt>
      <trkpt lat="45.30196" lon="6.18189">
        <ele>1698.1999511719</ele>
        <time>2020-02-16T08:39:47.000Z</time>
      </trkpt>
      <trkpt lat="45.30196" lon="6.18187">
        <ele>1698.5999755859</ele>
        <time>2020-02-16T08:39:49.000Z</time>
      </trkpt>
      <trkpt lat="45.30196" lon="6.18182">
        <ele>1699.1999511719</ele>
        <time>2020-02-16T08:39:53.000Z</time>
      </trkpt>
      <trkpt lat="45.30198" lon="6.1818">
        <ele>1699.8000488281</ele>
        <time>2020-02-16T08:39:56.000Z</time>
      </trkpt>
      <trkpt lat="45.30199" lon="6.18176">
        <ele>1700.4000244141</ele>
        <time>2020-02-16T08:39:59.000Z</time>
      </trkpt>
      <trkpt lat="45.30201" lon="6.18172">
        <ele>1701</ele>
        <time>2020-02-16T08:40:03.000Z</time>
      </trkpt>
      <trkpt lat="45.30204" lon="6.18169">
        <ele>1701.5999755859</ele>
        <time>2020-02-16T08:40:07.000Z</time>
      </trkpt>
      <trkpt lat="45.30205" lon="6.18168">
        <ele>1702.1999511719</ele>
        <time>2020-02-16T08:40:09.000Z</time>
      </trkpt>
      <trkpt lat="45.30207" lon="6.18164">
        <ele>1702.8000488281</ele>
        <time>2020-02-16T08:40:13.000Z</time>
      </trkpt>
      <trkpt lat="45.30209" lon="6.18163">
        <ele>1703.1999511719</ele>
        <time>2020-02-16T08:40:15.000Z</time>
      </trkpt>
      <trkpt lat="45.3021" lon="6.18158">
        <ele>1704</ele>
        <time>2020-02-16T08:40:20.000Z</time>
      </trkpt>
      <trkpt lat="45.3021" lon="6.18158">
        <ele>1704.1999511719</ele>
        <time>2020-02-16T08:40:21.000Z</time>
      </trkpt>
      <trkpt lat="45.30211" lon="6.18154">
        <ele>1705.1999511719</ele>
        <time>2020-02-16T08:40:25.000Z</time>
      </trkpt>
      <trkpt lat="45.30213" lon="6.18152">
        <ele>1705.8000488281</ele>
        <time>2020-02-16T08:40:28.000Z</time>
      </trkpt>
      <trkpt lat="45.30216" lon="6.18147">
        <ele>1706.4000244141</ele>
        <time>2020-02-16T08:40:34.000Z</time>
      </trkpt>
      <trkpt lat="45.30217" lon="6.18143">
        <ele>1707.5999755859</ele>
        <time>2020-02-16T08:40:39.000Z</time>
      </trkpt>
      <trkpt lat="45.30217" lon="6.18142">
        <ele>1707.8000488281</ele>
        <time>2020-02-16T08:40:40.000Z</time>
      </trkpt>
      <trkpt lat="45.30218" lon="6.18137">
        <ele>1708.8000488281</ele>
        <time>2020-02-16T08:40:44.000Z</time>
      </trkpt>
      <trkpt lat="45.30218" lon="6.18135">
        <ele>1709.1999511719</ele>
        <time>2020-02-16T08:40:46.000Z</time>
      </trkpt>
      <trkpt lat="45.3022" lon="6.18132">
        <ele>1709.8000488281</ele>
        <time>2020-02-16T08:40:52.000Z</time>
      </trkpt>
      <trkpt lat="45.3022" lon="6.18128">
        <ele>1710.8000488281</ele>
        <time>2020-02-16T08:40:57.000Z</time>
      </trkpt>
      <trkpt lat="45.3022" lon="6.18127">
        <ele>1711.4000244141</ele>
        <time>2020-02-16T08:40:59.000Z</time>
      </trkpt>
      <trkpt lat="45.30221" lon="6.18127">
        <ele>1712</ele>
        <time>2020-02-16T08:41:01.000Z</time>
      </trkpt>
      <trkpt lat="45.30222" lon="6.18124">
        <ele>1712.4000244141</ele>
        <time>2020-02-16T08:41:04.000Z</time>
      </trkpt>
      <trkpt lat="45.30221" lon="6.1812">
        <ele>1713.1999511719</ele>
        <time>2020-02-16T08:41:08.000Z</time>
      </trkpt>
      <trkpt lat="45.30223" lon="6.18117">
        <ele>1714</ele>
        <time>2020-02-16T08:41:11.000Z</time>
      </trkpt>
      <trkpt lat="45.30223" lon="6.18116">
        <ele>1714.1999511719</ele>
        <time>2020-02-16T08:41:12.000Z</time>
      </trkpt>
      <trkpt lat="45.30224" lon="6.18113">
        <ele>1715.4000244141</ele>
        <time>2020-02-16T08:41:17.000Z</time>
      </trkpt>
      <trkpt lat="45.30227" lon="6.18108">
        <ele>1716.5999755859</ele>
        <time>2020-02-16T08:41:25.000Z</time>
      </trkpt>
      <trkpt lat="45.30228" lon="6.18103">
        <ele>1717.5999755859</ele>
        <time>2020-02-16T08:41:30.000Z</time>
      </trkpt>
      <trkpt lat="45.30228" lon="6.18101">
        <ele>1718.1999511719</ele>
        <time>2020-02-16T08:41:32.000Z</time>
      </trkpt>
      <trkpt lat="45.30229" lon="6.18099">
        <ele>1718.8000488281</ele>
        <time>2020-02-16T08:41:35.000Z</time>
      </trkpt>
      <trkpt lat="45.30227" lon="6.18091">
        <ele>1719.5999755859</ele>
        <time>2020-02-16T08:41:41.000Z</time>
      </trkpt>
      <trkpt lat="45.30228" lon="6.18089">
        <ele>1720</ele>
        <time>2020-02-16T08:41:44.000Z</time>
      </trkpt>
      <trkpt lat="45.30227" lon="6.18087">
        <ele>1720.8000488281</ele>
        <time>2020-02-16T08:41:48.000Z</time>
      </trkpt>
      <trkpt lat="45.30228" lon="6.18086">
        <ele>1721</ele>
        <time>2020-02-16T08:41:50.000Z</time>
      </trkpt>
      <trkpt lat="45.30229" lon="6.18084">
        <ele>1721.8000488281</ele>
        <time>2020-02-16T08:41:54.000Z</time>
      </trkpt>
      <trkpt lat="45.30229" lon="6.18083">
        <ele>1722.1999511719</ele>
        <time>2020-02-16T08:41:56.000Z</time>
      </trkpt>
      <trkpt lat="45.30228" lon="6.18082">
        <ele>1723</ele>
        <time>2020-02-16T08:41:59.000Z</time>
      </trkpt>
      <trkpt lat="45.30229" lon="6.18081">
        <ele>1723.1999511719</ele>
        <time>2020-02-16T08:42:00.000Z</time>
      </trkpt>
      <trkpt lat="45.30229" lon="6.18077">
        <ele>1723.8000488281</ele>
        <time>2020-02-16T08:42:05.000Z</time>
      </trkpt>
      <trkpt lat="45.30229" lon="6.18075">
        <ele>1724.1999511719</ele>
        <time>2020-02-16T08:42:08.000Z</time>
      </trkpt>
      <trkpt lat="45.30229" lon="6.18072">
        <ele>1725</ele>
        <time>2020-02-16T08:42:12.000Z</time>
      </trkpt>
      <trkpt lat="45.30229" lon="6.18071">
        <ele>1725.5999755859</ele>
        <time>2020-02-16T08:42:14.000Z</time>
      </trkpt>
      <trkpt lat="45.30231" lon="6.18067">
        <ele>1726.4000244141</ele>
        <time>2020-02-16T08:42:20.000Z</time>
      </trkpt>
      <trkpt lat="45.30232" lon="6.18066">
        <ele>1726.5999755859</ele>
        <time>2020-02-16T08:42:21.000Z</time>
      </trkpt>
      <trkpt lat="45.30233" lon="6.18065">
        <ele>1727.5999755859</ele>
        <time>2020-02-16T08:42:26.000Z</time>
      </trkpt>
      <trkpt lat="45.30233" lon="6.18064">
        <ele>1727.8000488281</ele>
        <time>2020-02-16T08:42:27.000Z</time>
      </trkpt>
      <trkpt lat="45.30233" lon="6.18062">
        <ele>1728.4000244141</ele>
        <time>2020-02-16T08:42:31.000Z</time>
      </trkpt>
      <trkpt lat="45.30233" lon="6.18059">
        <ele>1728.8000488281</ele>
        <time>2020-02-16T08:42:34.000Z</time>
      </trkpt>
      <trkpt lat="45.30232" lon="6.18054">
        <ele>1729.8000488281</ele>
        <time>2020-02-16T08:42:39.000Z</time>
      </trkpt>
      <trkpt lat="45.30232" lon="6.18053">
        <ele>1730</ele>
        <time>2020-02-16T08:42:40.000Z</time>
      </trkpt>
      <trkpt lat="45.30233" lon="6.18052">
        <ele>1731</ele>
        <time>2020-02-16T08:42:45.000Z</time>
      </trkpt>
      <trkpt lat="45.30234" lon="6.1805">
        <ele>1732</ele>
        <time>2020-02-16T08:42:50.000Z</time>
      </trkpt>
      <trkpt lat="45.30234" lon="6.18049">
        <ele>1732.1999511719</ele>
        <time>2020-02-16T08:42:51.000Z</time>
      </trkpt>
      <trkpt lat="45.30234" lon="6.18044">
        <ele>1733</ele>
        <time>2020-02-16T08:42:57.000Z</time>
      </trkpt>
      <trkpt lat="45.30234" lon="6.18043">
        <ele>1733.1999511719</ele>
        <time>2020-02-16T08:42:59.000Z</time>
      </trkpt>
      <trkpt lat="45.30235" lon="6.1804">
        <ele>1733.5999755859</ele>
        <time>2020-02-16T08:43:02.000Z</time>
      </trkpt>
      <trkpt lat="45.30234" lon="6.18037">
        <ele>1734.4000244141</ele>
        <time>2020-02-16T08:43:05.000Z</time>
      </trkpt>
      <trkpt lat="45.30235" lon="6.18033">
        <ele>1735.5999755859</ele>
        <time>2020-02-16T08:43:10.000Z</time>
      </trkpt>
      <trkpt lat="45.30237" lon="6.18031">
        <ele>1736.5999755859</ele>
        <time>2020-02-16T08:43:15.000Z</time>
      </trkpt>
      <trkpt lat="45.30238" lon="6.18029">
        <ele>1736.8000488281</ele>
        <time>2020-02-16T08:43:18.000Z</time>
      </trkpt>
      <trkpt lat="45.30238" lon="6.18024">
        <ele>1737.5999755859</ele>
        <time>2020-02-16T08:43:23.000Z</time>
      </trkpt>
      <trkpt lat="45.30238" lon="6.18024">
        <ele>1737.8000488281</ele>
        <time>2020-02-16T08:43:24.000Z</time>
      </trkpt>
      <trkpt lat="45.30239" lon="6.18019">
        <ele>1738.8000488281</ele>
        <time>2020-02-16T08:43:30.000Z</time>
      </trkpt>
      <trkpt lat="45.30239" lon="6.18019">
        <ele>1739</ele>
        <time>2020-02-16T08:43:31.000Z</time>
      </trkpt>
      <trkpt lat="45.30239" lon="6.18015">
        <ele>1739.8000488281</ele>
        <time>2020-02-16T08:43:35.000Z</time>
      </trkpt>
      <trkpt lat="45.3024" lon="6.18012">
        <ele>1740.4000244141</ele>
        <time>2020-02-16T08:43:38.000Z</time>
      </trkpt>
      <trkpt lat="45.30241" lon="6.18011">
        <ele>1740.8000488281</ele>
        <time>2020-02-16T08:43:41.000Z</time>
      </trkpt>
      <trkpt lat="45.30242" lon="6.18009">
        <ele>1741.4000244141</ele>
        <time>2020-02-16T08:43:45.000Z</time>
      </trkpt>
      <trkpt lat="45.30245" lon="6.1801">
        <ele>1742</ele>
        <time>2020-02-16T08:43:48.000Z</time>
      </trkpt>
      <trkpt lat="45.30246" lon="6.1801">
        <ele>1742.1999511719</ele>
        <time>2020-02-16T08:43:49.000Z</time>
      </trkpt>
      <trkpt lat="45.30248" lon="6.18013">
        <ele>1743</ele>
        <time>2020-02-16T08:43:52.000Z</time>
      </trkpt>
      <trkpt lat="45.30248" lon="6.18015">
        <ele>1743.1999511719</ele>
        <time>2020-02-16T08:43:54.000Z</time>
      </trkpt>
      <trkpt lat="45.30251" lon="6.18018">
        <ele>1743.8000488281</ele>
        <time>2020-02-16T08:43:59.000Z</time>
      </trkpt>
      <trkpt lat="45.30251" lon="6.18019">
        <ele>1744</ele>
        <time>2020-02-16T08:44:00.000Z</time>
      </trkpt>
      <trkpt lat="45.30253" lon="6.18022">
        <ele>1745</ele>
        <time>2020-02-16T08:44:05.000Z</time>
      </trkpt>
      <trkpt lat="45.30255" lon="6.18024">
        <ele>1746.1999511719</ele>
        <time>2020-02-16T08:44:10.000Z</time>
      </trkpt>
      <trkpt lat="45.30258" lon="6.18025">
        <ele>1747</ele>
        <time>2020-02-16T08:44:15.000Z</time>
      </trkpt>
      <trkpt lat="45.30258" lon="6.18026">
        <ele>1747.4000244141</ele>
        <time>2020-02-16T08:44:16.000Z</time>
      </trkpt>
      <trkpt lat="45.3026" lon="6.18028">
        <ele>1748.4000244141</ele>
        <time>2020-02-16T08:44:20.000Z</time>
      </trkpt>
      <trkpt lat="45.30263" lon="6.18029">
        <ele>1749.1999511719</ele>
        <time>2020-02-16T08:44:24.000Z</time>
      </trkpt>
      <trkpt lat="45.30263" lon="6.18029">
        <ele>1749.4000244141</ele>
        <time>2020-02-16T08:44:25.000Z</time>
      </trkpt>
      <trkpt lat="45.30265" lon="6.18031">
        <ele>1750</ele>
        <time>2020-02-16T08:44:29.000Z</time>
      </trkpt>
      <trkpt lat="45.30266" lon="6.18033">
        <ele>1750.5999755859</ele>
        <time>2020-02-16T08:44:32.000Z</time>
      </trkpt>
      <trkpt lat="45.30269" lon="6.18036">
        <ele>1751.5999755859</ele>
        <time>2020-02-16T08:44:37.000Z</time>
      </trkpt>
      <trkpt lat="45.30272" lon="6.1804">
        <ele>1752.8000488281</ele>
        <time>2020-02-16T08:44:42.000Z</time>
      </trkpt>
      <trkpt lat="45.30273" lon="6.18042">
        <ele>1753.1999511719</ele>
        <time>2020-02-16T08:44:45.000Z</time>
      </trkpt>
      <trkpt lat="45.30274" lon="6.18043">
        <ele>1753.8000488281</ele>
        <time>2020-02-16T08:44:48.000Z</time>
      </trkpt>
      <trkpt lat="45.30276" lon="6.18046">
        <ele>1754.5999755859</ele>
        <time>2020-02-16T08:44:53.000Z</time>
      </trkpt>
      <trkpt lat="45.30277" lon="6.18046">
        <ele>1755</ele>
        <time>2020-02-16T08:44:56.000Z</time>
      </trkpt>
      <trkpt lat="45.30279" lon="6.18047">
        <ele>1755.5999755859</ele>
        <time>2020-02-16T08:44:59.000Z</time>
      </trkpt>
      <trkpt lat="45.3028" lon="6.18047">
        <ele>1756</ele>
        <time>2020-02-16T08:45:01.000Z</time>
      </trkpt>
      <trkpt lat="45.3028" lon="6.18044">
        <ele>1756.8000488281</ele>
        <time>2020-02-16T08:45:05.000Z</time>
      </trkpt>
      <trkpt lat="45.30281" lon="6.18042">
        <ele>1757</ele>
        <time>2020-02-16T08:45:06.000Z</time>
      </trkpt>
      <trkpt lat="45.30281" lon="6.18039">
        <ele>1757.8000488281</ele>
        <time>2020-02-16T08:45:10.000Z</time>
      </trkpt>
      <trkpt lat="45.30282" lon="6.18037">
        <ele>1758</ele>
        <time>2020-02-16T08:45:12.000Z</time>
      </trkpt>
      <trkpt lat="45.30283" lon="6.18035">
        <ele>1758.8000488281</ele>
        <time>2020-02-16T08:45:17.000Z</time>
      </trkpt>
      <trkpt lat="45.30283" lon="6.18033">
        <ele>1759.1999511719</ele>
        <time>2020-02-16T08:45:19.000Z</time>
      </trkpt>
      <trkpt lat="45.30285" lon="6.18029">
        <ele>1760</ele>
        <time>2020-02-16T08:45:24.000Z</time>
      </trkpt>
      <trkpt lat="45.30285" lon="6.18028">
        <ele>1760.1999511719</ele>
        <time>2020-02-16T08:45:25.000Z</time>
      </trkpt>
      <trkpt lat="45.30288" lon="6.18025">
        <ele>1761.1999511719</ele>
        <time>2020-02-16T08:45:30.000Z</time>
      </trkpt>
      <trkpt lat="45.30288" lon="6.18025">
        <ele>1761.4000244141</ele>
        <time>2020-02-16T08:45:31.000Z</time>
      </trkpt>
      <trkpt lat="45.3029" lon="6.18021">
        <ele>1762.5999755859</ele>
        <time>2020-02-16T08:45:35.000Z</time>
      </trkpt>
      <trkpt lat="45.30291" lon="6.18019">
        <ele>1763</ele>
        <time>2020-02-16T08:45:38.000Z</time>
      </trkpt>
      <trkpt lat="45.30292" lon="6.18015">
        <ele>1763.5999755859</ele>
        <time>2020-02-16T08:45:42.000Z</time>
      </trkpt>
      <trkpt lat="45.30293" lon="6.18013">
        <ele>1764.1999511719</ele>
        <time>2020-02-16T08:45:45.000Z</time>
      </trkpt>
      <trkpt lat="45.30292" lon="6.18011">
        <ele>1764.8000488281</ele>
        <time>2020-02-16T08:45:48.000Z</time>
      </trkpt>
      <trkpt lat="45.30293" lon="6.18008">
        <ele>1765.8000488281</ele>
        <time>2020-02-16T08:45:53.000Z</time>
      </trkpt>
      <trkpt lat="45.30292" lon="6.18004">
        <ele>1766.8000488281</ele>
        <time>2020-02-16T08:45:58.000Z</time>
      </trkpt>
      <trkpt lat="45.30292" lon="6.18003">
        <ele>1767</ele>
        <time>2020-02-16T08:45:59.000Z</time>
      </trkpt>
      <trkpt lat="45.30293" lon="6.17999">
        <ele>1767.8000488281</ele>
        <time>2020-02-16T08:46:03.000Z</time>
      </trkpt>
      <trkpt lat="45.30294" lon="6.17996">
        <ele>1768.4000244141</ele>
        <time>2020-02-16T08:46:06.000Z</time>
      </trkpt>
      <trkpt lat="45.30295" lon="6.17994">
        <ele>1768.8000488281</ele>
        <time>2020-02-16T08:46:09.000Z</time>
      </trkpt>
      <trkpt lat="45.30298" lon="6.17992">
        <ele>1769.4000244141</ele>
        <time>2020-02-16T08:46:13.000Z</time>
      </trkpt>
      <trkpt lat="45.30298" lon="6.17989">
        <ele>1770</ele>
        <time>2020-02-16T08:46:17.000Z</time>
      </trkpt>
      <trkpt lat="45.30297" lon="6.17987">
        <ele>1770.5999755859</ele>
        <time>2020-02-16T08:46:20.000Z</time>
      </trkpt>
      <trkpt lat="45.30298" lon="6.17986">
        <ele>1771.1999511719</ele>
        <time>2020-02-16T08:46:22.000Z</time>
      </trkpt>
      <trkpt lat="45.30299" lon="6.17984">
        <ele>1772.1999511719</ele>
        <time>2020-02-16T08:46:26.000Z</time>
      </trkpt>
      <trkpt lat="45.30299" lon="6.17983">
        <ele>1772.1999511719</ele>
        <time>2020-02-16T08:46:27.000Z</time>
      </trkpt>
      <trkpt lat="45.30301" lon="6.17977">
        <ele>1773.4000244141</ele>
        <time>2020-02-16T08:46:33.000Z</time>
      </trkpt>
      <trkpt lat="45.30301" lon="6.17976">
        <ele>1773.5999755859</ele>
        <time>2020-02-16T08:46:34.000Z</time>
      </trkpt>
      <trkpt lat="45.30303" lon="6.17973">
        <ele>1774.4000244141</ele>
        <time>2020-02-16T08:46:38.000Z</time>
      </trkpt>
      <trkpt lat="45.30302" lon="6.17971">
        <ele>1775.1999511719</ele>
        <time>2020-02-16T08:46:41.000Z</time>
      </trkpt>
      <trkpt lat="45.30304" lon="6.17969">
        <ele>1775.5999755859</ele>
        <time>2020-02-16T08:46:44.000Z</time>
      </trkpt>
      <trkpt lat="45.30304" lon="6.17966">
        <ele>1776.1999511719</ele>
        <time>2020-02-16T08:46:47.000Z</time>
      </trkpt>
      <trkpt lat="45.30304" lon="6.17965">
        <ele>1776.8000488281</ele>
        <time>2020-02-16T08:46:49.000Z</time>
      </trkpt>
      <trkpt lat="45.30305" lon="6.17961">
        <ele>1777.5999755859</ele>
        <time>2020-02-16T08:46:53.000Z</time>
      </trkpt>
      <trkpt lat="45.30306" lon="6.17959">
        <ele>1777.8000488281</ele>
        <time>2020-02-16T08:46:55.000Z</time>
      </trkpt>
      <trkpt lat="45.30308" lon="6.17956">
        <ele>1778.8000488281</ele>
        <time>2020-02-16T08:47:01.000Z</time>
      </trkpt>
      <trkpt lat="45.30307" lon="6.17954">
        <ele>1779</ele>
        <time>2020-02-16T08:47:02.000Z</time>
      </trkpt>
      <trkpt lat="45.30308" lon="6.17951">
        <ele>1779.8000488281</ele>
        <time>2020-02-16T08:47:07.000Z</time>
      </trkpt>
      <trkpt lat="45.30308" lon="6.17949">
        <ele>1780.1999511719</ele>
        <time>2020-02-16T08:47:09.000Z</time>
      </trkpt>
      <trkpt lat="45.30309" lon="6.17945">
        <ele>1781.1999511719</ele>
        <time>2020-02-16T08:47:14.000Z</time>
      </trkpt>
      <trkpt lat="45.30309" lon="6.1794">
        <ele>1782.4000244141</ele>
        <time>2020-02-16T08:47:19.000Z</time>
      </trkpt>
      <trkpt lat="45.30308" lon="6.17938">
        <ele>1782.4000244141</ele>
        <time>2020-02-16T08:47:20.000Z</time>
      </trkpt>
      <trkpt lat="45.30311" lon="6.17933">
        <ele>1783.4000244141</ele>
        <time>2020-02-16T08:47:26.000Z</time>
      </trkpt>
      <trkpt lat="45.30313" lon="6.17928">
        <ele>1784.4000244141</ele>
        <time>2020-02-16T08:47:32.000Z</time>
      </trkpt>
      <trkpt lat="45.30313" lon="6.17926">
        <ele>1784.8000488281</ele>
        <time>2020-02-16T08:47:34.000Z</time>
      </trkpt>
      <trkpt lat="45.30313" lon="6.17923">
        <ele>1785.5999755859</ele>
        <time>2020-02-16T08:47:37.000Z</time>
      </trkpt>
      <trkpt lat="45.30315" lon="6.1792">
        <ele>1786.5999755859</ele>
        <time>2020-02-16T08:47:42.000Z</time>
      </trkpt>
      <trkpt lat="45.30316" lon="6.17919">
        <ele>1786.8000488281</ele>
        <time>2020-02-16T08:47:43.000Z</time>
      </trkpt>
      <trkpt lat="45.30317" lon="6.17915">
        <ele>1787.5999755859</ele>
        <time>2020-02-16T08:47:49.000Z</time>
      </trkpt>
      <trkpt lat="45.30317" lon="6.17915">
        <ele>1787.8000488281</ele>
        <time>2020-02-16T08:47:50.000Z</time>
      </trkpt>
      <trkpt lat="45.30317" lon="6.1791">
        <ele>1789</ele>
        <time>2020-02-16T08:47:55.000Z</time>
      </trkpt>
      <trkpt lat="45.30316" lon="6.17906">
        <ele>1790</ele>
        <time>2020-02-16T08:48:00.000Z</time>
      </trkpt>
      <trkpt lat="45.30316" lon="6.17906">
        <ele>1790.1999511719</ele>
        <time>2020-02-16T08:48:01.000Z</time>
      </trkpt>
      <trkpt lat="45.30318" lon="6.17903">
        <ele>1791</ele>
        <time>2020-02-16T08:48:06.000Z</time>
      </trkpt>
      <trkpt lat="45.30315" lon="6.17896">
        <ele>1791.8000488281</ele>
        <time>2020-02-16T08:48:12.000Z</time>
      </trkpt>
      <trkpt lat="45.30315" lon="6.17896">
        <ele>1792.1999511719</ele>
        <time>2020-02-16T08:48:13.000Z</time>
      </trkpt>
      <trkpt lat="45.30317" lon="6.17893">
        <ele>1793.1999511719</ele>
        <time>2020-02-16T08:48:19.000Z</time>
      </trkpt>
      <trkpt lat="45.30321" lon="6.17894">
        <ele>1794.1999511719</ele>
        <time>2020-02-16T08:48:23.000Z</time>
      </trkpt>
      <trkpt lat="45.30322" lon="6.17894">
        <ele>1794.5999755859</ele>
        <time>2020-02-16T08:48:24.000Z</time>
      </trkpt>
      <trkpt lat="45.30325" lon="6.17895">
        <ele>1795.1999511719</ele>
        <time>2020-02-16T08:48:27.000Z</time>
      </trkpt>
      <trkpt lat="45.30328" lon="6.17896">
        <ele>1796</ele>
        <time>2020-02-16T08:48:31.000Z</time>
      </trkpt>
      <trkpt lat="45.30331" lon="6.17897">
        <ele>1796.4000244141</ele>
        <time>2020-02-16T08:48:35.000Z</time>
      </trkpt>
      <trkpt lat="45.30332" lon="6.17897">
        <ele>1796.5999755859</ele>
        <time>2020-02-16T08:48:37.000Z</time>
      </trkpt>
      <trkpt lat="45.30334" lon="6.17898">
        <ele>1797.4000244141</ele>
        <time>2020-02-16T08:48:41.000Z</time>
      </trkpt>
      <trkpt lat="45.30335" lon="6.17898">
        <ele>1797.5999755859</ele>
        <time>2020-02-16T08:48:42.000Z</time>
      </trkpt>
      <trkpt lat="45.30338" lon="6.179">
        <ele>1798.1999511719</ele>
        <time>2020-02-16T08:48:46.000Z</time>
      </trkpt>
      <trkpt lat="45.30339" lon="6.179">
        <ele>1798.8000488281</ele>
        <time>2020-02-16T08:48:48.000Z</time>
      </trkpt>
      <trkpt lat="45.3034" lon="6.179">
        <ele>1799.1999511719</ele>
        <time>2020-02-16T08:48:50.000Z</time>
      </trkpt>
      <trkpt lat="45.30341" lon="6.179">
        <ele>1799.8000488281</ele>
        <time>2020-02-16T08:48:52.000Z</time>
      </trkpt>
      <trkpt lat="45.30343" lon="6.17901">
        <ele>1800.4000244141</ele>
        <time>2020-02-16T08:48:55.000Z</time>
      </trkpt>
      <trkpt lat="45.30344" lon="6.17903">
        <ele>1800.8000488281</ele>
        <time>2020-02-16T08:48:57.000Z</time>
      </trkpt>
      <trkpt lat="45.30346" lon="6.17903">
        <ele>1801.4000244141</ele>
        <time>2020-02-16T08:49:00.000Z</time>
      </trkpt>
      <trkpt lat="45.30348" lon="6.17904">
        <ele>1802</ele>
        <time>2020-02-16T08:49:04.000Z</time>
      </trkpt>
      <trkpt lat="45.30348" lon="6.17904">
        <ele>1802.4000244141</ele>
        <time>2020-02-16T08:49:06.000Z</time>
      </trkpt>
      <trkpt lat="45.30348" lon="6.17904">
        <ele>1803</ele>
        <time>2020-02-16T08:49:10.000Z</time>
      </trkpt>
      <trkpt lat="45.3035" lon="6.17904">
        <ele>1803</ele>
        <time>2020-02-16T08:49:18.000Z</time>
      </trkpt>
      <trkpt lat="45.30355" lon="6.17906">
        <ele>1803.5999755859</ele>
        <time>2020-02-16T08:49:23.000Z</time>
      </trkpt>
      <trkpt lat="45.30356" lon="6.17906">
        <ele>1804</ele>
        <time>2020-02-16T08:49:26.000Z</time>
      </trkpt>
      <trkpt lat="45.30358" lon="6.17908">
        <ele>1804.5999755859</ele>
        <time>2020-02-16T08:49:28.000Z</time>
      </trkpt>
      <trkpt lat="45.30359" lon="6.17908">
        <ele>1805.1999511719</ele>
        <time>2020-02-16T08:49:30.000Z</time>
      </trkpt>
      <trkpt lat="45.30362" lon="6.1791">
        <ele>1806</ele>
        <time>2020-02-16T08:49:33.000Z</time>
      </trkpt>
      <trkpt lat="45.30362" lon="6.1791">
        <ele>1806.1999511719</ele>
        <time>2020-02-16T08:49:34.000Z</time>
      </trkpt>
      <trkpt lat="45.30365" lon="6.17911">
        <ele>1807</ele>
        <time>2020-02-16T08:49:38.000Z</time>
      </trkpt>
      <trkpt lat="45.30366" lon="6.17911">
        <ele>1807.1999511719</ele>
        <time>2020-02-16T08:49:39.000Z</time>
      </trkpt>
      <trkpt lat="45.30366" lon="6.1791">
        <ele>1807.4000244141</ele>
        <time>2020-02-16T08:49:40.000Z</time>
      </trkpt>
      <trkpt lat="45.30369" lon="6.17908">
        <ele>1808.1999511719</ele>
        <time>2020-02-16T08:49:44.000Z</time>
      </trkpt>
      <trkpt lat="45.3037" lon="6.17907">
        <ele>1808.5999755859</ele>
        <time>2020-02-16T08:49:46.000Z</time>
      </trkpt>
      <trkpt lat="45.30373" lon="6.17903">
        <ele>1809.4000244141</ele>
        <time>2020-02-16T08:49:51.000Z</time>
      </trkpt>
      <trkpt lat="45.30373" lon="6.17902">
        <ele>1809.5999755859</ele>
        <time>2020-02-16T08:49:52.000Z</time>
      </trkpt>
      <trkpt lat="45.30375" lon="6.17898">
        <ele>1810.1999511719</ele>
        <time>2020-02-16T08:49:57.000Z</time>
      </trkpt>
      <trkpt lat="45.30377" lon="6.17897">
        <ele>1810.8000488281</ele>
        <time>2020-02-16T08:49:59.000Z</time>
      </trkpt>
      <trkpt lat="45.30378" lon="6.17894">
        <ele>1812</ele>
        <time>2020-02-16T08:50:03.000Z</time>
      </trkpt>
      <trkpt lat="45.30381" lon="6.17891">
        <ele>1813</ele>
        <time>2020-02-16T08:50:08.000Z</time>
      </trkpt>
      <trkpt lat="45.30381" lon="6.1789">
        <ele>1813.1999511719</ele>
        <time>2020-02-16T08:50:09.000Z</time>
      </trkpt>
      <trkpt lat="45.30384" lon="6.17887">
        <ele>1814</ele>
        <time>2020-02-16T08:50:14.000Z</time>
      </trkpt>
      <trkpt lat="45.30384" lon="6.17887">
        <ele>1814</ele>
        <time>2020-02-16T08:50:15.000Z</time>
      </trkpt>
      <trkpt lat="45.30387" lon="6.17886">
        <ele>1814.8000488281</ele>
        <time>2020-02-16T08:50:19.000Z</time>
      </trkpt>
      <trkpt lat="45.30388" lon="6.17886">
        <ele>1815.1999511719</ele>
        <time>2020-02-16T08:50:21.000Z</time>
      </trkpt>
      <trkpt lat="45.30389" lon="6.17886">
        <ele>1815.5999755859</ele>
        <time>2020-02-16T08:50:23.000Z</time>
      </trkpt>
      <trkpt lat="45.3039" lon="6.17886">
        <ele>1816.4000244141</ele>
        <time>2020-02-16T08:50:25.000Z</time>
      </trkpt>
      <trkpt lat="45.30392" lon="6.17885">
        <ele>1817.1999511719</ele>
        <time>2020-02-16T08:50:30.000Z</time>
      </trkpt>
      <trkpt lat="45.30394" lon="6.17886">
        <ele>1817.5999755859</ele>
        <time>2020-02-16T08:50:32.000Z</time>
      </trkpt>
      <trkpt lat="45.30397" lon="6.17886">
        <ele>1818.4000244141</ele>
        <time>2020-02-16T08:50:36.000Z</time>
      </trkpt>
      <trkpt lat="45.30397" lon="6.17886">
        <ele>1818.5999755859</ele>
        <time>2020-02-16T08:50:37.000Z</time>
      </trkpt>
      <trkpt lat="45.30399" lon="6.17885">
        <ele>1819.5999755859</ele>
        <time>2020-02-16T08:50:41.000Z</time>
      </trkpt>
      <trkpt lat="45.304" lon="6.17884">
        <ele>1820</ele>
        <time>2020-02-16T08:50:43.000Z</time>
      </trkpt>
      <trkpt lat="45.30403" lon="6.17884">
        <ele>1820.8000488281</ele>
        <time>2020-02-16T08:50:48.000Z</time>
      </trkpt>
      <trkpt lat="45.30404" lon="6.17884">
        <ele>1821.5999755859</ele>
        <time>2020-02-16T08:50:52.000Z</time>
      </trkpt>
      <trkpt lat="45.30405" lon="6.17884">
        <ele>1822</ele>
        <time>2020-02-16T08:50:54.000Z</time>
      </trkpt>
      <trkpt lat="45.30407" lon="6.17886">
        <ele>1822.5999755859</ele>
        <time>2020-02-16T08:50:57.000Z</time>
      </trkpt>
      <trkpt lat="45.30409" lon="6.17888">
        <ele>1823</ele>
        <time>2020-02-16T08:51:00.000Z</time>
      </trkpt>
      <trkpt lat="45.3041" lon="6.17889">
        <ele>1823.5999755859</ele>
        <time>2020-02-16T08:51:04.000Z</time>
      </trkpt>
      <trkpt lat="45.30411" lon="6.1789">
        <ele>1824</ele>
        <time>2020-02-16T08:51:06.000Z</time>
      </trkpt>
      <trkpt lat="45.30412" lon="6.17891">
        <ele>1824.8000488281</ele>
        <time>2020-02-16T08:51:09.000Z</time>
      </trkpt>
      <trkpt lat="45.30412" lon="6.17891">
        <ele>1825.1999511719</ele>
        <time>2020-02-16T08:51:11.000Z</time>
      </trkpt>
      <trkpt lat="45.30414" lon="6.17894">
        <ele>1825.4000244141</ele>
        <time>2020-02-16T08:51:18.000Z</time>
      </trkpt>
      <trkpt lat="45.30415" lon="6.1789">
        <ele>1826</ele>
        <time>2020-02-16T08:51:25.000Z</time>
      </trkpt>
      <trkpt lat="45.30415" lon="6.17886">
        <ele>1826</ele>
        <time>2020-02-16T08:51:29.000Z</time>
      </trkpt>
      <trkpt lat="45.30415" lon="6.17884">
        <ele>1826.4000244141</ele>
        <time>2020-02-16T08:51:31.000Z</time>
      </trkpt>
      <trkpt lat="45.30414" lon="6.17882">
        <ele>1826.8000488281</ele>
        <time>2020-02-16T08:51:33.000Z</time>
      </trkpt>
      <trkpt lat="45.30413" lon="6.17879">
        <ele>1827.5999755859</ele>
        <time>2020-02-16T08:51:37.000Z</time>
      </trkpt>
      <trkpt lat="45.30414" lon="6.17875">
        <ele>1828</ele>
        <time>2020-02-16T08:51:40.000Z</time>
      </trkpt>
      <trkpt lat="45.30413" lon="6.17872">
        <ele>1828.8000488281</ele>
        <time>2020-02-16T08:51:43.000Z</time>
      </trkpt>
      <trkpt lat="45.30413" lon="6.17869">
        <ele>1829.1999511719</ele>
        <time>2020-02-16T08:51:46.000Z</time>
      </trkpt>
      <trkpt lat="45.30413" lon="6.17864">
        <ele>1829.8000488281</ele>
        <time>2020-02-16T08:51:50.000Z</time>
      </trkpt>
      <trkpt lat="45.30413" lon="6.17863">
        <ele>1830</ele>
        <time>2020-02-16T08:51:52.000Z</time>
      </trkpt>
      <trkpt lat="45.30413" lon="6.17861">
        <ele>1831</ele>
        <time>2020-02-16T08:51:56.000Z</time>
      </trkpt>
      <trkpt lat="45.30414" lon="6.1786">
        <ele>1831.4000244141</ele>
        <time>2020-02-16T08:51:58.000Z</time>
      </trkpt>
      <trkpt lat="45.30414" lon="6.17858">
        <ele>1832.1999511719</ele>
        <time>2020-02-16T08:52:00.000Z</time>
      </trkpt>
      <trkpt lat="45.30414" lon="6.17856">
        <ele>1832.8000488281</ele>
        <time>2020-02-16T08:52:03.000Z</time>
      </trkpt>
      <trkpt lat="45.30415" lon="6.17853">
        <ele>1833.4000244141</ele>
        <time>2020-02-16T08:52:06.000Z</time>
      </trkpt>
      <trkpt lat="45.30415" lon="6.17851">
        <ele>1833.4000244141</ele>
        <time>2020-02-16T08:52:07.000Z</time>
      </trkpt>
      <trkpt lat="45.30415" lon="6.17845">
        <ele>1834</ele>
        <time>2020-02-16T08:52:12.000Z</time>
      </trkpt>
      <trkpt lat="45.30414" lon="6.17844">
        <ele>1834.4000244141</ele>
        <time>2020-02-16T08:52:14.000Z</time>
      </trkpt>
      <trkpt lat="45.30411" lon="6.17841">
        <ele>1835</ele>
        <time>2020-02-16T08:52:17.000Z</time>
      </trkpt>
      <trkpt lat="45.30408" lon="6.17837">
        <ele>1835.4000244141</ele>
        <time>2020-02-16T08:52:22.000Z</time>
      </trkpt>
      <trkpt lat="45.30408" lon="6.17837">
        <ele>1835.5999755859</ele>
        <time>2020-02-16T08:52:23.000Z</time>
      </trkpt>
      <trkpt lat="45.30408" lon="6.17836">
        <ele>1836.5999755859</ele>
        <time>2020-02-16T08:52:28.000Z</time>
      </trkpt>
      <trkpt lat="45.30407" lon="6.17836">
        <ele>1836.4000244141</ele>
        <time>2020-02-16T08:52:30.000Z</time>
      </trkpt>
      <trkpt lat="45.30409" lon="6.17836">
        <ele>1837.1999511719</ele>
        <time>2020-02-16T08:52:35.000Z</time>
      </trkpt>
      <trkpt lat="45.30409" lon="6.17836">
        <ele>1837.5999755859</ele>
        <time>2020-02-16T08:52:36.000Z</time>
      </trkpt>
      <trkpt lat="45.30412" lon="6.17834">
        <ele>1838</ele>
        <time>2020-02-16T08:52:40.000Z</time>
      </trkpt>
      <trkpt lat="45.30415" lon="6.17833">
        <ele>1838.5999755859</ele>
        <time>2020-02-16T08:52:44.000Z</time>
      </trkpt>
      <trkpt lat="45.30417" lon="6.17833">
        <ele>1839</ele>
        <time>2020-02-16T08:52:46.000Z</time>
      </trkpt>
      <trkpt lat="45.30418" lon="6.17832">
        <ele>1839.8000488281</ele>
        <time>2020-02-16T08:52:49.000Z</time>
      </trkpt>
      <trkpt lat="45.30419" lon="6.17832">
        <ele>1840.1999511719</ele>
        <time>2020-02-16T08:52:51.000Z</time>
      </trkpt>
      <trkpt lat="45.30423" lon="6.17832">
        <ele>1840.8000488281</ele>
        <time>2020-02-16T08:52:55.000Z</time>
      </trkpt>
      <trkpt lat="45.30424" lon="6.17832">
        <ele>1841</ele>
        <time>2020-02-16T08:52:56.000Z</time>
      </trkpt>
      <trkpt lat="45.30425" lon="6.17832">
        <ele>1841.8000488281</ele>
        <time>2020-02-16T08:53:01.000Z</time>
      </trkpt>
      <trkpt lat="45.30426" lon="6.17833">
        <ele>1842</ele>
        <time>2020-02-16T08:53:02.000Z</time>
      </trkpt>
      <trkpt lat="45.30428" lon="6.17836">
        <ele>1842.5999755859</ele>
        <time>2020-02-16T08:53:07.000Z</time>
      </trkpt>
      <trkpt lat="45.30428" lon="6.17836">
        <ele>1843</ele>
        <time>2020-02-16T08:53:09.000Z</time>
      </trkpt>
      <trkpt lat="45.30428" lon="6.17836">
        <ele>1843.8000488281</ele>
        <time>2020-02-16T08:53:14.000Z</time>
      </trkpt>
      <trkpt lat="45.3043" lon="6.17839">
        <ele>1844</ele>
        <time>2020-02-16T08:53:19.000Z</time>
      </trkpt>
      <trkpt lat="45.30431" lon="6.17839">
        <ele>1844.8000488281</ele>
        <time>2020-02-16T08:53:25.000Z</time>
      </trkpt>
      <trkpt lat="45.30432" lon="6.17836">
        <ele>1845</ele>
        <time>2020-02-16T08:53:28.000Z</time>
      </trkpt>
      <trkpt lat="45.30432" lon="6.17836">
        <ele>1845</ele>
        <time>2020-02-16T08:53:29.000Z</time>
      </trkpt>
      <trkpt lat="45.30432" lon="6.17831">
        <ele>1845.4000244141</ele>
        <time>2020-02-16T08:53:34.000Z</time>
      </trkpt>
      <trkpt lat="45.30432" lon="6.17829">
        <ele>1846</ele>
        <time>2020-02-16T08:53:36.000Z</time>
      </trkpt>
      <trkpt lat="45.30434" lon="6.17826">
        <ele>1846.8000488281</ele>
        <time>2020-02-16T08:53:41.000Z</time>
      </trkpt>
      <trkpt lat="45.30434" lon="6.17824">
        <ele>1847.1999511719</ele>
        <time>2020-02-16T08:53:43.000Z</time>
      </trkpt>
      <trkpt lat="45.30434" lon="6.17821">
        <ele>1848</ele>
        <time>2020-02-16T08:53:47.000Z</time>
      </trkpt>
      <trkpt lat="45.30434" lon="6.1782">
        <ele>1848.1999511719</ele>
        <time>2020-02-16T08:53:48.000Z</time>
      </trkpt>
      <trkpt lat="45.30434" lon="6.17818">
        <ele>1849</ele>
        <time>2020-02-16T08:53:52.000Z</time>
      </trkpt>
      <trkpt lat="45.30434" lon="6.17816">
        <ele>1849.1999511719</ele>
        <time>2020-02-16T08:53:54.000Z</time>
      </trkpt>
      <trkpt lat="45.30433" lon="6.17811">
        <ele>1850</ele>
        <time>2020-02-16T08:53:58.000Z</time>
      </trkpt>
      <trkpt lat="45.30434" lon="6.17809">
        <ele>1850.5999755859</ele>
        <time>2020-02-16T08:54:00.000Z</time>
      </trkpt>
      <trkpt lat="45.30433" lon="6.17806">
        <ele>1851.1999511719</ele>
        <time>2020-02-16T08:54:04.000Z</time>
      </trkpt>
      <trkpt lat="45.30433" lon="6.17806">
        <ele>1851.5999755859</ele>
        <time>2020-02-16T08:54:06.000Z</time>
      </trkpt>
      <trkpt lat="45.30433" lon="6.17802">
        <ele>1852.4000244141</ele>
        <time>2020-02-16T08:54:11.000Z</time>
      </trkpt>
      <trkpt lat="45.30433" lon="6.17802">
        <ele>1852.5999755859</ele>
        <time>2020-02-16T08:54:12.000Z</time>
      </trkpt>
      <trkpt lat="45.30433" lon="6.17799">
        <ele>1853.4000244141</ele>
        <time>2020-02-16T08:54:16.000Z</time>
      </trkpt>
      <trkpt lat="45.30433" lon="6.17798">
        <ele>1853.8000488281</ele>
        <time>2020-02-16T08:54:19.000Z</time>
      </trkpt>
      <trkpt lat="45.30433" lon="6.17796">
        <ele>1854</ele>
        <time>2020-02-16T08:54:20.000Z</time>
      </trkpt>
      <trkpt lat="45.30432" lon="6.17792">
        <ele>1855</ele>
        <time>2020-02-16T08:54:24.000Z</time>
      </trkpt>
      <trkpt lat="45.30431" lon="6.17792">
        <ele>1855.1999511719</ele>
        <time>2020-02-16T08:54:25.000Z</time>
      </trkpt>
      <trkpt lat="45.3043" lon="6.17788">
        <ele>1856</ele>
        <time>2020-02-16T08:54:28.000Z</time>
      </trkpt>
      <trkpt lat="45.30429" lon="6.17788">
        <ele>1856.4000244141</ele>
        <time>2020-02-16T08:54:30.000Z</time>
      </trkpt>
      <trkpt lat="45.3043" lon="6.17787">
        <ele>1857</ele>
        <time>2020-02-16T08:54:34.000Z</time>
      </trkpt>
      <trkpt lat="45.3043" lon="6.17786">
        <ele>1857.5999755859</ele>
        <time>2020-02-16T08:54:37.000Z</time>
      </trkpt>
      <trkpt lat="45.30433" lon="6.17785">
        <ele>1858.1999511719</ele>
        <time>2020-02-16T08:54:41.000Z</time>
      </trkpt>
      <trkpt lat="45.30434" lon="6.17783">
        <ele>1858.5999755859</ele>
        <time>2020-02-16T08:54:43.000Z</time>
      </trkpt>
      <trkpt lat="45.30435" lon="6.17782">
        <ele>1859.4000244141</ele>
        <time>2020-02-16T08:54:46.000Z</time>
      </trkpt>
      <trkpt lat="45.30435" lon="6.17782">
        <ele>1860.5999755859</ele>
        <time>2020-02-16T08:54:49.000Z</time>
      </trkpt>
      <trkpt lat="45.30436" lon="6.17782">
        <ele>1860.5999755859</ele>
        <time>2020-02-16T08:54:50.000Z</time>
      </trkpt>
      <trkpt lat="45.3044" lon="6.17782">
        <ele>1861.4000244141</ele>
        <time>2020-02-16T08:54:57.000Z</time>
      </trkpt>
      <trkpt lat="45.30441" lon="6.17782">
        <ele>1861.5999755859</ele>
        <time>2020-02-16T08:54:59.000Z</time>
      </trkpt>
      <trkpt lat="45.30443" lon="6.1778">
        <ele>1861.8000488281</ele>
        <time>2020-02-16T08:55:02.000Z</time>
      </trkpt>
      <trkpt lat="45.30442" lon="6.17775">
        <ele>1862.5999755859</ele>
        <time>2020-02-16T08:55:06.000Z</time>
      </trkpt>
      <trkpt lat="45.30443" lon="6.17772">
        <ele>1863.1999511719</ele>
        <time>2020-02-16T08:55:10.000Z</time>
      </trkpt>
      <trkpt lat="45.30442" lon="6.1777">
        <ele>1863.8000488281</ele>
        <time>2020-02-16T08:55:13.000Z</time>
      </trkpt>
      <trkpt lat="45.30442" lon="6.17769">
        <ele>1864</ele>
        <time>2020-02-16T08:55:14.000Z</time>
      </trkpt>
      <trkpt lat="45.30442" lon="6.17767">
        <ele>1865</ele>
        <time>2020-02-16T08:55:18.000Z</time>
      </trkpt>
      <trkpt lat="45.30441" lon="6.17765">
        <ele>1865.8000488281</ele>
        <time>2020-02-16T08:55:22.000Z</time>
      </trkpt>
      <trkpt lat="45.30441" lon="6.17763">
        <ele>1866</ele>
        <time>2020-02-16T08:55:23.000Z</time>
      </trkpt>
      <trkpt lat="45.30441" lon="6.17759">
        <ele>1867.1999511719</ele>
        <time>2020-02-16T08:55:29.000Z</time>
      </trkpt>
      <trkpt lat="45.30441" lon="6.17759">
        <ele>1867.4000244141</ele>
        <time>2020-02-16T08:55:30.000Z</time>
      </trkpt>
      <trkpt lat="45.30445" lon="6.17755">
        <ele>1868</ele>
        <time>2020-02-16T08:55:36.000Z</time>
      </trkpt>
      <trkpt lat="45.30445" lon="6.17755">
        <ele>1868.1999511719</ele>
        <time>2020-02-16T08:55:37.000Z</time>
      </trkpt>
      <trkpt lat="45.3045" lon="6.17752">
        <ele>1869.4000244141</ele>
        <time>2020-02-16T08:55:42.000Z</time>
      </trkpt>
      <trkpt lat="45.30453" lon="6.17749">
        <ele>1870.4000244141</ele>
        <time>2020-02-16T08:55:48.000Z</time>
      </trkpt>
      <trkpt lat="45.30453" lon="6.17749">
        <ele>1870.4000244141</ele>
        <time>2020-02-16T08:55:49.000Z</time>
      </trkpt>
      <trkpt lat="45.30455" lon="6.17749">
        <ele>1871.1999511719</ele>
        <time>2020-02-16T08:55:54.000Z</time>
      </trkpt>
      <trkpt lat="45.30456" lon="6.17748">
        <ele>1871.4000244141</ele>
        <time>2020-02-16T08:55:55.000Z</time>
      </trkpt>
      <trkpt lat="45.30459" lon="6.17747">
        <ele>1872</ele>
        <time>2020-02-16T08:56:00.000Z</time>
      </trkpt>
      <trkpt lat="45.30461" lon="6.17747">
        <ele>1872.5999755859</ele>
        <time>2020-02-16T08:56:02.000Z</time>
      </trkpt>
      <trkpt lat="45.30462" lon="6.17747">
        <ele>1872.8000488281</ele>
        <time>2020-02-16T08:56:04.000Z</time>
      </trkpt>
      <trkpt lat="45.30464" lon="6.17747">
        <ele>1873.8000488281</ele>
        <time>2020-02-16T08:56:08.000Z</time>
      </trkpt>
      <trkpt lat="45.30465" lon="6.17747">
        <ele>1874.4000244141</ele>
        <time>2020-02-16T08:56:12.000Z</time>
      </trkpt>
      <trkpt lat="45.30467" lon="6.17748">
        <ele>1874.8000488281</ele>
        <time>2020-02-16T08:56:14.000Z</time>
      </trkpt>
      <trkpt lat="45.30469" lon="6.17748">
        <ele>1875.1999511719</ele>
        <time>2020-02-16T08:56:17.000Z</time>
      </trkpt>
      <trkpt lat="45.30473" lon="6.17749">
        <ele>1875.8000488281</ele>
        <time>2020-02-16T08:56:21.000Z</time>
      </trkpt>
      <trkpt lat="45.30475" lon="6.17751">
        <ele>1876.1999511719</ele>
        <time>2020-02-16T08:56:24.000Z</time>
      </trkpt>
      <trkpt lat="45.30475" lon="6.17752">
        <ele>1876.8000488281</ele>
        <time>2020-02-16T08:56:26.000Z</time>
      </trkpt>
      <trkpt lat="45.30476" lon="6.17753">
        <ele>1877.1999511719</ele>
        <time>2020-02-16T08:56:29.000Z</time>
      </trkpt>
      <trkpt lat="45.30478" lon="6.17753">
        <ele>1878</ele>
        <time>2020-02-16T08:56:34.000Z</time>
      </trkpt>
      <trkpt lat="45.3048" lon="6.17754">
        <ele>1878.8000488281</ele>
        <time>2020-02-16T08:56:39.000Z</time>
      </trkpt>
      <trkpt lat="45.30481" lon="6.17754">
        <ele>1879</ele>
        <time>2020-02-16T08:56:40.000Z</time>
      </trkpt>
      <trkpt lat="45.30484" lon="6.17756">
        <ele>1880</ele>
        <time>2020-02-16T08:56:45.000Z</time>
      </trkpt>
      <trkpt lat="45.30485" lon="6.17756">
        <ele>1881.1999511719</ele>
        <time>2020-02-16T08:56:50.000Z</time>
      </trkpt>
      <trkpt lat="45.30488" lon="6.17755">
        <ele>1881.5999755859</ele>
        <time>2020-02-16T08:56:56.000Z</time>
      </trkpt>
      <trkpt lat="45.30488" lon="6.17753">
        <ele>1882.4000244141</ele>
        <time>2020-02-16T08:56:58.000Z</time>
      </trkpt>
      <trkpt lat="45.30489" lon="6.17749">
        <ele>1883</ele>
        <time>2020-02-16T08:57:02.000Z</time>
      </trkpt>
      <trkpt lat="45.30489" lon="6.17749">
        <ele>1883.4000244141</ele>
        <time>2020-02-16T08:57:04.000Z</time>
      </trkpt>
      <trkpt lat="45.30488" lon="6.17748">
        <ele>1884</ele>
        <time>2020-02-16T08:57:07.000Z</time>
      </trkpt>
      <trkpt lat="45.30487" lon="6.17746">
        <ele>1884.4000244141</ele>
        <time>2020-02-16T08:57:10.000Z</time>
      </trkpt>
      <trkpt lat="45.30488" lon="6.17742">
        <ele>1885.5999755859</ele>
        <time>2020-02-16T08:57:15.000Z</time>
      </trkpt>
      <trkpt lat="45.30489" lon="6.17736">
        <ele>1886.1999511719</ele>
        <time>2020-02-16T08:57:21.000Z</time>
      </trkpt>
      <trkpt lat="45.30491" lon="6.17734">
        <ele>1886.5999755859</ele>
        <time>2020-02-16T08:57:24.000Z</time>
      </trkpt>
      <trkpt lat="45.30492" lon="6.17732">
        <ele>1887.1999511719</ele>
        <time>2020-02-16T08:57:27.000Z</time>
      </trkpt>
      <trkpt lat="45.30493" lon="6.1773">
        <ele>1887.8000488281</ele>
        <time>2020-02-16T08:57:32.000Z</time>
      </trkpt>
      <trkpt lat="45.30495" lon="6.1773">
        <ele>1888.5999755859</ele>
        <time>2020-02-16T08:57:35.000Z</time>
      </trkpt>
      <trkpt lat="45.30496" lon="6.17731">
        <ele>1889.1999511719</ele>
        <time>2020-02-16T08:57:37.000Z</time>
      </trkpt>
      <trkpt lat="45.30497" lon="6.17731">
        <ele>1889.4000244141</ele>
        <time>2020-02-16T08:57:39.000Z</time>
      </trkpt>
      <trkpt lat="45.30499" lon="6.17731">
        <ele>1890</ele>
        <time>2020-02-16T08:57:44.000Z</time>
      </trkpt>
      <trkpt lat="45.305" lon="6.17732">
        <ele>1890.1999511719</ele>
        <time>2020-02-16T08:57:46.000Z</time>
      </trkpt>
      <trkpt lat="45.30502" lon="6.1773">
        <ele>1890.8000488281</ele>
        <time>2020-02-16T08:57:50.000Z</time>
      </trkpt>
      <trkpt lat="45.30503" lon="6.17726">
        <ele>1891.4000244141</ele>
        <time>2020-02-16T08:57:53.000Z</time>
      </trkpt>
      <trkpt lat="45.30504" lon="6.17725">
        <ele>1892</ele>
        <time>2020-02-16T08:57:56.000Z</time>
      </trkpt>
      <trkpt lat="45.30504" lon="6.17725">
        <ele>1892.4000244141</ele>
        <time>2020-02-16T08:57:58.000Z</time>
      </trkpt>
      <trkpt lat="45.30504" lon="6.17722">
        <ele>1892.4000244141</ele>
        <time>2020-02-16T08:58:07.000Z</time>
      </trkpt>
      <trkpt lat="45.30504" lon="6.17719">
        <ele>1893</ele>
        <time>2020-02-16T08:58:13.000Z</time>
      </trkpt>
      <trkpt lat="45.30504" lon="6.17719">
        <ele>1893.4000244141</ele>
        <time>2020-02-16T08:58:15.000Z</time>
      </trkpt>
      <trkpt lat="45.30501" lon="6.17715">
        <ele>1893.5999755859</ele>
        <time>2020-02-16T08:58:20.000Z</time>
      </trkpt>
      <trkpt lat="45.30501" lon="6.17711">
        <ele>1894.5999755859</ele>
        <time>2020-02-16T08:58:25.000Z</time>
      </trkpt>
      <trkpt lat="45.30501" lon="6.17709">
        <ele>1895.4000244141</ele>
        <time>2020-02-16T08:58:29.000Z</time>
      </trkpt>
      <trkpt lat="45.30501" lon="6.17707">
        <ele>1895.5999755859</ele>
        <time>2020-02-16T08:58:31.000Z</time>
      </trkpt>
      <trkpt lat="45.305" lon="6.17706">
        <ele>1896.1999511719</ele>
        <time>2020-02-16T08:58:33.000Z</time>
      </trkpt>
      <trkpt lat="45.30501" lon="6.17704">
        <ele>1896.8000488281</ele>
        <time>2020-02-16T08:58:36.000Z</time>
      </trkpt>
      <trkpt lat="45.30501" lon="6.17704">
        <ele>1897.1999511719</ele>
        <time>2020-02-16T08:58:38.000Z</time>
      </trkpt>
      <trkpt lat="45.30503" lon="6.17699">
        <ele>1897.8000488281</ele>
        <time>2020-02-16T08:58:42.000Z</time>
      </trkpt>
      <trkpt lat="45.30505" lon="6.17697">
        <ele>1898</ele>
        <time>2020-02-16T08:58:44.000Z</time>
      </trkpt>
      <trkpt lat="45.30507" lon="6.17694">
        <ele>1898.8000488281</ele>
        <time>2020-02-16T08:58:49.000Z</time>
      </trkpt>
      <trkpt lat="45.30506" lon="6.17688">
        <ele>1900</ele>
        <time>2020-02-16T08:58:56.000Z</time>
      </trkpt>
      <trkpt lat="45.30507" lon="6.17682">
        <ele>1900.8000488281</ele>
        <time>2020-02-16T08:59:02.000Z</time>
      </trkpt>
      <trkpt lat="45.30507" lon="6.17682">
        <ele>1901</ele>
        <time>2020-02-16T08:59:03.000Z</time>
      </trkpt>
      <trkpt lat="45.30508" lon="6.17679">
        <ele>1901.5999755859</ele>
        <time>2020-02-16T08:59:07.000Z</time>
      </trkpt>
      <trkpt lat="45.30509" lon="6.17677">
        <ele>1902</ele>
        <time>2020-02-16T08:59:10.000Z</time>
      </trkpt>
      <trkpt lat="45.30508" lon="6.17674">
        <ele>1902.5999755859</ele>
        <time>2020-02-16T08:59:13.000Z</time>
      </trkpt>
      <trkpt lat="45.30511" lon="6.17668">
        <ele>1903.1999511719</ele>
        <time>2020-02-16T08:59:18.000Z</time>
      </trkpt>
      <trkpt lat="45.3051" lon="6.17663">
        <ele>1904.1999511719</ele>
        <time>2020-02-16T08:59:24.000Z</time>
      </trkpt>
      <trkpt lat="45.3051" lon="6.17663">
        <ele>1904.4000244141</ele>
        <time>2020-02-16T08:59:25.000Z</time>
      </trkpt>
      <trkpt lat="45.3051" lon="6.17661">
        <ele>1905.4000244141</ele>
        <time>2020-02-16T08:59:29.000Z</time>
      </trkpt>
      <trkpt lat="45.3051" lon="6.17658">
        <ele>1905.8000488281</ele>
        <time>2020-02-16T08:59:31.000Z</time>
      </trkpt>
      <trkpt lat="45.30509" lon="6.17657">
        <ele>1906.1999511719</ele>
        <time>2020-02-16T08:59:35.000Z</time>
      </trkpt>
      <trkpt lat="45.30509" lon="6.17656">
        <ele>1906.4000244141</ele>
        <time>2020-02-16T08:59:36.000Z</time>
      </trkpt>
      <trkpt lat="45.30511" lon="6.17655">
        <ele>1907.4000244141</ele>
        <time>2020-02-16T08:59:40.000Z</time>
      </trkpt>
      <trkpt lat="45.30511" lon="6.17654">
        <ele>1907.5999755859</ele>
        <time>2020-02-16T08:59:41.000Z</time>
      </trkpt>
      <trkpt lat="45.30512" lon="6.17651">
        <ele>1908.4000244141</ele>
        <time>2020-02-16T08:59:46.000Z</time>
      </trkpt>
      <trkpt lat="45.30512" lon="6.17651">
        <ele>1908.5999755859</ele>
        <time>2020-02-16T08:59:47.000Z</time>
      </trkpt>
      <trkpt lat="45.30514" lon="6.17648">
        <ele>1909.1999511719</ele>
        <time>2020-02-16T08:59:51.000Z</time>
      </trkpt>
      <trkpt lat="45.30512" lon="6.17645">
        <ele>1909.5999755859</ele>
        <time>2020-02-16T08:59:54.000Z</time>
      </trkpt>
      <trkpt lat="45.30511" lon="6.17642">
        <ele>1910</ele>
        <time>2020-02-16T08:59:56.000Z</time>
      </trkpt>
      <trkpt lat="45.3051" lon="6.1764">
        <ele>1910.8000488281</ele>
        <time>2020-02-16T09:00:00.000Z</time>
      </trkpt>
      <trkpt lat="45.3051" lon="6.1764">
        <ele>1911</ele>
        <time>2020-02-16T09:00:01.000Z</time>
      </trkpt>
      <trkpt lat="45.30511" lon="6.17639">
        <ele>1911.8000488281</ele>
        <time>2020-02-16T09:00:04.000Z</time>
      </trkpt>
      <trkpt lat="45.30513" lon="6.17638">
        <ele>1912.5999755859</ele>
        <time>2020-02-16T09:00:08.000Z</time>
      </trkpt>
      <trkpt lat="45.30514" lon="6.17636">
        <ele>1912.8000488281</ele>
        <time>2020-02-16T09:00:10.000Z</time>
      </trkpt>
      <trkpt lat="45.30515" lon="6.17635">
        <ele>1914</ele>
        <time>2020-02-16T09:00:14.000Z</time>
      </trkpt>
      <trkpt lat="45.30517" lon="6.17634">
        <ele>1914.5999755859</ele>
        <time>2020-02-16T09:00:21.000Z</time>
      </trkpt>
      <trkpt lat="45.30517" lon="6.17634">
        <ele>1914.4000244141</ele>
        <time>2020-02-16T09:00:22.000Z</time>
      </trkpt>
      <trkpt lat="45.3052" lon="6.17629">
        <ele>1915</ele>
        <time>2020-02-16T09:00:28.000Z</time>
      </trkpt>
      <trkpt lat="45.30521" lon="6.17626">
        <ele>1916.4000244141</ele>
        <time>2020-02-16T09:00:33.000Z</time>
      </trkpt>
      <trkpt lat="45.30523" lon="6.17623">
        <ele>1917.4000244141</ele>
        <time>2020-02-16T09:00:38.000Z</time>
      </trkpt>
      <trkpt lat="45.30526" lon="6.17623">
        <ele>1918.4000244141</ele>
        <time>2020-02-16T09:00:43.000Z</time>
      </trkpt>
      <trkpt lat="45.30526" lon="6.17622">
        <ele>1918.8000488281</ele>
        <time>2020-02-16T09:00:44.000Z</time>
      </trkpt>
      <trkpt lat="45.30527" lon="6.17621">
        <ele>1919.5999755859</ele>
        <time>2020-02-16T09:00:50.000Z</time>
      </trkpt>
      <trkpt lat="45.30527" lon="6.17621">
        <ele>1920.1999511719</ele>
        <time>2020-02-16T09:00:52.000Z</time>
      </trkpt>
      <trkpt lat="45.3053" lon="6.1762">
        <ele>1920.5999755859</ele>
        <time>2020-02-16T09:00:55.000Z</time>
      </trkpt>
      <trkpt lat="45.30531" lon="6.1762">
        <ele>1921.1999511719</ele>
        <time>2020-02-16T09:00:58.000Z</time>
      </trkpt>
      <trkpt lat="45.30532" lon="6.17619">
        <ele>1921.8000488281</ele>
        <time>2020-02-16T09:01:00.000Z</time>
      </trkpt>
      <trkpt lat="45.30532" lon="6.17619">
        <ele>1922.5999755859</ele>
        <time>2020-02-16T09:01:05.000Z</time>
      </trkpt>
      <trkpt lat="45.30532" lon="6.17619">
        <ele>1922.5999755859</ele>
        <time>2020-02-16T09:01:22.000Z</time>
      </trkpt>
      <trkpt lat="45.30533" lon="6.17617">
        <ele>1922.5999755859</ele>
        <time>2020-02-16T09:01:34.000Z</time>
      </trkpt>
      <trkpt lat="45.30533" lon="6.17616">
        <ele>1922.8000488281</ele>
        <time>2020-02-16T09:01:38.000Z</time>
      </trkpt>
      <trkpt lat="45.30535" lon="6.17614">
        <ele>1923.8000488281</ele>
        <time>2020-02-16T09:01:42.000Z</time>
      </trkpt>
      <trkpt lat="45.30536" lon="6.17613">
        <ele>1924</ele>
        <time>2020-02-16T09:01:43.000Z</time>
      </trkpt>
      <trkpt lat="45.30536" lon="6.17612">
        <ele>1924.8000488281</ele>
        <time>2020-02-16T09:01:47.000Z</time>
      </trkpt>
      <trkpt lat="45.30538" lon="6.17611">
        <ele>1925</ele>
        <time>2020-02-16T09:01:48.000Z</time>
      </trkpt>
      <trkpt lat="45.30541" lon="6.1761">
        <ele>1925.5999755859</ele>
        <time>2020-02-16T09:01:52.000Z</time>
      </trkpt>
      <trkpt lat="45.30541" lon="6.17607">
        <ele>1926.1999511719</ele>
        <time>2020-02-16T09:01:54.000Z</time>
      </trkpt>
      <trkpt lat="45.30542" lon="6.17606">
        <ele>1926.8000488281</ele>
        <time>2020-02-16T09:01:57.000Z</time>
      </trkpt>
      <trkpt lat="45.30544" lon="6.17604">
        <ele>1927.1999511719</ele>
        <time>2020-02-16T09:01:59.000Z</time>
      </trkpt>
      <trkpt lat="45.30545" lon="6.17603">
        <ele>1928</ele>
        <time>2020-02-16T09:02:02.000Z</time>
      </trkpt>
      <trkpt lat="45.30548" lon="6.17602">
        <ele>1928.4000244141</ele>
        <time>2020-02-16T09:02:04.000Z</time>
      </trkpt>
      <trkpt lat="45.30549" lon="6.17604">
        <ele>1929</ele>
        <time>2020-02-16T09:02:07.000Z</time>
      </trkpt>
      <trkpt lat="45.30551" lon="6.17605">
        <ele>1929.4000244141</ele>
        <time>2020-02-16T09:02:10.000Z</time>
      </trkpt>
      <trkpt lat="45.30552" lon="6.17605">
        <ele>1930</ele>
        <time>2020-02-16T09:02:12.000Z</time>
      </trkpt>
      <trkpt lat="45.30553" lon="6.17606">
        <ele>1930.4000244141</ele>
        <time>2020-02-16T09:02:14.000Z</time>
      </trkpt>
      <trkpt lat="45.30554" lon="6.17607">
        <ele>1930.5999755859</ele>
        <time>2020-02-16T09:02:15.000Z</time>
      </trkpt>
      <trkpt lat="45.30555" lon="6.17607">
        <ele>1931</ele>
        <time>2020-02-16T09:02:17.000Z</time>
      </trkpt>
      <trkpt lat="45.30556" lon="6.17608">
        <ele>1931.5999755859</ele>
        <time>2020-02-16T09:02:20.000Z</time>
      </trkpt>
      <trkpt lat="45.30559" lon="6.1761">
        <ele>1932</ele>
        <time>2020-02-16T09:02:22.000Z</time>
      </trkpt>
      <trkpt lat="45.30562" lon="6.17613">
        <ele>1932.8000488281</ele>
        <time>2020-02-16T09:02:26.000Z</time>
      </trkpt>
      <trkpt lat="45.30564" lon="6.17613">
        <ele>1933.4000244141</ele>
        <time>2020-02-16T09:02:29.000Z</time>
      </trkpt>
      <trkpt lat="45.30566" lon="6.17613">
        <ele>1933.8000488281</ele>
        <time>2020-02-16T09:02:32.000Z</time>
      </trkpt>
      <trkpt lat="45.30567" lon="6.17615">
        <ele>1934.1999511719</ele>
        <time>2020-02-16T09:02:35.000Z</time>
      </trkpt>
      <trkpt lat="45.30568" lon="6.17616">
        <ele>1934.8000488281</ele>
        <time>2020-02-16T09:02:39.000Z</time>
      </trkpt>
      <trkpt lat="45.30569" lon="6.17618">
        <ele>1935.1999511719</ele>
        <time>2020-02-16T09:02:41.000Z</time>
      </trkpt>
      <trkpt lat="45.30572" lon="6.17621">
        <ele>1936</ele>
        <time>2020-02-16T09:02:45.000Z</time>
      </trkpt>
      <trkpt lat="45.30573" lon="6.17623">
        <ele>1936.1999511719</ele>
        <time>2020-02-16T09:02:47.000Z</time>
      </trkpt>
      <trkpt lat="45.30575" lon="6.17627">
        <ele>1937</ele>
        <time>2020-02-16T09:02:51.000Z</time>
      </trkpt>
      <trkpt lat="45.30577" lon="6.17628">
        <ele>1937.5999755859</ele>
        <time>2020-02-16T09:02:55.000Z</time>
      </trkpt>
      <trkpt lat="45.30578" lon="6.17629">
        <ele>1938</ele>
        <time>2020-02-16T09:02:57.000Z</time>
      </trkpt>
      <trkpt lat="45.3058" lon="6.17632">
        <ele>1938.4000244141</ele>
        <time>2020-02-16T09:03:01.000Z</time>
      </trkpt>
      <trkpt lat="45.30582" lon="6.17635">
        <ele>1939</ele>
        <time>2020-02-16T09:03:06.000Z</time>
      </trkpt>
      <trkpt lat="45.30582" lon="6.17635">
        <ele>1939.1999511719</ele>
        <time>2020-02-16T09:03:07.000Z</time>
      </trkpt>
      <trkpt lat="45.30583" lon="6.17636">
        <ele>1940</ele>
        <time>2020-02-16T09:03:12.000Z</time>
      </trkpt>
      <trkpt lat="45.30583" lon="6.17636">
        <ele>1940.1999511719</ele>
        <time>2020-02-16T09:03:13.000Z</time>
      </trkpt>
      <trkpt lat="45.30583" lon="6.17639">
        <ele>1941.1999511719</ele>
        <time>2020-02-16T09:03:19.000Z</time>
      </trkpt>
      <trkpt lat="45.30583" lon="6.17631">
        <ele>1941.1999511719</ele>
        <time>2020-02-16T09:03:26.000Z</time>
      </trkpt>
      <trkpt lat="45.30584" lon="6.1763">
        <ele>1941.1999511719</ele>
        <time>2020-02-16T09:03:27.000Z</time>
      </trkpt>
      <trkpt lat="45.30585" lon="6.17627">
        <ele>1942.1999511719</ele>
        <time>2020-02-16T09:03:31.000Z</time>
      </trkpt>
      <trkpt lat="45.30586" lon="6.17626">
        <ele>1942.5999755859</ele>
        <time>2020-02-16T09:03:33.000Z</time>
      </trkpt>
      <trkpt lat="45.30586" lon="6.17623">
        <ele>1943.4000244141</ele>
        <time>2020-02-16T09:03:37.000Z</time>
      </trkpt>
      <trkpt lat="45.30587" lon="6.17621">
        <ele>1944.1999511719</ele>
        <time>2020-02-16T09:03:40.000Z</time>
      </trkpt>
      <trkpt lat="45.30587" lon="6.1762">
        <ele>1944.4000244141</ele>
        <time>2020-02-16T09:03:41.000Z</time>
      </trkpt>
      <trkpt lat="45.30589" lon="6.17615">
        <ele>1945.5999755859</ele>
        <time>2020-02-16T09:03:46.000Z</time>
      </trkpt>
      <trkpt lat="45.30589" lon="6.17614">
        <ele>1945.8000488281</ele>
        <time>2020-02-16T09:03:47.000Z</time>
      </trkpt>
      <trkpt lat="45.3059" lon="6.1761">
        <ele>1946.5999755859</ele>
        <time>2020-02-16T09:03:51.000Z</time>
      </trkpt>
      <trkpt lat="45.30591" lon="6.17608">
        <ele>1947.1999511719</ele>
        <time>2020-02-16T09:03:54.000Z</time>
      </trkpt>
      <trkpt lat="45.30592" lon="6.17605">
        <ele>1947.5999755859</ele>
        <time>2020-02-16T09:03:58.000Z</time>
      </trkpt>
      <trkpt lat="45.30592" lon="6.17604">
        <ele>1947.8000488281</ele>
        <time>2020-02-16T09:04:00.000Z</time>
      </trkpt>
      <trkpt lat="45.30593" lon="6.17602">
        <ele>1948.5999755859</ele>
        <time>2020-02-16T09:04:03.000Z</time>
      </trkpt>
      <trkpt lat="45.30594" lon="6.176">
        <ele>1949.4000244141</ele>
        <time>2020-02-16T09:04:07.000Z</time>
      </trkpt>
      <trkpt lat="45.30596" lon="6.17598">
        <ele>1949.8000488281</ele>
        <time>2020-02-16T09:04:11.000Z</time>
      </trkpt>
      <trkpt lat="45.30596" lon="6.17598">
        <ele>1950</ele>
        <time>2020-02-16T09:04:13.000Z</time>
      </trkpt>
      <trkpt lat="45.30597" lon="6.17598">
        <ele>1950.4000244141</ele>
        <time>2020-02-16T09:04:19.000Z</time>
      </trkpt>
      <trkpt lat="45.30597" lon="6.17599">
        <ele>1950.8000488281</ele>
        <time>2020-02-16T09:04:21.000Z</time>
      </trkpt>
      <trkpt lat="45.30599" lon="6.17602">
        <ele>1951.4000244141</ele>
        <time>2020-02-16T09:04:24.000Z</time>
      </trkpt>
      <trkpt lat="45.30601" lon="6.17607">
        <ele>1951.8000488281</ele>
        <time>2020-02-16T09:04:29.000Z</time>
      </trkpt>
      <trkpt lat="45.30601" lon="6.17607">
        <ele>1952</ele>
        <time>2020-02-16T09:04:30.000Z</time>
      </trkpt>
      <trkpt lat="45.30604" lon="6.17612">
        <ele>1953</ele>
        <time>2020-02-16T09:04:36.000Z</time>
      </trkpt>
      <trkpt lat="45.30604" lon="6.17613">
        <ele>1953.1999511719</ele>
        <time>2020-02-16T09:04:37.000Z</time>
      </trkpt>
      <trkpt lat="45.30606" lon="6.17617">
        <ele>1954</ele>
        <time>2020-02-16T09:04:42.000Z</time>
      </trkpt>
      <trkpt lat="45.30606" lon="6.17619">
        <ele>1954.1999511719</ele>
        <time>2020-02-16T09:04:43.000Z</time>
      </trkpt>
      <trkpt lat="45.30607" lon="6.17622">
        <ele>1955</ele>
        <time>2020-02-16T09:04:48.000Z</time>
      </trkpt>
      <trkpt lat="45.30607" lon="6.17622">
        <ele>1955.1999511719</ele>
        <time>2020-02-16T09:04:49.000Z</time>
      </trkpt>
      <trkpt lat="45.30608" lon="6.17626">
        <ele>1956.1999511719</ele>
        <time>2020-02-16T09:04:54.000Z</time>
      </trkpt>
      <trkpt lat="45.30609" lon="6.17629">
        <ele>1956.5999755859</ele>
        <time>2020-02-16T09:04:56.000Z</time>
      </trkpt>
      <trkpt lat="45.3061" lon="6.17633">
        <ele>1957.1999511719</ele>
        <time>2020-02-16T09:05:01.000Z</time>
      </trkpt>
      <trkpt lat="45.30611" lon="6.17634">
        <ele>1957.5999755859</ele>
        <time>2020-02-16T09:05:03.000Z</time>
      </trkpt>
      <trkpt lat="45.30612" lon="6.17636">
        <ele>1958.1999511719</ele>
        <time>2020-02-16T09:05:07.000Z</time>
      </trkpt>
      <trkpt lat="45.30613" lon="6.17637">
        <ele>1958.8000488281</ele>
        <time>2020-02-16T09:05:10.000Z</time>
      </trkpt>
      <trkpt lat="45.30613" lon="6.17639">
        <ele>1959.4000244141</ele>
        <time>2020-02-16T09:05:14.000Z</time>
      </trkpt>
      <trkpt lat="45.30614" lon="6.1764">
        <ele>1959.8000488281</ele>
        <time>2020-02-16T09:05:16.000Z</time>
      </trkpt>
      <trkpt lat="45.30614" lon="6.1764">
        <ele>1960.5999755859</ele>
        <time>2020-02-16T09:05:19.000Z</time>
      </trkpt>
      <trkpt lat="45.30615" lon="6.17644">
        <ele>1961.5999755859</ele>
        <time>2020-02-16T09:05:23.000Z</time>
      </trkpt>
      <trkpt lat="45.30615" lon="6.17645">
        <ele>1961.8000488281</ele>
        <time>2020-02-16T09:05:24.000Z</time>
      </trkpt>
      <trkpt lat="45.30618" lon="6.17649">
        <ele>1962.1999511719</ele>
        <time>2020-02-16T09:05:30.000Z</time>
      </trkpt>
      <trkpt lat="45.30619" lon="6.17652">
        <ele>1963</ele>
        <time>2020-02-16T09:05:34.000Z</time>
      </trkpt>
      <trkpt lat="45.30619" lon="6.17653">
        <ele>1963.4000244141</ele>
        <time>2020-02-16T09:05:36.000Z</time>
      </trkpt>
      <trkpt lat="45.3062" lon="6.17654">
        <ele>1964</ele>
        <time>2020-02-16T09:05:38.000Z</time>
      </trkpt>
      <trkpt lat="45.30622" lon="6.17657">
        <ele>1964.4000244141</ele>
        <time>2020-02-16T09:05:43.000Z</time>
      </trkpt>
      <trkpt lat="45.30625" lon="6.17663">
        <ele>1965.1999511719</ele>
        <time>2020-02-16T09:05:50.000Z</time>
      </trkpt>
      <trkpt lat="45.30626" lon="6.17667">
        <ele>1966</ele>
        <time>2020-02-16T09:05:55.000Z</time>
      </trkpt>
      <trkpt lat="45.30627" lon="6.17668">
        <ele>1966.1999511719</ele>
        <time>2020-02-16T09:05:56.000Z</time>
      </trkpt>
      <trkpt lat="45.30628" lon="6.17672">
        <ele>1967.4000244141</ele>
        <time>2020-02-16T09:06:02.000Z</time>
      </trkpt>
      <trkpt lat="45.30629" lon="6.17677">
        <ele>1968.4000244141</ele>
        <time>2020-02-16T09:06:09.000Z</time>
      </trkpt>
      <trkpt lat="45.30629" lon="6.17678">
        <ele>1968.4000244141</ele>
        <time>2020-02-16T09:06:10.000Z</time>
      </trkpt>
      <trkpt lat="45.30631" lon="6.17683">
        <ele>1969.1999511719</ele>
        <time>2020-02-16T09:06:15.000Z</time>
      </trkpt>
      <trkpt lat="45.30632" lon="6.17684">
        <ele>1969.5999755859</ele>
        <time>2020-02-16T09:06:17.000Z</time>
      </trkpt>
      <trkpt lat="45.30634" lon="6.17688">
        <ele>1970.4000244141</ele>
        <time>2020-02-16T09:06:24.000Z</time>
      </trkpt>
      <trkpt lat="45.30635" lon="6.1769">
        <ele>1970.5999755859</ele>
        <time>2020-02-16T09:06:26.000Z</time>
      </trkpt>
      <trkpt lat="45.30637" lon="6.17693">
        <ele>1971.1999511719</ele>
        <time>2020-02-16T09:06:30.000Z</time>
      </trkpt>
      <trkpt lat="45.30638" lon="6.17698">
        <ele>1971.8000488281</ele>
        <time>2020-02-16T09:06:36.000Z</time>
      </trkpt>
      <trkpt lat="45.30639" lon="6.17699">
        <ele>1971.8000488281</ele>
        <time>2020-02-16T09:06:37.000Z</time>
      </trkpt>
      <trkpt lat="45.30642" lon="6.17704">
        <ele>1972.4000244141</ele>
        <time>2020-02-16T09:06:43.000Z</time>
      </trkpt>
      <trkpt lat="45.30644" lon="6.17708">
        <ele>1972.8000488281</ele>
        <time>2020-02-16T09:06:47.000Z</time>
      </trkpt>
      <trkpt lat="45.30645" lon="6.1771">
        <ele>1973.4000244141</ele>
        <time>2020-02-16T09:06:51.000Z</time>
      </trkpt>
      <trkpt lat="45.30646" lon="6.17713">
        <ele>1973.8000488281</ele>
        <time>2020-02-16T09:06:54.000Z</time>
      </trkpt>
      <trkpt lat="45.30648" lon="6.17719">
        <ele>1974.4000244141</ele>
        <time>2020-02-16T09:07:00.000Z</time>
      </trkpt>
      <trkpt lat="45.30652" lon="6.17724">
        <ele>1975</ele>
        <time>2020-02-16T09:07:06.000Z</time>
      </trkpt>
      <trkpt lat="45.30652" lon="6.17724">
        <ele>1975</ele>
        <time>2020-02-16T09:07:07.000Z</time>
      </trkpt>
      <trkpt lat="45.30654" lon="6.1773">
        <ele>1975.8000488281</ele>
        <time>2020-02-16T09:07:17.000Z</time>
      </trkpt>
      <trkpt lat="45.30654" lon="6.17731">
        <ele>1976</ele>
        <time>2020-02-16T09:07:18.000Z</time>
      </trkpt>
      <trkpt lat="45.30656" lon="6.17737">
        <ele>1977</ele>
        <time>2020-02-16T09:07:26.000Z</time>
      </trkpt>
      <trkpt lat="45.30659" lon="6.17744">
        <ele>1978.1999511719</ele>
        <time>2020-02-16T09:07:33.000Z</time>
      </trkpt>
      <trkpt lat="45.3066" lon="6.1775">
        <ele>1979.1999511719</ele>
        <time>2020-02-16T09:07:42.000Z</time>
      </trkpt>
      <trkpt lat="45.3066" lon="6.17751">
        <ele>1979.1999511719</ele>
        <time>2020-02-16T09:07:43.000Z</time>
      </trkpt>
      <trkpt lat="45.3066" lon="6.17755">
        <ele>1980.4000244141</ele>
        <time>2020-02-16T09:07:49.000Z</time>
      </trkpt>
      <trkpt lat="45.3066" lon="6.17755">
        <ele>1980.5999755859</ele>
        <time>2020-02-16T09:07:50.000Z</time>
      </trkpt>
      <trkpt lat="45.30661" lon="6.17758">
        <ele>1981.1999511719</ele>
        <time>2020-02-16T09:07:58.000Z</time>
      </trkpt>
      <trkpt lat="45.30662" lon="6.1776">
        <ele>1981.4000244141</ele>
        <time>2020-02-16T09:08:01.000Z</time>
      </trkpt>
      <trkpt lat="45.30665" lon="6.17765">
        <ele>1982.4000244141</ele>
        <time>2020-02-16T09:08:05.000Z</time>
      </trkpt>
      <trkpt lat="45.30666" lon="6.17766">
        <ele>1982.5999755859</ele>
        <time>2020-02-16T09:08:07.000Z</time>
      </trkpt>
      <trkpt lat="45.30668" lon="6.17771">
        <ele>1983.4000244141</ele>
        <time>2020-02-16T09:08:11.000Z</time>
      </trkpt>
      <trkpt lat="45.30669" lon="6.17771">
        <ele>1983.8000488281</ele>
        <time>2020-02-16T09:08:13.000Z</time>
      </trkpt>
      <trkpt lat="45.30671" lon="6.17775">
        <ele>1984.4000244141</ele>
        <time>2020-02-16T09:08:19.000Z</time>
      </trkpt>
      <trkpt lat="45.30672" lon="6.17777">
        <ele>1984.8000488281</ele>
        <time>2020-02-16T09:08:22.000Z</time>
      </trkpt>
      <trkpt lat="45.30674" lon="6.17783">
        <ele>1985.5999755859</ele>
        <time>2020-02-16T09:08:27.000Z</time>
      </trkpt>
      <trkpt lat="45.30674" lon="6.17784">
        <ele>1986</ele>
        <time>2020-02-16T09:08:29.000Z</time>
      </trkpt>
      <trkpt lat="45.30677" lon="6.17788">
        <ele>1986.8000488281</ele>
        <time>2020-02-16T09:08:37.000Z</time>
      </trkpt>
      <trkpt lat="45.30678" lon="6.17788">
        <ele>1987</ele>
        <time>2020-02-16T09:08:38.000Z</time>
      </trkpt>
      <trkpt lat="45.30681" lon="6.17791">
        <ele>1988</ele>
        <time>2020-02-16T09:08:45.000Z</time>
      </trkpt>
      <trkpt lat="45.30683" lon="6.17792">
        <ele>1989.1999511719</ele>
        <time>2020-02-16T09:08:51.000Z</time>
      </trkpt>
      <trkpt lat="45.30683" lon="6.17792">
        <ele>1989.5999755859</ele>
        <time>2020-02-16T09:08:52.000Z</time>
      </trkpt>
      <trkpt lat="45.30684" lon="6.17795">
        <ele>1990.4000244141</ele>
        <time>2020-02-16T09:08:58.000Z</time>
      </trkpt>
      <trkpt lat="45.30685" lon="6.17797">
        <ele>1991.1999511719</ele>
        <time>2020-02-16T09:09:02.000Z</time>
      </trkpt>
      <trkpt lat="45.30686" lon="6.17799">
        <ele>1991.5999755859</ele>
        <time>2020-02-16T09:09:05.000Z</time>
      </trkpt>
      <trkpt lat="45.30688" lon="6.17803">
        <ele>1992.4000244141</ele>
        <time>2020-02-16T09:09:12.000Z</time>
      </trkpt>
      <trkpt lat="45.30689" lon="6.17803">
        <ele>1992.5999755859</ele>
        <time>2020-02-16T09:09:13.000Z</time>
      </trkpt>
      <trkpt lat="45.30691" lon="6.17807">
        <ele>1993.5999755859</ele>
        <time>2020-02-16T09:09:18.000Z</time>
      </trkpt>
      <trkpt lat="45.30692" lon="6.17807">
        <ele>1993.8000488281</ele>
        <time>2020-02-16T09:09:19.000Z</time>
      </trkpt>
      <trkpt lat="45.30694" lon="6.17811">
        <ele>1994.8000488281</ele>
        <time>2020-02-16T09:09:25.000Z</time>
      </trkpt>
      <trkpt lat="45.30694" lon="6.17812">
        <ele>1994.8000488281</ele>
        <time>2020-02-16T09:09:26.000Z</time>
      </trkpt>
      <trkpt lat="45.30696" lon="6.17814">
        <ele>1995.5999755859</ele>
        <time>2020-02-16T09:09:33.000Z</time>
      </trkpt>
      <trkpt lat="45.30696" lon="6.17815">
        <ele>1995.8000488281</ele>
        <time>2020-02-16T09:09:34.000Z</time>
      </trkpt>
      <trkpt lat="45.30699" lon="6.17821">
        <ele>1996.8000488281</ele>
        <time>2020-02-16T09:09:41.000Z</time>
      </trkpt>
      <trkpt lat="45.307" lon="6.17823">
        <ele>1997</ele>
        <time>2020-02-16T09:09:43.000Z</time>
      </trkpt>
      <trkpt lat="45.30702" lon="6.17828">
        <ele>1998</ele>
        <time>2020-02-16T09:09:50.000Z</time>
      </trkpt>
      <trkpt lat="45.30702" lon="6.17829">
        <ele>1998.1999511719</ele>
        <time>2020-02-16T09:09:51.000Z</time>
      </trkpt>
      <trkpt lat="45.30705" lon="6.17833">
        <ele>1999</ele>
        <time>2020-02-16T09:09:57.000Z</time>
      </trkpt>
      <trkpt lat="45.30706" lon="6.17836">
        <ele>1999.4000244141</ele>
        <time>2020-02-16T09:10:00.000Z</time>
      </trkpt>
      <trkpt lat="45.30708" lon="6.17839">
        <ele>2000.1999511719</ele>
        <time>2020-02-16T09:10:05.000Z</time>
      </trkpt>
      <trkpt lat="45.30709" lon="6.17842">
        <ele>2000.8000488281</ele>
        <time>2020-02-16T09:10:09.000Z</time>
      </trkpt>
      <trkpt lat="45.3071" lon="6.17844">
        <ele>2001.4000244141</ele>
        <time>2020-02-16T09:10:12.000Z</time>
      </trkpt>
      <trkpt lat="45.30711" lon="6.17848">
        <ele>2002.1999511719</ele>
        <time>2020-02-16T09:10:17.000Z</time>
      </trkpt>
      <trkpt lat="45.30711" lon="6.17849">
        <ele>2002.4000244141</ele>
        <time>2020-02-16T09:10:19.000Z</time>
      </trkpt>
      <trkpt lat="45.30711" lon="6.1785">
        <ele>2003</ele>
        <time>2020-02-16T09:10:25.000Z</time>
      </trkpt>
      <trkpt lat="45.30712" lon="6.17852">
        <ele>2003.4000244141</ele>
        <time>2020-02-16T09:10:30.000Z</time>
      </trkpt>
      <trkpt lat="45.30713" lon="6.1785">
        <ele>2003.5999755859</ele>
        <time>2020-02-16T09:10:36.000Z</time>
      </trkpt>
      <trkpt lat="45.30713" lon="6.17848">
        <ele>2004</ele>
        <time>2020-02-16T09:10:40.000Z</time>
      </trkpt>
      <trkpt lat="45.30714" lon="6.17844">
        <ele>2004.5999755859</ele>
        <time>2020-02-16T09:10:43.000Z</time>
      </trkpt>
      <trkpt lat="45.30715" lon="6.17843">
        <ele>2005.1999511719</ele>
        <time>2020-02-16T09:10:46.000Z</time>
      </trkpt>
      <trkpt lat="45.30715" lon="6.17841">
        <ele>2005.5999755859</ele>
        <time>2020-02-16T09:10:48.000Z</time>
      </trkpt>
      <trkpt lat="45.30714" lon="6.17839">
        <ele>2006.5999755859</ele>
        <time>2020-02-16T09:10:52.000Z</time>
      </trkpt>
      <trkpt lat="45.30714" lon="6.17836">
        <ele>2006.8000488281</ele>
        <time>2020-02-16T09:10:53.000Z</time>
      </trkpt>
      <trkpt lat="45.30714" lon="6.17835">
        <ele>2007.1999511719</ele>
        <time>2020-02-16T09:10:56.000Z</time>
      </trkpt>
      <trkpt lat="45.30714" lon="6.17833">
        <ele>2008</ele>
        <time>2020-02-16T09:11:00.000Z</time>
      </trkpt>
      <trkpt lat="45.30714" lon="6.17829">
        <ele>2009.1999511719</ele>
        <time>2020-02-16T09:11:05.000Z</time>
      </trkpt>
      <trkpt lat="45.30714" lon="6.17827">
        <ele>2010.1999511719</ele>
        <time>2020-02-16T09:11:09.000Z</time>
      </trkpt>
      <trkpt lat="45.30714" lon="6.17826">
        <ele>2010.4000244141</ele>
        <time>2020-02-16T09:11:10.000Z</time>
      </trkpt>
      <trkpt lat="45.30715" lon="6.17824">
        <ele>2011.1999511719</ele>
        <time>2020-02-16T09:11:19.000Z</time>
      </trkpt>
      <trkpt lat="45.30715" lon="6.17824">
        <ele>2011.4000244141</ele>
        <time>2020-02-16T09:11:20.000Z</time>
      </trkpt>
      <trkpt lat="45.30718" lon="6.17825">
        <ele>2012</ele>
        <time>2020-02-16T09:11:27.000Z</time>
      </trkpt>
      <trkpt lat="45.30722" lon="6.17826">
        <ele>2012.4000244141</ele>
        <time>2020-02-16T09:11:30.000Z</time>
      </trkpt>
      <trkpt lat="45.30723" lon="6.17826">
        <ele>2012.5999755859</ele>
        <time>2020-02-16T09:11:32.000Z</time>
      </trkpt>
      <trkpt lat="45.30726" lon="6.17827">
        <ele>2013.4000244141</ele>
        <time>2020-02-16T09:11:36.000Z</time>
      </trkpt>
      <trkpt lat="45.30727" lon="6.17828">
        <ele>2013.8000488281</ele>
        <time>2020-02-16T09:11:38.000Z</time>
      </trkpt>
      <trkpt lat="45.30728" lon="6.17829">
        <ele>2014.4000244141</ele>
        <time>2020-02-16T09:11:41.000Z</time>
      </trkpt>
      <trkpt lat="45.3073" lon="6.1783">
        <ele>2015</ele>
        <time>2020-02-16T09:11:44.000Z</time>
      </trkpt>
      <trkpt lat="45.30731" lon="6.17832">
        <ele>2015.5999755859</ele>
        <time>2020-02-16T09:11:47.000Z</time>
      </trkpt>
      <trkpt lat="45.30732" lon="6.17832">
        <ele>2016</ele>
        <time>2020-02-16T09:11:49.000Z</time>
      </trkpt>
      <trkpt lat="45.30735" lon="6.17836">
        <ele>2016.8000488281</ele>
        <time>2020-02-16T09:11:54.000Z</time>
      </trkpt>
      <trkpt lat="45.30735" lon="6.17836">
        <ele>2016.8000488281</ele>
        <time>2020-02-16T09:11:55.000Z</time>
      </trkpt>
      <trkpt lat="45.30738" lon="6.17838">
        <ele>2017.8000488281</ele>
        <time>2020-02-16T09:12:00.000Z</time>
      </trkpt>
      <trkpt lat="45.30739" lon="6.17842">
        <ele>2019</ele>
        <time>2020-02-16T09:12:05.000Z</time>
      </trkpt>
      <trkpt lat="45.3074" lon="6.17845">
        <ele>2019.4000244141</ele>
        <time>2020-02-16T09:12:08.000Z</time>
      </trkpt>
      <trkpt lat="45.30741" lon="6.17847">
        <ele>2020</ele>
        <time>2020-02-16T09:12:10.000Z</time>
      </trkpt>
      <trkpt lat="45.30743" lon="6.1785">
        <ele>2020.8000488281</ele>
        <time>2020-02-16T09:12:15.000Z</time>
      </trkpt>
      <trkpt lat="45.30743" lon="6.17851">
        <ele>2021</ele>
        <time>2020-02-16T09:12:17.000Z</time>
      </trkpt>
      <trkpt lat="45.30745" lon="6.17855">
        <ele>2022</ele>
        <time>2020-02-16T09:12:22.000Z</time>
      </trkpt>
      <trkpt lat="45.30745" lon="6.17856">
        <ele>2022</ele>
        <time>2020-02-16T09:12:23.000Z</time>
      </trkpt>
      <trkpt lat="45.30746" lon="6.17861">
        <ele>2023.1999511719</ele>
        <time>2020-02-16T09:12:29.000Z</time>
      </trkpt>
      <trkpt lat="45.30747" lon="6.17866">
        <ele>2024.4000244141</ele>
        <time>2020-02-16T09:12:35.000Z</time>
      </trkpt>
      <trkpt lat="45.30748" lon="6.1787">
        <ele>2025.5999755859</ele>
        <time>2020-02-16T09:12:41.000Z</time>
      </trkpt>
      <trkpt lat="45.30748" lon="6.17872">
        <ele>2026</ele>
        <time>2020-02-16T09:12:43.000Z</time>
      </trkpt>
      <trkpt lat="45.30749" lon="6.17874">
        <ele>2026.5999755859</ele>
        <time>2020-02-16T09:12:46.000Z</time>
      </trkpt>
      <trkpt lat="45.30749" lon="6.17877">
        <ele>2027.1999511719</ele>
        <time>2020-02-16T09:12:49.000Z</time>
      </trkpt>
      <trkpt lat="45.30749" lon="6.17878">
        <ele>2027.5999755859</ele>
        <time>2020-02-16T09:12:51.000Z</time>
      </trkpt>
      <trkpt lat="45.30749" lon="6.17883">
        <ele>2028.8000488281</ele>
        <time>2020-02-16T09:12:57.000Z</time>
      </trkpt>
      <trkpt lat="45.30749" lon="6.17888">
        <ele>2029.8000488281</ele>
        <time>2020-02-16T09:13:03.000Z</time>
      </trkpt>
      <trkpt lat="45.30751" lon="6.17893">
        <ele>2031</ele>
        <time>2020-02-16T09:13:10.000Z</time>
      </trkpt>
      <trkpt lat="45.30751" lon="6.17894">
        <ele>2031.4000244141</ele>
        <time>2020-02-16T09:13:11.000Z</time>
      </trkpt>
      <trkpt lat="45.30753" lon="6.17897">
        <ele>2032</ele>
        <time>2020-02-16T09:13:15.000Z</time>
      </trkpt>
      <trkpt lat="45.30753" lon="6.17899">
        <ele>2032.4000244141</ele>
        <time>2020-02-16T09:13:18.000Z</time>
      </trkpt>
      <trkpt lat="45.30754" lon="6.179">
        <ele>2033.1999511719</ele>
        <time>2020-02-16T09:13:22.000Z</time>
      </trkpt>
      <trkpt lat="45.30755" lon="6.17902">
        <ele>2033.4000244141</ele>
        <time>2020-02-16T09:13:24.000Z</time>
      </trkpt>
      <trkpt lat="45.30757" lon="6.17905">
        <ele>2034.1999511719</ele>
        <time>2020-02-16T09:13:28.000Z</time>
      </trkpt>
      <trkpt lat="45.30758" lon="6.17905">
        <ele>2035.1999511719</ele>
        <time>2020-02-16T09:13:34.000Z</time>
      </trkpt>
      <trkpt lat="45.30758" lon="6.17905">
        <ele>2035.4000244141</ele>
        <time>2020-02-16T09:13:35.000Z</time>
      </trkpt>
      <trkpt lat="45.30758" lon="6.17905">
        <ele>2036</ele>
        <time>2020-02-16T09:13:45.000Z</time>
      </trkpt>
      <trkpt lat="45.30758" lon="6.17905">
        <ele>2035.5999755859</ele>
        <time>2020-02-16T09:13:55.000Z</time>
      </trkpt>
      <trkpt lat="45.30758" lon="6.17905">
        <ele>2036.4000244141</ele>
        <time>2020-02-16T09:14:08.000Z</time>
      </trkpt>
      <trkpt lat="45.30758" lon="6.17905">
        <ele>2036.4000244141</ele>
        <time>2020-02-16T09:14:09.000Z</time>
      </trkpt>
      <trkpt lat="45.30758" lon="6.17905">
        <ele>2036</ele>
        <time>2020-02-16T09:14:26.000Z</time>
      </trkpt>
      <trkpt lat="45.30758" lon="6.17905">
        <ele>2036.1999511719</ele>
        <time>2020-02-16T09:14:48.000Z</time>
      </trkpt>
      <trkpt lat="45.30758" lon="6.17906">
        <ele>2036.1999511719</ele>
        <time>2020-02-16T09:15:06.000Z</time>
      </trkpt>
      <trkpt lat="45.30758" lon="6.17906">
        <ele>2035.5999755859</ele>
        <time>2020-02-16T09:15:18.000Z</time>
      </trkpt>
      <trkpt lat="45.30758" lon="6.17906">
        <ele>2037.4000244141</ele>
        <time>2020-02-16T09:15:25.000Z</time>
      </trkpt>
      <trkpt lat="45.30758" lon="6.17906">
        <ele>2037.1999511719</ele>
        <time>2020-02-16T09:15:27.000Z</time>
      </trkpt>
      <trkpt lat="45.30758" lon="6.17906">
        <ele>2036.4000244141</ele>
        <time>2020-02-16T09:15:34.000Z</time>
      </trkpt>
      <trkpt lat="45.30758" lon="6.17906">
        <ele>2035.5999755859</ele>
        <time>2020-02-16T09:15:41.000Z</time>
      </trkpt>
      <trkpt lat="45.30758" lon="6.17906">
        <ele>2036.5999755859</ele>
        <time>2020-02-16T09:15:55.000Z</time>
      </trkpt>
      <trkpt lat="45.30758" lon="6.17906">
        <ele>2036</ele>
        <time>2020-02-16T09:16:10.000Z</time>
      </trkpt>
      <trkpt lat="45.30758" lon="6.17906">
        <ele>2036</ele>
        <time>2020-02-16T09:16:31.000Z</time>
      </trkpt>
      <trkpt lat="45.30758" lon="6.17906">
        <ele>2036</ele>
        <time>2020-02-16T09:16:43.000Z</time>
      </trkpt>
      <trkpt lat="45.30758" lon="6.17906">
        <ele>2036</ele>
        <time>2020-02-16T09:16:56.000Z</time>
      </trkpt>
      <trkpt lat="45.30758" lon="6.17907">
        <ele>2036</ele>
        <time>2020-02-16T09:17:10.000Z</time>
      </trkpt>
      <trkpt lat="45.30758" lon="6.17907">
        <ele>2036.1999511719</ele>
        <time>2020-02-16T09:17:24.000Z</time>
      </trkpt>
      <trkpt lat="45.30758" lon="6.17907">
        <ele>2035.8000488281</ele>
        <time>2020-02-16T09:17:39.000Z</time>
      </trkpt>
      <trkpt lat="45.30758" lon="6.17907">
        <ele>2035.5999755859</ele>
        <time>2020-02-16T09:17:58.000Z</time>
      </trkpt>
      <trkpt lat="45.30758" lon="6.17907">
        <ele>2036.1999511719</ele>
        <time>2020-02-16T09:18:12.000Z</time>
      </trkpt>
      <trkpt lat="45.30758" lon="6.17908">
        <ele>2036</ele>
        <time>2020-02-16T09:18:30.000Z</time>
      </trkpt>
      <trkpt lat="45.30758" lon="6.17908">
        <ele>2036</ele>
        <time>2020-02-16T09:18:42.000Z</time>
      </trkpt>
      <trkpt lat="45.30759" lon="6.17908">
        <ele>2036</ele>
        <time>2020-02-16T09:19:00.000Z</time>
      </trkpt>
      <trkpt lat="45.30759" lon="6.17908">
        <ele>2036</ele>
        <time>2020-02-16T09:19:13.000Z</time>
      </trkpt>
      <trkpt lat="45.30759" lon="6.17909">
        <ele>2036</ele>
        <time>2020-02-16T09:19:25.000Z</time>
      </trkpt>
      <trkpt lat="45.30759" lon="6.17909">
        <ele>2036</ele>
        <time>2020-02-16T09:19:36.000Z</time>
      </trkpt>
      <trkpt lat="45.30759" lon="6.17909">
        <ele>2035.8000488281</ele>
        <time>2020-02-16T09:19:55.000Z</time>
      </trkpt>
      <trkpt lat="45.3076" lon="6.17909">
        <ele>2036</ele>
        <time>2020-02-16T09:20:06.000Z</time>
      </trkpt>
      <trkpt lat="45.3076" lon="6.17909">
        <ele>2036</ele>
        <time>2020-02-16T09:20:27.000Z</time>
      </trkpt>
      <trkpt lat="45.3076" lon="6.17909">
        <ele>2036</ele>
        <time>2020-02-16T09:20:45.000Z</time>
      </trkpt>
      <trkpt lat="45.3076" lon="6.17909">
        <ele>2036</ele>
        <time>2020-02-16T09:21:05.000Z</time>
      </trkpt>
      <trkpt lat="45.3076" lon="6.17909">
        <ele>2036</ele>
        <time>2020-02-16T09:21:25.000Z</time>
      </trkpt>
      <trkpt lat="45.30761" lon="6.17911">
        <ele>2036.1999511719</ele>
        <time>2020-02-16T09:21:32.000Z</time>
      </trkpt>
      <trkpt lat="45.30762" lon="6.17911">
        <ele>2037.1999511719</ele>
        <time>2020-02-16T09:21:41.000Z</time>
      </trkpt>
      <trkpt lat="45.30765" lon="6.17913">
        <ele>2037.4000244141</ele>
        <time>2020-02-16T09:21:48.000Z</time>
      </trkpt>
      <trkpt lat="45.30765" lon="6.17914">
        <ele>2037.4000244141</ele>
        <time>2020-02-16T09:21:49.000Z</time>
      </trkpt>
      <trkpt lat="45.30769" lon="6.17918">
        <ele>2038.1999511719</ele>
        <time>2020-02-16T09:21:54.000Z</time>
      </trkpt>
      <trkpt lat="45.30771" lon="6.1792">
        <ele>2038.5999755859</ele>
        <time>2020-02-16T09:21:56.000Z</time>
      </trkpt>
      <trkpt lat="45.30775" lon="6.17922">
        <ele>2039.4000244141</ele>
        <time>2020-02-16T09:22:01.000Z</time>
      </trkpt>
      <trkpt lat="45.30776" lon="6.17923">
        <ele>2039.5999755859</ele>
        <time>2020-02-16T09:22:02.000Z</time>
      </trkpt>
      <trkpt lat="45.30778" lon="6.17925">
        <ele>2040</ele>
        <time>2020-02-16T09:22:06.000Z</time>
      </trkpt>
      <trkpt lat="45.3078" lon="6.17928">
        <ele>2040.5999755859</ele>
        <time>2020-02-16T09:22:10.000Z</time>
      </trkpt>
      <trkpt lat="45.30781" lon="6.17929">
        <ele>2041</ele>
        <time>2020-02-16T09:22:12.000Z</time>
      </trkpt>
      <trkpt lat="45.30783" lon="6.17929">
        <ele>2041.5999755859</ele>
        <time>2020-02-16T09:22:17.000Z</time>
      </trkpt>
      <trkpt lat="45.30784" lon="6.17929">
        <ele>2041.8000488281</ele>
        <time>2020-02-16T09:22:18.000Z</time>
      </trkpt>
      <trkpt lat="45.30786" lon="6.1793">
        <ele>2042.4000244141</ele>
        <time>2020-02-16T09:22:22.000Z</time>
      </trkpt>
      <trkpt lat="45.30787" lon="6.17931">
        <ele>2043</ele>
        <time>2020-02-16T09:22:24.000Z</time>
      </trkpt>
      <trkpt lat="45.3079" lon="6.17933">
        <ele>2043.8000488281</ele>
        <time>2020-02-16T09:22:29.000Z</time>
      </trkpt>
      <trkpt lat="45.3079" lon="6.17933">
        <ele>2044</ele>
        <time>2020-02-16T09:22:30.000Z</time>
      </trkpt>
      <trkpt lat="45.30791" lon="6.17933">
        <ele>2044.8000488281</ele>
        <time>2020-02-16T09:22:35.000Z</time>
      </trkpt>
      <trkpt lat="45.30791" lon="6.17934">
        <ele>2045</ele>
        <time>2020-02-16T09:22:40.000Z</time>
      </trkpt>
      <trkpt lat="45.30791" lon="6.17934">
        <ele>2045</ele>
        <time>2020-02-16T09:22:41.000Z</time>
      </trkpt>
      <trkpt lat="45.30791" lon="6.17934">
        <ele>2045.8000488281</ele>
        <time>2020-02-16T09:22:55.000Z</time>
      </trkpt>
      <trkpt lat="45.30791" lon="6.17934">
        <ele>2045.8000488281</ele>
        <time>2020-02-16T09:23:08.000Z</time>
      </trkpt>
      <trkpt lat="45.30792" lon="6.17935">
        <ele>2045.8000488281</ele>
        <time>2020-02-16T09:23:17.000Z</time>
      </trkpt>
      <trkpt lat="45.30793" lon="6.17937">
        <ele>2046.1999511719</ele>
        <time>2020-02-16T09:23:21.000Z</time>
      </trkpt>
      <trkpt lat="45.30793" lon="6.17937">
        <ele>2046.5999755859</ele>
        <time>2020-02-16T09:23:24.000Z</time>
      </trkpt>
      <trkpt lat="45.30794" lon="6.1794">
        <ele>2046.5999755859</ele>
        <time>2020-02-16T09:23:30.000Z</time>
      </trkpt>
      <trkpt lat="45.30796" lon="6.17942">
        <ele>2047.4000244141</ele>
        <time>2020-02-16T09:23:34.000Z</time>
      </trkpt>
      <trkpt lat="45.30797" lon="6.17943">
        <ele>2047.8000488281</ele>
        <time>2020-02-16T09:23:36.000Z</time>
      </trkpt>
      <trkpt lat="45.30797" lon="6.17943">
        <ele>2048.6000976562</ele>
        <time>2020-02-16T09:23:38.000Z</time>
      </trkpt>
      <trkpt lat="45.30798" lon="6.17947">
        <ele>2049.6000976562</ele>
        <time>2020-02-16T09:23:42.000Z</time>
      </trkpt>
      <trkpt lat="45.30801" lon="6.17953">
        <ele>2050.6000976562</ele>
        <time>2020-02-16T09:23:48.000Z</time>
      </trkpt>
      <trkpt lat="45.30804" lon="6.17957">
        <ele>2051.8000488281</ele>
        <time>2020-02-16T09:23:54.000Z</time>
      </trkpt>
      <trkpt lat="45.30808" lon="6.17962">
        <ele>2053</ele>
        <time>2020-02-16T09:24:02.000Z</time>
      </trkpt>
      <trkpt lat="45.3081" lon="6.17967">
        <ele>2054.1999511719</ele>
        <time>2020-02-16T09:24:08.000Z</time>
      </trkpt>
      <trkpt lat="45.3081" lon="6.1797">
        <ele>2054.8000488281</ele>
        <time>2020-02-16T09:24:11.000Z</time>
      </trkpt>
      <trkpt lat="45.30811" lon="6.17971">
        <ele>2055.1999511719</ele>
        <time>2020-02-16T09:24:14.000Z</time>
      </trkpt>
      <trkpt lat="45.30812" lon="6.17973">
        <ele>2055.6000976562</ele>
        <time>2020-02-16T09:24:17.000Z</time>
      </trkpt>
      <trkpt lat="45.30814" lon="6.17976">
        <ele>2056.1999511719</ele>
        <time>2020-02-16T09:24:21.000Z</time>
      </trkpt>
      <trkpt lat="45.30817" lon="6.1798">
        <ele>2057</ele>
        <time>2020-02-16T09:24:26.000Z</time>
      </trkpt>
      <trkpt lat="45.30817" lon="6.17982">
        <ele>2057.3999023438</ele>
        <time>2020-02-16T09:24:28.000Z</time>
      </trkpt>
      <trkpt lat="45.30819" lon="6.17986">
        <ele>2058.3999023438</ele>
        <time>2020-02-16T09:24:34.000Z</time>
      </trkpt>
      <trkpt lat="45.30821" lon="6.17992">
        <ele>2059.6000976562</ele>
        <time>2020-02-16T09:24:41.000Z</time>
      </trkpt>
      <trkpt lat="45.30822" lon="6.17992">
        <ele>2059.8000488281</ele>
        <time>2020-02-16T09:24:42.000Z</time>
      </trkpt>
      <trkpt lat="45.30824" lon="6.17995">
        <ele>2060.6000976562</ele>
        <time>2020-02-16T09:24:47.000Z</time>
      </trkpt>
      <trkpt lat="45.30824" lon="6.17997">
        <ele>2061.1999511719</ele>
        <time>2020-02-16T09:24:50.000Z</time>
      </trkpt>
      <trkpt lat="45.30825" lon="6.17998">
        <ele>2061.8000488281</ele>
        <time>2020-02-16T09:24:52.000Z</time>
      </trkpt>
      <trkpt lat="45.30827" lon="6.18001">
        <ele>2062.8000488281</ele>
        <time>2020-02-16T09:24:57.000Z</time>
      </trkpt>
      <trkpt lat="45.30828" lon="6.18004">
        <ele>2063.3999023438</ele>
        <time>2020-02-16T09:25:00.000Z</time>
      </trkpt>
      <trkpt lat="45.30829" lon="6.18006">
        <ele>2064</ele>
        <time>2020-02-16T09:25:03.000Z</time>
      </trkpt>
      <trkpt lat="45.3083" lon="6.18009">
        <ele>2064.6000976562</ele>
        <time>2020-02-16T09:25:08.000Z</time>
      </trkpt>
      <trkpt lat="45.30831" lon="6.18012">
        <ele>2065</ele>
        <time>2020-02-16T09:25:13.000Z</time>
      </trkpt>
      <trkpt lat="45.30831" lon="6.18013">
        <ele>2065.6000976562</ele>
        <time>2020-02-16T09:25:15.000Z</time>
      </trkpt>
      <trkpt lat="45.30832" lon="6.18014">
        <ele>2066.1999511719</ele>
        <time>2020-02-16T09:25:19.000Z</time>
      </trkpt>
      <trkpt lat="45.30833" lon="6.18016">
        <ele>2067.1999511719</ele>
        <time>2020-02-16T09:25:23.000Z</time>
      </trkpt>
      <trkpt lat="45.30834" lon="6.18017">
        <ele>2067.3999023438</ele>
        <time>2020-02-16T09:25:24.000Z</time>
      </trkpt>
      <trkpt lat="45.30836" lon="6.18021">
        <ele>2068.3999023438</ele>
        <time>2020-02-16T09:25:30.000Z</time>
      </trkpt>
      <trkpt lat="45.30836" lon="6.18022">
        <ele>2068.6000976562</ele>
        <time>2020-02-16T09:25:31.000Z</time>
      </trkpt>
      <trkpt lat="45.30837" lon="6.18026">
        <ele>2069.1999511719</ele>
        <time>2020-02-16T09:25:36.000Z</time>
      </trkpt>
      <trkpt lat="45.30839" lon="6.18027">
        <ele>2069.6000976562</ele>
        <time>2020-02-16T09:25:39.000Z</time>
      </trkpt>
      <trkpt lat="45.3084" lon="6.18032">
        <ele>2070</ele>
        <time>2020-02-16T09:25:45.000Z</time>
      </trkpt>
      <trkpt lat="45.30841" lon="6.18037">
        <ele>2070.6000976562</ele>
        <time>2020-02-16T09:25:51.000Z</time>
      </trkpt>
      <trkpt lat="45.30841" lon="6.18037">
        <ele>2070.8000488281</ele>
        <time>2020-02-16T09:25:52.000Z</time>
      </trkpt>
      <trkpt lat="45.30843" lon="6.18041">
        <ele>2071.8000488281</ele>
        <time>2020-02-16T09:25:57.000Z</time>
      </trkpt>
      <trkpt lat="45.30845" lon="6.18047">
        <ele>2072.8000488281</ele>
        <time>2020-02-16T09:26:03.000Z</time>
      </trkpt>
      <trkpt lat="45.30845" lon="6.18048">
        <ele>2073</ele>
        <time>2020-02-16T09:26:04.000Z</time>
      </trkpt>
      <trkpt lat="45.30847" lon="6.18053">
        <ele>2074</ele>
        <time>2020-02-16T09:26:11.000Z</time>
      </trkpt>
      <trkpt lat="45.30849" lon="6.18057">
        <ele>2075</ele>
        <time>2020-02-16T09:26:17.000Z</time>
      </trkpt>
      <trkpt lat="45.30851" lon="6.18061">
        <ele>2076.1999511719</ele>
        <time>2020-02-16T09:26:23.000Z</time>
      </trkpt>
      <trkpt lat="45.30851" lon="6.18062">
        <ele>2076.3999023438</ele>
        <time>2020-02-16T09:26:24.000Z</time>
      </trkpt>
      <trkpt lat="45.30853" lon="6.18066">
        <ele>2077.3999023438</ele>
        <time>2020-02-16T09:26:28.000Z</time>
      </trkpt>
      <trkpt lat="45.30855" lon="6.18068">
        <ele>2077.8000488281</ele>
        <time>2020-02-16T09:26:31.000Z</time>
      </trkpt>
      <trkpt lat="45.30857" lon="6.18069">
        <ele>2078.6000976562</ele>
        <time>2020-02-16T09:26:35.000Z</time>
      </trkpt>
      <trkpt lat="45.30857" lon="6.18071">
        <ele>2078.8000488281</ele>
        <time>2020-02-16T09:26:37.000Z</time>
      </trkpt>
      <trkpt lat="45.30859" lon="6.18071">
        <ele>2079.6000976562</ele>
        <time>2020-02-16T09:26:43.000Z</time>
      </trkpt>
      <trkpt lat="45.30861" lon="6.18069">
        <ele>2080.6000976562</ele>
        <time>2020-02-16T09:26:49.000Z</time>
      </trkpt>
      <trkpt lat="45.30863" lon="6.18067">
        <ele>2081.6000976562</ele>
        <time>2020-02-16T09:26:52.000Z</time>
      </trkpt>
      <trkpt lat="45.30865" lon="6.18067">
        <ele>2082</ele>
        <time>2020-02-16T09:26:55.000Z</time>
      </trkpt>
      <trkpt lat="45.30867" lon="6.18064">
        <ele>2082.8000488281</ele>
        <time>2020-02-16T09:27:00.000Z</time>
      </trkpt>
      <trkpt lat="45.30867" lon="6.18064">
        <ele>2083.3999023438</ele>
        <time>2020-02-16T09:27:03.000Z</time>
      </trkpt>
      <trkpt lat="45.30867" lon="6.18064">
        <ele>2083.8000488281</ele>
        <time>2020-02-16T09:27:05.000Z</time>
      </trkpt>
      <trkpt lat="45.30867" lon="6.18064">
        <ele>2084.1999511719</ele>
        <time>2020-02-16T09:27:18.000Z</time>
      </trkpt>
      <trkpt lat="45.3087" lon="6.1806">
        <ele>2084.1999511719</ele>
        <time>2020-02-16T09:27:26.000Z</time>
      </trkpt>
      <trkpt lat="45.30871" lon="6.18057">
        <ele>2084.8000488281</ele>
        <time>2020-02-16T09:27:29.000Z</time>
      </trkpt>
      <trkpt lat="45.30873" lon="6.18054">
        <ele>2085.8000488281</ele>
        <time>2020-02-16T09:27:33.000Z</time>
      </trkpt>
      <trkpt lat="45.30874" lon="6.18053">
        <ele>2086</ele>
        <time>2020-02-16T09:27:34.000Z</time>
      </trkpt>
      <trkpt lat="45.30876" lon="6.1805">
        <ele>2087</ele>
        <time>2020-02-16T09:27:38.000Z</time>
      </trkpt>
      <trkpt lat="45.30877" lon="6.18049">
        <ele>2087.6000976562</ele>
        <time>2020-02-16T09:27:40.000Z</time>
      </trkpt>
      <trkpt lat="45.3088" lon="6.18047">
        <ele>2088</ele>
        <time>2020-02-16T09:27:43.000Z</time>
      </trkpt>
      <trkpt lat="45.30881" lon="6.18045">
        <ele>2088.3999023438</ele>
        <time>2020-02-16T09:27:46.000Z</time>
      </trkpt>
      <trkpt lat="45.30883" lon="6.18042">
        <ele>2089.1999511719</ele>
        <time>2020-02-16T09:27:50.000Z</time>
      </trkpt>
      <trkpt lat="45.30886" lon="6.1804">
        <ele>2090.1999511719</ele>
        <time>2020-02-16T09:27:55.000Z</time>
      </trkpt>
      <trkpt lat="45.30889" lon="6.18035">
        <ele>2091.3999023438</ele>
        <time>2020-02-16T09:28:00.000Z</time>
      </trkpt>
      <trkpt lat="45.30891" lon="6.18033">
        <ele>2092.3999023438</ele>
        <time>2020-02-16T09:28:03.000Z</time>
      </trkpt>
      <trkpt lat="45.30894" lon="6.18031">
        <ele>2093.1999511719</ele>
        <time>2020-02-16T09:28:09.000Z</time>
      </trkpt>
      <trkpt lat="45.30895" lon="6.1803">
        <ele>2093.3999023438</ele>
        <time>2020-02-16T09:28:10.000Z</time>
      </trkpt>
      <trkpt lat="45.309" lon="6.18029">
        <ele>2094.6000976562</ele>
        <time>2020-02-16T09:28:16.000Z</time>
      </trkpt>
      <trkpt lat="45.30902" lon="6.18028">
        <ele>2095.1999511719</ele>
        <time>2020-02-16T09:28:21.000Z</time>
      </trkpt>
      <trkpt lat="45.30903" lon="6.18028">
        <ele>2095.6000976562</ele>
        <time>2020-02-16T09:28:23.000Z</time>
      </trkpt>
      <trkpt lat="45.30906" lon="6.18026">
        <ele>2096.3999023438</ele>
        <time>2020-02-16T09:28:27.000Z</time>
      </trkpt>
      <trkpt lat="45.30908" lon="6.18026">
        <ele>2096.8000488281</ele>
        <time>2020-02-16T09:28:29.000Z</time>
      </trkpt>
      <trkpt lat="45.30911" lon="6.18024">
        <ele>2098</ele>
        <time>2020-02-16T09:28:34.000Z</time>
      </trkpt>
      <trkpt lat="45.30915" lon="6.18024">
        <ele>2099</ele>
        <time>2020-02-16T09:28:40.000Z</time>
      </trkpt>
      <trkpt lat="45.30919" lon="6.18024">
        <ele>2100</ele>
        <time>2020-02-16T09:28:46.000Z</time>
      </trkpt>
      <trkpt lat="45.3092" lon="6.18023">
        <ele>2100.1999511719</ele>
        <time>2020-02-16T09:28:48.000Z</time>
      </trkpt>
      <trkpt lat="45.30922" lon="6.18024">
        <ele>2101.1999511719</ele>
        <time>2020-02-16T09:28:52.000Z</time>
      </trkpt>
      <trkpt lat="45.30924" lon="6.18023">
        <ele>2102.1999511719</ele>
        <time>2020-02-16T09:28:57.000Z</time>
      </trkpt>
      <trkpt lat="45.30925" lon="6.18022">
        <ele>2102.3999023438</ele>
        <time>2020-02-16T09:28:59.000Z</time>
      </trkpt>
      <trkpt lat="45.30927" lon="6.18021">
        <ele>2103.1999511719</ele>
        <time>2020-02-16T09:29:03.000Z</time>
      </trkpt>
      <trkpt lat="45.30928" lon="6.18021">
        <ele>2103.3999023438</ele>
        <time>2020-02-16T09:29:05.000Z</time>
      </trkpt>
      <trkpt lat="45.30931" lon="6.18018">
        <ele>2104.1999511719</ele>
        <time>2020-02-16T09:29:10.000Z</time>
      </trkpt>
      <trkpt lat="45.30931" lon="6.18018">
        <ele>2104.3999023438</ele>
        <time>2020-02-16T09:29:11.000Z</time>
      </trkpt>
      <trkpt lat="45.30933" lon="6.18015">
        <ele>2105.6000976562</ele>
        <time>2020-02-16T09:29:17.000Z</time>
      </trkpt>
      <trkpt lat="45.30934" lon="6.18014">
        <ele>2106</ele>
        <time>2020-02-16T09:29:19.000Z</time>
      </trkpt>
      <trkpt lat="45.30936" lon="6.18011">
        <ele>2106.6000976562</ele>
        <time>2020-02-16T09:29:23.000Z</time>
      </trkpt>
      <trkpt lat="45.30937" lon="6.1801">
        <ele>2107</ele>
        <time>2020-02-16T09:29:25.000Z</time>
      </trkpt>
      <trkpt lat="45.30939" lon="6.18008">
        <ele>2107.6000976562</ele>
        <time>2020-02-16T09:29:31.000Z</time>
      </trkpt>
      <trkpt lat="45.30939" lon="6.18008">
        <ele>2107.8000488281</ele>
        <time>2020-02-16T09:29:32.000Z</time>
      </trkpt>
      <trkpt lat="45.30939" lon="6.18009">
        <ele>2108</ele>
        <time>2020-02-16T09:29:36.000Z</time>
      </trkpt>
      <trkpt lat="45.3094" lon="6.1801">
        <ele>2109.1999511719</ele>
        <time>2020-02-16T09:29:39.000Z</time>
      </trkpt>
      <trkpt lat="45.3094" lon="6.18011">
        <ele>2110</ele>
        <time>2020-02-16T09:29:42.000Z</time>
      </trkpt>
      <trkpt lat="45.30941" lon="6.18011">
        <ele>2110.3999023438</ele>
        <time>2020-02-16T09:29:44.000Z</time>
      </trkpt>
      <trkpt lat="45.30942" lon="6.18013">
        <ele>2110.8000488281</ele>
        <time>2020-02-16T09:29:47.000Z</time>
      </trkpt>
      <trkpt lat="45.30943" lon="6.18016">
        <ele>2111.3999023438</ele>
        <time>2020-02-16T09:29:51.000Z</time>
      </trkpt>
      <trkpt lat="45.30944" lon="6.18017">
        <ele>2111.8000488281</ele>
        <time>2020-02-16T09:29:53.000Z</time>
      </trkpt>
      <trkpt lat="45.30947" lon="6.1802">
        <ele>2112.6000976562</ele>
        <time>2020-02-16T09:29:59.000Z</time>
      </trkpt>
      <trkpt lat="45.30948" lon="6.18024">
        <ele>2113.6000976562</ele>
        <time>2020-02-16T09:30:04.000Z</time>
      </trkpt>
      <trkpt lat="45.30949" lon="6.18026">
        <ele>2114.1999511719</ele>
        <time>2020-02-16T09:30:07.000Z</time>
      </trkpt>
      <trkpt lat="45.30949" lon="6.18026">
        <ele>2114.6000976562</ele>
        <time>2020-02-16T09:30:09.000Z</time>
      </trkpt>
      <trkpt lat="45.30949" lon="6.18026">
        <ele>2115</ele>
        <time>2020-02-16T09:30:16.000Z</time>
      </trkpt>
      <trkpt lat="45.30953" lon="6.18025">
        <ele>2115.8000488281</ele>
        <time>2020-02-16T09:30:22.000Z</time>
      </trkpt>
      <trkpt lat="45.30957" lon="6.18023">
        <ele>2117.1999511719</ele>
        <time>2020-02-16T09:30:27.000Z</time>
      </trkpt>
      <trkpt lat="45.30957" lon="6.18022">
        <ele>2117.3999023438</ele>
        <time>2020-02-16T09:30:28.000Z</time>
      </trkpt>
      <trkpt lat="45.3096" lon="6.1802">
        <ele>2118.1999511719</ele>
        <time>2020-02-16T09:30:32.000Z</time>
      </trkpt>
      <trkpt lat="45.30961" lon="6.18018">
        <ele>2118.6000976562</ele>
        <time>2020-02-16T09:30:34.000Z</time>
      </trkpt>
      <trkpt lat="45.30964" lon="6.18017">
        <ele>2119.3999023438</ele>
        <time>2020-02-16T09:30:38.000Z</time>
      </trkpt>
      <trkpt lat="45.30964" lon="6.18016">
        <ele>2119.3999023438</ele>
        <time>2020-02-16T09:30:40.000Z</time>
      </trkpt>
      <trkpt lat="45.30966" lon="6.18017">
        <ele>2120.3999023438</ele>
        <time>2020-02-16T09:30:44.000Z</time>
      </trkpt>
      <trkpt lat="45.30966" lon="6.18017">
        <ele>2121.3999023438</ele>
        <time>2020-02-16T09:30:47.000Z</time>
      </trkpt>
      <trkpt lat="45.30966" lon="6.18017">
        <ele>2122.3999023438</ele>
        <time>2020-02-16T09:30:53.000Z</time>
      </trkpt>
      <trkpt lat="45.30966" lon="6.18017">
        <ele>2122.6000976562</ele>
        <time>2020-02-16T09:30:54.000Z</time>
      </trkpt>
      <trkpt lat="45.30966" lon="6.18017">
        <ele>2123.6000976562</ele>
        <time>2020-02-16T09:31:00.000Z</time>
      </trkpt>
      <trkpt lat="45.30966" lon="6.18017">
        <ele>2123.6000976562</ele>
        <time>2020-02-16T09:31:01.000Z</time>
      </trkpt>
      <trkpt lat="45.30966" lon="6.18017">
        <ele>2124</ele>
        <time>2020-02-16T09:31:11.000Z</time>
      </trkpt>
      <trkpt lat="45.30968" lon="6.18019">
        <ele>2124.6000976562</ele>
        <time>2020-02-16T09:31:15.000Z</time>
      </trkpt>
      <trkpt lat="45.30969" lon="6.18021">
        <ele>2125.1999511719</ele>
        <time>2020-02-16T09:31:17.000Z</time>
      </trkpt>
      <trkpt lat="45.30972" lon="6.18024">
        <ele>2125.8000488281</ele>
        <time>2020-02-16T09:31:21.000Z</time>
      </trkpt>
      <trkpt lat="45.30975" lon="6.18028">
        <ele>2126.6000976562</ele>
        <time>2020-02-16T09:31:25.000Z</time>
      </trkpt>
      <trkpt lat="45.30975" lon="6.18028">
        <ele>2126.8000488281</ele>
        <time>2020-02-16T09:31:26.000Z</time>
      </trkpt>
      <trkpt lat="45.30979" lon="6.18031">
        <ele>2128</ele>
        <time>2020-02-16T09:31:30.000Z</time>
      </trkpt>
      <trkpt lat="45.3098" lon="6.18031">
        <ele>2128</ele>
        <time>2020-02-16T09:31:31.000Z</time>
      </trkpt>
      <trkpt lat="45.30984" lon="6.18029">
        <ele>2129</ele>
        <time>2020-02-16T09:31:37.000Z</time>
      </trkpt>
      <trkpt lat="45.30986" lon="6.18027">
        <ele>2130.1999511719</ele>
        <time>2020-02-16T09:31:41.000Z</time>
      </trkpt>
      <trkpt lat="45.30987" lon="6.18026">
        <ele>2130.6000976562</ele>
        <time>2020-02-16T09:31:43.000Z</time>
      </trkpt>
      <trkpt lat="45.30988" lon="6.18024">
        <ele>2131.1999511719</ele>
        <time>2020-02-16T09:31:47.000Z</time>
      </trkpt>
      <trkpt lat="45.30989" lon="6.18022">
        <ele>2131.8000488281</ele>
        <time>2020-02-16T09:31:51.000Z</time>
      </trkpt>
      <trkpt lat="45.30989" lon="6.18021">
        <ele>2132.1999511719</ele>
        <time>2020-02-16T09:31:53.000Z</time>
      </trkpt>
      <trkpt lat="45.3099" lon="6.18017">
        <ele>2133</ele>
        <time>2020-02-16T09:31:58.000Z</time>
      </trkpt>
      <trkpt lat="45.3099" lon="6.18016">
        <ele>2133.1999511719</ele>
        <time>2020-02-16T09:32:00.000Z</time>
      </trkpt>
      <trkpt lat="45.30991" lon="6.18013">
        <ele>2134.3999023438</ele>
        <time>2020-02-16T09:32:04.000Z</time>
      </trkpt>
      <trkpt lat="45.30991" lon="6.18011">
        <ele>2134.6000976562</ele>
        <time>2020-02-16T09:32:05.000Z</time>
      </trkpt>
      <trkpt lat="45.30993" lon="6.18005">
        <ele>2135.3999023438</ele>
        <time>2020-02-16T09:32:11.000Z</time>
      </trkpt>
      <trkpt lat="45.30993" lon="6.18004">
        <ele>2135.3999023438</ele>
        <time>2020-02-16T09:32:13.000Z</time>
      </trkpt>
      <trkpt lat="45.30993" lon="6.18001">
        <ele>2135.8000488281</ele>
        <time>2020-02-16T09:32:17.000Z</time>
      </trkpt>
      <trkpt lat="45.30992" lon="6.17999">
        <ele>2136.3999023438</ele>
        <time>2020-02-16T09:32:20.000Z</time>
      </trkpt>
      <trkpt lat="45.30991" lon="6.17995">
        <ele>2137.3999023438</ele>
        <time>2020-02-16T09:32:25.000Z</time>
      </trkpt>
      <trkpt lat="45.30991" lon="6.17994">
        <ele>2137.6000976562</ele>
        <time>2020-02-16T09:32:26.000Z</time>
      </trkpt>
      <trkpt lat="45.30989" lon="6.17991">
        <ele>2138.6000976562</ele>
        <time>2020-02-16T09:32:31.000Z</time>
      </trkpt>
      <trkpt lat="45.30988" lon="6.1799">
        <ele>2139</ele>
        <time>2020-02-16T09:32:32.000Z</time>
      </trkpt>
      <trkpt lat="45.30988" lon="6.17988">
        <ele>2139.6000976562</ele>
        <time>2020-02-16T09:32:35.000Z</time>
      </trkpt>
      <trkpt lat="45.30988" lon="6.17985">
        <ele>2140</ele>
        <time>2020-02-16T09:32:38.000Z</time>
      </trkpt>
      <trkpt lat="45.30986" lon="6.17981">
        <ele>2140.8000488281</ele>
        <time>2020-02-16T09:32:44.000Z</time>
      </trkpt>
      <trkpt lat="45.30986" lon="6.1798">
        <ele>2141</ele>
        <time>2020-02-16T09:32:45.000Z</time>
      </trkpt>
      <trkpt lat="45.30986" lon="6.17976">
        <ele>2141.8000488281</ele>
        <time>2020-02-16T09:32:49.000Z</time>
      </trkpt>
      <trkpt lat="45.30986" lon="6.17973">
        <ele>2142.3999023438</ele>
        <time>2020-02-16T09:32:52.000Z</time>
      </trkpt>
      <trkpt lat="45.30986" lon="6.17972">
        <ele>2143</ele>
        <time>2020-02-16T09:32:56.000Z</time>
      </trkpt>
      <trkpt lat="45.30986" lon="6.17972">
        <ele>2143.6000976562</ele>
        <time>2020-02-16T09:32:59.000Z</time>
      </trkpt>
      <trkpt lat="45.3099" lon="6.1797">
        <ele>2144.1999511719</ele>
        <time>2020-02-16T09:33:03.000Z</time>
      </trkpt>
      <trkpt lat="45.30991" lon="6.1797">
        <ele>2144.3999023438</ele>
        <time>2020-02-16T09:33:04.000Z</time>
      </trkpt>
      <trkpt lat="45.30988" lon="6.17964">
        <ele>2145.3999023438</ele>
        <time>2020-02-16T09:33:12.000Z</time>
      </trkpt>
      <trkpt lat="45.30985" lon="6.17956">
        <ele>2146.1999511719</ele>
        <time>2020-02-16T09:33:24.000Z</time>
      </trkpt>
      <trkpt lat="45.30986" lon="6.17956">
        <ele>2146.3999023438</ele>
        <time>2020-02-16T09:33:25.000Z</time>
      </trkpt>
      <trkpt lat="45.30987" lon="6.17955">
        <ele>2147.1999511719</ele>
        <time>2020-02-16T09:33:29.000Z</time>
      </trkpt>
      <trkpt lat="45.30987" lon="6.17954">
        <ele>2147.3999023438</ele>
        <time>2020-02-16T09:33:30.000Z</time>
      </trkpt>
      <trkpt lat="45.3099" lon="6.17949">
        <ele>2148.6000976562</ele>
        <time>2020-02-16T09:33:39.000Z</time>
      </trkpt>
      <trkpt lat="45.30989" lon="6.1795">
        <ele>2148.8000488281</ele>
        <time>2020-02-16T09:33:46.000Z</time>
      </trkpt>
      <trkpt lat="45.30991" lon="6.17951">
        <ele>2149.6000976562</ele>
        <time>2020-02-16T09:33:49.000Z</time>
      </trkpt>
      <trkpt lat="45.30992" lon="6.17953">
        <ele>2149.8000488281</ele>
        <time>2020-02-16T09:33:52.000Z</time>
      </trkpt>
      <trkpt lat="45.30996" lon="6.17956">
        <ele>2150.8000488281</ele>
        <time>2020-02-16T09:33:58.000Z</time>
      </trkpt>
      <trkpt lat="45.30997" lon="6.17956">
        <ele>2151</ele>
        <time>2020-02-16T09:33:59.000Z</time>
      </trkpt>
      <trkpt lat="45.31" lon="6.17957">
        <ele>2152.3999023438</ele>
        <time>2020-02-16T09:34:04.000Z</time>
      </trkpt>
      <trkpt lat="45.31001" lon="6.17958">
        <ele>2153</ele>
        <time>2020-02-16T09:34:06.000Z</time>
      </trkpt>
      <trkpt lat="45.31002" lon="6.17959">
        <ele>2153.3999023438</ele>
        <time>2020-02-16T09:34:08.000Z</time>
      </trkpt>
      <trkpt lat="45.31004" lon="6.17961">
        <ele>2154.1999511719</ele>
        <time>2020-02-16T09:34:13.000Z</time>
      </trkpt>
      <trkpt lat="45.31004" lon="6.17962">
        <ele>2154.6000976562</ele>
        <time>2020-02-16T09:34:16.000Z</time>
      </trkpt>
      <trkpt lat="45.31006" lon="6.17963">
        <ele>2154.3999023438</ele>
        <time>2020-02-16T09:34:23.000Z</time>
      </trkpt>
      <trkpt lat="45.31006" lon="6.1796">
        <ele>2155.1999511719</ele>
        <time>2020-02-16T09:34:32.000Z</time>
      </trkpt>
      <trkpt lat="45.31004" lon="6.17954">
        <ele>2155.8000488281</ele>
        <time>2020-02-16T09:34:39.000Z</time>
      </trkpt>
      <trkpt lat="45.31004" lon="6.17953">
        <ele>2156</ele>
        <time>2020-02-16T09:34:40.000Z</time>
      </trkpt>
      <trkpt lat="45.31004" lon="6.17949">
        <ele>2156.8000488281</ele>
        <time>2020-02-16T09:34:44.000Z</time>
      </trkpt>
      <trkpt lat="45.31004" lon="6.17948">
        <ele>2157.3999023438</ele>
        <time>2020-02-16T09:34:46.000Z</time>
      </trkpt>
      <trkpt lat="45.31006" lon="6.17945">
        <ele>2158</ele>
        <time>2020-02-16T09:34:50.000Z</time>
      </trkpt>
      <trkpt lat="45.31006" lon="6.17944">
        <ele>2158.8000488281</ele>
        <time>2020-02-16T09:34:52.000Z</time>
      </trkpt>
      <trkpt lat="45.31007" lon="6.17944">
        <ele>2159</ele>
        <time>2020-02-16T09:34:53.000Z</time>
      </trkpt>
      <trkpt lat="45.31007" lon="6.17942">
        <ele>2159.8000488281</ele>
        <time>2020-02-16T09:34:58.000Z</time>
      </trkpt>
      <trkpt lat="45.31008" lon="6.1794">
        <ele>2160.1999511719</ele>
        <time>2020-02-16T09:35:00.000Z</time>
      </trkpt>
      <trkpt lat="45.31009" lon="6.17938">
        <ele>2160.8000488281</ele>
        <time>2020-02-16T09:35:04.000Z</time>
      </trkpt>
      <trkpt lat="45.3101" lon="6.17936">
        <ele>2161.3999023438</ele>
        <time>2020-02-16T09:35:07.000Z</time>
      </trkpt>
      <trkpt lat="45.31011" lon="6.17934">
        <ele>2162</ele>
        <time>2020-02-16T09:35:10.000Z</time>
      </trkpt>
      <trkpt lat="45.31012" lon="6.17932">
        <ele>2162.3999023438</ele>
        <time>2020-02-16T09:35:12.000Z</time>
      </trkpt>
      <trkpt lat="45.31012" lon="6.1793">
        <ele>2163</ele>
        <time>2020-02-16T09:35:15.000Z</time>
      </trkpt>
      <trkpt lat="45.31013" lon="6.17929">
        <ele>2163.6000976562</ele>
        <time>2020-02-16T09:35:17.000Z</time>
      </trkpt>
      <trkpt lat="45.31013" lon="6.17927">
        <ele>2164.6000976562</ele>
        <time>2020-02-16T09:35:22.000Z</time>
      </trkpt>
      <trkpt lat="45.31013" lon="6.17927">
        <ele>2164.8000488281</ele>
        <time>2020-02-16T09:35:23.000Z</time>
      </trkpt>
      <trkpt lat="45.31013" lon="6.17927">
        <ele>2165.8000488281</ele>
        <time>2020-02-16T09:35:29.000Z</time>
      </trkpt>
      <trkpt lat="45.31013" lon="6.17927">
        <ele>2166</ele>
        <time>2020-02-16T09:35:30.000Z</time>
      </trkpt>
      <trkpt lat="45.31013" lon="6.17927">
        <ele>2167</ele>
        <time>2020-02-16T09:35:34.000Z</time>
      </trkpt>
      <trkpt lat="45.31013" lon="6.17927">
        <ele>2167.1999511719</ele>
        <time>2020-02-16T09:35:36.000Z</time>
      </trkpt>
      <trkpt lat="45.31013" lon="6.17927">
        <ele>2168</ele>
        <time>2020-02-16T09:35:40.000Z</time>
      </trkpt>
      <trkpt lat="45.31013" lon="6.17927">
        <ele>2168.8000488281</ele>
        <time>2020-02-16T09:35:44.000Z</time>
      </trkpt>
      <trkpt lat="45.31013" lon="6.17927">
        <ele>2169.1999511719</ele>
        <time>2020-02-16T09:35:46.000Z</time>
      </trkpt>
      <trkpt lat="45.31013" lon="6.17927">
        <ele>2170.3999023438</ele>
        <time>2020-02-16T09:35:52.000Z</time>
      </trkpt>
      <trkpt lat="45.31013" lon="6.17927">
        <ele>2170.6000976562</ele>
        <time>2020-02-16T09:35:53.000Z</time>
      </trkpt>
      <trkpt lat="45.31013" lon="6.17927">
        <ele>2171.3999023438</ele>
        <time>2020-02-16T09:35:58.000Z</time>
      </trkpt>
      <trkpt lat="45.31013" lon="6.17926">
        <ele>2172</ele>
        <time>2020-02-16T09:36:01.000Z</time>
      </trkpt>
      <trkpt lat="45.31013" lon="6.17926">
        <ele>2172.8000488281</ele>
        <time>2020-02-16T09:36:04.000Z</time>
      </trkpt>
      <trkpt lat="45.31013" lon="6.17924">
        <ele>2173.3999023438</ele>
        <time>2020-02-16T09:36:07.000Z</time>
      </trkpt>
      <trkpt lat="45.31013" lon="6.17918">
        <ele>2174</ele>
        <time>2020-02-16T09:36:10.000Z</time>
      </trkpt>
      <trkpt lat="45.31013" lon="6.17912">
        <ele>2174.6000976562</ele>
        <time>2020-02-16T09:36:13.000Z</time>
      </trkpt>
      <trkpt lat="45.31013" lon="6.17904">
        <ele>2175</ele>
        <time>2020-02-16T09:36:17.000Z</time>
      </trkpt>
      <trkpt lat="45.31013" lon="6.17902">
        <ele>2175.1999511719</ele>
        <time>2020-02-16T09:36:18.000Z</time>
      </trkpt>
      <trkpt lat="45.31013" lon="6.17894">
        <ele>2176</ele>
        <time>2020-02-16T09:36:23.000Z</time>
      </trkpt>
      <trkpt lat="45.31013" lon="6.17891">
        <ele>2176.6000976562</ele>
        <time>2020-02-16T09:36:26.000Z</time>
      </trkpt>
      <trkpt lat="45.31013" lon="6.17889">
        <ele>2177</ele>
        <time>2020-02-16T09:36:28.000Z</time>
      </trkpt>
      <trkpt lat="45.31012" lon="6.17884">
        <ele>2177.8000488281</ele>
        <time>2020-02-16T09:36:33.000Z</time>
      </trkpt>
      <trkpt lat="45.31012" lon="6.17883">
        <ele>2178</ele>
        <time>2020-02-16T09:36:38.000Z</time>
      </trkpt>
      <trkpt lat="45.31012" lon="6.17883">
        <ele>2178</ele>
        <time>2020-02-16T09:36:51.000Z</time>
      </trkpt>
      <trkpt lat="45.31012" lon="6.17883">
        <ele>2177.8000488281</ele>
        <time>2020-02-16T09:36:59.000Z</time>
      </trkpt>
      <trkpt lat="45.31012" lon="6.17883">
        <ele>2178.1999511719</ele>
        <time>2020-02-16T09:37:07.000Z</time>
      </trkpt>
      <trkpt lat="45.31012" lon="6.17883">
        <ele>2178.3999023438</ele>
        <time>2020-02-16T09:37:19.000Z</time>
      </trkpt>
      <trkpt lat="45.31012" lon="6.17883">
        <ele>2178.8000488281</ele>
        <time>2020-02-16T09:37:26.000Z</time>
      </trkpt>
      <trkpt lat="45.31012" lon="6.17883">
        <ele>2179.1999511719</ele>
        <time>2020-02-16T09:37:27.000Z</time>
      </trkpt>
      <trkpt lat="45.31012" lon="6.17883">
        <ele>2180.3999023438</ele>
        <time>2020-02-16T09:37:33.000Z</time>
      </trkpt>
      <trkpt lat="45.31012" lon="6.17883">
        <ele>2181.3999023438</ele>
        <time>2020-02-16T09:37:38.000Z</time>
      </trkpt>
      <trkpt lat="45.31012" lon="6.17883">
        <ele>2182.3999023438</ele>
        <time>2020-02-16T09:37:41.000Z</time>
      </trkpt>
      <trkpt lat="45.31012" lon="6.17883">
        <ele>2183.6000976562</ele>
        <time>2020-02-16T09:37:48.000Z</time>
      </trkpt>
      <trkpt lat="45.31014" lon="6.17871">
        <ele>2184.6000976562</ele>
        <time>2020-02-16T09:37:54.000Z</time>
      </trkpt>
      <trkpt lat="45.31014" lon="6.17868">
        <ele>2185.8000488281</ele>
        <time>2020-02-16T09:37:59.000Z</time>
      </trkpt>
      <trkpt lat="45.31014" lon="6.17868">
        <ele>2186.1999511719</ele>
        <time>2020-02-16T09:38:03.000Z</time>
      </trkpt>
      <trkpt lat="45.31016" lon="6.17861">
        <ele>2186</ele>
        <time>2020-02-16T09:38:10.000Z</time>
      </trkpt>
      <trkpt lat="45.31018" lon="6.17853">
        <ele>2186.8000488281</ele>
        <time>2020-02-16T09:38:14.000Z</time>
      </trkpt>
      <trkpt lat="45.31019" lon="6.17848">
        <ele>2187.3999023438</ele>
        <time>2020-02-16T09:38:17.000Z</time>
      </trkpt>
      <trkpt lat="45.31019" lon="6.17846">
        <ele>2188</ele>
        <time>2020-02-16T09:38:19.000Z</time>
      </trkpt>
      <trkpt lat="45.31022" lon="6.17832">
        <ele>2189</ele>
        <time>2020-02-16T09:38:24.000Z</time>
      </trkpt>
      <trkpt lat="45.31023" lon="6.17826">
        <ele>2190</ele>
        <time>2020-02-16T09:38:28.000Z</time>
      </trkpt>
      <trkpt lat="45.31023" lon="6.17825">
        <ele>2190.1999511719</ele>
        <time>2020-02-16T09:38:30.000Z</time>
      </trkpt>
      <trkpt lat="45.31026" lon="6.17827">
        <ele>2191.1999511719</ele>
        <time>2020-02-16T09:38:35.000Z</time>
      </trkpt>
      <trkpt lat="45.31029" lon="6.1783">
        <ele>2192.3999023438</ele>
        <time>2020-02-16T09:38:40.000Z</time>
      </trkpt>
      <trkpt lat="45.3103" lon="6.17832">
        <ele>2192.6000976562</ele>
        <time>2020-02-16T09:38:42.000Z</time>
      </trkpt>
      <trkpt lat="45.31033" lon="6.17833">
        <ele>2193.3999023438</ele>
        <time>2020-02-16T09:38:46.000Z</time>
      </trkpt>
      <trkpt lat="45.31035" lon="6.17835">
        <ele>2194.1999511719</ele>
        <time>2020-02-16T09:38:49.000Z</time>
      </trkpt>
      <trkpt lat="45.31036" lon="6.17836">
        <ele>2194.6000976562</ele>
        <time>2020-02-16T09:38:51.000Z</time>
      </trkpt>
      <trkpt lat="45.31038" lon="6.17836">
        <ele>2195.3999023438</ele>
        <time>2020-02-16T09:38:55.000Z</time>
      </trkpt>
      <trkpt lat="45.31039" lon="6.17833">
        <ele>2195.6000976562</ele>
        <time>2020-02-16T09:38:58.000Z</time>
      </trkpt>
      <trkpt lat="45.31039" lon="6.17831">
        <ele>2196.1999511719</ele>
        <time>2020-02-16T09:39:00.000Z</time>
      </trkpt>
      <trkpt lat="45.31039" lon="6.1783">
        <ele>2196.8000488281</ele>
        <time>2020-02-16T09:39:03.000Z</time>
      </trkpt>
      <trkpt lat="45.31039" lon="6.17827">
        <ele>2197.6000976562</ele>
        <time>2020-02-16T09:39:07.000Z</time>
      </trkpt>
      <trkpt lat="45.3104" lon="6.17825">
        <ele>2198</ele>
        <time>2020-02-16T09:39:09.000Z</time>
      </trkpt>
      <trkpt lat="45.3104" lon="6.1782">
        <ele>2198.8000488281</ele>
        <time>2020-02-16T09:39:13.000Z</time>
      </trkpt>
      <trkpt lat="45.31041" lon="6.17818">
        <ele>2199.1999511719</ele>
        <time>2020-02-16T09:39:14.000Z</time>
      </trkpt>
      <trkpt lat="45.31041" lon="6.17814">
        <ele>2200.1999511719</ele>
        <time>2020-02-16T09:39:19.000Z</time>
      </trkpt>
      <trkpt lat="45.31042" lon="6.17814">
        <ele>2200.3999023438</ele>
        <time>2020-02-16T09:39:20.000Z</time>
      </trkpt>
      <trkpt lat="45.31042" lon="6.17808">
        <ele>2201.1999511719</ele>
        <time>2020-02-16T09:39:25.000Z</time>
      </trkpt>
      <trkpt lat="45.31041" lon="6.17802">
        <ele>2202</ele>
        <time>2020-02-16T09:39:30.000Z</time>
      </trkpt>
      <trkpt lat="45.31041" lon="6.17801">
        <ele>2202.1999511719</ele>
        <time>2020-02-16T09:39:31.000Z</time>
      </trkpt>
      <trkpt lat="45.31041" lon="6.17797">
        <ele>2203.1999511719</ele>
        <time>2020-02-16T09:39:36.000Z</time>
      </trkpt>
      <trkpt lat="45.31041" lon="6.17796">
        <ele>2203.3999023438</ele>
        <time>2020-02-16T09:39:37.000Z</time>
      </trkpt>
      <trkpt lat="45.3104" lon="6.17792">
        <ele>2204.3999023438</ele>
        <time>2020-02-16T09:39:43.000Z</time>
      </trkpt>
      <trkpt lat="45.31039" lon="6.17791">
        <ele>2204.6000976562</ele>
        <time>2020-02-16T09:39:44.000Z</time>
      </trkpt>
      <trkpt lat="45.31037" lon="6.17789">
        <ele>2205.6000976562</ele>
        <time>2020-02-16T09:39:49.000Z</time>
      </trkpt>
      <trkpt lat="45.31037" lon="6.17789">
        <ele>2205.8000488281</ele>
        <time>2020-02-16T09:39:52.000Z</time>
      </trkpt>
      <trkpt lat="45.31034" lon="6.17781">
        <ele>2206.8000488281</ele>
        <time>2020-02-16T09:39:57.000Z</time>
      </trkpt>
      <trkpt lat="45.31035" lon="6.17781">
        <ele>2207.1999511719</ele>
        <time>2020-02-16T09:39:58.000Z</time>
      </trkpt>
      <trkpt lat="45.31037" lon="6.17792">
        <ele>2207.1999511719</ele>
        <time>2020-02-16T09:40:04.000Z</time>
      </trkpt>
      <trkpt lat="45.31041" lon="6.17791">
        <ele>2207.6000976562</ele>
        <time>2020-02-16T09:40:09.000Z</time>
      </trkpt>
      <trkpt lat="45.31042" lon="6.17792">
        <ele>2208</ele>
        <time>2020-02-16T09:40:10.000Z</time>
      </trkpt>
      <trkpt lat="45.31047" lon="6.17797">
        <ele>2209.1999511719</ele>
        <time>2020-02-16T09:40:15.000Z</time>
      </trkpt>
      <trkpt lat="45.31047" lon="6.17797">
        <ele>2209.6000976562</ele>
        <time>2020-02-16T09:40:16.000Z</time>
      </trkpt>
      <trkpt lat="45.31049" lon="6.178">
        <ele>2210.3999023438</ele>
        <time>2020-02-16T09:40:21.000Z</time>
      </trkpt>
      <trkpt lat="45.31049" lon="6.178">
        <ele>2210.3999023438</ele>
        <time>2020-02-16T09:40:22.000Z</time>
      </trkpt>
      <trkpt lat="45.31051" lon="6.17806">
        <ele>2211.6000976562</ele>
        <time>2020-02-16T09:40:28.000Z</time>
      </trkpt>
      <trkpt lat="45.31055" lon="6.17806">
        <ele>2212.8000488281</ele>
        <time>2020-02-16T09:40:34.000Z</time>
      </trkpt>
      <trkpt lat="45.31057" lon="6.17809">
        <ele>2213.3999023438</ele>
        <time>2020-02-16T09:40:42.000Z</time>
      </trkpt>
      <trkpt lat="45.31057" lon="6.17811">
        <ele>2213.8000488281</ele>
        <time>2020-02-16T09:40:46.000Z</time>
      </trkpt>
      <trkpt lat="45.31056" lon="6.17809">
        <ele>2213.8000488281</ele>
        <time>2020-02-16T09:40:51.000Z</time>
      </trkpt>
      <trkpt lat="45.31056" lon="6.17809">
        <ele>2212.8000488281</ele>
        <time>2020-02-16T09:40:54.000Z</time>
      </trkpt>
      <trkpt lat="45.31055" lon="6.17808">
        <ele>2212.1999511719</ele>
        <time>2020-02-16T09:41:02.000Z</time>
      </trkpt>
      <trkpt lat="45.31055" lon="6.1781">
        <ele>2213</ele>
        <time>2020-02-16T09:41:13.000Z</time>
      </trkpt>
      <trkpt lat="45.31056" lon="6.1781">
        <ele>2213</ele>
        <time>2020-02-16T09:41:21.000Z</time>
      </trkpt>
      <trkpt lat="45.31055" lon="6.17806">
        <ele>2214</ele>
        <time>2020-02-16T09:41:26.000Z</time>
      </trkpt>
      <trkpt lat="45.31056" lon="6.17805">
        <ele>2214.6000976562</ele>
        <time>2020-02-16T09:41:28.000Z</time>
      </trkpt>
      <trkpt lat="45.31057" lon="6.17803">
        <ele>2215</ele>
        <time>2020-02-16T09:41:32.000Z</time>
      </trkpt>
      <trkpt lat="45.31059" lon="6.17799">
        <ele>2215.6000976562</ele>
        <time>2020-02-16T09:41:35.000Z</time>
      </trkpt>
      <trkpt lat="45.3106" lon="6.17797">
        <ele>2216.1999511719</ele>
        <time>2020-02-16T09:41:37.000Z</time>
      </trkpt>
      <trkpt lat="45.31061" lon="6.17793">
        <ele>2217.3999023438</ele>
        <time>2020-02-16T09:41:41.000Z</time>
      </trkpt>
      <trkpt lat="45.31062" lon="6.17788">
        <ele>2218.3999023438</ele>
        <time>2020-02-16T09:41:46.000Z</time>
      </trkpt>
      <trkpt lat="45.31063" lon="6.17785">
        <ele>2218.8000488281</ele>
        <time>2020-02-16T09:41:49.000Z</time>
      </trkpt>
      <trkpt lat="45.31064" lon="6.17783">
        <ele>2219.3999023438</ele>
        <time>2020-02-16T09:41:52.000Z</time>
      </trkpt>
      <trkpt lat="45.31064" lon="6.17779">
        <ele>2220</ele>
        <time>2020-02-16T09:41:55.000Z</time>
      </trkpt>
      <trkpt lat="45.31065" lon="6.17775">
        <ele>2220.6000976562</ele>
        <time>2020-02-16T09:42:00.000Z</time>
      </trkpt>
      <trkpt lat="45.31065" lon="6.17772">
        <ele>2220.6000976562</ele>
        <time>2020-02-16T09:42:02.000Z</time>
      </trkpt>
      <trkpt lat="45.31063" lon="6.17769">
        <ele>2221.3999023438</ele>
        <time>2020-02-16T09:42:07.000Z</time>
      </trkpt>
      <trkpt lat="45.31062" lon="6.17769">
        <ele>2221.6000976562</ele>
        <time>2020-02-16T09:42:08.000Z</time>
      </trkpt>
      <trkpt lat="45.31058" lon="6.17765">
        <ele>2222.3999023438</ele>
        <time>2020-02-16T09:42:13.000Z</time>
      </trkpt>
      <trkpt lat="45.31058" lon="6.17764">
        <ele>2222.8000488281</ele>
        <time>2020-02-16T09:42:15.000Z</time>
      </trkpt>
      <trkpt lat="45.31057" lon="6.17761">
        <ele>2223.8000488281</ele>
        <time>2020-02-16T09:42:19.000Z</time>
      </trkpt>
      <trkpt lat="45.31056" lon="6.17759">
        <ele>2223.8000488281</ele>
        <time>2020-02-16T09:42:21.000Z</time>
      </trkpt>
      <trkpt lat="45.31055" lon="6.17755">
        <ele>2224.8000488281</ele>
        <time>2020-02-16T09:42:25.000Z</time>
      </trkpt>
      <trkpt lat="45.31055" lon="6.17754">
        <ele>2225.1999511719</ele>
        <time>2020-02-16T09:42:26.000Z</time>
      </trkpt>
      <trkpt lat="45.31053" lon="6.17749">
        <ele>2226.3999023438</ele>
        <time>2020-02-16T09:42:31.000Z</time>
      </trkpt>
      <trkpt lat="45.31052" lon="6.17743">
        <ele>2227.3999023438</ele>
        <time>2020-02-16T09:42:37.000Z</time>
      </trkpt>
      <trkpt lat="45.31052" lon="6.17742">
        <ele>2227.6000976562</ele>
        <time>2020-02-16T09:42:38.000Z</time>
      </trkpt>
      <trkpt lat="45.3105" lon="6.17739">
        <ele>2228.6000976562</ele>
        <time>2020-02-16T09:42:44.000Z</time>
      </trkpt>
      <trkpt lat="45.3105" lon="6.17737">
        <ele>2229.1999511719</ele>
        <time>2020-02-16T09:42:46.000Z</time>
      </trkpt>
      <trkpt lat="45.31051" lon="6.17733">
        <ele>2229.6000976562</ele>
        <time>2020-02-16T09:42:49.000Z</time>
      </trkpt>
      <trkpt lat="45.31039" lon="6.17721">
        <ele>2230.6000976562</ele>
        <time>2020-02-16T09:42:54.000Z</time>
      </trkpt>
      <trkpt lat="45.31038" lon="6.17722">
        <ele>2230.8000488281</ele>
        <time>2020-02-16T09:42:55.000Z</time>
      </trkpt>
      <trkpt lat="45.31045" lon="6.17736">
        <ele>2231.1999511719</ele>
        <time>2020-02-16T09:43:03.000Z</time>
      </trkpt>
      <trkpt lat="45.31045" lon="6.17739">
        <ele>2231.8000488281</ele>
        <time>2020-02-16T09:43:11.000Z</time>
      </trkpt>
      <trkpt lat="45.31046" lon="6.1774">
        <ele>2232</ele>
        <time>2020-02-16T09:43:14.000Z</time>
      </trkpt>
      <trkpt lat="45.31048" lon="6.17741">
        <ele>2233.1999511719</ele>
        <time>2020-02-16T09:43:18.000Z</time>
      </trkpt>
      <trkpt lat="45.31051" lon="6.17745">
        <ele>2233.8000488281</ele>
        <time>2020-02-16T09:43:24.000Z</time>
      </trkpt>
      <trkpt lat="45.31054" lon="6.17746">
        <ele>2234.3999023438</ele>
        <time>2020-02-16T09:43:27.000Z</time>
      </trkpt>
      <trkpt lat="45.31054" lon="6.17745">
        <ele>2234.8000488281</ele>
        <time>2020-02-16T09:43:30.000Z</time>
      </trkpt>
      <trkpt lat="45.31055" lon="6.17743">
        <ele>2235.3999023438</ele>
        <time>2020-02-16T09:43:33.000Z</time>
      </trkpt>
      <trkpt lat="45.31057" lon="6.17742">
        <ele>2236.1999511719</ele>
        <time>2020-02-16T09:43:37.000Z</time>
      </trkpt>
      <trkpt lat="45.31057" lon="6.17741">
        <ele>2236.3999023438</ele>
        <time>2020-02-16T09:43:38.000Z</time>
      </trkpt>
      <trkpt lat="45.31059" lon="6.17739">
        <ele>2237.6000976562</ele>
        <time>2020-02-16T09:43:43.000Z</time>
      </trkpt>
      <trkpt lat="45.3106" lon="6.17737">
        <ele>2237.8000488281</ele>
        <time>2020-02-16T09:43:45.000Z</time>
      </trkpt>
      <trkpt lat="45.31062" lon="6.17735">
        <ele>2238.6000976562</ele>
        <time>2020-02-16T09:43:49.000Z</time>
      </trkpt>
      <trkpt lat="45.31063" lon="6.17734">
        <ele>2239</ele>
        <time>2020-02-16T09:43:51.000Z</time>
      </trkpt>
      <trkpt lat="45.31066" lon="6.17731">
        <ele>2239.8000488281</ele>
        <time>2020-02-16T09:43:55.000Z</time>
      </trkpt>
      <trkpt lat="45.31069" lon="6.17729">
        <ele>2240.1999511719</ele>
        <time>2020-02-16T09:43:58.000Z</time>
      </trkpt>
      <trkpt lat="45.31075" lon="6.17728">
        <ele>2240.8000488281</ele>
        <time>2020-02-16T09:44:02.000Z</time>
      </trkpt>
      <trkpt lat="45.31079" lon="6.17728">
        <ele>2240.8000488281</ele>
        <time>2020-02-16T09:44:11.000Z</time>
      </trkpt>
      <trkpt lat="45.31082" lon="6.17727">
        <ele>2241.3999023438</ele>
        <time>2020-02-16T09:44:17.000Z</time>
      </trkpt>
      <trkpt lat="45.31082" lon="6.17727">
        <ele>2241.8000488281</ele>
        <time>2020-02-16T09:44:19.000Z</time>
      </trkpt>
      <trkpt lat="45.31086" lon="6.17727">
        <ele>2242.3999023438</ele>
        <time>2020-02-16T09:44:25.000Z</time>
      </trkpt>
      <trkpt lat="45.31087" lon="6.17724">
        <ele>2243</ele>
        <time>2020-02-16T09:44:29.000Z</time>
      </trkpt>
      <trkpt lat="45.31087" lon="6.17724">
        <ele>2244.1999511719</ele>
        <time>2020-02-16T09:44:35.000Z</time>
      </trkpt>
      <trkpt lat="45.31087" lon="6.17724">
        <ele>2245.1999511719</ele>
        <time>2020-02-16T09:44:40.000Z</time>
      </trkpt>
      <trkpt lat="45.31087" lon="6.17724">
        <ele>2245.3999023438</ele>
        <time>2020-02-16T09:44:41.000Z</time>
      </trkpt>
      <trkpt lat="45.31092" lon="6.17724">
        <ele>2246.1999511719</ele>
        <time>2020-02-16T09:44:45.000Z</time>
      </trkpt>
      <trkpt lat="45.31093" lon="6.17724">
        <ele>2246.3999023438</ele>
        <time>2020-02-16T09:44:46.000Z</time>
      </trkpt>
      <trkpt lat="45.311" lon="6.17724">
        <ele>2247.3999023438</ele>
        <time>2020-02-16T09:44:51.000Z</time>
      </trkpt>
      <trkpt lat="45.31101" lon="6.17724">
        <ele>2247.6000976562</ele>
        <time>2020-02-16T09:44:52.000Z</time>
      </trkpt>
      <trkpt lat="45.31105" lon="6.17725">
        <ele>2248.6000976562</ele>
        <time>2020-02-16T09:44:55.000Z</time>
      </trkpt>
      <trkpt lat="45.31108" lon="6.17727">
        <ele>2249.1999511719</ele>
        <time>2020-02-16T09:44:58.000Z</time>
      </trkpt>
      <trkpt lat="45.31109" lon="6.17727">
        <ele>2249.6000976562</ele>
        <time>2020-02-16T09:45:00.000Z</time>
      </trkpt>
      <trkpt lat="45.31109" lon="6.17727">
        <ele>2250.6000976562</ele>
        <time>2020-02-16T09:45:04.000Z</time>
      </trkpt>
      <trkpt lat="45.31109" lon="6.17727">
        <ele>2250.8000488281</ele>
        <time>2020-02-16T09:45:05.000Z</time>
      </trkpt>
      <trkpt lat="45.31112" lon="6.17726">
        <ele>2251.3999023438</ele>
        <time>2020-02-16T09:45:09.000Z</time>
      </trkpt>
      <trkpt lat="45.31113" lon="6.17726">
        <ele>2251.8000488281</ele>
        <time>2020-02-16T09:45:11.000Z</time>
      </trkpt>
      <trkpt lat="45.31117" lon="6.17723">
        <ele>2252.8000488281</ele>
        <time>2020-02-16T09:45:16.000Z</time>
      </trkpt>
      <trkpt lat="45.31117" lon="6.17722">
        <ele>2253</ele>
        <time>2020-02-16T09:45:17.000Z</time>
      </trkpt>
      <trkpt lat="45.3112" lon="6.17721">
        <ele>2254</ele>
        <time>2020-02-16T09:45:21.000Z</time>
      </trkpt>
      <trkpt lat="45.31122" lon="6.1772">
        <ele>2254.3999023438</ele>
        <time>2020-02-16T09:45:23.000Z</time>
      </trkpt>
      <trkpt lat="45.31123" lon="6.17718">
        <ele>2255.1999511719</ele>
        <time>2020-02-16T09:45:26.000Z</time>
      </trkpt>
      <trkpt lat="45.31125" lon="6.17715">
        <ele>2255.8000488281</ele>
        <time>2020-02-16T09:45:30.000Z</time>
      </trkpt>
      <trkpt lat="45.31126" lon="6.17714">
        <ele>2256.1999511719</ele>
        <time>2020-02-16T09:45:32.000Z</time>
      </trkpt>
      <trkpt lat="45.31129" lon="6.17713">
        <ele>2257.6000976562</ele>
        <time>2020-02-16T09:45:37.000Z</time>
      </trkpt>
      <trkpt lat="45.31132" lon="6.17711">
        <ele>2258.8000488281</ele>
        <time>2020-02-16T09:45:42.000Z</time>
      </trkpt>
      <trkpt lat="45.31133" lon="6.17709">
        <ele>2259.3999023438</ele>
        <time>2020-02-16T09:45:45.000Z</time>
      </trkpt>
      <trkpt lat="45.31134" lon="6.17708">
        <ele>2259.8000488281</ele>
        <time>2020-02-16T09:45:47.000Z</time>
      </trkpt>
      <trkpt lat="45.31136" lon="6.17702">
        <ele>2260.8000488281</ele>
        <time>2020-02-16T09:45:52.000Z</time>
      </trkpt>
      <trkpt lat="45.31137" lon="6.17702">
        <ele>2261</ele>
        <time>2020-02-16T09:45:53.000Z</time>
      </trkpt>
      <trkpt lat="45.31139" lon="6.17699">
        <ele>2262</ele>
        <time>2020-02-16T09:45:58.000Z</time>
      </trkpt>
      <trkpt lat="45.31139" lon="6.17698">
        <ele>2262.1999511719</ele>
        <time>2020-02-16T09:45:59.000Z</time>
      </trkpt>
      <trkpt lat="45.31139" lon="6.17698">
        <ele>2263.6000976562</ele>
        <time>2020-02-16T09:46:06.000Z</time>
      </trkpt>
      <trkpt lat="45.31139" lon="6.17698">
        <ele>2263.8000488281</ele>
        <time>2020-02-16T09:46:08.000Z</time>
      </trkpt>
      <trkpt lat="45.31139" lon="6.17698">
        <ele>2264.6000976562</ele>
        <time>2020-02-16T09:46:13.000Z</time>
      </trkpt>
      <trkpt lat="45.31139" lon="6.17698">
        <ele>2265</ele>
        <time>2020-02-16T09:46:14.000Z</time>
      </trkpt>
      <trkpt lat="45.31139" lon="6.17698">
        <ele>2265.8000488281</ele>
        <time>2020-02-16T09:46:21.000Z</time>
      </trkpt>
      <trkpt lat="45.31139" lon="6.17698">
        <ele>2266.8000488281</ele>
        <time>2020-02-16T09:46:26.000Z</time>
      </trkpt>
      <trkpt lat="45.31139" lon="6.17698">
        <ele>2267.8000488281</ele>
        <time>2020-02-16T09:46:29.000Z</time>
      </trkpt>
      <trkpt lat="45.31139" lon="6.17698">
        <ele>2268.1999511719</ele>
        <time>2020-02-16T09:46:30.000Z</time>
      </trkpt>
      <trkpt lat="45.31139" lon="6.17698">
        <ele>2268.8000488281</ele>
        <time>2020-02-16T09:46:35.000Z</time>
      </trkpt>
      <trkpt lat="45.31141" lon="6.177">
        <ele>2269.3999023438</ele>
        <time>2020-02-16T09:46:38.000Z</time>
      </trkpt>
      <trkpt lat="45.31141" lon="6.17701">
        <ele>2269.8000488281</ele>
        <time>2020-02-16T09:46:41.000Z</time>
      </trkpt>
      <trkpt lat="45.31142" lon="6.17702">
        <ele>2269.8000488281</ele>
        <time>2020-02-16T09:46:52.000Z</time>
      </trkpt>
      <trkpt lat="45.31146" lon="6.17706">
        <ele>2270.3999023438</ele>
        <time>2020-02-16T09:46:58.000Z</time>
      </trkpt>
      <trkpt lat="45.31146" lon="6.17706">
        <ele>2270.8000488281</ele>
        <time>2020-02-16T09:46:59.000Z</time>
      </trkpt>
      <trkpt lat="45.31146" lon="6.17706">
        <ele>2271</ele>
        <time>2020-02-16T09:47:08.000Z</time>
      </trkpt>
      <trkpt lat="45.31146" lon="6.17706">
        <ele>2271.6000976562</ele>
        <time>2020-02-16T09:47:11.000Z</time>
      </trkpt>
      <trkpt lat="45.31148" lon="6.17704">
        <ele>2272.1999511719</ele>
        <time>2020-02-16T09:47:15.000Z</time>
      </trkpt>
      <trkpt lat="45.31151" lon="6.17701">
        <ele>2272.6000976562</ele>
        <time>2020-02-16T09:47:19.000Z</time>
      </trkpt>
      <trkpt lat="45.31151" lon="6.17701">
        <ele>2272.8000488281</ele>
        <time>2020-02-16T09:47:20.000Z</time>
      </trkpt>
      <trkpt lat="45.31154" lon="6.17698">
        <ele>2273.8000488281</ele>
        <time>2020-02-16T09:47:25.000Z</time>
      </trkpt>
      <trkpt lat="45.31158" lon="6.17699">
        <ele>2273.8000488281</ele>
        <time>2020-02-16T09:47:26.000Z</time>
      </trkpt>
      <trkpt lat="45.31161" lon="6.17695">
        <ele>2275</ele>
        <time>2020-02-16T09:47:31.000Z</time>
      </trkpt>
      <trkpt lat="45.31162" lon="6.17694">
        <ele>2275.1999511719</ele>
        <time>2020-02-16T09:47:32.000Z</time>
      </trkpt>
      <trkpt lat="45.31164" lon="6.17691">
        <ele>2276.1999511719</ele>
        <time>2020-02-16T09:47:38.000Z</time>
      </trkpt>
      <trkpt lat="45.31165" lon="6.1769">
        <ele>2276.1999511719</ele>
        <time>2020-02-16T09:47:39.000Z</time>
      </trkpt>
      <trkpt lat="45.31166" lon="6.17687">
        <ele>2277.1999511719</ele>
        <time>2020-02-16T09:47:42.000Z</time>
      </trkpt>
      <trkpt lat="45.31169" lon="6.17684">
        <ele>2277.8000488281</ele>
        <time>2020-02-16T09:47:46.000Z</time>
      </trkpt>
      <trkpt lat="45.3117" lon="6.17681">
        <ele>2278.1999511719</ele>
        <time>2020-02-16T09:47:50.000Z</time>
      </trkpt>
      <trkpt lat="45.31171" lon="6.17678">
        <ele>2278.8000488281</ele>
        <time>2020-02-16T09:47:53.000Z</time>
      </trkpt>
      <trkpt lat="45.31172" lon="6.17676">
        <ele>2279.3999023438</ele>
        <time>2020-02-16T09:47:56.000Z</time>
      </trkpt>
      <trkpt lat="45.31173" lon="6.17674">
        <ele>2280</ele>
        <time>2020-02-16T09:48:01.000Z</time>
      </trkpt>
      <trkpt lat="45.31173" lon="6.17673">
        <ele>2280.6000976562</ele>
        <time>2020-02-16T09:48:04.000Z</time>
      </trkpt>
      <trkpt lat="45.31174" lon="6.17674">
        <ele>2281.8000488281</ele>
        <time>2020-02-16T09:48:10.000Z</time>
      </trkpt>
      <trkpt lat="45.31176" lon="6.17677">
        <ele>2282.6000976562</ele>
        <time>2020-02-16T09:48:16.000Z</time>
      </trkpt>
      <trkpt lat="45.31177" lon="6.17678">
        <ele>2282.8000488281</ele>
        <time>2020-02-16T09:48:19.000Z</time>
      </trkpt>
      <trkpt lat="45.31178" lon="6.1768">
        <ele>2283.6000976562</ele>
        <time>2020-02-16T09:48:23.000Z</time>
      </trkpt>
      <trkpt lat="45.3118" lon="6.1768">
        <ele>2284</ele>
        <time>2020-02-16T09:48:25.000Z</time>
      </trkpt>
      <trkpt lat="45.31183" lon="6.17683">
        <ele>2285</ele>
        <time>2020-02-16T09:48:30.000Z</time>
      </trkpt>
      <trkpt lat="45.31189" lon="6.17686">
        <ele>2284.8000488281</ele>
        <time>2020-02-16T09:48:36.000Z</time>
      </trkpt>
      <trkpt lat="45.31193" lon="6.17687">
        <ele>2284.8000488281</ele>
        <time>2020-02-16T09:48:41.000Z</time>
      </trkpt>
      <trkpt lat="45.31195" lon="6.17688">
        <ele>2284.8000488281</ele>
        <time>2020-02-16T09:48:46.000Z</time>
      </trkpt>
      <trkpt lat="45.31196" lon="6.17688">
        <ele>2285</ele>
        <time>2020-02-16T09:48:48.000Z</time>
      </trkpt>
      <trkpt lat="45.31197" lon="6.17688">
        <ele>2285.6000976562</ele>
        <time>2020-02-16T09:48:55.000Z</time>
      </trkpt>
      <trkpt lat="45.312" lon="6.17689">
        <ele>2285.6000976562</ele>
        <time>2020-02-16T09:49:05.000Z</time>
      </trkpt>
      <trkpt lat="45.312" lon="6.1769">
        <ele>2285.3999023438</ele>
        <time>2020-02-16T09:49:19.000Z</time>
      </trkpt>
      <trkpt lat="45.312" lon="6.1769">
        <ele>2285.3999023438</ele>
        <time>2020-02-16T09:49:37.000Z</time>
      </trkpt>
      <trkpt lat="45.312" lon="6.17689">
        <ele>2285.6000976562</ele>
        <time>2020-02-16T09:49:56.000Z</time>
      </trkpt>
      <trkpt lat="45.312" lon="6.17689">
        <ele>2286</ele>
        <time>2020-02-16T09:50:13.000Z</time>
      </trkpt>
      <trkpt lat="45.312" lon="6.17689">
        <ele>2286.1999511719</ele>
        <time>2020-02-16T09:50:18.000Z</time>
      </trkpt>
      <trkpt lat="45.312" lon="6.17689">
        <ele>2286.3999023438</ele>
        <time>2020-02-16T09:50:23.000Z</time>
      </trkpt>
      <trkpt lat="45.312" lon="6.17688">
        <ele>2286.1999511719</ele>
        <time>2020-02-16T09:50:34.000Z</time>
      </trkpt>
      <trkpt lat="45.312" lon="6.17688">
        <ele>2286.1999511719</ele>
        <time>2020-02-16T09:50:47.000Z</time>
      </trkpt>
      <trkpt lat="45.312" lon="6.17688">
        <ele>2286.1999511719</ele>
        <time>2020-02-16T09:50:59.000Z</time>
      </trkpt>
      <trkpt lat="45.31201" lon="6.17689">
        <ele>2286</ele>
        <time>2020-02-16T09:51:14.000Z</time>
      </trkpt>
      <trkpt lat="45.31201" lon="6.17689">
        <ele>2285.8000488281</ele>
        <time>2020-02-16T09:51:27.000Z</time>
      </trkpt>
      <trkpt lat="45.31203" lon="6.17687">
        <ele>2285.8000488281</ele>
        <time>2020-02-16T09:51:34.000Z</time>
      </trkpt>
      <trkpt lat="45.31206" lon="6.17686">
        <ele>2286.3999023438</ele>
        <time>2020-02-16T09:51:38.000Z</time>
      </trkpt>
      <trkpt lat="45.31209" lon="6.17684">
        <ele>2287</ele>
        <time>2020-02-16T09:51:43.000Z</time>
      </trkpt>
      <trkpt lat="45.31211" lon="6.17683">
        <ele>2287.3999023438</ele>
        <time>2020-02-16T09:51:45.000Z</time>
      </trkpt>
      <trkpt lat="45.31214" lon="6.17681">
        <ele>2288.1999511719</ele>
        <time>2020-02-16T09:51:49.000Z</time>
      </trkpt>
      <trkpt lat="45.31214" lon="6.17681">
        <ele>2288.3999023438</ele>
        <time>2020-02-16T09:51:50.000Z</time>
      </trkpt>
      <trkpt lat="45.31218" lon="6.17681">
        <ele>2289.1999511719</ele>
        <time>2020-02-16T09:51:55.000Z</time>
      </trkpt>
      <trkpt lat="45.31219" lon="6.1768">
        <ele>2289.3999023438</ele>
        <time>2020-02-16T09:51:57.000Z</time>
      </trkpt>
      <trkpt lat="45.31221" lon="6.1768">
        <ele>2290</ele>
        <time>2020-02-16T09:52:00.000Z</time>
      </trkpt>
      <trkpt lat="45.31223" lon="6.17679">
        <ele>2290.6000976562</ele>
        <time>2020-02-16T09:52:04.000Z</time>
      </trkpt>
      <trkpt lat="45.31224" lon="6.17678">
        <ele>2291</ele>
        <time>2020-02-16T09:52:06.000Z</time>
      </trkpt>
      <trkpt lat="45.31227" lon="6.17677">
        <ele>2291.6000976562</ele>
        <time>2020-02-16T09:52:10.000Z</time>
      </trkpt>
      <trkpt lat="45.31228" lon="6.17677">
        <ele>2291.8000488281</ele>
        <time>2020-02-16T09:52:12.000Z</time>
      </trkpt>
      <trkpt lat="45.31235" lon="6.17675">
        <ele>2292.3999023438</ele>
        <time>2020-02-16T09:52:20.000Z</time>
      </trkpt>
      <trkpt lat="45.31236" lon="6.17675">
        <ele>2292.8000488281</ele>
        <time>2020-02-16T09:52:23.000Z</time>
      </trkpt>
      <trkpt lat="45.31237" lon="6.17674">
        <ele>2293</ele>
        <time>2020-02-16T09:52:25.000Z</time>
      </trkpt>
      <trkpt lat="45.31241" lon="6.17672">
        <ele>2293.8000488281</ele>
        <time>2020-02-16T09:52:31.000Z</time>
      </trkpt>
      <trkpt lat="45.31245" lon="6.17668">
        <ele>2294.6000976562</ele>
        <time>2020-02-16T09:52:38.000Z</time>
      </trkpt>
      <trkpt lat="45.31246" lon="6.17668">
        <ele>2294.8000488281</ele>
        <time>2020-02-16T09:52:40.000Z</time>
      </trkpt>
      <trkpt lat="45.31249" lon="6.17665">
        <ele>2295.3999023438</ele>
        <time>2020-02-16T09:52:45.000Z</time>
      </trkpt>
      <trkpt lat="45.31253" lon="6.17663">
        <ele>2295.8000488281</ele>
        <time>2020-02-16T09:52:50.000Z</time>
      </trkpt>
      <trkpt lat="45.31253" lon="6.17663">
        <ele>2296.1999511719</ele>
        <time>2020-02-16T09:52:52.000Z</time>
      </trkpt>
      <trkpt lat="45.31257" lon="6.17659">
        <ele>2296.6000976562</ele>
        <time>2020-02-16T09:52:59.000Z</time>
      </trkpt>
      <trkpt lat="45.31258" lon="6.17656">
        <ele>2296.8000488281</ele>
        <time>2020-02-16T09:53:02.000Z</time>
      </trkpt>
      <trkpt lat="45.31261" lon="6.17653">
        <ele>2297.3999023438</ele>
        <time>2020-02-16T09:53:06.000Z</time>
      </trkpt>
      <trkpt lat="45.31265" lon="6.17651">
        <ele>2298</ele>
        <time>2020-02-16T09:53:11.000Z</time>
      </trkpt>
      <trkpt lat="45.31267" lon="6.1765">
        <ele>2298.1999511719</ele>
        <time>2020-02-16T09:53:13.000Z</time>
      </trkpt>
      <trkpt lat="45.31271" lon="6.17648">
        <ele>2299</ele>
        <time>2020-02-16T09:53:18.000Z</time>
      </trkpt>
      <trkpt lat="45.31273" lon="6.17647">
        <ele>2299.1999511719</ele>
        <time>2020-02-16T09:53:19.000Z</time>
      </trkpt>
      <trkpt lat="45.31275" lon="6.17646">
        <ele>2299.6000976562</ele>
        <time>2020-02-16T09:53:22.000Z</time>
      </trkpt>
      <trkpt lat="45.31277" lon="6.17646">
        <ele>2300</ele>
        <time>2020-02-16T09:53:25.000Z</time>
      </trkpt>
      <trkpt lat="45.3128" lon="6.17645">
        <ele>2300.1999511719</ele>
        <time>2020-02-16T09:53:27.000Z</time>
      </trkpt>
      <trkpt lat="45.31281" lon="6.17644">
        <ele>2300.8000488281</ele>
        <time>2020-02-16T09:53:31.000Z</time>
      </trkpt>
      <trkpt lat="45.31281" lon="6.17644">
        <ele>2301.1999511719</ele>
        <time>2020-02-16T09:53:33.000Z</time>
      </trkpt>
      <trkpt lat="45.31283" lon="6.17644">
        <ele>2301.6000976562</ele>
        <time>2020-02-16T09:53:37.000Z</time>
      </trkpt>
      <trkpt lat="45.31286" lon="6.17643">
        <ele>2302.1999511719</ele>
        <time>2020-02-16T09:53:42.000Z</time>
      </trkpt>
      <trkpt lat="45.31286" lon="6.17643">
        <ele>2302.3999023438</ele>
        <time>2020-02-16T09:53:43.000Z</time>
      </trkpt>
      <trkpt lat="45.31288" lon="6.17641">
        <ele>2302.8000488281</ele>
        <time>2020-02-16T09:53:47.000Z</time>
      </trkpt>
      <trkpt lat="45.31292" lon="6.17639">
        <ele>2303.6000976562</ele>
        <time>2020-02-16T09:53:51.000Z</time>
      </trkpt>
      <trkpt lat="45.31293" lon="6.17638">
        <ele>2304</ele>
        <time>2020-02-16T09:53:54.000Z</time>
      </trkpt>
      <trkpt lat="45.31296" lon="6.17634">
        <ele>2304.6000976562</ele>
        <time>2020-02-16T09:53:59.000Z</time>
      </trkpt>
      <trkpt lat="45.31297" lon="6.17632">
        <ele>2305.1999511719</ele>
        <time>2020-02-16T09:54:01.000Z</time>
      </trkpt>
      <trkpt lat="45.31299" lon="6.17629">
        <ele>2305.8000488281</ele>
        <time>2020-02-16T09:54:04.000Z</time>
      </trkpt>
      <trkpt lat="45.31299" lon="6.17628">
        <ele>2306.3999023438</ele>
        <time>2020-02-16T09:54:06.000Z</time>
      </trkpt>
      <trkpt lat="45.31301" lon="6.17623">
        <ele>2307</ele>
        <time>2020-02-16T09:54:11.000Z</time>
      </trkpt>
      <trkpt lat="45.31302" lon="6.17621">
        <ele>2307.1999511719</ele>
        <time>2020-02-16T09:54:13.000Z</time>
      </trkpt>
      <trkpt lat="45.31304" lon="6.17616">
        <ele>2308</ele>
        <time>2020-02-16T09:54:17.000Z</time>
      </trkpt>
      <trkpt lat="45.31304" lon="6.17615">
        <ele>2308.1999511719</ele>
        <time>2020-02-16T09:54:19.000Z</time>
      </trkpt>
      <trkpt lat="45.31305" lon="6.17611">
        <ele>2309</ele>
        <time>2020-02-16T09:54:23.000Z</time>
      </trkpt>
      <trkpt lat="45.31305" lon="6.1761">
        <ele>2309.1999511719</ele>
        <time>2020-02-16T09:54:25.000Z</time>
      </trkpt>
      <trkpt lat="45.31304" lon="6.17605">
        <ele>2310.1999511719</ele>
        <time>2020-02-16T09:54:30.000Z</time>
      </trkpt>
      <trkpt lat="45.31304" lon="6.17605">
        <ele>2310.1999511719</ele>
        <time>2020-02-16T09:54:31.000Z</time>
      </trkpt>
      <trkpt lat="45.31305" lon="6.17598">
        <ele>2310.8000488281</ele>
        <time>2020-02-16T09:54:37.000Z</time>
      </trkpt>
      <trkpt lat="45.31305" lon="6.17596">
        <ele>2311.1999511719</ele>
        <time>2020-02-16T09:54:39.000Z</time>
      </trkpt>
      <trkpt lat="45.31305" lon="6.17593">
        <ele>2311.8000488281</ele>
        <time>2020-02-16T09:54:42.000Z</time>
      </trkpt>
      <trkpt lat="45.31306" lon="6.17589">
        <ele>2312.3999023438</ele>
        <time>2020-02-16T09:54:45.000Z</time>
      </trkpt>
      <trkpt lat="45.31305" lon="6.17589">
        <ele>2312.8000488281</ele>
        <time>2020-02-16T09:54:48.000Z</time>
      </trkpt>
      <trkpt lat="45.31303" lon="6.17585">
        <ele>2313.3999023438</ele>
        <time>2020-02-16T09:54:53.000Z</time>
      </trkpt>
      <trkpt lat="45.31303" lon="6.1758">
        <ele>2314.1999511719</ele>
        <time>2020-02-16T09:54:58.000Z</time>
      </trkpt>
      <trkpt lat="45.31302" lon="6.17578">
        <ele>2314.6000976562</ele>
        <time>2020-02-16T09:55:01.000Z</time>
      </trkpt>
      <trkpt lat="45.31302" lon="6.17575">
        <ele>2315.1999511719</ele>
        <time>2020-02-16T09:55:04.000Z</time>
      </trkpt>
      <trkpt lat="45.31304" lon="6.17574">
        <ele>2315.8000488281</ele>
        <time>2020-02-16T09:55:07.000Z</time>
      </trkpt>
      <trkpt lat="45.31306" lon="6.17573">
        <ele>2316.3999023438</ele>
        <time>2020-02-16T09:55:10.000Z</time>
      </trkpt>
      <trkpt lat="45.31307" lon="6.17573">
        <ele>2316.8000488281</ele>
        <time>2020-02-16T09:55:12.000Z</time>
      </trkpt>
      <trkpt lat="45.3131" lon="6.17574">
        <ele>2317</ele>
        <time>2020-02-16T09:55:15.000Z</time>
      </trkpt>
      <trkpt lat="45.31312" lon="6.17575">
        <ele>2317.1999511719</ele>
        <time>2020-02-16T09:55:17.000Z</time>
      </trkpt>
      <trkpt lat="45.31312" lon="6.17575">
        <ele>2317.8000488281</ele>
        <time>2020-02-16T09:55:20.000Z</time>
      </trkpt>
      <trkpt lat="45.31314" lon="6.17576">
        <ele>2318.3999023438</ele>
        <time>2020-02-16T09:55:23.000Z</time>
      </trkpt>
      <trkpt lat="45.31315" lon="6.17576">
        <ele>2318.8000488281</ele>
        <time>2020-02-16T09:55:25.000Z</time>
      </trkpt>
      <trkpt lat="45.31317" lon="6.17577">
        <ele>2319.8000488281</ele>
        <time>2020-02-16T09:55:29.000Z</time>
      </trkpt>
      <trkpt lat="45.31317" lon="6.17577">
        <ele>2319.8000488281</ele>
        <time>2020-02-16T09:55:30.000Z</time>
      </trkpt>
      <trkpt lat="45.3132" lon="6.17575">
        <ele>2320.6000976562</ele>
        <time>2020-02-16T09:55:35.000Z</time>
      </trkpt>
      <trkpt lat="45.31321" lon="6.17575">
        <ele>2321</ele>
        <time>2020-02-16T09:55:37.000Z</time>
      </trkpt>
      <trkpt lat="45.31323" lon="6.17575">
        <ele>2321.8000488281</ele>
        <time>2020-02-16T09:55:42.000Z</time>
      </trkpt>
      <trkpt lat="45.31323" lon="6.17575">
        <ele>2322.1999511719</ele>
        <time>2020-02-16T09:55:43.000Z</time>
      </trkpt>
      <trkpt lat="45.31323" lon="6.17575">
        <ele>2322.6000976562</ele>
        <time>2020-02-16T09:55:54.000Z</time>
      </trkpt>
      <trkpt lat="45.31325" lon="6.17574">
        <ele>2322.6000976562</ele>
        <time>2020-02-16T09:56:03.000Z</time>
      </trkpt>
      <trkpt lat="45.31331" lon="6.17577">
        <ele>2323</ele>
        <time>2020-02-16T09:56:09.000Z</time>
      </trkpt>
      <trkpt lat="45.31336" lon="6.17578">
        <ele>2323</ele>
        <time>2020-02-16T09:56:15.000Z</time>
      </trkpt>
      <trkpt lat="45.3134" lon="6.17578">
        <ele>2323.1999511719</ele>
        <time>2020-02-16T09:56:20.000Z</time>
      </trkpt>
      <trkpt lat="45.31343" lon="6.17578">
        <ele>2323.3999023438</ele>
        <time>2020-02-16T09:56:27.000Z</time>
      </trkpt>
      <trkpt lat="45.31344" lon="6.17578">
        <ele>2323.6000976562</ele>
        <time>2020-02-16T09:56:37.000Z</time>
      </trkpt>
      <trkpt lat="45.3135" lon="6.17578">
        <ele>2324</ele>
        <time>2020-02-16T09:56:43.000Z</time>
      </trkpt>
      <trkpt lat="45.3135" lon="6.17578">
        <ele>2324.1999511719</ele>
        <time>2020-02-16T09:56:44.000Z</time>
      </trkpt>
      <trkpt lat="45.31356" lon="6.17577">
        <ele>2325</ele>
        <time>2020-02-16T09:56:50.000Z</time>
      </trkpt>
      <trkpt lat="45.31356" lon="6.17576">
        <ele>2325.3999023438</ele>
        <time>2020-02-16T09:56:52.000Z</time>
      </trkpt>
      <trkpt lat="45.31359" lon="6.17574">
        <ele>2325.8000488281</ele>
        <time>2020-02-16T09:56:56.000Z</time>
      </trkpt>
      <trkpt lat="45.31363" lon="6.17572">
        <ele>2326.3999023438</ele>
        <time>2020-02-16T09:57:01.000Z</time>
      </trkpt>
      <trkpt lat="45.31367" lon="6.17572">
        <ele>2327</ele>
        <time>2020-02-16T09:57:06.000Z</time>
      </trkpt>
      <trkpt lat="45.31369" lon="6.17571">
        <ele>2327.6000976562</ele>
        <time>2020-02-16T09:57:10.000Z</time>
      </trkpt>
      <trkpt lat="45.31371" lon="6.17571">
        <ele>2327.8000488281</ele>
        <time>2020-02-16T09:57:12.000Z</time>
      </trkpt>
      <trkpt lat="45.31374" lon="6.17571">
        <ele>2328.6000976562</ele>
        <time>2020-02-16T09:57:17.000Z</time>
      </trkpt>
      <trkpt lat="45.31377" lon="6.17571">
        <ele>2329.3999023438</ele>
        <time>2020-02-16T09:57:22.000Z</time>
      </trkpt>
      <trkpt lat="45.31378" lon="6.17571">
        <ele>2329.6000976562</ele>
        <time>2020-02-16T09:57:24.000Z</time>
      </trkpt>
      <trkpt lat="45.31379" lon="6.17571">
        <ele>2330</ele>
        <time>2020-02-16T09:57:27.000Z</time>
      </trkpt>
      <trkpt lat="45.31381" lon="6.1757">
        <ele>2330.8000488281</ele>
        <time>2020-02-16T09:57:32.000Z</time>
      </trkpt>
      <trkpt lat="45.31383" lon="6.17568">
        <ele>2331.3999023438</ele>
        <time>2020-02-16T09:57:39.000Z</time>
      </trkpt>
      <trkpt lat="45.31385" lon="6.17566">
        <ele>2332</ele>
        <time>2020-02-16T09:57:43.000Z</time>
      </trkpt>
      <trkpt lat="45.31386" lon="6.17566">
        <ele>2332.1999511719</ele>
        <time>2020-02-16T09:57:44.000Z</time>
      </trkpt>
      <trkpt lat="45.31387" lon="6.17566">
        <ele>2333.1999511719</ele>
        <time>2020-02-16T09:57:48.000Z</time>
      </trkpt>
      <trkpt lat="45.31387" lon="6.17566">
        <ele>2333.3999023438</ele>
        <time>2020-02-16T09:57:51.000Z</time>
      </trkpt>
      <trkpt lat="45.31389" lon="6.17565">
        <ele>2333.3999023438</ele>
        <time>2020-02-16T09:57:59.000Z</time>
      </trkpt>
      <trkpt lat="45.31392" lon="6.17562">
        <ele>2334.1999511719</ele>
        <time>2020-02-16T09:58:05.000Z</time>
      </trkpt>
      <trkpt lat="45.31393" lon="6.17561">
        <ele>2334.3999023438</ele>
        <time>2020-02-16T09:58:06.000Z</time>
      </trkpt>
      <trkpt lat="45.31394" lon="6.17561">
        <ele>2335.3999023438</ele>
        <time>2020-02-16T09:58:08.000Z</time>
      </trkpt>
      <trkpt lat="45.31395" lon="6.17561">
        <ele>2336</ele>
        <time>2020-02-16T09:58:11.000Z</time>
      </trkpt>
      <trkpt lat="45.31398" lon="6.17559">
        <ele>2336.3999023438</ele>
        <time>2020-02-16T09:58:15.000Z</time>
      </trkpt>
      <trkpt lat="45.31399" lon="6.17559">
        <ele>2336.8000488281</ele>
        <time>2020-02-16T09:58:17.000Z</time>
      </trkpt>
      <trkpt lat="45.314" lon="6.17558">
        <ele>2337.6000976562</ele>
        <time>2020-02-16T09:58:21.000Z</time>
      </trkpt>
      <trkpt lat="45.31402" lon="6.17557">
        <ele>2337.8000488281</ele>
        <time>2020-02-16T09:58:23.000Z</time>
      </trkpt>
      <trkpt lat="45.31403" lon="6.17556">
        <ele>2338.6000976562</ele>
        <time>2020-02-16T09:58:27.000Z</time>
      </trkpt>
      <trkpt lat="45.31405" lon="6.17555">
        <ele>2339</ele>
        <time>2020-02-16T09:58:29.000Z</time>
      </trkpt>
      <trkpt lat="45.31407" lon="6.17554">
        <ele>2339.8000488281</ele>
        <time>2020-02-16T09:58:31.000Z</time>
      </trkpt>
      <trkpt lat="45.31408" lon="6.17553">
        <ele>2340.6000976562</ele>
        <time>2020-02-16T09:58:34.000Z</time>
      </trkpt>
      <trkpt lat="45.31409" lon="6.17552">
        <ele>2341</ele>
        <time>2020-02-16T09:58:36.000Z</time>
      </trkpt>
      <trkpt lat="45.3141" lon="6.17551">
        <ele>2341.3999023438</ele>
        <time>2020-02-16T09:58:40.000Z</time>
      </trkpt>
      <trkpt lat="45.31412" lon="6.17549">
        <ele>2342</ele>
        <time>2020-02-16T09:58:43.000Z</time>
      </trkpt>
      <trkpt lat="45.31413" lon="6.17549">
        <ele>2342.8000488281</ele>
        <time>2020-02-16T09:58:48.000Z</time>
      </trkpt>
      <trkpt lat="45.31413" lon="6.17549">
        <ele>2343.1999511719</ele>
        <time>2020-02-16T09:58:50.000Z</time>
      </trkpt>
      <trkpt lat="45.31414" lon="6.17548">
        <ele>2343.6000976562</ele>
        <time>2020-02-16T09:59:01.000Z</time>
      </trkpt>
      <trkpt lat="45.31415" lon="6.17546">
        <ele>2344.3999023438</ele>
        <time>2020-02-16T09:59:04.000Z</time>
      </trkpt>
      <trkpt lat="45.31418" lon="6.17544">
        <ele>2345</ele>
        <time>2020-02-16T09:59:08.000Z</time>
      </trkpt>
      <trkpt lat="45.3142" lon="6.17543">
        <ele>2345.3999023438</ele>
        <time>2020-02-16T09:59:10.000Z</time>
      </trkpt>
      <trkpt lat="45.31421" lon="6.17541">
        <ele>2346.6000976562</ele>
        <time>2020-02-16T09:59:14.000Z</time>
      </trkpt>
      <trkpt lat="45.31425" lon="6.17539">
        <ele>2347.8000488281</ele>
        <time>2020-02-16T09:59:19.000Z</time>
      </trkpt>
      <trkpt lat="45.31426" lon="6.17538">
        <ele>2348.3999023438</ele>
        <time>2020-02-16T09:59:22.000Z</time>
      </trkpt>
      <trkpt lat="45.31427" lon="6.17536">
        <ele>2349</ele>
        <time>2020-02-16T09:59:25.000Z</time>
      </trkpt>
      <trkpt lat="45.31428" lon="6.17535">
        <ele>2349.3999023438</ele>
        <time>2020-02-16T09:59:28.000Z</time>
      </trkpt>
      <trkpt lat="45.3143" lon="6.17533">
        <ele>2350.1999511719</ele>
        <time>2020-02-16T09:59:32.000Z</time>
      </trkpt>
      <trkpt lat="45.31432" lon="6.17533">
        <ele>2350.8000488281</ele>
        <time>2020-02-16T09:59:35.000Z</time>
      </trkpt>
      <trkpt lat="45.31433" lon="6.17532">
        <ele>2351.1999511719</ele>
        <time>2020-02-16T09:59:37.000Z</time>
      </trkpt>
      <trkpt lat="45.31435" lon="6.1753">
        <ele>2351.8000488281</ele>
        <time>2020-02-16T09:59:41.000Z</time>
      </trkpt>
      <trkpt lat="45.31437" lon="6.17529">
        <ele>2352.3999023438</ele>
        <time>2020-02-16T09:59:44.000Z</time>
      </trkpt>
      <trkpt lat="45.31439" lon="6.17529">
        <ele>2352.8000488281</ele>
        <time>2020-02-16T09:59:47.000Z</time>
      </trkpt>
      <trkpt lat="45.31441" lon="6.17528">
        <ele>2353.3999023438</ele>
        <time>2020-02-16T09:59:50.000Z</time>
      </trkpt>
      <trkpt lat="45.31442" lon="6.17527">
        <ele>2353.8000488281</ele>
        <time>2020-02-16T09:59:53.000Z</time>
      </trkpt>
      <trkpt lat="45.31443" lon="6.17526">
        <ele>2354.3999023438</ele>
        <time>2020-02-16T09:59:57.000Z</time>
      </trkpt>
      <trkpt lat="45.31443" lon="6.17526">
        <ele>2354.6000976562</ele>
        <time>2020-02-16T09:59:58.000Z</time>
      </trkpt>
      <trkpt lat="45.31447" lon="6.17522">
        <ele>2355.3999023438</ele>
        <time>2020-02-16T10:00:05.000Z</time>
      </trkpt>
      <trkpt lat="45.31447" lon="6.17521">
        <ele>2355.6000976562</ele>
        <time>2020-02-16T10:00:06.000Z</time>
      </trkpt>
      <trkpt lat="45.3145" lon="6.17518">
        <ele>2356.3999023438</ele>
        <time>2020-02-16T10:00:11.000Z</time>
      </trkpt>
      <trkpt lat="45.3145" lon="6.17517">
        <ele>2356.6000976562</ele>
        <time>2020-02-16T10:00:12.000Z</time>
      </trkpt>
      <trkpt lat="45.31452" lon="6.17514">
        <ele>2357.3999023438</ele>
        <time>2020-02-16T10:00:17.000Z</time>
      </trkpt>
      <trkpt lat="45.31454" lon="6.17509">
        <ele>2357.8000488281</ele>
        <time>2020-02-16T10:00:21.000Z</time>
      </trkpt>
      <trkpt lat="45.31456" lon="6.17505">
        <ele>2358.1999511719</ele>
        <time>2020-02-16T10:00:25.000Z</time>
      </trkpt>
      <trkpt lat="45.31458" lon="6.17502">
        <ele>2358.8000488281</ele>
        <time>2020-02-16T10:00:28.000Z</time>
      </trkpt>
      <trkpt lat="45.31459" lon="6.175">
        <ele>2359.3999023438</ele>
        <time>2020-02-16T10:00:32.000Z</time>
      </trkpt>
      <trkpt lat="45.31461" lon="6.17497">
        <ele>2359.8000488281</ele>
        <time>2020-02-16T10:00:36.000Z</time>
      </trkpt>
      <trkpt lat="45.31462" lon="6.17495">
        <ele>2360</ele>
        <time>2020-02-16T10:00:38.000Z</time>
      </trkpt>
      <trkpt lat="45.31464" lon="6.17492">
        <ele>2360.8000488281</ele>
        <time>2020-02-16T10:00:44.000Z</time>
      </trkpt>
      <trkpt lat="45.31464" lon="6.17491">
        <ele>2360.8000488281</ele>
        <time>2020-02-16T10:00:45.000Z</time>
      </trkpt>
      <trkpt lat="45.31466" lon="6.17485">
        <ele>2361.8000488281</ele>
        <time>2020-02-16T10:00:52.000Z</time>
      </trkpt>
      <trkpt lat="45.31467" lon="6.17485">
        <ele>2362</ele>
        <time>2020-02-16T10:00:53.000Z</time>
      </trkpt>
      <trkpt lat="45.31468" lon="6.17482">
        <ele>2363.1999511719</ele>
        <time>2020-02-16T10:00:58.000Z</time>
      </trkpt>
      <trkpt lat="45.3147" lon="6.17477">
        <ele>2363.8000488281</ele>
        <time>2020-02-16T10:01:04.000Z</time>
      </trkpt>
      <trkpt lat="45.31471" lon="6.17476">
        <ele>2364.1999511719</ele>
        <time>2020-02-16T10:01:07.000Z</time>
      </trkpt>
      <trkpt lat="45.31471" lon="6.17475">
        <ele>2364.1999511719</ele>
        <time>2020-02-16T10:01:09.000Z</time>
      </trkpt>
      <trkpt lat="45.31471" lon="6.17475">
        <ele>2365</ele>
        <time>2020-02-16T10:01:28.000Z</time>
      </trkpt>
      <trkpt lat="45.31472" lon="6.17474">
        <ele>2365.1999511719</ele>
        <time>2020-02-16T10:01:42.000Z</time>
      </trkpt>
      <trkpt lat="45.31472" lon="6.17472">
        <ele>2365.3999023438</ele>
        <time>2020-02-16T10:01:43.000Z</time>
      </trkpt>
      <trkpt lat="45.31473" lon="6.17468">
        <ele>2365.8000488281</ele>
        <time>2020-02-16T10:01:47.000Z</time>
      </trkpt>
      <trkpt lat="45.31474" lon="6.17465">
        <ele>2366</ele>
        <time>2020-02-16T10:01:51.000Z</time>
      </trkpt>
      <trkpt lat="45.31474" lon="6.17462">
        <ele>2366.6000976562</ele>
        <time>2020-02-16T10:01:55.000Z</time>
      </trkpt>
      <trkpt lat="45.31474" lon="6.17462">
        <ele>2367</ele>
        <time>2020-02-16T10:01:57.000Z</time>
      </trkpt>
      <trkpt lat="45.31476" lon="6.17458">
        <ele>2367.6000976562</ele>
        <time>2020-02-16T10:02:01.000Z</time>
      </trkpt>
      <trkpt lat="45.31476" lon="6.17457">
        <ele>2367.8000488281</ele>
        <time>2020-02-16T10:02:03.000Z</time>
      </trkpt>
      <trkpt lat="45.31477" lon="6.17454">
        <ele>2368.8000488281</ele>
        <time>2020-02-16T10:02:08.000Z</time>
      </trkpt>
      <trkpt lat="45.31479" lon="6.17448">
        <ele>2369.8000488281</ele>
        <time>2020-02-16T10:02:15.000Z</time>
      </trkpt>
      <trkpt lat="45.3148" lon="6.17448">
        <ele>2370</ele>
        <time>2020-02-16T10:02:16.000Z</time>
      </trkpt>
      <trkpt lat="45.31482" lon="6.17443">
        <ele>2370.6000976562</ele>
        <time>2020-02-16T10:02:21.000Z</time>
      </trkpt>
      <trkpt lat="45.31482" lon="6.1744">
        <ele>2371</ele>
        <time>2020-02-16T10:02:24.000Z</time>
      </trkpt>
      <trkpt lat="45.31483" lon="6.17439">
        <ele>2371</ele>
        <time>2020-02-16T10:02:26.000Z</time>
      </trkpt>
      <trkpt lat="45.31484" lon="6.17435">
        <ele>2372.1999511719</ele>
        <time>2020-02-16T10:02:31.000Z</time>
      </trkpt>
      <trkpt lat="45.31484" lon="6.17434">
        <ele>2372.3999023438</ele>
        <time>2020-02-16T10:02:33.000Z</time>
      </trkpt>
      <trkpt lat="45.31484" lon="6.17432">
        <ele>2373</ele>
        <time>2020-02-16T10:02:38.000Z</time>
      </trkpt>
      <trkpt lat="45.31484" lon="6.17432">
        <ele>2373.1999511719</ele>
        <time>2020-02-16T10:02:39.000Z</time>
      </trkpt>
      <trkpt lat="45.31485" lon="6.17429">
        <ele>2373.8000488281</ele>
        <time>2020-02-16T10:02:43.000Z</time>
      </trkpt>
      <trkpt lat="45.31486" lon="6.17427">
        <ele>2374.1999511719</ele>
        <time>2020-02-16T10:02:46.000Z</time>
      </trkpt>
      <trkpt lat="45.31487" lon="6.17425">
        <ele>2375</ele>
        <time>2020-02-16T10:02:50.000Z</time>
      </trkpt>
      <trkpt lat="45.31488" lon="6.17421">
        <ele>2375.3999023438</ele>
        <time>2020-02-16T10:02:53.000Z</time>
      </trkpt>
      <trkpt lat="45.31489" lon="6.17419">
        <ele>2375.8000488281</ele>
        <time>2020-02-16T10:02:56.000Z</time>
      </trkpt>
      <trkpt lat="45.3149" lon="6.17417">
        <ele>2376.3999023438</ele>
        <time>2020-02-16T10:02:59.000Z</time>
      </trkpt>
      <trkpt lat="45.3149" lon="6.17415">
        <ele>2376.8000488281</ele>
        <time>2020-02-16T10:03:01.000Z</time>
      </trkpt>
      <trkpt lat="45.3149" lon="6.17411">
        <ele>2377.6000976562</ele>
        <time>2020-02-16T10:03:07.000Z</time>
      </trkpt>
      <trkpt lat="45.31491" lon="6.17406">
        <ele>2378.3999023438</ele>
        <time>2020-02-16T10:03:13.000Z</time>
      </trkpt>
      <trkpt lat="45.31491" lon="6.17404">
        <ele>2378.6000976562</ele>
        <time>2020-02-16T10:03:15.000Z</time>
      </trkpt>
      <trkpt lat="45.31492" lon="6.17401">
        <ele>2379.3999023438</ele>
        <time>2020-02-16T10:03:19.000Z</time>
      </trkpt>
      <trkpt lat="45.31491" lon="6.17399">
        <ele>2379.8000488281</ele>
        <time>2020-02-16T10:03:21.000Z</time>
      </trkpt>
      <trkpt lat="45.31491" lon="6.17393">
        <ele>2380.3999023438</ele>
        <time>2020-02-16T10:03:26.000Z</time>
      </trkpt>
      <trkpt lat="45.31491" lon="6.17391">
        <ele>2380.8000488281</ele>
        <time>2020-02-16T10:03:29.000Z</time>
      </trkpt>
      <trkpt lat="45.31491" lon="6.17388">
        <ele>2381.1999511719</ele>
        <time>2020-02-16T10:03:32.000Z</time>
      </trkpt>
      <trkpt lat="45.31491" lon="6.17385">
        <ele>2382</ele>
        <time>2020-02-16T10:03:36.000Z</time>
      </trkpt>
      <trkpt lat="45.31491" lon="6.17385">
        <ele>2382.1999511719</ele>
        <time>2020-02-16T10:03:37.000Z</time>
      </trkpt>
      <trkpt lat="45.31491" lon="6.17383">
        <ele>2383</ele>
        <time>2020-02-16T10:03:42.000Z</time>
      </trkpt>
      <trkpt lat="45.31491" lon="6.17383">
        <ele>2383.1999511719</ele>
        <time>2020-02-16T10:03:43.000Z</time>
      </trkpt>
      <trkpt lat="45.31491" lon="6.17383">
        <ele>2383.1999511719</ele>
        <time>2020-02-16T10:04:00.000Z</time>
      </trkpt>
      <trkpt lat="45.31491" lon="6.17383">
        <ele>2382.8000488281</ele>
        <time>2020-02-16T10:04:19.000Z</time>
      </trkpt>
      <trkpt lat="45.3149" lon="6.17383">
        <ele>2382.8000488281</ele>
        <time>2020-02-16T10:04:37.000Z</time>
      </trkpt>
      <trkpt lat="45.3149" lon="6.17383">
        <ele>2383.3999023438</ele>
        <time>2020-02-16T10:04:53.000Z</time>
      </trkpt>
      <trkpt lat="45.3149" lon="6.17383">
        <ele>2384</ele>
        <time>2020-02-16T10:05:11.000Z</time>
      </trkpt>
      <trkpt lat="45.3149" lon="6.17383">
        <ele>2383.8000488281</ele>
        <time>2020-02-16T10:05:23.000Z</time>
      </trkpt>
      <trkpt lat="45.31492" lon="6.17382">
        <ele>2384.1999511719</ele>
        <time>2020-02-16T10:05:43.000Z</time>
      </trkpt>
      <trkpt lat="45.31492" lon="6.17382">
        <ele>2383.8000488281</ele>
        <time>2020-02-16T10:05:57.000Z</time>
      </trkpt>
      <trkpt lat="45.31492" lon="6.17382">
        <ele>2384</ele>
        <time>2020-02-16T10:06:10.000Z</time>
      </trkpt>
      <trkpt lat="45.31493" lon="6.17383">
        <ele>2383.3999023438</ele>
        <time>2020-02-16T10:06:19.000Z</time>
      </trkpt>
      <trkpt lat="45.31494" lon="6.17384">
        <ele>2384.1999511719</ele>
        <time>2020-02-16T10:06:24.000Z</time>
      </trkpt>
      <trkpt lat="45.31494" lon="6.17385">
        <ele>2384.3999023438</ele>
        <time>2020-02-16T10:06:25.000Z</time>
      </trkpt>
      <trkpt lat="45.31495" lon="6.17386">
        <ele>2385.3999023438</ele>
        <time>2020-02-16T10:06:29.000Z</time>
      </trkpt>
      <trkpt lat="45.31495" lon="6.17386">
        <ele>2385.6000976562</ele>
        <time>2020-02-16T10:06:30.000Z</time>
      </trkpt>
      <trkpt lat="45.31498" lon="6.17389">
        <ele>2386.8000488281</ele>
        <time>2020-02-16T10:06:35.000Z</time>
      </trkpt>
      <trkpt lat="45.31499" lon="6.17393">
        <ele>2387.8000488281</ele>
        <time>2020-02-16T10:06:39.000Z</time>
      </trkpt>
      <trkpt lat="45.31499" lon="6.17393">
        <ele>2387.8000488281</ele>
        <time>2020-02-16T10:06:40.000Z</time>
      </trkpt>
      <trkpt lat="45.31501" lon="6.17397">
        <ele>2388.6000976562</ele>
        <time>2020-02-16T10:06:45.000Z</time>
      </trkpt>
      <trkpt lat="45.31501" lon="6.17397">
        <ele>2388.8000488281</ele>
        <time>2020-02-16T10:06:47.000Z</time>
      </trkpt>
      <trkpt lat="45.31501" lon="6.17397">
        <ele>2389.1999511719</ele>
        <time>2020-02-16T10:06:51.000Z</time>
      </trkpt>
      <trkpt lat="45.31502" lon="6.17399">
        <ele>2388.8000488281</ele>
        <time>2020-02-16T10:06:59.000Z</time>
      </trkpt>
      <trkpt lat="45.31503" lon="6.17403">
        <ele>2389</ele>
        <time>2020-02-16T10:07:03.000Z</time>
      </trkpt>
      <trkpt lat="45.31505" lon="6.17407">
        <ele>2389.8000488281</ele>
        <time>2020-02-16T10:07:07.000Z</time>
      </trkpt>
      <trkpt lat="45.31505" lon="6.17408">
        <ele>2390</ele>
        <time>2020-02-16T10:07:08.000Z</time>
      </trkpt>
      <trkpt lat="45.31506" lon="6.17411">
        <ele>2391.1999511719</ele>
        <time>2020-02-16T10:07:12.000Z</time>
      </trkpt>
      <trkpt lat="45.31507" lon="6.17413">
        <ele>2391.8000488281</ele>
        <time>2020-02-16T10:07:14.000Z</time>
      </trkpt>
      <trkpt lat="45.31507" lon="6.17415">
        <ele>2392.3999023438</ele>
        <time>2020-02-16T10:07:16.000Z</time>
      </trkpt>
      <trkpt lat="45.31509" lon="6.17417">
        <ele>2393</ele>
        <time>2020-02-16T10:07:19.000Z</time>
      </trkpt>
      <trkpt lat="45.31509" lon="6.17418">
        <ele>2393.3999023438</ele>
        <time>2020-02-16T10:07:20.000Z</time>
      </trkpt>
      <trkpt lat="45.3151" lon="6.17421">
        <ele>2394.6000976562</ele>
        <time>2020-02-16T10:07:25.000Z</time>
      </trkpt>
      <trkpt lat="45.31511" lon="6.17425">
        <ele>2395.6000976562</ele>
        <time>2020-02-16T10:07:30.000Z</time>
      </trkpt>
      <trkpt lat="45.31511" lon="6.17427">
        <ele>2396.8000488281</ele>
        <time>2020-02-16T10:07:36.000Z</time>
      </trkpt>
      <trkpt lat="45.31512" lon="6.1743">
        <ele>2396.8000488281</ele>
        <time>2020-02-16T10:07:42.000Z</time>
      </trkpt>
      <trkpt lat="45.31514" lon="6.17428">
        <ele>2396.8000488281</ele>
        <time>2020-02-16T10:07:50.000Z</time>
      </trkpt>
      <trkpt lat="45.31515" lon="6.17424">
        <ele>2396.8000488281</ele>
        <time>2020-02-16T10:07:54.000Z</time>
      </trkpt>
      <trkpt lat="45.31516" lon="6.17421">
        <ele>2397.6000976562</ele>
        <time>2020-02-16T10:07:59.000Z</time>
      </trkpt>
      <trkpt lat="45.31516" lon="6.17421">
        <ele>2397.8000488281</ele>
        <time>2020-02-16T10:08:01.000Z</time>
      </trkpt>
      <trkpt lat="45.31518" lon="6.17417">
        <ele>2398.8000488281</ele>
        <time>2020-02-16T10:08:06.000Z</time>
      </trkpt>
      <trkpt lat="45.31518" lon="6.17416">
        <ele>2399</ele>
        <time>2020-02-16T10:08:07.000Z</time>
      </trkpt>
      <trkpt lat="45.3152" lon="6.17412">
        <ele>2400.1999511719</ele>
        <time>2020-02-16T10:08:11.000Z</time>
      </trkpt>
      <trkpt lat="45.31521" lon="6.17409">
        <ele>2400.6000976562</ele>
        <time>2020-02-16T10:08:16.000Z</time>
      </trkpt>
      <trkpt lat="45.31522" lon="6.17406">
        <ele>2401.1999511719</ele>
        <time>2020-02-16T10:08:19.000Z</time>
      </trkpt>
      <trkpt lat="45.31523" lon="6.17403">
        <ele>2401.8000488281</ele>
        <time>2020-02-16T10:08:21.000Z</time>
      </trkpt>
      <trkpt lat="45.31524" lon="6.17401">
        <ele>2402.3999023438</ele>
        <time>2020-02-16T10:08:23.000Z</time>
      </trkpt>
      <trkpt lat="45.31524" lon="6.17401">
        <ele>2402.8000488281</ele>
        <time>2020-02-16T10:08:25.000Z</time>
      </trkpt>
      <trkpt lat="45.31525" lon="6.17394">
        <ele>2403.3999023438</ele>
        <time>2020-02-16T10:08:30.000Z</time>
      </trkpt>
      <trkpt lat="45.31526" lon="6.17393">
        <ele>2404</ele>
        <time>2020-02-16T10:08:34.000Z</time>
      </trkpt>
      <trkpt lat="45.31526" lon="6.17391">
        <ele>2404.3999023438</ele>
        <time>2020-02-16T10:08:36.000Z</time>
      </trkpt>
      <trkpt lat="45.31526" lon="6.17387">
        <ele>2405</ele>
        <time>2020-02-16T10:08:40.000Z</time>
      </trkpt>
      <trkpt lat="45.31526" lon="6.17384">
        <ele>2405.3999023438</ele>
        <time>2020-02-16T10:08:43.000Z</time>
      </trkpt>
      <trkpt lat="45.31526" lon="6.17384">
        <ele>2405.8000488281</ele>
        <time>2020-02-16T10:08:45.000Z</time>
      </trkpt>
      <trkpt lat="45.31527" lon="6.17381">
        <ele>2406.3999023438</ele>
        <time>2020-02-16T10:08:49.000Z</time>
      </trkpt>
      <trkpt lat="45.31527" lon="6.1738">
        <ele>2406.6000976562</ele>
        <time>2020-02-16T10:08:50.000Z</time>
      </trkpt>
      <trkpt lat="45.31528" lon="6.17377">
        <ele>2407.3999023438</ele>
        <time>2020-02-16T10:08:54.000Z</time>
      </trkpt>
      <trkpt lat="45.31527" lon="6.17374">
        <ele>2407.8000488281</ele>
        <time>2020-02-16T10:08:56.000Z</time>
      </trkpt>
      <trkpt lat="45.31527" lon="6.1737">
        <ele>2408.6000976562</ele>
        <time>2020-02-16T10:09:00.000Z</time>
      </trkpt>
      <trkpt lat="45.31527" lon="6.1737">
        <ele>2409</ele>
        <time>2020-02-16T10:09:01.000Z</time>
      </trkpt>
      <trkpt lat="45.31527" lon="6.17366">
        <ele>2410.1999511719</ele>
        <time>2020-02-16T10:09:05.000Z</time>
      </trkpt>
      <trkpt lat="45.31527" lon="6.17361">
        <ele>2410.8000488281</ele>
        <time>2020-02-16T10:09:09.000Z</time>
      </trkpt>
      <trkpt lat="45.31527" lon="6.1736">
        <ele>2411.1999511719</ele>
        <time>2020-02-16T10:09:11.000Z</time>
      </trkpt>
      <trkpt lat="45.31528" lon="6.17356">
        <ele>2412</ele>
        <time>2020-02-16T10:09:15.000Z</time>
      </trkpt>
      <trkpt lat="45.31528" lon="6.17354">
        <ele>2412.1999511719</ele>
        <time>2020-02-16T10:09:17.000Z</time>
      </trkpt>
      <trkpt lat="45.31528" lon="6.1735">
        <ele>2413</ele>
        <time>2020-02-16T10:09:21.000Z</time>
      </trkpt>
      <trkpt lat="45.31527" lon="6.17342">
        <ele>2413.3999023438</ele>
        <time>2020-02-16T10:09:28.000Z</time>
      </trkpt>
      <trkpt lat="45.31526" lon="6.1734">
        <ele>2413.3999023438</ele>
        <time>2020-02-16T10:09:33.000Z</time>
      </trkpt>
      <trkpt lat="45.31526" lon="6.17339">
        <ele>2413.3999023438</ele>
        <time>2020-02-16T10:09:38.000Z</time>
      </trkpt>
      <trkpt lat="45.31527" lon="6.17341">
        <ele>2413.6000976562</ele>
        <time>2020-02-16T10:09:45.000Z</time>
      </trkpt>
      <trkpt lat="45.31529" lon="6.17344">
        <ele>2413.8000488281</ele>
        <time>2020-02-16T10:09:50.000Z</time>
      </trkpt>
      <trkpt lat="45.31531" lon="6.17347">
        <ele>2414.3999023438</ele>
        <time>2020-02-16T10:09:55.000Z</time>
      </trkpt>
      <trkpt lat="45.31532" lon="6.17348">
        <ele>2414.6000976562</ele>
        <time>2020-02-16T10:09:56.000Z</time>
      </trkpt>
      <trkpt lat="45.31534" lon="6.17351">
        <ele>2415.3999023438</ele>
        <time>2020-02-16T10:10:00.000Z</time>
      </trkpt>
      <trkpt lat="45.31535" lon="6.17354">
        <ele>2415.8000488281</ele>
        <time>2020-02-16T10:10:02.000Z</time>
      </trkpt>
      <trkpt lat="45.31537" lon="6.17359">
        <ele>2416.6000976562</ele>
        <time>2020-02-16T10:10:06.000Z</time>
      </trkpt>
      <trkpt lat="45.31538" lon="6.1736">
        <ele>2416.8000488281</ele>
        <time>2020-02-16T10:10:07.000Z</time>
      </trkpt>
      <trkpt lat="45.31539" lon="6.17363">
        <ele>2417.6000976562</ele>
        <time>2020-02-16T10:10:11.000Z</time>
      </trkpt>
      <trkpt lat="45.31539" lon="6.17364">
        <ele>2417.8000488281</ele>
        <time>2020-02-16T10:10:12.000Z</time>
      </trkpt>
      <trkpt lat="45.3154" lon="6.17368">
        <ele>2418.6000976562</ele>
        <time>2020-02-16T10:10:17.000Z</time>
      </trkpt>
      <trkpt lat="45.31539" lon="6.17368">
        <ele>2419.8000488281</ele>
        <time>2020-02-16T10:10:23.000Z</time>
      </trkpt>
      <trkpt lat="45.3154" lon="6.17366">
        <ele>2420</ele>
        <time>2020-02-16T10:10:27.000Z</time>
      </trkpt>
      <trkpt lat="45.3154" lon="6.17367">
        <ele>2420</ele>
        <time>2020-02-16T10:10:34.000Z</time>
      </trkpt>
      <trkpt lat="45.31542" lon="6.17369">
        <ele>2420.3999023438</ele>
        <time>2020-02-16T10:10:42.000Z</time>
      </trkpt>
      <trkpt lat="45.31542" lon="6.17366">
        <ele>2421</ele>
        <time>2020-02-16T10:10:48.000Z</time>
      </trkpt>
      <trkpt lat="45.31542" lon="6.17365">
        <ele>2421</ele>
        <time>2020-02-16T10:10:49.000Z</time>
      </trkpt>
      <trkpt lat="45.31542" lon="6.17358">
        <ele>2421.6000976562</ele>
        <time>2020-02-16T10:10:55.000Z</time>
      </trkpt>
      <trkpt lat="45.31541" lon="6.17356">
        <ele>2422</ele>
        <time>2020-02-16T10:10:56.000Z</time>
      </trkpt>
      <trkpt lat="45.31541" lon="6.17353">
        <ele>2422.6000976562</ele>
        <time>2020-02-16T10:10:59.000Z</time>
      </trkpt>
      <trkpt lat="45.31542" lon="6.17349">
        <ele>2423</ele>
        <time>2020-02-16T10:11:02.000Z</time>
      </trkpt>
      <trkpt lat="45.31542" lon="6.17347">
        <ele>2423.6000976562</ele>
        <time>2020-02-16T10:11:04.000Z</time>
      </trkpt>
      <trkpt lat="45.31543" lon="6.17344">
        <ele>2424</ele>
        <time>2020-02-16T10:11:06.000Z</time>
      </trkpt>
      <trkpt lat="45.31543" lon="6.1734">
        <ele>2424.6000976562</ele>
        <time>2020-02-16T10:11:09.000Z</time>
      </trkpt>
      <trkpt lat="45.31542" lon="6.17334">
        <ele>2425.1999511719</ele>
        <time>2020-02-16T10:11:14.000Z</time>
      </trkpt>
      <trkpt lat="45.31543" lon="6.17333">
        <ele>2425.6000976562</ele>
        <time>2020-02-16T10:11:15.000Z</time>
      </trkpt>
      <trkpt lat="45.31543" lon="6.1733">
        <ele>2426.3999023438</ele>
        <time>2020-02-16T10:11:18.000Z</time>
      </trkpt>
      <trkpt lat="45.31543" lon="6.17327">
        <ele>2427.1999511719</ele>
        <time>2020-02-16T10:11:21.000Z</time>
      </trkpt>
      <trkpt lat="45.31543" lon="6.17325">
        <ele>2427.3999023438</ele>
        <time>2020-02-16T10:11:22.000Z</time>
      </trkpt>
      <trkpt lat="45.31544" lon="6.17321">
        <ele>2428.1999511719</ele>
        <time>2020-02-16T10:11:26.000Z</time>
      </trkpt>
      <trkpt lat="45.31544" lon="6.17319">
        <ele>2428.3999023438</ele>
        <time>2020-02-16T10:11:28.000Z</time>
      </trkpt>
      <trkpt lat="45.31544" lon="6.17316">
        <ele>2429</ele>
        <time>2020-02-16T10:11:31.000Z</time>
      </trkpt>
      <trkpt lat="45.31541" lon="6.17313">
        <ele>2429</ele>
        <time>2020-02-16T10:11:40.000Z</time>
      </trkpt>
      <trkpt lat="45.31541" lon="6.17311">
        <ele>2429.1999511719</ele>
        <time>2020-02-16T10:11:54.000Z</time>
      </trkpt>
      <trkpt lat="45.3154" lon="6.17305">
        <ele>2429.3999023438</ele>
        <time>2020-02-16T10:11:59.000Z</time>
      </trkpt>
      <trkpt lat="45.31541" lon="6.17301">
        <ele>2429.3999023438</ele>
        <time>2020-02-16T10:12:03.000Z</time>
      </trkpt>
      <trkpt lat="45.31541" lon="6.17299">
        <ele>2429.6000976562</ele>
        <time>2020-02-16T10:12:05.000Z</time>
      </trkpt>
      <trkpt lat="45.3154" lon="6.17294">
        <ele>2430.1999511719</ele>
        <time>2020-02-16T10:12:08.000Z</time>
      </trkpt>
      <trkpt lat="45.31541" lon="6.17291">
        <ele>2430.6000976562</ele>
        <time>2020-02-16T10:12:10.000Z</time>
      </trkpt>
      <trkpt lat="45.31541" lon="6.17285">
        <ele>2431</ele>
        <time>2020-02-16T10:12:14.000Z</time>
      </trkpt>
      <trkpt lat="45.31541" lon="6.1728">
        <ele>2431.6000976562</ele>
        <time>2020-02-16T10:12:18.000Z</time>
      </trkpt>
      <trkpt lat="45.3154" lon="6.17279">
        <ele>2431.8000488281</ele>
        <time>2020-02-16T10:12:19.000Z</time>
      </trkpt>
      <trkpt lat="45.3154" lon="6.17272">
        <ele>2432.8000488281</ele>
        <time>2020-02-16T10:12:26.000Z</time>
      </trkpt>
      <trkpt lat="45.31538" lon="6.17267">
        <ele>2433.8000488281</ele>
        <time>2020-02-16T10:12:31.000Z</time>
      </trkpt>
      <trkpt lat="45.31538" lon="6.17266">
        <ele>2434</ele>
        <time>2020-02-16T10:12:32.000Z</time>
      </trkpt>
      <trkpt lat="45.31536" lon="6.1726">
        <ele>2434.8000488281</ele>
        <time>2020-02-16T10:12:38.000Z</time>
      </trkpt>
      <trkpt lat="45.31532" lon="6.17255">
        <ele>2435.8000488281</ele>
        <time>2020-02-16T10:12:44.000Z</time>
      </trkpt>
      <trkpt lat="45.3153" lon="6.17254">
        <ele>2436</ele>
        <time>2020-02-16T10:12:46.000Z</time>
      </trkpt>
      <trkpt lat="45.31528" lon="6.17251">
        <ele>2437</ele>
        <time>2020-02-16T10:12:50.000Z</time>
      </trkpt>
      <trkpt lat="45.31528" lon="6.1725">
        <ele>2437</ele>
        <time>2020-02-16T10:12:51.000Z</time>
      </trkpt>
      <trkpt lat="45.31526" lon="6.17245">
        <ele>2438.1999511719</ele>
        <time>2020-02-16T10:12:56.000Z</time>
      </trkpt>
      <trkpt lat="45.31523" lon="6.17243">
        <ele>2439.3999023438</ele>
        <time>2020-02-16T10:13:00.000Z</time>
      </trkpt>
      <trkpt lat="45.31521" lon="6.17241">
        <ele>2439.8000488281</ele>
        <time>2020-02-16T10:13:03.000Z</time>
      </trkpt>
      <trkpt lat="45.31517" lon="6.17238">
        <ele>2440.1999511719</ele>
        <time>2020-02-16T10:13:09.000Z</time>
      </trkpt>
      <trkpt lat="45.31517" lon="6.17238">
        <ele>2440.3999023438</ele>
        <time>2020-02-16T10:13:10.000Z</time>
      </trkpt>
      <trkpt lat="45.31515" lon="6.17236">
        <ele>2441</ele>
        <time>2020-02-16T10:13:14.000Z</time>
      </trkpt>
      <trkpt lat="45.31514" lon="6.17234">
        <ele>2441.6000976562</ele>
        <time>2020-02-16T10:13:16.000Z</time>
      </trkpt>
      <trkpt lat="45.31514" lon="6.17231">
        <ele>2442.6000976562</ele>
        <time>2020-02-16T10:13:22.000Z</time>
      </trkpt>
      <trkpt lat="45.31514" lon="6.17231">
        <ele>2443.6000976562</ele>
        <time>2020-02-16T10:13:37.000Z</time>
      </trkpt>
      <trkpt lat="45.31514" lon="6.17231">
        <ele>2444.1999511719</ele>
        <time>2020-02-16T10:13:40.000Z</time>
      </trkpt>
      <trkpt lat="45.31513" lon="6.17229">
        <ele>2444.3999023438</ele>
        <time>2020-02-16T10:13:54.000Z</time>
      </trkpt>
      <trkpt lat="45.31511" lon="6.17225">
        <ele>2444.6000976562</ele>
        <time>2020-02-16T10:13:59.000Z</time>
      </trkpt>
      <trkpt lat="45.31513" lon="6.17225">
        <ele>2444.6000976562</ele>
        <time>2020-02-16T10:14:02.000Z</time>
      </trkpt>
      <trkpt lat="45.31514" lon="6.17224">
        <ele>2444.8000488281</ele>
        <time>2020-02-16T10:14:03.000Z</time>
      </trkpt>
      <trkpt lat="45.31517" lon="6.17222">
        <ele>2445.8000488281</ele>
        <time>2020-02-16T10:14:07.000Z</time>
      </trkpt>
      <trkpt lat="45.31519" lon="6.17222">
        <ele>2446.1999511719</ele>
        <time>2020-02-16T10:14:09.000Z</time>
      </trkpt>
      <trkpt lat="45.3152" lon="6.17222">
        <ele>2447</ele>
        <time>2020-02-16T10:14:14.000Z</time>
      </trkpt>
      <trkpt lat="45.31522" lon="6.1722">
        <ele>2447.6000976562</ele>
        <time>2020-02-16T10:14:16.000Z</time>
      </trkpt>
      <trkpt lat="45.31523" lon="6.17219">
        <ele>2448.1999511719</ele>
        <time>2020-02-16T10:14:18.000Z</time>
      </trkpt>
      <trkpt lat="45.31525" lon="6.17219">
        <ele>2449.1999511719</ele>
        <time>2020-02-16T10:14:22.000Z</time>
      </trkpt>
      <trkpt lat="45.31525" lon="6.17218">
        <ele>2449.6000976562</ele>
        <time>2020-02-16T10:14:23.000Z</time>
      </trkpt>
      <trkpt lat="45.31528" lon="6.17216">
        <ele>2450.3999023438</ele>
        <time>2020-02-16T10:14:29.000Z</time>
      </trkpt>
      <trkpt lat="45.3153" lon="6.17214">
        <ele>2451.6000976562</ele>
        <time>2020-02-16T10:14:33.000Z</time>
      </trkpt>
      <trkpt lat="45.31531" lon="6.17213">
        <ele>2452.1999511719</ele>
        <time>2020-02-16T10:14:35.000Z</time>
      </trkpt>
      <trkpt lat="45.31533" lon="6.17211">
        <ele>2452.8000488281</ele>
        <time>2020-02-16T10:14:39.000Z</time>
      </trkpt>
      <trkpt lat="45.31535" lon="6.1721">
        <ele>2453.1999511719</ele>
        <time>2020-02-16T10:14:41.000Z</time>
      </trkpt>
      <trkpt lat="45.31538" lon="6.17207">
        <ele>2453.8000488281</ele>
        <time>2020-02-16T10:14:47.000Z</time>
      </trkpt>
      <trkpt lat="45.31542" lon="6.17204">
        <ele>2454.6000976562</ele>
        <time>2020-02-16T10:14:55.000Z</time>
      </trkpt>
      <trkpt lat="45.31543" lon="6.17203">
        <ele>2455</ele>
        <time>2020-02-16T10:14:56.000Z</time>
      </trkpt>
      <trkpt lat="45.31544" lon="6.17202">
        <ele>2456.1999511719</ele>
        <time>2020-02-16T10:14:59.000Z</time>
      </trkpt>
      <trkpt lat="45.31545" lon="6.17202">
        <ele>2457.1999511719</ele>
        <time>2020-02-16T10:15:01.000Z</time>
      </trkpt>
      <trkpt lat="45.31546" lon="6.172">
        <ele>2458.3999023438</ele>
        <time>2020-02-16T10:15:04.000Z</time>
      </trkpt>
      <trkpt lat="45.31546" lon="6.17199">
        <ele>2458.8000488281</ele>
        <time>2020-02-16T10:15:09.000Z</time>
      </trkpt>
      <trkpt lat="45.31547" lon="6.172">
        <ele>2458.1999511719</ele>
        <time>2020-02-16T10:15:15.000Z</time>
      </trkpt>
      <trkpt lat="45.31547" lon="6.172">
        <ele>2457.8000488281</ele>
        <time>2020-02-16T10:15:31.000Z</time>
      </trkpt>
      <trkpt lat="45.31547" lon="6.172">
        <ele>2457.1999511719</ele>
        <time>2020-02-16T10:15:36.000Z</time>
      </trkpt>
      <trkpt lat="45.31547" lon="6.172">
        <ele>2457.1999511719</ele>
        <time>2020-02-16T10:15:47.000Z</time>
      </trkpt>
      <trkpt lat="45.31547" lon="6.172">
        <ele>2456.6000976562</ele>
        <time>2020-02-16T10:15:59.000Z</time>
      </trkpt>
      <trkpt lat="45.31547" lon="6.172">
        <ele>2456.8000488281</ele>
        <time>2020-02-16T10:16:15.000Z</time>
      </trkpt>
      <trkpt lat="45.31547" lon="6.17199">
        <ele>2457</ele>
        <time>2020-02-16T10:16:22.000Z</time>
      </trkpt>
      <trkpt lat="45.31543" lon="6.17195">
        <ele>2457.1999511719</ele>
        <time>2020-02-16T10:16:29.000Z</time>
      </trkpt>
      <trkpt lat="45.31541" lon="6.17193">
        <ele>2457.1999511719</ele>
        <time>2020-02-16T10:16:36.000Z</time>
      </trkpt>
      <trkpt lat="45.3154" lon="6.17191">
        <ele>2457.3999023438</ele>
        <time>2020-02-16T10:16:54.000Z</time>
      </trkpt>
      <trkpt lat="45.31537" lon="6.17186">
        <ele>2458.3999023438</ele>
        <time>2020-02-16T10:17:00.000Z</time>
      </trkpt>
      <trkpt lat="45.31537" lon="6.17185">
        <ele>2459.3999023438</ele>
        <time>2020-02-16T10:17:04.000Z</time>
      </trkpt>
      <trkpt lat="45.31537" lon="6.17185">
        <ele>2460</ele>
        <time>2020-02-16T10:17:10.000Z</time>
      </trkpt>
      <trkpt lat="45.31537" lon="6.17185">
        <ele>2459.8000488281</ele>
        <time>2020-02-16T10:17:22.000Z</time>
      </trkpt>
      <trkpt lat="45.31537" lon="6.17185">
        <ele>2459.8000488281</ele>
        <time>2020-02-16T10:17:31.000Z</time>
      </trkpt>
      <trkpt lat="45.31537" lon="6.17185">
        <ele>2457.8000488281</ele>
        <time>2020-02-16T10:17:51.000Z</time>
      </trkpt>
      <trkpt lat="45.31537" lon="6.17185">
        <ele>2456.8000488281</ele>
        <time>2020-02-16T10:17:53.000Z</time>
      </trkpt>
      <trkpt lat="45.31537" lon="6.17185">
        <ele>2456.6000976562</ele>
        <time>2020-02-16T10:17:54.000Z</time>
      </trkpt>
      <trkpt lat="45.31537" lon="6.17186">
        <ele>2458.8000488281</ele>
        <time>2020-02-16T10:17:56.000Z</time>
      </trkpt>
      <trkpt lat="45.31537" lon="6.17186">
        <ele>2460</ele>
        <time>2020-02-16T10:17:57.000Z</time>
      </trkpt>
      <trkpt lat="45.31537" lon="6.17186">
        <ele>2459.3999023438</ele>
        <time>2020-02-16T10:18:02.000Z</time>
      </trkpt>
      <trkpt lat="45.31537" lon="6.17186">
        <ele>2459</ele>
        <time>2020-02-16T10:18:04.000Z</time>
      </trkpt>
      <trkpt lat="45.31537" lon="6.17186">
        <ele>2458.1999511719</ele>
        <time>2020-02-16T10:18:19.000Z</time>
      </trkpt>
      <trkpt lat="45.31537" lon="6.17186">
        <ele>2458</ele>
        <time>2020-02-16T10:18:29.000Z</time>
      </trkpt>
      <trkpt lat="45.31537" lon="6.17186">
        <ele>2458</ele>
        <time>2020-02-16T10:18:30.000Z</time>
      </trkpt>
      <trkpt lat="45.31537" lon="6.17186">
        <ele>2458.1999511719</ele>
        <time>2020-02-16T10:18:42.000Z</time>
      </trkpt>
      <trkpt lat="45.31537" lon="6.17186">
        <ele>2457.6000976562</ele>
        <time>2020-02-16T10:18:52.000Z</time>
      </trkpt>
      <trkpt lat="45.31537" lon="6.17186">
        <ele>2457.1999511719</ele>
        <time>2020-02-16T10:19:17.000Z</time>
      </trkpt>
      <trkpt lat="45.31537" lon="6.17187">
        <ele>2457.1999511719</ele>
        <time>2020-02-16T10:19:26.000Z</time>
      </trkpt>
      <trkpt lat="45.31535" lon="6.17186">
        <ele>2458</ele>
        <time>2020-02-16T10:19:32.000Z</time>
      </trkpt>
      <trkpt lat="45.31535" lon="6.17186">
        <ele>2459</ele>
        <time>2020-02-16T10:19:46.000Z</time>
      </trkpt>
      <trkpt lat="45.31535" lon="6.17186">
        <ele>2459</ele>
        <time>2020-02-16T10:19:48.000Z</time>
      </trkpt>
      <trkpt lat="45.31535" lon="6.17185">
        <ele>2459</ele>
        <time>2020-02-16T10:19:56.000Z</time>
      </trkpt>
      <trkpt lat="45.31535" lon="6.17185">
        <ele>2458.6000976562</ele>
        <time>2020-02-16T10:20:14.000Z</time>
      </trkpt>
      <trkpt lat="45.31535" lon="6.17185">
        <ele>2458.3999023438</ele>
        <time>2020-02-16T10:20:24.000Z</time>
      </trkpt>
      <trkpt lat="45.31534" lon="6.17186">
        <ele>2458.1999511719</ele>
        <time>2020-02-16T10:20:36.000Z</time>
      </trkpt>
      <trkpt lat="45.31533" lon="6.17188">
        <ele>2458.3999023438</ele>
        <time>2020-02-16T10:20:42.000Z</time>
      </trkpt>
      <trkpt lat="45.31535" lon="6.17188">
        <ele>2459.1999511719</ele>
        <time>2020-02-16T10:20:50.000Z</time>
      </trkpt>
      <trkpt lat="45.31536" lon="6.17186">
        <ele>2458.1999511719</ele>
        <time>2020-02-16T10:20:58.000Z</time>
      </trkpt>
      <trkpt lat="45.31536" lon="6.17186">
        <ele>2459</ele>
        <time>2020-02-16T10:21:14.000Z</time>
      </trkpt>
      <trkpt lat="45.31536" lon="6.17186">
        <ele>2460</ele>
        <time>2020-02-16T10:21:28.000Z</time>
      </trkpt>
      <trkpt lat="45.31536" lon="6.17186">
        <ele>2460</ele>
        <time>2020-02-16T10:21:29.000Z</time>
      </trkpt>
      <trkpt lat="45.31536" lon="6.17186">
        <ele>2461</ele>
        <time>2020-02-16T10:21:40.000Z</time>
      </trkpt>
      <trkpt lat="45.31536" lon="6.17186">
        <ele>2461.3999023438</ele>
        <time>2020-02-16T10:21:46.000Z</time>
      </trkpt>
      <trkpt lat="45.31536" lon="6.17186">
        <ele>2461.3999023438</ele>
        <time>2020-02-16T10:22:05.000Z</time>
      </trkpt>
      <trkpt lat="45.31536" lon="6.17186">
        <ele>2460</ele>
        <time>2020-02-16T10:22:12.000Z</time>
      </trkpt>
      <trkpt lat="45.31536" lon="6.17186">
        <ele>2458.6000976562</ele>
        <time>2020-02-16T10:22:17.000Z</time>
      </trkpt>
      <trkpt lat="45.31536" lon="6.17186">
        <ele>2458.8000488281</ele>
        <time>2020-02-16T10:22:26.000Z</time>
      </trkpt>
      <trkpt lat="45.31536" lon="6.17186">
        <ele>2458.1999511719</ele>
        <time>2020-02-16T10:22:48.000Z</time>
      </trkpt>
      <trkpt lat="45.31536" lon="6.17186">
        <ele>2457.8000488281</ele>
        <time>2020-02-16T10:23:06.000Z</time>
      </trkpt>
      <trkpt lat="45.31536" lon="6.17186">
        <ele>2457.6000976562</ele>
        <time>2020-02-16T10:23:11.000Z</time>
      </trkpt>
      <trkpt lat="45.31536" lon="6.17186">
        <ele>2456.6000976562</ele>
        <time>2020-02-16T10:23:17.000Z</time>
      </trkpt>
      <trkpt lat="45.31536" lon="6.17186">
        <ele>2457.6000976562</ele>
        <time>2020-02-16T10:23:21.000Z</time>
      </trkpt>
      <trkpt lat="45.31536" lon="6.17186">
        <ele>2457.8000488281</ele>
        <time>2020-02-16T10:23:22.000Z</time>
      </trkpt>
      <trkpt lat="45.31536" lon="6.17186">
        <ele>2456.8000488281</ele>
        <time>2020-02-16T10:23:41.000Z</time>
      </trkpt>
      <trkpt lat="45.31536" lon="6.17186">
        <ele>2456.6000976562</ele>
        <time>2020-02-16T10:23:44.000Z</time>
      </trkpt>
      <trkpt lat="45.31536" lon="6.17186">
        <ele>2457.6000976562</ele>
        <time>2020-02-16T10:23:50.000Z</time>
      </trkpt>
      <trkpt lat="45.31536" lon="6.17186">
        <ele>2457.1999511719</ele>
        <time>2020-02-16T10:24:00.000Z</time>
      </trkpt>
      <trkpt lat="45.31536" lon="6.17186">
        <ele>2457.6000976562</ele>
        <time>2020-02-16T10:24:09.000Z</time>
      </trkpt>
      <trkpt lat="45.31536" lon="6.17187">
        <ele>2457.3999023438</ele>
        <time>2020-02-16T10:24:25.000Z</time>
      </trkpt>
      <trkpt lat="45.31536" lon="6.17186">
        <ele>2457.6000976562</ele>
        <time>2020-02-16T10:24:38.000Z</time>
      </trkpt>
      <trkpt lat="45.31537" lon="6.17186">
        <ele>2457.3999023438</ele>
        <time>2020-02-16T10:24:43.000Z</time>
      </trkpt>
      <trkpt lat="45.31537" lon="6.17186">
        <ele>2457.3999023438</ele>
        <time>2020-02-16T10:24:53.000Z</time>
      </trkpt>
      <trkpt lat="45.31538" lon="6.17184">
        <ele>2457.1999511719</ele>
        <time>2020-02-16T10:24:59.000Z</time>
      </trkpt>
      <trkpt lat="45.31538" lon="6.17185">
        <ele>2456.8000488281</ele>
        <time>2020-02-16T10:25:12.000Z</time>
      </trkpt>
      <trkpt lat="45.31536" lon="6.17188">
        <ele>2457</ele>
        <time>2020-02-16T10:25:21.000Z</time>
      </trkpt>
      <trkpt lat="45.31536" lon="6.17188">
        <ele>2457.3999023438</ele>
        <time>2020-02-16T10:25:35.000Z</time>
      </trkpt>
      <trkpt lat="45.31536" lon="6.17188">
        <ele>2458.1999511719</ele>
        <time>2020-02-16T10:25:52.000Z</time>
      </trkpt>
      <trkpt lat="45.31536" lon="6.17187">
        <ele>2457.8000488281</ele>
        <time>2020-02-16T10:25:59.000Z</time>
      </trkpt>
      <trkpt lat="45.31535" lon="6.17188">
        <ele>2458</ele>
        <time>2020-02-16T10:26:08.000Z</time>
      </trkpt>
      <trkpt lat="45.31536" lon="6.17187">
        <ele>2457.6000976562</ele>
        <time>2020-02-16T10:26:16.000Z</time>
      </trkpt>
      <trkpt lat="45.31536" lon="6.17187">
        <ele>2457</ele>
        <time>2020-02-16T10:26:29.000Z</time>
      </trkpt>
      <trkpt lat="45.31536" lon="6.17187">
        <ele>2457.1999511719</ele>
        <time>2020-02-16T10:26:46.000Z</time>
      </trkpt>
      <trkpt lat="45.31535" lon="6.17187">
        <ele>2457</ele>
        <time>2020-02-16T10:26:59.000Z</time>
      </trkpt>
      <trkpt lat="45.31535" lon="6.17187">
        <ele>2457.3999023438</ele>
        <time>2020-02-16T10:27:11.000Z</time>
      </trkpt>
      <trkpt lat="45.31535" lon="6.17187">
        <ele>2457.3999023438</ele>
        <time>2020-02-16T10:27:20.000Z</time>
      </trkpt>
      <trkpt lat="45.31535" lon="6.17187">
        <ele>2457.6000976562</ele>
        <time>2020-02-16T10:27:32.000Z</time>
      </trkpt>
      <trkpt lat="45.31535" lon="6.17187">
        <ele>2457.1999511719</ele>
        <time>2020-02-16T10:27:44.000Z</time>
      </trkpt>
      <trkpt lat="45.31535" lon="6.17187">
        <ele>2457.1999511719</ele>
        <time>2020-02-16T10:27:54.000Z</time>
      </trkpt>
      <trkpt lat="45.31535" lon="6.17187">
        <ele>2456.6000976562</ele>
        <time>2020-02-16T10:28:10.000Z</time>
      </trkpt>
      <trkpt lat="45.31535" lon="6.17187">
        <ele>2457.6000976562</ele>
        <time>2020-02-16T10:28:17.000Z</time>
      </trkpt>
      <trkpt lat="45.31535" lon="6.17187">
        <ele>2457.8000488281</ele>
        <time>2020-02-16T10:28:23.000Z</time>
      </trkpt>
      <trkpt lat="45.31535" lon="6.17187">
        <ele>2457.1999511719</ele>
        <time>2020-02-16T10:28:39.000Z</time>
      </trkpt>
      <trkpt lat="45.31535" lon="6.17187">
        <ele>2457.3999023438</ele>
        <time>2020-02-16T10:28:57.000Z</time>
      </trkpt>
      <trkpt lat="45.31535" lon="6.17187">
        <ele>2457.1999511719</ele>
        <time>2020-02-16T10:29:08.000Z</time>
      </trkpt>
      <trkpt lat="45.31535" lon="6.17187">
        <ele>2457.3999023438</ele>
        <time>2020-02-16T10:29:27.000Z</time>
      </trkpt>
      <trkpt lat="45.31535" lon="6.17187">
        <ele>2457.3999023438</ele>
        <time>2020-02-16T10:29:41.000Z</time>
      </trkpt>
      <trkpt lat="45.31535" lon="6.17187">
        <ele>2456.8000488281</ele>
        <time>2020-02-16T10:29:53.000Z</time>
      </trkpt>
      <trkpt lat="45.31535" lon="6.17187">
        <ele>2457.6000976562</ele>
        <time>2020-02-16T10:30:05.000Z</time>
      </trkpt>
      <trkpt lat="45.31535" lon="6.17187">
        <ele>2457.1999511719</ele>
        <time>2020-02-16T10:30:20.000Z</time>
      </trkpt>
      <trkpt lat="45.31535" lon="6.17187">
        <ele>2457.6000976562</ele>
        <time>2020-02-16T10:30:33.000Z</time>
      </trkpt>
      <trkpt lat="45.31535" lon="6.17187">
        <ele>2457.1999511719</ele>
        <time>2020-02-16T10:30:47.000Z</time>
      </trkpt>
      <trkpt lat="45.31535" lon="6.17187">
        <ele>2457.1999511719</ele>
        <time>2020-02-16T10:31:04.000Z</time>
      </trkpt>
      <trkpt lat="45.31535" lon="6.17188">
        <ele>2457</ele>
        <time>2020-02-16T10:31:19.000Z</time>
      </trkpt>
      <trkpt lat="45.31535" lon="6.17188">
        <ele>2456.3999023438</ele>
        <time>2020-02-16T10:31:23.000Z</time>
      </trkpt>
      <trkpt lat="45.31535" lon="6.17188">
        <ele>2456.1999511719</ele>
        <time>2020-02-16T10:31:41.000Z</time>
      </trkpt>
      <trkpt lat="45.31535" lon="6.17188">
        <ele>2456.8000488281</ele>
        <time>2020-02-16T10:32:06.000Z</time>
      </trkpt>
      <trkpt lat="45.31535" lon="6.17188">
        <ele>2456</ele>
        <time>2020-02-16T10:32:23.000Z</time>
      </trkpt>
      <trkpt lat="45.31536" lon="6.17191">
        <ele>2456</ele>
        <time>2020-02-16T10:32:29.000Z</time>
      </trkpt>
      <trkpt lat="45.31536" lon="6.17191">
        <ele>2457.3999023438</ele>
        <time>2020-02-16T10:32:45.000Z</time>
      </trkpt>
      <trkpt lat="45.31536" lon="6.17191">
        <ele>2457</ele>
        <time>2020-02-16T10:33:05.000Z</time>
      </trkpt>
      <trkpt lat="45.31536" lon="6.17189">
        <ele>2457.1999511719</ele>
        <time>2020-02-16T10:33:12.000Z</time>
      </trkpt>
      <trkpt lat="45.31536" lon="6.17189">
        <ele>2457</ele>
        <time>2020-02-16T10:33:21.000Z</time>
      </trkpt>
      <trkpt lat="45.31536" lon="6.17189">
        <ele>2457.6000976562</ele>
        <time>2020-02-16T10:33:38.000Z</time>
      </trkpt>
      <trkpt lat="45.31536" lon="6.17189">
        <ele>2457.1999511719</ele>
        <time>2020-02-16T10:33:53.000Z</time>
      </trkpt>
      <trkpt lat="45.31536" lon="6.17189">
        <ele>2457.6000976562</ele>
        <time>2020-02-16T10:34:00.000Z</time>
      </trkpt>
      <trkpt lat="45.31535" lon="6.1719">
        <ele>2456.1999511719</ele>
        <time>2020-02-16T10:34:08.000Z</time>
      </trkpt>
      <trkpt lat="45.31535" lon="6.1719">
        <ele>2456</ele>
        <time>2020-02-16T10:34:21.000Z</time>
      </trkpt>
      <trkpt lat="45.31535" lon="6.1719">
        <ele>2457.3999023438</ele>
        <time>2020-02-16T10:34:25.000Z</time>
      </trkpt>
      <trkpt lat="45.31535" lon="6.1719">
        <ele>2456.3999023438</ele>
        <time>2020-02-16T10:34:32.000Z</time>
      </trkpt>
      <trkpt lat="45.31535" lon="6.1719">
        <ele>2456.3999023438</ele>
        <time>2020-02-16T10:34:40.000Z</time>
      </trkpt>
      <trkpt lat="45.31535" lon="6.17189">
        <ele>2456.1999511719</ele>
        <time>2020-02-16T10:34:47.000Z</time>
      </trkpt>
      <trkpt lat="45.31535" lon="6.17189">
        <ele>2456.3999023438</ele>
        <time>2020-02-16T10:35:01.000Z</time>
      </trkpt>
      <trkpt lat="45.31535" lon="6.17189">
        <ele>2457</ele>
        <time>2020-02-16T10:35:17.000Z</time>
      </trkpt>
      <trkpt lat="45.31535" lon="6.1719">
        <ele>2457.1999511719</ele>
        <time>2020-02-16T10:35:28.000Z</time>
      </trkpt>
      <trkpt lat="45.31534" lon="6.17188">
        <ele>2457.1999511719</ele>
        <time>2020-02-16T10:35:37.000Z</time>
      </trkpt>
      <trkpt lat="45.31532" lon="6.17188">
        <ele>2457.3999023438</ele>
        <time>2020-02-16T10:35:42.000Z</time>
      </trkpt>
      <trkpt lat="45.3153" lon="6.17188">
        <ele>2457.3999023438</ele>
        <time>2020-02-16T10:35:44.000Z</time>
      </trkpt>
      <trkpt lat="45.31528" lon="6.17188">
        <ele>2457.3999023438</ele>
        <time>2020-02-16T10:35:45.000Z</time>
      </trkpt>
      <trkpt lat="45.31518" lon="6.17196">
        <ele>2457.3999023438</ele>
        <time>2020-02-16T10:35:48.000Z</time>
      </trkpt>
      <trkpt lat="45.31504" lon="6.17201">
        <ele>2456.6000976562</ele>
        <time>2020-02-16T10:35:51.000Z</time>
      </trkpt>
      <trkpt lat="45.31499" lon="6.17204">
        <ele>2455.8000488281</ele>
        <time>2020-02-16T10:35:52.000Z</time>
      </trkpt>
      <trkpt lat="45.31495" lon="6.17207">
        <ele>2455</ele>
        <time>2020-02-16T10:35:53.000Z</time>
      </trkpt>
      <trkpt lat="45.31491" lon="6.1721">
        <ele>2454.1999511719</ele>
        <time>2020-02-16T10:35:54.000Z</time>
      </trkpt>
      <trkpt lat="45.31487" lon="6.17213">
        <ele>2453.1999511719</ele>
        <time>2020-02-16T10:35:55.000Z</time>
      </trkpt>
      <trkpt lat="45.31483" lon="6.17215">
        <ele>2451.8000488281</ele>
        <time>2020-02-16T10:35:56.000Z</time>
      </trkpt>
      <trkpt lat="45.31479" lon="6.17218">
        <ele>2450.3999023438</ele>
        <time>2020-02-16T10:35:57.000Z</time>
      </trkpt>
      <trkpt lat="45.31477" lon="6.17222">
        <ele>2449.3999023438</ele>
        <time>2020-02-16T10:35:58.000Z</time>
      </trkpt>
      <trkpt lat="45.31472" lon="6.17226">
        <ele>2448.3999023438</ele>
        <time>2020-02-16T10:35:59.000Z</time>
      </trkpt>
      <trkpt lat="45.31469" lon="6.1723">
        <ele>2447.1999511719</ele>
        <time>2020-02-16T10:36:00.000Z</time>
      </trkpt>
      <trkpt lat="45.31468" lon="6.17234">
        <ele>2445.8000488281</ele>
        <time>2020-02-16T10:36:01.000Z</time>
      </trkpt>
      <trkpt lat="45.31469" lon="6.17238">
        <ele>2444.6000976562</ele>
        <time>2020-02-16T10:36:02.000Z</time>
      </trkpt>
      <trkpt lat="45.3147" lon="6.17243">
        <ele>2443.6000976562</ele>
        <time>2020-02-16T10:36:03.000Z</time>
      </trkpt>
      <trkpt lat="45.31473" lon="6.17246">
        <ele>2442.3999023438</ele>
        <time>2020-02-16T10:36:04.000Z</time>
      </trkpt>
      <trkpt lat="45.31474" lon="6.17247">
        <ele>2441.3999023438</ele>
        <time>2020-02-16T10:36:05.000Z</time>
      </trkpt>
      <trkpt lat="45.31474" lon="6.17247">
        <ele>2440.6000976562</ele>
        <time>2020-02-16T10:36:06.000Z</time>
      </trkpt>
      <trkpt lat="45.31474" lon="6.17247">
        <ele>2440.1999511719</ele>
        <time>2020-02-16T10:36:07.000Z</time>
      </trkpt>
      <trkpt lat="45.31475" lon="6.17251">
        <ele>2439.6000976562</ele>
        <time>2020-02-16T10:36:09.000Z</time>
      </trkpt>
      <trkpt lat="45.31478" lon="6.17259">
        <ele>2439.1999511719</ele>
        <time>2020-02-16T10:36:11.000Z</time>
      </trkpt>
      <trkpt lat="45.31484" lon="6.17263">
        <ele>2439</ele>
        <time>2020-02-16T10:36:13.000Z</time>
      </trkpt>
      <trkpt lat="45.31484" lon="6.17268">
        <ele>2438.8000488281</ele>
        <time>2020-02-16T10:36:14.000Z</time>
      </trkpt>
      <trkpt lat="45.31481" lon="6.17279">
        <ele>2437.1999511719</ele>
        <time>2020-02-16T10:36:16.000Z</time>
      </trkpt>
      <trkpt lat="45.31482" lon="6.17285">
        <ele>2436.1999511719</ele>
        <time>2020-02-16T10:36:17.000Z</time>
      </trkpt>
      <trkpt lat="45.31479" lon="6.17298">
        <ele>2434.3999023438</ele>
        <time>2020-02-16T10:36:19.000Z</time>
      </trkpt>
      <trkpt lat="45.31482" lon="6.17304">
        <ele>2433.1999511719</ele>
        <time>2020-02-16T10:36:20.000Z</time>
      </trkpt>
      <trkpt lat="45.31484" lon="6.1731">
        <ele>2431.6000976562</ele>
        <time>2020-02-16T10:36:21.000Z</time>
      </trkpt>
      <trkpt lat="45.31487" lon="6.17313">
        <ele>2430.1999511719</ele>
        <time>2020-02-16T10:36:22.000Z</time>
      </trkpt>
      <trkpt lat="45.31487" lon="6.17317">
        <ele>2428.8000488281</ele>
        <time>2020-02-16T10:36:23.000Z</time>
      </trkpt>
      <trkpt lat="45.31486" lon="6.1732">
        <ele>2427.1999511719</ele>
        <time>2020-02-16T10:36:24.000Z</time>
      </trkpt>
      <trkpt lat="45.31484" lon="6.17318">
        <ele>2425.3999023438</ele>
        <time>2020-02-16T10:36:25.000Z</time>
      </trkpt>
      <trkpt lat="45.31483" lon="6.17317">
        <ele>2423.3999023438</ele>
        <time>2020-02-16T10:36:26.000Z</time>
      </trkpt>
      <trkpt lat="45.31481" lon="6.17315">
        <ele>2421.3999023438</ele>
        <time>2020-02-16T10:36:27.000Z</time>
      </trkpt>
      <trkpt lat="45.31479" lon="6.17314">
        <ele>2420</ele>
        <time>2020-02-16T10:36:28.000Z</time>
      </trkpt>
      <trkpt lat="45.31474" lon="6.17312">
        <ele>2418.3999023438</ele>
        <time>2020-02-16T10:36:30.000Z</time>
      </trkpt>
      <trkpt lat="45.31468" lon="6.17309">
        <ele>2416.6000976562</ele>
        <time>2020-02-16T10:36:32.000Z</time>
      </trkpt>
      <trkpt lat="45.31466" lon="6.17308">
        <ele>2415.8000488281</ele>
        <time>2020-02-16T10:36:33.000Z</time>
      </trkpt>
      <trkpt lat="45.31464" lon="6.17306">
        <ele>2415.1999511719</ele>
        <time>2020-02-16T10:36:34.000Z</time>
      </trkpt>
      <trkpt lat="45.31457" lon="6.17306">
        <ele>2414.3999023438</ele>
        <time>2020-02-16T10:36:37.000Z</time>
      </trkpt>
      <trkpt lat="45.31455" lon="6.17308">
        <ele>2414.3999023438</ele>
        <time>2020-02-16T10:36:38.000Z</time>
      </trkpt>
      <trkpt lat="45.3145" lon="6.17319">
        <ele>2414</ele>
        <time>2020-02-16T10:36:41.000Z</time>
      </trkpt>
      <trkpt lat="45.31448" lon="6.17324">
        <ele>2413</ele>
        <time>2020-02-16T10:36:42.000Z</time>
      </trkpt>
      <trkpt lat="45.31448" lon="6.1733">
        <ele>2411.3999023438</ele>
        <time>2020-02-16T10:36:43.000Z</time>
      </trkpt>
      <trkpt lat="45.31446" lon="6.17335">
        <ele>2409.8000488281</ele>
        <time>2020-02-16T10:36:44.000Z</time>
      </trkpt>
      <trkpt lat="45.31444" lon="6.17338">
        <ele>2408.8000488281</ele>
        <time>2020-02-16T10:36:45.000Z</time>
      </trkpt>
      <trkpt lat="45.31441" lon="6.17341">
        <ele>2407.8000488281</ele>
        <time>2020-02-16T10:36:46.000Z</time>
      </trkpt>
      <trkpt lat="45.31439" lon="6.17344">
        <ele>2406</ele>
        <time>2020-02-16T10:36:47.000Z</time>
      </trkpt>
      <trkpt lat="45.31438" lon="6.17348">
        <ele>2403.6000976562</ele>
        <time>2020-02-16T10:36:48.000Z</time>
      </trkpt>
      <trkpt lat="45.31437" lon="6.17353">
        <ele>2402</ele>
        <time>2020-02-16T10:36:49.000Z</time>
      </trkpt>
      <trkpt lat="45.31434" lon="6.17356">
        <ele>2400.8000488281</ele>
        <time>2020-02-16T10:36:50.000Z</time>
      </trkpt>
      <trkpt lat="45.3143" lon="6.17358">
        <ele>2399.6000976562</ele>
        <time>2020-02-16T10:36:51.000Z</time>
      </trkpt>
      <trkpt lat="45.31426" lon="6.1736">
        <ele>2397.6000976562</ele>
        <time>2020-02-16T10:36:52.000Z</time>
      </trkpt>
      <trkpt lat="45.31422" lon="6.17361">
        <ele>2395.3999023438</ele>
        <time>2020-02-16T10:36:53.000Z</time>
      </trkpt>
      <trkpt lat="45.31418" lon="6.17363">
        <ele>2393.8000488281</ele>
        <time>2020-02-16T10:36:54.000Z</time>
      </trkpt>
      <trkpt lat="45.31416" lon="6.17365">
        <ele>2392.6000976562</ele>
        <time>2020-02-16T10:36:55.000Z</time>
      </trkpt>
      <trkpt lat="45.31414" lon="6.17369">
        <ele>2391.3999023438</ele>
        <time>2020-02-16T10:36:56.000Z</time>
      </trkpt>
      <trkpt lat="45.31411" lon="6.17373">
        <ele>2390.1999511719</ele>
        <time>2020-02-16T10:36:57.000Z</time>
      </trkpt>
      <trkpt lat="45.31407" lon="6.17375">
        <ele>2388.8000488281</ele>
        <time>2020-02-16T10:36:58.000Z</time>
      </trkpt>
      <trkpt lat="45.31403" lon="6.17376">
        <ele>2386</ele>
        <time>2020-02-16T10:36:59.000Z</time>
      </trkpt>
      <trkpt lat="45.31401" lon="6.17376">
        <ele>2384.8000488281</ele>
        <time>2020-02-16T10:37:00.000Z</time>
      </trkpt>
      <trkpt lat="45.31398" lon="6.17378">
        <ele>2383.8000488281</ele>
        <time>2020-02-16T10:37:01.000Z</time>
      </trkpt>
      <trkpt lat="45.31396" lon="6.17379">
        <ele>2382.6000976562</ele>
        <time>2020-02-16T10:37:02.000Z</time>
      </trkpt>
      <trkpt lat="45.31395" lon="6.17383">
        <ele>2381.3999023438</ele>
        <time>2020-02-16T10:37:03.000Z</time>
      </trkpt>
      <trkpt lat="45.31389" lon="6.1739">
        <ele>2379.3999023438</ele>
        <time>2020-02-16T10:37:05.000Z</time>
      </trkpt>
      <trkpt lat="45.31388" lon="6.17398">
        <ele>2378</ele>
        <time>2020-02-16T10:37:06.000Z</time>
      </trkpt>
      <trkpt lat="45.31387" lon="6.17404">
        <ele>2376.8000488281</ele>
        <time>2020-02-16T10:37:07.000Z</time>
      </trkpt>
      <trkpt lat="45.31391" lon="6.17414">
        <ele>2374.8000488281</ele>
        <time>2020-02-16T10:37:09.000Z</time>
      </trkpt>
      <trkpt lat="45.31393" lon="6.17419">
        <ele>2373.1999511719</ele>
        <time>2020-02-16T10:37:10.000Z</time>
      </trkpt>
      <trkpt lat="45.31395" lon="6.17423">
        <ele>2371</ele>
        <time>2020-02-16T10:37:11.000Z</time>
      </trkpt>
      <trkpt lat="45.31397" lon="6.17427">
        <ele>2369</ele>
        <time>2020-02-16T10:37:12.000Z</time>
      </trkpt>
      <trkpt lat="45.31397" lon="6.17431">
        <ele>2367.3999023438</ele>
        <time>2020-02-16T10:37:13.000Z</time>
      </trkpt>
      <trkpt lat="45.31399" lon="6.17436">
        <ele>2366</ele>
        <time>2020-02-16T10:37:14.000Z</time>
      </trkpt>
      <trkpt lat="45.31401" lon="6.1744">
        <ele>2364.1999511719</ele>
        <time>2020-02-16T10:37:15.000Z</time>
      </trkpt>
      <trkpt lat="45.31402" lon="6.17443">
        <ele>2362.3999023438</ele>
        <time>2020-02-16T10:37:16.000Z</time>
      </trkpt>
      <trkpt lat="45.31402" lon="6.17447">
        <ele>2360.6000976562</ele>
        <time>2020-02-16T10:37:17.000Z</time>
      </trkpt>
      <trkpt lat="45.31402" lon="6.17451">
        <ele>2358.8000488281</ele>
        <time>2020-02-16T10:37:18.000Z</time>
      </trkpt>
      <trkpt lat="45.31401" lon="6.17456">
        <ele>2356.8000488281</ele>
        <time>2020-02-16T10:37:19.000Z</time>
      </trkpt>
      <trkpt lat="45.314" lon="6.1746">
        <ele>2354.8000488281</ele>
        <time>2020-02-16T10:37:20.000Z</time>
      </trkpt>
      <trkpt lat="45.31399" lon="6.17464">
        <ele>2353</ele>
        <time>2020-02-16T10:37:21.000Z</time>
      </trkpt>
      <trkpt lat="45.31398" lon="6.17467">
        <ele>2351.3999023438</ele>
        <time>2020-02-16T10:37:22.000Z</time>
      </trkpt>
      <trkpt lat="45.31394" lon="6.17467">
        <ele>2348.6000976562</ele>
        <time>2020-02-16T10:37:23.000Z</time>
      </trkpt>
      <trkpt lat="45.31392" lon="6.17467">
        <ele>2347.8000488281</ele>
        <time>2020-02-16T10:37:24.000Z</time>
      </trkpt>
      <trkpt lat="45.3139" lon="6.17466">
        <ele>2346.8000488281</ele>
        <time>2020-02-16T10:37:25.000Z</time>
      </trkpt>
      <trkpt lat="45.31387" lon="6.17465">
        <ele>2345.6000976562</ele>
        <time>2020-02-16T10:37:27.000Z</time>
      </trkpt>
      <trkpt lat="45.31386" lon="6.17465">
        <ele>2345.3999023438</ele>
        <time>2020-02-16T10:37:28.000Z</time>
      </trkpt>
      <trkpt lat="45.31385" lon="6.17464">
        <ele>2345.1999511719</ele>
        <time>2020-02-16T10:37:30.000Z</time>
      </trkpt>
      <trkpt lat="45.3138" lon="6.17465">
        <ele>2345.6000976562</ele>
        <time>2020-02-16T10:37:34.000Z</time>
      </trkpt>
      <trkpt lat="45.31376" lon="6.17465">
        <ele>2345.3999023438</ele>
        <time>2020-02-16T10:37:36.000Z</time>
      </trkpt>
      <trkpt lat="45.3136" lon="6.17456">
        <ele>2344.8000488281</ele>
        <time>2020-02-16T10:37:41.000Z</time>
      </trkpt>
      <trkpt lat="45.31357" lon="6.17454">
        <ele>2344.3999023438</ele>
        <time>2020-02-16T10:37:42.000Z</time>
      </trkpt>
      <trkpt lat="45.31347" lon="6.17452">
        <ele>2343.3999023438</ele>
        <time>2020-02-16T10:37:45.000Z</time>
      </trkpt>
      <trkpt lat="45.31345" lon="6.17455">
        <ele>2343.1999511719</ele>
        <time>2020-02-16T10:37:46.000Z</time>
      </trkpt>
      <trkpt lat="45.31344" lon="6.17458">
        <ele>2343</ele>
        <time>2020-02-16T10:37:47.000Z</time>
      </trkpt>
      <trkpt lat="45.31343" lon="6.17462">
        <ele>2342.3999023438</ele>
        <time>2020-02-16T10:37:48.000Z</time>
      </trkpt>
      <trkpt lat="45.31341" lon="6.1747">
        <ele>2341</ele>
        <time>2020-02-16T10:37:50.000Z</time>
      </trkpt>
      <trkpt lat="45.3134" lon="6.17476">
        <ele>2339.3999023438</ele>
        <time>2020-02-16T10:37:51.000Z</time>
      </trkpt>
      <trkpt lat="45.31338" lon="6.17482">
        <ele>2337.3999023438</ele>
        <time>2020-02-16T10:37:52.000Z</time>
      </trkpt>
      <trkpt lat="45.31337" lon="6.17488">
        <ele>2336</ele>
        <time>2020-02-16T10:37:53.000Z</time>
      </trkpt>
      <trkpt lat="45.31335" lon="6.17494">
        <ele>2334.6000976562</ele>
        <time>2020-02-16T10:37:54.000Z</time>
      </trkpt>
      <trkpt lat="45.31333" lon="6.17501">
        <ele>2333.1999511719</ele>
        <time>2020-02-16T10:37:55.000Z</time>
      </trkpt>
      <trkpt lat="45.31329" lon="6.17511">
        <ele>2332</ele>
        <time>2020-02-16T10:37:56.000Z</time>
      </trkpt>
      <trkpt lat="45.31326" lon="6.17522">
        <ele>2331</ele>
        <time>2020-02-16T10:37:57.000Z</time>
      </trkpt>
      <trkpt lat="45.31316" lon="6.17529">
        <ele>2330</ele>
        <time>2020-02-16T10:37:58.000Z</time>
      </trkpt>
      <trkpt lat="45.3131" lon="6.17532">
        <ele>2329</ele>
        <time>2020-02-16T10:37:59.000Z</time>
      </trkpt>
      <trkpt lat="45.31302" lon="6.17541">
        <ele>2327</ele>
        <time>2020-02-16T10:38:01.000Z</time>
      </trkpt>
      <trkpt lat="45.31297" lon="6.17547">
        <ele>2326.1999511719</ele>
        <time>2020-02-16T10:38:02.000Z</time>
      </trkpt>
      <trkpt lat="45.31293" lon="6.17552">
        <ele>2325.6000976562</ele>
        <time>2020-02-16T10:38:03.000Z</time>
      </trkpt>
      <trkpt lat="45.31286" lon="6.17552">
        <ele>2325.1999511719</ele>
        <time>2020-02-16T10:38:04.000Z</time>
      </trkpt>
      <trkpt lat="45.31271" lon="6.17551">
        <ele>2324</ele>
        <time>2020-02-16T10:38:06.000Z</time>
      </trkpt>
      <trkpt lat="45.31265" lon="6.1755">
        <ele>2323</ele>
        <time>2020-02-16T10:38:07.000Z</time>
      </trkpt>
      <trkpt lat="45.31259" lon="6.17549">
        <ele>2322</ele>
        <time>2020-02-16T10:38:08.000Z</time>
      </trkpt>
      <trkpt lat="45.31252" lon="6.17548">
        <ele>2320.6000976562</ele>
        <time>2020-02-16T10:38:09.000Z</time>
      </trkpt>
      <trkpt lat="45.31247" lon="6.17551">
        <ele>2319.3999023438</ele>
        <time>2020-02-16T10:38:10.000Z</time>
      </trkpt>
      <trkpt lat="45.31243" lon="6.17556">
        <ele>2317.8000488281</ele>
        <time>2020-02-16T10:38:11.000Z</time>
      </trkpt>
      <trkpt lat="45.31232" lon="6.17568">
        <ele>2317.1999511719</ele>
        <time>2020-02-16T10:38:13.000Z</time>
      </trkpt>
      <trkpt lat="45.31226" lon="6.17576">
        <ele>2316.8000488281</ele>
        <time>2020-02-16T10:38:14.000Z</time>
      </trkpt>
      <trkpt lat="45.31215" lon="6.17594">
        <ele>2314.6000976562</ele>
        <time>2020-02-16T10:38:16.000Z</time>
      </trkpt>
      <trkpt lat="45.31211" lon="6.17603">
        <ele>2313</ele>
        <time>2020-02-16T10:38:17.000Z</time>
      </trkpt>
      <trkpt lat="45.31205" lon="6.17612">
        <ele>2311.6000976562</ele>
        <time>2020-02-16T10:38:18.000Z</time>
      </trkpt>
      <trkpt lat="45.312" lon="6.17617">
        <ele>2310</ele>
        <time>2020-02-16T10:38:19.000Z</time>
      </trkpt>
      <trkpt lat="45.31196" lon="6.17624">
        <ele>2308.8000488281</ele>
        <time>2020-02-16T10:38:20.000Z</time>
      </trkpt>
      <trkpt lat="45.31193" lon="6.17633">
        <ele>2307.6000976562</ele>
        <time>2020-02-16T10:38:21.000Z</time>
      </trkpt>
      <trkpt lat="45.31189" lon="6.17639">
        <ele>2306.3999023438</ele>
        <time>2020-02-16T10:38:22.000Z</time>
      </trkpt>
      <trkpt lat="45.31186" lon="6.17646">
        <ele>2305.1999511719</ele>
        <time>2020-02-16T10:38:23.000Z</time>
      </trkpt>
      <trkpt lat="45.31183" lon="6.17654">
        <ele>2304</ele>
        <time>2020-02-16T10:38:24.000Z</time>
      </trkpt>
      <trkpt lat="45.31179" lon="6.1766">
        <ele>2303</ele>
        <time>2020-02-16T10:38:25.000Z</time>
      </trkpt>
      <trkpt lat="45.31179" lon="6.1767">
        <ele>2301.8000488281</ele>
        <time>2020-02-16T10:38:26.000Z</time>
      </trkpt>
      <trkpt lat="45.31177" lon="6.1768">
        <ele>2300.8000488281</ele>
        <time>2020-02-16T10:38:27.000Z</time>
      </trkpt>
      <trkpt lat="45.31174" lon="6.17688">
        <ele>2299.1999511719</ele>
        <time>2020-02-16T10:38:28.000Z</time>
      </trkpt>
      <trkpt lat="45.31172" lon="6.17694">
        <ele>2297.6000976562</ele>
        <time>2020-02-16T10:38:29.000Z</time>
      </trkpt>
      <trkpt lat="45.31172" lon="6.17701">
        <ele>2296.3999023438</ele>
        <time>2020-02-16T10:38:30.000Z</time>
      </trkpt>
      <trkpt lat="45.31168" lon="6.17714">
        <ele>2295</ele>
        <time>2020-02-16T10:38:32.000Z</time>
      </trkpt>
      <trkpt lat="45.31165" lon="6.17718">
        <ele>2293.8000488281</ele>
        <time>2020-02-16T10:38:33.000Z</time>
      </trkpt>
      <trkpt lat="45.31161" lon="6.17721">
        <ele>2292.1999511719</ele>
        <time>2020-02-16T10:38:34.000Z</time>
      </trkpt>
      <trkpt lat="45.31157" lon="6.17723">
        <ele>2288.6000976562</ele>
        <time>2020-02-16T10:38:35.000Z</time>
      </trkpt>
      <trkpt lat="45.31153" lon="6.17726">
        <ele>2287.3999023438</ele>
        <time>2020-02-16T10:38:36.000Z</time>
      </trkpt>
      <trkpt lat="45.3115" lon="6.17729">
        <ele>2286.3999023438</ele>
        <time>2020-02-16T10:38:37.000Z</time>
      </trkpt>
      <trkpt lat="45.31146" lon="6.17732">
        <ele>2285.1999511719</ele>
        <time>2020-02-16T10:38:38.000Z</time>
      </trkpt>
      <trkpt lat="45.31142" lon="6.17735">
        <ele>2284</ele>
        <time>2020-02-16T10:38:39.000Z</time>
      </trkpt>
      <trkpt lat="45.31142" lon="6.17738">
        <ele>2283</ele>
        <time>2020-02-16T10:38:40.000Z</time>
      </trkpt>
      <trkpt lat="45.31141" lon="6.17739">
        <ele>2282.1999511719</ele>
        <time>2020-02-16T10:38:41.000Z</time>
      </trkpt>
      <trkpt lat="45.31141" lon="6.1774">
        <ele>2281.3999023438</ele>
        <time>2020-02-16T10:38:42.000Z</time>
      </trkpt>
      <trkpt lat="45.31141" lon="6.1774">
        <ele>2280.6000976562</ele>
        <time>2020-02-16T10:38:46.000Z</time>
      </trkpt>
      <trkpt lat="45.31141" lon="6.1774">
        <ele>2280.6000976562</ele>
        <time>2020-02-16T10:38:59.000Z</time>
      </trkpt>
      <trkpt lat="45.3114" lon="6.1774">
        <ele>2280.3999023438</ele>
        <time>2020-02-16T10:39:04.000Z</time>
      </trkpt>
      <trkpt lat="45.31138" lon="6.17737">
        <ele>2280.3999023438</ele>
        <time>2020-02-16T10:39:05.000Z</time>
      </trkpt>
      <trkpt lat="45.31137" lon="6.17733">
        <ele>2280.1999511719</ele>
        <time>2020-02-16T10:39:06.000Z</time>
      </trkpt>
      <trkpt lat="45.31136" lon="6.17717">
        <ele>2279.8000488281</ele>
        <time>2020-02-16T10:39:08.000Z</time>
      </trkpt>
      <trkpt lat="45.31136" lon="6.17708">
        <ele>2279.6000976562</ele>
        <time>2020-02-16T10:39:09.000Z</time>
      </trkpt>
      <trkpt lat="45.31135" lon="6.17699">
        <ele>2279</ele>
        <time>2020-02-16T10:39:10.000Z</time>
      </trkpt>
      <trkpt lat="45.3113" lon="6.1768">
        <ele>2277.3999023438</ele>
        <time>2020-02-16T10:39:12.000Z</time>
      </trkpt>
      <trkpt lat="45.31122" lon="6.17665">
        <ele>2275.8000488281</ele>
        <time>2020-02-16T10:39:14.000Z</time>
      </trkpt>
      <trkpt lat="45.31117" lon="6.1766">
        <ele>2274.8000488281</ele>
        <time>2020-02-16T10:39:15.000Z</time>
      </trkpt>
      <trkpt lat="45.31112" lon="6.17656">
        <ele>2273.6000976562</ele>
        <time>2020-02-16T10:39:16.000Z</time>
      </trkpt>
      <trkpt lat="45.31102" lon="6.17649">
        <ele>2272</ele>
        <time>2020-02-16T10:39:18.000Z</time>
      </trkpt>
      <trkpt lat="45.31097" lon="6.17654">
        <ele>2271.3999023438</ele>
        <time>2020-02-16T10:39:19.000Z</time>
      </trkpt>
      <trkpt lat="45.31094" lon="6.1766">
        <ele>2270.8000488281</ele>
        <time>2020-02-16T10:39:20.000Z</time>
      </trkpt>
      <trkpt lat="45.31089" lon="6.17663">
        <ele>2270.1999511719</ele>
        <time>2020-02-16T10:39:21.000Z</time>
      </trkpt>
      <trkpt lat="45.31085" lon="6.17665">
        <ele>2269.1999511719</ele>
        <time>2020-02-16T10:39:22.000Z</time>
      </trkpt>
      <trkpt lat="45.3108" lon="6.17667">
        <ele>2266.1999511719</ele>
        <time>2020-02-16T10:39:23.000Z</time>
      </trkpt>
      <trkpt lat="45.31074" lon="6.17668">
        <ele>2265</ele>
        <time>2020-02-16T10:39:24.000Z</time>
      </trkpt>
      <trkpt lat="45.31067" lon="6.17669">
        <ele>2264.3999023438</ele>
        <time>2020-02-16T10:39:25.000Z</time>
      </trkpt>
      <trkpt lat="45.31061" lon="6.17672">
        <ele>2263.8000488281</ele>
        <time>2020-02-16T10:39:26.000Z</time>
      </trkpt>
      <trkpt lat="45.31048" lon="6.17678">
        <ele>2261.8000488281</ele>
        <time>2020-02-16T10:39:28.000Z</time>
      </trkpt>
      <trkpt lat="45.31044" lon="6.1768">
        <ele>2260.1999511719</ele>
        <time>2020-02-16T10:39:29.000Z</time>
      </trkpt>
      <trkpt lat="45.31044" lon="6.17685">
        <ele>2258.3999023438</ele>
        <time>2020-02-16T10:39:30.000Z</time>
      </trkpt>
      <trkpt lat="45.31042" lon="6.17689">
        <ele>2256.8000488281</ele>
        <time>2020-02-16T10:39:31.000Z</time>
      </trkpt>
      <trkpt lat="45.31039" lon="6.17695">
        <ele>2255.1999511719</ele>
        <time>2020-02-16T10:39:32.000Z</time>
      </trkpt>
      <trkpt lat="45.31039" lon="6.177">
        <ele>2253.3999023438</ele>
        <time>2020-02-16T10:39:33.000Z</time>
      </trkpt>
      <trkpt lat="45.31036" lon="6.1771">
        <ele>2251.8000488281</ele>
        <time>2020-02-16T10:39:34.000Z</time>
      </trkpt>
      <trkpt lat="45.31034" lon="6.17716">
        <ele>2250.3999023438</ele>
        <time>2020-02-16T10:39:35.000Z</time>
      </trkpt>
      <trkpt lat="45.31031" lon="6.17721">
        <ele>2248.8000488281</ele>
        <time>2020-02-16T10:39:36.000Z</time>
      </trkpt>
      <trkpt lat="45.31029" lon="6.17725">
        <ele>2246.8000488281</ele>
        <time>2020-02-16T10:39:37.000Z</time>
      </trkpt>
      <trkpt lat="45.31028" lon="6.17727">
        <ele>2245</ele>
        <time>2020-02-16T10:39:38.000Z</time>
      </trkpt>
      <trkpt lat="45.31028" lon="6.17729">
        <ele>2244</ele>
        <time>2020-02-16T10:39:39.000Z</time>
      </trkpt>
      <trkpt lat="45.31027" lon="6.17733">
        <ele>2242</ele>
        <time>2020-02-16T10:39:41.000Z</time>
      </trkpt>
      <trkpt lat="45.31028" lon="6.17734">
        <ele>2240.8000488281</ele>
        <time>2020-02-16T10:39:43.000Z</time>
      </trkpt>
      <trkpt lat="45.3103" lon="6.17733">
        <ele>2240.1999511719</ele>
        <time>2020-02-16T10:39:45.000Z</time>
      </trkpt>
      <trkpt lat="45.3103" lon="6.17733">
        <ele>2239.8000488281</ele>
        <time>2020-02-16T10:39:48.000Z</time>
      </trkpt>
      <trkpt lat="45.3103" lon="6.17733">
        <ele>2241</ele>
        <time>2020-02-16T10:39:55.000Z</time>
      </trkpt>
      <trkpt lat="45.3103" lon="6.17733">
        <ele>2241.6000976562</ele>
        <time>2020-02-16T10:40:00.000Z</time>
      </trkpt>
      <trkpt lat="45.3103" lon="6.17733">
        <ele>2239.8000488281</ele>
        <time>2020-02-16T10:40:07.000Z</time>
      </trkpt>
      <trkpt lat="45.3103" lon="6.17733">
        <ele>2241.1999511719</ele>
        <time>2020-02-16T10:40:11.000Z</time>
      </trkpt>
      <trkpt lat="45.3103" lon="6.17733">
        <ele>2240.3999023438</ele>
        <time>2020-02-16T10:40:16.000Z</time>
      </trkpt>
      <trkpt lat="45.3103" lon="6.17733">
        <ele>2239.8000488281</ele>
        <time>2020-02-16T10:40:18.000Z</time>
      </trkpt>
      <trkpt lat="45.31029" lon="6.17733">
        <ele>2241.1999511719</ele>
        <time>2020-02-16T10:40:24.000Z</time>
      </trkpt>
      <trkpt lat="45.31029" lon="6.17733">
        <ele>2240.6000976562</ele>
        <time>2020-02-16T10:40:32.000Z</time>
      </trkpt>
      <trkpt lat="45.31029" lon="6.17733">
        <ele>2240</ele>
        <time>2020-02-16T10:40:34.000Z</time>
      </trkpt>
      <trkpt lat="45.31029" lon="6.17733">
        <ele>2240.1999511719</ele>
        <time>2020-02-16T10:40:44.000Z</time>
      </trkpt>
      <trkpt lat="45.31029" lon="6.17733">
        <ele>2241</ele>
        <time>2020-02-16T10:40:48.000Z</time>
      </trkpt>
      <trkpt lat="45.31029" lon="6.17733">
        <ele>2240</ele>
        <time>2020-02-16T10:40:53.000Z</time>
      </trkpt>
      <trkpt lat="45.31029" lon="6.17733">
        <ele>2239.8000488281</ele>
        <time>2020-02-16T10:40:56.000Z</time>
      </trkpt>
      <trkpt lat="45.31029" lon="6.17733">
        <ele>2241</ele>
        <time>2020-02-16T10:41:03.000Z</time>
      </trkpt>
      <trkpt lat="45.3103" lon="6.17732">
        <ele>2240.6000976562</ele>
        <time>2020-02-16T10:41:07.000Z</time>
      </trkpt>
      <trkpt lat="45.3103" lon="6.17732">
        <ele>2240.1999511719</ele>
        <time>2020-02-16T10:41:22.000Z</time>
      </trkpt>
      <trkpt lat="45.31029" lon="6.17741">
        <ele>2240</ele>
        <time>2020-02-16T10:41:29.000Z</time>
      </trkpt>
      <trkpt lat="45.31029" lon="6.17751">
        <ele>2239.8000488281</ele>
        <time>2020-02-16T10:41:30.000Z</time>
      </trkpt>
      <trkpt lat="45.31032" lon="6.1776">
        <ele>2239.1999511719</ele>
        <time>2020-02-16T10:41:33.000Z</time>
      </trkpt>
      <trkpt lat="45.31036" lon="6.17759">
        <ele>2238.8000488281</ele>
        <time>2020-02-16T10:41:36.000Z</time>
      </trkpt>
      <trkpt lat="45.31039" lon="6.17759">
        <ele>2238.3999023438</ele>
        <time>2020-02-16T10:41:39.000Z</time>
      </trkpt>
      <trkpt lat="45.3104" lon="6.17775">
        <ele>2238.1999511719</ele>
        <time>2020-02-16T10:41:44.000Z</time>
      </trkpt>
      <trkpt lat="45.31038" lon="6.17779">
        <ele>2237.8000488281</ele>
        <time>2020-02-16T10:41:45.000Z</time>
      </trkpt>
      <trkpt lat="45.31034" lon="6.1778">
        <ele>2237.3999023438</ele>
        <time>2020-02-16T10:41:46.000Z</time>
      </trkpt>
      <trkpt lat="45.31029" lon="6.17784">
        <ele>2235.3999023438</ele>
        <time>2020-02-16T10:41:47.000Z</time>
      </trkpt>
      <trkpt lat="45.31026" lon="6.17788">
        <ele>2234.3999023438</ele>
        <time>2020-02-16T10:41:48.000Z</time>
      </trkpt>
      <trkpt lat="45.31023" lon="6.17793">
        <ele>2233.6000976562</ele>
        <time>2020-02-16T10:41:49.000Z</time>
      </trkpt>
      <trkpt lat="45.31018" lon="6.17798">
        <ele>2232.6000976562</ele>
        <time>2020-02-16T10:41:50.000Z</time>
      </trkpt>
      <trkpt lat="45.31014" lon="6.17801">
        <ele>2231</ele>
        <time>2020-02-16T10:41:51.000Z</time>
      </trkpt>
      <trkpt lat="45.3101" lon="6.17801">
        <ele>2228.8000488281</ele>
        <time>2020-02-16T10:41:52.000Z</time>
      </trkpt>
      <trkpt lat="45.31006" lon="6.17803">
        <ele>2226.1999511719</ele>
        <time>2020-02-16T10:41:53.000Z</time>
      </trkpt>
      <trkpt lat="45.31002" lon="6.17805">
        <ele>2224.3999023438</ele>
        <time>2020-02-16T10:41:54.000Z</time>
      </trkpt>
      <trkpt lat="45.30999" lon="6.17809">
        <ele>2223.3999023438</ele>
        <time>2020-02-16T10:41:55.000Z</time>
      </trkpt>
      <trkpt lat="45.30996" lon="6.1781">
        <ele>2222.3999023438</ele>
        <time>2020-02-16T10:41:56.000Z</time>
      </trkpt>
      <trkpt lat="45.30993" lon="6.17813">
        <ele>2220.6000976562</ele>
        <time>2020-02-16T10:41:57.000Z</time>
      </trkpt>
      <trkpt lat="45.30991" lon="6.17816">
        <ele>2218.6000976562</ele>
        <time>2020-02-16T10:41:58.000Z</time>
      </trkpt>
      <trkpt lat="45.30985" lon="6.17818">
        <ele>2216.3999023438</ele>
        <time>2020-02-16T10:41:59.000Z</time>
      </trkpt>
      <trkpt lat="45.30981" lon="6.1782">
        <ele>2214.3999023438</ele>
        <time>2020-02-16T10:42:00.000Z</time>
      </trkpt>
      <trkpt lat="45.30979" lon="6.17821">
        <ele>2212.6000976562</ele>
        <time>2020-02-16T10:42:01.000Z</time>
      </trkpt>
      <trkpt lat="45.30982" lon="6.17829">
        <ele>2211.3999023438</ele>
        <time>2020-02-16T10:42:02.000Z</time>
      </trkpt>
      <trkpt lat="45.30985" lon="6.17842">
        <ele>2209.3999023438</ele>
        <time>2020-02-16T10:42:04.000Z</time>
      </trkpt>
      <trkpt lat="45.30984" lon="6.17849">
        <ele>2207.8000488281</ele>
        <time>2020-02-16T10:42:05.000Z</time>
      </trkpt>
      <trkpt lat="45.30983" lon="6.17858">
        <ele>2206.1999511719</ele>
        <time>2020-02-16T10:42:06.000Z</time>
      </trkpt>
      <trkpt lat="45.30984" lon="6.17866">
        <ele>2204.3999023438</ele>
        <time>2020-02-16T10:42:07.000Z</time>
      </trkpt>
      <trkpt lat="45.30984" lon="6.17875">
        <ele>2203</ele>
        <time>2020-02-16T10:42:08.000Z</time>
      </trkpt>
      <trkpt lat="45.30984" lon="6.17884">
        <ele>2201.6000976562</ele>
        <time>2020-02-16T10:42:09.000Z</time>
      </trkpt>
      <trkpt lat="45.30984" lon="6.17894">
        <ele>2200.1999511719</ele>
        <time>2020-02-16T10:42:10.000Z</time>
      </trkpt>
      <trkpt lat="45.30984" lon="6.17903">
        <ele>2196.8000488281</ele>
        <time>2020-02-16T10:42:11.000Z</time>
      </trkpt>
      <trkpt lat="45.30985" lon="6.17912">
        <ele>2195.1999511719</ele>
        <time>2020-02-16T10:42:12.000Z</time>
      </trkpt>
      <trkpt lat="45.30984" lon="6.17918">
        <ele>2193.8000488281</ele>
        <time>2020-02-16T10:42:13.000Z</time>
      </trkpt>
      <trkpt lat="45.30985" lon="6.17919">
        <ele>2192.3999023438</ele>
        <time>2020-02-16T10:42:14.000Z</time>
      </trkpt>
      <trkpt lat="45.30986" lon="6.17919">
        <ele>2191.1999511719</ele>
        <time>2020-02-16T10:42:15.000Z</time>
      </trkpt>
      <trkpt lat="45.30986" lon="6.1792">
        <ele>2190.1999511719</ele>
        <time>2020-02-16T10:42:16.000Z</time>
      </trkpt>
      <trkpt lat="45.30986" lon="6.1793">
        <ele>2188.8000488281</ele>
        <time>2020-02-16T10:42:18.000Z</time>
      </trkpt>
      <trkpt lat="45.30987" lon="6.17946">
        <ele>2187.8000488281</ele>
        <time>2020-02-16T10:42:20.000Z</time>
      </trkpt>
      <trkpt lat="45.30987" lon="6.17954">
        <ele>2187.3999023438</ele>
        <time>2020-02-16T10:42:21.000Z</time>
      </trkpt>
      <trkpt lat="45.30988" lon="6.17965">
        <ele>2185.6000976562</ele>
        <time>2020-02-16T10:42:23.000Z</time>
      </trkpt>
      <trkpt lat="45.30991" lon="6.17968">
        <ele>2184.1999511719</ele>
        <time>2020-02-16T10:42:24.000Z</time>
      </trkpt>
      <trkpt lat="45.30992" lon="6.17963">
        <ele>2182.6000976562</ele>
        <time>2020-02-16T10:42:25.000Z</time>
      </trkpt>
      <trkpt lat="45.30989" lon="6.17961">
        <ele>2180.8000488281</ele>
        <time>2020-02-16T10:42:26.000Z</time>
      </trkpt>
      <trkpt lat="45.30987" lon="6.17959">
        <ele>2179</ele>
        <time>2020-02-16T10:42:27.000Z</time>
      </trkpt>
      <trkpt lat="45.30988" lon="6.17957">
        <ele>2177.3999023438</ele>
        <time>2020-02-16T10:42:28.000Z</time>
      </trkpt>
      <trkpt lat="45.30989" lon="6.17957">
        <ele>2176.1999511719</ele>
        <time>2020-02-16T10:42:29.000Z</time>
      </trkpt>
      <trkpt lat="45.30989" lon="6.1796">
        <ele>2175.3999023438</ele>
        <time>2020-02-16T10:42:30.000Z</time>
      </trkpt>
      <trkpt lat="45.30989" lon="6.17964">
        <ele>2174.1999511719</ele>
        <time>2020-02-16T10:42:31.000Z</time>
      </trkpt>
      <trkpt lat="45.30987" lon="6.17975">
        <ele>2172.3999023438</ele>
        <time>2020-02-16T10:42:32.000Z</time>
      </trkpt>
      <trkpt lat="45.30985" lon="6.17984">
        <ele>2170.3999023438</ele>
        <time>2020-02-16T10:42:33.000Z</time>
      </trkpt>
      <trkpt lat="45.30983" lon="6.17989">
        <ele>2168.3999023438</ele>
        <time>2020-02-16T10:42:34.000Z</time>
      </trkpt>
      <trkpt lat="45.30982" lon="6.17994">
        <ele>2163.8000488281</ele>
        <time>2020-02-16T10:42:35.000Z</time>
      </trkpt>
      <trkpt lat="45.30981" lon="6.18">
        <ele>2162</ele>
        <time>2020-02-16T10:42:36.000Z</time>
      </trkpt>
      <trkpt lat="45.30981" lon="6.18007">
        <ele>2160.6000976562</ele>
        <time>2020-02-16T10:42:37.000Z</time>
      </trkpt>
      <trkpt lat="45.30981" lon="6.18015">
        <ele>2159.3999023438</ele>
        <time>2020-02-16T10:42:38.000Z</time>
      </trkpt>
      <trkpt lat="45.30981" lon="6.1802">
        <ele>2158.6000976562</ele>
        <time>2020-02-16T10:42:39.000Z</time>
      </trkpt>
      <trkpt lat="45.30978" lon="6.18026">
        <ele>2158</ele>
        <time>2020-02-16T10:42:40.000Z</time>
      </trkpt>
      <trkpt lat="45.30974" lon="6.18033">
        <ele>2155.8000488281</ele>
        <time>2020-02-16T10:42:42.000Z</time>
      </trkpt>
      <trkpt lat="45.3097" lon="6.18039">
        <ele>2154.1999511719</ele>
        <time>2020-02-16T10:42:43.000Z</time>
      </trkpt>
      <trkpt lat="45.30968" lon="6.18045">
        <ele>2152.6000976562</ele>
        <time>2020-02-16T10:42:44.000Z</time>
      </trkpt>
      <trkpt lat="45.30965" lon="6.18051">
        <ele>2151.6000976562</ele>
        <time>2020-02-16T10:42:45.000Z</time>
      </trkpt>
      <trkpt lat="45.30963" lon="6.18055">
        <ele>2150.6000976562</ele>
        <time>2020-02-16T10:42:46.000Z</time>
      </trkpt>
      <trkpt lat="45.30959" lon="6.18056">
        <ele>2148.8000488281</ele>
        <time>2020-02-16T10:42:47.000Z</time>
      </trkpt>
      <trkpt lat="45.30956" lon="6.18059">
        <ele>2146.1999511719</ele>
        <time>2020-02-16T10:42:48.000Z</time>
      </trkpt>
      <trkpt lat="45.30952" lon="6.18064">
        <ele>2143.6000976562</ele>
        <time>2020-02-16T10:42:49.000Z</time>
      </trkpt>
      <trkpt lat="45.30949" lon="6.1807">
        <ele>2141.6000976562</ele>
        <time>2020-02-16T10:42:50.000Z</time>
      </trkpt>
      <trkpt lat="45.30948" lon="6.1808">
        <ele>2140.3999023438</ele>
        <time>2020-02-16T10:42:51.000Z</time>
      </trkpt>
      <trkpt lat="45.30946" lon="6.18088">
        <ele>2138.8000488281</ele>
        <time>2020-02-16T10:42:52.000Z</time>
      </trkpt>
      <trkpt lat="45.3094" lon="6.18101">
        <ele>2136.8000488281</ele>
        <time>2020-02-16T10:42:53.000Z</time>
      </trkpt>
      <trkpt lat="45.30933" lon="6.18115">
        <ele>2134.6000976562</ele>
        <time>2020-02-16T10:42:54.000Z</time>
      </trkpt>
      <trkpt lat="45.30924" lon="6.18127">
        <ele>2132.6000976562</ele>
        <time>2020-02-16T10:42:55.000Z</time>
      </trkpt>
      <trkpt lat="45.30917" lon="6.1814">
        <ele>2130.8000488281</ele>
        <time>2020-02-16T10:42:56.000Z</time>
      </trkpt>
      <trkpt lat="45.30911" lon="6.18153">
        <ele>2128.8000488281</ele>
        <time>2020-02-16T10:42:57.000Z</time>
      </trkpt>
      <trkpt lat="45.30904" lon="6.18166">
        <ele>2126.8000488281</ele>
        <time>2020-02-16T10:42:58.000Z</time>
      </trkpt>
      <trkpt lat="45.30896" lon="6.18178">
        <ele>2122.8000488281</ele>
        <time>2020-02-16T10:42:59.000Z</time>
      </trkpt>
      <trkpt lat="45.30891" lon="6.18188">
        <ele>2121.1999511719</ele>
        <time>2020-02-16T10:43:00.000Z</time>
      </trkpt>
      <trkpt lat="45.30888" lon="6.18194">
        <ele>2119.6000976562</ele>
        <time>2020-02-16T10:43:01.000Z</time>
      </trkpt>
      <trkpt lat="45.30884" lon="6.18202">
        <ele>2118.1999511719</ele>
        <time>2020-02-16T10:43:02.000Z</time>
      </trkpt>
      <trkpt lat="45.3088" lon="6.18208">
        <ele>2117</ele>
        <time>2020-02-16T10:43:03.000Z</time>
      </trkpt>
      <trkpt lat="45.30876" lon="6.18216">
        <ele>2115.6000976562</ele>
        <time>2020-02-16T10:43:05.000Z</time>
      </trkpt>
      <trkpt lat="45.30874" lon="6.18218">
        <ele>2115.3999023438</ele>
        <time>2020-02-16T10:43:06.000Z</time>
      </trkpt>
      <trkpt lat="45.30872" lon="6.18225">
        <ele>2114.8000488281</ele>
        <time>2020-02-16T10:43:11.000Z</time>
      </trkpt>
      <trkpt lat="45.30872" lon="6.18224">
        <ele>2114.8000488281</ele>
        <time>2020-02-16T10:43:20.000Z</time>
      </trkpt>
      <trkpt lat="45.30871" lon="6.18221">
        <ele>2114.6000976562</ele>
        <time>2020-02-16T10:43:24.000Z</time>
      </trkpt>
      <trkpt lat="45.3087" lon="6.18216">
        <ele>2114.3999023438</ele>
        <time>2020-02-16T10:43:32.000Z</time>
      </trkpt>
      <trkpt lat="45.3087" lon="6.18216">
        <ele>2114</ele>
        <time>2020-02-16T10:43:44.000Z</time>
      </trkpt>
      <trkpt lat="45.3087" lon="6.18216">
        <ele>2114.3999023438</ele>
        <time>2020-02-16T10:43:54.000Z</time>
      </trkpt>
      <trkpt lat="45.3087" lon="6.18216">
        <ele>2114.1999511719</ele>
        <time>2020-02-16T10:44:05.000Z</time>
      </trkpt>
      <trkpt lat="45.30869" lon="6.18213">
        <ele>2114.3999023438</ele>
        <time>2020-02-16T10:44:20.000Z</time>
      </trkpt>
      <trkpt lat="45.30869" lon="6.18213">
        <ele>2114.3999023438</ele>
        <time>2020-02-16T10:44:36.000Z</time>
      </trkpt>
      <trkpt lat="45.30871" lon="6.18205">
        <ele>2114.6000976562</ele>
        <time>2020-02-16T10:44:53.000Z</time>
      </trkpt>
      <trkpt lat="45.30871" lon="6.18205">
        <ele>2114.6000976562</ele>
        <time>2020-02-16T10:45:10.000Z</time>
      </trkpt>
      <trkpt lat="45.3087" lon="6.18203">
        <ele>2114.6000976562</ele>
        <time>2020-02-16T10:45:28.000Z</time>
      </trkpt>
      <trkpt lat="45.3087" lon="6.18203">
        <ele>2114.6000976562</ele>
        <time>2020-02-16T10:45:43.000Z</time>
      </trkpt>
      <trkpt lat="45.3087" lon="6.18203">
        <ele>2114.6000976562</ele>
        <time>2020-02-16T10:45:58.000Z</time>
      </trkpt>
      <trkpt lat="45.30872" lon="6.18193">
        <ele>2114.8000488281</ele>
        <time>2020-02-16T10:46:10.000Z</time>
      </trkpt>
      <trkpt lat="45.30872" lon="6.18193">
        <ele>2114.6000976562</ele>
        <time>2020-02-16T10:46:21.000Z</time>
      </trkpt>
      <trkpt lat="45.30872" lon="6.18193">
        <ele>2114.8000488281</ele>
        <time>2020-02-16T10:46:35.000Z</time>
      </trkpt>
      <trkpt lat="45.30872" lon="6.18193">
        <ele>2114.8000488281</ele>
        <time>2020-02-16T10:46:39.000Z</time>
      </trkpt>
      <trkpt lat="45.30872" lon="6.18192">
        <ele>2114.3999023438</ele>
        <time>2020-02-16T10:46:50.000Z</time>
      </trkpt>
      <trkpt lat="45.30872" lon="6.18192">
        <ele>2114.1999511719</ele>
        <time>2020-02-16T10:47:05.000Z</time>
      </trkpt>
      <trkpt lat="45.30872" lon="6.18192">
        <ele>2114.1999511719</ele>
        <time>2020-02-16T10:47:22.000Z</time>
      </trkpt>
      <trkpt lat="45.30871" lon="6.1819">
        <ele>2114.1999511719</ele>
        <time>2020-02-16T10:47:35.000Z</time>
      </trkpt>
      <trkpt lat="45.30871" lon="6.1819">
        <ele>2114.1999511719</ele>
        <time>2020-02-16T10:47:48.000Z</time>
      </trkpt>
      <trkpt lat="45.30871" lon="6.1819">
        <ele>2114</ele>
        <time>2020-02-16T10:48:02.000Z</time>
      </trkpt>
      <trkpt lat="45.3087" lon="6.18187">
        <ele>2114.1999511719</ele>
        <time>2020-02-16T10:48:14.000Z</time>
      </trkpt>
      <trkpt lat="45.3087" lon="6.18187">
        <ele>2114.1999511719</ele>
        <time>2020-02-16T10:48:31.000Z</time>
      </trkpt>
      <trkpt lat="45.30871" lon="6.18178">
        <ele>2114.3999023438</ele>
        <time>2020-02-16T10:48:48.000Z</time>
      </trkpt>
      <trkpt lat="45.30871" lon="6.18178">
        <ele>2114.1999511719</ele>
        <time>2020-02-16T10:49:03.000Z</time>
      </trkpt>
      <trkpt lat="45.30871" lon="6.18178">
        <ele>2114.3999023438</ele>
        <time>2020-02-16T10:49:17.000Z</time>
      </trkpt>
      <trkpt lat="45.3087" lon="6.1817">
        <ele>2114</ele>
        <time>2020-02-16T10:49:28.000Z</time>
      </trkpt>
      <trkpt lat="45.3087" lon="6.1817">
        <ele>2113.1999511719</ele>
        <time>2020-02-16T10:49:29.000Z</time>
      </trkpt>
      <trkpt lat="45.3087" lon="6.1817">
        <ele>2114</ele>
        <time>2020-02-16T10:49:36.000Z</time>
      </trkpt>
      <trkpt lat="45.3087" lon="6.1817">
        <ele>2114.1999511719</ele>
        <time>2020-02-16T10:49:39.000Z</time>
      </trkpt>
      <trkpt lat="45.3087" lon="6.1817">
        <ele>2113.3999023438</ele>
        <time>2020-02-16T10:49:46.000Z</time>
      </trkpt>
      <trkpt lat="45.3087" lon="6.1817">
        <ele>2113.1999511719</ele>
        <time>2020-02-16T10:49:47.000Z</time>
      </trkpt>
      <trkpt lat="45.3087" lon="6.1817">
        <ele>2114.1999511719</ele>
        <time>2020-02-16T10:49:56.000Z</time>
      </trkpt>
      <trkpt lat="45.3087" lon="6.1817">
        <ele>2114.6000976562</ele>
        <time>2020-02-16T10:50:01.000Z</time>
      </trkpt>
      <trkpt lat="45.30871" lon="6.18166">
        <ele>2114</ele>
        <time>2020-02-16T10:50:17.000Z</time>
      </trkpt>
      <trkpt lat="45.30871" lon="6.18166">
        <ele>2114</ele>
        <time>2020-02-16T10:50:30.000Z</time>
      </trkpt>
      <trkpt lat="45.30871" lon="6.18166">
        <ele>2113.8000488281</ele>
        <time>2020-02-16T10:50:34.000Z</time>
      </trkpt>
      <trkpt lat="45.30871" lon="6.18166">
        <ele>2113.3999023438</ele>
        <time>2020-02-16T10:50:42.000Z</time>
      </trkpt>
      <trkpt lat="45.30871" lon="6.18164">
        <ele>2114.1999511719</ele>
        <time>2020-02-16T10:50:54.000Z</time>
      </trkpt>
      <trkpt lat="45.30871" lon="6.18164">
        <ele>2114</ele>
        <time>2020-02-16T10:51:10.000Z</time>
      </trkpt>
      <trkpt lat="45.30871" lon="6.18164">
        <ele>2113.6000976562</ele>
        <time>2020-02-16T10:51:26.000Z</time>
      </trkpt>
      <trkpt lat="45.30872" lon="6.18162">
        <ele>2113.3999023438</ele>
        <time>2020-02-16T10:51:40.000Z</time>
      </trkpt>
      <trkpt lat="45.30872" lon="6.18162">
        <ele>2113.3999023438</ele>
        <time>2020-02-16T10:51:58.000Z</time>
      </trkpt>
      <trkpt lat="45.30872" lon="6.1816">
        <ele>2113.3999023438</ele>
        <time>2020-02-16T10:52:17.000Z</time>
      </trkpt>
      <trkpt lat="45.30872" lon="6.1816">
        <ele>2113.6000976562</ele>
        <time>2020-02-16T10:52:31.000Z</time>
      </trkpt>
      <trkpt lat="45.30873" lon="6.18158">
        <ele>2114</ele>
        <time>2020-02-16T10:52:40.000Z</time>
      </trkpt>
      <trkpt lat="45.30875" lon="6.18155">
        <ele>2114.8000488281</ele>
        <time>2020-02-16T10:52:49.000Z</time>
      </trkpt>
      <trkpt lat="45.30876" lon="6.18152">
        <ele>2115.3999023438</ele>
        <time>2020-02-16T10:52:54.000Z</time>
      </trkpt>
      <trkpt lat="45.30876" lon="6.18152">
        <ele>2115.6000976562</ele>
        <time>2020-02-16T10:52:55.000Z</time>
      </trkpt>
      <trkpt lat="45.30876" lon="6.18151">
        <ele>2116.6000976562</ele>
        <time>2020-02-16T10:53:00.000Z</time>
      </trkpt>
      <trkpt lat="45.30876" lon="6.1815">
        <ele>2116.8000488281</ele>
        <time>2020-02-16T10:53:01.000Z</time>
      </trkpt>
      <trkpt lat="45.30875" lon="6.18148">
        <ele>2117.8000488281</ele>
        <time>2020-02-16T10:53:05.000Z</time>
      </trkpt>
      <trkpt lat="45.30876" lon="6.18145">
        <ele>2118.3999023438</ele>
        <time>2020-02-16T10:53:08.000Z</time>
      </trkpt>
      <trkpt lat="45.30876" lon="6.18145">
        <ele>2118.8000488281</ele>
        <time>2020-02-16T10:53:10.000Z</time>
      </trkpt>
      <trkpt lat="45.30876" lon="6.18148">
        <ele>2119.6000976562</ele>
        <time>2020-02-16T10:53:14.000Z</time>
      </trkpt>
      <trkpt lat="45.30876" lon="6.18149">
        <ele>2120</ele>
        <time>2020-02-16T10:53:15.000Z</time>
      </trkpt>
      <trkpt lat="45.30877" lon="6.18159">
        <ele>2121.1999511719</ele>
        <time>2020-02-16T10:53:20.000Z</time>
      </trkpt>
      <trkpt lat="45.30878" lon="6.18165">
        <ele>2121.6000976562</ele>
        <time>2020-02-16T10:53:23.000Z</time>
      </trkpt>
      <trkpt lat="45.30879" lon="6.18165">
        <ele>2122.3999023438</ele>
        <time>2020-02-16T10:53:26.000Z</time>
      </trkpt>
      <trkpt lat="45.30879" lon="6.18165">
        <ele>2123</ele>
        <time>2020-02-16T10:53:30.000Z</time>
      </trkpt>
      <trkpt lat="45.3088" lon="6.1817">
        <ele>2123</ele>
        <time>2020-02-16T10:53:37.000Z</time>
      </trkpt>
      <trkpt lat="45.30882" lon="6.18174">
        <ele>2123.3999023438</ele>
        <time>2020-02-16T10:53:40.000Z</time>
      </trkpt>
      <trkpt lat="45.30884" lon="6.18178">
        <ele>2123.8000488281</ele>
        <time>2020-02-16T10:53:43.000Z</time>
      </trkpt>
      <trkpt lat="45.30887" lon="6.18184">
        <ele>2124.8000488281</ele>
        <time>2020-02-16T10:53:48.000Z</time>
      </trkpt>
      <trkpt lat="45.30889" lon="6.18188">
        <ele>2125.6000976562</ele>
        <time>2020-02-16T10:53:51.000Z</time>
      </trkpt>
      <trkpt lat="45.3089" lon="6.18189">
        <ele>2125.8000488281</ele>
        <time>2020-02-16T10:53:52.000Z</time>
      </trkpt>
      <trkpt lat="45.30891" lon="6.18192">
        <ele>2127</ele>
        <time>2020-02-16T10:53:56.000Z</time>
      </trkpt>
      <trkpt lat="45.30893" lon="6.18199">
        <ele>2127.3999023438</ele>
        <time>2020-02-16T10:54:03.000Z</time>
      </trkpt>
      <trkpt lat="45.30893" lon="6.18201">
        <ele>2128.1999511719</ele>
        <time>2020-02-16T10:54:06.000Z</time>
      </trkpt>
      <trkpt lat="45.30894" lon="6.18206">
        <ele>2129</ele>
        <time>2020-02-16T10:54:11.000Z</time>
      </trkpt>
      <trkpt lat="45.30894" lon="6.18207">
        <ele>2129.1999511719</ele>
        <time>2020-02-16T10:54:12.000Z</time>
      </trkpt>
      <trkpt lat="45.30895" lon="6.18212">
        <ele>2130.1999511719</ele>
        <time>2020-02-16T10:54:17.000Z</time>
      </trkpt>
      <trkpt lat="45.30895" lon="6.18214">
        <ele>2130.8000488281</ele>
        <time>2020-02-16T10:54:19.000Z</time>
      </trkpt>
      <trkpt lat="45.30896" lon="6.18215">
        <ele>2131.1999511719</ele>
        <time>2020-02-16T10:54:20.000Z</time>
      </trkpt>
      <trkpt lat="45.30898" lon="6.1822">
        <ele>2132.1999511719</ele>
        <time>2020-02-16T10:54:25.000Z</time>
      </trkpt>
      <trkpt lat="45.30899" lon="6.18221">
        <ele>2132.3999023438</ele>
        <time>2020-02-16T10:54:28.000Z</time>
      </trkpt>
      <trkpt lat="45.309" lon="6.18225">
        <ele>2133.3999023438</ele>
        <time>2020-02-16T10:54:33.000Z</time>
      </trkpt>
      <trkpt lat="45.309" lon="6.18226">
        <ele>2133.8000488281</ele>
        <time>2020-02-16T10:54:34.000Z</time>
      </trkpt>
      <trkpt lat="45.309" lon="6.18228">
        <ele>2134.3999023438</ele>
        <time>2020-02-16T10:54:37.000Z</time>
      </trkpt>
      <trkpt lat="45.309" lon="6.1823">
        <ele>2134.6000976562</ele>
        <time>2020-02-16T10:54:40.000Z</time>
      </trkpt>
      <trkpt lat="45.30903" lon="6.18234">
        <ele>2135.6000976562</ele>
        <time>2020-02-16T10:54:45.000Z</time>
      </trkpt>
      <trkpt lat="45.30904" lon="6.18236">
        <ele>2136.3999023438</ele>
        <time>2020-02-16T10:54:48.000Z</time>
      </trkpt>
      <trkpt lat="45.30904" lon="6.18238">
        <ele>2136.6000976562</ele>
        <time>2020-02-16T10:54:50.000Z</time>
      </trkpt>
      <trkpt lat="45.30906" lon="6.18244">
        <ele>2137</ele>
        <time>2020-02-16T10:54:55.000Z</time>
      </trkpt>
      <trkpt lat="45.30907" lon="6.18246">
        <ele>2137.8000488281</ele>
        <time>2020-02-16T10:54:58.000Z</time>
      </trkpt>
      <trkpt lat="45.30907" lon="6.18248">
        <ele>2138.8000488281</ele>
        <time>2020-02-16T10:55:01.000Z</time>
      </trkpt>
      <trkpt lat="45.30906" lon="6.1825">
        <ele>2139.3999023438</ele>
        <time>2020-02-16T10:55:04.000Z</time>
      </trkpt>
      <trkpt lat="45.30906" lon="6.1825">
        <ele>2140</ele>
        <time>2020-02-16T10:55:14.000Z</time>
      </trkpt>
      <trkpt lat="45.30906" lon="6.1825">
        <ele>2140</ele>
        <time>2020-02-16T10:55:15.000Z</time>
      </trkpt>
      <trkpt lat="45.30908" lon="6.18247">
        <ele>2140.6000976562</ele>
        <time>2020-02-16T10:55:24.000Z</time>
      </trkpt>
      <trkpt lat="45.30912" lon="6.1824">
        <ele>2141.1999511719</ele>
        <time>2020-02-16T10:55:32.000Z</time>
      </trkpt>
      <trkpt lat="45.30913" lon="6.18238">
        <ele>2142</ele>
        <time>2020-02-16T10:55:35.000Z</time>
      </trkpt>
      <trkpt lat="45.30914" lon="6.18238">
        <ele>2142.3999023438</ele>
        <time>2020-02-16T10:55:36.000Z</time>
      </trkpt>
      <trkpt lat="45.30916" lon="6.18236">
        <ele>2143.3999023438</ele>
        <time>2020-02-16T10:55:40.000Z</time>
      </trkpt>
      <trkpt lat="45.30919" lon="6.18234">
        <ele>2144.3999023438</ele>
        <time>2020-02-16T10:55:45.000Z</time>
      </trkpt>
      <trkpt lat="45.3092" lon="6.18234">
        <ele>2145.3999023438</ele>
        <time>2020-02-16T10:55:49.000Z</time>
      </trkpt>
      <trkpt lat="45.30924" lon="6.18232">
        <ele>2145.8000488281</ele>
        <time>2020-02-16T10:55:54.000Z</time>
      </trkpt>
      <trkpt lat="45.30926" lon="6.18229">
        <ele>2146.6000976562</ele>
        <time>2020-02-16T10:55:59.000Z</time>
      </trkpt>
      <trkpt lat="45.30926" lon="6.18228">
        <ele>2146.8000488281</ele>
        <time>2020-02-16T10:56:00.000Z</time>
      </trkpt>
      <trkpt lat="45.30928" lon="6.18226">
        <ele>2147.8000488281</ele>
        <time>2020-02-16T10:56:05.000Z</time>
      </trkpt>
      <trkpt lat="45.3093" lon="6.18225">
        <ele>2148</ele>
        <time>2020-02-16T10:56:07.000Z</time>
      </trkpt>
      <trkpt lat="45.30933" lon="6.18224">
        <ele>2148.8000488281</ele>
        <time>2020-02-16T10:56:11.000Z</time>
      </trkpt>
      <trkpt lat="45.30935" lon="6.18225">
        <ele>2149.8000488281</ele>
        <time>2020-02-16T10:56:15.000Z</time>
      </trkpt>
      <trkpt lat="45.30935" lon="6.18225">
        <ele>2150</ele>
        <time>2020-02-16T10:56:16.000Z</time>
      </trkpt>
      <trkpt lat="45.30937" lon="6.18225">
        <ele>2150.6000976562</ele>
        <time>2020-02-16T10:56:19.000Z</time>
      </trkpt>
      <trkpt lat="45.30938" lon="6.18225">
        <ele>2151</ele>
        <time>2020-02-16T10:56:22.000Z</time>
      </trkpt>
      <trkpt lat="45.3094" lon="6.18226">
        <ele>2151.6000976562</ele>
        <time>2020-02-16T10:56:26.000Z</time>
      </trkpt>
      <trkpt lat="45.30941" lon="6.18226">
        <ele>2152.1999511719</ele>
        <time>2020-02-16T10:56:28.000Z</time>
      </trkpt>
      <trkpt lat="45.30944" lon="6.18227">
        <ele>2152.8000488281</ele>
        <time>2020-02-16T10:56:31.000Z</time>
      </trkpt>
      <trkpt lat="45.30945" lon="6.18227">
        <ele>2153.1999511719</ele>
        <time>2020-02-16T10:56:33.000Z</time>
      </trkpt>
      <trkpt lat="45.30946" lon="6.18227">
        <ele>2154.1999511719</ele>
        <time>2020-02-16T10:56:37.000Z</time>
      </trkpt>
      <trkpt lat="45.30948" lon="6.18225">
        <ele>2155.1999511719</ele>
        <time>2020-02-16T10:56:44.000Z</time>
      </trkpt>
      <trkpt lat="45.30948" lon="6.18226">
        <ele>2155.3999023438</ele>
        <time>2020-02-16T10:56:47.000Z</time>
      </trkpt>
      <trkpt lat="45.30947" lon="6.18226">
        <ele>2156.6000976562</ele>
        <time>2020-02-16T10:56:51.000Z</time>
      </trkpt>
      <trkpt lat="45.30946" lon="6.18227">
        <ele>2156.8000488281</ele>
        <time>2020-02-16T10:56:52.000Z</time>
      </trkpt>
      <trkpt lat="45.30946" lon="6.18231">
        <ele>2156.3999023438</ele>
        <time>2020-02-16T10:56:58.000Z</time>
      </trkpt>
      <trkpt lat="45.30945" lon="6.18236">
        <ele>2157.3999023438</ele>
        <time>2020-02-16T10:57:04.000Z</time>
      </trkpt>
      <trkpt lat="45.30945" lon="6.18236">
        <ele>2157.6000976562</ele>
        <time>2020-02-16T10:57:05.000Z</time>
      </trkpt>
      <trkpt lat="45.30945" lon="6.1824">
        <ele>2158.6000976562</ele>
        <time>2020-02-16T10:57:09.000Z</time>
      </trkpt>
      <trkpt lat="45.30945" lon="6.18241">
        <ele>2158.8000488281</ele>
        <time>2020-02-16T10:57:10.000Z</time>
      </trkpt>
      <trkpt lat="45.30945" lon="6.18246">
        <ele>2159.8000488281</ele>
        <time>2020-02-16T10:57:16.000Z</time>
      </trkpt>
      <trkpt lat="45.30945" lon="6.18253">
        <ele>2161</ele>
        <time>2020-02-16T10:57:23.000Z</time>
      </trkpt>
      <trkpt lat="45.30945" lon="6.18253">
        <ele>2161.1999511719</ele>
        <time>2020-02-16T10:57:24.000Z</time>
      </trkpt>
      <trkpt lat="45.30945" lon="6.18255">
        <ele>2162.1999511719</ele>
        <time>2020-02-16T10:57:29.000Z</time>
      </trkpt>
      <trkpt lat="45.30945" lon="6.18257">
        <ele>2162.6000976562</ele>
        <time>2020-02-16T10:57:31.000Z</time>
      </trkpt>
      <trkpt lat="45.30944" lon="6.1826">
        <ele>2163.1999511719</ele>
        <time>2020-02-16T10:57:34.000Z</time>
      </trkpt>
      <trkpt lat="45.30945" lon="6.18264">
        <ele>2164</ele>
        <time>2020-02-16T10:57:39.000Z</time>
      </trkpt>
      <trkpt lat="45.30945" lon="6.18268">
        <ele>2164.1999511719</ele>
        <time>2020-02-16T10:57:43.000Z</time>
      </trkpt>
      <trkpt lat="45.30945" lon="6.18272">
        <ele>2165</ele>
        <time>2020-02-16T10:57:47.000Z</time>
      </trkpt>
      <trkpt lat="45.30945" lon="6.18273">
        <ele>2165.3999023438</ele>
        <time>2020-02-16T10:57:48.000Z</time>
      </trkpt>
      <trkpt lat="45.30944" lon="6.18278">
        <ele>2166.3999023438</ele>
        <time>2020-02-16T10:57:54.000Z</time>
      </trkpt>
      <trkpt lat="45.30944" lon="6.1828">
        <ele>2167</ele>
        <time>2020-02-16T10:57:56.000Z</time>
      </trkpt>
      <trkpt lat="45.30943" lon="6.18283">
        <ele>2167.6000976562</ele>
        <time>2020-02-16T10:57:59.000Z</time>
      </trkpt>
      <trkpt lat="45.30942" lon="6.18286">
        <ele>2168.1999511719</ele>
        <time>2020-02-16T10:58:03.000Z</time>
      </trkpt>
      <trkpt lat="45.30941" lon="6.18288">
        <ele>2168.6000976562</ele>
        <time>2020-02-16T10:58:06.000Z</time>
      </trkpt>
      <trkpt lat="45.30941" lon="6.18293">
        <ele>2169.3999023438</ele>
        <time>2020-02-16T10:58:11.000Z</time>
      </trkpt>
      <trkpt lat="45.30941" lon="6.18295">
        <ele>2170</ele>
        <time>2020-02-16T10:58:13.000Z</time>
      </trkpt>
      <trkpt lat="45.30941" lon="6.18301">
        <ele>2171</ele>
        <time>2020-02-16T10:58:20.000Z</time>
      </trkpt>
      <trkpt lat="45.30941" lon="6.18302">
        <ele>2171.1999511719</ele>
        <time>2020-02-16T10:58:21.000Z</time>
      </trkpt>
      <trkpt lat="45.30941" lon="6.18303">
        <ele>2172.1999511719</ele>
        <time>2020-02-16T10:58:26.000Z</time>
      </trkpt>
      <trkpt lat="45.30941" lon="6.18303">
        <ele>2172.3999023438</ele>
        <time>2020-02-16T10:58:29.000Z</time>
      </trkpt>
      <trkpt lat="45.30941" lon="6.18303">
        <ele>2172.1999511719</ele>
        <time>2020-02-16T10:58:43.000Z</time>
      </trkpt>
      <trkpt lat="45.30941" lon="6.18303">
        <ele>2172</ele>
        <time>2020-02-16T10:58:54.000Z</time>
      </trkpt>
      <trkpt lat="45.30941" lon="6.1831">
        <ele>2172.6000976562</ele>
        <time>2020-02-16T10:59:01.000Z</time>
      </trkpt>
      <trkpt lat="45.30942" lon="6.18314">
        <ele>2173.3999023438</ele>
        <time>2020-02-16T10:59:05.000Z</time>
      </trkpt>
      <trkpt lat="45.30942" lon="6.18316">
        <ele>2174</ele>
        <time>2020-02-16T10:59:09.000Z</time>
      </trkpt>
      <trkpt lat="45.30942" lon="6.1832">
        <ele>2174.3999023438</ele>
        <time>2020-02-16T10:59:12.000Z</time>
      </trkpt>
      <trkpt lat="45.30943" lon="6.18323">
        <ele>2175</ele>
        <time>2020-02-16T10:59:15.000Z</time>
      </trkpt>
      <trkpt lat="45.30943" lon="6.18326">
        <ele>2175.6000976562</ele>
        <time>2020-02-16T10:59:18.000Z</time>
      </trkpt>
      <trkpt lat="45.30942" lon="6.18332">
        <ele>2176.6000976562</ele>
        <time>2020-02-16T10:59:24.000Z</time>
      </trkpt>
      <trkpt lat="45.30942" lon="6.18336">
        <ele>2177.6000976562</ele>
        <time>2020-02-16T10:59:28.000Z</time>
      </trkpt>
      <trkpt lat="45.30942" lon="6.18339">
        <ele>2178.6000976562</ele>
        <time>2020-02-16T10:59:32.000Z</time>
      </trkpt>
      <trkpt lat="45.30941" lon="6.18339">
        <ele>2178.8000488281</ele>
        <time>2020-02-16T10:59:33.000Z</time>
      </trkpt>
      <trkpt lat="45.30939" lon="6.18344">
        <ele>2179.6000976562</ele>
        <time>2020-02-16T10:59:38.000Z</time>
      </trkpt>
      <trkpt lat="45.30939" lon="6.18346">
        <ele>2180</ele>
        <time>2020-02-16T10:59:40.000Z</time>
      </trkpt>
      <trkpt lat="45.30938" lon="6.18348">
        <ele>2181</ele>
        <time>2020-02-16T10:59:44.000Z</time>
      </trkpt>
      <trkpt lat="45.30937" lon="6.18349">
        <ele>2181.1999511719</ele>
        <time>2020-02-16T10:59:45.000Z</time>
      </trkpt>
      <trkpt lat="45.30936" lon="6.18353">
        <ele>2182.1999511719</ele>
        <time>2020-02-16T10:59:50.000Z</time>
      </trkpt>
      <trkpt lat="45.30935" lon="6.18355">
        <ele>2183.1999511719</ele>
        <time>2020-02-16T10:59:54.000Z</time>
      </trkpt>
      <trkpt lat="45.30935" lon="6.18355">
        <ele>2184</ele>
        <time>2020-02-16T10:59:58.000Z</time>
      </trkpt>
      <trkpt lat="45.30935" lon="6.18355">
        <ele>2184.1999511719</ele>
        <time>2020-02-16T11:00:02.000Z</time>
      </trkpt>
      <trkpt lat="45.30936" lon="6.18355">
        <ele>2184.1999511719</ele>
        <time>2020-02-16T11:00:06.000Z</time>
      </trkpt>
      <trkpt lat="45.30939" lon="6.18356">
        <ele>2185</ele>
        <time>2020-02-16T11:00:12.000Z</time>
      </trkpt>
      <trkpt lat="45.3094" lon="6.18356">
        <ele>2185.1999511719</ele>
        <time>2020-02-16T11:00:13.000Z</time>
      </trkpt>
      <trkpt lat="45.30943" lon="6.18355">
        <ele>2186.3999023438</ele>
        <time>2020-02-16T11:00:20.000Z</time>
      </trkpt>
      <trkpt lat="45.30946" lon="6.18354">
        <ele>2187.6000976562</ele>
        <time>2020-02-16T11:00:25.000Z</time>
      </trkpt>
      <trkpt lat="45.3095" lon="6.18351">
        <ele>2188.6000976562</ele>
        <time>2020-02-16T11:00:31.000Z</time>
      </trkpt>
      <trkpt lat="45.30951" lon="6.18351">
        <ele>2189</ele>
        <time>2020-02-16T11:00:33.000Z</time>
      </trkpt>
      <trkpt lat="45.30952" lon="6.18351">
        <ele>2189.8000488281</ele>
        <time>2020-02-16T11:00:37.000Z</time>
      </trkpt>
      <trkpt lat="45.30954" lon="6.1835">
        <ele>2190.1999511719</ele>
        <time>2020-02-16T11:00:41.000Z</time>
      </trkpt>
      <trkpt lat="45.30954" lon="6.1835">
        <ele>2190.8000488281</ele>
        <time>2020-02-16T11:00:47.000Z</time>
      </trkpt>
      <trkpt lat="45.30954" lon="6.1835">
        <ele>2191.3999023438</ele>
        <time>2020-02-16T11:00:48.000Z</time>
      </trkpt>
      <trkpt lat="45.30954" lon="6.1835">
        <ele>2192</ele>
        <time>2020-02-16T11:00:50.000Z</time>
      </trkpt>
      <trkpt lat="45.30953" lon="6.18351">
        <ele>2192.3999023438</ele>
        <time>2020-02-16T11:00:55.000Z</time>
      </trkpt>
      <trkpt lat="45.3095" lon="6.18355">
        <ele>2193</ele>
        <time>2020-02-16T11:01:01.000Z</time>
      </trkpt>
      <trkpt lat="45.3095" lon="6.18356">
        <ele>2193.1999511719</ele>
        <time>2020-02-16T11:01:02.000Z</time>
      </trkpt>
      <trkpt lat="45.30949" lon="6.18358">
        <ele>2194.1999511719</ele>
        <time>2020-02-16T11:01:06.000Z</time>
      </trkpt>
      <trkpt lat="45.30945" lon="6.18362">
        <ele>2195.3999023438</ele>
        <time>2020-02-16T11:01:13.000Z</time>
      </trkpt>
      <trkpt lat="45.30944" lon="6.18365">
        <ele>2196.3999023438</ele>
        <time>2020-02-16T11:01:19.000Z</time>
      </trkpt>
      <trkpt lat="45.30947" lon="6.18368">
        <ele>2197</ele>
        <time>2020-02-16T11:01:28.000Z</time>
      </trkpt>
      <trkpt lat="45.30948" lon="6.18368">
        <ele>2197.3999023438</ele>
        <time>2020-02-16T11:01:31.000Z</time>
      </trkpt>
      <trkpt lat="45.30952" lon="6.18368">
        <ele>2198</ele>
        <time>2020-02-16T11:01:36.000Z</time>
      </trkpt>
      <trkpt lat="45.30955" lon="6.18367">
        <ele>2198.6000976562</ele>
        <time>2020-02-16T11:01:40.000Z</time>
      </trkpt>
      <trkpt lat="45.30956" lon="6.18367">
        <ele>2199</ele>
        <time>2020-02-16T11:01:43.000Z</time>
      </trkpt>
      <trkpt lat="45.30959" lon="6.18368">
        <ele>2199.6000976562</ele>
        <time>2020-02-16T11:01:46.000Z</time>
      </trkpt>
      <trkpt lat="45.3096" lon="6.18367">
        <ele>2200.1999511719</ele>
        <time>2020-02-16T11:01:48.000Z</time>
      </trkpt>
      <trkpt lat="45.30962" lon="6.18366">
        <ele>2200.6000976562</ele>
        <time>2020-02-16T11:01:51.000Z</time>
      </trkpt>
      <trkpt lat="45.30966" lon="6.18364">
        <ele>2201.6000976562</ele>
        <time>2020-02-16T11:01:56.000Z</time>
      </trkpt>
      <trkpt lat="45.3097" lon="6.18361">
        <ele>2202.8000488281</ele>
        <time>2020-02-16T11:02:01.000Z</time>
      </trkpt>
      <trkpt lat="45.30973" lon="6.18359">
        <ele>2203.3999023438</ele>
        <time>2020-02-16T11:02:05.000Z</time>
      </trkpt>
      <trkpt lat="45.30975" lon="6.18357">
        <ele>2204</ele>
        <time>2020-02-16T11:02:09.000Z</time>
      </trkpt>
      <trkpt lat="45.30976" lon="6.18354">
        <ele>2204.8000488281</ele>
        <time>2020-02-16T11:02:13.000Z</time>
      </trkpt>
      <trkpt lat="45.30976" lon="6.18354">
        <ele>2205</ele>
        <time>2020-02-16T11:02:14.000Z</time>
      </trkpt>
      <trkpt lat="45.3098" lon="6.1835">
        <ele>2205.8000488281</ele>
        <time>2020-02-16T11:02:21.000Z</time>
      </trkpt>
      <trkpt lat="45.30981" lon="6.18349">
        <ele>2206.1999511719</ele>
        <time>2020-02-16T11:02:23.000Z</time>
      </trkpt>
      <trkpt lat="45.30983" lon="6.18345">
        <ele>2206.6000976562</ele>
        <time>2020-02-16T11:02:29.000Z</time>
      </trkpt>
      <trkpt lat="45.30985" lon="6.18343">
        <ele>2207.1999511719</ele>
        <time>2020-02-16T11:02:32.000Z</time>
      </trkpt>
      <trkpt lat="45.30986" lon="6.18341">
        <ele>2208</ele>
        <time>2020-02-16T11:02:36.000Z</time>
      </trkpt>
      <trkpt lat="45.30986" lon="6.18341">
        <ele>2208.1999511719</ele>
        <time>2020-02-16T11:02:38.000Z</time>
      </trkpt>
      <trkpt lat="45.30986" lon="6.18341">
        <ele>2209</ele>
        <time>2020-02-16T11:02:47.000Z</time>
      </trkpt>
      <trkpt lat="45.30986" lon="6.18341">
        <ele>2209.1999511719</ele>
        <time>2020-02-16T11:02:58.000Z</time>
      </trkpt>
      <trkpt lat="45.30986" lon="6.18341">
        <ele>2209</ele>
        <time>2020-02-16T11:03:06.000Z</time>
      </trkpt>
      <trkpt lat="45.30987" lon="6.18341">
        <ele>2209.1999511719</ele>
        <time>2020-02-16T11:03:21.000Z</time>
      </trkpt>
      <trkpt lat="45.30988" lon="6.18338">
        <ele>2209.3999023438</ele>
        <time>2020-02-16T11:03:31.000Z</time>
      </trkpt>
      <trkpt lat="45.30989" lon="6.18334">
        <ele>2210.3999023438</ele>
        <time>2020-02-16T11:03:37.000Z</time>
      </trkpt>
      <trkpt lat="45.3099" lon="6.18333">
        <ele>2210.6000976562</ele>
        <time>2020-02-16T11:03:39.000Z</time>
      </trkpt>
      <trkpt lat="45.30994" lon="6.18329">
        <ele>2211.6000976562</ele>
        <time>2020-02-16T11:03:46.000Z</time>
      </trkpt>
      <trkpt lat="45.30997" lon="6.18327">
        <ele>2212.8000488281</ele>
        <time>2020-02-16T11:03:50.000Z</time>
      </trkpt>
      <trkpt lat="45.31" lon="6.18325">
        <ele>2213.8000488281</ele>
        <time>2020-02-16T11:03:55.000Z</time>
      </trkpt>
      <trkpt lat="45.31001" lon="6.18324">
        <ele>2215</ele>
        <time>2020-02-16T11:03:59.000Z</time>
      </trkpt>
      <trkpt lat="45.31002" lon="6.18324">
        <ele>2215.1999511719</ele>
        <time>2020-02-16T11:04:02.000Z</time>
      </trkpt>
      <trkpt lat="45.31" lon="6.18328">
        <ele>2215.6000976562</ele>
        <time>2020-02-16T11:04:09.000Z</time>
      </trkpt>
      <trkpt lat="45.30999" lon="6.18329">
        <ele>2216</ele>
        <time>2020-02-16T11:04:11.000Z</time>
      </trkpt>
      <trkpt lat="45.30998" lon="6.18334">
        <ele>2216.3999023438</ele>
        <time>2020-02-16T11:04:17.000Z</time>
      </trkpt>
      <trkpt lat="45.30999" lon="6.18337">
        <ele>2217.1999511719</ele>
        <time>2020-02-16T11:04:20.000Z</time>
      </trkpt>
      <trkpt lat="45.31" lon="6.18341">
        <ele>2218</ele>
        <time>2020-02-16T11:04:25.000Z</time>
      </trkpt>
      <trkpt lat="45.31" lon="6.18342">
        <ele>2218.1999511719</ele>
        <time>2020-02-16T11:04:26.000Z</time>
      </trkpt>
      <trkpt lat="45.31001" lon="6.18343">
        <ele>2219.3999023438</ele>
        <time>2020-02-16T11:04:31.000Z</time>
      </trkpt>
      <trkpt lat="45.31001" lon="6.18346">
        <ele>2220.6000976562</ele>
        <time>2020-02-16T11:04:36.000Z</time>
      </trkpt>
      <trkpt lat="45.31001" lon="6.18349">
        <ele>2221</ele>
        <time>2020-02-16T11:04:38.000Z</time>
      </trkpt>
      <trkpt lat="45.31001" lon="6.18351">
        <ele>2221.6000976562</ele>
        <time>2020-02-16T11:04:41.000Z</time>
      </trkpt>
      <trkpt lat="45.31002" lon="6.18356">
        <ele>2222.6000976562</ele>
        <time>2020-02-16T11:04:46.000Z</time>
      </trkpt>
      <trkpt lat="45.31004" lon="6.1836">
        <ele>2223.6000976562</ele>
        <time>2020-02-16T11:04:52.000Z</time>
      </trkpt>
      <trkpt lat="45.31004" lon="6.18361">
        <ele>2223.8000488281</ele>
        <time>2020-02-16T11:04:54.000Z</time>
      </trkpt>
      <trkpt lat="45.31005" lon="6.18367">
        <ele>2224.1999511719</ele>
        <time>2020-02-16T11:05:00.000Z</time>
      </trkpt>
      <trkpt lat="45.31006" lon="6.18368">
        <ele>2224.8000488281</ele>
        <time>2020-02-16T11:05:02.000Z</time>
      </trkpt>
      <trkpt lat="45.31006" lon="6.18373">
        <ele>2226</ele>
        <time>2020-02-16T11:05:07.000Z</time>
      </trkpt>
      <trkpt lat="45.31006" lon="6.18374">
        <ele>2226.1999511719</ele>
        <time>2020-02-16T11:05:08.000Z</time>
      </trkpt>
      <trkpt lat="45.31006" lon="6.18379">
        <ele>2227.1999511719</ele>
        <time>2020-02-16T11:05:14.000Z</time>
      </trkpt>
      <trkpt lat="45.31006" lon="6.18379">
        <ele>2227.3999023438</ele>
        <time>2020-02-16T11:05:15.000Z</time>
      </trkpt>
      <trkpt lat="45.31006" lon="6.1838">
        <ele>2228.1999511719</ele>
        <time>2020-02-16T11:05:18.000Z</time>
      </trkpt>
      <trkpt lat="45.31007" lon="6.18383">
        <ele>2229.1999511719</ele>
        <time>2020-02-16T11:05:23.000Z</time>
      </trkpt>
      <trkpt lat="45.31007" lon="6.18386">
        <ele>2230.3999023438</ele>
        <time>2020-02-16T11:05:32.000Z</time>
      </trkpt>
      <trkpt lat="45.31007" lon="6.18382">
        <ele>2229.8000488281</ele>
        <time>2020-02-16T11:05:37.000Z</time>
      </trkpt>
      <trkpt lat="45.31007" lon="6.18382">
        <ele>2229</ele>
        <time>2020-02-16T11:05:38.000Z</time>
      </trkpt>
      <trkpt lat="45.31007" lon="6.18382">
        <ele>2228</ele>
        <time>2020-02-16T11:05:41.000Z</time>
      </trkpt>
      <trkpt lat="45.31007" lon="6.18382">
        <ele>2229</ele>
        <time>2020-02-16T11:05:46.000Z</time>
      </trkpt>
      <trkpt lat="45.31007" lon="6.18382">
        <ele>2230.1999511719</ele>
        <time>2020-02-16T11:05:49.000Z</time>
      </trkpt>
      <trkpt lat="45.31008" lon="6.18381">
        <ele>2230.1999511719</ele>
        <time>2020-02-16T11:05:55.000Z</time>
      </trkpt>
      <trkpt lat="45.31011" lon="6.18378">
        <ele>2231.1999511719</ele>
        <time>2020-02-16T11:06:02.000Z</time>
      </trkpt>
      <trkpt lat="45.31013" lon="6.18373">
        <ele>2232.3999023438</ele>
        <time>2020-02-16T11:06:09.000Z</time>
      </trkpt>
      <trkpt lat="45.31014" lon="6.18372">
        <ele>2233</ele>
        <time>2020-02-16T11:06:11.000Z</time>
      </trkpt>
      <trkpt lat="45.31014" lon="6.18371">
        <ele>2233.3999023438</ele>
        <time>2020-02-16T11:06:12.000Z</time>
      </trkpt>
      <trkpt lat="45.31015" lon="6.18369">
        <ele>2234.3999023438</ele>
        <time>2020-02-16T11:06:15.000Z</time>
      </trkpt>
      <trkpt lat="45.31016" lon="6.18367">
        <ele>2235</ele>
        <time>2020-02-16T11:06:20.000Z</time>
      </trkpt>
      <trkpt lat="45.31017" lon="6.18366">
        <ele>2235.3999023438</ele>
        <time>2020-02-16T11:06:22.000Z</time>
      </trkpt>
      <trkpt lat="45.31017" lon="6.18362">
        <ele>2236.6000976562</ele>
        <time>2020-02-16T11:06:27.000Z</time>
      </trkpt>
      <trkpt lat="45.31018" lon="6.1836">
        <ele>2237</ele>
        <time>2020-02-16T11:06:29.000Z</time>
      </trkpt>
      <trkpt lat="45.3102" lon="6.18356">
        <ele>2237.6000976562</ele>
        <time>2020-02-16T11:06:34.000Z</time>
      </trkpt>
      <trkpt lat="45.31024" lon="6.18355">
        <ele>2238.1999511719</ele>
        <time>2020-02-16T11:06:38.000Z</time>
      </trkpt>
      <trkpt lat="45.31027" lon="6.18354">
        <ele>2238.6000976562</ele>
        <time>2020-02-16T11:06:43.000Z</time>
      </trkpt>
      <trkpt lat="45.31027" lon="6.18354">
        <ele>2239</ele>
        <time>2020-02-16T11:06:47.000Z</time>
      </trkpt>
      <trkpt lat="45.31027" lon="6.18354">
        <ele>2239.8000488281</ele>
        <time>2020-02-16T11:06:51.000Z</time>
      </trkpt>
      <trkpt lat="45.31027" lon="6.18354">
        <ele>2240</ele>
        <time>2020-02-16T11:07:03.000Z</time>
      </trkpt>
      <trkpt lat="45.31027" lon="6.18354">
        <ele>2239.8000488281</ele>
        <time>2020-02-16T11:07:20.000Z</time>
      </trkpt>
      <trkpt lat="45.31026" lon="6.18355">
        <ele>2240</ele>
        <time>2020-02-16T11:07:26.000Z</time>
      </trkpt>
      <trkpt lat="45.31026" lon="6.18355">
        <ele>2239.8000488281</ele>
        <time>2020-02-16T11:07:33.000Z</time>
      </trkpt>
      <trkpt lat="45.31028" lon="6.18357">
        <ele>2239.8000488281</ele>
        <time>2020-02-16T11:07:43.000Z</time>
      </trkpt>
      <trkpt lat="45.31032" lon="6.18356">
        <ele>2240.8000488281</ele>
        <time>2020-02-16T11:07:49.000Z</time>
      </trkpt>
      <trkpt lat="45.31033" lon="6.18356">
        <ele>2241</ele>
        <time>2020-02-16T11:07:50.000Z</time>
      </trkpt>
      <trkpt lat="45.31037" lon="6.18356">
        <ele>2241.6000976562</ele>
        <time>2020-02-16T11:07:54.000Z</time>
      </trkpt>
      <trkpt lat="45.3104" lon="6.18358">
        <ele>2242</ele>
        <time>2020-02-16T11:07:57.000Z</time>
      </trkpt>
      <trkpt lat="45.31043" lon="6.18359">
        <ele>2242.6000976562</ele>
        <time>2020-02-16T11:08:00.000Z</time>
      </trkpt>
      <trkpt lat="45.31046" lon="6.1836">
        <ele>2243</ele>
        <time>2020-02-16T11:08:03.000Z</time>
      </trkpt>
      <trkpt lat="45.31048" lon="6.1836">
        <ele>2243.6000976562</ele>
        <time>2020-02-16T11:08:06.000Z</time>
      </trkpt>
      <trkpt lat="45.3105" lon="6.1836">
        <ele>2244.1999511719</ele>
        <time>2020-02-16T11:08:09.000Z</time>
      </trkpt>
      <trkpt lat="45.31052" lon="6.1836">
        <ele>2245.1999511719</ele>
        <time>2020-02-16T11:08:13.000Z</time>
      </trkpt>
      <trkpt lat="45.31053" lon="6.1836">
        <ele>2245.6000976562</ele>
        <time>2020-02-16T11:08:14.000Z</time>
      </trkpt>
      <trkpt lat="45.31055" lon="6.1836">
        <ele>2246.6000976562</ele>
        <time>2020-02-16T11:08:19.000Z</time>
      </trkpt>
      <trkpt lat="45.31057" lon="6.1836">
        <ele>2247.8000488281</ele>
        <time>2020-02-16T11:08:25.000Z</time>
      </trkpt>
      <trkpt lat="45.3106" lon="6.18361">
        <ele>2248.8000488281</ele>
        <time>2020-02-16T11:08:31.000Z</time>
      </trkpt>
      <trkpt lat="45.3106" lon="6.18361">
        <ele>2248.8000488281</ele>
        <time>2020-02-16T11:08:32.000Z</time>
      </trkpt>
      <trkpt lat="45.31062" lon="6.18362">
        <ele>2249.3999023438</ele>
        <time>2020-02-16T11:08:36.000Z</time>
      </trkpt>
      <trkpt lat="45.31062" lon="6.18363">
        <ele>2249.8000488281</ele>
        <time>2020-02-16T11:08:38.000Z</time>
      </trkpt>
      <trkpt lat="45.31062" lon="6.18364">
        <ele>2251</ele>
        <time>2020-02-16T11:08:43.000Z</time>
      </trkpt>
      <trkpt lat="45.31062" lon="6.18364">
        <ele>2251</ele>
        <time>2020-02-16T11:08:44.000Z</time>
      </trkpt>
      <trkpt lat="45.31061" lon="6.18368">
        <ele>2251.1999511719</ele>
        <time>2020-02-16T11:08:56.000Z</time>
      </trkpt>
      <trkpt lat="45.31062" lon="6.18373">
        <ele>2252.1999511719</ele>
        <time>2020-02-16T11:09:01.000Z</time>
      </trkpt>
      <trkpt lat="45.31062" lon="6.18377">
        <ele>2252.8000488281</ele>
        <time>2020-02-16T11:09:04.000Z</time>
      </trkpt>
      <trkpt lat="45.31063" lon="6.18379">
        <ele>2253.1999511719</ele>
        <time>2020-02-16T11:09:07.000Z</time>
      </trkpt>
      <trkpt lat="45.31063" lon="6.18385">
        <ele>2254.1999511719</ele>
        <time>2020-02-16T11:09:12.000Z</time>
      </trkpt>
      <trkpt lat="45.31063" lon="6.18385">
        <ele>2254.3999023438</ele>
        <time>2020-02-16T11:09:13.000Z</time>
      </trkpt>
      <trkpt lat="45.31063" lon="6.18391">
        <ele>2255.3999023438</ele>
        <time>2020-02-16T11:09:18.000Z</time>
      </trkpt>
      <trkpt lat="45.31063" lon="6.18396">
        <ele>2256.1999511719</ele>
        <time>2020-02-16T11:09:22.000Z</time>
      </trkpt>
      <trkpt lat="45.31062" lon="6.18398">
        <ele>2256.3999023438</ele>
        <time>2020-02-16T11:09:24.000Z</time>
      </trkpt>
      <trkpt lat="45.31063" lon="6.18403">
        <ele>2257.3999023438</ele>
        <time>2020-02-16T11:09:29.000Z</time>
      </trkpt>
      <trkpt lat="45.31063" lon="6.18405">
        <ele>2257.8000488281</ele>
        <time>2020-02-16T11:09:31.000Z</time>
      </trkpt>
      <trkpt lat="45.31064" lon="6.18409">
        <ele>2258.6000976562</ele>
        <time>2020-02-16T11:09:36.000Z</time>
      </trkpt>
      <trkpt lat="45.31064" lon="6.1841">
        <ele>2258.8000488281</ele>
        <time>2020-02-16T11:09:37.000Z</time>
      </trkpt>
      <trkpt lat="45.31065" lon="6.18416">
        <ele>2259.8000488281</ele>
        <time>2020-02-16T11:09:43.000Z</time>
      </trkpt>
      <trkpt lat="45.31065" lon="6.18418">
        <ele>2260.1999511719</ele>
        <time>2020-02-16T11:09:44.000Z</time>
      </trkpt>
      <trkpt lat="45.31065" lon="6.18421">
        <ele>2261</ele>
        <time>2020-02-16T11:09:48.000Z</time>
      </trkpt>
      <trkpt lat="45.31066" lon="6.18423">
        <ele>2261.8000488281</ele>
        <time>2020-02-16T11:09:51.000Z</time>
      </trkpt>
      <trkpt lat="45.31066" lon="6.18424">
        <ele>2262.1999511719</ele>
        <time>2020-02-16T11:09:53.000Z</time>
      </trkpt>
      <trkpt lat="45.31067" lon="6.18424">
        <ele>2262.8000488281</ele>
        <time>2020-02-16T11:09:57.000Z</time>
      </trkpt>
      <trkpt lat="45.31068" lon="6.18425">
        <ele>2263.1999511719</ele>
        <time>2020-02-16T11:10:00.000Z</time>
      </trkpt>
      <trkpt lat="45.31069" lon="6.18428">
        <ele>2263.8000488281</ele>
        <time>2020-02-16T11:10:04.000Z</time>
      </trkpt>
      <trkpt lat="45.3107" lon="6.18429">
        <ele>2264.3999023438</ele>
        <time>2020-02-16T11:10:07.000Z</time>
      </trkpt>
      <trkpt lat="45.31073" lon="6.18428">
        <ele>2265.1999511719</ele>
        <time>2020-02-16T11:10:11.000Z</time>
      </trkpt>
      <trkpt lat="45.31074" lon="6.18427">
        <ele>2265.3999023438</ele>
        <time>2020-02-16T11:10:13.000Z</time>
      </trkpt>
      <trkpt lat="45.31074" lon="6.18427">
        <ele>2265.8000488281</ele>
        <time>2020-02-16T11:10:14.000Z</time>
      </trkpt>
      <trkpt lat="45.31076" lon="6.18427">
        <ele>2266.6000976562</ele>
        <time>2020-02-16T11:10:19.000Z</time>
      </trkpt>
      <trkpt lat="45.3108" lon="6.18427">
        <ele>2267.6000976562</ele>
        <time>2020-02-16T11:10:24.000Z</time>
      </trkpt>
      <trkpt lat="45.3108" lon="6.18427">
        <ele>2267.8000488281</ele>
        <time>2020-02-16T11:10:25.000Z</time>
      </trkpt>
      <trkpt lat="45.31086" lon="6.18422">
        <ele>2268.8000488281</ele>
        <time>2020-02-16T11:10:33.000Z</time>
      </trkpt>
      <trkpt lat="45.31089" lon="6.1842">
        <ele>2269.8000488281</ele>
        <time>2020-02-16T11:10:38.000Z</time>
      </trkpt>
      <trkpt lat="45.3109" lon="6.18419">
        <ele>2270.1999511719</ele>
        <time>2020-02-16T11:10:41.000Z</time>
      </trkpt>
      <trkpt lat="45.31092" lon="6.18419">
        <ele>2271</ele>
        <time>2020-02-16T11:10:45.000Z</time>
      </trkpt>
      <trkpt lat="45.31093" lon="6.18417">
        <ele>2271.6000976562</ele>
        <time>2020-02-16T11:10:48.000Z</time>
      </trkpt>
      <trkpt lat="45.31095" lon="6.18415">
        <ele>2272</ele>
        <time>2020-02-16T11:10:51.000Z</time>
      </trkpt>
      <trkpt lat="45.31098" lon="6.18413">
        <ele>2272.6000976562</ele>
        <time>2020-02-16T11:10:55.000Z</time>
      </trkpt>
      <trkpt lat="45.31099" lon="6.18412">
        <ele>2273</ele>
        <time>2020-02-16T11:10:57.000Z</time>
      </trkpt>
      <trkpt lat="45.31099" lon="6.18412">
        <ele>2273.8000488281</ele>
        <time>2020-02-16T11:11:01.000Z</time>
      </trkpt>
      <trkpt lat="45.31099" lon="6.18412">
        <ele>2274.3999023438</ele>
        <time>2020-02-16T11:11:02.000Z</time>
      </trkpt>
      <trkpt lat="45.31099" lon="6.18413">
        <ele>2275.6000976562</ele>
        <time>2020-02-16T11:11:05.000Z</time>
      </trkpt>
      <trkpt lat="45.31099" lon="6.18413">
        <ele>2275.8000488281</ele>
        <time>2020-02-16T11:11:06.000Z</time>
      </trkpt>
      <trkpt lat="45.31099" lon="6.18418">
        <ele>2276.6000976562</ele>
        <time>2020-02-16T11:11:11.000Z</time>
      </trkpt>
      <trkpt lat="45.31099" lon="6.1842">
        <ele>2277</ele>
        <time>2020-02-16T11:11:13.000Z</time>
      </trkpt>
      <trkpt lat="45.31099" lon="6.18421">
        <ele>2277.8000488281</ele>
        <time>2020-02-16T11:11:18.000Z</time>
      </trkpt>
      <trkpt lat="45.31099" lon="6.18422">
        <ele>2278</ele>
        <time>2020-02-16T11:11:22.000Z</time>
      </trkpt>
      <trkpt lat="45.31099" lon="6.18422">
        <ele>2278.6000976562</ele>
        <time>2020-02-16T11:11:40.000Z</time>
      </trkpt>
      <trkpt lat="45.31099" lon="6.18422">
        <ele>2278.3999023438</ele>
        <time>2020-02-16T11:11:57.000Z</time>
      </trkpt>
      <trkpt lat="45.31099" lon="6.18422">
        <ele>2278.1999511719</ele>
        <time>2020-02-16T11:12:13.000Z</time>
      </trkpt>
      <trkpt lat="45.31099" lon="6.18422">
        <ele>2278</ele>
        <time>2020-02-16T11:12:30.000Z</time>
      </trkpt>
      <trkpt lat="45.31098" lon="6.18422">
        <ele>2277.6000976562</ele>
        <time>2020-02-16T11:12:45.000Z</time>
      </trkpt>
      <trkpt lat="45.31098" lon="6.18422">
        <ele>2277.3999023438</ele>
        <time>2020-02-16T11:12:59.000Z</time>
      </trkpt>
      <trkpt lat="45.31098" lon="6.18422">
        <ele>2277.3999023438</ele>
        <time>2020-02-16T11:13:14.000Z</time>
      </trkpt>
      <trkpt lat="45.31098" lon="6.18422">
        <ele>2277.6000976562</ele>
        <time>2020-02-16T11:13:28.000Z</time>
      </trkpt>
      <trkpt lat="45.31098" lon="6.18422">
        <ele>2277.3999023438</ele>
        <time>2020-02-16T11:13:43.000Z</time>
      </trkpt>
      <trkpt lat="45.31098" lon="6.18422">
        <ele>2277</ele>
        <time>2020-02-16T11:14:00.000Z</time>
      </trkpt>
      <trkpt lat="45.31098" lon="6.18422">
        <ele>2277</ele>
        <time>2020-02-16T11:14:16.000Z</time>
      </trkpt>
      <trkpt lat="45.31098" lon="6.18422">
        <ele>2277.3999023438</ele>
        <time>2020-02-16T11:14:31.000Z</time>
      </trkpt>
      <trkpt lat="45.31098" lon="6.18423">
        <ele>2277.1999511719</ele>
        <time>2020-02-16T11:14:48.000Z</time>
      </trkpt>
      <trkpt lat="45.31098" lon="6.18423">
        <ele>2277.3999023438</ele>
        <time>2020-02-16T11:15:03.000Z</time>
      </trkpt>
      <trkpt lat="45.31098" lon="6.18423">
        <ele>2277.6000976562</ele>
        <time>2020-02-16T11:15:24.000Z</time>
      </trkpt>
      <trkpt lat="45.31101" lon="6.18425">
        <ele>2277.8000488281</ele>
        <time>2020-02-16T11:15:36.000Z</time>
      </trkpt>
      <trkpt lat="45.31103" lon="6.1843">
        <ele>2278.8000488281</ele>
        <time>2020-02-16T11:15:43.000Z</time>
      </trkpt>
      <trkpt lat="45.31104" lon="6.18434">
        <ele>2279.8000488281</ele>
        <time>2020-02-16T11:15:48.000Z</time>
      </trkpt>
      <trkpt lat="45.31104" lon="6.18435">
        <ele>2280</ele>
        <time>2020-02-16T11:15:49.000Z</time>
      </trkpt>
      <trkpt lat="45.31106" lon="6.18439">
        <ele>2281</ele>
        <time>2020-02-16T11:15:54.000Z</time>
      </trkpt>
      <trkpt lat="45.31106" lon="6.18439">
        <ele>2281.1999511719</ele>
        <time>2020-02-16T11:15:55.000Z</time>
      </trkpt>
      <trkpt lat="45.31108" lon="6.18444">
        <ele>2281.8000488281</ele>
        <time>2020-02-16T11:16:01.000Z</time>
      </trkpt>
      <trkpt lat="45.31108" lon="6.18445">
        <ele>2282</ele>
        <time>2020-02-16T11:16:02.000Z</time>
      </trkpt>
      <trkpt lat="45.31109" lon="6.18449">
        <ele>2283.1999511719</ele>
        <time>2020-02-16T11:16:07.000Z</time>
      </trkpt>
      <trkpt lat="45.3111" lon="6.1845">
        <ele>2283.3999023438</ele>
        <time>2020-02-16T11:16:09.000Z</time>
      </trkpt>
      <trkpt lat="45.31111" lon="6.18452">
        <ele>2284.1999511719</ele>
        <time>2020-02-16T11:16:14.000Z</time>
      </trkpt>
      <trkpt lat="45.31111" lon="6.18453">
        <ele>2284.3999023438</ele>
        <time>2020-02-16T11:16:15.000Z</time>
      </trkpt>
      <trkpt lat="45.31111" lon="6.18456">
        <ele>2285.1999511719</ele>
        <time>2020-02-16T11:16:19.000Z</time>
      </trkpt>
      <trkpt lat="45.31112" lon="6.18458">
        <ele>2285.3999023438</ele>
        <time>2020-02-16T11:16:21.000Z</time>
      </trkpt>
      <trkpt lat="45.31112" lon="6.18462">
        <ele>2285.8000488281</ele>
        <time>2020-02-16T11:16:25.000Z</time>
      </trkpt>
      <trkpt lat="45.31113" lon="6.18465">
        <ele>2286.3999023438</ele>
        <time>2020-02-16T11:16:29.000Z</time>
      </trkpt>
      <trkpt lat="45.31114" lon="6.18469">
        <ele>2287</ele>
        <time>2020-02-16T11:16:33.000Z</time>
      </trkpt>
      <trkpt lat="45.31114" lon="6.18471">
        <ele>2287.6000976562</ele>
        <time>2020-02-16T11:16:36.000Z</time>
      </trkpt>
      <trkpt lat="45.31115" lon="6.18475">
        <ele>2288.3999023438</ele>
        <time>2020-02-16T11:16:40.000Z</time>
      </trkpt>
      <trkpt lat="45.31115" lon="6.18476">
        <ele>2288.8000488281</ele>
        <time>2020-02-16T11:16:42.000Z</time>
      </trkpt>
      <trkpt lat="45.31116" lon="6.18478">
        <ele>2289.1999511719</ele>
        <time>2020-02-16T11:16:45.000Z</time>
      </trkpt>
      <trkpt lat="45.31118" lon="6.18482">
        <ele>2289.8000488281</ele>
        <time>2020-02-16T11:16:50.000Z</time>
      </trkpt>
      <trkpt lat="45.31119" lon="6.18484">
        <ele>2290.1999511719</ele>
        <time>2020-02-16T11:16:53.000Z</time>
      </trkpt>
      <trkpt lat="45.31121" lon="6.18488">
        <ele>2291</ele>
        <time>2020-02-16T11:16:57.000Z</time>
      </trkpt>
      <trkpt lat="45.31122" lon="6.18491">
        <ele>2292</ele>
        <time>2020-02-16T11:17:02.000Z</time>
      </trkpt>
      <trkpt lat="45.31122" lon="6.18492">
        <ele>2292.1999511719</ele>
        <time>2020-02-16T11:17:03.000Z</time>
      </trkpt>
      <trkpt lat="45.31124" lon="6.18495">
        <ele>2292.8000488281</ele>
        <time>2020-02-16T11:17:08.000Z</time>
      </trkpt>
      <trkpt lat="45.31125" lon="6.18496">
        <ele>2293.1999511719</ele>
        <time>2020-02-16T11:17:10.000Z</time>
      </trkpt>
      <trkpt lat="45.31127" lon="6.18498">
        <ele>2293.8000488281</ele>
        <time>2020-02-16T11:17:14.000Z</time>
      </trkpt>
      <trkpt lat="45.31127" lon="6.185">
        <ele>2294.1999511719</ele>
        <time>2020-02-16T11:17:16.000Z</time>
      </trkpt>
      <trkpt lat="45.31128" lon="6.18501">
        <ele>2294.8000488281</ele>
        <time>2020-02-16T11:17:19.000Z</time>
      </trkpt>
      <trkpt lat="45.31129" lon="6.18502">
        <ele>2295.3999023438</ele>
        <time>2020-02-16T11:17:24.000Z</time>
      </trkpt>
      <trkpt lat="45.31129" lon="6.18502">
        <ele>2296.6000976562</ele>
        <time>2020-02-16T11:17:28.000Z</time>
      </trkpt>
      <trkpt lat="45.31129" lon="6.18502">
        <ele>2297</ele>
        <time>2020-02-16T11:17:32.000Z</time>
      </trkpt>
      <trkpt lat="45.3113" lon="6.18503">
        <ele>2297.6000976562</ele>
        <time>2020-02-16T11:17:37.000Z</time>
      </trkpt>
      <trkpt lat="45.31132" lon="6.18504">
        <ele>2297.8000488281</ele>
        <time>2020-02-16T11:17:39.000Z</time>
      </trkpt>
      <trkpt lat="45.31135" lon="6.18507">
        <ele>2298.6000976562</ele>
        <time>2020-02-16T11:17:45.000Z</time>
      </trkpt>
      <trkpt lat="45.31137" lon="6.18508">
        <ele>2299.6000976562</ele>
        <time>2020-02-16T11:17:49.000Z</time>
      </trkpt>
      <trkpt lat="45.31138" lon="6.18509">
        <ele>2300.1999511719</ele>
        <time>2020-02-16T11:17:51.000Z</time>
      </trkpt>
      <trkpt lat="45.31143" lon="6.18509">
        <ele>2300.8000488281</ele>
        <time>2020-02-16T11:17:58.000Z</time>
      </trkpt>
      <trkpt lat="45.31143" lon="6.18509">
        <ele>2301</ele>
        <time>2020-02-16T11:17:59.000Z</time>
      </trkpt>
      <trkpt lat="45.31145" lon="6.18509">
        <ele>2301.8000488281</ele>
        <time>2020-02-16T11:18:02.000Z</time>
      </trkpt>
      <trkpt lat="45.31146" lon="6.18508">
        <ele>2302.1999511719</ele>
        <time>2020-02-16T11:18:04.000Z</time>
      </trkpt>
      <trkpt lat="45.31148" lon="6.18506">
        <ele>2302.8000488281</ele>
        <time>2020-02-16T11:18:11.000Z</time>
      </trkpt>
      <trkpt lat="45.31148" lon="6.18506">
        <ele>2303.3999023438</ele>
        <time>2020-02-16T11:18:13.000Z</time>
      </trkpt>
      <trkpt lat="45.31148" lon="6.18506">
        <ele>2303.8000488281</ele>
        <time>2020-02-16T11:18:17.000Z</time>
      </trkpt>
      <trkpt lat="45.31148" lon="6.18506">
        <ele>2304.1999511719</ele>
        <time>2020-02-16T11:18:20.000Z</time>
      </trkpt>
      <trkpt lat="45.31148" lon="6.18506">
        <ele>2305</ele>
        <time>2020-02-16T11:18:23.000Z</time>
      </trkpt>
      <trkpt lat="45.31148" lon="6.18506">
        <ele>2305.6000976562</ele>
        <time>2020-02-16T11:18:29.000Z</time>
      </trkpt>
      <trkpt lat="45.31151" lon="6.18505">
        <ele>2306</ele>
        <time>2020-02-16T11:18:34.000Z</time>
      </trkpt>
      <trkpt lat="45.31152" lon="6.18505">
        <ele>2306.1999511719</ele>
        <time>2020-02-16T11:18:35.000Z</time>
      </trkpt>
      <trkpt lat="45.31154" lon="6.18507">
        <ele>2307</ele>
        <time>2020-02-16T11:18:40.000Z</time>
      </trkpt>
      <trkpt lat="45.31155" lon="6.18508">
        <ele>2307.1999511719</ele>
        <time>2020-02-16T11:18:41.000Z</time>
      </trkpt>
      <trkpt lat="45.31157" lon="6.18509">
        <ele>2308</ele>
        <time>2020-02-16T11:18:45.000Z</time>
      </trkpt>
      <trkpt lat="45.31157" lon="6.18509">
        <ele>2308.3999023438</ele>
        <time>2020-02-16T11:18:46.000Z</time>
      </trkpt>
      <trkpt lat="45.31157" lon="6.18509">
        <ele>2309.1999511719</ele>
        <time>2020-02-16T11:18:50.000Z</time>
      </trkpt>
      <trkpt lat="45.31157" lon="6.18509">
        <ele>2309.3999023438</ele>
        <time>2020-02-16T11:18:54.000Z</time>
      </trkpt>
      <trkpt lat="45.31157" lon="6.18509">
        <ele>2309.3999023438</ele>
        <time>2020-02-16T11:18:55.000Z</time>
      </trkpt>
      <trkpt lat="45.31158" lon="6.1851">
        <ele>2310.1999511719</ele>
        <time>2020-02-16T11:19:00.000Z</time>
      </trkpt>
      <trkpt lat="45.31159" lon="6.18511">
        <ele>2310.3999023438</ele>
        <time>2020-02-16T11:19:01.000Z</time>
      </trkpt>
      <trkpt lat="45.31159" lon="6.18511">
        <ele>2311</ele>
        <time>2020-02-16T11:19:05.000Z</time>
      </trkpt>
      <trkpt lat="45.31159" lon="6.18511">
        <ele>2311.3999023438</ele>
        <time>2020-02-16T11:19:08.000Z</time>
      </trkpt>
      <trkpt lat="45.31159" lon="6.18511">
        <ele>2312</ele>
        <time>2020-02-16T11:19:11.000Z</time>
      </trkpt>
      <trkpt lat="45.31159" lon="6.18511">
        <ele>2312.6000976562</ele>
        <time>2020-02-16T11:19:14.000Z</time>
      </trkpt>
      <trkpt lat="45.31159" lon="6.18511">
        <ele>2313.3999023438</ele>
        <time>2020-02-16T11:19:17.000Z</time>
      </trkpt>
      <trkpt lat="45.31159" lon="6.18511">
        <ele>2313.8000488281</ele>
        <time>2020-02-16T11:19:19.000Z</time>
      </trkpt>
      <trkpt lat="45.31159" lon="6.18511">
        <ele>2314.1999511719</ele>
        <time>2020-02-16T11:19:23.000Z</time>
      </trkpt>
      <trkpt lat="45.31159" lon="6.18511">
        <ele>2315</ele>
        <time>2020-02-16T11:19:28.000Z</time>
      </trkpt>
      <trkpt lat="45.31159" lon="6.18511">
        <ele>2315.1999511719</ele>
        <time>2020-02-16T11:19:29.000Z</time>
      </trkpt>
      <trkpt lat="45.31159" lon="6.18511">
        <ele>2316</ele>
        <time>2020-02-16T11:19:35.000Z</time>
      </trkpt>
      <trkpt lat="45.31159" lon="6.18511">
        <ele>2316</ele>
        <time>2020-02-16T11:19:36.000Z</time>
      </trkpt>
      <trkpt lat="45.31161" lon="6.18523">
        <ele>2316.8000488281</ele>
        <time>2020-02-16T11:19:41.000Z</time>
      </trkpt>
      <trkpt lat="45.31163" lon="6.18536">
        <ele>2317.1999511719</ele>
        <time>2020-02-16T11:19:44.000Z</time>
      </trkpt>
      <trkpt lat="45.31166" lon="6.18551">
        <ele>2318.3999023438</ele>
        <time>2020-02-16T11:19:50.000Z</time>
      </trkpt>
      <trkpt lat="45.31166" lon="6.18551">
        <ele>2318.8000488281</ele>
        <time>2020-02-16T11:19:51.000Z</time>
      </trkpt>
      <trkpt lat="45.31167" lon="6.18555">
        <ele>2319.3999023438</ele>
        <time>2020-02-16T11:19:57.000Z</time>
      </trkpt>
      <trkpt lat="45.31167" lon="6.18556">
        <ele>2319.6000976562</ele>
        <time>2020-02-16T11:19:58.000Z</time>
      </trkpt>
      <trkpt lat="45.31168" lon="6.18564">
        <ele>2320.6000976562</ele>
        <time>2020-02-16T11:20:03.000Z</time>
      </trkpt>
      <trkpt lat="45.31168" lon="6.18565">
        <ele>2320.8000488281</ele>
        <time>2020-02-16T11:20:04.000Z</time>
      </trkpt>
      <trkpt lat="45.31168" lon="6.1857">
        <ele>2321.6000976562</ele>
        <time>2020-02-16T11:20:09.000Z</time>
      </trkpt>
      <trkpt lat="45.31169" lon="6.18572">
        <ele>2321.6000976562</ele>
        <time>2020-02-16T11:20:10.000Z</time>
      </trkpt>
      <trkpt lat="45.3117" lon="6.18575">
        <ele>2322</ele>
        <time>2020-02-16T11:20:15.000Z</time>
      </trkpt>
      <trkpt lat="45.3117" lon="6.18576">
        <ele>2322.6000976562</ele>
        <time>2020-02-16T11:20:17.000Z</time>
      </trkpt>
      <trkpt lat="45.31171" lon="6.1858">
        <ele>2323.8000488281</ele>
        <time>2020-02-16T11:20:23.000Z</time>
      </trkpt>
      <trkpt lat="45.3117" lon="6.18584">
        <ele>2324.6000976562</ele>
        <time>2020-02-16T11:20:29.000Z</time>
      </trkpt>
      <trkpt lat="45.3117" lon="6.18584">
        <ele>2325</ele>
        <time>2020-02-16T11:20:30.000Z</time>
      </trkpt>
      <trkpt lat="45.3117" lon="6.18588">
        <ele>2326</ele>
        <time>2020-02-16T11:20:35.000Z</time>
      </trkpt>
      <trkpt lat="45.3117" lon="6.18593">
        <ele>2326.6000976562</ele>
        <time>2020-02-16T11:20:41.000Z</time>
      </trkpt>
      <trkpt lat="45.3117" lon="6.18594">
        <ele>2327.1999511719</ele>
        <time>2020-02-16T11:20:44.000Z</time>
      </trkpt>
      <trkpt lat="45.31169" lon="6.18596">
        <ele>2327.6000976562</ele>
        <time>2020-02-16T11:20:47.000Z</time>
      </trkpt>
      <trkpt lat="45.3117" lon="6.186">
        <ele>2328.1999511719</ele>
        <time>2020-02-16T11:20:51.000Z</time>
      </trkpt>
      <trkpt lat="45.31169" lon="6.18603">
        <ele>2329</ele>
        <time>2020-02-16T11:20:54.000Z</time>
      </trkpt>
      <trkpt lat="45.31169" lon="6.18604">
        <ele>2329.6000976562</ele>
        <time>2020-02-16T11:20:56.000Z</time>
      </trkpt>
      <trkpt lat="45.31169" lon="6.18604">
        <ele>2330.3999023438</ele>
        <time>2020-02-16T11:21:03.000Z</time>
      </trkpt>
      <trkpt lat="45.31168" lon="6.18608">
        <ele>2330.3999023438</ele>
        <time>2020-02-16T11:21:10.000Z</time>
      </trkpt>
      <trkpt lat="45.31168" lon="6.18609">
        <ele>2330.6000976562</ele>
        <time>2020-02-16T11:21:11.000Z</time>
      </trkpt>
      <trkpt lat="45.31168" lon="6.18612">
        <ele>2331.6000976562</ele>
        <time>2020-02-16T11:21:15.000Z</time>
      </trkpt>
      <trkpt lat="45.31168" lon="6.18613">
        <ele>2331.8000488281</ele>
        <time>2020-02-16T11:21:16.000Z</time>
      </trkpt>
      <trkpt lat="45.31167" lon="6.18616">
        <ele>2332.6000976562</ele>
        <time>2020-02-16T11:21:21.000Z</time>
      </trkpt>
      <trkpt lat="45.31167" lon="6.1862">
        <ele>2333</ele>
        <time>2020-02-16T11:21:24.000Z</time>
      </trkpt>
      <trkpt lat="45.31168" lon="6.18621">
        <ele>2333.1999511719</ele>
        <time>2020-02-16T11:21:26.000Z</time>
      </trkpt>
      <trkpt lat="45.3117" lon="6.18623">
        <ele>2334.1999511719</ele>
        <time>2020-02-16T11:21:30.000Z</time>
      </trkpt>
      <trkpt lat="45.31173" lon="6.18627">
        <ele>2334.8000488281</ele>
        <time>2020-02-16T11:21:36.000Z</time>
      </trkpt>
      <trkpt lat="45.31173" lon="6.18628">
        <ele>2335.1999511719</ele>
        <time>2020-02-16T11:21:38.000Z</time>
      </trkpt>
      <trkpt lat="45.31175" lon="6.1863">
        <ele>2336.1999511719</ele>
        <time>2020-02-16T11:21:43.000Z</time>
      </trkpt>
      <trkpt lat="45.31178" lon="6.18628">
        <ele>2337</ele>
        <time>2020-02-16T11:21:49.000Z</time>
      </trkpt>
      <trkpt lat="45.31181" lon="6.18627">
        <ele>2337.3999023438</ele>
        <time>2020-02-16T11:21:52.000Z</time>
      </trkpt>
      <trkpt lat="45.31182" lon="6.18626">
        <ele>2337.8000488281</ele>
        <time>2020-02-16T11:21:54.000Z</time>
      </trkpt>
      <trkpt lat="45.31184" lon="6.18626">
        <ele>2338.1999511719</ele>
        <time>2020-02-16T11:21:57.000Z</time>
      </trkpt>
      <trkpt lat="45.31184" lon="6.18626">
        <ele>2338.6000976562</ele>
        <time>2020-02-16T11:21:59.000Z</time>
      </trkpt>
      <trkpt lat="45.31185" lon="6.18626">
        <ele>2339</ele>
        <time>2020-02-16T11:22:02.000Z</time>
      </trkpt>
      <trkpt lat="45.31187" lon="6.18625">
        <ele>2339.6000976562</ele>
        <time>2020-02-16T11:22:05.000Z</time>
      </trkpt>
      <trkpt lat="45.31188" lon="6.18626">
        <ele>2339.8000488281</ele>
        <time>2020-02-16T11:22:07.000Z</time>
      </trkpt>
      <trkpt lat="45.31191" lon="6.18624">
        <ele>2340.6000976562</ele>
        <time>2020-02-16T11:22:14.000Z</time>
      </trkpt>
      <trkpt lat="45.31195" lon="6.18623">
        <ele>2341.3999023438</ele>
        <time>2020-02-16T11:22:19.000Z</time>
      </trkpt>
      <trkpt lat="45.31197" lon="6.18623">
        <ele>2341.8000488281</ele>
        <time>2020-02-16T11:22:22.000Z</time>
      </trkpt>
      <trkpt lat="45.31199" lon="6.18621">
        <ele>2342.1999511719</ele>
        <time>2020-02-16T11:22:25.000Z</time>
      </trkpt>
      <trkpt lat="45.31203" lon="6.18619">
        <ele>2342.8000488281</ele>
        <time>2020-02-16T11:22:29.000Z</time>
      </trkpt>
      <trkpt lat="45.31204" lon="6.18618">
        <ele>2343</ele>
        <time>2020-02-16T11:22:31.000Z</time>
      </trkpt>
      <trkpt lat="45.31206" lon="6.18618">
        <ele>2343.8000488281</ele>
        <time>2020-02-16T11:22:35.000Z</time>
      </trkpt>
      <trkpt lat="45.31207" lon="6.18618">
        <ele>2344.1999511719</ele>
        <time>2020-02-16T11:22:37.000Z</time>
      </trkpt>
      <trkpt lat="45.3121" lon="6.18617">
        <ele>2344.8000488281</ele>
        <time>2020-02-16T11:22:43.000Z</time>
      </trkpt>
      <trkpt lat="45.31211" lon="6.18616">
        <ele>2345</ele>
        <time>2020-02-16T11:22:45.000Z</time>
      </trkpt>
      <trkpt lat="45.31214" lon="6.18613">
        <ele>2345.6000976562</ele>
        <time>2020-02-16T11:22:50.000Z</time>
      </trkpt>
      <trkpt lat="45.31216" lon="6.18612">
        <ele>2346</ele>
        <time>2020-02-16T11:22:53.000Z</time>
      </trkpt>
      <trkpt lat="45.31219" lon="6.1861">
        <ele>2346.3999023438</ele>
        <time>2020-02-16T11:22:57.000Z</time>
      </trkpt>
      <trkpt lat="45.3122" lon="6.18609">
        <ele>2347.1999511719</ele>
        <time>2020-02-16T11:23:01.000Z</time>
      </trkpt>
      <trkpt lat="45.31222" lon="6.18604">
        <ele>2347.8000488281</ele>
        <time>2020-02-16T11:23:07.000Z</time>
      </trkpt>
      <trkpt lat="45.31224" lon="6.18602">
        <ele>2348.1999511719</ele>
        <time>2020-02-16T11:23:10.000Z</time>
      </trkpt>
      <trkpt lat="45.31226" lon="6.186">
        <ele>2349.1999511719</ele>
        <time>2020-02-16T11:23:15.000Z</time>
      </trkpt>
      <trkpt lat="45.31226" lon="6.186">
        <ele>2349.3999023438</ele>
        <time>2020-02-16T11:23:16.000Z</time>
      </trkpt>
      <trkpt lat="45.31226" lon="6.18599">
        <ele>2350.3999023438</ele>
        <time>2020-02-16T11:23:20.000Z</time>
      </trkpt>
      <trkpt lat="45.31227" lon="6.18598">
        <ele>2351.3999023438</ele>
        <time>2020-02-16T11:23:23.000Z</time>
      </trkpt>
      <trkpt lat="45.31228" lon="6.18597">
        <ele>2352.1999511719</ele>
        <time>2020-02-16T11:23:26.000Z</time>
      </trkpt>
      <trkpt lat="45.31228" lon="6.18597">
        <ele>2352.3999023438</ele>
        <time>2020-02-16T11:23:30.000Z</time>
      </trkpt>
      <trkpt lat="45.31229" lon="6.18595">
        <ele>2352.8000488281</ele>
        <time>2020-02-16T11:23:34.000Z</time>
      </trkpt>
      <trkpt lat="45.31229" lon="6.18596">
        <ele>2353.6000976562</ele>
        <time>2020-02-16T11:23:40.000Z</time>
      </trkpt>
      <trkpt lat="45.31229" lon="6.186">
        <ele>2353.8000488281</ele>
        <time>2020-02-16T11:23:43.000Z</time>
      </trkpt>
      <trkpt lat="45.31231" lon="6.18606">
        <ele>2354.6000976562</ele>
        <time>2020-02-16T11:23:50.000Z</time>
      </trkpt>
      <trkpt lat="45.31231" lon="6.18607">
        <ele>2354.8000488281</ele>
        <time>2020-02-16T11:23:51.000Z</time>
      </trkpt>
      <trkpt lat="45.31232" lon="6.18611">
        <ele>2356</ele>
        <time>2020-02-16T11:23:55.000Z</time>
      </trkpt>
      <trkpt lat="45.31232" lon="6.18612">
        <ele>2356.1999511719</ele>
        <time>2020-02-16T11:23:56.000Z</time>
      </trkpt>
      <trkpt lat="45.31233" lon="6.18613">
        <ele>2357</ele>
        <time>2020-02-16T11:23:59.000Z</time>
      </trkpt>
      <trkpt lat="45.31233" lon="6.18616">
        <ele>2358.1999511719</ele>
        <time>2020-02-16T11:24:04.000Z</time>
      </trkpt>
      <trkpt lat="45.31235" lon="6.1862">
        <ele>2359.3999023438</ele>
        <time>2020-02-16T11:24:09.000Z</time>
      </trkpt>
      <trkpt lat="45.31235" lon="6.18626">
        <ele>2360.3999023438</ele>
        <time>2020-02-16T11:24:15.000Z</time>
      </trkpt>
      <trkpt lat="45.31236" lon="6.18631">
        <ele>2361.6000976562</ele>
        <time>2020-02-16T11:24:22.000Z</time>
      </trkpt>
      <trkpt lat="45.31237" lon="6.18635">
        <ele>2362.8000488281</ele>
        <time>2020-02-16T11:24:27.000Z</time>
      </trkpt>
      <trkpt lat="45.31238" lon="6.18636">
        <ele>2363</ele>
        <time>2020-02-16T11:24:28.000Z</time>
      </trkpt>
      <trkpt lat="45.31239" lon="6.1864">
        <ele>2363.8000488281</ele>
        <time>2020-02-16T11:24:33.000Z</time>
      </trkpt>
      <trkpt lat="45.31239" lon="6.18641">
        <ele>2364</ele>
        <time>2020-02-16T11:24:34.000Z</time>
      </trkpt>
      <trkpt lat="45.31239" lon="6.18643">
        <ele>2364.6000976562</ele>
        <time>2020-02-16T11:24:39.000Z</time>
      </trkpt>
      <trkpt lat="45.31239" lon="6.18643">
        <ele>2365</ele>
        <time>2020-02-16T11:24:40.000Z</time>
      </trkpt>
      <trkpt lat="45.3124" lon="6.18647">
        <ele>2366</ele>
        <time>2020-02-16T11:24:44.000Z</time>
      </trkpt>
      <trkpt lat="45.3124" lon="6.18648">
        <ele>2366.1999511719</ele>
        <time>2020-02-16T11:24:45.000Z</time>
      </trkpt>
      <trkpt lat="45.31241" lon="6.18652">
        <ele>2367.3999023438</ele>
        <time>2020-02-16T11:24:49.000Z</time>
      </trkpt>
      <trkpt lat="45.31241" lon="6.18653">
        <ele>2367.6000976562</ele>
        <time>2020-02-16T11:24:51.000Z</time>
      </trkpt>
      <trkpt lat="45.3124" lon="6.18655">
        <ele>2368.6000976562</ele>
        <time>2020-02-16T11:24:55.000Z</time>
      </trkpt>
      <trkpt lat="45.31241" lon="6.18657">
        <ele>2368.8000488281</ele>
        <time>2020-02-16T11:24:56.000Z</time>
      </trkpt>
      <trkpt lat="45.31241" lon="6.18661">
        <ele>2369.6000976562</ele>
        <time>2020-02-16T11:25:01.000Z</time>
      </trkpt>
      <trkpt lat="45.31241" lon="6.18663">
        <ele>2369.8000488281</ele>
        <time>2020-02-16T11:25:02.000Z</time>
      </trkpt>
      <trkpt lat="45.31241" lon="6.18663">
        <ele>2370.6000976562</ele>
        <time>2020-02-16T11:25:06.000Z</time>
      </trkpt>
      <trkpt lat="45.31241" lon="6.18668">
        <ele>2371.6000976562</ele>
        <time>2020-02-16T11:25:11.000Z</time>
      </trkpt>
      <trkpt lat="45.31241" lon="6.18669">
        <ele>2371.8000488281</ele>
        <time>2020-02-16T11:25:12.000Z</time>
      </trkpt>
      <trkpt lat="45.3124" lon="6.18674">
        <ele>2372.6000976562</ele>
        <time>2020-02-16T11:25:17.000Z</time>
      </trkpt>
      <trkpt lat="45.3124" lon="6.18675">
        <ele>2372.8000488281</ele>
        <time>2020-02-16T11:25:18.000Z</time>
      </trkpt>
      <trkpt lat="45.3124" lon="6.18677">
        <ele>2373.8000488281</ele>
        <time>2020-02-16T11:25:23.000Z</time>
      </trkpt>
      <trkpt lat="45.3124" lon="6.18679">
        <ele>2374.1999511719</ele>
        <time>2020-02-16T11:25:27.000Z</time>
      </trkpt>
      <trkpt lat="45.31244" lon="6.1868">
        <ele>2375.3999023438</ele>
        <time>2020-02-16T11:25:33.000Z</time>
      </trkpt>
      <trkpt lat="45.31247" lon="6.18679">
        <ele>2376.3999023438</ele>
        <time>2020-02-16T11:25:37.000Z</time>
      </trkpt>
      <trkpt lat="45.31247" lon="6.18678">
        <ele>2376.8000488281</ele>
        <time>2020-02-16T11:25:39.000Z</time>
      </trkpt>
      <trkpt lat="45.3125" lon="6.18677">
        <ele>2377.6000976562</ele>
        <time>2020-02-16T11:25:44.000Z</time>
      </trkpt>
      <trkpt lat="45.31252" lon="6.18676">
        <ele>2377.8000488281</ele>
        <time>2020-02-16T11:25:46.000Z</time>
      </trkpt>
      <trkpt lat="45.31256" lon="6.18674">
        <ele>2378.6000976562</ele>
        <time>2020-02-16T11:25:51.000Z</time>
      </trkpt>
      <trkpt lat="45.31256" lon="6.18673">
        <ele>2379.1999511719</ele>
        <time>2020-02-16T11:25:53.000Z</time>
      </trkpt>
      <trkpt lat="45.31257" lon="6.18672">
        <ele>2379.8000488281</ele>
        <time>2020-02-16T11:25:56.000Z</time>
      </trkpt>
      <trkpt lat="45.31259" lon="6.18669">
        <ele>2380.6000976562</ele>
        <time>2020-02-16T11:26:00.000Z</time>
      </trkpt>
      <trkpt lat="45.31259" lon="6.18669">
        <ele>2380.8000488281</ele>
        <time>2020-02-16T11:26:01.000Z</time>
      </trkpt>
      <trkpt lat="45.31261" lon="6.18666">
        <ele>2382</ele>
        <time>2020-02-16T11:26:09.000Z</time>
      </trkpt>
      <trkpt lat="45.31261" lon="6.18666">
        <ele>2381.8000488281</ele>
        <time>2020-02-16T11:26:23.000Z</time>
      </trkpt>
      <trkpt lat="45.31261" lon="6.18666">
        <ele>2382.1999511719</ele>
        <time>2020-02-16T11:26:43.000Z</time>
      </trkpt>
      <trkpt lat="45.31262" lon="6.18664">
        <ele>2383</ele>
        <time>2020-02-16T11:26:58.000Z</time>
      </trkpt>
      <trkpt lat="45.31268" lon="6.18659">
        <ele>2383.8000488281</ele>
        <time>2020-02-16T11:27:06.000Z</time>
      </trkpt>
      <trkpt lat="45.31269" lon="6.18658">
        <ele>2384</ele>
        <time>2020-02-16T11:27:08.000Z</time>
      </trkpt>
      <trkpt lat="45.3127" lon="6.18654">
        <ele>2385</ele>
        <time>2020-02-16T11:27:13.000Z</time>
      </trkpt>
      <trkpt lat="45.31271" lon="6.18654">
        <ele>2385.1999511719</ele>
        <time>2020-02-16T11:27:14.000Z</time>
      </trkpt>
      <trkpt lat="45.31272" lon="6.18651">
        <ele>2386</ele>
        <time>2020-02-16T11:27:20.000Z</time>
      </trkpt>
      <trkpt lat="45.31272" lon="6.1865">
        <ele>2386.1999511719</ele>
        <time>2020-02-16T11:27:21.000Z</time>
      </trkpt>
      <trkpt lat="45.31276" lon="6.18646">
        <ele>2387.3999023438</ele>
        <time>2020-02-16T11:27:28.000Z</time>
      </trkpt>
      <trkpt lat="45.31276" lon="6.18646">
        <ele>2387.6000976562</ele>
        <time>2020-02-16T11:27:29.000Z</time>
      </trkpt>
      <trkpt lat="45.31276" lon="6.18646">
        <ele>2388</ele>
        <time>2020-02-16T11:27:42.000Z</time>
      </trkpt>
      <trkpt lat="45.3128" lon="6.18641">
        <ele>2388.6000976562</ele>
        <time>2020-02-16T11:27:47.000Z</time>
      </trkpt>
      <trkpt lat="45.31282" lon="6.18638">
        <ele>2389.1999511719</ele>
        <time>2020-02-16T11:27:50.000Z</time>
      </trkpt>
      <trkpt lat="45.31283" lon="6.18636">
        <ele>2389.6000976562</ele>
        <time>2020-02-16T11:27:52.000Z</time>
      </trkpt>
      <trkpt lat="45.31285" lon="6.18632">
        <ele>2390.8000488281</ele>
        <time>2020-02-16T11:27:59.000Z</time>
      </trkpt>
      <trkpt lat="45.31285" lon="6.18631">
        <ele>2390.8000488281</ele>
        <time>2020-02-16T11:28:00.000Z</time>
      </trkpt>
      <trkpt lat="45.31288" lon="6.18626">
        <ele>2392</ele>
        <time>2020-02-16T11:28:06.000Z</time>
      </trkpt>
      <trkpt lat="45.31289" lon="6.18625">
        <ele>2392.3999023438</ele>
        <time>2020-02-16T11:28:08.000Z</time>
      </trkpt>
      <trkpt lat="45.3129" lon="6.18621">
        <ele>2393</ele>
        <time>2020-02-16T11:28:12.000Z</time>
      </trkpt>
      <trkpt lat="45.31291" lon="6.18618">
        <ele>2393.8000488281</ele>
        <time>2020-02-16T11:28:16.000Z</time>
      </trkpt>
      <trkpt lat="45.31292" lon="6.18618">
        <ele>2394.1999511719</ele>
        <time>2020-02-16T11:28:18.000Z</time>
      </trkpt>
      <trkpt lat="45.31293" lon="6.18616">
        <ele>2394.6000976562</ele>
        <time>2020-02-16T11:28:22.000Z</time>
      </trkpt>
      <trkpt lat="45.31293" lon="6.18614">
        <ele>2395.1999511719</ele>
        <time>2020-02-16T11:28:25.000Z</time>
      </trkpt>
      <trkpt lat="45.31294" lon="6.18611">
        <ele>2396.1999511719</ele>
        <time>2020-02-16T11:28:31.000Z</time>
      </trkpt>
      <trkpt lat="45.31294" lon="6.1861">
        <ele>2396.8000488281</ele>
        <time>2020-02-16T11:28:39.000Z</time>
      </trkpt>
      <trkpt lat="45.31294" lon="6.18613">
        <ele>2397.1999511719</ele>
        <time>2020-02-16T11:28:45.000Z</time>
      </trkpt>
      <trkpt lat="45.31294" lon="6.18613">
        <ele>2397.3999023438</ele>
        <time>2020-02-16T11:28:46.000Z</time>
      </trkpt>
      <trkpt lat="45.31295" lon="6.18618">
        <ele>2398</ele>
        <time>2020-02-16T11:28:51.000Z</time>
      </trkpt>
      <trkpt lat="45.31295" lon="6.18621">
        <ele>2398.3999023438</ele>
        <time>2020-02-16T11:28:54.000Z</time>
      </trkpt>
      <trkpt lat="45.31296" lon="6.18623">
        <ele>2398.8000488281</ele>
        <time>2020-02-16T11:28:56.000Z</time>
      </trkpt>
      <trkpt lat="45.31296" lon="6.18625">
        <ele>2399.6000976562</ele>
        <time>2020-02-16T11:29:00.000Z</time>
      </trkpt>
      <trkpt lat="45.31297" lon="6.18628">
        <ele>2400.8000488281</ele>
        <time>2020-02-16T11:29:04.000Z</time>
      </trkpt>
      <trkpt lat="45.31297" lon="6.18629">
        <ele>2401</ele>
        <time>2020-02-16T11:29:05.000Z</time>
      </trkpt>
      <trkpt lat="45.31297" lon="6.18634">
        <ele>2401.8000488281</ele>
        <time>2020-02-16T11:29:10.000Z</time>
      </trkpt>
      <trkpt lat="45.31297" lon="6.18636">
        <ele>2402</ele>
        <time>2020-02-16T11:29:11.000Z</time>
      </trkpt>
      <trkpt lat="45.31298" lon="6.18638">
        <ele>2402.8000488281</ele>
        <time>2020-02-16T11:29:15.000Z</time>
      </trkpt>
      <trkpt lat="45.31298" lon="6.18638">
        <ele>2403</ele>
        <time>2020-02-16T11:29:16.000Z</time>
      </trkpt>
      <trkpt lat="45.31298" lon="6.1864">
        <ele>2403.3999023438</ele>
        <time>2020-02-16T11:29:19.000Z</time>
      </trkpt>
      <trkpt lat="45.31299" lon="6.1864">
        <ele>2404</ele>
        <time>2020-02-16T11:29:22.000Z</time>
      </trkpt>
      <trkpt lat="45.31299" lon="6.18641">
        <ele>2404.1999511719</ele>
        <time>2020-02-16T11:29:23.000Z</time>
      </trkpt>
      <trkpt lat="45.31299" lon="6.18642">
        <ele>2405</ele>
        <time>2020-02-16T11:29:28.000Z</time>
      </trkpt>
      <trkpt lat="45.31299" lon="6.18642">
        <ele>2405</ele>
        <time>2020-02-16T11:29:29.000Z</time>
      </trkpt>
      <trkpt lat="45.31299" lon="6.18643">
        <ele>2405.3999023438</ele>
        <time>2020-02-16T11:29:39.000Z</time>
      </trkpt>
      <trkpt lat="45.31299" lon="6.18645">
        <ele>2405.8000488281</ele>
        <time>2020-02-16T11:29:44.000Z</time>
      </trkpt>
      <trkpt lat="45.31299" lon="6.18645">
        <ele>2406</ele>
        <time>2020-02-16T11:29:47.000Z</time>
      </trkpt>
      <trkpt lat="45.313" lon="6.18645">
        <ele>2406.1999511719</ele>
        <time>2020-02-16T11:29:51.000Z</time>
      </trkpt>
      <trkpt lat="45.31303" lon="6.18642">
        <ele>2406.8000488281</ele>
        <time>2020-02-16T11:29:56.000Z</time>
      </trkpt>
      <trkpt lat="45.31304" lon="6.1864">
        <ele>2407.3999023438</ele>
        <time>2020-02-16T11:29:58.000Z</time>
      </trkpt>
      <trkpt lat="45.31305" lon="6.18638">
        <ele>2408</ele>
        <time>2020-02-16T11:30:01.000Z</time>
      </trkpt>
      <trkpt lat="45.31308" lon="6.18633">
        <ele>2408.6000976562</ele>
        <time>2020-02-16T11:30:05.000Z</time>
      </trkpt>
      <trkpt lat="45.31309" lon="6.18632">
        <ele>2409</ele>
        <time>2020-02-16T11:30:07.000Z</time>
      </trkpt>
      <trkpt lat="45.3131" lon="6.1863">
        <ele>2409.6000976562</ele>
        <time>2020-02-16T11:30:09.000Z</time>
      </trkpt>
      <trkpt lat="45.31312" lon="6.18626">
        <ele>2410.1999511719</ele>
        <time>2020-02-16T11:30:13.000Z</time>
      </trkpt>
      <trkpt lat="45.31313" lon="6.18625">
        <ele>2410.8000488281</ele>
        <time>2020-02-16T11:30:15.000Z</time>
      </trkpt>
      <trkpt lat="45.31314" lon="6.18621">
        <ele>2411.8000488281</ele>
        <time>2020-02-16T11:30:18.000Z</time>
      </trkpt>
      <trkpt lat="45.31315" lon="6.18613">
        <ele>2412.6000976562</ele>
        <time>2020-02-16T11:30:24.000Z</time>
      </trkpt>
      <trkpt lat="45.31315" lon="6.18613">
        <ele>2412.8000488281</ele>
        <time>2020-02-16T11:30:25.000Z</time>
      </trkpt>
      <trkpt lat="45.31317" lon="6.1861">
        <ele>2413.1999511719</ele>
        <time>2020-02-16T11:30:29.000Z</time>
      </trkpt>
      <trkpt lat="45.31318" lon="6.18607">
        <ele>2413.8000488281</ele>
        <time>2020-02-16T11:30:33.000Z</time>
      </trkpt>
      <trkpt lat="45.31318" lon="6.18605">
        <ele>2414.3999023438</ele>
        <time>2020-02-16T11:30:35.000Z</time>
      </trkpt>
      <trkpt lat="45.31319" lon="6.18602">
        <ele>2414.8000488281</ele>
        <time>2020-02-16T11:30:38.000Z</time>
      </trkpt>
      <trkpt lat="45.3132" lon="6.18597">
        <ele>2415.8000488281</ele>
        <time>2020-02-16T11:30:43.000Z</time>
      </trkpt>
      <trkpt lat="45.3132" lon="6.18596">
        <ele>2416</ele>
        <time>2020-02-16T11:30:44.000Z</time>
      </trkpt>
      <trkpt lat="45.31321" lon="6.18594">
        <ele>2416.3999023438</ele>
        <time>2020-02-16T11:30:48.000Z</time>
      </trkpt>
      <trkpt lat="45.31322" lon="6.18589">
        <ele>2416.8000488281</ele>
        <time>2020-02-16T11:30:53.000Z</time>
      </trkpt>
      <trkpt lat="45.31323" lon="6.18587">
        <ele>2417</ele>
        <time>2020-02-16T11:30:55.000Z</time>
      </trkpt>
      <trkpt lat="45.31324" lon="6.18584">
        <ele>2417.3999023438</ele>
        <time>2020-02-16T11:31:00.000Z</time>
      </trkpt>
      <trkpt lat="45.31325" lon="6.1858">
        <ele>2418.3999023438</ele>
        <time>2020-02-16T11:31:04.000Z</time>
      </trkpt>
      <trkpt lat="45.31326" lon="6.18579">
        <ele>2418.8000488281</ele>
        <time>2020-02-16T11:31:07.000Z</time>
      </trkpt>
      <trkpt lat="45.31327" lon="6.18576">
        <ele>2419.3999023438</ele>
        <time>2020-02-16T11:31:10.000Z</time>
      </trkpt>
      <trkpt lat="45.31328" lon="6.18574">
        <ele>2419.8000488281</ele>
        <time>2020-02-16T11:31:12.000Z</time>
      </trkpt>
      <trkpt lat="45.31328" lon="6.1857">
        <ele>2420.6000976562</ele>
        <time>2020-02-16T11:31:16.000Z</time>
      </trkpt>
      <trkpt lat="45.31329" lon="6.18568">
        <ele>2421.1999511719</ele>
        <time>2020-02-16T11:31:19.000Z</time>
      </trkpt>
      <trkpt lat="45.3133" lon="6.18567">
        <ele>2421.6000976562</ele>
        <time>2020-02-16T11:31:21.000Z</time>
      </trkpt>
      <trkpt lat="45.3133" lon="6.18566">
        <ele>2422</ele>
        <time>2020-02-16T11:31:23.000Z</time>
      </trkpt>
      <trkpt lat="45.3133" lon="6.18561">
        <ele>2423</ele>
        <time>2020-02-16T11:31:28.000Z</time>
      </trkpt>
      <trkpt lat="45.31331" lon="6.18558">
        <ele>2423.3999023438</ele>
        <time>2020-02-16T11:31:31.000Z</time>
      </trkpt>
      <trkpt lat="45.31332" lon="6.18556">
        <ele>2424</ele>
        <time>2020-02-16T11:31:35.000Z</time>
      </trkpt>
      <trkpt lat="45.31332" lon="6.18555">
        <ele>2424.1999511719</ele>
        <time>2020-02-16T11:31:36.000Z</time>
      </trkpt>
      <trkpt lat="45.31334" lon="6.18552">
        <ele>2425.1999511719</ele>
        <time>2020-02-16T11:31:41.000Z</time>
      </trkpt>
      <trkpt lat="45.31337" lon="6.18549">
        <ele>2426.1999511719</ele>
        <time>2020-02-16T11:31:48.000Z</time>
      </trkpt>
      <trkpt lat="45.31337" lon="6.18549">
        <ele>2426.3999023438</ele>
        <time>2020-02-16T11:31:49.000Z</time>
      </trkpt>
      <trkpt lat="45.31339" lon="6.18546">
        <ele>2427.1999511719</ele>
        <time>2020-02-16T11:31:54.000Z</time>
      </trkpt>
      <trkpt lat="45.31339" lon="6.18546">
        <ele>2427.3999023438</ele>
        <time>2020-02-16T11:31:55.000Z</time>
      </trkpt>
      <trkpt lat="45.31341" lon="6.18544">
        <ele>2428</ele>
        <time>2020-02-16T11:31:59.000Z</time>
      </trkpt>
      <trkpt lat="45.31342" lon="6.18543">
        <ele>2428.3999023438</ele>
        <time>2020-02-16T11:32:02.000Z</time>
      </trkpt>
      <trkpt lat="45.31344" lon="6.18541">
        <ele>2429.1999511719</ele>
        <time>2020-02-16T11:32:06.000Z</time>
      </trkpt>
      <trkpt lat="45.31347" lon="6.1854">
        <ele>2429.6000976562</ele>
        <time>2020-02-16T11:32:10.000Z</time>
      </trkpt>
      <trkpt lat="45.31347" lon="6.1854">
        <ele>2429.6000976562</ele>
        <time>2020-02-16T11:32:11.000Z</time>
      </trkpt>
      <trkpt lat="45.31348" lon="6.18539">
        <ele>2431</ele>
        <time>2020-02-16T11:32:16.000Z</time>
      </trkpt>
      <trkpt lat="45.31348" lon="6.18538">
        <ele>2431.1999511719</ele>
        <time>2020-02-16T11:32:17.000Z</time>
      </trkpt>
      <trkpt lat="45.31351" lon="6.18536">
        <ele>2431.8000488281</ele>
        <time>2020-02-16T11:32:22.000Z</time>
      </trkpt>
      <trkpt lat="45.31351" lon="6.18536">
        <ele>2432</ele>
        <time>2020-02-16T11:32:23.000Z</time>
      </trkpt>
      <trkpt lat="45.31352" lon="6.18535">
        <ele>2432.3999023438</ele>
        <time>2020-02-16T11:32:27.000Z</time>
      </trkpt>
      <trkpt lat="45.31355" lon="6.18533">
        <ele>2433.1999511719</ele>
        <time>2020-02-16T11:32:31.000Z</time>
      </trkpt>
      <trkpt lat="45.31357" lon="6.1853">
        <ele>2434.1999511719</ele>
        <time>2020-02-16T11:32:36.000Z</time>
      </trkpt>
      <trkpt lat="45.31358" lon="6.18526">
        <ele>2435</ele>
        <time>2020-02-16T11:32:41.000Z</time>
      </trkpt>
      <trkpt lat="45.31359" lon="6.18524">
        <ele>2435.3999023438</ele>
        <time>2020-02-16T11:32:43.000Z</time>
      </trkpt>
      <trkpt lat="45.31361" lon="6.1852">
        <ele>2436.3999023438</ele>
        <time>2020-02-16T11:32:49.000Z</time>
      </trkpt>
      <trkpt lat="45.31362" lon="6.18515">
        <ele>2437.3999023438</ele>
        <time>2020-02-16T11:32:55.000Z</time>
      </trkpt>
      <trkpt lat="45.31363" lon="6.18511">
        <ele>2438.3999023438</ele>
        <time>2020-02-16T11:33:01.000Z</time>
      </trkpt>
      <trkpt lat="45.31364" lon="6.1851">
        <ele>2438.6000976562</ele>
        <time>2020-02-16T11:33:03.000Z</time>
      </trkpt>
      <trkpt lat="45.31365" lon="6.18508">
        <ele>2439.6000976562</ele>
        <time>2020-02-16T11:33:06.000Z</time>
      </trkpt>
      <trkpt lat="45.31366" lon="6.18507">
        <ele>2440</ele>
        <time>2020-02-16T11:33:08.000Z</time>
      </trkpt>
      <trkpt lat="45.31367" lon="6.18505">
        <ele>2440.8000488281</ele>
        <time>2020-02-16T11:33:12.000Z</time>
      </trkpt>
      <trkpt lat="45.31367" lon="6.18504">
        <ele>2441</ele>
        <time>2020-02-16T11:33:13.000Z</time>
      </trkpt>
      <trkpt lat="45.31369" lon="6.185">
        <ele>2441.8000488281</ele>
        <time>2020-02-16T11:33:18.000Z</time>
      </trkpt>
      <trkpt lat="45.31369" lon="6.185">
        <ele>2442</ele>
        <time>2020-02-16T11:33:19.000Z</time>
      </trkpt>
      <trkpt lat="45.31372" lon="6.18496">
        <ele>2443</ele>
        <time>2020-02-16T11:33:25.000Z</time>
      </trkpt>
      <trkpt lat="45.31374" lon="6.18492">
        <ele>2444.1999511719</ele>
        <time>2020-02-16T11:33:30.000Z</time>
      </trkpt>
      <trkpt lat="45.31374" lon="6.18491">
        <ele>2444.1999511719</ele>
        <time>2020-02-16T11:33:31.000Z</time>
      </trkpt>
      <trkpt lat="45.31376" lon="6.18487">
        <ele>2444.8000488281</ele>
        <time>2020-02-16T11:33:36.000Z</time>
      </trkpt>
      <trkpt lat="45.31377" lon="6.18484">
        <ele>2445.1999511719</ele>
        <time>2020-02-16T11:33:39.000Z</time>
      </trkpt>
      <trkpt lat="45.31378" lon="6.1848">
        <ele>2445.6000976562</ele>
        <time>2020-02-16T11:33:43.000Z</time>
      </trkpt>
      <trkpt lat="45.31381" lon="6.18477">
        <ele>2446.1999511719</ele>
        <time>2020-02-16T11:33:48.000Z</time>
      </trkpt>
      <trkpt lat="45.31383" lon="6.18473">
        <ele>2447.1999511719</ele>
        <time>2020-02-16T11:33:54.000Z</time>
      </trkpt>
      <trkpt lat="45.31385" lon="6.18471">
        <ele>2447.3999023438</ele>
        <time>2020-02-16T11:33:55.000Z</time>
      </trkpt>
      <trkpt lat="45.31387" lon="6.18467">
        <ele>2448</ele>
        <time>2020-02-16T11:34:00.000Z</time>
      </trkpt>
      <trkpt lat="45.31388" lon="6.18465">
        <ele>2448.3999023438</ele>
        <time>2020-02-16T11:34:03.000Z</time>
      </trkpt>
      <trkpt lat="45.31388" lon="6.18465">
        <ele>2448.6000976562</ele>
        <time>2020-02-16T11:34:04.000Z</time>
      </trkpt>
      <trkpt lat="45.3139" lon="6.18462">
        <ele>2449.3999023438</ele>
        <time>2020-02-16T11:34:10.000Z</time>
      </trkpt>
      <trkpt lat="45.3139" lon="6.18461">
        <ele>2449.3999023438</ele>
        <time>2020-02-16T11:34:11.000Z</time>
      </trkpt>
      <trkpt lat="45.31392" lon="6.18457">
        <ele>2450.6000976562</ele>
        <time>2020-02-16T11:34:17.000Z</time>
      </trkpt>
      <trkpt lat="45.31392" lon="6.18457">
        <ele>2450.6000976562</ele>
        <time>2020-02-16T11:34:18.000Z</time>
      </trkpt>
      <trkpt lat="45.31394" lon="6.18452">
        <ele>2451.6000976562</ele>
        <time>2020-02-16T11:34:24.000Z</time>
      </trkpt>
      <trkpt lat="45.31394" lon="6.18451">
        <ele>2451.8000488281</ele>
        <time>2020-02-16T11:34:25.000Z</time>
      </trkpt>
      <trkpt lat="45.31396" lon="6.18446">
        <ele>2452.6000976562</ele>
        <time>2020-02-16T11:34:31.000Z</time>
      </trkpt>
      <trkpt lat="45.31397" lon="6.18444">
        <ele>2452.8000488281</ele>
        <time>2020-02-16T11:34:33.000Z</time>
      </trkpt>
      <trkpt lat="45.31399" lon="6.18441">
        <ele>2453.1999511719</ele>
        <time>2020-02-16T11:34:37.000Z</time>
      </trkpt>
      <trkpt lat="45.314" lon="6.18438">
        <ele>2454</ele>
        <time>2020-02-16T11:34:41.000Z</time>
      </trkpt>
      <trkpt lat="45.314" lon="6.18437">
        <ele>2454.1999511719</ele>
        <time>2020-02-16T11:34:43.000Z</time>
      </trkpt>
      <trkpt lat="45.31401" lon="6.18434">
        <ele>2454.6000976562</ele>
        <time>2020-02-16T11:34:48.000Z</time>
      </trkpt>
      <trkpt lat="45.31403" lon="6.18431">
        <ele>2455</ele>
        <time>2020-02-16T11:34:52.000Z</time>
      </trkpt>
      <trkpt lat="45.31403" lon="6.18431">
        <ele>2455</ele>
        <time>2020-02-16T11:34:53.000Z</time>
      </trkpt>
      <trkpt lat="45.31404" lon="6.18428">
        <ele>2456</ele>
        <time>2020-02-16T11:35:00.000Z</time>
      </trkpt>
      <trkpt lat="45.31406" lon="6.18426">
        <ele>2456.6000976562</ele>
        <time>2020-02-16T11:35:07.000Z</time>
      </trkpt>
      <trkpt lat="45.3141" lon="6.18423">
        <ele>2457.1999511719</ele>
        <time>2020-02-16T11:35:12.000Z</time>
      </trkpt>
      <trkpt lat="45.31409" lon="6.18423">
        <ele>2457.3999023438</ele>
        <time>2020-02-16T11:35:13.000Z</time>
      </trkpt>
      <trkpt lat="45.31413" lon="6.1842">
        <ele>2458.1999511719</ele>
        <time>2020-02-16T11:35:18.000Z</time>
      </trkpt>
      <trkpt lat="45.31416" lon="6.18418">
        <ele>2459.1999511719</ele>
        <time>2020-02-16T11:35:23.000Z</time>
      </trkpt>
      <trkpt lat="45.31418" lon="6.18416">
        <ele>2460.1999511719</ele>
        <time>2020-02-16T11:35:28.000Z</time>
      </trkpt>
      <trkpt lat="45.31419" lon="6.18416">
        <ele>2460.6000976562</ele>
        <time>2020-02-16T11:35:29.000Z</time>
      </trkpt>
      <trkpt lat="45.3142" lon="6.18416">
        <ele>2461.1999511719</ele>
        <time>2020-02-16T11:35:32.000Z</time>
      </trkpt>
      <trkpt lat="45.31422" lon="6.18415">
        <ele>2461.6000976562</ele>
        <time>2020-02-16T11:35:36.000Z</time>
      </trkpt>
      <trkpt lat="45.31423" lon="6.18415">
        <ele>2462</ele>
        <time>2020-02-16T11:35:38.000Z</time>
      </trkpt>
      <trkpt lat="45.31425" lon="6.18414">
        <ele>2462.8000488281</ele>
        <time>2020-02-16T11:35:41.000Z</time>
      </trkpt>
      <trkpt lat="45.31427" lon="6.18414">
        <ele>2463</ele>
        <time>2020-02-16T11:35:44.000Z</time>
      </trkpt>
      <trkpt lat="45.31427" lon="6.18413">
        <ele>2463.8000488281</ele>
        <time>2020-02-16T11:35:49.000Z</time>
      </trkpt>
      <trkpt lat="45.31428" lon="6.18413">
        <ele>2464</ele>
        <time>2020-02-16T11:35:50.000Z</time>
      </trkpt>
      <trkpt lat="45.31429" lon="6.18412">
        <ele>2464.8000488281</ele>
        <time>2020-02-16T11:35:53.000Z</time>
      </trkpt>
      <trkpt lat="45.31431" lon="6.1841">
        <ele>2465.3999023438</ele>
        <time>2020-02-16T11:35:56.000Z</time>
      </trkpt>
      <trkpt lat="45.31431" lon="6.18409">
        <ele>2465.8000488281</ele>
        <time>2020-02-16T11:35:58.000Z</time>
      </trkpt>
      <trkpt lat="45.31432" lon="6.18408">
        <ele>2466.3999023438</ele>
        <time>2020-02-16T11:36:01.000Z</time>
      </trkpt>
      <trkpt lat="45.31434" lon="6.18407">
        <ele>2467.1999511719</ele>
        <time>2020-02-16T11:36:04.000Z</time>
      </trkpt>
      <trkpt lat="45.31436" lon="6.18407">
        <ele>2468</ele>
        <time>2020-02-16T11:36:08.000Z</time>
      </trkpt>
      <trkpt lat="45.31436" lon="6.18407">
        <ele>2468.1999511719</ele>
        <time>2020-02-16T11:36:09.000Z</time>
      </trkpt>
      <trkpt lat="45.31438" lon="6.18407">
        <ele>2469.1999511719</ele>
        <time>2020-02-16T11:36:13.000Z</time>
      </trkpt>
      <trkpt lat="45.3144" lon="6.18406">
        <ele>2470.1999511719</ele>
        <time>2020-02-16T11:36:19.000Z</time>
      </trkpt>
      <trkpt lat="45.31441" lon="6.18405">
        <ele>2470.3999023438</ele>
        <time>2020-02-16T11:36:20.000Z</time>
      </trkpt>
      <trkpt lat="45.31442" lon="6.18405">
        <ele>2471.1999511719</ele>
        <time>2020-02-16T11:36:24.000Z</time>
      </trkpt>
      <trkpt lat="45.31442" lon="6.18405">
        <ele>2471.3999023438</ele>
        <time>2020-02-16T11:36:25.000Z</time>
      </trkpt>
      <trkpt lat="45.31444" lon="6.18404">
        <ele>2472.1999511719</ele>
        <time>2020-02-16T11:36:30.000Z</time>
      </trkpt>
      <trkpt lat="45.31445" lon="6.18405">
        <ele>2472.3999023438</ele>
        <time>2020-02-16T11:36:32.000Z</time>
      </trkpt>
      <trkpt lat="45.31446" lon="6.18405">
        <ele>2472.8000488281</ele>
        <time>2020-02-16T11:36:34.000Z</time>
      </trkpt>
      <trkpt lat="45.31447" lon="6.18406">
        <ele>2473.3999023438</ele>
        <time>2020-02-16T11:36:38.000Z</time>
      </trkpt>
      <trkpt lat="45.31448" lon="6.18406">
        <ele>2473.6000976562</ele>
        <time>2020-02-16T11:36:40.000Z</time>
      </trkpt>
      <trkpt lat="45.31449" lon="6.18406">
        <ele>2474.3999023438</ele>
        <time>2020-02-16T11:36:43.000Z</time>
      </trkpt>
      <trkpt lat="45.3145" lon="6.18406">
        <ele>2474.6000976562</ele>
        <time>2020-02-16T11:36:45.000Z</time>
      </trkpt>
      <trkpt lat="45.31453" lon="6.18408">
        <ele>2475.3999023438</ele>
        <time>2020-02-16T11:36:51.000Z</time>
      </trkpt>
      <trkpt lat="45.31453" lon="6.18408">
        <ele>2475.6000976562</ele>
        <time>2020-02-16T11:36:52.000Z</time>
      </trkpt>
      <trkpt lat="45.31454" lon="6.18409">
        <ele>2476</ele>
        <time>2020-02-16T11:36:56.000Z</time>
      </trkpt>
      <trkpt lat="45.31454" lon="6.18409">
        <ele>2476.6000976562</ele>
        <time>2020-02-16T11:37:00.000Z</time>
      </trkpt>
      <trkpt lat="45.31455" lon="6.18409">
        <ele>2476</ele>
        <time>2020-02-16T11:37:11.000Z</time>
      </trkpt>
      <trkpt lat="45.31458" lon="6.18412">
        <ele>2475.8000488281</ele>
        <time>2020-02-16T11:37:16.000Z</time>
      </trkpt>
      <trkpt lat="45.31462" lon="6.18416">
        <ele>2477.1999511719</ele>
        <time>2020-02-16T11:37:22.000Z</time>
      </trkpt>
      <trkpt lat="45.31463" lon="6.18417">
        <ele>2477.6000976562</ele>
        <time>2020-02-16T11:37:24.000Z</time>
      </trkpt>
      <trkpt lat="45.31465" lon="6.1842">
        <ele>2478.3999023438</ele>
        <time>2020-02-16T11:37:28.000Z</time>
      </trkpt>
      <trkpt lat="45.31465" lon="6.1842">
        <ele>2478.8000488281</ele>
        <time>2020-02-16T11:37:29.000Z</time>
      </trkpt>
      <trkpt lat="45.31467" lon="6.18424">
        <ele>2479.8000488281</ele>
        <time>2020-02-16T11:37:34.000Z</time>
      </trkpt>
      <trkpt lat="45.31467" lon="6.18426">
        <ele>2480</ele>
        <time>2020-02-16T11:37:36.000Z</time>
      </trkpt>
      <trkpt lat="45.31468" lon="6.18428">
        <ele>2480.3999023438</ele>
        <time>2020-02-16T11:37:39.000Z</time>
      </trkpt>
      <trkpt lat="45.3147" lon="6.1843">
        <ele>2481</ele>
        <time>2020-02-16T11:37:42.000Z</time>
      </trkpt>
      <trkpt lat="45.3147" lon="6.1843">
        <ele>2481.1999511719</ele>
        <time>2020-02-16T11:37:43.000Z</time>
      </trkpt>
      <trkpt lat="45.3147" lon="6.1843">
        <ele>2482</ele>
        <time>2020-02-16T11:37:46.000Z</time>
      </trkpt>
      <trkpt lat="45.3147" lon="6.18431">
        <ele>2482.3999023438</ele>
        <time>2020-02-16T11:37:48.000Z</time>
      </trkpt>
      <trkpt lat="45.31471" lon="6.18432">
        <ele>2483</ele>
        <time>2020-02-16T11:37:51.000Z</time>
      </trkpt>
      <trkpt lat="45.31471" lon="6.18432">
        <ele>2483.1999511719</ele>
        <time>2020-02-16T11:37:52.000Z</time>
      </trkpt>
      <trkpt lat="45.31473" lon="6.18435">
        <ele>2484</ele>
        <time>2020-02-16T11:37:54.000Z</time>
      </trkpt>
      <trkpt lat="45.31473" lon="6.18435">
        <ele>2484</ele>
        <time>2020-02-16T11:37:55.000Z</time>
      </trkpt>
      <trkpt lat="45.31473" lon="6.18436">
        <ele>2484.1999511719</ele>
        <time>2020-02-16T11:37:56.000Z</time>
      </trkpt>
      <trkpt lat="45.31475" lon="6.18439">
        <ele>2485.1999511719</ele>
        <time>2020-02-16T11:38:00.000Z</time>
      </trkpt>
      <trkpt lat="45.31475" lon="6.1844">
        <ele>2485.3999023438</ele>
        <time>2020-02-16T11:38:01.000Z</time>
      </trkpt>
      <trkpt lat="45.31475" lon="6.18441">
        <ele>2486</ele>
        <time>2020-02-16T11:38:05.000Z</time>
      </trkpt>
      <trkpt lat="45.31476" lon="6.18441">
        <ele>2486.1999511719</ele>
        <time>2020-02-16T11:38:07.000Z</time>
      </trkpt>
      <trkpt lat="45.31476" lon="6.18443">
        <ele>2487</ele>
        <time>2020-02-16T11:38:10.000Z</time>
      </trkpt>
      <trkpt lat="45.31476" lon="6.18443">
        <ele>2487.3999023438</ele>
        <time>2020-02-16T11:38:12.000Z</time>
      </trkpt>
      <trkpt lat="45.31476" lon="6.18445">
        <ele>2487.6000976562</ele>
        <time>2020-02-16T11:38:21.000Z</time>
      </trkpt>
      <trkpt lat="45.31476" lon="6.18445">
        <ele>2488</ele>
        <time>2020-02-16T11:38:28.000Z</time>
      </trkpt>
      <trkpt lat="45.31479" lon="6.18444">
        <ele>2488.8000488281</ele>
        <time>2020-02-16T11:38:35.000Z</time>
      </trkpt>
      <trkpt lat="45.31481" lon="6.18441">
        <ele>2488.8000488281</ele>
        <time>2020-02-16T11:38:43.000Z</time>
      </trkpt>
      <trkpt lat="45.31486" lon="6.18436">
        <ele>2489.8000488281</ele>
        <time>2020-02-16T11:38:49.000Z</time>
      </trkpt>
      <trkpt lat="45.3149" lon="6.18433">
        <ele>2490.8000488281</ele>
        <time>2020-02-16T11:38:54.000Z</time>
      </trkpt>
      <trkpt lat="45.31492" lon="6.1843">
        <ele>2491.3999023438</ele>
        <time>2020-02-16T11:38:56.000Z</time>
      </trkpt>
      <trkpt lat="45.31492" lon="6.18429">
        <ele>2492</ele>
        <time>2020-02-16T11:38:58.000Z</time>
      </trkpt>
      <trkpt lat="45.31494" lon="6.18426">
        <ele>2492.6000976562</ele>
        <time>2020-02-16T11:39:01.000Z</time>
      </trkpt>
      <trkpt lat="45.31495" lon="6.18424">
        <ele>2493</ele>
        <time>2020-02-16T11:39:03.000Z</time>
      </trkpt>
      <trkpt lat="45.31497" lon="6.18422">
        <ele>2494.1999511719</ele>
        <time>2020-02-16T11:39:06.000Z</time>
      </trkpt>
      <trkpt lat="45.31497" lon="6.18421">
        <ele>2494.3999023438</ele>
        <time>2020-02-16T11:39:07.000Z</time>
      </trkpt>
      <trkpt lat="45.31497" lon="6.18419">
        <ele>2494.6000976562</ele>
        <time>2020-02-16T11:39:08.000Z</time>
      </trkpt>
      <trkpt lat="45.31497" lon="6.18418">
        <ele>2495.1999511719</ele>
        <time>2020-02-16T11:39:10.000Z</time>
      </trkpt>
      <trkpt lat="45.31497" lon="6.18416">
        <ele>2495.8000488281</ele>
        <time>2020-02-16T11:39:12.000Z</time>
      </trkpt>
      <trkpt lat="45.31498" lon="6.18414">
        <ele>2496.3999023438</ele>
        <time>2020-02-16T11:39:15.000Z</time>
      </trkpt>
      <trkpt lat="45.31499" lon="6.1841">
        <ele>2497.1999511719</ele>
        <time>2020-02-16T11:39:18.000Z</time>
      </trkpt>
      <trkpt lat="45.31499" lon="6.18408">
        <ele>2497.3999023438</ele>
        <time>2020-02-16T11:39:19.000Z</time>
      </trkpt>
      <trkpt lat="45.31501" lon="6.18404">
        <ele>2498.3999023438</ele>
        <time>2020-02-16T11:39:24.000Z</time>
      </trkpt>
      <trkpt lat="45.31501" lon="6.18405">
        <ele>2498.8000488281</ele>
        <time>2020-02-16T11:39:31.000Z</time>
      </trkpt>
      <trkpt lat="45.31502" lon="6.18404">
        <ele>2499.3999023438</ele>
        <time>2020-02-16T11:39:35.000Z</time>
      </trkpt>
      <trkpt lat="45.31503" lon="6.18401">
        <ele>2500</ele>
        <time>2020-02-16T11:39:38.000Z</time>
      </trkpt>
      <trkpt lat="45.31504" lon="6.18398">
        <ele>2500.1999511719</ele>
        <time>2020-02-16T11:39:43.000Z</time>
      </trkpt>
      <trkpt lat="45.31505" lon="6.18397">
        <ele>2500.6000976562</ele>
        <time>2020-02-16T11:39:44.000Z</time>
      </trkpt>
      <trkpt lat="45.31506" lon="6.18392">
        <ele>2501.1999511719</ele>
        <time>2020-02-16T11:39:49.000Z</time>
      </trkpt>
      <trkpt lat="45.31507" lon="6.18391">
        <ele>2501.6000976562</ele>
        <time>2020-02-16T11:39:51.000Z</time>
      </trkpt>
      <trkpt lat="45.31508" lon="6.18388">
        <ele>2502.3999023438</ele>
        <time>2020-02-16T11:39:54.000Z</time>
      </trkpt>
      <trkpt lat="45.31509" lon="6.18387">
        <ele>2502.6000976562</ele>
        <time>2020-02-16T11:39:55.000Z</time>
      </trkpt>
      <trkpt lat="45.3151" lon="6.18385">
        <ele>2503.3999023438</ele>
        <time>2020-02-16T11:39:59.000Z</time>
      </trkpt>
      <trkpt lat="45.31511" lon="6.18384">
        <ele>2503.6000976562</ele>
        <time>2020-02-16T11:40:03.000Z</time>
      </trkpt>
      <trkpt lat="45.31511" lon="6.18384">
        <ele>2503.6000976562</ele>
        <time>2020-02-16T11:40:04.000Z</time>
      </trkpt>
      <trkpt lat="45.31511" lon="6.18384">
        <ele>2504</ele>
        <time>2020-02-16T11:40:23.000Z</time>
      </trkpt>
      <trkpt lat="45.31511" lon="6.18384">
        <ele>2504.6000976562</ele>
        <time>2020-02-16T11:40:29.000Z</time>
      </trkpt>
      <trkpt lat="45.31511" lon="6.18384">
        <ele>2505</ele>
        <time>2020-02-16T11:40:42.000Z</time>
      </trkpt>
      <trkpt lat="45.31511" lon="6.18384">
        <ele>2505.8000488281</ele>
        <time>2020-02-16T11:40:50.000Z</time>
      </trkpt>
      <trkpt lat="45.31511" lon="6.18384">
        <ele>2504.8000488281</ele>
        <time>2020-02-16T11:41:01.000Z</time>
      </trkpt>
      <trkpt lat="45.31511" lon="6.18384">
        <ele>2505.1999511719</ele>
        <time>2020-02-16T11:41:16.000Z</time>
      </trkpt>
      <trkpt lat="45.3151" lon="6.18384">
        <ele>2505.1999511719</ele>
        <time>2020-02-16T11:41:31.000Z</time>
      </trkpt>
      <trkpt lat="45.31514" lon="6.18381">
        <ele>2505.8000488281</ele>
        <time>2020-02-16T11:41:34.000Z</time>
      </trkpt>
      <trkpt lat="45.31516" lon="6.18379">
        <ele>2506.1999511719</ele>
        <time>2020-02-16T11:41:37.000Z</time>
      </trkpt>
      <trkpt lat="45.31518" lon="6.18378">
        <ele>2506.8000488281</ele>
        <time>2020-02-16T11:41:40.000Z</time>
      </trkpt>
      <trkpt lat="45.31518" lon="6.18378">
        <ele>2507.1999511719</ele>
        <time>2020-02-16T11:41:42.000Z</time>
      </trkpt>
      <trkpt lat="45.31519" lon="6.18378">
        <ele>2508</ele>
        <time>2020-02-16T11:41:44.000Z</time>
      </trkpt>
      <trkpt lat="45.3152" lon="6.18378">
        <ele>2509.1999511719</ele>
        <time>2020-02-16T11:41:47.000Z</time>
      </trkpt>
      <trkpt lat="45.31523" lon="6.18378">
        <ele>2510.1999511719</ele>
        <time>2020-02-16T11:41:51.000Z</time>
      </trkpt>
      <trkpt lat="45.31523" lon="6.18378">
        <ele>2511</ele>
        <time>2020-02-16T11:41:53.000Z</time>
      </trkpt>
      <trkpt lat="45.31524" lon="6.18379">
        <ele>2511.6000976562</ele>
        <time>2020-02-16T11:41:55.000Z</time>
      </trkpt>
      <trkpt lat="45.31525" lon="6.18379">
        <ele>2512.1999511719</ele>
        <time>2020-02-16T11:41:58.000Z</time>
      </trkpt>
      <trkpt lat="45.31528" lon="6.18379">
        <ele>2511.8000488281</ele>
        <time>2020-02-16T11:42:05.000Z</time>
      </trkpt>
      <trkpt lat="45.31531" lon="6.18379">
        <ele>2512</ele>
        <time>2020-02-16T11:42:11.000Z</time>
      </trkpt>
      <trkpt lat="45.31531" lon="6.18379">
        <ele>2512.6000976562</ele>
        <time>2020-02-16T11:42:14.000Z</time>
      </trkpt>
      <trkpt lat="45.31533" lon="6.18378">
        <ele>2513</ele>
        <time>2020-02-16T11:42:16.000Z</time>
      </trkpt>
      <trkpt lat="45.31534" lon="6.18378">
        <ele>2513.8000488281</ele>
        <time>2020-02-16T11:42:21.000Z</time>
      </trkpt>
      <trkpt lat="45.31534" lon="6.18378">
        <ele>2513.8000488281</ele>
        <time>2020-02-16T11:42:22.000Z</time>
      </trkpt>
      <trkpt lat="45.31534" lon="6.18378">
        <ele>2514.8000488281</ele>
        <time>2020-02-16T11:42:27.000Z</time>
      </trkpt>
      <trkpt lat="45.31536" lon="6.18378">
        <ele>2515</ele>
        <time>2020-02-16T11:42:32.000Z</time>
      </trkpt>
      <trkpt lat="45.31537" lon="6.18378">
        <ele>2516</ele>
        <time>2020-02-16T11:42:41.000Z</time>
      </trkpt>
      <trkpt lat="45.31537" lon="6.18378">
        <ele>2516</ele>
        <time>2020-02-16T11:42:42.000Z</time>
      </trkpt>
      <trkpt lat="45.31537" lon="6.18378">
        <ele>2516.1999511719</ele>
        <time>2020-02-16T11:42:53.000Z</time>
      </trkpt>
      <trkpt lat="45.31538" lon="6.18379">
        <ele>2516.6000976562</ele>
        <time>2020-02-16T11:42:57.000Z</time>
      </trkpt>
      <trkpt lat="45.31539" lon="6.18379">
        <ele>2516.8000488281</ele>
        <time>2020-02-16T11:42:58.000Z</time>
      </trkpt>
      <trkpt lat="45.31541" lon="6.1838">
        <ele>2517</ele>
        <time>2020-02-16T11:43:00.000Z</time>
      </trkpt>
      <trkpt lat="45.31542" lon="6.18381">
        <ele>2517.6000976562</ele>
        <time>2020-02-16T11:43:03.000Z</time>
      </trkpt>
      <trkpt lat="45.31544" lon="6.18383">
        <ele>2518.1999511719</ele>
        <time>2020-02-16T11:43:05.000Z</time>
      </trkpt>
      <trkpt lat="45.31545" lon="6.18384">
        <ele>2518.6000976562</ele>
        <time>2020-02-16T11:43:07.000Z</time>
      </trkpt>
      <trkpt lat="45.31546" lon="6.18386">
        <ele>2519.1999511719</ele>
        <time>2020-02-16T11:43:11.000Z</time>
      </trkpt>
      <trkpt lat="45.31548" lon="6.18387">
        <ele>2519.3999023438</ele>
        <time>2020-02-16T11:43:12.000Z</time>
      </trkpt>
      <trkpt lat="45.31553" lon="6.18388">
        <ele>2520.3999023438</ele>
        <time>2020-02-16T11:43:17.000Z</time>
      </trkpt>
      <trkpt lat="45.31557" lon="6.1839">
        <ele>2521</ele>
        <time>2020-02-16T11:43:23.000Z</time>
      </trkpt>
      <trkpt lat="45.31558" lon="6.1839">
        <ele>2521.3999023438</ele>
        <time>2020-02-16T11:43:25.000Z</time>
      </trkpt>
      <trkpt lat="45.31561" lon="6.18391">
        <ele>2522.1999511719</ele>
        <time>2020-02-16T11:43:29.000Z</time>
      </trkpt>
      <trkpt lat="45.31563" lon="6.18392">
        <ele>2522.6000976562</ele>
        <time>2020-02-16T11:43:33.000Z</time>
      </trkpt>
      <trkpt lat="45.31565" lon="6.18394">
        <ele>2523.6000976562</ele>
        <time>2020-02-16T11:43:38.000Z</time>
      </trkpt>
      <trkpt lat="45.31565" lon="6.18394">
        <ele>2523.8000488281</ele>
        <time>2020-02-16T11:43:39.000Z</time>
      </trkpt>
      <trkpt lat="45.31568" lon="6.18395">
        <ele>2524.6000976562</ele>
        <time>2020-02-16T11:43:45.000Z</time>
      </trkpt>
      <trkpt lat="45.31569" lon="6.18396">
        <ele>2524.8000488281</ele>
        <time>2020-02-16T11:43:47.000Z</time>
      </trkpt>
      <trkpt lat="45.31571" lon="6.18398">
        <ele>2525.6000976562</ele>
        <time>2020-02-16T11:43:51.000Z</time>
      </trkpt>
      <trkpt lat="45.31572" lon="6.18397">
        <ele>2526.1999511719</ele>
        <time>2020-02-16T11:43:53.000Z</time>
      </trkpt>
      <trkpt lat="45.31574" lon="6.18397">
        <ele>2526.6000976562</ele>
        <time>2020-02-16T11:43:57.000Z</time>
      </trkpt>
      <trkpt lat="45.31577" lon="6.184">
        <ele>2527.1999511719</ele>
        <time>2020-02-16T11:44:02.000Z</time>
      </trkpt>
      <trkpt lat="45.31578" lon="6.184">
        <ele>2527.1999511719</ele>
        <time>2020-02-16T11:44:03.000Z</time>
      </trkpt>
      <trkpt lat="45.31581" lon="6.18401">
        <ele>2527.8000488281</ele>
        <time>2020-02-16T11:44:07.000Z</time>
      </trkpt>
      <trkpt lat="45.31583" lon="6.18403">
        <ele>2528.1999511719</ele>
        <time>2020-02-16T11:44:11.000Z</time>
      </trkpt>
      <trkpt lat="45.31585" lon="6.18403">
        <ele>2528.3999023438</ele>
        <time>2020-02-16T11:44:13.000Z</time>
      </trkpt>
      <trkpt lat="45.31586" lon="6.18404">
        <ele>2529</ele>
        <time>2020-02-16T11:44:17.000Z</time>
      </trkpt>
      <trkpt lat="45.31586" lon="6.18404">
        <ele>2529.1999511719</ele>
        <time>2020-02-16T11:44:19.000Z</time>
      </trkpt>
      <trkpt lat="45.31587" lon="6.18404">
        <ele>2529.8000488281</ele>
        <time>2020-02-16T11:44:21.000Z</time>
      </trkpt>
      <trkpt lat="45.31589" lon="6.18403">
        <ele>2530.3999023438</ele>
        <time>2020-02-16T11:44:25.000Z</time>
      </trkpt>
      <trkpt lat="45.31592" lon="6.18403">
        <ele>2531</ele>
        <time>2020-02-16T11:44:30.000Z</time>
      </trkpt>
      <trkpt lat="45.31594" lon="6.18403">
        <ele>2531.3999023438</ele>
        <time>2020-02-16T11:44:34.000Z</time>
      </trkpt>
      <trkpt lat="45.31594" lon="6.18403">
        <ele>2531.3999023438</ele>
        <time>2020-02-16T11:44:35.000Z</time>
      </trkpt>
      <trkpt lat="45.31597" lon="6.18403">
        <ele>2532</ele>
        <time>2020-02-16T11:44:39.000Z</time>
      </trkpt>
      <trkpt lat="45.31599" lon="6.18402">
        <ele>2532.8000488281</ele>
        <time>2020-02-16T11:44:41.000Z</time>
      </trkpt>
      <trkpt lat="45.316" lon="6.18402">
        <ele>2533.3999023438</ele>
        <time>2020-02-16T11:44:44.000Z</time>
      </trkpt>
      <trkpt lat="45.316" lon="6.18402">
        <ele>2533.8000488281</ele>
        <time>2020-02-16T11:44:46.000Z</time>
      </trkpt>
      <trkpt lat="45.31601" lon="6.18402">
        <ele>2534.1999511719</ele>
        <time>2020-02-16T11:44:48.000Z</time>
      </trkpt>
      <trkpt lat="45.31603" lon="6.18401">
        <ele>2535</ele>
        <time>2020-02-16T11:44:52.000Z</time>
      </trkpt>
      <trkpt lat="45.31604" lon="6.18401">
        <ele>2535.1999511719</ele>
        <time>2020-02-16T11:44:53.000Z</time>
      </trkpt>
      <trkpt lat="45.31608" lon="6.184">
        <ele>2536</ele>
        <time>2020-02-16T11:44:58.000Z</time>
      </trkpt>
      <trkpt lat="45.31609" lon="6.18399">
        <ele>2536.3999023438</ele>
        <time>2020-02-16T11:45:00.000Z</time>
      </trkpt>
      <trkpt lat="45.31611" lon="6.18398">
        <ele>2537.1999511719</ele>
        <time>2020-02-16T11:45:03.000Z</time>
      </trkpt>
      <trkpt lat="45.31611" lon="6.18398">
        <ele>2537.3999023438</ele>
        <time>2020-02-16T11:45:04.000Z</time>
      </trkpt>
      <trkpt lat="45.31611" lon="6.18398">
        <ele>2538.1999511719</ele>
        <time>2020-02-16T11:45:07.000Z</time>
      </trkpt>
      <trkpt lat="45.31612" lon="6.18398">
        <ele>2538.6000976562</ele>
        <time>2020-02-16T11:45:09.000Z</time>
      </trkpt>
      <trkpt lat="45.31616" lon="6.18395">
        <ele>2539.3999023438</ele>
        <time>2020-02-16T11:45:14.000Z</time>
      </trkpt>
      <trkpt lat="45.31618" lon="6.18393">
        <ele>2539.6000976562</ele>
        <time>2020-02-16T11:45:16.000Z</time>
      </trkpt>
      <trkpt lat="45.3162" lon="6.18392">
        <ele>2540.1999511719</ele>
        <time>2020-02-16T11:45:20.000Z</time>
      </trkpt>
      <trkpt lat="45.31621" lon="6.18391">
        <ele>2540.3999023438</ele>
        <time>2020-02-16T11:45:21.000Z</time>
      </trkpt>
      <trkpt lat="45.31623" lon="6.1839">
        <ele>2541.1999511719</ele>
        <time>2020-02-16T11:45:25.000Z</time>
      </trkpt>
      <trkpt lat="45.31624" lon="6.1839">
        <ele>2541.3999023438</ele>
        <time>2020-02-16T11:45:27.000Z</time>
      </trkpt>
      <trkpt lat="45.31624" lon="6.18389">
        <ele>2541.8000488281</ele>
        <time>2020-02-16T11:45:29.000Z</time>
      </trkpt>
      <trkpt lat="45.31625" lon="6.18388">
        <ele>2542.3999023438</ele>
        <time>2020-02-16T11:45:33.000Z</time>
      </trkpt>
      <trkpt lat="45.31626" lon="6.18388">
        <ele>2542.6000976562</ele>
        <time>2020-02-16T11:45:34.000Z</time>
      </trkpt>
      <trkpt lat="45.31627" lon="6.18388">
        <ele>2543</ele>
        <time>2020-02-16T11:45:37.000Z</time>
      </trkpt>
      <trkpt lat="45.31629" lon="6.18386">
        <ele>2543.6000976562</ele>
        <time>2020-02-16T11:45:41.000Z</time>
      </trkpt>
      <trkpt lat="45.3163" lon="6.18386">
        <ele>2544</ele>
        <time>2020-02-16T11:45:42.000Z</time>
      </trkpt>
      <trkpt lat="45.31632" lon="6.18382">
        <ele>2544.8000488281</ele>
        <time>2020-02-16T11:45:47.000Z</time>
      </trkpt>
      <trkpt lat="45.31633" lon="6.1838">
        <ele>2545.1999511719</ele>
        <time>2020-02-16T11:45:52.000Z</time>
      </trkpt>
      <trkpt lat="45.31633" lon="6.18379">
        <ele>2545.8000488281</ele>
        <time>2020-02-16T11:45:54.000Z</time>
      </trkpt>
      <trkpt lat="45.31634" lon="6.18378">
        <ele>2545.6000976562</ele>
        <time>2020-02-16T11:45:58.000Z</time>
      </trkpt>
      <trkpt lat="45.31635" lon="6.18379">
        <ele>2546.3999023438</ele>
        <time>2020-02-16T11:46:04.000Z</time>
      </trkpt>
      <trkpt lat="45.31636" lon="6.18381">
        <ele>2546.6000976562</ele>
        <time>2020-02-16T11:46:09.000Z</time>
      </trkpt>
      <trkpt lat="45.31636" lon="6.18384">
        <ele>2547</ele>
        <time>2020-02-16T11:46:14.000Z</time>
      </trkpt>
      <trkpt lat="45.31638" lon="6.18388">
        <ele>2548</ele>
        <time>2020-02-16T11:46:20.000Z</time>
      </trkpt>
      <trkpt lat="45.31639" lon="6.1839">
        <ele>2549</ele>
        <time>2020-02-16T11:46:24.000Z</time>
      </trkpt>
      <trkpt lat="45.31639" lon="6.18391">
        <ele>2549.1999511719</ele>
        <time>2020-02-16T11:46:25.000Z</time>
      </trkpt>
      <trkpt lat="45.3164" lon="6.18394">
        <ele>2550</ele>
        <time>2020-02-16T11:46:29.000Z</time>
      </trkpt>
      <trkpt lat="45.3164" lon="6.18395">
        <ele>2550.3999023438</ele>
        <time>2020-02-16T11:46:33.000Z</time>
      </trkpt>
      <trkpt lat="45.3164" lon="6.18397">
        <ele>2551</ele>
        <time>2020-02-16T11:46:37.000Z</time>
      </trkpt>
      <trkpt lat="45.3164" lon="6.184">
        <ele>2551.3999023438</ele>
        <time>2020-02-16T11:46:40.000Z</time>
      </trkpt>
      <trkpt lat="45.3164" lon="6.18401">
        <ele>2552.1999511719</ele>
        <time>2020-02-16T11:46:44.000Z</time>
      </trkpt>
      <trkpt lat="45.3164" lon="6.18402">
        <ele>2552.6000976562</ele>
        <time>2020-02-16T11:46:46.000Z</time>
      </trkpt>
      <trkpt lat="45.31641" lon="6.18402">
        <ele>2552.8000488281</ele>
        <time>2020-02-16T11:46:49.000Z</time>
      </trkpt>
      <trkpt lat="45.31642" lon="6.18403">
        <ele>2553.3999023438</ele>
        <time>2020-02-16T11:46:57.000Z</time>
      </trkpt>
      <trkpt lat="45.31643" lon="6.18405">
        <ele>2553.8000488281</ele>
        <time>2020-02-16T11:47:00.000Z</time>
      </trkpt>
      <trkpt lat="45.31647" lon="6.18406">
        <ele>2554.6000976562</ele>
        <time>2020-02-16T11:47:05.000Z</time>
      </trkpt>
      <trkpt lat="45.31648" lon="6.18407">
        <ele>2554.8000488281</ele>
        <time>2020-02-16T11:47:07.000Z</time>
      </trkpt>
      <trkpt lat="45.31652" lon="6.18407">
        <ele>2555.8000488281</ele>
        <time>2020-02-16T11:47:13.000Z</time>
      </trkpt>
      <trkpt lat="45.31653" lon="6.18406">
        <ele>2556.1999511719</ele>
        <time>2020-02-16T11:47:16.000Z</time>
      </trkpt>
      <trkpt lat="45.31654" lon="6.18404">
        <ele>2557</ele>
        <time>2020-02-16T11:47:21.000Z</time>
      </trkpt>
      <trkpt lat="45.31655" lon="6.18403">
        <ele>2557.3999023438</ele>
        <time>2020-02-16T11:47:23.000Z</time>
      </trkpt>
      <trkpt lat="45.31658" lon="6.18401">
        <ele>2558.1999511719</ele>
        <time>2020-02-16T11:47:28.000Z</time>
      </trkpt>
      <trkpt lat="45.31661" lon="6.18398">
        <ele>2559.1999511719</ele>
        <time>2020-02-16T11:47:33.000Z</time>
      </trkpt>
      <trkpt lat="45.31663" lon="6.18394">
        <ele>2560.3999023438</ele>
        <time>2020-02-16T11:47:39.000Z</time>
      </trkpt>
      <trkpt lat="45.31665" lon="6.18393">
        <ele>2561</ele>
        <time>2020-02-16T11:47:43.000Z</time>
      </trkpt>
      <trkpt lat="45.31666" lon="6.18392">
        <ele>2561.3999023438</ele>
        <time>2020-02-16T11:47:45.000Z</time>
      </trkpt>
      <trkpt lat="45.31668" lon="6.18389">
        <ele>2562.3999023438</ele>
        <time>2020-02-16T11:47:50.000Z</time>
      </trkpt>
      <trkpt lat="45.31668" lon="6.18389">
        <ele>2562.6000976562</ele>
        <time>2020-02-16T11:47:51.000Z</time>
      </trkpt>
      <trkpt lat="45.3167" lon="6.18386">
        <ele>2563.6000976562</ele>
        <time>2020-02-16T11:47:58.000Z</time>
      </trkpt>
      <trkpt lat="45.3167" lon="6.18386">
        <ele>2564.6000976562</ele>
        <time>2020-02-16T11:48:06.000Z</time>
      </trkpt>
      <trkpt lat="45.31671" lon="6.18384">
        <ele>2564.6000976562</ele>
        <time>2020-02-16T11:48:09.000Z</time>
      </trkpt>
      <trkpt lat="45.31672" lon="6.1838">
        <ele>2565</ele>
        <time>2020-02-16T11:48:15.000Z</time>
      </trkpt>
      <trkpt lat="45.31673" lon="6.18377">
        <ele>2565.8000488281</ele>
        <time>2020-02-16T11:48:18.000Z</time>
      </trkpt>
      <trkpt lat="45.31674" lon="6.18376">
        <ele>2566</ele>
        <time>2020-02-16T11:48:19.000Z</time>
      </trkpt>
      <trkpt lat="45.31674" lon="6.18375">
        <ele>2566.6000976562</ele>
        <time>2020-02-16T11:48:22.000Z</time>
      </trkpt>
      <trkpt lat="45.31675" lon="6.18373">
        <ele>2566.8000488281</ele>
        <time>2020-02-16T11:48:24.000Z</time>
      </trkpt>
      <trkpt lat="45.31675" lon="6.18373">
        <ele>2567.1999511719</ele>
        <time>2020-02-16T11:48:26.000Z</time>
      </trkpt>
      <trkpt lat="45.31675" lon="6.18371">
        <ele>2567.8000488281</ele>
        <time>2020-02-16T11:48:29.000Z</time>
      </trkpt>
      <trkpt lat="45.31677" lon="6.18365">
        <ele>2569</ele>
        <time>2020-02-16T11:48:33.000Z</time>
      </trkpt>
      <trkpt lat="45.31678" lon="6.18361">
        <ele>2570</ele>
        <time>2020-02-16T11:48:37.000Z</time>
      </trkpt>
      <trkpt lat="45.31678" lon="6.18361">
        <ele>2570.6000976562</ele>
        <time>2020-02-16T11:48:41.000Z</time>
      </trkpt>
      <trkpt lat="45.31677" lon="6.18361">
        <ele>2571</ele>
        <time>2020-02-16T11:48:46.000Z</time>
      </trkpt>
      <trkpt lat="45.31677" lon="6.18361">
        <ele>2572</ele>
        <time>2020-02-16T11:48:49.000Z</time>
      </trkpt>
      <trkpt lat="45.31678" lon="6.18362">
        <ele>2572.1999511719</ele>
        <time>2020-02-16T11:48:50.000Z</time>
      </trkpt>
      <trkpt lat="45.3168" lon="6.18365">
        <ele>2573</ele>
        <time>2020-02-16T11:48:57.000Z</time>
      </trkpt>
      <trkpt lat="45.31681" lon="6.18363">
        <ele>2573.1999511719</ele>
        <time>2020-02-16T11:48:59.000Z</time>
      </trkpt>
      <trkpt lat="45.31682" lon="6.18358">
        <ele>2574.1999511719</ele>
        <time>2020-02-16T11:49:04.000Z</time>
      </trkpt>
      <trkpt lat="45.31682" lon="6.18354">
        <ele>2575.3999023438</ele>
        <time>2020-02-16T11:49:09.000Z</time>
      </trkpt>
      <trkpt lat="45.31682" lon="6.18353">
        <ele>2576</ele>
        <time>2020-02-16T11:49:11.000Z</time>
      </trkpt>
      <trkpt lat="45.31682" lon="6.18353">
        <ele>2576.6000976562</ele>
        <time>2020-02-16T11:49:14.000Z</time>
      </trkpt>
      <trkpt lat="45.31682" lon="6.18353">
        <ele>2576.6000976562</ele>
        <time>2020-02-16T11:49:24.000Z</time>
      </trkpt>
      <trkpt lat="45.31682" lon="6.18353">
        <ele>2576.1999511719</ele>
        <time>2020-02-16T11:49:36.000Z</time>
      </trkpt>
      <trkpt lat="45.31682" lon="6.18354">
        <ele>2577</ele>
        <time>2020-02-16T11:49:42.000Z</time>
      </trkpt>
      <trkpt lat="45.31687" lon="6.18359">
        <ele>2577.1999511719</ele>
        <time>2020-02-16T11:49:49.000Z</time>
      </trkpt>
      <trkpt lat="45.31688" lon="6.18361">
        <ele>2578</ele>
        <time>2020-02-16T11:49:53.000Z</time>
      </trkpt>
      <trkpt lat="45.31689" lon="6.18361">
        <ele>2578.3999023438</ele>
        <time>2020-02-16T11:49:55.000Z</time>
      </trkpt>
      <trkpt lat="45.31691" lon="6.18364">
        <ele>2579</ele>
        <time>2020-02-16T11:49:59.000Z</time>
      </trkpt>
      <trkpt lat="45.31691" lon="6.18366">
        <ele>2579.3999023438</ele>
        <time>2020-02-16T11:50:01.000Z</time>
      </trkpt>
      <trkpt lat="45.31692" lon="6.1837">
        <ele>2580.1999511719</ele>
        <time>2020-02-16T11:50:06.000Z</time>
      </trkpt>
      <trkpt lat="45.31694" lon="6.18374">
        <ele>2581.3999023438</ele>
        <time>2020-02-16T11:50:12.000Z</time>
      </trkpt>
      <trkpt lat="45.31694" lon="6.18375">
        <ele>2581.6000976562</ele>
        <time>2020-02-16T11:50:13.000Z</time>
      </trkpt>
      <trkpt lat="45.31694" lon="6.18377">
        <ele>2582.1999511719</ele>
        <time>2020-02-16T11:50:18.000Z</time>
      </trkpt>
      <trkpt lat="45.31694" lon="6.18377">
        <ele>2582.6000976562</ele>
        <time>2020-02-16T11:50:20.000Z</time>
      </trkpt>
      <trkpt lat="45.31695" lon="6.18378">
        <ele>2582.6000976562</ele>
        <time>2020-02-16T11:50:25.000Z</time>
      </trkpt>
      <trkpt lat="45.31696" lon="6.18378">
        <ele>2583</ele>
        <time>2020-02-16T11:50:32.000Z</time>
      </trkpt>
      <trkpt lat="45.317" lon="6.18372">
        <ele>2583.3999023438</ele>
        <time>2020-02-16T11:50:38.000Z</time>
      </trkpt>
      <trkpt lat="45.31701" lon="6.1837">
        <ele>2583.8000488281</ele>
        <time>2020-02-16T11:50:40.000Z</time>
      </trkpt>
      <trkpt lat="45.31705" lon="6.18366">
        <ele>2584.8000488281</ele>
        <time>2020-02-16T11:50:44.000Z</time>
      </trkpt>
      <trkpt lat="45.31706" lon="6.18365">
        <ele>2584.8000488281</ele>
        <time>2020-02-16T11:50:45.000Z</time>
      </trkpt>
      <trkpt lat="45.31706" lon="6.1836">
        <ele>2585.8000488281</ele>
        <time>2020-02-16T11:50:51.000Z</time>
      </trkpt>
      <trkpt lat="45.31706" lon="6.1836">
        <ele>2586</ele>
        <time>2020-02-16T11:50:52.000Z</time>
      </trkpt>
      <trkpt lat="45.31707" lon="6.18356">
        <ele>2587</ele>
        <time>2020-02-16T11:50:56.000Z</time>
      </trkpt>
      <trkpt lat="45.31707" lon="6.18352">
        <ele>2587.6000976562</ele>
        <time>2020-02-16T11:51:00.000Z</time>
      </trkpt>
      <trkpt lat="45.31707" lon="6.1835">
        <ele>2588</ele>
        <time>2020-02-16T11:51:03.000Z</time>
      </trkpt>
      <trkpt lat="45.31707" lon="6.18346">
        <ele>2588.8000488281</ele>
        <time>2020-02-16T11:51:08.000Z</time>
      </trkpt>
      <trkpt lat="45.31707" lon="6.18345">
        <ele>2589</ele>
        <time>2020-02-16T11:51:10.000Z</time>
      </trkpt>
      <trkpt lat="45.31707" lon="6.18344">
        <ele>2589.6000976562</ele>
        <time>2020-02-16T11:51:13.000Z</time>
      </trkpt>
      <trkpt lat="45.31708" lon="6.18342">
        <ele>2590.1999511719</ele>
        <time>2020-02-16T11:51:16.000Z</time>
      </trkpt>
      <trkpt lat="45.31708" lon="6.18341">
        <ele>2590.6000976562</ele>
        <time>2020-02-16T11:51:18.000Z</time>
      </trkpt>
      <trkpt lat="45.31708" lon="6.18339">
        <ele>2591</ele>
        <time>2020-02-16T11:51:21.000Z</time>
      </trkpt>
      <trkpt lat="45.31707" lon="6.18338">
        <ele>2591.1999511719</ele>
        <time>2020-02-16T11:51:22.000Z</time>
      </trkpt>
      <trkpt lat="45.31707" lon="6.18338">
        <ele>2591.3999023438</ele>
        <time>2020-02-16T11:51:23.000Z</time>
      </trkpt>
      <trkpt lat="45.31706" lon="6.18335">
        <ele>2592.1999511719</ele>
        <time>2020-02-16T11:51:27.000Z</time>
      </trkpt>
      <trkpt lat="45.31707" lon="6.18334">
        <ele>2592.3999023438</ele>
        <time>2020-02-16T11:51:28.000Z</time>
      </trkpt>
      <trkpt lat="45.31706" lon="6.18333">
        <ele>2593.6000976562</ele>
        <time>2020-02-16T11:51:31.000Z</time>
      </trkpt>
      <trkpt lat="45.31706" lon="6.18329">
        <ele>2594.3999023438</ele>
        <time>2020-02-16T11:51:36.000Z</time>
      </trkpt>
      <trkpt lat="45.31705" lon="6.18326">
        <ele>2594.6000976562</ele>
        <time>2020-02-16T11:51:39.000Z</time>
      </trkpt>
      <trkpt lat="45.31705" lon="6.18324">
        <ele>2594.8000488281</ele>
        <time>2020-02-16T11:51:41.000Z</time>
      </trkpt>
      <trkpt lat="45.31704" lon="6.18319">
        <ele>2595.8000488281</ele>
        <time>2020-02-16T11:51:46.000Z</time>
      </trkpt>
      <trkpt lat="45.31704" lon="6.18317">
        <ele>2596.6000976562</ele>
        <time>2020-02-16T11:51:50.000Z</time>
      </trkpt>
      <trkpt lat="45.31704" lon="6.18317">
        <ele>2596.8000488281</ele>
        <time>2020-02-16T11:51:51.000Z</time>
      </trkpt>
      <trkpt lat="45.31705" lon="6.18315">
        <ele>2597.1999511719</ele>
        <time>2020-02-16T11:51:54.000Z</time>
      </trkpt>
      <trkpt lat="45.31704" lon="6.18312">
        <ele>2597.8000488281</ele>
        <time>2020-02-16T11:51:58.000Z</time>
      </trkpt>
      <trkpt lat="45.31704" lon="6.18312">
        <ele>2598</ele>
        <time>2020-02-16T11:51:59.000Z</time>
      </trkpt>
      <trkpt lat="45.31704" lon="6.1831">
        <ele>2599</ele>
        <time>2020-02-16T11:52:03.000Z</time>
      </trkpt>
      <trkpt lat="45.31704" lon="6.18309">
        <ele>2599.3999023438</ele>
        <time>2020-02-16T11:52:05.000Z</time>
      </trkpt>
      <trkpt lat="45.31703" lon="6.18303">
        <ele>2600</ele>
        <time>2020-02-16T11:52:10.000Z</time>
      </trkpt>
      <trkpt lat="45.31703" lon="6.18302">
        <ele>2600</ele>
        <time>2020-02-16T11:52:11.000Z</time>
      </trkpt>
      <trkpt lat="45.31702" lon="6.18296">
        <ele>2601</ele>
        <time>2020-02-16T11:52:17.000Z</time>
      </trkpt>
      <trkpt lat="45.31702" lon="6.18295">
        <ele>2601.3999023438</ele>
        <time>2020-02-16T11:52:18.000Z</time>
      </trkpt>
      <trkpt lat="45.31702" lon="6.18295">
        <ele>2602.1999511719</ele>
        <time>2020-02-16T11:52:21.000Z</time>
      </trkpt>
      <trkpt lat="45.31702" lon="6.18293">
        <ele>2602.8000488281</ele>
        <time>2020-02-16T11:52:28.000Z</time>
      </trkpt>
      <trkpt lat="45.31702" lon="6.18293">
        <ele>2602.3999023438</ele>
        <time>2020-02-16T11:52:33.000Z</time>
      </trkpt>
      <trkpt lat="45.31702" lon="6.18296">
        <ele>2603.6000976562</ele>
        <time>2020-02-16T11:52:38.000Z</time>
      </trkpt>
      <trkpt lat="45.31703" lon="6.18297">
        <ele>2603.8000488281</ele>
        <time>2020-02-16T11:52:39.000Z</time>
      </trkpt>
      <trkpt lat="45.31706" lon="6.18298">
        <ele>2604</ele>
        <time>2020-02-16T11:52:44.000Z</time>
      </trkpt>
      <trkpt lat="45.31708" lon="6.18299">
        <ele>2604.6000976562</ele>
        <time>2020-02-16T11:52:48.000Z</time>
      </trkpt>
      <trkpt lat="45.31708" lon="6.18299">
        <ele>2604.8000488281</ele>
        <time>2020-02-16T11:52:49.000Z</time>
      </trkpt>
      <trkpt lat="45.31711" lon="6.18298">
        <ele>2605.8000488281</ele>
        <time>2020-02-16T11:52:54.000Z</time>
      </trkpt>
      <trkpt lat="45.31712" lon="6.18299">
        <ele>2606.8000488281</ele>
        <time>2020-02-16T11:52:58.000Z</time>
      </trkpt>
      <trkpt lat="45.31712" lon="6.18299">
        <ele>2607</ele>
        <time>2020-02-16T11:52:59.000Z</time>
      </trkpt>
      <trkpt lat="45.31715" lon="6.183">
        <ele>2607.3999023438</ele>
        <time>2020-02-16T11:53:04.000Z</time>
      </trkpt>
      <trkpt lat="45.31716" lon="6.183">
        <ele>2608</ele>
        <time>2020-02-16T11:53:06.000Z</time>
      </trkpt>
      <trkpt lat="45.31716" lon="6.18301">
        <ele>2608.8000488281</ele>
        <time>2020-02-16T11:53:09.000Z</time>
      </trkpt>
      <trkpt lat="45.31717" lon="6.18301">
        <ele>2609.1999511719</ele>
        <time>2020-02-16T11:53:10.000Z</time>
      </trkpt>
      <trkpt lat="45.31718" lon="6.18302">
        <ele>2609.6000976562</ele>
        <time>2020-02-16T11:53:14.000Z</time>
      </trkpt>
      <trkpt lat="45.31718" lon="6.18302">
        <ele>2610.1999511719</ele>
        <time>2020-02-16T11:53:17.000Z</time>
      </trkpt>
      <trkpt lat="45.31718" lon="6.18302">
        <ele>2610.3999023438</ele>
        <time>2020-02-16T11:53:26.000Z</time>
      </trkpt>
      <trkpt lat="45.3172" lon="6.18303">
        <ele>2611.1999511719</ele>
        <time>2020-02-16T11:53:32.000Z</time>
      </trkpt>
      <trkpt lat="45.31722" lon="6.18305">
        <ele>2612.1999511719</ele>
        <time>2020-02-16T11:53:37.000Z</time>
      </trkpt>
      <trkpt lat="45.31724" lon="6.18307">
        <ele>2613.3999023438</ele>
        <time>2020-02-16T11:53:44.000Z</time>
      </trkpt>
      <trkpt lat="45.31725" lon="6.18306">
        <ele>2613.6000976562</ele>
        <time>2020-02-16T11:53:46.000Z</time>
      </trkpt>
      <trkpt lat="45.31725" lon="6.18305">
        <ele>2613.8000488281</ele>
        <time>2020-02-16T11:53:54.000Z</time>
      </trkpt>
      <trkpt lat="45.31725" lon="6.18301">
        <ele>2614.6000976562</ele>
        <time>2020-02-16T11:53:57.000Z</time>
      </trkpt>
      <trkpt lat="45.31725" lon="6.18299">
        <ele>2614.8000488281</ele>
        <time>2020-02-16T11:53:59.000Z</time>
      </trkpt>
      <trkpt lat="45.31725" lon="6.18294">
        <ele>2615</ele>
        <time>2020-02-16T11:54:04.000Z</time>
      </trkpt>
      <trkpt lat="45.31725" lon="6.18289">
        <ele>2615.6000976562</ele>
        <time>2020-02-16T11:54:10.000Z</time>
      </trkpt>
      <trkpt lat="45.31725" lon="6.18283">
        <ele>2616.3999023438</ele>
        <time>2020-02-16T11:54:16.000Z</time>
      </trkpt>
      <trkpt lat="45.31725" lon="6.18282">
        <ele>2616.8000488281</ele>
        <time>2020-02-16T11:54:18.000Z</time>
      </trkpt>
      <trkpt lat="45.31723" lon="6.18278">
        <ele>2617.3999023438</ele>
        <time>2020-02-16T11:54:22.000Z</time>
      </trkpt>
      <trkpt lat="45.31723" lon="6.18275">
        <ele>2618</ele>
        <time>2020-02-16T11:54:24.000Z</time>
      </trkpt>
      <trkpt lat="45.31723" lon="6.18273">
        <ele>2619</ele>
        <time>2020-02-16T11:54:27.000Z</time>
      </trkpt>
      <trkpt lat="45.31723" lon="6.18273">
        <ele>2619.1999511719</ele>
        <time>2020-02-16T11:54:28.000Z</time>
      </trkpt>
      <trkpt lat="45.31725" lon="6.18271">
        <ele>2620</ele>
        <time>2020-02-16T11:54:32.000Z</time>
      </trkpt>
      <trkpt lat="45.31726" lon="6.18271">
        <ele>2620.3999023438</ele>
        <time>2020-02-16T11:54:33.000Z</time>
      </trkpt>
      <trkpt lat="45.31727" lon="6.18272">
        <ele>2621</ele>
        <time>2020-02-16T11:54:38.000Z</time>
      </trkpt>
      <trkpt lat="45.31726" lon="6.18272">
        <ele>2621.3999023438</ele>
        <time>2020-02-16T11:54:43.000Z</time>
      </trkpt>
      <trkpt lat="45.31726" lon="6.18274">
        <ele>2622.1999511719</ele>
        <time>2020-02-16T11:54:46.000Z</time>
      </trkpt>
      <trkpt lat="45.31727" lon="6.18276">
        <ele>2622.6000976562</ele>
        <time>2020-02-16T11:54:49.000Z</time>
      </trkpt>
      <trkpt lat="45.31728" lon="6.18277">
        <ele>2622.3999023438</ele>
        <time>2020-02-16T11:54:51.000Z</time>
      </trkpt>
      <trkpt lat="45.31731" lon="6.1828">
        <ele>2622.8000488281</ele>
        <time>2020-02-16T11:54:56.000Z</time>
      </trkpt>
      <trkpt lat="45.31732" lon="6.18281">
        <ele>2623.6000976562</ele>
        <time>2020-02-16T11:54:59.000Z</time>
      </trkpt>
      <trkpt lat="45.31733" lon="6.18284">
        <ele>2624.6000976562</ele>
        <time>2020-02-16T11:55:03.000Z</time>
      </trkpt>
      <trkpt lat="45.31734" lon="6.18285">
        <ele>2624.8000488281</ele>
        <time>2020-02-16T11:55:04.000Z</time>
      </trkpt>
      <trkpt lat="45.31736" lon="6.18285">
        <ele>2625.6000976562</ele>
        <time>2020-02-16T11:55:06.000Z</time>
      </trkpt>
      <trkpt lat="45.31738" lon="6.18286">
        <ele>2626.3999023438</ele>
        <time>2020-02-16T11:55:09.000Z</time>
      </trkpt>
      <trkpt lat="45.31738" lon="6.18286">
        <ele>2626.8000488281</ele>
        <time>2020-02-16T11:55:11.000Z</time>
      </trkpt>
      <trkpt lat="45.31742" lon="6.18288">
        <ele>2627.3999023438</ele>
        <time>2020-02-16T11:55:16.000Z</time>
      </trkpt>
      <trkpt lat="45.31743" lon="6.18289">
        <ele>2627.8000488281</ele>
        <time>2020-02-16T11:55:18.000Z</time>
      </trkpt>
      <trkpt lat="45.31743" lon="6.1829">
        <ele>2628.8000488281</ele>
        <time>2020-02-16T11:55:22.000Z</time>
      </trkpt>
      <trkpt lat="45.31743" lon="6.1829">
        <ele>2629</ele>
        <time>2020-02-16T11:55:23.000Z</time>
      </trkpt>
      <trkpt lat="45.31743" lon="6.1829">
        <ele>2629.6000976562</ele>
        <time>2020-02-16T11:55:29.000Z</time>
      </trkpt>
      <trkpt lat="45.31743" lon="6.1829">
        <ele>2630</ele>
        <time>2020-02-16T11:55:33.000Z</time>
      </trkpt>
      <trkpt lat="45.31742" lon="6.1829">
        <ele>2628.1999511719</ele>
        <time>2020-02-16T11:55:37.000Z</time>
      </trkpt>
      <trkpt lat="45.31742" lon="6.1829">
        <ele>2625.8000488281</ele>
        <time>2020-02-16T11:55:38.000Z</time>
      </trkpt>
      <trkpt lat="45.31742" lon="6.1829">
        <ele>2623.6000976562</ele>
        <time>2020-02-16T11:55:39.000Z</time>
      </trkpt>
      <trkpt lat="45.31742" lon="6.1829">
        <ele>2622.1999511719</ele>
        <time>2020-02-16T11:55:40.000Z</time>
      </trkpt>
      <trkpt lat="45.31742" lon="6.1829">
        <ele>2624.3999023438</ele>
        <time>2020-02-16T11:55:43.000Z</time>
      </trkpt>
      <trkpt lat="45.31742" lon="6.1829">
        <ele>2626.6000976562</ele>
        <time>2020-02-16T11:55:44.000Z</time>
      </trkpt>
      <trkpt lat="45.31742" lon="6.1829">
        <ele>2628.3999023438</ele>
        <time>2020-02-16T11:55:45.000Z</time>
      </trkpt>
      <trkpt lat="45.31742" lon="6.1829">
        <ele>2629.3999023438</ele>
        <time>2020-02-16T11:55:46.000Z</time>
      </trkpt>
      <trkpt lat="45.31742" lon="6.1829">
        <ele>2630.1999511719</ele>
        <time>2020-02-16T11:55:48.000Z</time>
      </trkpt>
      <trkpt lat="45.31742" lon="6.1829">
        <ele>2627</ele>
        <time>2020-02-16T11:55:51.000Z</time>
      </trkpt>
      <trkpt lat="45.31742" lon="6.1829">
        <ele>2625.6000976562</ele>
        <time>2020-02-16T11:55:53.000Z</time>
      </trkpt>
      <trkpt lat="45.31742" lon="6.1829">
        <ele>2628</ele>
        <time>2020-02-16T11:55:54.000Z</time>
      </trkpt>
      <trkpt lat="45.31742" lon="6.1829">
        <ele>2629.1999511719</ele>
        <time>2020-02-16T11:55:55.000Z</time>
      </trkpt>
      <trkpt lat="45.31742" lon="6.1829">
        <ele>2630.1999511719</ele>
        <time>2020-02-16T11:55:57.000Z</time>
      </trkpt>
      <trkpt lat="45.31742" lon="6.1829">
        <ele>2629.6000976562</ele>
        <time>2020-02-16T11:55:58.000Z</time>
      </trkpt>
      <trkpt lat="45.31742" lon="6.1829">
        <ele>2629</ele>
        <time>2020-02-16T11:55:59.000Z</time>
      </trkpt>
      <trkpt lat="45.31742" lon="6.1829">
        <ele>2628</ele>
        <time>2020-02-16T11:56:08.000Z</time>
      </trkpt>
      <trkpt lat="45.31742" lon="6.1829">
        <ele>2627.6000976562</ele>
        <time>2020-02-16T11:56:10.000Z</time>
      </trkpt>
      <trkpt lat="45.31743" lon="6.1829">
        <ele>2628.1999511719</ele>
        <time>2020-02-16T11:56:19.000Z</time>
      </trkpt>
      <trkpt lat="45.31743" lon="6.1829">
        <ele>2628.1999511719</ele>
        <time>2020-02-16T11:56:27.000Z</time>
      </trkpt>
      <trkpt lat="45.31743" lon="6.1829">
        <ele>2628</ele>
        <time>2020-02-16T11:56:38.000Z</time>
      </trkpt>
      <trkpt lat="45.31743" lon="6.1829">
        <ele>2628.1999511719</ele>
        <time>2020-02-16T11:56:50.000Z</time>
      </trkpt>
      <trkpt lat="45.31743" lon="6.1829">
        <ele>2629</ele>
        <time>2020-02-16T11:56:52.000Z</time>
      </trkpt>
      <trkpt lat="45.31742" lon="6.1829">
        <ele>2628.8000488281</ele>
        <time>2020-02-16T11:57:02.000Z</time>
      </trkpt>
      <trkpt lat="45.31742" lon="6.1829">
        <ele>2629</ele>
        <time>2020-02-16T11:57:10.000Z</time>
      </trkpt>
      <trkpt lat="45.31744" lon="6.18288">
        <ele>2628.3999023438</ele>
        <time>2020-02-16T11:57:20.000Z</time>
      </trkpt>
      <trkpt lat="45.31744" lon="6.18289">
        <ele>2629.1999511719</ele>
        <time>2020-02-16T11:57:26.000Z</time>
      </trkpt>
      <trkpt lat="45.31744" lon="6.18291">
        <ele>2630</ele>
        <time>2020-02-16T11:57:32.000Z</time>
      </trkpt>
      <trkpt lat="45.31744" lon="6.18291">
        <ele>2630</ele>
        <time>2020-02-16T11:57:33.000Z</time>
      </trkpt>
      <trkpt lat="45.31744" lon="6.18289">
        <ele>2630</ele>
        <time>2020-02-16T11:57:42.000Z</time>
      </trkpt>
      <trkpt lat="45.31743" lon="6.18286">
        <ele>2629.8000488281</ele>
        <time>2020-02-16T11:57:45.000Z</time>
      </trkpt>
      <trkpt lat="45.31743" lon="6.18284">
        <ele>2629.8000488281</ele>
        <time>2020-02-16T11:57:46.000Z</time>
      </trkpt>
      <trkpt lat="45.31743" lon="6.18281">
        <ele>2630.1999511719</ele>
        <time>2020-02-16T11:57:50.000Z</time>
      </trkpt>
      <trkpt lat="45.31743" lon="6.18281">
        <ele>2630.6000976562</ele>
        <time>2020-02-16T11:57:54.000Z</time>
      </trkpt>
      <trkpt lat="45.31744" lon="6.18283">
        <ele>2631.6000976562</ele>
        <time>2020-02-16T11:57:57.000Z</time>
      </trkpt>
      <trkpt lat="45.31744" lon="6.18284">
        <ele>2632.8000488281</ele>
        <time>2020-02-16T11:57:59.000Z</time>
      </trkpt>
      <trkpt lat="45.31744" lon="6.18284">
        <ele>2633</ele>
        <time>2020-02-16T11:58:00.000Z</time>
      </trkpt>
      <trkpt lat="45.31744" lon="6.18284">
        <ele>2632.3999023438</ele>
        <time>2020-02-16T11:58:12.000Z</time>
      </trkpt>
      <trkpt lat="45.31746" lon="6.18278">
        <ele>2632.8000488281</ele>
        <time>2020-02-16T11:58:17.000Z</time>
      </trkpt>
      <trkpt lat="45.31746" lon="6.18278">
        <ele>2633.6000976562</ele>
        <time>2020-02-16T11:58:18.000Z</time>
      </trkpt>
      <trkpt lat="45.31747" lon="6.18277">
        <ele>2633.8000488281</ele>
        <time>2020-02-16T11:58:19.000Z</time>
      </trkpt>
      <trkpt lat="45.31748" lon="6.18275">
        <ele>2634.8000488281</ele>
        <time>2020-02-16T11:58:23.000Z</time>
      </trkpt>
      <trkpt lat="45.31749" lon="6.18272">
        <ele>2636</ele>
        <time>2020-02-16T11:58:26.000Z</time>
      </trkpt>
      <trkpt lat="45.3175" lon="6.18271">
        <ele>2636.6000976562</ele>
        <time>2020-02-16T11:58:28.000Z</time>
      </trkpt>
      <trkpt lat="45.3175" lon="6.1827">
        <ele>2637</ele>
        <time>2020-02-16T11:58:30.000Z</time>
      </trkpt>
      <trkpt lat="45.3175" lon="6.1827">
        <ele>2637.3999023438</ele>
        <time>2020-02-16T11:58:33.000Z</time>
      </trkpt>
      <trkpt lat="45.31749" lon="6.18271">
        <ele>2638</ele>
        <time>2020-02-16T11:58:38.000Z</time>
      </trkpt>
      <trkpt lat="45.3175" lon="6.18273">
        <ele>2638.6000976562</ele>
        <time>2020-02-16T11:58:41.000Z</time>
      </trkpt>
      <trkpt lat="45.31752" lon="6.18277">
        <ele>2638.8000488281</ele>
        <time>2020-02-16T11:58:46.000Z</time>
      </trkpt>
      <trkpt lat="45.31753" lon="6.18279">
        <ele>2639.1999511719</ele>
        <time>2020-02-16T11:58:48.000Z</time>
      </trkpt>
      <trkpt lat="45.31753" lon="6.18279">
        <ele>2639.6000976562</ele>
        <time>2020-02-16T11:58:50.000Z</time>
      </trkpt>
      <trkpt lat="45.31756" lon="6.18281">
        <ele>2640.1999511719</ele>
        <time>2020-02-16T11:58:55.000Z</time>
      </trkpt>
      <trkpt lat="45.31756" lon="6.18281">
        <ele>2640.3999023438</ele>
        <time>2020-02-16T11:58:56.000Z</time>
      </trkpt>
      <trkpt lat="45.31758" lon="6.18282">
        <ele>2641.1999511719</ele>
        <time>2020-02-16T11:59:01.000Z</time>
      </trkpt>
      <trkpt lat="45.31758" lon="6.18282">
        <ele>2641.1999511719</ele>
        <time>2020-02-16T11:59:02.000Z</time>
      </trkpt>
      <trkpt lat="45.31758" lon="6.18282">
        <ele>2642.1999511719</ele>
        <time>2020-02-16T11:59:10.000Z</time>
      </trkpt>
      <trkpt lat="45.31758" lon="6.1828">
        <ele>2642.1999511719</ele>
        <time>2020-02-16T11:59:12.000Z</time>
      </trkpt>
      <trkpt lat="45.31758" lon="6.18279">
        <ele>2642.3999023438</ele>
        <time>2020-02-16T11:59:13.000Z</time>
      </trkpt>
      <trkpt lat="45.31758" lon="6.18277">
        <ele>2642.8000488281</ele>
        <time>2020-02-16T11:59:15.000Z</time>
      </trkpt>
      <trkpt lat="45.31759" lon="6.18272">
        <ele>2643.3999023438</ele>
        <time>2020-02-16T11:59:20.000Z</time>
      </trkpt>
      <trkpt lat="45.3176" lon="6.18271">
        <ele>2643.6000976562</ele>
        <time>2020-02-16T11:59:21.000Z</time>
      </trkpt>
      <trkpt lat="45.31761" lon="6.1827">
        <ele>2644.8000488281</ele>
        <time>2020-02-16T11:59:25.000Z</time>
      </trkpt>
      <trkpt lat="45.31761" lon="6.18269">
        <ele>2645.1999511719</ele>
        <time>2020-02-16T11:59:26.000Z</time>
      </trkpt>
      <trkpt lat="45.31761" lon="6.18269">
        <ele>2645.3999023438</ele>
        <time>2020-02-16T11:59:27.000Z</time>
      </trkpt>
      <trkpt lat="45.31762" lon="6.18268">
        <ele>2646</ele>
        <time>2020-02-16T11:59:30.000Z</time>
      </trkpt>
      <trkpt lat="45.31762" lon="6.18268">
        <ele>2646.1999511719</ele>
        <time>2020-02-16T11:59:32.000Z</time>
      </trkpt>
      <trkpt lat="45.31764" lon="6.18266">
        <ele>2646.6000976562</ele>
        <time>2020-02-16T11:59:36.000Z</time>
      </trkpt>
      <trkpt lat="45.31765" lon="6.18265">
        <ele>2647</ele>
        <time>2020-02-16T11:59:42.000Z</time>
      </trkpt>
      <trkpt lat="45.31765" lon="6.18265">
        <ele>2647.1999511719</ele>
        <time>2020-02-16T11:59:46.000Z</time>
      </trkpt>
      <trkpt lat="45.31765" lon="6.18265">
        <ele>2648.1999511719</ele>
        <time>2020-02-16T11:59:49.000Z</time>
      </trkpt>
      <trkpt lat="45.31764" lon="6.18272">
        <ele>2647.3999023438</ele>
        <time>2020-02-16T11:59:55.000Z</time>
      </trkpt>
      <trkpt lat="45.31764" lon="6.18276">
        <ele>2647.8000488281</ele>
        <time>2020-02-16T11:59:59.000Z</time>
      </trkpt>
      <trkpt lat="45.31764" lon="6.18277">
        <ele>2648</ele>
        <time>2020-02-16T12:00:00.000Z</time>
      </trkpt>
      <trkpt lat="45.31767" lon="6.18279">
        <ele>2648.8000488281</ele>
        <time>2020-02-16T12:00:05.000Z</time>
      </trkpt>
      <trkpt lat="45.31767" lon="6.1828">
        <ele>2649.3999023438</ele>
        <time>2020-02-16T12:00:08.000Z</time>
      </trkpt>
      <trkpt lat="45.31769" lon="6.18281">
        <ele>2650</ele>
        <time>2020-02-16T12:00:10.000Z</time>
      </trkpt>
      <trkpt lat="45.31769" lon="6.18281">
        <ele>2650.3999023438</ele>
        <time>2020-02-16T12:00:11.000Z</time>
      </trkpt>
      <trkpt lat="45.3177" lon="6.18284">
        <ele>2651.6000976562</ele>
        <time>2020-02-16T12:00:15.000Z</time>
      </trkpt>
      <trkpt lat="45.31771" lon="6.18286">
        <ele>2652</ele>
        <time>2020-02-16T12:00:17.000Z</time>
      </trkpt>
      <trkpt lat="45.31773" lon="6.18289">
        <ele>2652.6000976562</ele>
        <time>2020-02-16T12:00:22.000Z</time>
      </trkpt>
      <trkpt lat="45.31774" lon="6.1829">
        <ele>2653</ele>
        <time>2020-02-16T12:00:24.000Z</time>
      </trkpt>
      <trkpt lat="45.31774" lon="6.18291">
        <ele>2653.8000488281</ele>
        <time>2020-02-16T12:00:28.000Z</time>
      </trkpt>
      <trkpt lat="45.31774" lon="6.18291">
        <ele>2654.3999023438</ele>
        <time>2020-02-16T12:00:30.000Z</time>
      </trkpt>
      <trkpt lat="45.31774" lon="6.18291">
        <ele>2654.8000488281</ele>
        <time>2020-02-16T12:00:32.000Z</time>
      </trkpt>
      <trkpt lat="45.31774" lon="6.18291">
        <ele>2655</ele>
        <time>2020-02-16T12:00:38.000Z</time>
      </trkpt>
      <trkpt lat="45.31774" lon="6.1829">
        <ele>2655</ele>
        <time>2020-02-16T12:00:43.000Z</time>
      </trkpt>
      <trkpt lat="45.31774" lon="6.18288">
        <ele>2655.8000488281</ele>
        <time>2020-02-16T12:00:46.000Z</time>
      </trkpt>
      <trkpt lat="45.31775" lon="6.18287">
        <ele>2656.3999023438</ele>
        <time>2020-02-16T12:00:48.000Z</time>
      </trkpt>
      <trkpt lat="45.31775" lon="6.18286">
        <ele>2657</ele>
        <time>2020-02-16T12:00:50.000Z</time>
      </trkpt>
      <trkpt lat="45.31775" lon="6.18285">
        <ele>2657.1999511719</ele>
        <time>2020-02-16T12:00:53.000Z</time>
      </trkpt>
      <trkpt lat="45.31775" lon="6.18285">
        <ele>2658</ele>
        <time>2020-02-16T12:01:04.000Z</time>
      </trkpt>
      <trkpt lat="45.31775" lon="6.18285">
        <ele>2658.3999023438</ele>
        <time>2020-02-16T12:01:08.000Z</time>
      </trkpt>
      <trkpt lat="45.31775" lon="6.18286">
        <ele>2658.3999023438</ele>
        <time>2020-02-16T12:01:14.000Z</time>
      </trkpt>
      <trkpt lat="45.31777" lon="6.18289">
        <ele>2658.1999511719</ele>
        <time>2020-02-16T12:01:19.000Z</time>
      </trkpt>
      <trkpt lat="45.31779" lon="6.18293">
        <ele>2659</ele>
        <time>2020-02-16T12:01:25.000Z</time>
      </trkpt>
      <trkpt lat="45.3178" lon="6.18296">
        <ele>2659.6000976562</ele>
        <time>2020-02-16T12:01:30.000Z</time>
      </trkpt>
      <trkpt lat="45.3178" lon="6.18296">
        <ele>2660.1999511719</ele>
        <time>2020-02-16T12:01:31.000Z</time>
      </trkpt>
      <trkpt lat="45.3178" lon="6.18296">
        <ele>2661.1999511719</ele>
        <time>2020-02-16T12:01:35.000Z</time>
      </trkpt>
      <trkpt lat="45.3178" lon="6.18295">
        <ele>2661.1999511719</ele>
        <time>2020-02-16T12:01:40.000Z</time>
      </trkpt>
      <trkpt lat="45.31781" lon="6.18291">
        <ele>2661.1999511719</ele>
        <time>2020-02-16T12:01:45.000Z</time>
      </trkpt>
      <trkpt lat="45.31782" lon="6.18288">
        <ele>2662</ele>
        <time>2020-02-16T12:01:50.000Z</time>
      </trkpt>
      <trkpt lat="45.31782" lon="6.18287">
        <ele>2662.3999023438</ele>
        <time>2020-02-16T12:01:51.000Z</time>
      </trkpt>
      <trkpt lat="45.31782" lon="6.18285">
        <ele>2663</ele>
        <time>2020-02-16T12:01:55.000Z</time>
      </trkpt>
      <trkpt lat="45.31782" lon="6.18283">
        <ele>2663.3999023438</ele>
        <time>2020-02-16T12:01:59.000Z</time>
      </trkpt>
      <trkpt lat="45.31782" lon="6.18283">
        <ele>2663.3999023438</ele>
        <time>2020-02-16T12:02:03.000Z</time>
      </trkpt>
      <trkpt lat="45.31782" lon="6.18283">
        <ele>2664.3999023438</ele>
        <time>2020-02-16T12:02:08.000Z</time>
      </trkpt>
      <trkpt lat="45.31782" lon="6.18284">
        <ele>2664.6000976562</ele>
        <time>2020-02-16T12:02:09.000Z</time>
      </trkpt>
      <trkpt lat="45.31783" lon="6.18287">
        <ele>2664.8000488281</ele>
        <time>2020-02-16T12:02:14.000Z</time>
      </trkpt>
      <trkpt lat="45.31785" lon="6.18291">
        <ele>2665.8000488281</ele>
        <time>2020-02-16T12:02:19.000Z</time>
      </trkpt>
      <trkpt lat="45.31788" lon="6.18295">
        <ele>2666.6000976562</ele>
        <time>2020-02-16T12:02:24.000Z</time>
      </trkpt>
      <trkpt lat="45.31789" lon="6.18297">
        <ele>2666.8000488281</ele>
        <time>2020-02-16T12:02:28.000Z</time>
      </trkpt>
      <trkpt lat="45.31789" lon="6.18297">
        <ele>2667.3999023438</ele>
        <time>2020-02-16T12:02:31.000Z</time>
      </trkpt>
      <trkpt lat="45.31789" lon="6.18297">
        <ele>2667.8000488281</ele>
        <time>2020-02-16T12:02:45.000Z</time>
      </trkpt>
      <trkpt lat="45.31789" lon="6.18297">
        <ele>2667.8000488281</ele>
        <time>2020-02-16T12:02:54.000Z</time>
      </trkpt>
      <trkpt lat="45.31789" lon="6.18297">
        <ele>2668</ele>
        <time>2020-02-16T12:02:57.000Z</time>
      </trkpt>
      <trkpt lat="45.31789" lon="6.18297">
        <ele>2668.1999511719</ele>
        <time>2020-02-16T12:03:11.000Z</time>
      </trkpt>
      <trkpt lat="45.31789" lon="6.18297">
        <ele>2667.1999511719</ele>
        <time>2020-02-16T12:03:25.000Z</time>
      </trkpt>
      <trkpt lat="45.31789" lon="6.18297">
        <ele>2666.8000488281</ele>
        <time>2020-02-16T12:03:31.000Z</time>
      </trkpt>
      <trkpt lat="45.31789" lon="6.18297">
        <ele>2666.8000488281</ele>
        <time>2020-02-16T12:03:38.000Z</time>
      </trkpt>
      <trkpt lat="45.31789" lon="6.18297">
        <ele>2667</ele>
        <time>2020-02-16T12:03:52.000Z</time>
      </trkpt>
      <trkpt lat="45.31789" lon="6.18297">
        <ele>2667.8000488281</ele>
        <time>2020-02-16T12:04:00.000Z</time>
      </trkpt>
      <trkpt lat="45.31789" lon="6.18297">
        <ele>2667</ele>
        <time>2020-02-16T12:04:05.000Z</time>
      </trkpt>
      <trkpt lat="45.31789" lon="6.18297">
        <ele>2666.8000488281</ele>
        <time>2020-02-16T12:04:07.000Z</time>
      </trkpt>
      <trkpt lat="45.31789" lon="6.18297">
        <ele>2667.8000488281</ele>
        <time>2020-02-16T12:04:15.000Z</time>
      </trkpt>
      <trkpt lat="45.31789" lon="6.18297">
        <ele>2668</ele>
        <time>2020-02-16T12:04:20.000Z</time>
      </trkpt>
      <trkpt lat="45.31789" lon="6.18297">
        <ele>2668.8000488281</ele>
        <time>2020-02-16T12:04:32.000Z</time>
      </trkpt>
      <trkpt lat="45.31789" lon="6.18297">
        <ele>2668.8000488281</ele>
        <time>2020-02-16T12:04:49.000Z</time>
      </trkpt>
      <trkpt lat="45.31789" lon="6.18297">
        <ele>2668.6000976562</ele>
        <time>2020-02-16T12:05:05.000Z</time>
      </trkpt>
      <trkpt lat="45.31789" lon="6.18297">
        <ele>2668</ele>
        <time>2020-02-16T12:05:11.000Z</time>
      </trkpt>
      <trkpt lat="45.31789" lon="6.18297">
        <ele>2667.8000488281</ele>
        <time>2020-02-16T12:05:13.000Z</time>
      </trkpt>
      <trkpt lat="45.31789" lon="6.18297">
        <ele>2667.3999023438</ele>
        <time>2020-02-16T12:05:24.000Z</time>
      </trkpt>
      <trkpt lat="45.31789" lon="6.18297">
        <ele>2668.1999511719</ele>
        <time>2020-02-16T12:05:34.000Z</time>
      </trkpt>
      <trkpt lat="45.31789" lon="6.18296">
        <ele>2667.8000488281</ele>
        <time>2020-02-16T12:05:50.000Z</time>
      </trkpt>
      <trkpt lat="45.31789" lon="6.18296">
        <ele>2666.8000488281</ele>
        <time>2020-02-16T12:06:04.000Z</time>
      </trkpt>
      <trkpt lat="45.31789" lon="6.18296">
        <ele>2666.8000488281</ele>
        <time>2020-02-16T12:06:05.000Z</time>
      </trkpt>
      <trkpt lat="45.31789" lon="6.18296">
        <ele>2667.8000488281</ele>
        <time>2020-02-16T12:06:14.000Z</time>
      </trkpt>
      <trkpt lat="45.31789" lon="6.18296">
        <ele>2667.8000488281</ele>
        <time>2020-02-16T12:06:16.000Z</time>
      </trkpt>
      <trkpt lat="45.31789" lon="6.18296">
        <ele>2668.6000976562</ele>
        <time>2020-02-16T12:06:29.000Z</time>
      </trkpt>
      <trkpt lat="45.31789" lon="6.18296">
        <ele>2668.6000976562</ele>
        <time>2020-02-16T12:06:44.000Z</time>
      </trkpt>
      <trkpt lat="45.31789" lon="6.18296">
        <ele>2668.8000488281</ele>
        <time>2020-02-16T12:06:59.000Z</time>
      </trkpt>
      <trkpt lat="45.31789" lon="6.18296">
        <ele>2669.1999511719</ele>
        <time>2020-02-16T12:07:14.000Z</time>
      </trkpt>
      <trkpt lat="45.31789" lon="6.18296">
        <ele>2668.8000488281</ele>
        <time>2020-02-16T12:07:32.000Z</time>
      </trkpt>
      <trkpt lat="45.31789" lon="6.18296">
        <ele>2668.8000488281</ele>
        <time>2020-02-16T12:07:44.000Z</time>
      </trkpt>
      <trkpt lat="45.3179" lon="6.18296">
        <ele>2668.1999511719</ele>
        <time>2020-02-16T12:07:55.000Z</time>
      </trkpt>
      <trkpt lat="45.3179" lon="6.18296">
        <ele>2668.3999023438</ele>
        <time>2020-02-16T12:08:07.000Z</time>
      </trkpt>
      <trkpt lat="45.3179" lon="6.18296">
        <ele>2668.3999023438</ele>
        <time>2020-02-16T12:08:10.000Z</time>
      </trkpt>
      <trkpt lat="45.3179" lon="6.18296">
        <ele>2668.1999511719</ele>
        <time>2020-02-16T12:08:27.000Z</time>
      </trkpt>
      <trkpt lat="45.3179" lon="6.18296">
        <ele>2668.3999023438</ele>
        <time>2020-02-16T12:08:41.000Z</time>
      </trkpt>
      <trkpt lat="45.3179" lon="6.18296">
        <ele>2668.3999023438</ele>
        <time>2020-02-16T12:08:58.000Z</time>
      </trkpt>
      <trkpt lat="45.3179" lon="6.18296">
        <ele>2667.8000488281</ele>
        <time>2020-02-16T12:09:01.000Z</time>
      </trkpt>
      <trkpt lat="45.3179" lon="6.18296">
        <ele>2668.1999511719</ele>
        <time>2020-02-16T12:09:15.000Z</time>
      </trkpt>
      <trkpt lat="45.3179" lon="6.18296">
        <ele>2667.8000488281</ele>
        <time>2020-02-16T12:09:32.000Z</time>
      </trkpt>
      <trkpt lat="45.3179" lon="6.18296">
        <ele>2667.8000488281</ele>
        <time>2020-02-16T12:09:49.000Z</time>
      </trkpt>
      <trkpt lat="45.3179" lon="6.18296">
        <ele>2668.8000488281</ele>
        <time>2020-02-16T12:10:00.000Z</time>
      </trkpt>
      <trkpt lat="45.3179" lon="6.18296">
        <ele>2668.6000976562</ele>
        <time>2020-02-16T12:10:10.000Z</time>
      </trkpt>
      <trkpt lat="45.3179" lon="6.18296">
        <ele>2668.8000488281</ele>
        <time>2020-02-16T12:10:29.000Z</time>
      </trkpt>
      <trkpt lat="45.3179" lon="6.18296">
        <ele>2667.8000488281</ele>
        <time>2020-02-16T12:10:35.000Z</time>
      </trkpt>
      <trkpt lat="45.3179" lon="6.18296">
        <ele>2668.3999023438</ele>
        <time>2020-02-16T12:10:42.000Z</time>
      </trkpt>
      <trkpt lat="45.3179" lon="6.18296">
        <ele>2668.8000488281</ele>
        <time>2020-02-16T12:10:47.000Z</time>
      </trkpt>
      <trkpt lat="45.3179" lon="6.18296">
        <ele>2667.8000488281</ele>
        <time>2020-02-16T12:10:52.000Z</time>
      </trkpt>
      <trkpt lat="45.3179" lon="6.18296">
        <ele>2667.6000976562</ele>
        <time>2020-02-16T12:10:56.000Z</time>
      </trkpt>
      <trkpt lat="45.3179" lon="6.18296">
        <ele>2667</ele>
        <time>2020-02-16T12:11:13.000Z</time>
      </trkpt>
      <trkpt lat="45.3179" lon="6.18296">
        <ele>2668.1999511719</ele>
        <time>2020-02-16T12:11:28.000Z</time>
      </trkpt>
      <trkpt lat="45.3179" lon="6.18296">
        <ele>2668.8000488281</ele>
        <time>2020-02-16T12:11:33.000Z</time>
      </trkpt>
      <trkpt lat="45.3179" lon="6.18296">
        <ele>2669.8000488281</ele>
        <time>2020-02-16T12:11:35.000Z</time>
      </trkpt>
      <trkpt lat="45.3179" lon="6.18296">
        <ele>2669.6000976562</ele>
        <time>2020-02-16T12:11:40.000Z</time>
      </trkpt>
      <trkpt lat="45.3179" lon="6.18296">
        <ele>2668.8000488281</ele>
        <time>2020-02-16T12:11:44.000Z</time>
      </trkpt>
      <trkpt lat="45.3179" lon="6.18297">
        <ele>2668.6000976562</ele>
        <time>2020-02-16T12:11:49.000Z</time>
      </trkpt>
      <trkpt lat="45.3179" lon="6.18297">
        <ele>2668.6000976562</ele>
        <time>2020-02-16T12:11:52.000Z</time>
      </trkpt>
      <trkpt lat="45.3179" lon="6.18297">
        <ele>2667.8000488281</ele>
        <time>2020-02-16T12:12:08.000Z</time>
      </trkpt>
      <trkpt lat="45.3179" lon="6.18297">
        <ele>2667.8000488281</ele>
        <time>2020-02-16T12:12:10.000Z</time>
      </trkpt>
      <trkpt lat="45.3179" lon="6.18297">
        <ele>2667.8000488281</ele>
        <time>2020-02-16T12:12:18.000Z</time>
      </trkpt>
      <trkpt lat="45.3179" lon="6.18297">
        <ele>2667.8000488281</ele>
        <time>2020-02-16T12:12:33.000Z</time>
      </trkpt>
      <trkpt lat="45.3179" lon="6.18297">
        <ele>2668</ele>
        <time>2020-02-16T12:12:49.000Z</time>
      </trkpt>
      <trkpt lat="45.3179" lon="6.18297">
        <ele>2667.1999511719</ele>
        <time>2020-02-16T12:13:03.000Z</time>
      </trkpt>
      <trkpt lat="45.3179" lon="6.18297">
        <ele>2666.8000488281</ele>
        <time>2020-02-16T12:13:04.000Z</time>
      </trkpt>
      <trkpt lat="45.3179" lon="6.18297">
        <ele>2667.1999511719</ele>
        <time>2020-02-16T12:13:17.000Z</time>
      </trkpt>
      <trkpt lat="45.3179" lon="6.18297">
        <ele>2668</ele>
        <time>2020-02-16T12:13:25.000Z</time>
      </trkpt>
      <trkpt lat="45.3179" lon="6.18297">
        <ele>2667.6000976562</ele>
        <time>2020-02-16T12:13:35.000Z</time>
      </trkpt>
      <trkpt lat="45.3179" lon="6.18297">
        <ele>2666.8000488281</ele>
        <time>2020-02-16T12:13:41.000Z</time>
      </trkpt>
      <trkpt lat="45.3179" lon="6.18297">
        <ele>2668</ele>
        <time>2020-02-16T12:13:44.000Z</time>
      </trkpt>
      <trkpt lat="45.3179" lon="6.18297">
        <ele>2669.3999023438</ele>
        <time>2020-02-16T12:13:46.000Z</time>
      </trkpt>
      <trkpt lat="45.3179" lon="6.18297">
        <ele>2668.3999023438</ele>
        <time>2020-02-16T12:13:53.000Z</time>
      </trkpt>
      <trkpt lat="45.3179" lon="6.18297">
        <ele>2668</ele>
        <time>2020-02-16T12:13:59.000Z</time>
      </trkpt>
      <trkpt lat="45.3179" lon="6.18297">
        <ele>2668.1999511719</ele>
        <time>2020-02-16T12:14:09.000Z</time>
      </trkpt>
      <trkpt lat="45.3179" lon="6.18297">
        <ele>2668.3999023438</ele>
        <time>2020-02-16T12:14:24.000Z</time>
      </trkpt>
      <trkpt lat="45.31792" lon="6.18299">
        <ele>2668.1999511719</ele>
        <time>2020-02-16T12:14:29.000Z</time>
      </trkpt>
      <trkpt lat="45.31793" lon="6.18302">
        <ele>2668.1999511719</ele>
        <time>2020-02-16T12:14:33.000Z</time>
      </trkpt>
      <trkpt lat="45.31793" lon="6.18303">
        <ele>2668.8000488281</ele>
        <time>2020-02-16T12:14:38.000Z</time>
      </trkpt>
      <trkpt lat="45.31794" lon="6.18304">
        <ele>2669.3999023438</ele>
        <time>2020-02-16T12:14:42.000Z</time>
      </trkpt>
      <trkpt lat="45.31794" lon="6.18304">
        <ele>2669.6000976562</ele>
        <time>2020-02-16T12:14:43.000Z</time>
      </trkpt>
      <trkpt lat="45.31795" lon="6.18306">
        <ele>2670.6000976562</ele>
        <time>2020-02-16T12:14:48.000Z</time>
      </trkpt>
      <trkpt lat="45.31795" lon="6.18306">
        <ele>2670.6000976562</ele>
        <time>2020-02-16T12:14:49.000Z</time>
      </trkpt>
      <trkpt lat="45.31796" lon="6.18308">
        <ele>2671.6000976562</ele>
        <time>2020-02-16T12:14:54.000Z</time>
      </trkpt>
      <trkpt lat="45.31796" lon="6.18308">
        <ele>2671.8000488281</ele>
        <time>2020-02-16T12:14:56.000Z</time>
      </trkpt>
      <trkpt lat="45.31797" lon="6.18309">
        <ele>2672.6000976562</ele>
        <time>2020-02-16T12:15:01.000Z</time>
      </trkpt>
      <trkpt lat="45.31797" lon="6.18309">
        <ele>2673.6000976562</ele>
        <time>2020-02-16T12:15:09.000Z</time>
      </trkpt>
      <trkpt lat="45.31797" lon="6.18309">
        <ele>2673.6000976562</ele>
        <time>2020-02-16T12:15:13.000Z</time>
      </trkpt>
      <trkpt lat="45.31798" lon="6.1831">
        <ele>2673.8000488281</ele>
        <time>2020-02-16T12:15:19.000Z</time>
      </trkpt>
      <trkpt lat="45.31798" lon="6.18311">
        <ele>2674.6000976562</ele>
        <time>2020-02-16T12:15:23.000Z</time>
      </trkpt>
      <trkpt lat="45.31798" lon="6.18311">
        <ele>2675.3999023438</ele>
        <time>2020-02-16T12:15:27.000Z</time>
      </trkpt>
      <trkpt lat="45.31798" lon="6.18311">
        <ele>2675.6000976562</ele>
        <time>2020-02-16T12:15:29.000Z</time>
      </trkpt>
      <trkpt lat="45.31799" lon="6.18314">
        <ele>2676.6000976562</ele>
        <time>2020-02-16T12:15:35.000Z</time>
      </trkpt>
      <trkpt lat="45.31799" lon="6.18315">
        <ele>2676.8000488281</ele>
        <time>2020-02-16T12:15:37.000Z</time>
      </trkpt>
      <trkpt lat="45.318" lon="6.18317">
        <ele>2676.8000488281</ele>
        <time>2020-02-16T12:15:39.000Z</time>
      </trkpt>
      <trkpt lat="45.31801" lon="6.18318">
        <ele>2677</ele>
        <time>2020-02-16T12:15:44.000Z</time>
      </trkpt>
      <trkpt lat="45.31801" lon="6.18318">
        <ele>2678</ele>
        <time>2020-02-16T12:15:46.000Z</time>
      </trkpt>
      <trkpt lat="45.31801" lon="6.18319">
        <ele>2678.3999023438</ele>
        <time>2020-02-16T12:15:51.000Z</time>
      </trkpt>
      <trkpt lat="45.31801" lon="6.18321">
        <ele>2678.6000976562</ele>
        <time>2020-02-16T12:15:56.000Z</time>
      </trkpt>
      <trkpt lat="45.31801" lon="6.18321">
        <ele>2679</ele>
        <time>2020-02-16T12:16:00.000Z</time>
      </trkpt>
      <trkpt lat="45.31802" lon="6.18321">
        <ele>2680</ele>
        <time>2020-02-16T12:16:05.000Z</time>
      </trkpt>
      <trkpt lat="45.31802" lon="6.18321">
        <ele>2680.1999511719</ele>
        <time>2020-02-16T12:16:06.000Z</time>
      </trkpt>
      <trkpt lat="45.31802" lon="6.18325">
        <ele>2680</ele>
        <time>2020-02-16T12:16:11.000Z</time>
      </trkpt>
      <trkpt lat="45.31803" lon="6.18326">
        <ele>2680.3999023438</ele>
        <time>2020-02-16T12:16:18.000Z</time>
      </trkpt>
      <trkpt lat="45.31803" lon="6.18328">
        <ele>2680.1999511719</ele>
        <time>2020-02-16T12:16:27.000Z</time>
      </trkpt>
      <trkpt lat="45.31804" lon="6.18328">
        <ele>2680.1999511719</ele>
        <time>2020-02-16T12:16:38.000Z</time>
      </trkpt>
      <trkpt lat="45.31804" lon="6.18328">
        <ele>2680.1999511719</ele>
        <time>2020-02-16T12:16:47.000Z</time>
      </trkpt>
      <trkpt lat="45.31804" lon="6.18328">
        <ele>2681</ele>
        <time>2020-02-16T12:16:58.000Z</time>
      </trkpt>
      <trkpt lat="45.31804" lon="6.18328">
        <ele>2680.6000976562</ele>
        <time>2020-02-16T12:17:10.000Z</time>
      </trkpt>
      <trkpt lat="45.31804" lon="6.18328">
        <ele>2681.1999511719</ele>
        <time>2020-02-16T12:17:19.000Z</time>
      </trkpt>
      <trkpt lat="45.31804" lon="6.18328">
        <ele>2681.1999511719</ele>
        <time>2020-02-16T12:17:20.000Z</time>
      </trkpt>
      <trkpt lat="45.31804" lon="6.18328">
        <ele>2680.6000976562</ele>
        <time>2020-02-16T12:17:31.000Z</time>
      </trkpt>
      <trkpt lat="45.31804" lon="6.18328">
        <ele>2680.1999511719</ele>
        <time>2020-02-16T12:17:44.000Z</time>
      </trkpt>
      <trkpt lat="45.31804" lon="6.18328">
        <ele>2680.1999511719</ele>
        <time>2020-02-16T12:17:46.000Z</time>
      </trkpt>
      <trkpt lat="45.31804" lon="6.18328">
        <ele>2680.1999511719</ele>
        <time>2020-02-16T12:17:55.000Z</time>
      </trkpt>
      <trkpt lat="45.31804" lon="6.18329">
        <ele>2679.8000488281</ele>
        <time>2020-02-16T12:18:08.000Z</time>
      </trkpt>
      <trkpt lat="45.31804" lon="6.18329">
        <ele>2680.1999511719</ele>
        <time>2020-02-16T12:18:20.000Z</time>
      </trkpt>
      <trkpt lat="45.31804" lon="6.18329">
        <ele>2679</ele>
        <time>2020-02-16T12:18:31.000Z</time>
      </trkpt>
      <trkpt lat="45.31804" lon="6.18329">
        <ele>2679.8000488281</ele>
        <time>2020-02-16T12:18:34.000Z</time>
      </trkpt>
      <trkpt lat="45.31804" lon="6.18329">
        <ele>2680.3999023438</ele>
        <time>2020-02-16T12:18:35.000Z</time>
      </trkpt>
      <trkpt lat="45.31804" lon="6.18329">
        <ele>2681.6000976562</ele>
        <time>2020-02-16T12:18:37.000Z</time>
      </trkpt>
      <trkpt lat="45.31804" lon="6.18329">
        <ele>2680.6000976562</ele>
        <time>2020-02-16T12:18:47.000Z</time>
      </trkpt>
      <trkpt lat="45.31804" lon="6.18329">
        <ele>2681.1999511719</ele>
        <time>2020-02-16T12:18:59.000Z</time>
      </trkpt>
      <trkpt lat="45.31804" lon="6.18329">
        <ele>2682.6000976562</ele>
        <time>2020-02-16T12:19:12.000Z</time>
      </trkpt>
      <trkpt lat="45.31804" lon="6.18329">
        <ele>2682.8000488281</ele>
        <time>2020-02-16T12:19:15.000Z</time>
      </trkpt>
      <trkpt lat="45.31804" lon="6.18332">
        <ele>2681.8000488281</ele>
        <time>2020-02-16T12:19:28.000Z</time>
      </trkpt>
      <trkpt lat="45.31804" lon="6.18333">
        <ele>2681.6000976562</ele>
        <time>2020-02-16T12:19:29.000Z</time>
      </trkpt>
      <trkpt lat="45.31802" lon="6.18336">
        <ele>2679.6000976562</ele>
        <time>2020-02-16T12:19:33.000Z</time>
      </trkpt>
      <trkpt lat="45.31802" lon="6.18336">
        <ele>2679</ele>
        <time>2020-02-16T12:19:34.000Z</time>
      </trkpt>
      <trkpt lat="45.31802" lon="6.18337">
        <ele>2678.3999023438</ele>
        <time>2020-02-16T12:19:35.000Z</time>
      </trkpt>
      <trkpt lat="45.318" lon="6.18338">
        <ele>2677.1999511719</ele>
        <time>2020-02-16T12:19:37.000Z</time>
      </trkpt>
      <trkpt lat="45.31799" lon="6.18342">
        <ele>2676.1999511719</ele>
        <time>2020-02-16T12:19:39.000Z</time>
      </trkpt>
      <trkpt lat="45.31799" lon="6.18341">
        <ele>2675.8000488281</ele>
        <time>2020-02-16T12:19:40.000Z</time>
      </trkpt>
      <trkpt lat="45.31797" lon="6.18343">
        <ele>2675</ele>
        <time>2020-02-16T12:19:42.000Z</time>
      </trkpt>
      <trkpt lat="45.31797" lon="6.18343">
        <ele>2673.6000976562</ele>
        <time>2020-02-16T12:19:44.000Z</time>
      </trkpt>
      <trkpt lat="45.31796" lon="6.18344">
        <ele>2672.1999511719</ele>
        <time>2020-02-16T12:19:46.000Z</time>
      </trkpt>
      <trkpt lat="45.31795" lon="6.18346">
        <ele>2671</ele>
        <time>2020-02-16T12:19:48.000Z</time>
      </trkpt>
      <trkpt lat="45.31792" lon="6.18343">
        <ele>2670.6000976562</ele>
        <time>2020-02-16T12:19:49.000Z</time>
      </trkpt>
      <trkpt lat="45.31791" lon="6.18342">
        <ele>2670.1999511719</ele>
        <time>2020-02-16T12:19:50.000Z</time>
      </trkpt>
      <trkpt lat="45.31792" lon="6.18342">
        <ele>2669.1999511719</ele>
        <time>2020-02-16T12:19:51.000Z</time>
      </trkpt>
      <trkpt lat="45.31792" lon="6.18342">
        <ele>2668</ele>
        <time>2020-02-16T12:19:52.000Z</time>
      </trkpt>
      <trkpt lat="45.31792" lon="6.18343">
        <ele>2666.6000976562</ele>
        <time>2020-02-16T12:19:54.000Z</time>
      </trkpt>
      <trkpt lat="45.31791" lon="6.18345">
        <ele>2666.6000976562</ele>
        <time>2020-02-16T12:19:57.000Z</time>
      </trkpt>
      <trkpt lat="45.3179" lon="6.18353">
        <ele>2666.6000976562</ele>
        <time>2020-02-16T12:19:58.000Z</time>
      </trkpt>
      <trkpt lat="45.31787" lon="6.18361">
        <ele>2665.8000488281</ele>
        <time>2020-02-16T12:20:01.000Z</time>
      </trkpt>
      <trkpt lat="45.31785" lon="6.18359">
        <ele>2664.3999023438</ele>
        <time>2020-02-16T12:20:02.000Z</time>
      </trkpt>
      <trkpt lat="45.31784" lon="6.18355">
        <ele>2662.8000488281</ele>
        <time>2020-02-16T12:20:03.000Z</time>
      </trkpt>
      <trkpt lat="45.31781" lon="6.18355">
        <ele>2661</ele>
        <time>2020-02-16T12:20:04.000Z</time>
      </trkpt>
      <trkpt lat="45.31779" lon="6.18361">
        <ele>2659.1999511719</ele>
        <time>2020-02-16T12:20:05.000Z</time>
      </trkpt>
      <trkpt lat="45.31778" lon="6.18366">
        <ele>2658</ele>
        <time>2020-02-16T12:20:06.000Z</time>
      </trkpt>
      <trkpt lat="45.31778" lon="6.18367">
        <ele>2656.8000488281</ele>
        <time>2020-02-16T12:20:08.000Z</time>
      </trkpt>
      <trkpt lat="45.31778" lon="6.18367">
        <ele>2655.3999023438</ele>
        <time>2020-02-16T12:20:09.000Z</time>
      </trkpt>
      <trkpt lat="45.31777" lon="6.18367">
        <ele>2654</ele>
        <time>2020-02-16T12:20:10.000Z</time>
      </trkpt>
      <trkpt lat="45.31777" lon="6.18367">
        <ele>2652.8000488281</ele>
        <time>2020-02-16T12:20:11.000Z</time>
      </trkpt>
      <trkpt lat="45.31777" lon="6.18367">
        <ele>2651.6000976562</ele>
        <time>2020-02-16T12:20:13.000Z</time>
      </trkpt>
      <trkpt lat="45.31777" lon="6.18367">
        <ele>2651.1999511719</ele>
        <time>2020-02-16T12:20:21.000Z</time>
      </trkpt>
      <trkpt lat="45.31777" lon="6.18367">
        <ele>2651</ele>
        <time>2020-02-16T12:20:34.000Z</time>
      </trkpt>
      <trkpt lat="45.31775" lon="6.18378">
        <ele>2651</ele>
        <time>2020-02-16T12:20:43.000Z</time>
      </trkpt>
      <trkpt lat="45.3177" lon="6.18399">
        <ele>2650.1999511719</ele>
        <time>2020-02-16T12:20:46.000Z</time>
      </trkpt>
      <trkpt lat="45.31768" lon="6.18404">
        <ele>2649.6000976562</ele>
        <time>2020-02-16T12:20:47.000Z</time>
      </trkpt>
      <trkpt lat="45.31766" lon="6.18409">
        <ele>2649</ele>
        <time>2020-02-16T12:20:48.000Z</time>
      </trkpt>
      <trkpt lat="45.31763" lon="6.18416">
        <ele>2647.8000488281</ele>
        <time>2020-02-16T12:20:50.000Z</time>
      </trkpt>
      <trkpt lat="45.31761" lon="6.18418">
        <ele>2646.8000488281</ele>
        <time>2020-02-16T12:20:52.000Z</time>
      </trkpt>
      <trkpt lat="45.3176" lon="6.18406">
        <ele>2645.1999511719</ele>
        <time>2020-02-16T12:20:55.000Z</time>
      </trkpt>
      <trkpt lat="45.31758" lon="6.18407">
        <ele>2643.6000976562</ele>
        <time>2020-02-16T12:20:57.000Z</time>
      </trkpt>
      <trkpt lat="45.31755" lon="6.18412">
        <ele>2643</ele>
        <time>2020-02-16T12:20:58.000Z</time>
      </trkpt>
      <trkpt lat="45.31752" lon="6.18417">
        <ele>2642.6000976562</ele>
        <time>2020-02-16T12:20:59.000Z</time>
      </trkpt>
      <trkpt lat="45.31748" lon="6.18416">
        <ele>2642</ele>
        <time>2020-02-16T12:21:00.000Z</time>
      </trkpt>
      <trkpt lat="45.31746" lon="6.18415">
        <ele>2641</ele>
        <time>2020-02-16T12:21:01.000Z</time>
      </trkpt>
      <trkpt lat="45.31742" lon="6.18408">
        <ele>2639.3999023438</ele>
        <time>2020-02-16T12:21:02.000Z</time>
      </trkpt>
      <trkpt lat="45.31738" lon="6.18408">
        <ele>2637.6000976562</ele>
        <time>2020-02-16T12:21:03.000Z</time>
      </trkpt>
      <trkpt lat="45.31735" lon="6.18412">
        <ele>2636.1999511719</ele>
        <time>2020-02-16T12:21:04.000Z</time>
      </trkpt>
      <trkpt lat="45.31733" lon="6.18421">
        <ele>2634.1999511719</ele>
        <time>2020-02-16T12:21:06.000Z</time>
      </trkpt>
      <trkpt lat="45.31732" lon="6.18423">
        <ele>2632.8000488281</ele>
        <time>2020-02-16T12:21:07.000Z</time>
      </trkpt>
      <trkpt lat="45.31732" lon="6.18423">
        <ele>2630.8000488281</ele>
        <time>2020-02-16T12:21:08.000Z</time>
      </trkpt>
      <trkpt lat="45.31732" lon="6.18423">
        <ele>2627.6000976562</ele>
        <time>2020-02-16T12:21:09.000Z</time>
      </trkpt>
      <trkpt lat="45.3173" lon="6.18427">
        <ele>2626.1999511719</ele>
        <time>2020-02-16T12:21:11.000Z</time>
      </trkpt>
      <trkpt lat="45.31723" lon="6.18442">
        <ele>2625.3999023438</ele>
        <time>2020-02-16T12:21:14.000Z</time>
      </trkpt>
      <trkpt lat="45.3172" lon="6.18449">
        <ele>2625</ele>
        <time>2020-02-16T12:21:16.000Z</time>
      </trkpt>
      <trkpt lat="45.31718" lon="6.18454">
        <ele>2624.1999511719</ele>
        <time>2020-02-16T12:21:18.000Z</time>
      </trkpt>
      <trkpt lat="45.31715" lon="6.18462">
        <ele>2624</ele>
        <time>2020-02-16T12:21:20.000Z</time>
      </trkpt>
      <trkpt lat="45.31711" lon="6.18473">
        <ele>2623.6000976562</ele>
        <time>2020-02-16T12:21:22.000Z</time>
      </trkpt>
      <trkpt lat="45.31706" lon="6.18486">
        <ele>2622.8000488281</ele>
        <time>2020-02-16T12:21:25.000Z</time>
      </trkpt>
      <trkpt lat="45.31706" lon="6.18486">
        <ele>2622.3999023438</ele>
        <time>2020-02-16T12:21:26.000Z</time>
      </trkpt>
      <trkpt lat="45.31703" lon="6.18485">
        <ele>2621.1999511719</ele>
        <time>2020-02-16T12:21:28.000Z</time>
      </trkpt>
      <trkpt lat="45.31698" lon="6.18491">
        <ele>2620.1999511719</ele>
        <time>2020-02-16T12:21:29.000Z</time>
      </trkpt>
      <trkpt lat="45.31694" lon="6.18496">
        <ele>2619.1999511719</ele>
        <time>2020-02-16T12:21:30.000Z</time>
      </trkpt>
      <trkpt lat="45.31684" lon="6.185">
        <ele>2616.8000488281</ele>
        <time>2020-02-16T12:21:32.000Z</time>
      </trkpt>
      <trkpt lat="45.31679" lon="6.185">
        <ele>2614.6000976562</ele>
        <time>2020-02-16T12:21:33.000Z</time>
      </trkpt>
      <trkpt lat="45.31674" lon="6.18502">
        <ele>2610.1999511719</ele>
        <time>2020-02-16T12:21:34.000Z</time>
      </trkpt>
      <trkpt lat="45.31669" lon="6.18502">
        <ele>2608.8000488281</ele>
        <time>2020-02-16T12:21:35.000Z</time>
      </trkpt>
      <trkpt lat="45.31666" lon="6.18501">
        <ele>2606.8000488281</ele>
        <time>2020-02-16T12:21:36.000Z</time>
      </trkpt>
      <trkpt lat="45.31662" lon="6.18499">
        <ele>2604</ele>
        <time>2020-02-16T12:21:37.000Z</time>
      </trkpt>
      <trkpt lat="45.31658" lon="6.18498">
        <ele>2601.3999023438</ele>
        <time>2020-02-16T12:21:38.000Z</time>
      </trkpt>
      <trkpt lat="45.31654" lon="6.18498">
        <ele>2599.1999511719</ele>
        <time>2020-02-16T12:21:39.000Z</time>
      </trkpt>
      <trkpt lat="45.31649" lon="6.18498">
        <ele>2597.1999511719</ele>
        <time>2020-02-16T12:21:40.000Z</time>
      </trkpt>
      <trkpt lat="45.31643" lon="6.18497">
        <ele>2595</ele>
        <time>2020-02-16T12:21:41.000Z</time>
      </trkpt>
      <trkpt lat="45.31636" lon="6.18496">
        <ele>2592.6000976562</ele>
        <time>2020-02-16T12:21:42.000Z</time>
      </trkpt>
      <trkpt lat="45.31629" lon="6.18493">
        <ele>2590.6000976562</ele>
        <time>2020-02-16T12:21:43.000Z</time>
      </trkpt>
      <trkpt lat="45.31624" lon="6.18492">
        <ele>2589</ele>
        <time>2020-02-16T12:21:44.000Z</time>
      </trkpt>
      <trkpt lat="45.31622" lon="6.1849">
        <ele>2587.6000976562</ele>
        <time>2020-02-16T12:21:45.000Z</time>
      </trkpt>
      <trkpt lat="45.31619" lon="6.18486">
        <ele>2586.3999023438</ele>
        <time>2020-02-16T12:21:46.000Z</time>
      </trkpt>
      <trkpt lat="45.31613" lon="6.18486">
        <ele>2585</ele>
        <time>2020-02-16T12:21:47.000Z</time>
      </trkpt>
      <trkpt lat="45.31607" lon="6.18485">
        <ele>2584</ele>
        <time>2020-02-16T12:21:48.000Z</time>
      </trkpt>
      <trkpt lat="45.31598" lon="6.18483">
        <ele>2581.8000488281</ele>
        <time>2020-02-16T12:21:50.000Z</time>
      </trkpt>
      <trkpt lat="45.31594" lon="6.1848">
        <ele>2580</ele>
        <time>2020-02-16T12:21:51.000Z</time>
      </trkpt>
      <trkpt lat="45.3159" lon="6.18475">
        <ele>2577.8000488281</ele>
        <time>2020-02-16T12:21:52.000Z</time>
      </trkpt>
      <trkpt lat="45.31584" lon="6.18471">
        <ele>2575.8000488281</ele>
        <time>2020-02-16T12:21:53.000Z</time>
      </trkpt>
      <trkpt lat="45.3158" lon="6.1847">
        <ele>2574</ele>
        <time>2020-02-16T12:21:54.000Z</time>
      </trkpt>
      <trkpt lat="45.31581" lon="6.18466">
        <ele>2572.3999023438</ele>
        <time>2020-02-16T12:21:55.000Z</time>
      </trkpt>
      <trkpt lat="45.31581" lon="6.1846">
        <ele>2570.3999023438</ele>
        <time>2020-02-16T12:21:56.000Z</time>
      </trkpt>
      <trkpt lat="45.31581" lon="6.18454">
        <ele>2567.3999023438</ele>
        <time>2020-02-16T12:21:57.000Z</time>
      </trkpt>
      <trkpt lat="45.31581" lon="6.18449">
        <ele>2562.8000488281</ele>
        <time>2020-02-16T12:21:58.000Z</time>
      </trkpt>
      <trkpt lat="45.31578" lon="6.1844">
        <ele>2560.3999023438</ele>
        <time>2020-02-16T12:21:59.000Z</time>
      </trkpt>
      <trkpt lat="45.31575" lon="6.18433">
        <ele>2557.3999023438</ele>
        <time>2020-02-16T12:22:00.000Z</time>
      </trkpt>
      <trkpt lat="45.31572" lon="6.18426">
        <ele>2554.1999511719</ele>
        <time>2020-02-16T12:22:01.000Z</time>
      </trkpt>
      <trkpt lat="45.31571" lon="6.18419">
        <ele>2551.1999511719</ele>
        <time>2020-02-16T12:22:02.000Z</time>
      </trkpt>
      <trkpt lat="45.3157" lon="6.18415">
        <ele>2548.1999511719</ele>
        <time>2020-02-16T12:22:03.000Z</time>
      </trkpt>
      <trkpt lat="45.31568" lon="6.18413">
        <ele>2545.1999511719</ele>
        <time>2020-02-16T12:22:04.000Z</time>
      </trkpt>
      <trkpt lat="45.31567" lon="6.18411">
        <ele>2542.6000976562</ele>
        <time>2020-02-16T12:22:05.000Z</time>
      </trkpt>
      <trkpt lat="45.31565" lon="6.18409">
        <ele>2541</ele>
        <time>2020-02-16T12:22:06.000Z</time>
      </trkpt>
      <trkpt lat="45.31565" lon="6.18409">
        <ele>2540.1999511719</ele>
        <time>2020-02-16T12:22:07.000Z</time>
      </trkpt>
      <trkpt lat="45.31566" lon="6.18411">
        <ele>2539.6000976562</ele>
        <time>2020-02-16T12:22:08.000Z</time>
      </trkpt>
      <trkpt lat="45.31566" lon="6.18411">
        <ele>2538.3999023438</ele>
        <time>2020-02-16T12:22:12.000Z</time>
      </trkpt>
      <trkpt lat="45.31566" lon="6.18411">
        <ele>2538.3999023438</ele>
        <time>2020-02-16T12:22:13.000Z</time>
      </trkpt>
      <trkpt lat="45.31566" lon="6.18411">
        <ele>2539.6000976562</ele>
        <time>2020-02-16T12:22:19.000Z</time>
      </trkpt>
      <trkpt lat="45.31566" lon="6.18411">
        <ele>2539.3999023438</ele>
        <time>2020-02-16T12:22:28.000Z</time>
      </trkpt>
      <trkpt lat="45.31566" lon="6.18409">
        <ele>2539.1999511719</ele>
        <time>2020-02-16T12:22:29.000Z</time>
      </trkpt>
      <trkpt lat="45.31561" lon="6.18401">
        <ele>2538.6000976562</ele>
        <time>2020-02-16T12:22:31.000Z</time>
      </trkpt>
      <trkpt lat="45.31558" lon="6.18399">
        <ele>2538.3999023438</ele>
        <time>2020-02-16T12:22:32.000Z</time>
      </trkpt>
      <trkpt lat="45.31555" lon="6.18396">
        <ele>2537.1999511719</ele>
        <time>2020-02-16T12:22:34.000Z</time>
      </trkpt>
      <trkpt lat="45.31552" lon="6.18395">
        <ele>2536.1999511719</ele>
        <time>2020-02-16T12:22:35.000Z</time>
      </trkpt>
      <trkpt lat="45.31549" lon="6.18396">
        <ele>2534.8000488281</ele>
        <time>2020-02-16T12:22:37.000Z</time>
      </trkpt>
      <trkpt lat="45.31551" lon="6.18398">
        <ele>2533.6000976562</ele>
        <time>2020-02-16T12:22:41.000Z</time>
      </trkpt>
      <trkpt lat="45.3155" lon="6.18393">
        <ele>2534</ele>
        <time>2020-02-16T12:22:49.000Z</time>
      </trkpt>
      <trkpt lat="45.31558" lon="6.1838">
        <ele>2532.8000488281</ele>
        <time>2020-02-16T12:22:53.000Z</time>
      </trkpt>
      <trkpt lat="45.31562" lon="6.1838">
        <ele>2532.6000976562</ele>
        <time>2020-02-16T12:22:54.000Z</time>
      </trkpt>
      <trkpt lat="45.31566" lon="6.18372">
        <ele>2531.8000488281</ele>
        <time>2020-02-16T12:22:56.000Z</time>
      </trkpt>
      <trkpt lat="45.31566" lon="6.18366">
        <ele>2531</ele>
        <time>2020-02-16T12:22:57.000Z</time>
      </trkpt>
      <trkpt lat="45.31565" lon="6.18353">
        <ele>2528.8000488281</ele>
        <time>2020-02-16T12:22:59.000Z</time>
      </trkpt>
      <trkpt lat="45.31559" lon="6.1835">
        <ele>2527.3999023438</ele>
        <time>2020-02-16T12:23:00.000Z</time>
      </trkpt>
      <trkpt lat="45.31555" lon="6.18346">
        <ele>2526</ele>
        <time>2020-02-16T12:23:01.000Z</time>
      </trkpt>
      <trkpt lat="45.31552" lon="6.18339">
        <ele>2524.6000976562</ele>
        <time>2020-02-16T12:23:02.000Z</time>
      </trkpt>
      <trkpt lat="45.3155" lon="6.18331">
        <ele>2522.6000976562</ele>
        <time>2020-02-16T12:23:03.000Z</time>
      </trkpt>
      <trkpt lat="45.31551" lon="6.18321">
        <ele>2520</ele>
        <time>2020-02-16T12:23:04.000Z</time>
      </trkpt>
      <trkpt lat="45.31553" lon="6.18312">
        <ele>2517.6000976562</ele>
        <time>2020-02-16T12:23:05.000Z</time>
      </trkpt>
      <trkpt lat="45.31555" lon="6.18307">
        <ele>2515.8000488281</ele>
        <time>2020-02-16T12:23:06.000Z</time>
      </trkpt>
      <trkpt lat="45.31556" lon="6.18303">
        <ele>2514.3999023438</ele>
        <time>2020-02-16T12:23:07.000Z</time>
      </trkpt>
      <trkpt lat="45.31557" lon="6.18298">
        <ele>2513.1999511719</ele>
        <time>2020-02-16T12:23:08.000Z</time>
      </trkpt>
      <trkpt lat="45.31559" lon="6.18288">
        <ele>2511.6000976562</ele>
        <time>2020-02-16T12:23:09.000Z</time>
      </trkpt>
      <trkpt lat="45.31559" lon="6.18279">
        <ele>2508</ele>
        <time>2020-02-16T12:23:10.000Z</time>
      </trkpt>
      <trkpt lat="45.31559" lon="6.18272">
        <ele>2506</ele>
        <time>2020-02-16T12:23:11.000Z</time>
      </trkpt>
      <trkpt lat="45.31558" lon="6.18264">
        <ele>2504.3999023438</ele>
        <time>2020-02-16T12:23:12.000Z</time>
      </trkpt>
      <trkpt lat="45.31557" lon="6.18252">
        <ele>2502.6000976562</ele>
        <time>2020-02-16T12:23:13.000Z</time>
      </trkpt>
      <trkpt lat="45.31557" lon="6.18243">
        <ele>2500</ele>
        <time>2020-02-16T12:23:14.000Z</time>
      </trkpt>
      <trkpt lat="45.31555" lon="6.18234">
        <ele>2497.1999511719</ele>
        <time>2020-02-16T12:23:15.000Z</time>
      </trkpt>
      <trkpt lat="45.31551" lon="6.18225">
        <ele>2494.8000488281</ele>
        <time>2020-02-16T12:23:16.000Z</time>
      </trkpt>
      <trkpt lat="45.31549" lon="6.18216">
        <ele>2492.1999511719</ele>
        <time>2020-02-16T12:23:17.000Z</time>
      </trkpt>
      <trkpt lat="45.31547" lon="6.18211">
        <ele>2489.6000976562</ele>
        <time>2020-02-16T12:23:18.000Z</time>
      </trkpt>
      <trkpt lat="45.31543" lon="6.18209">
        <ele>2486.8000488281</ele>
        <time>2020-02-16T12:23:19.000Z</time>
      </trkpt>
      <trkpt lat="45.31538" lon="6.18204">
        <ele>2484.6000976562</ele>
        <time>2020-02-16T12:23:20.000Z</time>
      </trkpt>
      <trkpt lat="45.31534" lon="6.18202">
        <ele>2482.1999511719</ele>
        <time>2020-02-16T12:23:21.000Z</time>
      </trkpt>
      <trkpt lat="45.31529" lon="6.182">
        <ele>2479.6000976562</ele>
        <time>2020-02-16T12:23:22.000Z</time>
      </trkpt>
      <trkpt lat="45.31525" lon="6.18198">
        <ele>2477.1999511719</ele>
        <time>2020-02-16T12:23:23.000Z</time>
      </trkpt>
      <trkpt lat="45.31517" lon="6.18195">
        <ele>2475</ele>
        <time>2020-02-16T12:23:24.000Z</time>
      </trkpt>
      <trkpt lat="45.31512" lon="6.18195">
        <ele>2472.6000976562</ele>
        <time>2020-02-16T12:23:25.000Z</time>
      </trkpt>
      <trkpt lat="45.31505" lon="6.18192">
        <ele>2470.3999023438</ele>
        <time>2020-02-16T12:23:26.000Z</time>
      </trkpt>
      <trkpt lat="45.31497" lon="6.18188">
        <ele>2468.3999023438</ele>
        <time>2020-02-16T12:23:27.000Z</time>
      </trkpt>
      <trkpt lat="45.31491" lon="6.1819">
        <ele>2466.1999511719</ele>
        <time>2020-02-16T12:23:28.000Z</time>
      </trkpt>
      <trkpt lat="45.31485" lon="6.18186">
        <ele>2463.6000976562</ele>
        <time>2020-02-16T12:23:29.000Z</time>
      </trkpt>
      <trkpt lat="45.31478" lon="6.18183">
        <ele>2460.8000488281</ele>
        <time>2020-02-16T12:23:30.000Z</time>
      </trkpt>
      <trkpt lat="45.31473" lon="6.18186">
        <ele>2458.1999511719</ele>
        <time>2020-02-16T12:23:31.000Z</time>
      </trkpt>
      <trkpt lat="45.31467" lon="6.18182">
        <ele>2455.6000976562</ele>
        <time>2020-02-16T12:23:32.000Z</time>
      </trkpt>
      <trkpt lat="45.31463" lon="6.18182">
        <ele>2453.1999511719</ele>
        <time>2020-02-16T12:23:33.000Z</time>
      </trkpt>
      <trkpt lat="45.31458" lon="6.18184">
        <ele>2448.6000976562</ele>
        <time>2020-02-16T12:23:34.000Z</time>
      </trkpt>
      <trkpt lat="45.31449" lon="6.18185">
        <ele>2446.6000976562</ele>
        <time>2020-02-16T12:23:35.000Z</time>
      </trkpt>
      <trkpt lat="45.31441" lon="6.18184">
        <ele>2445</ele>
        <time>2020-02-16T12:23:36.000Z</time>
      </trkpt>
      <trkpt lat="45.31434" lon="6.18183">
        <ele>2443.6000976562</ele>
        <time>2020-02-16T12:23:37.000Z</time>
      </trkpt>
      <trkpt lat="45.31424" lon="6.18177">
        <ele>2442</ele>
        <time>2020-02-16T12:23:38.000Z</time>
      </trkpt>
      <trkpt lat="45.31416" lon="6.18176">
        <ele>2440.1999511719</ele>
        <time>2020-02-16T12:23:39.000Z</time>
      </trkpt>
      <trkpt lat="45.3141" lon="6.18176">
        <ele>2438.1999511719</ele>
        <time>2020-02-16T12:23:40.000Z</time>
      </trkpt>
      <trkpt lat="45.31404" lon="6.18177">
        <ele>2436</ele>
        <time>2020-02-16T12:23:41.000Z</time>
      </trkpt>
      <trkpt lat="45.31402" lon="6.18179">
        <ele>2433.8000488281</ele>
        <time>2020-02-16T12:23:42.000Z</time>
      </trkpt>
      <trkpt lat="45.31401" lon="6.1818">
        <ele>2432</ele>
        <time>2020-02-16T12:23:43.000Z</time>
      </trkpt>
      <trkpt lat="45.314" lon="6.18181">
        <ele>2430.8000488281</ele>
        <time>2020-02-16T12:23:44.000Z</time>
      </trkpt>
      <trkpt lat="45.31399" lon="6.18181">
        <ele>2429.8000488281</ele>
        <time>2020-02-16T12:23:46.000Z</time>
      </trkpt>
      <trkpt lat="45.31399" lon="6.18181">
        <ele>2429.6000976562</ele>
        <time>2020-02-16T12:23:47.000Z</time>
      </trkpt>
      <trkpt lat="45.31399" lon="6.18181">
        <ele>2429.6000976562</ele>
        <time>2020-02-16T12:24:00.000Z</time>
      </trkpt>
      <trkpt lat="45.31399" lon="6.18181">
        <ele>2429.3999023438</ele>
        <time>2020-02-16T12:24:15.000Z</time>
      </trkpt>
      <trkpt lat="45.31399" lon="6.18182">
        <ele>2429.1999511719</ele>
        <time>2020-02-16T12:24:32.000Z</time>
      </trkpt>
      <trkpt lat="45.31399" lon="6.18182">
        <ele>2429.1999511719</ele>
        <time>2020-02-16T12:24:44.000Z</time>
      </trkpt>
      <trkpt lat="45.31399" lon="6.18182">
        <ele>2429.1999511719</ele>
        <time>2020-02-16T12:24:56.000Z</time>
      </trkpt>
      <trkpt lat="45.31401" lon="6.18184">
        <ele>2428.8000488281</ele>
        <time>2020-02-16T12:25:10.000Z</time>
      </trkpt>
      <trkpt lat="45.31401" lon="6.18184">
        <ele>2429</ele>
        <time>2020-02-16T12:25:26.000Z</time>
      </trkpt>
      <trkpt lat="45.31401" lon="6.18184">
        <ele>2429</ele>
        <time>2020-02-16T12:25:34.000Z</time>
      </trkpt>
      <trkpt lat="45.31401" lon="6.18184">
        <ele>2429</ele>
        <time>2020-02-16T12:25:43.000Z</time>
      </trkpt>
      <trkpt lat="45.31396" lon="6.18187">
        <ele>2429</ele>
        <time>2020-02-16T12:25:50.000Z</time>
      </trkpt>
      <trkpt lat="45.3139" lon="6.18187">
        <ele>2428.8000488281</ele>
        <time>2020-02-16T12:25:52.000Z</time>
      </trkpt>
      <trkpt lat="45.3139" lon="6.18181">
        <ele>2428.6000976562</ele>
        <time>2020-02-16T12:25:53.000Z</time>
      </trkpt>
      <trkpt lat="45.31391" lon="6.18175">
        <ele>2428.1999511719</ele>
        <time>2020-02-16T12:25:54.000Z</time>
      </trkpt>
      <trkpt lat="45.3139" lon="6.1817">
        <ele>2427.6000976562</ele>
        <time>2020-02-16T12:25:55.000Z</time>
      </trkpt>
      <trkpt lat="45.31385" lon="6.18172">
        <ele>2425.8000488281</ele>
        <time>2020-02-16T12:25:57.000Z</time>
      </trkpt>
      <trkpt lat="45.31381" lon="6.18173">
        <ele>2424.1999511719</ele>
        <time>2020-02-16T12:25:58.000Z</time>
      </trkpt>
      <trkpt lat="45.31378" lon="6.18171">
        <ele>2422.6000976562</ele>
        <time>2020-02-16T12:25:59.000Z</time>
      </trkpt>
      <trkpt lat="45.31372" lon="6.18171">
        <ele>2420.3999023438</ele>
        <time>2020-02-16T12:26:00.000Z</time>
      </trkpt>
      <trkpt lat="45.31366" lon="6.18171">
        <ele>2418.6000976562</ele>
        <time>2020-02-16T12:26:01.000Z</time>
      </trkpt>
      <trkpt lat="45.31361" lon="6.18169">
        <ele>2416.6000976562</ele>
        <time>2020-02-16T12:26:02.000Z</time>
      </trkpt>
      <trkpt lat="45.31358" lon="6.18165">
        <ele>2414.1999511719</ele>
        <time>2020-02-16T12:26:03.000Z</time>
      </trkpt>
      <trkpt lat="45.31352" lon="6.18162">
        <ele>2411.1999511719</ele>
        <time>2020-02-16T12:26:04.000Z</time>
      </trkpt>
      <trkpt lat="45.31345" lon="6.18159">
        <ele>2408.1999511719</ele>
        <time>2020-02-16T12:26:05.000Z</time>
      </trkpt>
      <trkpt lat="45.31339" lon="6.18154">
        <ele>2405.3999023438</ele>
        <time>2020-02-16T12:26:06.000Z</time>
      </trkpt>
      <trkpt lat="45.31335" lon="6.18138">
        <ele>2402.6000976562</ele>
        <time>2020-02-16T12:26:07.000Z</time>
      </trkpt>
      <trkpt lat="45.31331" lon="6.1813">
        <ele>2399.3999023438</ele>
        <time>2020-02-16T12:26:08.000Z</time>
      </trkpt>
      <trkpt lat="45.31325" lon="6.18121">
        <ele>2395.6000976562</ele>
        <time>2020-02-16T12:26:09.000Z</time>
      </trkpt>
      <trkpt lat="45.31318" lon="6.18111">
        <ele>2392.1999511719</ele>
        <time>2020-02-16T12:26:10.000Z</time>
      </trkpt>
      <trkpt lat="45.31311" lon="6.18102">
        <ele>2389</ele>
        <time>2020-02-16T12:26:11.000Z</time>
      </trkpt>
      <trkpt lat="45.31302" lon="6.181">
        <ele>2385.8000488281</ele>
        <time>2020-02-16T12:26:12.000Z</time>
      </trkpt>
      <trkpt lat="45.31296" lon="6.181">
        <ele>2383</ele>
        <time>2020-02-16T12:26:13.000Z</time>
      </trkpt>
      <trkpt lat="45.31292" lon="6.18104">
        <ele>2380.8000488281</ele>
        <time>2020-02-16T12:26:14.000Z</time>
      </trkpt>
      <trkpt lat="45.31289" lon="6.18107">
        <ele>2378.8000488281</ele>
        <time>2020-02-16T12:26:15.000Z</time>
      </trkpt>
      <trkpt lat="45.31288" lon="6.18112">
        <ele>2377</ele>
        <time>2020-02-16T12:26:16.000Z</time>
      </trkpt>
      <trkpt lat="45.31286" lon="6.18115">
        <ele>2375.1999511719</ele>
        <time>2020-02-16T12:26:17.000Z</time>
      </trkpt>
      <trkpt lat="45.31284" lon="6.18117">
        <ele>2373.8000488281</ele>
        <time>2020-02-16T12:26:18.000Z</time>
      </trkpt>
      <trkpt lat="45.31283" lon="6.18118">
        <ele>2372.8000488281</ele>
        <time>2020-02-16T12:26:19.000Z</time>
      </trkpt>
      <trkpt lat="45.31282" lon="6.18119">
        <ele>2372.1999511719</ele>
        <time>2020-02-16T12:26:20.000Z</time>
      </trkpt>
      <trkpt lat="45.31282" lon="6.1812">
        <ele>2371.6000976562</ele>
        <time>2020-02-16T12:26:25.000Z</time>
      </trkpt>
      <trkpt lat="45.31282" lon="6.1812">
        <ele>2371.8000488281</ele>
        <time>2020-02-16T12:26:34.000Z</time>
      </trkpt>
      <trkpt lat="45.31274" lon="6.18111">
        <ele>2371.8000488281</ele>
        <time>2020-02-16T12:26:41.000Z</time>
      </trkpt>
      <trkpt lat="45.3127" lon="6.18092">
        <ele>2371.1999511719</ele>
        <time>2020-02-16T12:26:43.000Z</time>
      </trkpt>
      <trkpt lat="45.3127" lon="6.18087">
        <ele>2370.3999023438</ele>
        <time>2020-02-16T12:26:44.000Z</time>
      </trkpt>
      <trkpt lat="45.31269" lon="6.18084">
        <ele>2369.3999023438</ele>
        <time>2020-02-16T12:26:45.000Z</time>
      </trkpt>
      <trkpt lat="45.31269" lon="6.18083">
        <ele>2367.8000488281</ele>
        <time>2020-02-16T12:26:46.000Z</time>
      </trkpt>
      <trkpt lat="45.31269" lon="6.18082">
        <ele>2367.3999023438</ele>
        <time>2020-02-16T12:26:47.000Z</time>
      </trkpt>
      <trkpt lat="45.31269" lon="6.18081">
        <ele>2366.8000488281</ele>
        <time>2020-02-16T12:26:51.000Z</time>
      </trkpt>
      <trkpt lat="45.31267" lon="6.18073">
        <ele>2366.8000488281</ele>
        <time>2020-02-16T12:26:54.000Z</time>
      </trkpt>
      <trkpt lat="45.31265" lon="6.18067">
        <ele>2366.8000488281</ele>
        <time>2020-02-16T12:26:55.000Z</time>
      </trkpt>
      <trkpt lat="45.31262" lon="6.18065">
        <ele>2366.8000488281</ele>
        <time>2020-02-16T12:26:56.000Z</time>
      </trkpt>
      <trkpt lat="45.31258" lon="6.18072">
        <ele>2366.6000976562</ele>
        <time>2020-02-16T12:26:57.000Z</time>
      </trkpt>
      <trkpt lat="45.31245" lon="6.18063">
        <ele>2364.8000488281</ele>
        <time>2020-02-16T12:27:00.000Z</time>
      </trkpt>
      <trkpt lat="45.31243" lon="6.18069">
        <ele>2363.3999023438</ele>
        <time>2020-02-16T12:27:01.000Z</time>
      </trkpt>
      <trkpt lat="45.31241" lon="6.18072">
        <ele>2361.6000976562</ele>
        <time>2020-02-16T12:27:02.000Z</time>
      </trkpt>
      <trkpt lat="45.3124" lon="6.18075">
        <ele>2360.3999023438</ele>
        <time>2020-02-16T12:27:03.000Z</time>
      </trkpt>
      <trkpt lat="45.31238" lon="6.18077">
        <ele>2359.1999511719</ele>
        <time>2020-02-16T12:27:04.000Z</time>
      </trkpt>
      <trkpt lat="45.31237" lon="6.18077">
        <ele>2358</ele>
        <time>2020-02-16T12:27:05.000Z</time>
      </trkpt>
      <trkpt lat="45.31236" lon="6.18078">
        <ele>2356.6000976562</ele>
        <time>2020-02-16T12:27:06.000Z</time>
      </trkpt>
      <trkpt lat="45.31235" lon="6.18079">
        <ele>2355.3999023438</ele>
        <time>2020-02-16T12:27:07.000Z</time>
      </trkpt>
      <trkpt lat="45.31237" lon="6.18078">
        <ele>2354.1999511719</ele>
        <time>2020-02-16T12:27:09.000Z</time>
      </trkpt>
      <trkpt lat="45.31237" lon="6.18078">
        <ele>2353.6000976562</ele>
        <time>2020-02-16T12:27:13.000Z</time>
      </trkpt>
      <trkpt lat="45.31238" lon="6.18075">
        <ele>2353.3999023438</ele>
        <time>2020-02-16T12:27:15.000Z</time>
      </trkpt>
      <trkpt lat="45.31239" lon="6.18067">
        <ele>2353</ele>
        <time>2020-02-16T12:27:17.000Z</time>
      </trkpt>
      <trkpt lat="45.31241" lon="6.1806">
        <ele>2352.3999023438</ele>
        <time>2020-02-16T12:27:21.000Z</time>
      </trkpt>
      <trkpt lat="45.31242" lon="6.18061">
        <ele>2352</ele>
        <time>2020-02-16T12:27:22.000Z</time>
      </trkpt>
      <trkpt lat="45.31242" lon="6.18061">
        <ele>2351</ele>
        <time>2020-02-16T12:27:25.000Z</time>
      </trkpt>
      <trkpt lat="45.31239" lon="6.18061">
        <ele>2350.8000488281</ele>
        <time>2020-02-16T12:27:26.000Z</time>
      </trkpt>
      <trkpt lat="45.31239" lon="6.18065">
        <ele>2350.6000976562</ele>
        <time>2020-02-16T12:27:27.000Z</time>
      </trkpt>
      <trkpt lat="45.3123" lon="6.18062">
        <ele>2350.1999511719</ele>
        <time>2020-02-16T12:27:30.000Z</time>
      </trkpt>
      <trkpt lat="45.3123" lon="6.18062">
        <ele>2349.3999023438</ele>
        <time>2020-02-16T12:27:31.000Z</time>
      </trkpt>
      <trkpt lat="45.31228" lon="6.18067">
        <ele>2348</ele>
        <time>2020-02-16T12:27:32.000Z</time>
      </trkpt>
      <trkpt lat="45.31224" lon="6.18068">
        <ele>2346.3999023438</ele>
        <time>2020-02-16T12:27:33.000Z</time>
      </trkpt>
      <trkpt lat="45.31222" lon="6.18063">
        <ele>2343.3999023438</ele>
        <time>2020-02-16T12:27:34.000Z</time>
      </trkpt>
      <trkpt lat="45.31217" lon="6.18061">
        <ele>2340.8000488281</ele>
        <time>2020-02-16T12:27:35.000Z</time>
      </trkpt>
      <trkpt lat="45.31212" lon="6.18061">
        <ele>2338</ele>
        <time>2020-02-16T12:27:36.000Z</time>
      </trkpt>
      <trkpt lat="45.31207" lon="6.18063">
        <ele>2335.8000488281</ele>
        <time>2020-02-16T12:27:37.000Z</time>
      </trkpt>
      <trkpt lat="45.31203" lon="6.18063">
        <ele>2334</ele>
        <time>2020-02-16T12:27:38.000Z</time>
      </trkpt>
      <trkpt lat="45.31199" lon="6.18062">
        <ele>2331.8000488281</ele>
        <time>2020-02-16T12:27:39.000Z</time>
      </trkpt>
      <trkpt lat="45.31197" lon="6.18057">
        <ele>2328.8000488281</ele>
        <time>2020-02-16T12:27:40.000Z</time>
      </trkpt>
      <trkpt lat="45.31196" lon="6.18056">
        <ele>2325.8000488281</ele>
        <time>2020-02-16T12:27:41.000Z</time>
      </trkpt>
      <trkpt lat="45.31195" lon="6.18061">
        <ele>2323.6000976562</ele>
        <time>2020-02-16T12:27:42.000Z</time>
      </trkpt>
      <trkpt lat="45.31194" lon="6.18064">
        <ele>2322</ele>
        <time>2020-02-16T12:27:43.000Z</time>
      </trkpt>
      <trkpt lat="45.31192" lon="6.18065">
        <ele>2320</ele>
        <time>2020-02-16T12:27:44.000Z</time>
      </trkpt>
      <trkpt lat="45.31192" lon="6.18061">
        <ele>2317</ele>
        <time>2020-02-16T12:27:45.000Z</time>
      </trkpt>
      <trkpt lat="45.31193" lon="6.18061">
        <ele>2313.6000976562</ele>
        <time>2020-02-16T12:27:46.000Z</time>
      </trkpt>
      <trkpt lat="45.31194" lon="6.18061">
        <ele>2310.6000976562</ele>
        <time>2020-02-16T12:27:47.000Z</time>
      </trkpt>
      <trkpt lat="45.31194" lon="6.18059">
        <ele>2308.6000976562</ele>
        <time>2020-02-16T12:27:48.000Z</time>
      </trkpt>
      <trkpt lat="45.31193" lon="6.18058">
        <ele>2307.1999511719</ele>
        <time>2020-02-16T12:27:49.000Z</time>
      </trkpt>
      <trkpt lat="45.31193" lon="6.18058">
        <ele>2306</ele>
        <time>2020-02-16T12:27:51.000Z</time>
      </trkpt>
      <trkpt lat="45.31193" lon="6.18058">
        <ele>2305.1999511719</ele>
        <time>2020-02-16T12:27:59.000Z</time>
      </trkpt>
      <trkpt lat="45.3119" lon="6.18055">
        <ele>2305.1999511719</ele>
        <time>2020-02-16T12:28:01.000Z</time>
      </trkpt>
      <trkpt lat="45.31178" lon="6.18046">
        <ele>2305.1999511719</ele>
        <time>2020-02-16T12:28:03.000Z</time>
      </trkpt>
      <trkpt lat="45.31167" lon="6.1803">
        <ele>2304.8000488281</ele>
        <time>2020-02-16T12:28:05.000Z</time>
      </trkpt>
      <trkpt lat="45.31163" lon="6.18025">
        <ele>2303.8000488281</ele>
        <time>2020-02-16T12:28:06.000Z</time>
      </trkpt>
      <trkpt lat="45.31161" lon="6.18022">
        <ele>2302.8000488281</ele>
        <time>2020-02-16T12:28:07.000Z</time>
      </trkpt>
      <trkpt lat="45.31163" lon="6.18024">
        <ele>2301.6000976562</ele>
        <time>2020-02-16T12:28:08.000Z</time>
      </trkpt>
      <trkpt lat="45.31162" lon="6.18025">
        <ele>2300.8000488281</ele>
        <time>2020-02-16T12:28:09.000Z</time>
      </trkpt>
      <trkpt lat="45.31164" lon="6.18034">
        <ele>2300.1999511719</ele>
        <time>2020-02-16T12:28:10.000Z</time>
      </trkpt>
      <trkpt lat="45.31166" lon="6.18041">
        <ele>2299.8000488281</ele>
        <time>2020-02-16T12:28:11.000Z</time>
      </trkpt>
      <trkpt lat="45.31174" lon="6.18058">
        <ele>2299.1999511719</ele>
        <time>2020-02-16T12:28:13.000Z</time>
      </trkpt>
      <trkpt lat="45.31177" lon="6.18075">
        <ele>2297.3999023438</ele>
        <time>2020-02-16T12:28:15.000Z</time>
      </trkpt>
      <trkpt lat="45.31178" lon="6.18079">
        <ele>2296</ele>
        <time>2020-02-16T12:28:16.000Z</time>
      </trkpt>
      <trkpt lat="45.3118" lon="6.18085">
        <ele>2294.6000976562</ele>
        <time>2020-02-16T12:28:17.000Z</time>
      </trkpt>
      <trkpt lat="45.31178" lon="6.18093">
        <ele>2293.1999511719</ele>
        <time>2020-02-16T12:28:18.000Z</time>
      </trkpt>
      <trkpt lat="45.31176" lon="6.18096">
        <ele>2291.8000488281</ele>
        <time>2020-02-16T12:28:19.000Z</time>
      </trkpt>
      <trkpt lat="45.31172" lon="6.18098">
        <ele>2290.6000976562</ele>
        <time>2020-02-16T12:28:20.000Z</time>
      </trkpt>
      <trkpt lat="45.31169" lon="6.18101">
        <ele>2289.3999023438</ele>
        <time>2020-02-16T12:28:21.000Z</time>
      </trkpt>
      <trkpt lat="45.31164" lon="6.18102">
        <ele>2287</ele>
        <time>2020-02-16T12:28:22.000Z</time>
      </trkpt>
      <trkpt lat="45.31161" lon="6.18101">
        <ele>2285.8000488281</ele>
        <time>2020-02-16T12:28:23.000Z</time>
      </trkpt>
      <trkpt lat="45.31156" lon="6.18095">
        <ele>2284.1999511719</ele>
        <time>2020-02-16T12:28:24.000Z</time>
      </trkpt>
      <trkpt lat="45.31148" lon="6.18089">
        <ele>2279.6000976562</ele>
        <time>2020-02-16T12:28:26.000Z</time>
      </trkpt>
      <trkpt lat="45.31146" lon="6.18087">
        <ele>2277.8000488281</ele>
        <time>2020-02-16T12:28:27.000Z</time>
      </trkpt>
      <trkpt lat="45.31147" lon="6.18088">
        <ele>2276.1999511719</ele>
        <time>2020-02-16T12:28:28.000Z</time>
      </trkpt>
      <trkpt lat="45.31146" lon="6.18089">
        <ele>2274.6000976562</ele>
        <time>2020-02-16T12:28:29.000Z</time>
      </trkpt>
      <trkpt lat="45.31146" lon="6.18093">
        <ele>2272.8000488281</ele>
        <time>2020-02-16T12:28:30.000Z</time>
      </trkpt>
      <trkpt lat="45.31148" lon="6.18097">
        <ele>2271.6000976562</ele>
        <time>2020-02-16T12:28:31.000Z</time>
      </trkpt>
      <trkpt lat="45.31149" lon="6.18098">
        <ele>2270.6000976562</ele>
        <time>2020-02-16T12:28:32.000Z</time>
      </trkpt>
      <trkpt lat="45.3115" lon="6.18098">
        <ele>2269.8000488281</ele>
        <time>2020-02-16T12:28:33.000Z</time>
      </trkpt>
      <trkpt lat="45.31151" lon="6.18099">
        <ele>2269.1999511719</ele>
        <time>2020-02-16T12:28:34.000Z</time>
      </trkpt>
      <trkpt lat="45.31153" lon="6.181">
        <ele>2268.6000976562</ele>
        <time>2020-02-16T12:28:35.000Z</time>
      </trkpt>
      <trkpt lat="45.31156" lon="6.18105">
        <ele>2267.8000488281</ele>
        <time>2020-02-16T12:28:37.000Z</time>
      </trkpt>
      <trkpt lat="45.31158" lon="6.1811">
        <ele>2267.6000976562</ele>
        <time>2020-02-16T12:28:38.000Z</time>
      </trkpt>
      <trkpt lat="45.31162" lon="6.18118">
        <ele>2267.3999023438</ele>
        <time>2020-02-16T12:28:39.000Z</time>
      </trkpt>
      <trkpt lat="45.31165" lon="6.18122">
        <ele>2267.1999511719</ele>
        <time>2020-02-16T12:28:40.000Z</time>
      </trkpt>
      <trkpt lat="45.3117" lon="6.18126">
        <ele>2266.6000976562</ele>
        <time>2020-02-16T12:28:42.000Z</time>
      </trkpt>
      <trkpt lat="45.31172" lon="6.18126">
        <ele>2266</ele>
        <time>2020-02-16T12:28:43.000Z</time>
      </trkpt>
      <trkpt lat="45.31175" lon="6.18125">
        <ele>2265.3999023438</ele>
        <time>2020-02-16T12:28:44.000Z</time>
      </trkpt>
      <trkpt lat="45.31181" lon="6.18126">
        <ele>2263.1999511719</ele>
        <time>2020-02-16T12:28:46.000Z</time>
      </trkpt>
      <trkpt lat="45.31187" lon="6.18128">
        <ele>2262.3999023438</ele>
        <time>2020-02-16T12:28:49.000Z</time>
      </trkpt>
      <trkpt lat="45.31189" lon="6.18124">
        <ele>2262.1999511719</ele>
        <time>2020-02-16T12:28:50.000Z</time>
      </trkpt>
      <trkpt lat="45.31183" lon="6.18121">
        <ele>2261.8000488281</ele>
        <time>2020-02-16T12:28:52.000Z</time>
      </trkpt>
      <trkpt lat="45.31182" lon="6.1812">
        <ele>2261</ele>
        <time>2020-02-16T12:28:53.000Z</time>
      </trkpt>
      <trkpt lat="45.31183" lon="6.18117">
        <ele>2259.8000488281</ele>
        <time>2020-02-16T12:28:54.000Z</time>
      </trkpt>
      <trkpt lat="45.3118" lon="6.18111">
        <ele>2256.1999511719</ele>
        <time>2020-02-16T12:28:57.000Z</time>
      </trkpt>
      <trkpt lat="45.31179" lon="6.18109">
        <ele>2253.8000488281</ele>
        <time>2020-02-16T12:28:58.000Z</time>
      </trkpt>
      <trkpt lat="45.3118" lon="6.18105">
        <ele>2251.1999511719</ele>
        <time>2020-02-16T12:28:59.000Z</time>
      </trkpt>
      <trkpt lat="45.3118" lon="6.18104">
        <ele>2249.3999023438</ele>
        <time>2020-02-16T12:29:00.000Z</time>
      </trkpt>
      <trkpt lat="45.3118" lon="6.18101">
        <ele>2247.6000976562</ele>
        <time>2020-02-16T12:29:01.000Z</time>
      </trkpt>
      <trkpt lat="45.31169" lon="6.18102">
        <ele>2245.3999023438</ele>
        <time>2020-02-16T12:29:02.000Z</time>
      </trkpt>
      <trkpt lat="45.31156" lon="6.181">
        <ele>2238</ele>
        <time>2020-02-16T12:29:05.000Z</time>
      </trkpt>
      <trkpt lat="45.31147" lon="6.18095">
        <ele>2236</ele>
        <time>2020-02-16T12:29:06.000Z</time>
      </trkpt>
      <trkpt lat="45.31144" lon="6.18087">
        <ele>2233.8000488281</ele>
        <time>2020-02-16T12:29:07.000Z</time>
      </trkpt>
      <trkpt lat="45.31136" lon="6.18082">
        <ele>2231</ele>
        <time>2020-02-16T12:29:08.000Z</time>
      </trkpt>
      <trkpt lat="45.31127" lon="6.18084">
        <ele>2228.1999511719</ele>
        <time>2020-02-16T12:29:09.000Z</time>
      </trkpt>
      <trkpt lat="45.3112" lon="6.18089">
        <ele>2224</ele>
        <time>2020-02-16T12:29:10.000Z</time>
      </trkpt>
      <trkpt lat="45.31115" lon="6.18095">
        <ele>2222.8000488281</ele>
        <time>2020-02-16T12:29:11.000Z</time>
      </trkpt>
      <trkpt lat="45.31109" lon="6.181">
        <ele>2221.6000976562</ele>
        <time>2020-02-16T12:29:12.000Z</time>
      </trkpt>
      <trkpt lat="45.31103" lon="6.18104">
        <ele>2220</ele>
        <time>2020-02-16T12:29:13.000Z</time>
      </trkpt>
      <trkpt lat="45.31098" lon="6.18102">
        <ele>2218.3999023438</ele>
        <time>2020-02-16T12:29:14.000Z</time>
      </trkpt>
      <trkpt lat="45.31093" lon="6.18097">
        <ele>2216.6000976562</ele>
        <time>2020-02-16T12:29:15.000Z</time>
      </trkpt>
      <trkpt lat="45.31089" lon="6.18098">
        <ele>2215</ele>
        <time>2020-02-16T12:29:16.000Z</time>
      </trkpt>
      <trkpt lat="45.31081" lon="6.18101">
        <ele>2213.3999023438</ele>
        <time>2020-02-16T12:29:17.000Z</time>
      </trkpt>
      <trkpt lat="45.31077" lon="6.181">
        <ele>2212</ele>
        <time>2020-02-16T12:29:18.000Z</time>
      </trkpt>
      <trkpt lat="45.31071" lon="6.18095">
        <ele>2210.3999023438</ele>
        <time>2020-02-16T12:29:19.000Z</time>
      </trkpt>
      <trkpt lat="45.31068" lon="6.1809">
        <ele>2208</ele>
        <time>2020-02-16T12:29:20.000Z</time>
      </trkpt>
      <trkpt lat="45.31066" lon="6.18085">
        <ele>2205.3999023438</ele>
        <time>2020-02-16T12:29:21.000Z</time>
      </trkpt>
      <trkpt lat="45.31063" lon="6.18082">
        <ele>2203.1999511719</ele>
        <time>2020-02-16T12:29:22.000Z</time>
      </trkpt>
      <trkpt lat="45.31058" lon="6.18083">
        <ele>2201.1999511719</ele>
        <time>2020-02-16T12:29:23.000Z</time>
      </trkpt>
      <trkpt lat="45.31054" lon="6.18082">
        <ele>2199.3999023438</ele>
        <time>2020-02-16T12:29:24.000Z</time>
      </trkpt>
      <trkpt lat="45.31052" lon="6.18082">
        <ele>2198</ele>
        <time>2020-02-16T12:29:25.000Z</time>
      </trkpt>
      <trkpt lat="45.3105" lon="6.18081">
        <ele>2197.1999511719</ele>
        <time>2020-02-16T12:29:26.000Z</time>
      </trkpt>
      <trkpt lat="45.31048" lon="6.18079">
        <ele>2196.8000488281</ele>
        <time>2020-02-16T12:29:27.000Z</time>
      </trkpt>
      <trkpt lat="45.31045" lon="6.18076">
        <ele>2196.1999511719</ele>
        <time>2020-02-16T12:29:28.000Z</time>
      </trkpt>
      <trkpt lat="45.3104" lon="6.18069">
        <ele>2195.6000976562</ele>
        <time>2020-02-16T12:29:30.000Z</time>
      </trkpt>
      <trkpt lat="45.31037" lon="6.18069">
        <ele>2195.1999511719</ele>
        <time>2020-02-16T12:29:31.000Z</time>
      </trkpt>
      <trkpt lat="45.31034" lon="6.18066">
        <ele>2194.1999511719</ele>
        <time>2020-02-16T12:29:32.000Z</time>
      </trkpt>
      <trkpt lat="45.3103" lon="6.18064">
        <ele>2193</ele>
        <time>2020-02-16T12:29:33.000Z</time>
      </trkpt>
      <trkpt lat="45.31028" lon="6.18065">
        <ele>2189.6000976562</ele>
        <time>2020-02-16T12:29:34.000Z</time>
      </trkpt>
      <trkpt lat="45.31026" lon="6.18069">
        <ele>2187.6000976562</ele>
        <time>2020-02-16T12:29:35.000Z</time>
      </trkpt>
      <trkpt lat="45.31023" lon="6.18075">
        <ele>2185.6000976562</ele>
        <time>2020-02-16T12:29:36.000Z</time>
      </trkpt>
      <trkpt lat="45.3102" lon="6.18079">
        <ele>2183.6000976562</ele>
        <time>2020-02-16T12:29:37.000Z</time>
      </trkpt>
      <trkpt lat="45.31017" lon="6.18083">
        <ele>2181</ele>
        <time>2020-02-16T12:29:38.000Z</time>
      </trkpt>
      <trkpt lat="45.31016" lon="6.18086">
        <ele>2178.3999023438</ele>
        <time>2020-02-16T12:29:39.000Z</time>
      </trkpt>
      <trkpt lat="45.31015" lon="6.18089">
        <ele>2176</ele>
        <time>2020-02-16T12:29:40.000Z</time>
      </trkpt>
      <trkpt lat="45.3101" lon="6.18087">
        <ele>2174</ele>
        <time>2020-02-16T12:29:41.000Z</time>
      </trkpt>
      <trkpt lat="45.31004" lon="6.18089">
        <ele>2172.1999511719</ele>
        <time>2020-02-16T12:29:42.000Z</time>
      </trkpt>
      <trkpt lat="45.30997" lon="6.18095">
        <ele>2169.8000488281</ele>
        <time>2020-02-16T12:29:43.000Z</time>
      </trkpt>
      <trkpt lat="45.30992" lon="6.18101">
        <ele>2167</ele>
        <time>2020-02-16T12:29:44.000Z</time>
      </trkpt>
      <trkpt lat="45.30987" lon="6.18108">
        <ele>2164</ele>
        <time>2020-02-16T12:29:45.000Z</time>
      </trkpt>
      <trkpt lat="45.30984" lon="6.18115">
        <ele>2160.8000488281</ele>
        <time>2020-02-16T12:29:46.000Z</time>
      </trkpt>
      <trkpt lat="45.30979" lon="6.18122">
        <ele>2157.8000488281</ele>
        <time>2020-02-16T12:29:47.000Z</time>
      </trkpt>
      <trkpt lat="45.30973" lon="6.18126">
        <ele>2154.8000488281</ele>
        <time>2020-02-16T12:29:48.000Z</time>
      </trkpt>
      <trkpt lat="45.30963" lon="6.18129">
        <ele>2152.1999511719</ele>
        <time>2020-02-16T12:29:49.000Z</time>
      </trkpt>
      <trkpt lat="45.30953" lon="6.18133">
        <ele>2150</ele>
        <time>2020-02-16T12:29:50.000Z</time>
      </trkpt>
      <trkpt lat="45.30946" lon="6.18139">
        <ele>2147.6000976562</ele>
        <time>2020-02-16T12:29:51.000Z</time>
      </trkpt>
      <trkpt lat="45.30939" lon="6.18145">
        <ele>2145</ele>
        <time>2020-02-16T12:29:52.000Z</time>
      </trkpt>
      <trkpt lat="45.30933" lon="6.18154">
        <ele>2142</ele>
        <time>2020-02-16T12:29:53.000Z</time>
      </trkpt>
      <trkpt lat="45.30929" lon="6.18161">
        <ele>2139.1999511719</ele>
        <time>2020-02-16T12:29:54.000Z</time>
      </trkpt>
      <trkpt lat="45.30924" lon="6.18168">
        <ele>2136.8000488281</ele>
        <time>2020-02-16T12:29:55.000Z</time>
      </trkpt>
      <trkpt lat="45.3092" lon="6.18174">
        <ele>2134.6000976562</ele>
        <time>2020-02-16T12:29:56.000Z</time>
      </trkpt>
      <trkpt lat="45.30919" lon="6.18174">
        <ele>2132.8000488281</ele>
        <time>2020-02-16T12:29:57.000Z</time>
      </trkpt>
      <trkpt lat="45.30909" lon="6.18172">
        <ele>2129.3999023438</ele>
        <time>2020-02-16T12:29:58.000Z</time>
      </trkpt>
      <trkpt lat="45.30901" lon="6.18171">
        <ele>2127.6000976562</ele>
        <time>2020-02-16T12:29:59.000Z</time>
      </trkpt>
      <trkpt lat="45.30895" lon="6.1817">
        <ele>2125.6000976562</ele>
        <time>2020-02-16T12:30:00.000Z</time>
      </trkpt>
      <trkpt lat="45.30883" lon="6.18165">
        <ele>2120.8000488281</ele>
        <time>2020-02-16T12:30:02.000Z</time>
      </trkpt>
      <trkpt lat="45.30875" lon="6.18158">
        <ele>2118.6000976562</ele>
        <time>2020-02-16T12:30:03.000Z</time>
      </trkpt>
      <trkpt lat="45.3087" lon="6.18154">
        <ele>2116.3999023438</ele>
        <time>2020-02-16T12:30:04.000Z</time>
      </trkpt>
      <trkpt lat="45.30866" lon="6.18151">
        <ele>2114.6000976562</ele>
        <time>2020-02-16T12:30:05.000Z</time>
      </trkpt>
      <trkpt lat="45.30863" lon="6.18148">
        <ele>2112.8000488281</ele>
        <time>2020-02-16T12:30:06.000Z</time>
      </trkpt>
      <trkpt lat="45.30868" lon="6.18147">
        <ele>2111.1999511719</ele>
        <time>2020-02-16T12:30:07.000Z</time>
      </trkpt>
      <trkpt lat="45.30872" lon="6.18147">
        <ele>2109.8000488281</ele>
        <time>2020-02-16T12:30:08.000Z</time>
      </trkpt>
      <trkpt lat="45.30876" lon="6.18147">
        <ele>2108.3999023438</ele>
        <time>2020-02-16T12:30:10.000Z</time>
      </trkpt>
      <trkpt lat="45.30885" lon="6.18143">
        <ele>2108</ele>
        <time>2020-02-16T12:30:14.000Z</time>
      </trkpt>
      <trkpt lat="45.30885" lon="6.18143">
        <ele>2107.8000488281</ele>
        <time>2020-02-16T12:30:33.000Z</time>
      </trkpt>
      <trkpt lat="45.30885" lon="6.18143">
        <ele>2107.8000488281</ele>
        <time>2020-02-16T12:30:47.000Z</time>
      </trkpt>
      <trkpt lat="45.30887" lon="6.1814">
        <ele>2107.6000976562</ele>
        <time>2020-02-16T12:31:07.000Z</time>
      </trkpt>
      <trkpt lat="45.30889" lon="6.18139">
        <ele>2108.1999511719</ele>
        <time>2020-02-16T12:31:15.000Z</time>
      </trkpt>
      <trkpt lat="45.30891" lon="6.18131">
        <ele>2107.8000488281</ele>
        <time>2020-02-16T12:31:26.000Z</time>
      </trkpt>
      <trkpt lat="45.30893" lon="6.18128">
        <ele>2107.8000488281</ele>
        <time>2020-02-16T12:31:27.000Z</time>
      </trkpt>
      <trkpt lat="45.30902" lon="6.18124">
        <ele>2107.1999511719</ele>
        <time>2020-02-16T12:31:32.000Z</time>
      </trkpt>
      <trkpt lat="45.30904" lon="6.18123">
        <ele>2106.8000488281</ele>
        <time>2020-02-16T12:31:34.000Z</time>
      </trkpt>
      <trkpt lat="45.30904" lon="6.18121">
        <ele>2106.8000488281</ele>
        <time>2020-02-16T12:31:35.000Z</time>
      </trkpt>
      <trkpt lat="45.30898" lon="6.18119">
        <ele>2106.6000976562</ele>
        <time>2020-02-16T12:31:37.000Z</time>
      </trkpt>
      <trkpt lat="45.30881" lon="6.18113">
        <ele>2105.8000488281</ele>
        <time>2020-02-16T12:31:40.000Z</time>
      </trkpt>
      <trkpt lat="45.30872" lon="6.181">
        <ele>2103.6000976562</ele>
        <time>2020-02-16T12:31:42.000Z</time>
      </trkpt>
      <trkpt lat="45.30867" lon="6.18097">
        <ele>2102.3999023438</ele>
        <time>2020-02-16T12:31:43.000Z</time>
      </trkpt>
      <trkpt lat="45.30861" lon="6.18094">
        <ele>2101.1999511719</ele>
        <time>2020-02-16T12:31:44.000Z</time>
      </trkpt>
      <trkpt lat="45.30854" lon="6.18091">
        <ele>2099.8000488281</ele>
        <time>2020-02-16T12:31:45.000Z</time>
      </trkpt>
      <trkpt lat="45.30847" lon="6.18087">
        <ele>2098.1999511719</ele>
        <time>2020-02-16T12:31:46.000Z</time>
      </trkpt>
      <trkpt lat="45.30842" lon="6.18083">
        <ele>2096.3999023438</ele>
        <time>2020-02-16T12:31:47.000Z</time>
      </trkpt>
      <trkpt lat="45.30836" lon="6.1808">
        <ele>2094.6000976562</ele>
        <time>2020-02-16T12:31:48.000Z</time>
      </trkpt>
      <trkpt lat="45.3083" lon="6.18078">
        <ele>2093</ele>
        <time>2020-02-16T12:31:49.000Z</time>
      </trkpt>
      <trkpt lat="45.30823" lon="6.18075">
        <ele>2091.3999023438</ele>
        <time>2020-02-16T12:31:50.000Z</time>
      </trkpt>
      <trkpt lat="45.30816" lon="6.1807">
        <ele>2090</ele>
        <time>2020-02-16T12:31:51.000Z</time>
      </trkpt>
      <trkpt lat="45.30811" lon="6.18065">
        <ele>2088.1999511719</ele>
        <time>2020-02-16T12:31:52.000Z</time>
      </trkpt>
      <trkpt lat="45.30805" lon="6.1806">
        <ele>2086.3999023438</ele>
        <time>2020-02-16T12:31:53.000Z</time>
      </trkpt>
      <trkpt lat="45.308" lon="6.18059">
        <ele>2085</ele>
        <time>2020-02-16T12:31:54.000Z</time>
      </trkpt>
      <trkpt lat="45.30796" lon="6.18057">
        <ele>2083.6000976562</ele>
        <time>2020-02-16T12:31:55.000Z</time>
      </trkpt>
      <trkpt lat="45.30791" lon="6.18056">
        <ele>2082.1999511719</ele>
        <time>2020-02-16T12:31:56.000Z</time>
      </trkpt>
      <trkpt lat="45.30786" lon="6.18051">
        <ele>2080.6000976562</ele>
        <time>2020-02-16T12:31:57.000Z</time>
      </trkpt>
      <trkpt lat="45.30782" lon="6.18051">
        <ele>2077.3999023438</ele>
        <time>2020-02-16T12:31:58.000Z</time>
      </trkpt>
      <trkpt lat="45.30778" lon="6.18051">
        <ele>2075.8000488281</ele>
        <time>2020-02-16T12:31:59.000Z</time>
      </trkpt>
      <trkpt lat="45.30773" lon="6.18051">
        <ele>2074</ele>
        <time>2020-02-16T12:32:00.000Z</time>
      </trkpt>
      <trkpt lat="45.30769" lon="6.18045">
        <ele>2071.8000488281</ele>
        <time>2020-02-16T12:32:01.000Z</time>
      </trkpt>
      <trkpt lat="45.30765" lon="6.18039">
        <ele>2070</ele>
        <time>2020-02-16T12:32:02.000Z</time>
      </trkpt>
      <trkpt lat="45.3076" lon="6.1804">
        <ele>2068.3999023438</ele>
        <time>2020-02-16T12:32:03.000Z</time>
      </trkpt>
      <trkpt lat="45.30756" lon="6.1804">
        <ele>2067</ele>
        <time>2020-02-16T12:32:04.000Z</time>
      </trkpt>
      <trkpt lat="45.30754" lon="6.18037">
        <ele>2065.6000976562</ele>
        <time>2020-02-16T12:32:05.000Z</time>
      </trkpt>
      <trkpt lat="45.30748" lon="6.18033">
        <ele>2063.6000976562</ele>
        <time>2020-02-16T12:32:06.000Z</time>
      </trkpt>
      <trkpt lat="45.30743" lon="6.18032">
        <ele>2061.6000976562</ele>
        <time>2020-02-16T12:32:07.000Z</time>
      </trkpt>
      <trkpt lat="45.30737" lon="6.1803">
        <ele>2059.8000488281</ele>
        <time>2020-02-16T12:32:08.000Z</time>
      </trkpt>
      <trkpt lat="45.3073" lon="6.18027">
        <ele>2058</ele>
        <time>2020-02-16T12:32:09.000Z</time>
      </trkpt>
      <trkpt lat="45.30724" lon="6.18026">
        <ele>2055.8000488281</ele>
        <time>2020-02-16T12:32:10.000Z</time>
      </trkpt>
      <trkpt lat="45.30716" lon="6.18029">
        <ele>2053.3999023438</ele>
        <time>2020-02-16T12:32:11.000Z</time>
      </trkpt>
      <trkpt lat="45.30707" lon="6.18032">
        <ele>2051</ele>
        <time>2020-02-16T12:32:12.000Z</time>
      </trkpt>
      <trkpt lat="45.30698" lon="6.18035">
        <ele>2048.8000488281</ele>
        <time>2020-02-16T12:32:13.000Z</time>
      </trkpt>
      <trkpt lat="45.3069" lon="6.18037">
        <ele>2046.1999511719</ele>
        <time>2020-02-16T12:32:14.000Z</time>
      </trkpt>
      <trkpt lat="45.30682" lon="6.1804">
        <ele>2043.5999755859</ele>
        <time>2020-02-16T12:32:15.000Z</time>
      </trkpt>
      <trkpt lat="45.30673" lon="6.18038">
        <ele>2041.4000244141</ele>
        <time>2020-02-16T12:32:16.000Z</time>
      </trkpt>
      <trkpt lat="45.30668" lon="6.18035">
        <ele>2039.5999755859</ele>
        <time>2020-02-16T12:32:17.000Z</time>
      </trkpt>
      <trkpt lat="45.30667" lon="6.18038">
        <ele>2038.4000244141</ele>
        <time>2020-02-16T12:32:18.000Z</time>
      </trkpt>
      <trkpt lat="45.30665" lon="6.18041">
        <ele>2037.4000244141</ele>
        <time>2020-02-16T12:32:19.000Z</time>
      </trkpt>
      <trkpt lat="45.3066" lon="6.1804">
        <ele>2036.4000244141</ele>
        <time>2020-02-16T12:32:20.000Z</time>
      </trkpt>
      <trkpt lat="45.30653" lon="6.18037">
        <ele>2035.5999755859</ele>
        <time>2020-02-16T12:32:21.000Z</time>
      </trkpt>
      <trkpt lat="45.30647" lon="6.18033">
        <ele>2033.1999511719</ele>
        <time>2020-02-16T12:32:22.000Z</time>
      </trkpt>
      <trkpt lat="45.30647" lon="6.1803">
        <ele>2032.1999511719</ele>
        <time>2020-02-16T12:32:23.000Z</time>
      </trkpt>
      <trkpt lat="45.30649" lon="6.18027">
        <ele>2031.4000244141</ele>
        <time>2020-02-16T12:32:24.000Z</time>
      </trkpt>
      <trkpt lat="45.30651" lon="6.18025">
        <ele>2030.8000488281</ele>
        <time>2020-02-16T12:32:25.000Z</time>
      </trkpt>
      <trkpt lat="45.30654" lon="6.18023">
        <ele>2029.5999755859</ele>
        <time>2020-02-16T12:32:27.000Z</time>
      </trkpt>
      <trkpt lat="45.30654" lon="6.18023">
        <ele>2029</ele>
        <time>2020-02-16T12:32:29.000Z</time>
      </trkpt>
      <trkpt lat="45.30657" lon="6.18019">
        <ele>2028.5999755859</ele>
        <time>2020-02-16T12:32:34.000Z</time>
      </trkpt>
      <trkpt lat="45.30661" lon="6.18012">
        <ele>2028.4000244141</ele>
        <time>2020-02-16T12:32:36.000Z</time>
      </trkpt>
      <trkpt lat="45.30674" lon="6.17994">
        <ele>2027.5999755859</ele>
        <time>2020-02-16T12:32:42.000Z</time>
      </trkpt>
      <trkpt lat="45.30673" lon="6.17987">
        <ele>2026.4000244141</ele>
        <time>2020-02-16T12:32:45.000Z</time>
      </trkpt>
      <trkpt lat="45.30667" lon="6.17983">
        <ele>2025.5999755859</ele>
        <time>2020-02-16T12:32:46.000Z</time>
      </trkpt>
      <trkpt lat="45.30663" lon="6.17978">
        <ele>2024.8000488281</ele>
        <time>2020-02-16T12:32:47.000Z</time>
      </trkpt>
      <trkpt lat="45.30662" lon="6.1797">
        <ele>2023.4000244141</ele>
        <time>2020-02-16T12:32:48.000Z</time>
      </trkpt>
      <trkpt lat="45.30662" lon="6.17964">
        <ele>2022</ele>
        <time>2020-02-16T12:32:49.000Z</time>
      </trkpt>
      <trkpt lat="45.30659" lon="6.17955">
        <ele>2020.5999755859</ele>
        <time>2020-02-16T12:32:50.000Z</time>
      </trkpt>
      <trkpt lat="45.30657" lon="6.17949">
        <ele>2019.4000244141</ele>
        <time>2020-02-16T12:32:51.000Z</time>
      </trkpt>
      <trkpt lat="45.30653" lon="6.17945">
        <ele>2018</ele>
        <time>2020-02-16T12:32:52.000Z</time>
      </trkpt>
      <trkpt lat="45.30648" lon="6.17945">
        <ele>2016.5999755859</ele>
        <time>2020-02-16T12:32:53.000Z</time>
      </trkpt>
      <trkpt lat="45.30642" lon="6.17942">
        <ele>2015</ele>
        <time>2020-02-16T12:32:54.000Z</time>
      </trkpt>
      <trkpt lat="45.30636" lon="6.17937">
        <ele>2012.8000488281</ele>
        <time>2020-02-16T12:32:55.000Z</time>
      </trkpt>
      <trkpt lat="45.3063" lon="6.17931">
        <ele>2010.5999755859</ele>
        <time>2020-02-16T12:32:56.000Z</time>
      </trkpt>
      <trkpt lat="45.30626" lon="6.17926">
        <ele>2008.5999755859</ele>
        <time>2020-02-16T12:32:57.000Z</time>
      </trkpt>
      <trkpt lat="45.30623" lon="6.17918">
        <ele>2006.8000488281</ele>
        <time>2020-02-16T12:32:58.000Z</time>
      </trkpt>
      <trkpt lat="45.30621" lon="6.1791">
        <ele>2005</ele>
        <time>2020-02-16T12:32:59.000Z</time>
      </trkpt>
      <trkpt lat="45.3062" lon="6.17901">
        <ele>2003</ele>
        <time>2020-02-16T12:33:00.000Z</time>
      </trkpt>
      <trkpt lat="45.30617" lon="6.17893">
        <ele>2001.1999511719</ele>
        <time>2020-02-16T12:33:01.000Z</time>
      </trkpt>
      <trkpt lat="45.30615" lon="6.17884">
        <ele>1999.5999755859</ele>
        <time>2020-02-16T12:33:02.000Z</time>
      </trkpt>
      <trkpt lat="45.30611" lon="6.17876">
        <ele>1998.1999511719</ele>
        <time>2020-02-16T12:33:03.000Z</time>
      </trkpt>
      <trkpt lat="45.30608" lon="6.17867">
        <ele>1997</ele>
        <time>2020-02-16T12:33:04.000Z</time>
      </trkpt>
      <trkpt lat="45.30605" lon="6.17859">
        <ele>1995.8000488281</ele>
        <time>2020-02-16T12:33:05.000Z</time>
      </trkpt>
      <trkpt lat="45.30603" lon="6.17851">
        <ele>1994.5999755859</ele>
        <time>2020-02-16T12:33:06.000Z</time>
      </trkpt>
      <trkpt lat="45.30601" lon="6.17844">
        <ele>1993.4000244141</ele>
        <time>2020-02-16T12:33:07.000Z</time>
      </trkpt>
      <trkpt lat="45.30595" lon="6.17834">
        <ele>1991.8000488281</ele>
        <time>2020-02-16T12:33:09.000Z</time>
      </trkpt>
      <trkpt lat="45.30591" lon="6.17829">
        <ele>1990.4000244141</ele>
        <time>2020-02-16T12:33:10.000Z</time>
      </trkpt>
      <trkpt lat="45.30586" lon="6.17815">
        <ele>1989.1999511719</ele>
        <time>2020-02-16T12:33:12.000Z</time>
      </trkpt>
      <trkpt lat="45.30581" lon="6.17801">
        <ele>1987.5999755859</ele>
        <time>2020-02-16T12:33:14.000Z</time>
      </trkpt>
      <trkpt lat="45.30577" lon="6.17787">
        <ele>1985.5999755859</ele>
        <time>2020-02-16T12:33:16.000Z</time>
      </trkpt>
      <trkpt lat="45.30573" lon="6.17779">
        <ele>1984.5999755859</ele>
        <time>2020-02-16T12:33:17.000Z</time>
      </trkpt>
      <trkpt lat="45.30569" lon="6.1777">
        <ele>1983.5999755859</ele>
        <time>2020-02-16T12:33:18.000Z</time>
      </trkpt>
      <trkpt lat="45.30567" lon="6.17762">
        <ele>1982.5999755859</ele>
        <time>2020-02-16T12:33:19.000Z</time>
      </trkpt>
      <trkpt lat="45.30564" lon="6.17755">
        <ele>1981.4000244141</ele>
        <time>2020-02-16T12:33:20.000Z</time>
      </trkpt>
      <trkpt lat="45.30562" lon="6.1775">
        <ele>1980.1999511719</ele>
        <time>2020-02-16T12:33:21.000Z</time>
      </trkpt>
      <trkpt lat="45.3056" lon="6.17746">
        <ele>1979.1999511719</ele>
        <time>2020-02-16T12:33:22.000Z</time>
      </trkpt>
      <trkpt lat="45.30558" lon="6.17742">
        <ele>1978.1999511719</ele>
        <time>2020-02-16T12:33:23.000Z</time>
      </trkpt>
      <trkpt lat="45.30554" lon="6.17737">
        <ele>1977.5999755859</ele>
        <time>2020-02-16T12:33:24.000Z</time>
      </trkpt>
      <trkpt lat="45.30551" lon="6.17731">
        <ele>1977.1999511719</ele>
        <time>2020-02-16T12:33:25.000Z</time>
      </trkpt>
      <trkpt lat="45.3055" lon="6.17725">
        <ele>1976.5999755859</ele>
        <time>2020-02-16T12:33:26.000Z</time>
      </trkpt>
      <trkpt lat="45.30546" lon="6.1772">
        <ele>1975.1999511719</ele>
        <time>2020-02-16T12:33:28.000Z</time>
      </trkpt>
      <trkpt lat="45.30546" lon="6.1772">
        <ele>1974.1999511719</ele>
        <time>2020-02-16T12:33:29.000Z</time>
      </trkpt>
      <trkpt lat="45.30546" lon="6.1772">
        <ele>1973.4000244141</ele>
        <time>2020-02-16T12:33:30.000Z</time>
      </trkpt>
      <trkpt lat="45.30546" lon="6.1772">
        <ele>1972.4000244141</ele>
        <time>2020-02-16T12:33:32.000Z</time>
      </trkpt>
      <trkpt lat="45.30541" lon="6.17716">
        <ele>1972.1999511719</ele>
        <time>2020-02-16T12:33:42.000Z</time>
      </trkpt>
      <trkpt lat="45.30529" lon="6.17713">
        <ele>1972.1999511719</ele>
        <time>2020-02-16T12:33:45.000Z</time>
      </trkpt>
      <trkpt lat="45.30525" lon="6.17724">
        <ele>1971</ele>
        <time>2020-02-16T12:33:48.000Z</time>
      </trkpt>
      <trkpt lat="45.30525" lon="6.17725">
        <ele>1969.5999755859</ele>
        <time>2020-02-16T12:33:49.000Z</time>
      </trkpt>
      <trkpt lat="45.30524" lon="6.17726">
        <ele>1967.5999755859</ele>
        <time>2020-02-16T12:33:50.000Z</time>
      </trkpt>
      <trkpt lat="45.30519" lon="6.17726">
        <ele>1965.4000244141</ele>
        <time>2020-02-16T12:33:51.000Z</time>
      </trkpt>
      <trkpt lat="45.30517" lon="6.17726">
        <ele>1963.4000244141</ele>
        <time>2020-02-16T12:33:52.000Z</time>
      </trkpt>
      <trkpt lat="45.30514" lon="6.17725">
        <ele>1961.4000244141</ele>
        <time>2020-02-16T12:33:53.000Z</time>
      </trkpt>
      <trkpt lat="45.30511" lon="6.17725">
        <ele>1959</ele>
        <time>2020-02-16T12:33:54.000Z</time>
      </trkpt>
      <trkpt lat="45.30509" lon="6.17725">
        <ele>1956.1999511719</ele>
        <time>2020-02-16T12:33:55.000Z</time>
      </trkpt>
      <trkpt lat="45.30507" lon="6.17722">
        <ele>1953.4000244141</ele>
        <time>2020-02-16T12:33:56.000Z</time>
      </trkpt>
      <trkpt lat="45.30504" lon="6.17722">
        <ele>1950.8000488281</ele>
        <time>2020-02-16T12:33:57.000Z</time>
      </trkpt>
      <trkpt lat="45.305" lon="6.17724">
        <ele>1945</ele>
        <time>2020-02-16T12:33:58.000Z</time>
      </trkpt>
      <trkpt lat="45.30497" lon="6.17726">
        <ele>1942</ele>
        <time>2020-02-16T12:33:59.000Z</time>
      </trkpt>
      <trkpt lat="45.30492" lon="6.17726">
        <ele>1939.1999511719</ele>
        <time>2020-02-16T12:34:00.000Z</time>
      </trkpt>
      <trkpt lat="45.30486" lon="6.17728">
        <ele>1936.1999511719</ele>
        <time>2020-02-16T12:34:01.000Z</time>
      </trkpt>
      <trkpt lat="45.30482" lon="6.17732">
        <ele>1933.1999511719</ele>
        <time>2020-02-16T12:34:02.000Z</time>
      </trkpt>
      <trkpt lat="45.30477" lon="6.17735">
        <ele>1930.5999755859</ele>
        <time>2020-02-16T12:34:03.000Z</time>
      </trkpt>
      <trkpt lat="45.30473" lon="6.1774">
        <ele>1928</ele>
        <time>2020-02-16T12:34:04.000Z</time>
      </trkpt>
      <trkpt lat="45.30468" lon="6.17744">
        <ele>1925.1999511719</ele>
        <time>2020-02-16T12:34:05.000Z</time>
      </trkpt>
      <trkpt lat="45.30465" lon="6.17748">
        <ele>1922.5999755859</ele>
        <time>2020-02-16T12:34:06.000Z</time>
      </trkpt>
      <trkpt lat="45.3046" lon="6.17752">
        <ele>1920.5999755859</ele>
        <time>2020-02-16T12:34:07.000Z</time>
      </trkpt>
      <trkpt lat="45.30456" lon="6.17753">
        <ele>1918.5999755859</ele>
        <time>2020-02-16T12:34:08.000Z</time>
      </trkpt>
      <trkpt lat="45.3045" lon="6.17748">
        <ele>1916.5999755859</ele>
        <time>2020-02-16T12:34:09.000Z</time>
      </trkpt>
      <trkpt lat="45.30446" lon="6.17746">
        <ele>1914.5999755859</ele>
        <time>2020-02-16T12:34:10.000Z</time>
      </trkpt>
      <trkpt lat="45.30441" lon="6.17744">
        <ele>1912.8000488281</ele>
        <time>2020-02-16T12:34:11.000Z</time>
      </trkpt>
      <trkpt lat="45.30432" lon="6.17737">
        <ele>1911</ele>
        <time>2020-02-16T12:34:12.000Z</time>
      </trkpt>
      <trkpt lat="45.30425" lon="6.17736">
        <ele>1909.5999755859</ele>
        <time>2020-02-16T12:34:13.000Z</time>
      </trkpt>
      <trkpt lat="45.30418" lon="6.17736">
        <ele>1908.1999511719</ele>
        <time>2020-02-16T12:34:14.000Z</time>
      </trkpt>
      <trkpt lat="45.3041" lon="6.17732">
        <ele>1906.8000488281</ele>
        <time>2020-02-16T12:34:15.000Z</time>
      </trkpt>
      <trkpt lat="45.30403" lon="6.17729">
        <ele>1905.1999511719</ele>
        <time>2020-02-16T12:34:16.000Z</time>
      </trkpt>
      <trkpt lat="45.30397" lon="6.17727">
        <ele>1903.5999755859</ele>
        <time>2020-02-16T12:34:17.000Z</time>
      </trkpt>
      <trkpt lat="45.3039" lon="6.17724">
        <ele>1902.1999511719</ele>
        <time>2020-02-16T12:34:18.000Z</time>
      </trkpt>
      <trkpt lat="45.30378" lon="6.17722">
        <ele>1900.4000244141</ele>
        <time>2020-02-16T12:34:20.000Z</time>
      </trkpt>
      <trkpt lat="45.30369" lon="6.17722">
        <ele>1897</ele>
        <time>2020-02-16T12:34:22.000Z</time>
      </trkpt>
      <trkpt lat="45.30364" lon="6.17719">
        <ele>1895.5999755859</ele>
        <time>2020-02-16T12:34:23.000Z</time>
      </trkpt>
      <trkpt lat="45.30355" lon="6.17716">
        <ele>1894</ele>
        <time>2020-02-16T12:34:25.000Z</time>
      </trkpt>
      <trkpt lat="45.30351" lon="6.17714">
        <ele>1893.4000244141</ele>
        <time>2020-02-16T12:34:26.000Z</time>
      </trkpt>
      <trkpt lat="45.30348" lon="6.17713">
        <ele>1892.8000488281</ele>
        <time>2020-02-16T12:34:27.000Z</time>
      </trkpt>
      <trkpt lat="45.30345" lon="6.1771">
        <ele>1891.8000488281</ele>
        <time>2020-02-16T12:34:29.000Z</time>
      </trkpt>
      <trkpt lat="45.30347" lon="6.17708">
        <ele>1891.4000244141</ele>
        <time>2020-02-16T12:34:30.000Z</time>
      </trkpt>
      <trkpt lat="45.30349" lon="6.17703">
        <ele>1890.8000488281</ele>
        <time>2020-02-16T12:34:36.000Z</time>
      </trkpt>
      <trkpt lat="45.30349" lon="6.17703">
        <ele>1890.8000488281</ele>
        <time>2020-02-16T12:34:37.000Z</time>
      </trkpt>
      <trkpt lat="45.30348" lon="6.17703">
        <ele>1890.5999755859</ele>
        <time>2020-02-16T12:34:49.000Z</time>
      </trkpt>
      <trkpt lat="45.30345" lon="6.1771">
        <ele>1890.4000244141</ele>
        <time>2020-02-16T12:34:51.000Z</time>
      </trkpt>
      <trkpt lat="45.30339" lon="6.17721">
        <ele>1889.5999755859</ele>
        <time>2020-02-16T12:34:54.000Z</time>
      </trkpt>
      <trkpt lat="45.30341" lon="6.17734">
        <ele>1888</ele>
        <time>2020-02-16T12:34:56.000Z</time>
      </trkpt>
      <trkpt lat="45.30341" lon="6.1774">
        <ele>1886.8000488281</ele>
        <time>2020-02-16T12:34:57.000Z</time>
      </trkpt>
      <trkpt lat="45.3034" lon="6.17745">
        <ele>1885.4000244141</ele>
        <time>2020-02-16T12:34:58.000Z</time>
      </trkpt>
      <trkpt lat="45.30339" lon="6.17751">
        <ele>1883.8000488281</ele>
        <time>2020-02-16T12:34:59.000Z</time>
      </trkpt>
      <trkpt lat="45.30337" lon="6.17755">
        <ele>1881.8000488281</ele>
        <time>2020-02-16T12:35:00.000Z</time>
      </trkpt>
      <trkpt lat="45.30335" lon="6.1776">
        <ele>1880.1999511719</ele>
        <time>2020-02-16T12:35:01.000Z</time>
      </trkpt>
      <trkpt lat="45.30334" lon="6.17766">
        <ele>1879</ele>
        <time>2020-02-16T12:35:02.000Z</time>
      </trkpt>
      <trkpt lat="45.30333" lon="6.17769">
        <ele>1878</ele>
        <time>2020-02-16T12:35:03.000Z</time>
      </trkpt>
      <trkpt lat="45.30332" lon="6.17769">
        <ele>1876.4000244141</ele>
        <time>2020-02-16T12:35:04.000Z</time>
      </trkpt>
      <trkpt lat="45.30332" lon="6.17766">
        <ele>1874.4000244141</ele>
        <time>2020-02-16T12:35:05.000Z</time>
      </trkpt>
      <trkpt lat="45.30331" lon="6.17765">
        <ele>1872.5999755859</ele>
        <time>2020-02-16T12:35:06.000Z</time>
      </trkpt>
      <trkpt lat="45.30331" lon="6.17763">
        <ele>1871.4000244141</ele>
        <time>2020-02-16T12:35:07.000Z</time>
      </trkpt>
      <trkpt lat="45.30331" lon="6.17763">
        <ele>1870.1999511719</ele>
        <time>2020-02-16T12:35:09.000Z</time>
      </trkpt>
      <trkpt lat="45.30331" lon="6.17763">
        <ele>1869.4000244141</ele>
        <time>2020-02-16T12:35:11.000Z</time>
      </trkpt>
      <trkpt lat="45.30329" lon="6.17761">
        <ele>1869.1999511719</ele>
        <time>2020-02-16T12:35:12.000Z</time>
      </trkpt>
      <trkpt lat="45.30327" lon="6.17762">
        <ele>1869</ele>
        <time>2020-02-16T12:35:13.000Z</time>
      </trkpt>
      <trkpt lat="45.30324" lon="6.17777">
        <ele>1868.8000488281</ele>
        <time>2020-02-16T12:35:16.000Z</time>
      </trkpt>
      <trkpt lat="45.30324" lon="6.1779">
        <ele>1867.8000488281</ele>
        <time>2020-02-16T12:35:18.000Z</time>
      </trkpt>
      <trkpt lat="45.30325" lon="6.17796">
        <ele>1866.8000488281</ele>
        <time>2020-02-16T12:35:19.000Z</time>
      </trkpt>
      <trkpt lat="45.30326" lon="6.17801">
        <ele>1865.4000244141</ele>
        <time>2020-02-16T12:35:20.000Z</time>
      </trkpt>
      <trkpt lat="45.30326" lon="6.17805">
        <ele>1864.1999511719</ele>
        <time>2020-02-16T12:35:21.000Z</time>
      </trkpt>
      <trkpt lat="45.30327" lon="6.17808">
        <ele>1863</ele>
        <time>2020-02-16T12:35:22.000Z</time>
      </trkpt>
      <trkpt lat="45.30327" lon="6.1781">
        <ele>1861.8000488281</ele>
        <time>2020-02-16T12:35:23.000Z</time>
      </trkpt>
      <trkpt lat="45.30326" lon="6.17816">
        <ele>1860.1999511719</ele>
        <time>2020-02-16T12:35:25.000Z</time>
      </trkpt>
      <trkpt lat="45.30325" lon="6.17819">
        <ele>1859.4000244141</ele>
        <time>2020-02-16T12:35:26.000Z</time>
      </trkpt>
      <trkpt lat="45.30322" lon="6.17822">
        <ele>1858.8000488281</ele>
        <time>2020-02-16T12:35:27.000Z</time>
      </trkpt>
      <trkpt lat="45.30315" lon="6.17825">
        <ele>1857.1999511719</ele>
        <time>2020-02-16T12:35:29.000Z</time>
      </trkpt>
      <trkpt lat="45.30311" lon="6.17826">
        <ele>1856.4000244141</ele>
        <time>2020-02-16T12:35:30.000Z</time>
      </trkpt>
      <trkpt lat="45.30307" lon="6.17827">
        <ele>1855.4000244141</ele>
        <time>2020-02-16T12:35:31.000Z</time>
      </trkpt>
      <trkpt lat="45.30302" lon="6.17825">
        <ele>1854.1999511719</ele>
        <time>2020-02-16T12:35:32.000Z</time>
      </trkpt>
      <trkpt lat="45.30299" lon="6.17823">
        <ele>1852.8000488281</ele>
        <time>2020-02-16T12:35:33.000Z</time>
      </trkpt>
      <trkpt lat="45.30297" lon="6.17821">
        <ele>1849.5999755859</ele>
        <time>2020-02-16T12:35:34.000Z</time>
      </trkpt>
      <trkpt lat="45.30296" lon="6.17821">
        <ele>1848.5999755859</ele>
        <time>2020-02-16T12:35:35.000Z</time>
      </trkpt>
      <trkpt lat="45.30293" lon="6.17819">
        <ele>1847.1999511719</ele>
        <time>2020-02-16T12:35:37.000Z</time>
      </trkpt>
      <trkpt lat="45.30293" lon="6.17819">
        <ele>1846.4000244141</ele>
        <time>2020-02-16T12:35:40.000Z</time>
      </trkpt>
      <trkpt lat="45.30289" lon="6.17818">
        <ele>1846.4000244141</ele>
        <time>2020-02-16T12:35:47.000Z</time>
      </trkpt>
      <trkpt lat="45.30285" lon="6.17819">
        <ele>1846.1999511719</ele>
        <time>2020-02-16T12:35:48.000Z</time>
      </trkpt>
      <trkpt lat="45.30282" lon="6.17822">
        <ele>1846.1999511719</ele>
        <time>2020-02-16T12:35:49.000Z</time>
      </trkpt>
      <trkpt lat="45.30282" lon="6.17827">
        <ele>1846</ele>
        <time>2020-02-16T12:35:50.000Z</time>
      </trkpt>
      <trkpt lat="45.30281" lon="6.17845">
        <ele>1845.1999511719</ele>
        <time>2020-02-16T12:35:53.000Z</time>
      </trkpt>
      <trkpt lat="45.30278" lon="6.1785">
        <ele>1844.1999511719</ele>
        <time>2020-02-16T12:35:54.000Z</time>
      </trkpt>
      <trkpt lat="45.30278" lon="6.17855">
        <ele>1843</ele>
        <time>2020-02-16T12:35:55.000Z</time>
      </trkpt>
      <trkpt lat="45.30278" lon="6.1786">
        <ele>1841.8000488281</ele>
        <time>2020-02-16T12:35:56.000Z</time>
      </trkpt>
      <trkpt lat="45.30277" lon="6.17865">
        <ele>1840.4000244141</ele>
        <time>2020-02-16T12:35:57.000Z</time>
      </trkpt>
      <trkpt lat="45.30275" lon="6.17868">
        <ele>1837.1999511719</ele>
        <time>2020-02-16T12:35:58.000Z</time>
      </trkpt>
      <trkpt lat="45.30274" lon="6.17871">
        <ele>1835.5999755859</ele>
        <time>2020-02-16T12:35:59.000Z</time>
      </trkpt>
      <trkpt lat="45.30273" lon="6.17873">
        <ele>1833.8000488281</ele>
        <time>2020-02-16T12:36:00.000Z</time>
      </trkpt>
      <trkpt lat="45.30272" lon="6.17874">
        <ele>1832.1999511719</ele>
        <time>2020-02-16T12:36:01.000Z</time>
      </trkpt>
      <trkpt lat="45.30269" lon="6.17869">
        <ele>1831.1999511719</ele>
        <time>2020-02-16T12:36:02.000Z</time>
      </trkpt>
      <trkpt lat="45.30268" lon="6.17866">
        <ele>1830</ele>
        <time>2020-02-16T12:36:03.000Z</time>
      </trkpt>
      <trkpt lat="45.30266" lon="6.17864">
        <ele>1828.5999755859</ele>
        <time>2020-02-16T12:36:04.000Z</time>
      </trkpt>
      <trkpt lat="45.30265" lon="6.17866">
        <ele>1827.1999511719</ele>
        <time>2020-02-16T12:36:05.000Z</time>
      </trkpt>
      <trkpt lat="45.30263" lon="6.17869">
        <ele>1825.8000488281</ele>
        <time>2020-02-16T12:36:06.000Z</time>
      </trkpt>
      <trkpt lat="45.30263" lon="6.17875">
        <ele>1824.8000488281</ele>
        <time>2020-02-16T12:36:07.000Z</time>
      </trkpt>
      <trkpt lat="45.30262" lon="6.17881">
        <ele>1823.8000488281</ele>
        <time>2020-02-16T12:36:08.000Z</time>
      </trkpt>
      <trkpt lat="45.30261" lon="6.17885">
        <ele>1822.4000244141</ele>
        <time>2020-02-16T12:36:09.000Z</time>
      </trkpt>
      <trkpt lat="45.30261" lon="6.17886">
        <ele>1820.8000488281</ele>
        <time>2020-02-16T12:36:10.000Z</time>
      </trkpt>
      <trkpt lat="45.30258" lon="6.17882">
        <ele>1819</ele>
        <time>2020-02-16T12:36:11.000Z</time>
      </trkpt>
      <trkpt lat="45.30256" lon="6.17882">
        <ele>1817.4000244141</ele>
        <time>2020-02-16T12:36:12.000Z</time>
      </trkpt>
      <trkpt lat="45.30255" lon="6.17885">
        <ele>1815.8000488281</ele>
        <time>2020-02-16T12:36:13.000Z</time>
      </trkpt>
      <trkpt lat="45.30254" lon="6.17888">
        <ele>1814.4000244141</ele>
        <time>2020-02-16T12:36:14.000Z</time>
      </trkpt>
      <trkpt lat="45.30253" lon="6.17892">
        <ele>1813</ele>
        <time>2020-02-16T12:36:15.000Z</time>
      </trkpt>
      <trkpt lat="45.30251" lon="6.17896">
        <ele>1811.5999755859</ele>
        <time>2020-02-16T12:36:16.000Z</time>
      </trkpt>
      <trkpt lat="45.30248" lon="6.17899">
        <ele>1809.5999755859</ele>
        <time>2020-02-16T12:36:17.000Z</time>
      </trkpt>
      <trkpt lat="45.30243" lon="6.179">
        <ele>1807.5999755859</ele>
        <time>2020-02-16T12:36:18.000Z</time>
      </trkpt>
      <trkpt lat="45.30238" lon="6.17901">
        <ele>1805.5999755859</ele>
        <time>2020-02-16T12:36:19.000Z</time>
      </trkpt>
      <trkpt lat="45.30236" lon="6.17904">
        <ele>1804</ele>
        <time>2020-02-16T12:36:20.000Z</time>
      </trkpt>
      <trkpt lat="45.30236" lon="6.17911">
        <ele>1802.1999511719</ele>
        <time>2020-02-16T12:36:21.000Z</time>
      </trkpt>
      <trkpt lat="45.30234" lon="6.17916">
        <ele>1797.5999755859</ele>
        <time>2020-02-16T12:36:22.000Z</time>
      </trkpt>
      <trkpt lat="45.30232" lon="6.17922">
        <ele>1795.1999511719</ele>
        <time>2020-02-16T12:36:23.000Z</time>
      </trkpt>
      <trkpt lat="45.30231" lon="6.17928">
        <ele>1793</ele>
        <time>2020-02-16T12:36:24.000Z</time>
      </trkpt>
      <trkpt lat="45.3023" lon="6.17933">
        <ele>1791.4000244141</ele>
        <time>2020-02-16T12:36:25.000Z</time>
      </trkpt>
      <trkpt lat="45.3023" lon="6.17937">
        <ele>1789.8000488281</ele>
        <time>2020-02-16T12:36:26.000Z</time>
      </trkpt>
      <trkpt lat="45.30231" lon="6.17941">
        <ele>1788.4000244141</ele>
        <time>2020-02-16T12:36:27.000Z</time>
      </trkpt>
      <trkpt lat="45.30232" lon="6.17942">
        <ele>1786.8000488281</ele>
        <time>2020-02-16T12:36:28.000Z</time>
      </trkpt>
      <trkpt lat="45.30232" lon="6.17941">
        <ele>1785.4000244141</ele>
        <time>2020-02-16T12:36:29.000Z</time>
      </trkpt>
      <trkpt lat="45.30232" lon="6.17941">
        <ele>1784.4000244141</ele>
        <time>2020-02-16T12:36:30.000Z</time>
      </trkpt>
      <trkpt lat="45.30231" lon="6.17942">
        <ele>1783.4000244141</ele>
        <time>2020-02-16T12:36:31.000Z</time>
      </trkpt>
      <trkpt lat="45.30228" lon="6.17943">
        <ele>1782.8000488281</ele>
        <time>2020-02-16T12:36:32.000Z</time>
      </trkpt>
      <trkpt lat="45.30225" lon="6.17942">
        <ele>1782.4000244141</ele>
        <time>2020-02-16T12:36:33.000Z</time>
      </trkpt>
      <trkpt lat="45.30213" lon="6.17934">
        <ele>1781.4000244141</ele>
        <time>2020-02-16T12:36:35.000Z</time>
      </trkpt>
      <trkpt lat="45.30207" lon="6.17929">
        <ele>1780.5999755859</ele>
        <time>2020-02-16T12:36:36.000Z</time>
      </trkpt>
      <trkpt lat="45.30201" lon="6.17926">
        <ele>1779.5999755859</ele>
        <time>2020-02-16T12:36:37.000Z</time>
      </trkpt>
      <trkpt lat="45.30191" lon="6.17925">
        <ele>1777.5999755859</ele>
        <time>2020-02-16T12:36:39.000Z</time>
      </trkpt>
      <trkpt lat="45.30189" lon="6.17929">
        <ele>1776.4000244141</ele>
        <time>2020-02-16T12:36:40.000Z</time>
      </trkpt>
      <trkpt lat="45.30187" lon="6.17936">
        <ele>1775.4000244141</ele>
        <time>2020-02-16T12:36:41.000Z</time>
      </trkpt>
      <trkpt lat="45.30185" lon="6.17943">
        <ele>1774.5999755859</ele>
        <time>2020-02-16T12:36:42.000Z</time>
      </trkpt>
      <trkpt lat="45.30182" lon="6.17949">
        <ele>1774.1999511719</ele>
        <time>2020-02-16T12:36:43.000Z</time>
      </trkpt>
      <trkpt lat="45.30179" lon="6.17955">
        <ele>1773.4000244141</ele>
        <time>2020-02-16T12:36:44.000Z</time>
      </trkpt>
      <trkpt lat="45.3017" lon="6.17964">
        <ele>1771.1999511719</ele>
        <time>2020-02-16T12:36:46.000Z</time>
      </trkpt>
      <trkpt lat="45.30168" lon="6.17972">
        <ele>1769.1999511719</ele>
        <time>2020-02-16T12:36:48.000Z</time>
      </trkpt>
      <trkpt lat="45.30171" lon="6.17973">
        <ele>1767.4000244141</ele>
        <time>2020-02-16T12:36:50.000Z</time>
      </trkpt>
      <trkpt lat="45.30171" lon="6.17973">
        <ele>1766</ele>
        <time>2020-02-16T12:36:52.000Z</time>
      </trkpt>
      <trkpt lat="45.30171" lon="6.17973">
        <ele>1764.8000488281</ele>
        <time>2020-02-16T12:36:54.000Z</time>
      </trkpt>
      <trkpt lat="45.30173" lon="6.17973">
        <ele>1764.4000244141</ele>
        <time>2020-02-16T12:37:06.000Z</time>
      </trkpt>
      <trkpt lat="45.30173" lon="6.17981">
        <ele>1764.4000244141</ele>
        <time>2020-02-16T12:37:08.000Z</time>
      </trkpt>
      <trkpt lat="45.30171" lon="6.17989">
        <ele>1764.4000244141</ele>
        <time>2020-02-16T12:37:09.000Z</time>
      </trkpt>
      <trkpt lat="45.30168" lon="6.17995">
        <ele>1763.8000488281</ele>
        <time>2020-02-16T12:37:10.000Z</time>
      </trkpt>
      <trkpt lat="45.30161" lon="6.18004">
        <ele>1761.8000488281</ele>
        <time>2020-02-16T12:37:12.000Z</time>
      </trkpt>
      <trkpt lat="45.3016" lon="6.18007">
        <ele>1760.5999755859</ele>
        <time>2020-02-16T12:37:13.000Z</time>
      </trkpt>
      <trkpt lat="45.30161" lon="6.18011">
        <ele>1759.5999755859</ele>
        <time>2020-02-16T12:37:14.000Z</time>
      </trkpt>
      <trkpt lat="45.30162" lon="6.18014">
        <ele>1758.8000488281</ele>
        <time>2020-02-16T12:37:15.000Z</time>
      </trkpt>
      <trkpt lat="45.30161" lon="6.18025">
        <ele>1757</ele>
        <time>2020-02-16T12:37:17.000Z</time>
      </trkpt>
      <trkpt lat="45.30158" lon="6.18029">
        <ele>1755.8000488281</ele>
        <time>2020-02-16T12:37:18.000Z</time>
      </trkpt>
      <trkpt lat="45.30155" lon="6.18031">
        <ele>1754.5999755859</ele>
        <time>2020-02-16T12:37:19.000Z</time>
      </trkpt>
      <trkpt lat="45.30149" lon="6.18034">
        <ele>1753.4000244141</ele>
        <time>2020-02-16T12:37:20.000Z</time>
      </trkpt>
      <trkpt lat="45.30143" lon="6.18039">
        <ele>1752.1999511719</ele>
        <time>2020-02-16T12:37:21.000Z</time>
      </trkpt>
      <trkpt lat="45.30138" lon="6.18044">
        <ele>1751.1999511719</ele>
        <time>2020-02-16T12:37:22.000Z</time>
      </trkpt>
      <trkpt lat="45.30131" lon="6.18046">
        <ele>1750</ele>
        <time>2020-02-16T12:37:23.000Z</time>
      </trkpt>
      <trkpt lat="45.30125" lon="6.18047">
        <ele>1748.5999755859</ele>
        <time>2020-02-16T12:37:24.000Z</time>
      </trkpt>
      <trkpt lat="45.30118" lon="6.18051">
        <ele>1747.1999511719</ele>
        <time>2020-02-16T12:37:25.000Z</time>
      </trkpt>
      <trkpt lat="45.30111" lon="6.18055">
        <ele>1746</ele>
        <time>2020-02-16T12:37:26.000Z</time>
      </trkpt>
      <trkpt lat="45.30104" lon="6.18057">
        <ele>1744.8000488281</ele>
        <time>2020-02-16T12:37:27.000Z</time>
      </trkpt>
      <trkpt lat="45.30098" lon="6.18062">
        <ele>1743.8000488281</ele>
        <time>2020-02-16T12:37:28.000Z</time>
      </trkpt>
      <trkpt lat="45.30092" lon="6.18068">
        <ele>1742.8000488281</ele>
        <time>2020-02-16T12:37:29.000Z</time>
      </trkpt>
      <trkpt lat="45.30087" lon="6.18072">
        <ele>1742</ele>
        <time>2020-02-16T12:37:30.000Z</time>
      </trkpt>
      <trkpt lat="45.30083" lon="6.18075">
        <ele>1741.5999755859</ele>
        <time>2020-02-16T12:37:31.000Z</time>
      </trkpt>
      <trkpt lat="45.30075" lon="6.18074">
        <ele>1741</ele>
        <time>2020-02-16T12:37:34.000Z</time>
      </trkpt>
      <trkpt lat="45.30074" lon="6.18072">
        <ele>1740.8000488281</ele>
        <time>2020-02-16T12:37:35.000Z</time>
      </trkpt>
      <trkpt lat="45.30072" lon="6.18069">
        <ele>1741.1999511719</ele>
        <time>2020-02-16T12:37:40.000Z</time>
      </trkpt>
      <trkpt lat="45.30072" lon="6.18069">
        <ele>1740.8000488281</ele>
        <time>2020-02-16T12:37:53.000Z</time>
      </trkpt>
      <trkpt lat="45.30072" lon="6.18069">
        <ele>1740.5999755859</ele>
        <time>2020-02-16T12:38:06.000Z</time>
      </trkpt>
      <trkpt lat="45.30071" lon="6.18067">
        <ele>1741.1999511719</ele>
        <time>2020-02-16T12:38:21.000Z</time>
      </trkpt>
      <trkpt lat="45.30071" lon="6.18067">
        <ele>1741.1999511719</ele>
        <time>2020-02-16T12:38:33.000Z</time>
      </trkpt>
      <trkpt lat="45.30071" lon="6.18067">
        <ele>1741.4000244141</ele>
        <time>2020-02-16T12:38:47.000Z</time>
      </trkpt>
      <trkpt lat="45.3007" lon="6.18066">
        <ele>1741.4000244141</ele>
        <time>2020-02-16T12:39:04.000Z</time>
      </trkpt>
      <trkpt lat="45.3007" lon="6.18066">
        <ele>1741.4000244141</ele>
        <time>2020-02-16T12:39:19.000Z</time>
      </trkpt>
      <trkpt lat="45.30068" lon="6.18066">
        <ele>1741.5999755859</ele>
        <time>2020-02-16T12:39:23.000Z</time>
      </trkpt>
      <trkpt lat="45.30062" lon="6.18071">
        <ele>1741.4000244141</ele>
        <time>2020-02-16T12:39:25.000Z</time>
      </trkpt>
      <trkpt lat="45.3004" lon="6.18083">
        <ele>1740.4000244141</ele>
        <time>2020-02-16T12:39:30.000Z</time>
      </trkpt>
      <trkpt lat="45.30033" lon="6.18087">
        <ele>1739.5999755859</ele>
        <time>2020-02-16T12:39:32.000Z</time>
      </trkpt>
      <trkpt lat="45.30024" lon="6.18096">
        <ele>1738.1999511719</ele>
        <time>2020-02-16T12:39:35.000Z</time>
      </trkpt>
      <trkpt lat="45.30021" lon="6.18099">
        <ele>1738</ele>
        <time>2020-02-16T12:39:36.000Z</time>
      </trkpt>
      <trkpt lat="45.3001" lon="6.18115">
        <ele>1736.8000488281</ele>
        <time>2020-02-16T12:39:40.000Z</time>
      </trkpt>
      <trkpt lat="45.30005" lon="6.18126">
        <ele>1735.8000488281</ele>
        <time>2020-02-16T12:39:42.000Z</time>
      </trkpt>
      <trkpt lat="45.30003" lon="6.18131">
        <ele>1735.1999511719</ele>
        <time>2020-02-16T12:39:43.000Z</time>
      </trkpt>
      <trkpt lat="45.30008" lon="6.18141">
        <ele>1734.1999511719</ele>
        <time>2020-02-16T12:39:45.000Z</time>
      </trkpt>
      <trkpt lat="45.30012" lon="6.18151">
        <ele>1733.1999511719</ele>
        <time>2020-02-16T12:39:47.000Z</time>
      </trkpt>
      <trkpt lat="45.30011" lon="6.18155">
        <ele>1732.5999755859</ele>
        <time>2020-02-16T12:39:48.000Z</time>
      </trkpt>
      <trkpt lat="45.30017" lon="6.18161">
        <ele>1730.8000488281</ele>
        <time>2020-02-16T12:39:50.000Z</time>
      </trkpt>
      <trkpt lat="45.30027" lon="6.18171">
        <ele>1729</ele>
        <time>2020-02-16T12:39:52.000Z</time>
      </trkpt>
      <trkpt lat="45.30034" lon="6.1818">
        <ele>1726.5999755859</ele>
        <time>2020-02-16T12:39:54.000Z</time>
      </trkpt>
      <trkpt lat="45.30034" lon="6.18185">
        <ele>1725.1999511719</ele>
        <time>2020-02-16T12:39:55.000Z</time>
      </trkpt>
      <trkpt lat="45.30036" lon="6.18189">
        <ele>1723.5999755859</ele>
        <time>2020-02-16T12:39:56.000Z</time>
      </trkpt>
      <trkpt lat="45.30039" lon="6.18196">
        <ele>1722.1999511719</ele>
        <time>2020-02-16T12:39:57.000Z</time>
      </trkpt>
      <trkpt lat="45.30043" lon="6.18201">
        <ele>1720.4000244141</ele>
        <time>2020-02-16T12:39:58.000Z</time>
      </trkpt>
      <trkpt lat="45.30051" lon="6.18202">
        <ele>1717.5999755859</ele>
        <time>2020-02-16T12:39:59.000Z</time>
      </trkpt>
      <trkpt lat="45.30058" lon="6.18202">
        <ele>1716.5999755859</ele>
        <time>2020-02-16T12:40:00.000Z</time>
      </trkpt>
      <trkpt lat="45.30065" lon="6.18206">
        <ele>1715.4000244141</ele>
        <time>2020-02-16T12:40:01.000Z</time>
      </trkpt>
      <trkpt lat="45.3007" lon="6.1821">
        <ele>1714.4000244141</ele>
        <time>2020-02-16T12:40:02.000Z</time>
      </trkpt>
      <trkpt lat="45.30073" lon="6.18213">
        <ele>1713.1999511719</ele>
        <time>2020-02-16T12:40:03.000Z</time>
      </trkpt>
      <trkpt lat="45.30076" lon="6.18219">
        <ele>1712</ele>
        <time>2020-02-16T12:40:04.000Z</time>
      </trkpt>
      <trkpt lat="45.30076" lon="6.18226">
        <ele>1710.8000488281</ele>
        <time>2020-02-16T12:40:05.000Z</time>
      </trkpt>
      <trkpt lat="45.30074" lon="6.18236">
        <ele>1709.5999755859</ele>
        <time>2020-02-16T12:40:07.000Z</time>
      </trkpt>
      <trkpt lat="45.30076" lon="6.18243">
        <ele>1708.8000488281</ele>
        <time>2020-02-16T12:40:08.000Z</time>
      </trkpt>
      <trkpt lat="45.3008" lon="6.18249">
        <ele>1707.8000488281</ele>
        <time>2020-02-16T12:40:09.000Z</time>
      </trkpt>
      <trkpt lat="45.30082" lon="6.18254">
        <ele>1706.5999755859</ele>
        <time>2020-02-16T12:40:10.000Z</time>
      </trkpt>
      <trkpt lat="45.30082" lon="6.18261">
        <ele>1705.1999511719</ele>
        <time>2020-02-16T12:40:11.000Z</time>
      </trkpt>
      <trkpt lat="45.30083" lon="6.18268">
        <ele>1703.5999755859</ele>
        <time>2020-02-16T12:40:12.000Z</time>
      </trkpt>
      <trkpt lat="45.30084" lon="6.18277">
        <ele>1702</ele>
        <time>2020-02-16T12:40:13.000Z</time>
      </trkpt>
      <trkpt lat="45.30086" lon="6.18285">
        <ele>1700.5999755859</ele>
        <time>2020-02-16T12:40:14.000Z</time>
      </trkpt>
      <trkpt lat="45.30084" lon="6.18294">
        <ele>1699.5999755859</ele>
        <time>2020-02-16T12:40:15.000Z</time>
      </trkpt>
      <trkpt lat="45.30083" lon="6.18301">
        <ele>1698.1999511719</ele>
        <time>2020-02-16T12:40:16.000Z</time>
      </trkpt>
      <trkpt lat="45.30083" lon="6.18309">
        <ele>1696.8000488281</ele>
        <time>2020-02-16T12:40:17.000Z</time>
      </trkpt>
      <trkpt lat="45.30083" lon="6.18318">
        <ele>1695.4000244141</ele>
        <time>2020-02-16T12:40:18.000Z</time>
      </trkpt>
      <trkpt lat="45.30085" lon="6.18324">
        <ele>1694.1999511719</ele>
        <time>2020-02-16T12:40:19.000Z</time>
      </trkpt>
      <trkpt lat="45.30089" lon="6.18329">
        <ele>1692.8000488281</ele>
        <time>2020-02-16T12:40:20.000Z</time>
      </trkpt>
      <trkpt lat="45.30093" lon="6.18335">
        <ele>1691.5999755859</ele>
        <time>2020-02-16T12:40:21.000Z</time>
      </trkpt>
      <trkpt lat="45.30096" lon="6.18342">
        <ele>1690.1999511719</ele>
        <time>2020-02-16T12:40:22.000Z</time>
      </trkpt>
      <trkpt lat="45.30099" lon="6.1835">
        <ele>1688</ele>
        <time>2020-02-16T12:40:23.000Z</time>
      </trkpt>
      <trkpt lat="45.30102" lon="6.18358">
        <ele>1687</ele>
        <time>2020-02-16T12:40:24.000Z</time>
      </trkpt>
      <trkpt lat="45.30106" lon="6.18362">
        <ele>1685.8000488281</ele>
        <time>2020-02-16T12:40:25.000Z</time>
      </trkpt>
      <trkpt lat="45.30109" lon="6.18366">
        <ele>1684.8000488281</ele>
        <time>2020-02-16T12:40:26.000Z</time>
      </trkpt>
      <trkpt lat="45.30112" lon="6.18367">
        <ele>1684</ele>
        <time>2020-02-16T12:40:27.000Z</time>
      </trkpt>
      <trkpt lat="45.30115" lon="6.18368">
        <ele>1683.1999511719</ele>
        <time>2020-02-16T12:40:28.000Z</time>
      </trkpt>
      <trkpt lat="45.30117" lon="6.1837">
        <ele>1682.5999755859</ele>
        <time>2020-02-16T12:40:29.000Z</time>
      </trkpt>
      <trkpt lat="45.30118" lon="6.18375">
        <ele>1682.1999511719</ele>
        <time>2020-02-16T12:40:30.000Z</time>
      </trkpt>
      <trkpt lat="45.30122" lon="6.18393">
        <ele>1681.4000244141</ele>
        <time>2020-02-16T12:40:33.000Z</time>
      </trkpt>
      <trkpt lat="45.30122" lon="6.18403">
        <ele>1681</ele>
        <time>2020-02-16T12:40:34.000Z</time>
      </trkpt>
      <trkpt lat="45.30124" lon="6.18422">
        <ele>1680</ele>
        <time>2020-02-16T12:40:36.000Z</time>
      </trkpt>
      <trkpt lat="45.30125" lon="6.18431">
        <ele>1679.1999511719</ele>
        <time>2020-02-16T12:40:37.000Z</time>
      </trkpt>
      <trkpt lat="45.30126" lon="6.1844">
        <ele>1678.4000244141</ele>
        <time>2020-02-16T12:40:38.000Z</time>
      </trkpt>
      <trkpt lat="45.30126" lon="6.1846">
        <ele>1676.5999755859</ele>
        <time>2020-02-16T12:40:40.000Z</time>
      </trkpt>
      <trkpt lat="45.30125" lon="6.18478">
        <ele>1674.8000488281</ele>
        <time>2020-02-16T12:40:42.000Z</time>
      </trkpt>
      <trkpt lat="45.30125" lon="6.18484">
        <ele>1673.8000488281</ele>
        <time>2020-02-16T12:40:43.000Z</time>
      </trkpt>
      <trkpt lat="45.30126" lon="6.18487">
        <ele>1672.8000488281</ele>
        <time>2020-02-16T12:40:44.000Z</time>
      </trkpt>
      <trkpt lat="45.30126" lon="6.1849">
        <ele>1671.8000488281</ele>
        <time>2020-02-16T12:40:45.000Z</time>
      </trkpt>
      <trkpt lat="45.30126" lon="6.18491">
        <ele>1670.8000488281</ele>
        <time>2020-02-16T12:40:46.000Z</time>
      </trkpt>
      <trkpt lat="45.30126" lon="6.18492">
        <ele>1669.8000488281</ele>
        <time>2020-02-16T12:40:47.000Z</time>
      </trkpt>
      <trkpt lat="45.30127" lon="6.185">
        <ele>1669.1999511719</ele>
        <time>2020-02-16T12:40:51.000Z</time>
      </trkpt>
      <trkpt lat="45.30124" lon="6.18513">
        <ele>1668.5999755859</ele>
        <time>2020-02-16T12:40:54.000Z</time>
      </trkpt>
      <trkpt lat="45.30125" lon="6.18517">
        <ele>1668.4000244141</ele>
        <time>2020-02-16T12:40:55.000Z</time>
      </trkpt>
      <trkpt lat="45.30125" lon="6.18526">
        <ele>1667.4000244141</ele>
        <time>2020-02-16T12:40:57.000Z</time>
      </trkpt>
      <trkpt lat="45.30124" lon="6.18537">
        <ele>1665.8000488281</ele>
        <time>2020-02-16T12:40:59.000Z</time>
      </trkpt>
      <trkpt lat="45.30124" lon="6.18544">
        <ele>1665.1999511719</ele>
        <time>2020-02-16T12:41:00.000Z</time>
      </trkpt>
      <trkpt lat="45.30125" lon="6.18551">
        <ele>1664.5999755859</ele>
        <time>2020-02-16T12:41:01.000Z</time>
      </trkpt>
      <trkpt lat="45.30127" lon="6.18563">
        <ele>1663.4000244141</ele>
        <time>2020-02-16T12:41:03.000Z</time>
      </trkpt>
      <trkpt lat="45.3013" lon="6.18571">
        <ele>1662.1999511719</ele>
        <time>2020-02-16T12:41:05.000Z</time>
      </trkpt>
      <trkpt lat="45.3013" lon="6.18583">
        <ele>1660.5999755859</ele>
        <time>2020-02-16T12:41:07.000Z</time>
      </trkpt>
      <trkpt lat="45.30129" lon="6.18591">
        <ele>1659.8000488281</ele>
        <time>2020-02-16T12:41:08.000Z</time>
      </trkpt>
      <trkpt lat="45.30127" lon="6.18601">
        <ele>1659.1999511719</ele>
        <time>2020-02-16T12:41:09.000Z</time>
      </trkpt>
      <trkpt lat="45.30125" lon="6.18618">
        <ele>1656.5999755859</ele>
        <time>2020-02-16T12:41:11.000Z</time>
      </trkpt>
      <trkpt lat="45.30124" lon="6.18626">
        <ele>1655.4000244141</ele>
        <time>2020-02-16T12:41:12.000Z</time>
      </trkpt>
      <trkpt lat="45.30123" lon="6.18633">
        <ele>1654.1999511719</ele>
        <time>2020-02-16T12:41:13.000Z</time>
      </trkpt>
      <trkpt lat="45.3012" lon="6.18642">
        <ele>1652.8000488281</ele>
        <time>2020-02-16T12:41:14.000Z</time>
      </trkpt>
      <trkpt lat="45.30117" lon="6.1865">
        <ele>1651.4000244141</ele>
        <time>2020-02-16T12:41:15.000Z</time>
      </trkpt>
      <trkpt lat="45.30115" lon="6.18659">
        <ele>1650.1999511719</ele>
        <time>2020-02-16T12:41:16.000Z</time>
      </trkpt>
      <trkpt lat="45.30112" lon="6.18667">
        <ele>1649</ele>
        <time>2020-02-16T12:41:17.000Z</time>
      </trkpt>
      <trkpt lat="45.30111" lon="6.18674">
        <ele>1647.5999755859</ele>
        <time>2020-02-16T12:41:18.000Z</time>
      </trkpt>
      <trkpt lat="45.3011" lon="6.18681">
        <ele>1646.1999511719</ele>
        <time>2020-02-16T12:41:19.000Z</time>
      </trkpt>
      <trkpt lat="45.30109" lon="6.18688">
        <ele>1645</ele>
        <time>2020-02-16T12:41:20.000Z</time>
      </trkpt>
      <trkpt lat="45.30107" lon="6.18697">
        <ele>1643.5999755859</ele>
        <time>2020-02-16T12:41:21.000Z</time>
      </trkpt>
      <trkpt lat="45.30104" lon="6.18704">
        <ele>1642.5999755859</ele>
        <time>2020-02-16T12:41:22.000Z</time>
      </trkpt>
      <trkpt lat="45.30103" lon="6.18712">
        <ele>1641.4000244141</ele>
        <time>2020-02-16T12:41:23.000Z</time>
      </trkpt>
      <trkpt lat="45.30101" lon="6.18719">
        <ele>1640.1999511719</ele>
        <time>2020-02-16T12:41:24.000Z</time>
      </trkpt>
      <trkpt lat="45.301" lon="6.18725">
        <ele>1639</ele>
        <time>2020-02-16T12:41:25.000Z</time>
      </trkpt>
      <trkpt lat="45.30099" lon="6.18732">
        <ele>1637.8000488281</ele>
        <time>2020-02-16T12:41:26.000Z</time>
      </trkpt>
      <trkpt lat="45.30097" lon="6.18739">
        <ele>1636.5999755859</ele>
        <time>2020-02-16T12:41:27.000Z</time>
      </trkpt>
      <trkpt lat="45.30095" lon="6.18746">
        <ele>1635.5999755859</ele>
        <time>2020-02-16T12:41:28.000Z</time>
      </trkpt>
      <trkpt lat="45.30094" lon="6.18752">
        <ele>1634.4000244141</ele>
        <time>2020-02-16T12:41:29.000Z</time>
      </trkpt>
      <trkpt lat="45.30092" lon="6.18762">
        <ele>1632.4000244141</ele>
        <time>2020-02-16T12:41:31.000Z</time>
      </trkpt>
      <trkpt lat="45.3009" lon="6.18769">
        <ele>1631.5999755859</ele>
        <time>2020-02-16T12:41:32.000Z</time>
      </trkpt>
      <trkpt lat="45.30088" lon="6.18776">
        <ele>1630.8000488281</ele>
        <time>2020-02-16T12:41:33.000Z</time>
      </trkpt>
      <trkpt lat="45.30083" lon="6.1879">
        <ele>1628.8000488281</ele>
        <time>2020-02-16T12:41:35.000Z</time>
      </trkpt>
      <trkpt lat="45.30081" lon="6.18796">
        <ele>1628.1999511719</ele>
        <time>2020-02-16T12:41:36.000Z</time>
      </trkpt>
      <trkpt lat="45.30078" lon="6.18803">
        <ele>1627.4000244141</ele>
        <time>2020-02-16T12:41:37.000Z</time>
      </trkpt>
      <trkpt lat="45.30075" lon="6.1881">
        <ele>1626.5999755859</ele>
        <time>2020-02-16T12:41:38.000Z</time>
      </trkpt>
      <trkpt lat="45.30073" lon="6.18816">
        <ele>1625.8000488281</ele>
        <time>2020-02-16T12:41:39.000Z</time>
      </trkpt>
      <trkpt lat="45.30068" lon="6.18828">
        <ele>1624.1999511719</ele>
        <time>2020-02-16T12:41:41.000Z</time>
      </trkpt>
      <trkpt lat="45.30064" lon="6.18834">
        <ele>1622.4000244141</ele>
        <time>2020-02-16T12:41:43.000Z</time>
      </trkpt>
      <trkpt lat="45.3006" lon="6.18843">
        <ele>1621.1999511719</ele>
        <time>2020-02-16T12:41:45.000Z</time>
      </trkpt>
      <trkpt lat="45.30055" lon="6.18861">
        <ele>1620</ele>
        <time>2020-02-16T12:41:48.000Z</time>
      </trkpt>
      <trkpt lat="45.30055" lon="6.18868">
        <ele>1618.8000488281</ele>
        <time>2020-02-16T12:41:50.000Z</time>
      </trkpt>
      <trkpt lat="45.30054" lon="6.18879">
        <ele>1617.4000244141</ele>
        <time>2020-02-16T12:41:52.000Z</time>
      </trkpt>
      <trkpt lat="45.30051" lon="6.18886">
        <ele>1616.8000488281</ele>
        <time>2020-02-16T12:41:53.000Z</time>
      </trkpt>
      <trkpt lat="45.30049" lon="6.18892">
        <ele>1616.1999511719</ele>
        <time>2020-02-16T12:41:54.000Z</time>
      </trkpt>
      <trkpt lat="45.30045" lon="6.18903">
        <ele>1615</ele>
        <time>2020-02-16T12:41:56.000Z</time>
      </trkpt>
      <trkpt lat="45.30043" lon="6.18909">
        <ele>1614.1999511719</ele>
        <time>2020-02-16T12:41:57.000Z</time>
      </trkpt>
      <trkpt lat="45.30042" lon="6.18914">
        <ele>1613.4000244141</ele>
        <time>2020-02-16T12:41:58.000Z</time>
      </trkpt>
      <trkpt lat="45.3004" lon="6.18917">
        <ele>1612</ele>
        <time>2020-02-16T12:41:59.000Z</time>
      </trkpt>
      <trkpt lat="45.30038" lon="6.18923">
        <ele>1610.8000488281</ele>
        <time>2020-02-16T12:42:01.000Z</time>
      </trkpt>
      <trkpt lat="45.30035" lon="6.18931">
        <ele>1609.8000488281</ele>
        <time>2020-02-16T12:42:03.000Z</time>
      </trkpt>
      <trkpt lat="45.30031" lon="6.18942">
        <ele>1609</ele>
        <time>2020-02-16T12:42:05.000Z</time>
      </trkpt>
      <trkpt lat="45.30027" lon="6.1895">
        <ele>1608.4000244141</ele>
        <time>2020-02-16T12:42:06.000Z</time>
      </trkpt>
      <trkpt lat="45.3002" lon="6.18964">
        <ele>1607.1999511719</ele>
        <time>2020-02-16T12:42:08.000Z</time>
      </trkpt>
      <trkpt lat="45.30017" lon="6.18969">
        <ele>1606.1999511719</ele>
        <time>2020-02-16T12:42:09.000Z</time>
      </trkpt>
      <trkpt lat="45.30015" lon="6.18974">
        <ele>1605</ele>
        <time>2020-02-16T12:42:10.000Z</time>
      </trkpt>
      <trkpt lat="45.30013" lon="6.18978">
        <ele>1604</ele>
        <time>2020-02-16T12:42:11.000Z</time>
      </trkpt>
      <trkpt lat="45.3001" lon="6.18985">
        <ele>1602.4000244141</ele>
        <time>2020-02-16T12:42:13.000Z</time>
      </trkpt>
      <trkpt lat="45.30009" lon="6.18988">
        <ele>1601.8000488281</ele>
        <time>2020-02-16T12:42:14.000Z</time>
      </trkpt>
      <trkpt lat="45.30007" lon="6.18991">
        <ele>1601.4000244141</ele>
        <time>2020-02-16T12:42:15.000Z</time>
      </trkpt>
      <trkpt lat="45.30001" lon="6.19002">
        <ele>1600.1999511719</ele>
        <time>2020-02-16T12:42:18.000Z</time>
      </trkpt>
      <trkpt lat="45.29998" lon="6.19007">
        <ele>1599.8000488281</ele>
        <time>2020-02-16T12:42:19.000Z</time>
      </trkpt>
      <trkpt lat="45.29996" lon="6.19013">
        <ele>1599.5999755859</ele>
        <time>2020-02-16T12:42:20.000Z</time>
      </trkpt>
      <trkpt lat="45.29991" lon="6.19021">
        <ele>1598.8000488281</ele>
        <time>2020-02-16T12:42:22.000Z</time>
      </trkpt>
      <trkpt lat="45.2999" lon="6.19024">
        <ele>1597.5999755859</ele>
        <time>2020-02-16T12:42:23.000Z</time>
      </trkpt>
      <trkpt lat="45.29985" lon="6.19031">
        <ele>1596.4000244141</ele>
        <time>2020-02-16T12:42:25.000Z</time>
      </trkpt>
      <trkpt lat="45.29979" lon="6.19044">
        <ele>1595.1999511719</ele>
        <time>2020-02-16T12:42:27.000Z</time>
      </trkpt>
      <trkpt lat="45.29976" lon="6.19051">
        <ele>1594.8000488281</ele>
        <time>2020-02-16T12:42:28.000Z</time>
      </trkpt>
      <trkpt lat="45.2997" lon="6.19067">
        <ele>1593.8000488281</ele>
        <time>2020-02-16T12:42:30.000Z</time>
      </trkpt>
      <trkpt lat="45.29966" lon="6.19072">
        <ele>1593</ele>
        <time>2020-02-16T12:42:31.000Z</time>
      </trkpt>
      <trkpt lat="45.29964" lon="6.19076">
        <ele>1592</ele>
        <time>2020-02-16T12:42:32.000Z</time>
      </trkpt>
      <trkpt lat="45.29959" lon="6.19081">
        <ele>1590.1999511719</ele>
        <time>2020-02-16T12:42:34.000Z</time>
      </trkpt>
      <trkpt lat="45.29953" lon="6.19088">
        <ele>1588.8000488281</ele>
        <time>2020-02-16T12:42:36.000Z</time>
      </trkpt>
      <trkpt lat="45.2995" lon="6.19091">
        <ele>1588.5999755859</ele>
        <time>2020-02-16T12:42:37.000Z</time>
      </trkpt>
      <trkpt lat="45.29944" lon="6.19104">
        <ele>1587.5999755859</ele>
        <time>2020-02-16T12:42:41.000Z</time>
      </trkpt>
      <trkpt lat="45.29941" lon="6.19108">
        <ele>1586.8000488281</ele>
        <time>2020-02-16T12:42:43.000Z</time>
      </trkpt>
      <trkpt lat="45.2994" lon="6.19111">
        <ele>1586.4000244141</ele>
        <time>2020-02-16T12:42:44.000Z</time>
      </trkpt>
      <trkpt lat="45.29939" lon="6.1912">
        <ele>1585.4000244141</ele>
        <time>2020-02-16T12:42:47.000Z</time>
      </trkpt>
      <trkpt lat="45.29938" lon="6.19132">
        <ele>1584.5999755859</ele>
        <time>2020-02-16T12:42:50.000Z</time>
      </trkpt>
      <trkpt lat="45.29937" lon="6.19137">
        <ele>1584.1999511719</ele>
        <time>2020-02-16T12:42:51.000Z</time>
      </trkpt>
      <trkpt lat="45.29935" lon="6.19154">
        <ele>1582.8000488281</ele>
        <time>2020-02-16T12:42:54.000Z</time>
      </trkpt>
      <trkpt lat="45.29932" lon="6.19163">
        <ele>1581.8000488281</ele>
        <time>2020-02-16T12:42:56.000Z</time>
      </trkpt>
      <trkpt lat="45.29932" lon="6.1917">
        <ele>1580.5999755859</ele>
        <time>2020-02-16T12:42:58.000Z</time>
      </trkpt>
      <trkpt lat="45.29932" lon="6.19175">
        <ele>1580.1999511719</ele>
        <time>2020-02-16T12:42:59.000Z</time>
      </trkpt>
      <trkpt lat="45.29931" lon="6.19181">
        <ele>1579.5999755859</ele>
        <time>2020-02-16T12:43:00.000Z</time>
      </trkpt>
      <trkpt lat="45.29928" lon="6.19195">
        <ele>1578.1999511719</ele>
        <time>2020-02-16T12:43:03.000Z</time>
      </trkpt>
      <trkpt lat="45.29927" lon="6.19198">
        <ele>1577.5999755859</ele>
        <time>2020-02-16T12:43:04.000Z</time>
      </trkpt>
      <trkpt lat="45.29927" lon="6.19202">
        <ele>1576.8000488281</ele>
        <time>2020-02-16T12:43:05.000Z</time>
      </trkpt>
      <trkpt lat="45.29924" lon="6.19217">
        <ele>1575.5999755859</ele>
        <time>2020-02-16T12:43:08.000Z</time>
      </trkpt>
      <trkpt lat="45.29921" lon="6.19239">
        <ele>1573.4000244141</ele>
        <time>2020-02-16T12:43:11.000Z</time>
      </trkpt>
      <trkpt lat="45.29918" lon="6.19248">
        <ele>1572.5999755859</ele>
        <time>2020-02-16T12:43:12.000Z</time>
      </trkpt>
      <trkpt lat="45.29914" lon="6.19258">
        <ele>1571.5999755859</ele>
        <time>2020-02-16T12:43:13.000Z</time>
      </trkpt>
      <trkpt lat="45.29909" lon="6.19267">
        <ele>1570.4000244141</ele>
        <time>2020-02-16T12:43:14.000Z</time>
      </trkpt>
      <trkpt lat="45.29905" lon="6.19275">
        <ele>1568.8000488281</ele>
        <time>2020-02-16T12:43:15.000Z</time>
      </trkpt>
      <trkpt lat="45.29902" lon="6.19282">
        <ele>1567</ele>
        <time>2020-02-16T12:43:16.000Z</time>
      </trkpt>
      <trkpt lat="45.29899" lon="6.19289">
        <ele>1565.1999511719</ele>
        <time>2020-02-16T12:43:17.000Z</time>
      </trkpt>
      <trkpt lat="45.29896" lon="6.19296">
        <ele>1563.5999755859</ele>
        <time>2020-02-16T12:43:18.000Z</time>
      </trkpt>
      <trkpt lat="45.29892" lon="6.19301">
        <ele>1562.4000244141</ele>
        <time>2020-02-16T12:43:19.000Z</time>
      </trkpt>
      <trkpt lat="45.29889" lon="6.19305">
        <ele>1561.4000244141</ele>
        <time>2020-02-16T12:43:20.000Z</time>
      </trkpt>
      <trkpt lat="45.29886" lon="6.19308">
        <ele>1560.4000244141</ele>
        <time>2020-02-16T12:43:21.000Z</time>
      </trkpt>
      <trkpt lat="45.29884" lon="6.1931">
        <ele>1559.5999755859</ele>
        <time>2020-02-16T12:43:22.000Z</time>
      </trkpt>
      <trkpt lat="45.29879" lon="6.19314">
        <ele>1557.8000488281</ele>
        <time>2020-02-16T12:43:24.000Z</time>
      </trkpt>
      <trkpt lat="45.29879" lon="6.19315">
        <ele>1557.1999511719</ele>
        <time>2020-02-16T12:43:25.000Z</time>
      </trkpt>
      <trkpt lat="45.29878" lon="6.19314">
        <ele>1556.8000488281</ele>
        <time>2020-02-16T12:43:28.000Z</time>
      </trkpt>
      <trkpt lat="45.29878" lon="6.19314">
        <ele>1556.8000488281</ele>
        <time>2020-02-16T12:43:31.000Z</time>
      </trkpt>
      <trkpt lat="45.2988" lon="6.19318">
        <ele>1556.8000488281</ele>
        <time>2020-02-16T12:43:35.000Z</time>
      </trkpt>
      <trkpt lat="45.2988" lon="6.19324">
        <ele>1556.8000488281</ele>
        <time>2020-02-16T12:43:37.000Z</time>
      </trkpt>
      <trkpt lat="45.29883" lon="6.19338">
        <ele>1555.8000488281</ele>
        <time>2020-02-16T12:43:41.000Z</time>
      </trkpt>
      <trkpt lat="45.29883" lon="6.19352">
        <ele>1554.4000244141</ele>
        <time>2020-02-16T12:43:44.000Z</time>
      </trkpt>
      <trkpt lat="45.29883" lon="6.19356">
        <ele>1554</ele>
        <time>2020-02-16T12:43:45.000Z</time>
      </trkpt>
      <trkpt lat="45.29884" lon="6.19363">
        <ele>1553</ele>
        <time>2020-02-16T12:43:47.000Z</time>
      </trkpt>
      <trkpt lat="45.29885" lon="6.1937">
        <ele>1551.8000488281</ele>
        <time>2020-02-16T12:43:49.000Z</time>
      </trkpt>
      <trkpt lat="45.29882" lon="6.19381">
        <ele>1550.5999755859</ele>
        <time>2020-02-16T12:43:53.000Z</time>
      </trkpt>
      <trkpt lat="45.29882" lon="6.19383">
        <ele>1550.1999511719</ele>
        <time>2020-02-16T12:43:54.000Z</time>
      </trkpt>
      <trkpt lat="45.2988" lon="6.19388">
        <ele>1549.4000244141</ele>
        <time>2020-02-16T12:43:56.000Z</time>
      </trkpt>
      <trkpt lat="45.29879" lon="6.19402">
        <ele>1548.1999511719</ele>
        <time>2020-02-16T12:44:00.000Z</time>
      </trkpt>
      <trkpt lat="45.29879" lon="6.19405">
        <ele>1548</ele>
        <time>2020-02-16T12:44:01.000Z</time>
      </trkpt>
      <trkpt lat="45.29878" lon="6.19411">
        <ele>1547</ele>
        <time>2020-02-16T12:44:03.000Z</time>
      </trkpt>
      <trkpt lat="45.29874" lon="6.19421">
        <ele>1545.8000488281</ele>
        <time>2020-02-16T12:44:06.000Z</time>
      </trkpt>
      <trkpt lat="45.29869" lon="6.19434">
        <ele>1544.5999755859</ele>
        <time>2020-02-16T12:44:10.000Z</time>
      </trkpt>
      <trkpt lat="45.29868" lon="6.19439">
        <ele>1544.1999511719</ele>
        <time>2020-02-16T12:44:11.000Z</time>
      </trkpt>
      <trkpt lat="45.29864" lon="6.19448">
        <ele>1543.5999755859</ele>
        <time>2020-02-16T12:44:13.000Z</time>
      </trkpt>
      <trkpt lat="45.29858" lon="6.19457">
        <ele>1543.1999511719</ele>
        <time>2020-02-16T12:44:15.000Z</time>
      </trkpt>
      <trkpt lat="45.29852" lon="6.19466">
        <ele>1542.4000244141</ele>
        <time>2020-02-16T12:44:17.000Z</time>
      </trkpt>
      <trkpt lat="45.29847" lon="6.19474">
        <ele>1541.1999511719</ele>
        <time>2020-02-16T12:44:19.000Z</time>
      </trkpt>
      <trkpt lat="45.29841" lon="6.1948">
        <ele>1540</ele>
        <time>2020-02-16T12:44:21.000Z</time>
      </trkpt>
      <trkpt lat="45.29837" lon="6.19484">
        <ele>1539.4000244141</ele>
        <time>2020-02-16T12:44:22.000Z</time>
      </trkpt>
      <trkpt lat="45.29834" lon="6.19488">
        <ele>1538.4000244141</ele>
        <time>2020-02-16T12:44:23.000Z</time>
      </trkpt>
      <trkpt lat="45.29826" lon="6.19495">
        <ele>1537.4000244141</ele>
        <time>2020-02-16T12:44:25.000Z</time>
      </trkpt>
      <trkpt lat="45.29822" lon="6.19499">
        <ele>1536.8000488281</ele>
        <time>2020-02-16T12:44:26.000Z</time>
      </trkpt>
      <trkpt lat="45.29818" lon="6.19501">
        <ele>1536</ele>
        <time>2020-02-16T12:44:27.000Z</time>
      </trkpt>
      <trkpt lat="45.29807" lon="6.19509">
        <ele>1535.1999511719</ele>
        <time>2020-02-16T12:44:31.000Z</time>
      </trkpt>
      <trkpt lat="45.29804" lon="6.19513">
        <ele>1535</ele>
        <time>2020-02-16T12:44:32.000Z</time>
      </trkpt>
      <trkpt lat="45.29795" lon="6.19523">
        <ele>1534.8000488281</ele>
        <time>2020-02-16T12:44:34.000Z</time>
      </trkpt>
      <trkpt lat="45.2978" lon="6.19538">
        <ele>1533.4000244141</ele>
        <time>2020-02-16T12:44:37.000Z</time>
      </trkpt>
      <trkpt lat="45.29776" lon="6.19542">
        <ele>1532.8000488281</ele>
        <time>2020-02-16T12:44:38.000Z</time>
      </trkpt>
      <trkpt lat="45.29774" lon="6.19546">
        <ele>1532.1999511719</ele>
        <time>2020-02-16T12:44:39.000Z</time>
      </trkpt>
      <trkpt lat="45.29772" lon="6.19548">
        <ele>1531.5999755859</ele>
        <time>2020-02-16T12:44:40.000Z</time>
      </trkpt>
      <trkpt lat="45.29771" lon="6.19551">
        <ele>1531</ele>
        <time>2020-02-16T12:44:42.000Z</time>
      </trkpt>
      <trkpt lat="45.29763" lon="6.19563">
        <ele>1530.4000244141</ele>
        <time>2020-02-16T12:44:46.000Z</time>
      </trkpt>
      <trkpt lat="45.29761" lon="6.19568">
        <ele>1529.8000488281</ele>
        <time>2020-02-16T12:44:47.000Z</time>
      </trkpt>
      <trkpt lat="45.2975" lon="6.19584">
        <ele>1528.1999511719</ele>
        <time>2020-02-16T12:44:50.000Z</time>
      </trkpt>
      <trkpt lat="45.29744" lon="6.19592">
        <ele>1526.5999755859</ele>
        <time>2020-02-16T12:44:52.000Z</time>
      </trkpt>
      <trkpt lat="45.29739" lon="6.196">
        <ele>1525.1999511719</ele>
        <time>2020-02-16T12:44:54.000Z</time>
      </trkpt>
      <trkpt lat="45.29736" lon="6.19606">
        <ele>1524.8000488281</ele>
        <time>2020-02-16T12:44:55.000Z</time>
      </trkpt>
      <trkpt lat="45.29731" lon="6.19615">
        <ele>1524</ele>
        <time>2020-02-16T12:44:57.000Z</time>
      </trkpt>
      <trkpt lat="45.29728" lon="6.1962">
        <ele>1523.5999755859</ele>
        <time>2020-02-16T12:44:58.000Z</time>
      </trkpt>
      <trkpt lat="45.29725" lon="6.19625">
        <ele>1523</ele>
        <time>2020-02-16T12:44:59.000Z</time>
      </trkpt>
      <trkpt lat="45.29723" lon="6.1963">
        <ele>1522.4000244141</ele>
        <time>2020-02-16T12:45:00.000Z</time>
      </trkpt>
      <trkpt lat="45.29717" lon="6.19643">
        <ele>1521.1999511719</ele>
        <time>2020-02-16T12:45:03.000Z</time>
      </trkpt>
      <trkpt lat="45.29713" lon="6.19648">
        <ele>1520.8000488281</ele>
        <time>2020-02-16T12:45:04.000Z</time>
      </trkpt>
      <trkpt lat="45.29707" lon="6.19651">
        <ele>1520.4000244141</ele>
        <time>2020-02-16T12:45:05.000Z</time>
      </trkpt>
      <trkpt lat="45.29701" lon="6.19655">
        <ele>1520.1999511719</ele>
        <time>2020-02-16T12:45:06.000Z</time>
      </trkpt>
      <trkpt lat="45.29696" lon="6.19659">
        <ele>1519.8000488281</ele>
        <time>2020-02-16T12:45:07.000Z</time>
      </trkpt>
      <trkpt lat="45.29688" lon="6.19666">
        <ele>1518.4000244141</ele>
        <time>2020-02-16T12:45:09.000Z</time>
      </trkpt>
      <trkpt lat="45.29687" lon="6.19667">
        <ele>1517</ele>
        <time>2020-02-16T12:45:10.000Z</time>
      </trkpt>
      <trkpt lat="45.29686" lon="6.19668">
        <ele>1514.8000488281</ele>
        <time>2020-02-16T12:45:11.000Z</time>
      </trkpt>
      <trkpt lat="45.29682" lon="6.19672">
        <ele>1513.5999755859</ele>
        <time>2020-02-16T12:45:13.000Z</time>
      </trkpt>
      <trkpt lat="45.29676" lon="6.19678">
        <ele>1513.1999511719</ele>
        <time>2020-02-16T12:45:15.000Z</time>
      </trkpt>
      <trkpt lat="45.29672" lon="6.19687">
        <ele>1512.5999755859</ele>
        <time>2020-02-16T12:45:17.000Z</time>
      </trkpt>
      <trkpt lat="45.2967" lon="6.19692">
        <ele>1511.5999755859</ele>
        <time>2020-02-16T12:45:19.000Z</time>
      </trkpt>
      <trkpt lat="45.2967" lon="6.19693">
        <ele>1511.1999511719</ele>
        <time>2020-02-16T12:45:20.000Z</time>
      </trkpt>
      <trkpt lat="45.29666" lon="6.19697">
        <ele>1510.4000244141</ele>
        <time>2020-02-16T12:45:23.000Z</time>
      </trkpt>
      <trkpt lat="45.29664" lon="6.19701">
        <ele>1510</ele>
        <time>2020-02-16T12:45:24.000Z</time>
      </trkpt>
      <trkpt lat="45.2966" lon="6.19706">
        <ele>1510</ele>
        <time>2020-02-16T12:45:25.000Z</time>
      </trkpt>
      <trkpt lat="45.29657" lon="6.19712">
        <ele>1509.8000488281</ele>
        <time>2020-02-16T12:45:26.000Z</time>
      </trkpt>
      <trkpt lat="45.29657" lon="6.19719">
        <ele>1509.1999511719</ele>
        <time>2020-02-16T12:45:28.000Z</time>
      </trkpt>
      <trkpt lat="45.29658" lon="6.1972">
        <ele>1508.5999755859</ele>
        <time>2020-02-16T12:45:29.000Z</time>
      </trkpt>
      <trkpt lat="45.29659" lon="6.19722">
        <ele>1507.4000244141</ele>
        <time>2020-02-16T12:45:31.000Z</time>
      </trkpt>
      <trkpt lat="45.2966" lon="6.19722">
        <ele>1506.8000488281</ele>
        <time>2020-02-16T12:45:33.000Z</time>
      </trkpt>
      <trkpt lat="45.2966" lon="6.19722">
        <ele>1506.8000488281</ele>
        <time>2020-02-16T12:45:45.000Z</time>
      </trkpt>
      <trkpt lat="45.2966" lon="6.19722">
        <ele>1507</ele>
        <time>2020-02-16T12:45:58.000Z</time>
      </trkpt>
      <trkpt lat="45.2966" lon="6.19722">
        <ele>1506.8000488281</ele>
        <time>2020-02-16T12:46:10.000Z</time>
      </trkpt>
      <trkpt lat="45.2966" lon="6.19723">
        <ele>1506.5999755859</ele>
        <time>2020-02-16T12:46:19.000Z</time>
      </trkpt>
      <trkpt lat="45.2966" lon="6.19723">
        <ele>1506.5999755859</ele>
        <time>2020-02-16T12:46:32.000Z</time>
      </trkpt>
      <trkpt lat="45.2966" lon="6.19723">
        <ele>1506.4000244141</ele>
        <time>2020-02-16T12:46:39.000Z</time>
      </trkpt>
      <trkpt lat="45.29656" lon="6.19729">
        <ele>1506.4000244141</ele>
        <time>2020-02-16T12:46:41.000Z</time>
      </trkpt>
      <trkpt lat="45.29651" lon="6.19744">
        <ele>1506.1999511719</ele>
        <time>2020-02-16T12:46:44.000Z</time>
      </trkpt>
      <trkpt lat="45.2965" lon="6.19748">
        <ele>1506.1999511719</ele>
        <time>2020-02-16T12:46:45.000Z</time>
      </trkpt>
      <trkpt lat="45.29648" lon="6.19751">
        <ele>1505.1999511719</ele>
        <time>2020-02-16T12:46:47.000Z</time>
      </trkpt>
      <trkpt lat="45.29645" lon="6.19752">
        <ele>1504.8000488281</ele>
        <time>2020-02-16T12:46:48.000Z</time>
      </trkpt>
      <trkpt lat="45.2964" lon="6.19748">
        <ele>1503.8000488281</ele>
        <time>2020-02-16T12:46:50.000Z</time>
      </trkpt>
      <trkpt lat="45.29637" lon="6.19744">
        <ele>1503.1999511719</ele>
        <time>2020-02-16T12:46:51.000Z</time>
      </trkpt>
      <trkpt lat="45.29635" lon="6.1974">
        <ele>1502.4000244141</ele>
        <time>2020-02-16T12:46:52.000Z</time>
      </trkpt>
      <trkpt lat="45.29632" lon="6.19743">
        <ele>1501.8000488281</ele>
        <time>2020-02-16T12:46:53.000Z</time>
      </trkpt>
      <trkpt lat="45.29628" lon="6.19744">
        <ele>1501</ele>
        <time>2020-02-16T12:46:54.000Z</time>
      </trkpt>
      <trkpt lat="45.2962" lon="6.19752">
        <ele>1499.4000244141</ele>
        <time>2020-02-16T12:46:56.000Z</time>
      </trkpt>
      <trkpt lat="45.29617" lon="6.19758">
        <ele>1498</ele>
        <time>2020-02-16T12:46:57.000Z</time>
      </trkpt>
      <trkpt lat="45.29614" lon="6.19764">
        <ele>1496.5999755859</ele>
        <time>2020-02-16T12:46:58.000Z</time>
      </trkpt>
      <trkpt lat="45.29612" lon="6.1977">
        <ele>1495.4000244141</ele>
        <time>2020-02-16T12:46:59.000Z</time>
      </trkpt>
      <trkpt lat="45.29611" lon="6.19774">
        <ele>1494</ele>
        <time>2020-02-16T12:47:00.000Z</time>
      </trkpt>
      <trkpt lat="45.29609" lon="6.19778">
        <ele>1492.4000244141</ele>
        <time>2020-02-16T12:47:01.000Z</time>
      </trkpt>
      <trkpt lat="45.29608" lon="6.19782">
        <ele>1491</ele>
        <time>2020-02-16T12:47:02.000Z</time>
      </trkpt>
      <trkpt lat="45.29607" lon="6.19785">
        <ele>1489.8000488281</ele>
        <time>2020-02-16T12:47:03.000Z</time>
      </trkpt>
      <trkpt lat="45.29605" lon="6.19792">
        <ele>1488.8000488281</ele>
        <time>2020-02-16T12:47:04.000Z</time>
      </trkpt>
      <trkpt lat="45.29602" lon="6.198">
        <ele>1488</ele>
        <time>2020-02-16T12:47:05.000Z</time>
      </trkpt>
      <trkpt lat="45.29597" lon="6.19811">
        <ele>1486</ele>
        <time>2020-02-16T12:47:07.000Z</time>
      </trkpt>
      <trkpt lat="45.29595" lon="6.19812">
        <ele>1484.8000488281</ele>
        <time>2020-02-16T12:47:08.000Z</time>
      </trkpt>
      <trkpt lat="45.29595" lon="6.19812">
        <ele>1483.8000488281</ele>
        <time>2020-02-16T12:47:09.000Z</time>
      </trkpt>
      <trkpt lat="45.29594" lon="6.19811">
        <ele>1483</ele>
        <time>2020-02-16T12:47:10.000Z</time>
      </trkpt>
      <trkpt lat="45.29594" lon="6.19809">
        <ele>1481.8000488281</ele>
        <time>2020-02-16T12:47:11.000Z</time>
      </trkpt>
      <trkpt lat="45.29592" lon="6.19807">
        <ele>1480.5999755859</ele>
        <time>2020-02-16T12:47:15.000Z</time>
      </trkpt>
      <trkpt lat="45.2959" lon="6.19808">
        <ele>1480.4000244141</ele>
        <time>2020-02-16T12:47:16.000Z</time>
      </trkpt>
      <trkpt lat="45.29589" lon="6.19811">
        <ele>1480.4000244141</ele>
        <time>2020-02-16T12:47:17.000Z</time>
      </trkpt>
      <trkpt lat="45.29586" lon="6.19818">
        <ele>1480.1999511719</ele>
        <time>2020-02-16T12:47:19.000Z</time>
      </trkpt>
      <trkpt lat="45.29584" lon="6.19825">
        <ele>1479.5999755859</ele>
        <time>2020-02-16T12:47:21.000Z</time>
      </trkpt>
      <trkpt lat="45.29581" lon="6.19837">
        <ele>1479.1999511719</ele>
        <time>2020-02-16T12:47:23.000Z</time>
      </trkpt>
      <trkpt lat="45.29579" lon="6.19844">
        <ele>1478.5999755859</ele>
        <time>2020-02-16T12:47:24.000Z</time>
      </trkpt>
      <trkpt lat="45.29579" lon="6.1985">
        <ele>1478</ele>
        <time>2020-02-16T12:47:25.000Z</time>
      </trkpt>
      <trkpt lat="45.29579" lon="6.19862">
        <ele>1477</ele>
        <time>2020-02-16T12:47:27.000Z</time>
      </trkpt>
      <trkpt lat="45.29579" lon="6.19874">
        <ele>1475.8000488281</ele>
        <time>2020-02-16T12:47:29.000Z</time>
      </trkpt>
      <trkpt lat="45.29578" lon="6.19889">
        <ele>1474.4000244141</ele>
        <time>2020-02-16T12:47:32.000Z</time>
      </trkpt>
      <trkpt lat="45.29573" lon="6.199">
        <ele>1472.8000488281</ele>
        <time>2020-02-16T12:47:35.000Z</time>
      </trkpt>
      <trkpt lat="45.2957" lon="6.19912">
        <ele>1471.1999511719</ele>
        <time>2020-02-16T12:47:38.000Z</time>
      </trkpt>
      <trkpt lat="45.29565" lon="6.19926">
        <ele>1469.8000488281</ele>
        <time>2020-02-16T12:47:40.000Z</time>
      </trkpt>
      <trkpt lat="45.29565" lon="6.19931">
        <ele>1468.8000488281</ele>
        <time>2020-02-16T12:47:41.000Z</time>
      </trkpt>
      <trkpt lat="45.29564" lon="6.19936">
        <ele>1467.5999755859</ele>
        <time>2020-02-16T12:47:42.000Z</time>
      </trkpt>
      <trkpt lat="45.29564" lon="6.19939">
        <ele>1466.1999511719</ele>
        <time>2020-02-16T12:47:43.000Z</time>
      </trkpt>
      <trkpt lat="45.29564" lon="6.1994">
        <ele>1465</ele>
        <time>2020-02-16T12:47:44.000Z</time>
      </trkpt>
      <trkpt lat="45.29563" lon="6.19945">
        <ele>1464</ele>
        <time>2020-02-16T12:47:45.000Z</time>
      </trkpt>
      <trkpt lat="45.29561" lon="6.19951">
        <ele>1462.8000488281</ele>
        <time>2020-02-16T12:47:46.000Z</time>
      </trkpt>
      <trkpt lat="45.2956" lon="6.19964">
        <ele>1461</ele>
        <time>2020-02-16T12:47:48.000Z</time>
      </trkpt>
      <trkpt lat="45.2956" lon="6.19971">
        <ele>1460</ele>
        <time>2020-02-16T12:47:49.000Z</time>
      </trkpt>
      <trkpt lat="45.29561" lon="6.19977">
        <ele>1458.8000488281</ele>
        <time>2020-02-16T12:47:50.000Z</time>
      </trkpt>
      <trkpt lat="45.29561" lon="6.19982">
        <ele>1457.4000244141</ele>
        <time>2020-02-16T12:47:51.000Z</time>
      </trkpt>
      <trkpt lat="45.2956" lon="6.19988">
        <ele>1456.1999511719</ele>
        <time>2020-02-16T12:47:52.000Z</time>
      </trkpt>
      <trkpt lat="45.29559" lon="6.19994">
        <ele>1455</ele>
        <time>2020-02-16T12:47:53.000Z</time>
      </trkpt>
      <trkpt lat="45.29558" lon="6.2">
        <ele>1453.8000488281</ele>
        <time>2020-02-16T12:47:54.000Z</time>
      </trkpt>
      <trkpt lat="45.29557" lon="6.20006">
        <ele>1452.4000244141</ele>
        <time>2020-02-16T12:47:55.000Z</time>
      </trkpt>
      <trkpt lat="45.29557" lon="6.20011">
        <ele>1451.4000244141</ele>
        <time>2020-02-16T12:47:56.000Z</time>
      </trkpt>
      <trkpt lat="45.29555" lon="6.20014">
        <ele>1450.1999511719</ele>
        <time>2020-02-16T12:47:57.000Z</time>
      </trkpt>
      <trkpt lat="45.29552" lon="6.20019">
        <ele>1449</ele>
        <time>2020-02-16T12:47:58.000Z</time>
      </trkpt>
      <trkpt lat="45.29552" lon="6.20025">
        <ele>1445.8000488281</ele>
        <time>2020-02-16T12:47:59.000Z</time>
      </trkpt>
      <trkpt lat="45.29553" lon="6.20029">
        <ele>1444.5999755859</ele>
        <time>2020-02-16T12:48:00.000Z</time>
      </trkpt>
      <trkpt lat="45.29553" lon="6.20032">
        <ele>1443.5999755859</ele>
        <time>2020-02-16T12:48:01.000Z</time>
      </trkpt>
      <trkpt lat="45.29554" lon="6.20035">
        <ele>1442.5999755859</ele>
        <time>2020-02-16T12:48:02.000Z</time>
      </trkpt>
      <trkpt lat="45.29553" lon="6.2004">
        <ele>1441.5999755859</ele>
        <time>2020-02-16T12:48:03.000Z</time>
      </trkpt>
      <trkpt lat="45.29552" lon="6.20047">
        <ele>1440.8000488281</ele>
        <time>2020-02-16T12:48:04.000Z</time>
      </trkpt>
      <trkpt lat="45.29552" lon="6.20053">
        <ele>1440</ele>
        <time>2020-02-16T12:48:05.000Z</time>
      </trkpt>
      <trkpt lat="45.29553" lon="6.20058">
        <ele>1439.1999511719</ele>
        <time>2020-02-16T12:48:06.000Z</time>
      </trkpt>
      <trkpt lat="45.29552" lon="6.20063">
        <ele>1438.4000244141</ele>
        <time>2020-02-16T12:48:07.000Z</time>
      </trkpt>
      <trkpt lat="45.2955" lon="6.20063">
        <ele>1437.4000244141</ele>
        <time>2020-02-16T12:48:08.000Z</time>
      </trkpt>
      <trkpt lat="45.29549" lon="6.20062">
        <ele>1436</ele>
        <time>2020-02-16T12:48:09.000Z</time>
      </trkpt>
      <trkpt lat="45.2955" lon="6.20061">
        <ele>1434.8000488281</ele>
        <time>2020-02-16T12:48:10.000Z</time>
      </trkpt>
      <trkpt lat="45.2955" lon="6.20061">
        <ele>1433.8000488281</ele>
        <time>2020-02-16T12:48:11.000Z</time>
      </trkpt>
      <trkpt lat="45.2955" lon="6.20061">
        <ele>1433</ele>
        <time>2020-02-16T12:48:12.000Z</time>
      </trkpt>
      <trkpt lat="45.2955" lon="6.20061">
        <ele>1432.5999755859</ele>
        <time>2020-02-16T12:48:14.000Z</time>
      </trkpt>
      <trkpt lat="45.2955" lon="6.20061">
        <ele>1431.5999755859</ele>
        <time>2020-02-16T12:48:20.000Z</time>
      </trkpt>
      <trkpt lat="45.2955" lon="6.20061">
        <ele>1431.4000244141</ele>
        <time>2020-02-16T12:48:29.000Z</time>
      </trkpt>
      <trkpt lat="45.29545" lon="6.20061">
        <ele>1431.4000244141</ele>
        <time>2020-02-16T12:48:34.000Z</time>
      </trkpt>
      <trkpt lat="45.29542" lon="6.20065">
        <ele>1431.4000244141</ele>
        <time>2020-02-16T12:48:35.000Z</time>
      </trkpt>
      <trkpt lat="45.29541" lon="6.20081">
        <ele>1430.8000488281</ele>
        <time>2020-02-16T12:48:38.000Z</time>
      </trkpt>
      <trkpt lat="45.29539" lon="6.20082">
        <ele>1430.5999755859</ele>
        <time>2020-02-16T12:48:39.000Z</time>
      </trkpt>
      <trkpt lat="45.29535" lon="6.20089">
        <ele>1428.8000488281</ele>
        <time>2020-02-16T12:48:41.000Z</time>
      </trkpt>
      <trkpt lat="45.29534" lon="6.20095">
        <ele>1427.5999755859</ele>
        <time>2020-02-16T12:48:42.000Z</time>
      </trkpt>
      <trkpt lat="45.29528" lon="6.20101">
        <ele>1426.4000244141</ele>
        <time>2020-02-16T12:48:44.000Z</time>
      </trkpt>
      <trkpt lat="45.29524" lon="6.20109">
        <ele>1425</ele>
        <time>2020-02-16T12:48:46.000Z</time>
      </trkpt>
      <trkpt lat="45.29522" lon="6.20115">
        <ele>1422.5999755859</ele>
        <time>2020-02-16T12:48:47.000Z</time>
      </trkpt>
      <trkpt lat="45.29521" lon="6.20121">
        <ele>1421.5999755859</ele>
        <time>2020-02-16T12:48:48.000Z</time>
      </trkpt>
      <trkpt lat="45.2952" lon="6.20127">
        <ele>1420.8000488281</ele>
        <time>2020-02-16T12:48:49.000Z</time>
      </trkpt>
      <trkpt lat="45.29518" lon="6.20134">
        <ele>1420</ele>
        <time>2020-02-16T12:48:50.000Z</time>
      </trkpt>
      <trkpt lat="45.29516" lon="6.20142">
        <ele>1419.1999511719</ele>
        <time>2020-02-16T12:48:51.000Z</time>
      </trkpt>
      <trkpt lat="45.29512" lon="6.20149">
        <ele>1418.4000244141</ele>
        <time>2020-02-16T12:48:52.000Z</time>
      </trkpt>
      <trkpt lat="45.29508" lon="6.20162">
        <ele>1417</ele>
        <time>2020-02-16T12:48:54.000Z</time>
      </trkpt>
      <trkpt lat="45.29508" lon="6.20168">
        <ele>1416.4000244141</ele>
        <time>2020-02-16T12:48:55.000Z</time>
      </trkpt>
      <trkpt lat="45.29508" lon="6.20173">
        <ele>1415.5999755859</ele>
        <time>2020-02-16T12:48:56.000Z</time>
      </trkpt>
      <trkpt lat="45.29507" lon="6.2018">
        <ele>1415</ele>
        <time>2020-02-16T12:48:57.000Z</time>
      </trkpt>
      <trkpt lat="45.29504" lon="6.20186">
        <ele>1414.4000244141</ele>
        <time>2020-02-16T12:48:58.000Z</time>
      </trkpt>
      <trkpt lat="45.29501" lon="6.20191">
        <ele>1413.8000488281</ele>
        <time>2020-02-16T12:48:59.000Z</time>
      </trkpt>
      <trkpt lat="45.29498" lon="6.20196">
        <ele>1413</ele>
        <time>2020-02-16T12:49:00.000Z</time>
      </trkpt>
      <trkpt lat="45.29494" lon="6.20203">
        <ele>1411.8000488281</ele>
        <time>2020-02-16T12:49:02.000Z</time>
      </trkpt>
      <trkpt lat="45.29491" lon="6.20216">
        <ele>1410.5999755859</ele>
        <time>2020-02-16T12:49:04.000Z</time>
      </trkpt>
      <trkpt lat="45.29489" lon="6.20223">
        <ele>1409.8000488281</ele>
        <time>2020-02-16T12:49:05.000Z</time>
      </trkpt>
      <trkpt lat="45.29485" lon="6.20228">
        <ele>1409</ele>
        <time>2020-02-16T12:49:06.000Z</time>
      </trkpt>
      <trkpt lat="45.29482" lon="6.2024">
        <ele>1407.1999511719</ele>
        <time>2020-02-16T12:49:08.000Z</time>
      </trkpt>
      <trkpt lat="45.29481" lon="6.20246">
        <ele>1406.4000244141</ele>
        <time>2020-02-16T12:49:09.000Z</time>
      </trkpt>
      <trkpt lat="45.29479" lon="6.20253">
        <ele>1405.5999755859</ele>
        <time>2020-02-16T12:49:10.000Z</time>
      </trkpt>
      <trkpt lat="45.29476" lon="6.20258">
        <ele>1404</ele>
        <time>2020-02-16T12:49:11.000Z</time>
      </trkpt>
      <trkpt lat="45.29475" lon="6.20265">
        <ele>1403</ele>
        <time>2020-02-16T12:49:12.000Z</time>
      </trkpt>
      <trkpt lat="45.29474" lon="6.20277">
        <ele>1401.1999511719</ele>
        <time>2020-02-16T12:49:14.000Z</time>
      </trkpt>
      <trkpt lat="45.29471" lon="6.20281">
        <ele>1400.5999755859</ele>
        <time>2020-02-16T12:49:15.000Z</time>
      </trkpt>
      <trkpt lat="45.29469" lon="6.20285">
        <ele>1399.8000488281</ele>
        <time>2020-02-16T12:49:16.000Z</time>
      </trkpt>
      <trkpt lat="45.29466" lon="6.20292">
        <ele>1399</ele>
        <time>2020-02-16T12:49:17.000Z</time>
      </trkpt>
      <trkpt lat="45.29465" lon="6.20299">
        <ele>1398.4000244141</ele>
        <time>2020-02-16T12:49:18.000Z</time>
      </trkpt>
      <trkpt lat="45.29465" lon="6.20306">
        <ele>1398</ele>
        <time>2020-02-16T12:49:19.000Z</time>
      </trkpt>
      <trkpt lat="45.29464" lon="6.20314">
        <ele>1397.4000244141</ele>
        <time>2020-02-16T12:49:20.000Z</time>
      </trkpt>
      <trkpt lat="45.29461" lon="6.20329">
        <ele>1396.1999511719</ele>
        <time>2020-02-16T12:49:22.000Z</time>
      </trkpt>
      <trkpt lat="45.29459" lon="6.20336">
        <ele>1395.5999755859</ele>
        <time>2020-02-16T12:49:23.000Z</time>
      </trkpt>
      <trkpt lat="45.29457" lon="6.20342">
        <ele>1395</ele>
        <time>2020-02-16T12:49:24.000Z</time>
      </trkpt>
      <trkpt lat="45.29453" lon="6.20356">
        <ele>1393.8000488281</ele>
        <time>2020-02-16T12:49:26.000Z</time>
      </trkpt>
      <trkpt lat="45.29452" lon="6.20363">
        <ele>1393.1999511719</ele>
        <time>2020-02-16T12:49:27.000Z</time>
      </trkpt>
      <trkpt lat="45.29452" lon="6.20369">
        <ele>1392.8000488281</ele>
        <time>2020-02-16T12:49:28.000Z</time>
      </trkpt>
      <trkpt lat="45.29448" lon="6.2038">
        <ele>1391.5999755859</ele>
        <time>2020-02-16T12:49:30.000Z</time>
      </trkpt>
      <trkpt lat="45.29447" lon="6.20386">
        <ele>1391</ele>
        <time>2020-02-16T12:49:31.000Z</time>
      </trkpt>
      <trkpt lat="45.29448" lon="6.20393">
        <ele>1390.4000244141</ele>
        <time>2020-02-16T12:49:32.000Z</time>
      </trkpt>
      <trkpt lat="45.29445" lon="6.20406">
        <ele>1389.1999511719</ele>
        <time>2020-02-16T12:49:34.000Z</time>
      </trkpt>
      <trkpt lat="45.29444" lon="6.20411">
        <ele>1388</ele>
        <time>2020-02-16T12:49:35.000Z</time>
      </trkpt>
      <trkpt lat="45.29441" lon="6.20422">
        <ele>1386.5999755859</ele>
        <time>2020-02-16T12:49:37.000Z</time>
      </trkpt>
      <trkpt lat="45.29439" lon="6.20431">
        <ele>1385.8000488281</ele>
        <time>2020-02-16T12:49:39.000Z</time>
      </trkpt>
      <trkpt lat="45.29438" lon="6.20437">
        <ele>1385.4000244141</ele>
        <time>2020-02-16T12:49:40.000Z</time>
      </trkpt>
      <trkpt lat="45.29436" lon="6.20451">
        <ele>1384</ele>
        <time>2020-02-16T12:49:43.000Z</time>
      </trkpt>
      <trkpt lat="45.29436" lon="6.20457">
        <ele>1383.5999755859</ele>
        <time>2020-02-16T12:49:44.000Z</time>
      </trkpt>
      <trkpt lat="45.29436" lon="6.20469">
        <ele>1382.8000488281</ele>
        <time>2020-02-16T12:49:46.000Z</time>
      </trkpt>
      <trkpt lat="45.29437" lon="6.20475">
        <ele>1382.5999755859</ele>
        <time>2020-02-16T12:49:47.000Z</time>
      </trkpt>
      <trkpt lat="45.29438" lon="6.20487">
        <ele>1381.8000488281</ele>
        <time>2020-02-16T12:49:49.000Z</time>
      </trkpt>
      <trkpt lat="45.29438" lon="6.20494">
        <ele>1381.4000244141</ele>
        <time>2020-02-16T12:49:50.000Z</time>
      </trkpt>
      <trkpt lat="45.29437" lon="6.20504">
        <ele>1380.5999755859</ele>
        <time>2020-02-16T12:49:52.000Z</time>
      </trkpt>
      <trkpt lat="45.29435" lon="6.20506">
        <ele>1380.4000244141</ele>
        <time>2020-02-16T12:49:53.000Z</time>
      </trkpt>
      <trkpt lat="45.29433" lon="6.20516">
        <ele>1379.4000244141</ele>
        <time>2020-02-16T12:49:55.000Z</time>
      </trkpt>
      <trkpt lat="45.29432" lon="6.20519">
        <ele>1378.8000488281</ele>
        <time>2020-02-16T12:49:56.000Z</time>
      </trkpt>
      <trkpt lat="45.29432" lon="6.20521">
        <ele>1378</ele>
        <time>2020-02-16T12:49:57.000Z</time>
      </trkpt>
      <trkpt lat="45.2943" lon="6.2053">
        <ele>1375.8000488281</ele>
        <time>2020-02-16T12:49:59.000Z</time>
      </trkpt>
      <trkpt lat="45.29429" lon="6.20535">
        <ele>1375.4000244141</ele>
        <time>2020-02-16T12:50:00.000Z</time>
      </trkpt>
      <trkpt lat="45.29427" lon="6.2054">
        <ele>1375</ele>
        <time>2020-02-16T12:50:01.000Z</time>
      </trkpt>
      <trkpt lat="45.29424" lon="6.20544">
        <ele>1374.8000488281</ele>
        <time>2020-02-16T12:50:02.000Z</time>
      </trkpt>
      <trkpt lat="45.29421" lon="6.20546">
        <ele>1374.4000244141</ele>
        <time>2020-02-16T12:50:03.000Z</time>
      </trkpt>
      <trkpt lat="45.29421" lon="6.20546">
        <ele>1373.5999755859</ele>
        <time>2020-02-16T12:50:04.000Z</time>
      </trkpt>
      <trkpt lat="45.29421" lon="6.20546">
        <ele>1373</ele>
        <time>2020-02-16T12:50:05.000Z</time>
      </trkpt>
      <trkpt lat="45.29421" lon="6.20546">
        <ele>1372.1999511719</ele>
        <time>2020-02-16T12:50:06.000Z</time>
      </trkpt>
      <trkpt lat="45.2942" lon="6.20539">
        <ele>1371.4000244141</ele>
        <time>2020-02-16T12:50:12.000Z</time>
      </trkpt>
      <trkpt lat="45.2942" lon="6.20537">
        <ele>1371.5999755859</ele>
        <time>2020-02-16T12:50:13.000Z</time>
      </trkpt>
      <trkpt lat="45.2942" lon="6.20536">
        <ele>1371.1999511719</ele>
        <time>2020-02-16T12:50:17.000Z</time>
      </trkpt>
      <trkpt lat="45.29418" lon="6.20536">
        <ele>1371</ele>
        <time>2020-02-16T12:50:18.000Z</time>
      </trkpt>
      <trkpt lat="45.29408" lon="6.20536">
        <ele>1370.8000488281</ele>
        <time>2020-02-16T12:50:22.000Z</time>
      </trkpt>
      <trkpt lat="45.29402" lon="6.20535">
        <ele>1370.1999511719</ele>
        <time>2020-02-16T12:50:24.000Z</time>
      </trkpt>
      <trkpt lat="45.294" lon="6.20537">
        <ele>1369.5999755859</ele>
        <time>2020-02-16T12:50:26.000Z</time>
      </trkpt>
      <trkpt lat="45.29399" lon="6.20538">
        <ele>1369</ele>
        <time>2020-02-16T12:50:29.000Z</time>
      </trkpt>
      <trkpt lat="45.29399" lon="6.20538">
        <ele>1368.8000488281</ele>
        <time>2020-02-16T12:50:33.000Z</time>
      </trkpt>
      <trkpt lat="45.29399" lon="6.2054">
        <ele>1368.4000244141</ele>
        <time>2020-02-16T12:50:46.000Z</time>
      </trkpt>
      <trkpt lat="45.2939" lon="6.20563">
        <ele>1368</ele>
        <time>2020-02-16T12:50:50.000Z</time>
      </trkpt>
      <trkpt lat="45.29384" lon="6.20588">
        <ele>1367</ele>
        <time>2020-02-16T12:50:54.000Z</time>
      </trkpt>
      <trkpt lat="45.29382" lon="6.20594">
        <ele>1366.8000488281</ele>
        <time>2020-02-16T12:50:55.000Z</time>
      </trkpt>
      <trkpt lat="45.29377" lon="6.20607">
        <ele>1365.5999755859</ele>
        <time>2020-02-16T12:50:58.000Z</time>
      </trkpt>
      <trkpt lat="45.29371" lon="6.20628">
        <ele>1364.1999511719</ele>
        <time>2020-02-16T12:51:02.000Z</time>
      </trkpt>
      <trkpt lat="45.29369" lon="6.20643">
        <ele>1363</ele>
        <time>2020-02-16T12:51:04.000Z</time>
      </trkpt>
      <trkpt lat="45.29366" lon="6.2065">
        <ele>1362.5999755859</ele>
        <time>2020-02-16T12:51:05.000Z</time>
      </trkpt>
      <trkpt lat="45.29363" lon="6.20657">
        <ele>1362</ele>
        <time>2020-02-16T12:51:06.000Z</time>
      </trkpt>
      <trkpt lat="45.29361" lon="6.20663">
        <ele>1361.4000244141</ele>
        <time>2020-02-16T12:51:07.000Z</time>
      </trkpt>
      <trkpt lat="45.2936" lon="6.20672">
        <ele>1360.1999511719</ele>
        <time>2020-02-16T12:51:09.000Z</time>
      </trkpt>
      <trkpt lat="45.2936" lon="6.20681">
        <ele>1359</ele>
        <time>2020-02-16T12:51:12.000Z</time>
      </trkpt>
      <trkpt lat="45.29359" lon="6.20687">
        <ele>1358.8000488281</ele>
        <time>2020-02-16T12:51:14.000Z</time>
      </trkpt>
      <trkpt lat="45.29358" lon="6.20694">
        <ele>1358.5999755859</ele>
        <time>2020-02-16T12:51:16.000Z</time>
      </trkpt>
      <trkpt lat="45.29359" lon="6.20705">
        <ele>1358</ele>
        <time>2020-02-16T12:51:20.000Z</time>
      </trkpt>
      <trkpt lat="45.29359" lon="6.20709">
        <ele>1357.8000488281</ele>
        <time>2020-02-16T12:51:22.000Z</time>
      </trkpt>
      <trkpt lat="45.29361" lon="6.20725">
        <ele>1357.4000244141</ele>
        <time>2020-02-16T12:51:27.000Z</time>
      </trkpt>
      <trkpt lat="45.29361" lon="6.20737">
        <ele>1357</ele>
        <time>2020-02-16T12:51:30.000Z</time>
      </trkpt>
      <trkpt lat="45.29363" lon="6.2074">
        <ele>1356.8000488281</ele>
        <time>2020-02-16T12:51:31.000Z</time>
      </trkpt>
      <trkpt lat="45.29369" lon="6.20757">
        <ele>1355.5999755859</ele>
        <time>2020-02-16T12:51:34.000Z</time>
      </trkpt>
      <trkpt lat="45.29368" lon="6.20762">
        <ele>1355</ele>
        <time>2020-02-16T12:51:35.000Z</time>
      </trkpt>
      <trkpt lat="45.29367" lon="6.20765">
        <ele>1353.8000488281</ele>
        <time>2020-02-16T12:51:36.000Z</time>
      </trkpt>
      <trkpt lat="45.29366" lon="6.20772">
        <ele>1352.1999511719</ele>
        <time>2020-02-16T12:51:38.000Z</time>
      </trkpt>
      <trkpt lat="45.29365" lon="6.20775">
        <ele>1351.5999755859</ele>
        <time>2020-02-16T12:51:39.000Z</time>
      </trkpt>
      <trkpt lat="45.29364" lon="6.20777">
        <ele>1351.1999511719</ele>
        <time>2020-02-16T12:51:40.000Z</time>
      </trkpt>
      <trkpt lat="45.29364" lon="6.20778">
        <ele>1350.8000488281</ele>
        <time>2020-02-16T12:51:41.000Z</time>
      </trkpt>
      <trkpt lat="45.29363" lon="6.20781">
        <ele>1349.8000488281</ele>
        <time>2020-02-16T12:51:43.000Z</time>
      </trkpt>
      <trkpt lat="45.29365" lon="6.20784">
        <ele>1349.5999755859</ele>
        <time>2020-02-16T12:51:44.000Z</time>
      </trkpt>
      <trkpt lat="45.29373" lon="6.20805">
        <ele>1348.4000244141</ele>
        <time>2020-02-16T12:51:48.000Z</time>
      </trkpt>
      <trkpt lat="45.29376" lon="6.20817">
        <ele>1347</ele>
        <time>2020-02-16T12:51:50.000Z</time>
      </trkpt>
      <trkpt lat="45.29376" lon="6.20823">
        <ele>1346.1999511719</ele>
        <time>2020-02-16T12:51:51.000Z</time>
      </trkpt>
      <trkpt lat="45.29377" lon="6.20828">
        <ele>1345.4000244141</ele>
        <time>2020-02-16T12:51:52.000Z</time>
      </trkpt>
      <trkpt lat="45.29376" lon="6.20831">
        <ele>1344.8000488281</ele>
        <time>2020-02-16T12:51:53.000Z</time>
      </trkpt>
      <trkpt lat="45.29375" lon="6.20833">
        <ele>1343.8000488281</ele>
        <time>2020-02-16T12:51:54.000Z</time>
      </trkpt>
      <trkpt lat="45.29374" lon="6.20835">
        <ele>1342.8000488281</ele>
        <time>2020-02-16T12:51:55.000Z</time>
      </trkpt>
      <trkpt lat="45.29373" lon="6.20841">
        <ele>1341.4000244141</ele>
        <time>2020-02-16T12:51:57.000Z</time>
      </trkpt>
      <trkpt lat="45.29371" lon="6.20848">
        <ele>1339.5999755859</ele>
        <time>2020-02-16T12:52:00.000Z</time>
      </trkpt>
      <trkpt lat="45.2937" lon="6.20851">
        <ele>1338.8000488281</ele>
        <time>2020-02-16T12:52:01.000Z</time>
      </trkpt>
      <trkpt lat="45.29369" lon="6.20854">
        <ele>1338.1999511719</ele>
        <time>2020-02-16T12:52:02.000Z</time>
      </trkpt>
      <trkpt lat="45.29368" lon="6.20858">
        <ele>1337.8000488281</ele>
        <time>2020-02-16T12:52:03.000Z</time>
      </trkpt>
      <trkpt lat="45.29366" lon="6.20864">
        <ele>1336.8000488281</ele>
        <time>2020-02-16T12:52:05.000Z</time>
      </trkpt>
      <trkpt lat="45.29364" lon="6.20869">
        <ele>1335.4000244141</ele>
        <time>2020-02-16T12:52:07.000Z</time>
      </trkpt>
      <trkpt lat="45.29364" lon="6.20871">
        <ele>1334.8000488281</ele>
        <time>2020-02-16T12:52:08.000Z</time>
      </trkpt>
      <trkpt lat="45.29363" lon="6.20874">
        <ele>1334.1999511719</ele>
        <time>2020-02-16T12:52:09.000Z</time>
      </trkpt>
      <trkpt lat="45.29361" lon="6.20889">
        <ele>1332.8000488281</ele>
        <time>2020-02-16T12:52:12.000Z</time>
      </trkpt>
      <trkpt lat="45.29361" lon="6.20903">
        <ele>1331.4000244141</ele>
        <time>2020-02-16T12:52:14.000Z</time>
      </trkpt>
      <trkpt lat="45.29358" lon="6.20916">
        <ele>1329.4000244141</ele>
        <time>2020-02-16T12:52:16.000Z</time>
      </trkpt>
      <trkpt lat="45.29356" lon="6.2092">
        <ele>1328.4000244141</ele>
        <time>2020-02-16T12:52:17.000Z</time>
      </trkpt>
      <trkpt lat="45.29355" lon="6.20923">
        <ele>1327.1999511719</ele>
        <time>2020-02-16T12:52:18.000Z</time>
      </trkpt>
      <trkpt lat="45.29351" lon="6.20929">
        <ele>1325.8000488281</ele>
        <time>2020-02-16T12:52:20.000Z</time>
      </trkpt>
      <trkpt lat="45.29348" lon="6.20935">
        <ele>1324.8000488281</ele>
        <time>2020-02-16T12:52:24.000Z</time>
      </trkpt>
      <trkpt lat="45.29347" lon="6.20936">
        <ele>1324</ele>
        <time>2020-02-16T12:52:25.000Z</time>
      </trkpt>
      <trkpt lat="45.29348" lon="6.20933">
        <ele>1323</ele>
        <time>2020-02-16T12:52:28.000Z</time>
      </trkpt>
      <trkpt lat="45.29348" lon="6.20933">
        <ele>1322.5999755859</ele>
        <time>2020-02-16T12:52:31.000Z</time>
      </trkpt>
      <trkpt lat="45.29348" lon="6.20938">
        <ele>1322.1999511719</ele>
        <time>2020-02-16T12:52:36.000Z</time>
      </trkpt>
      <trkpt lat="45.29348" lon="6.2094">
        <ele>1322</ele>
        <time>2020-02-16T12:52:37.000Z</time>
      </trkpt>
      <trkpt lat="45.29348" lon="6.20941">
        <ele>1320.5999755859</ele>
        <time>2020-02-16T12:52:41.000Z</time>
      </trkpt>
      <trkpt lat="45.29348" lon="6.20941">
        <ele>1320</ele>
        <time>2020-02-16T12:52:42.000Z</time>
      </trkpt>
      <trkpt lat="45.29348" lon="6.20941">
        <ele>1319.4000244141</ele>
        <time>2020-02-16T12:52:43.000Z</time>
      </trkpt>
      <trkpt lat="45.29348" lon="6.20941">
        <ele>1318.4000244141</ele>
        <time>2020-02-16T12:52:46.000Z</time>
      </trkpt>
      <trkpt lat="45.29348" lon="6.20941">
        <ele>1317.5999755859</ele>
        <time>2020-02-16T12:52:50.000Z</time>
      </trkpt>
      <trkpt lat="45.29348" lon="6.20942">
        <ele>1317.1999511719</ele>
        <time>2020-02-16T12:52:51.000Z</time>
      </trkpt>
      <trkpt lat="45.29346" lon="6.20945">
        <ele>1316</ele>
        <time>2020-02-16T12:52:53.000Z</time>
      </trkpt>
      <trkpt lat="45.29346" lon="6.20946">
        <ele>1315.1999511719</ele>
        <time>2020-02-16T12:52:55.000Z</time>
      </trkpt>
      <trkpt lat="45.29346" lon="6.20946">
        <ele>1314.8000488281</ele>
        <time>2020-02-16T12:52:56.000Z</time>
      </trkpt>
      <trkpt lat="45.29347" lon="6.2095">
        <ele>1314.1999511719</ele>
        <time>2020-02-16T12:53:00.000Z</time>
      </trkpt>
      <trkpt lat="45.29348" lon="6.20954">
        <ele>1313.4000244141</ele>
        <time>2020-02-16T12:53:02.000Z</time>
      </trkpt>
      <trkpt lat="45.29348" lon="6.2096">
        <ele>1312</ele>
        <time>2020-02-16T12:53:04.000Z</time>
      </trkpt>
      <trkpt lat="45.29347" lon="6.20964">
        <ele>1311.5999755859</ele>
        <time>2020-02-16T12:53:05.000Z</time>
      </trkpt>
      <trkpt lat="45.29345" lon="6.20974">
        <ele>1310.5999755859</ele>
        <time>2020-02-16T12:53:07.000Z</time>
      </trkpt>
      <trkpt lat="45.29341" lon="6.20985">
        <ele>1308.8000488281</ele>
        <time>2020-02-16T12:53:09.000Z</time>
      </trkpt>
      <trkpt lat="45.29339" lon="6.20992">
        <ele>1307.5999755859</ele>
        <time>2020-02-16T12:53:10.000Z</time>
      </trkpt>
      <trkpt lat="45.29338" lon="6.20999">
        <ele>1306.5999755859</ele>
        <time>2020-02-16T12:53:11.000Z</time>
      </trkpt>
      <trkpt lat="45.29337" lon="6.21015">
        <ele>1303.8000488281</ele>
        <time>2020-02-16T12:53:13.000Z</time>
      </trkpt>
      <trkpt lat="45.29337" lon="6.21023">
        <ele>1302.8000488281</ele>
        <time>2020-02-16T12:53:14.000Z</time>
      </trkpt>
      <trkpt lat="45.29336" lon="6.21033">
        <ele>1302</ele>
        <time>2020-02-16T12:53:15.000Z</time>
      </trkpt>
      <trkpt lat="45.29336" lon="6.21041">
        <ele>1301.1999511719</ele>
        <time>2020-02-16T12:53:16.000Z</time>
      </trkpt>
      <trkpt lat="45.29337" lon="6.21049">
        <ele>1300</ele>
        <time>2020-02-16T12:53:17.000Z</time>
      </trkpt>
      <trkpt lat="45.29337" lon="6.21055">
        <ele>1298.5999755859</ele>
        <time>2020-02-16T12:53:18.000Z</time>
      </trkpt>
      <trkpt lat="45.29337" lon="6.2106">
        <ele>1297.4000244141</ele>
        <time>2020-02-16T12:53:19.000Z</time>
      </trkpt>
      <trkpt lat="45.29336" lon="6.21065">
        <ele>1296.1999511719</ele>
        <time>2020-02-16T12:53:20.000Z</time>
      </trkpt>
      <trkpt lat="45.29335" lon="6.21069">
        <ele>1295</ele>
        <time>2020-02-16T12:53:21.000Z</time>
      </trkpt>
      <trkpt lat="45.29334" lon="6.21072">
        <ele>1293.8000488281</ele>
        <time>2020-02-16T12:53:22.000Z</time>
      </trkpt>
      <trkpt lat="45.2933" lon="6.21081">
        <ele>1292.5999755859</ele>
        <time>2020-02-16T12:53:24.000Z</time>
      </trkpt>
      <trkpt lat="45.29324" lon="6.21102">
        <ele>1291.5999755859</ele>
        <time>2020-02-16T12:53:27.000Z</time>
      </trkpt>
      <trkpt lat="45.29322" lon="6.2112">
        <ele>1289.8000488281</ele>
        <time>2020-02-16T12:53:30.000Z</time>
      </trkpt>
      <trkpt lat="45.29322" lon="6.21132">
        <ele>1288.1999511719</ele>
        <time>2020-02-16T12:53:32.000Z</time>
      </trkpt>
      <trkpt lat="45.29322" lon="6.21138">
        <ele>1287.1999511719</ele>
        <time>2020-02-16T12:53:33.000Z</time>
      </trkpt>
      <trkpt lat="45.29322" lon="6.21145">
        <ele>1286.4000244141</ele>
        <time>2020-02-16T12:53:34.000Z</time>
      </trkpt>
      <trkpt lat="45.29321" lon="6.2116">
        <ele>1285</ele>
        <time>2020-02-16T12:53:36.000Z</time>
      </trkpt>
      <trkpt lat="45.2932" lon="6.21167">
        <ele>1283.1999511719</ele>
        <time>2020-02-16T12:53:37.000Z</time>
      </trkpt>
      <trkpt lat="45.29318" lon="6.21174">
        <ele>1282.4000244141</ele>
        <time>2020-02-16T12:53:38.000Z</time>
      </trkpt>
      <trkpt lat="45.29316" lon="6.21182">
        <ele>1281.4000244141</ele>
        <time>2020-02-16T12:53:39.000Z</time>
      </trkpt>
      <trkpt lat="45.29316" lon="6.21186">
        <ele>1280.1999511719</ele>
        <time>2020-02-16T12:53:40.000Z</time>
      </trkpt>
      <trkpt lat="45.29315" lon="6.21192">
        <ele>1278.5999755859</ele>
        <time>2020-02-16T12:53:42.000Z</time>
      </trkpt>
      <trkpt lat="45.29314" lon="6.21196">
        <ele>1278</ele>
        <time>2020-02-16T12:53:43.000Z</time>
      </trkpt>
      <trkpt lat="45.29313" lon="6.21201">
        <ele>1277.4000244141</ele>
        <time>2020-02-16T12:53:44.000Z</time>
      </trkpt>
      <trkpt lat="45.29313" lon="6.21212">
        <ele>1276</ele>
        <time>2020-02-16T12:53:46.000Z</time>
      </trkpt>
      <trkpt lat="45.29316" lon="6.21224">
        <ele>1274.5999755859</ele>
        <time>2020-02-16T12:53:48.000Z</time>
      </trkpt>
      <trkpt lat="45.29315" lon="6.21231">
        <ele>1273.8000488281</ele>
        <time>2020-02-16T12:53:49.000Z</time>
      </trkpt>
      <trkpt lat="45.29315" lon="6.21238">
        <ele>1273</ele>
        <time>2020-02-16T12:53:50.000Z</time>
      </trkpt>
      <trkpt lat="45.29312" lon="6.21253">
        <ele>1271</ele>
        <time>2020-02-16T12:53:52.000Z</time>
      </trkpt>
      <trkpt lat="45.2931" lon="6.21261">
        <ele>1269.8000488281</ele>
        <time>2020-02-16T12:53:53.000Z</time>
      </trkpt>
      <trkpt lat="45.29308" lon="6.21268">
        <ele>1268.5999755859</ele>
        <time>2020-02-16T12:53:54.000Z</time>
      </trkpt>
      <trkpt lat="45.29305" lon="6.21273">
        <ele>1267.4000244141</ele>
        <time>2020-02-16T12:53:55.000Z</time>
      </trkpt>
      <trkpt lat="45.29303" lon="6.21276">
        <ele>1266.4000244141</ele>
        <time>2020-02-16T12:53:56.000Z</time>
      </trkpt>
      <trkpt lat="45.29301" lon="6.21279">
        <ele>1265.5999755859</ele>
        <time>2020-02-16T12:53:57.000Z</time>
      </trkpt>
      <trkpt lat="45.29297" lon="6.21279">
        <ele>1264.5999755859</ele>
        <time>2020-02-16T12:54:00.000Z</time>
      </trkpt>
      <trkpt lat="45.29295" lon="6.21278">
        <ele>1264.4000244141</ele>
        <time>2020-02-16T12:54:01.000Z</time>
      </trkpt>
      <trkpt lat="45.29292" lon="6.21279">
        <ele>1264</ele>
        <time>2020-02-16T12:54:11.000Z</time>
      </trkpt>
      <trkpt lat="45.29287" lon="6.21282">
        <ele>1264</ele>
        <time>2020-02-16T12:54:16.000Z</time>
      </trkpt>
      <trkpt lat="45.29286" lon="6.21282">
        <ele>1263.5999755859</ele>
        <time>2020-02-16T12:54:18.000Z</time>
      </trkpt>
      <trkpt lat="45.29281" lon="6.21288">
        <ele>1263</ele>
        <time>2020-02-16T12:54:22.000Z</time>
      </trkpt>
      <trkpt lat="45.29277" lon="6.21295">
        <ele>1262.4000244141</ele>
        <time>2020-02-16T12:54:24.000Z</time>
      </trkpt>
      <trkpt lat="45.29273" lon="6.21301">
        <ele>1261.4000244141</ele>
        <time>2020-02-16T12:54:26.000Z</time>
      </trkpt>
      <trkpt lat="45.29271" lon="6.21304">
        <ele>1260.1999511719</ele>
        <time>2020-02-16T12:54:28.000Z</time>
      </trkpt>
      <trkpt lat="45.29268" lon="6.21308">
        <ele>1258.8000488281</ele>
        <time>2020-02-16T12:54:30.000Z</time>
      </trkpt>
      <trkpt lat="45.29262" lon="6.21317">
        <ele>1257.5999755859</ele>
        <time>2020-02-16T12:54:34.000Z</time>
      </trkpt>
      <trkpt lat="45.2926" lon="6.21319">
        <ele>1257.1999511719</ele>
        <time>2020-02-16T12:54:35.000Z</time>
      </trkpt>
      <trkpt lat="45.29258" lon="6.21322">
        <ele>1256.4000244141</ele>
        <time>2020-02-16T12:54:37.000Z</time>
      </trkpt>
      <trkpt lat="45.29255" lon="6.21328">
        <ele>1255.1999511719</ele>
        <time>2020-02-16T12:54:40.000Z</time>
      </trkpt>
      <trkpt lat="45.29254" lon="6.21334">
        <ele>1254</ele>
        <time>2020-02-16T12:54:43.000Z</time>
      </trkpt>
      <trkpt lat="45.29253" lon="6.21343">
        <ele>1252.1999511719</ele>
        <time>2020-02-16T12:54:46.000Z</time>
      </trkpt>
      <trkpt lat="45.29253" lon="6.21346">
        <ele>1251</ele>
        <time>2020-02-16T12:54:47.000Z</time>
      </trkpt>
      <trkpt lat="45.29253" lon="6.21347">
        <ele>1250</ele>
        <time>2020-02-16T12:54:48.000Z</time>
      </trkpt>
      <trkpt lat="45.29252" lon="6.21349">
        <ele>1248.5999755859</ele>
        <time>2020-02-16T12:54:49.000Z</time>
      </trkpt>
      <trkpt lat="45.29253" lon="6.21355">
        <ele>1247.5999755859</ele>
        <time>2020-02-16T12:54:51.000Z</time>
      </trkpt>
      <trkpt lat="45.29252" lon="6.2136">
        <ele>1247.1999511719</ele>
        <time>2020-02-16T12:54:52.000Z</time>
      </trkpt>
      <trkpt lat="45.2925" lon="6.21364">
        <ele>1246.8000488281</ele>
        <time>2020-02-16T12:54:53.000Z</time>
      </trkpt>
      <trkpt lat="45.29249" lon="6.21366">
        <ele>1246</ele>
        <time>2020-02-16T12:54:54.000Z</time>
      </trkpt>
      <trkpt lat="45.29247" lon="6.21368">
        <ele>1245</ele>
        <time>2020-02-16T12:54:55.000Z</time>
      </trkpt>
      <trkpt lat="45.29245" lon="6.21371">
        <ele>1244.1999511719</ele>
        <time>2020-02-16T12:54:56.000Z</time>
      </trkpt>
      <trkpt lat="45.29244" lon="6.21375">
        <ele>1243</ele>
        <time>2020-02-16T12:54:58.000Z</time>
      </trkpt>
      <trkpt lat="45.29243" lon="6.21378">
        <ele>1241.5999755859</ele>
        <time>2020-02-16T12:55:01.000Z</time>
      </trkpt>
      <trkpt lat="45.29243" lon="6.21378">
        <ele>1240.4000244141</ele>
        <time>2020-02-16T12:55:04.000Z</time>
      </trkpt>
      <trkpt lat="45.29243" lon="6.21378">
        <ele>1239.5999755859</ele>
        <time>2020-02-16T12:55:12.000Z</time>
      </trkpt>
      <trkpt lat="45.29243" lon="6.21378">
        <ele>1239.1999511719</ele>
        <time>2020-02-16T12:55:20.000Z</time>
      </trkpt>
      <trkpt lat="45.29243" lon="6.21378">
        <ele>1239.8000488281</ele>
        <time>2020-02-16T12:55:27.000Z</time>
      </trkpt>
      <trkpt lat="45.29243" lon="6.21378">
        <ele>1240.1999511719</ele>
        <time>2020-02-16T12:55:28.000Z</time>
      </trkpt>
      <trkpt lat="45.29243" lon="6.21378">
        <ele>1239.1999511719</ele>
        <time>2020-02-16T12:55:37.000Z</time>
      </trkpt>
      <trkpt lat="45.29242" lon="6.21378">
        <ele>1239.1999511719</ele>
        <time>2020-02-16T12:55:40.000Z</time>
      </trkpt>
      <trkpt lat="45.29236" lon="6.21387">
        <ele>1239.4000244141</ele>
        <time>2020-02-16T12:55:49.000Z</time>
      </trkpt>
      <trkpt lat="45.29236" lon="6.21395">
        <ele>1238.1999511719</ele>
        <time>2020-02-16T12:55:55.000Z</time>
      </trkpt>
      <trkpt lat="45.29236" lon="6.21395">
        <ele>1237.5999755859</ele>
        <time>2020-02-16T12:55:57.000Z</time>
      </trkpt>
      <trkpt lat="45.29236" lon="6.21398">
        <ele>1237</ele>
        <time>2020-02-16T12:56:00.000Z</time>
      </trkpt>
      <trkpt lat="45.29235" lon="6.21402">
        <ele>1236</ele>
        <time>2020-02-16T12:56:03.000Z</time>
      </trkpt>
      <trkpt lat="45.29233" lon="6.21403">
        <ele>1235.8000488281</ele>
        <time>2020-02-16T12:56:04.000Z</time>
      </trkpt>
      <trkpt lat="45.2923" lon="6.21404">
        <ele>1234.8000488281</ele>
        <time>2020-02-16T12:56:07.000Z</time>
      </trkpt>
      <trkpt lat="45.29228" lon="6.21409">
        <ele>1233.8000488281</ele>
        <time>2020-02-16T12:56:10.000Z</time>
      </trkpt>
      <trkpt lat="45.29224" lon="6.21414">
        <ele>1232.5999755859</ele>
        <time>2020-02-16T12:56:15.000Z</time>
      </trkpt>
      <trkpt lat="45.29222" lon="6.21416">
        <ele>1231.4000244141</ele>
        <time>2020-02-16T12:56:18.000Z</time>
      </trkpt>
      <trkpt lat="45.2922" lon="6.21418">
        <ele>1230.4000244141</ele>
        <time>2020-02-16T12:56:22.000Z</time>
      </trkpt>
      <trkpt lat="45.29219" lon="6.21419">
        <ele>1229.4000244141</ele>
        <time>2020-02-16T12:56:25.000Z</time>
      </trkpt>
      <trkpt lat="45.29219" lon="6.21419">
        <ele>1229</ele>
        <time>2020-02-16T12:56:26.000Z</time>
      </trkpt>
      <trkpt lat="45.29219" lon="6.21419">
        <ele>1228.1999511719</ele>
        <time>2020-02-16T12:56:31.000Z</time>
      </trkpt>
      <trkpt lat="45.29218" lon="6.21419">
        <ele>1228.1999511719</ele>
        <time>2020-02-16T12:56:37.000Z</time>
      </trkpt>
      <trkpt lat="45.29214" lon="6.21423">
        <ele>1227.1999511719</ele>
        <time>2020-02-16T12:56:46.000Z</time>
      </trkpt>
      <trkpt lat="45.29213" lon="6.21423">
        <ele>1227</ele>
        <time>2020-02-16T12:56:47.000Z</time>
      </trkpt>
      <trkpt lat="45.29211" lon="6.21426">
        <ele>1225.8000488281</ele>
        <time>2020-02-16T12:56:49.000Z</time>
      </trkpt>
      <trkpt lat="45.29208" lon="6.21432">
        <ele>1224.8000488281</ele>
        <time>2020-02-16T12:56:52.000Z</time>
      </trkpt>
      <trkpt lat="45.29207" lon="6.21434">
        <ele>1224</ele>
        <time>2020-02-16T12:56:54.000Z</time>
      </trkpt>
      <trkpt lat="45.29206" lon="6.21436">
        <ele>1223.5999755859</ele>
        <time>2020-02-16T12:56:55.000Z</time>
      </trkpt>
      <trkpt lat="45.29203" lon="6.21442">
        <ele>1222.4000244141</ele>
        <time>2020-02-16T12:56:58.000Z</time>
      </trkpt>
      <trkpt lat="45.29201" lon="6.21443">
        <ele>1221.1999511719</ele>
        <time>2020-02-16T12:57:02.000Z</time>
      </trkpt>
      <trkpt lat="45.29199" lon="6.21445">
        <ele>1220.1999511719</ele>
        <time>2020-02-16T12:57:06.000Z</time>
      </trkpt>
      <trkpt lat="45.29198" lon="6.21448">
        <ele>1219.1999511719</ele>
        <time>2020-02-16T12:57:09.000Z</time>
      </trkpt>
      <trkpt lat="45.29198" lon="6.21449">
        <ele>1218.8000488281</ele>
        <time>2020-02-16T12:57:10.000Z</time>
      </trkpt>
      <trkpt lat="45.29197" lon="6.21452">
        <ele>1217.4000244141</ele>
        <time>2020-02-16T12:57:13.000Z</time>
      </trkpt>
      <trkpt lat="45.29195" lon="6.21457">
        <ele>1216.4000244141</ele>
        <time>2020-02-16T12:57:17.000Z</time>
      </trkpt>
      <trkpt lat="45.29193" lon="6.21461">
        <ele>1215</ele>
        <time>2020-02-16T12:57:21.000Z</time>
      </trkpt>
      <trkpt lat="45.29191" lon="6.21464">
        <ele>1213.8000488281</ele>
        <time>2020-02-16T12:57:25.000Z</time>
      </trkpt>
      <trkpt lat="45.29191" lon="6.21465">
        <ele>1213.5999755859</ele>
        <time>2020-02-16T12:57:26.000Z</time>
      </trkpt>
      <trkpt lat="45.29186" lon="6.21472">
        <ele>1212.8000488281</ele>
        <time>2020-02-16T12:57:33.000Z</time>
      </trkpt>
      <trkpt lat="45.29185" lon="6.21473">
        <ele>1212.1999511719</ele>
        <time>2020-02-16T12:57:35.000Z</time>
      </trkpt>
      <trkpt lat="45.29184" lon="6.21475">
        <ele>1211.4000244141</ele>
        <time>2020-02-16T12:57:37.000Z</time>
      </trkpt>
      <trkpt lat="45.29183" lon="6.21476">
        <ele>1210.1999511719</ele>
        <time>2020-02-16T12:57:40.000Z</time>
      </trkpt>
      <trkpt lat="45.2918" lon="6.21479">
        <ele>1209.8000488281</ele>
        <time>2020-02-16T12:57:44.000Z</time>
      </trkpt>
      <trkpt lat="45.29172" lon="6.21492">
        <ele>1209</ele>
        <time>2020-02-16T12:57:51.000Z</time>
      </trkpt>
      <trkpt lat="45.29172" lon="6.21493">
        <ele>1208.5999755859</ele>
        <time>2020-02-16T12:57:52.000Z</time>
      </trkpt>
      <trkpt lat="45.29171" lon="6.21495">
        <ele>1208</ele>
        <time>2020-02-16T12:57:55.000Z</time>
      </trkpt>
      <trkpt lat="45.2917" lon="6.21497">
        <ele>1206.8000488281</ele>
        <time>2020-02-16T12:57:59.000Z</time>
      </trkpt>
      <trkpt lat="45.29169" lon="6.21497">
        <ele>1206.5999755859</ele>
        <time>2020-02-16T12:58:00.000Z</time>
      </trkpt>
      <trkpt lat="45.29168" lon="6.21498">
        <ele>1205.5999755859</ele>
        <time>2020-02-16T12:58:03.000Z</time>
      </trkpt>
      <trkpt lat="45.29164" lon="6.21503">
        <ele>1204.1999511719</ele>
        <time>2020-02-16T12:58:07.000Z</time>
      </trkpt>
      <trkpt lat="45.29162" lon="6.21505">
        <ele>1203.8000488281</ele>
        <time>2020-02-16T12:58:09.000Z</time>
      </trkpt>
      <trkpt lat="45.2916" lon="6.21509">
        <ele>1203.1999511719</ele>
        <time>2020-02-16T12:58:12.000Z</time>
      </trkpt>
      <trkpt lat="45.29158" lon="6.21511">
        <ele>1202</ele>
        <time>2020-02-16T12:58:16.000Z</time>
      </trkpt>
      <trkpt lat="45.29158" lon="6.21511">
        <ele>1201</ele>
        <time>2020-02-16T12:58:22.000Z</time>
      </trkpt>
      <trkpt lat="45.29157" lon="6.21511">
        <ele>1200.5999755859</ele>
        <time>2020-02-16T12:58:25.000Z</time>
      </trkpt>
      <trkpt lat="45.29153" lon="6.21516">
        <ele>1199.8000488281</ele>
        <time>2020-02-16T12:58:30.000Z</time>
      </trkpt>
      <trkpt lat="45.29149" lon="6.21524">
        <ele>1198.8000488281</ele>
        <time>2020-02-16T12:58:34.000Z</time>
      </trkpt>
      <trkpt lat="45.29149" lon="6.21525">
        <ele>1198.5999755859</ele>
        <time>2020-02-16T12:58:35.000Z</time>
      </trkpt>
      <trkpt lat="45.29146" lon="6.21529">
        <ele>1197.5999755859</ele>
        <time>2020-02-16T12:58:38.000Z</time>
      </trkpt>
      <trkpt lat="45.29145" lon="6.21532">
        <ele>1196.4000244141</ele>
        <time>2020-02-16T12:58:41.000Z</time>
      </trkpt>
      <trkpt lat="45.29143" lon="6.21536">
        <ele>1195.1999511719</ele>
        <time>2020-02-16T12:58:45.000Z</time>
      </trkpt>
      <trkpt lat="45.2914" lon="6.21541">
        <ele>1194</ele>
        <time>2020-02-16T12:58:49.000Z</time>
      </trkpt>
      <trkpt lat="45.29136" lon="6.21543">
        <ele>1192.8000488281</ele>
        <time>2020-02-16T12:58:54.000Z</time>
      </trkpt>
      <trkpt lat="45.29136" lon="6.21544">
        <ele>1192.1999511719</ele>
        <time>2020-02-16T12:58:56.000Z</time>
      </trkpt>
      <trkpt lat="45.29136" lon="6.21544">
        <ele>1191.4000244141</ele>
        <time>2020-02-16T12:58:58.000Z</time>
      </trkpt>
      <trkpt lat="45.29136" lon="6.21544">
        <ele>1190.1999511719</ele>
        <time>2020-02-16T12:59:00.000Z</time>
      </trkpt>
      <trkpt lat="45.29136" lon="6.21544">
        <ele>1190.5999755859</ele>
        <time>2020-02-16T12:59:09.000Z</time>
      </trkpt>
      <trkpt lat="45.29134" lon="6.21546">
        <ele>1191</ele>
        <time>2020-02-16T12:59:18.000Z</time>
      </trkpt>
      <trkpt lat="45.29129" lon="6.21552">
        <ele>1189.1999511719</ele>
        <time>2020-02-16T12:59:26.000Z</time>
      </trkpt>
      <trkpt lat="45.29128" lon="6.21554">
        <ele>1189</ele>
        <time>2020-02-16T12:59:27.000Z</time>
      </trkpt>
      <trkpt lat="45.29126" lon="6.21561">
        <ele>1188</ele>
        <time>2020-02-16T12:59:32.000Z</time>
      </trkpt>
      <trkpt lat="45.29126" lon="6.21562">
        <ele>1187.5999755859</ele>
        <time>2020-02-16T12:59:33.000Z</time>
      </trkpt>
      <trkpt lat="45.29124" lon="6.21565">
        <ele>1187</ele>
        <time>2020-02-16T12:59:36.000Z</time>
      </trkpt>
      <trkpt lat="45.29124" lon="6.21565">
        <ele>1185.8000488281</ele>
        <time>2020-02-16T12:59:39.000Z</time>
      </trkpt>
      <trkpt lat="45.29124" lon="6.21565">
        <ele>1185.5999755859</ele>
        <time>2020-02-16T12:59:40.000Z</time>
      </trkpt>
      <trkpt lat="45.29121" lon="6.21573">
        <ele>1184.5999755859</ele>
        <time>2020-02-16T12:59:46.000Z</time>
      </trkpt>
      <trkpt lat="45.29118" lon="6.2158">
        <ele>1183.1999511719</ele>
        <time>2020-02-16T12:59:50.000Z</time>
      </trkpt>
      <trkpt lat="45.29115" lon="6.21586">
        <ele>1182</ele>
        <time>2020-02-16T12:59:53.000Z</time>
      </trkpt>
      <trkpt lat="45.29114" lon="6.21591">
        <ele>1180.8000488281</ele>
        <time>2020-02-16T12:59:57.000Z</time>
      </trkpt>
      <trkpt lat="45.29112" lon="6.21597">
        <ele>1179.4000244141</ele>
        <time>2020-02-16T13:00:01.000Z</time>
      </trkpt>
      <trkpt lat="45.29109" lon="6.21606">
        <ele>1178.4000244141</ele>
        <time>2020-02-16T13:00:05.000Z</time>
      </trkpt>
      <trkpt lat="45.29107" lon="6.21611">
        <ele>1177.8000488281</ele>
        <time>2020-02-16T13:00:08.000Z</time>
      </trkpt>
      <trkpt lat="45.29107" lon="6.21613">
        <ele>1177.1999511719</ele>
        <time>2020-02-16T13:00:10.000Z</time>
      </trkpt>
      <trkpt lat="45.29104" lon="6.21621">
        <ele>1176</ele>
        <time>2020-02-16T13:00:15.000Z</time>
      </trkpt>
      <trkpt lat="45.29103" lon="6.21622">
        <ele>1175.4000244141</ele>
        <time>2020-02-16T13:00:16.000Z</time>
      </trkpt>
      <trkpt lat="45.29101" lon="6.21625">
        <ele>1174.8000488281</ele>
        <time>2020-02-16T13:00:18.000Z</time>
      </trkpt>
      <trkpt lat="45.29099" lon="6.21631">
        <ele>1173.8000488281</ele>
        <time>2020-02-16T13:00:22.000Z</time>
      </trkpt>
      <trkpt lat="45.29098" lon="6.21634">
        <ele>1173.4000244141</ele>
        <time>2020-02-16T13:00:24.000Z</time>
      </trkpt>
      <trkpt lat="45.29098" lon="6.21637">
        <ele>1172.8000488281</ele>
        <time>2020-02-16T13:00:26.000Z</time>
      </trkpt>
      <trkpt lat="45.29096" lon="6.21643">
        <ele>1171.4000244141</ele>
        <time>2020-02-16T13:00:30.000Z</time>
      </trkpt>
      <trkpt lat="45.29095" lon="6.21646">
        <ele>1170.5999755859</ele>
        <time>2020-02-16T13:00:32.000Z</time>
      </trkpt>
      <trkpt lat="45.29095" lon="6.21648">
        <ele>1170.1999511719</ele>
        <time>2020-02-16T13:00:33.000Z</time>
      </trkpt>
      <trkpt lat="45.29093" lon="6.21654">
        <ele>1168.8000488281</ele>
        <time>2020-02-16T13:00:36.000Z</time>
      </trkpt>
      <trkpt lat="45.29091" lon="6.21657">
        <ele>1167.8000488281</ele>
        <time>2020-02-16T13:00:39.000Z</time>
      </trkpt>
      <trkpt lat="45.2909" lon="6.21659">
        <ele>1167.4000244141</ele>
        <time>2020-02-16T13:00:40.000Z</time>
      </trkpt>
      <trkpt lat="45.29088" lon="6.21664">
        <ele>1166.5999755859</ele>
        <time>2020-02-16T13:00:43.000Z</time>
      </trkpt>
      <trkpt lat="45.29086" lon="6.21668">
        <ele>1165.4000244141</ele>
        <time>2020-02-16T13:00:46.000Z</time>
      </trkpt>
      <trkpt lat="45.29084" lon="6.21672">
        <ele>1165</ele>
        <time>2020-02-16T13:00:48.000Z</time>
      </trkpt>
      <trkpt lat="45.29082" lon="6.21674">
        <ele>1164.4000244141</ele>
        <time>2020-02-16T13:00:50.000Z</time>
      </trkpt>
      <trkpt lat="45.29081" lon="6.21675">
        <ele>1163.4000244141</ele>
        <time>2020-02-16T13:00:54.000Z</time>
      </trkpt>
      <trkpt lat="45.29081" lon="6.21675">
        <ele>1163.1999511719</ele>
        <time>2020-02-16T13:00:55.000Z</time>
      </trkpt>
      <trkpt lat="45.29081" lon="6.21675">
        <ele>1162.8000488281</ele>
        <time>2020-02-16T13:01:02.000Z</time>
      </trkpt>
      <trkpt lat="45.29081" lon="6.21676">
        <ele>1162.8000488281</ele>
        <time>2020-02-16T13:01:13.000Z</time>
      </trkpt>
      <trkpt lat="45.29081" lon="6.21682">
        <ele>1162.8000488281</ele>
        <time>2020-02-16T13:01:17.000Z</time>
      </trkpt>
      <trkpt lat="45.29081" lon="6.21682">
        <ele>1162.8000488281</ele>
        <time>2020-02-16T13:01:18.000Z</time>
      </trkpt>
      <trkpt lat="45.2908" lon="6.21683">
        <ele>1162.5999755859</ele>
        <time>2020-02-16T13:01:19.000Z</time>
      </trkpt>
      <trkpt lat="45.29079" lon="6.21685">
        <ele>1162.1999511719</ele>
        <time>2020-02-16T13:01:22.000Z</time>
      </trkpt>
      <trkpt lat="45.29079" lon="6.21685">
        <ele>1162</ele>
        <time>2020-02-16T13:01:31.000Z</time>
      </trkpt>
      <trkpt lat="45.29076" lon="6.21685">
        <ele>1161.8000488281</ele>
        <time>2020-02-16T13:01:46.000Z</time>
      </trkpt>
      <trkpt lat="45.29075" lon="6.21685">
        <ele>1162</ele>
        <time>2020-02-16T13:01:53.000Z</time>
      </trkpt>
      <trkpt lat="45.29068" lon="6.21689">
        <ele>1161.8000488281</ele>
        <time>2020-02-16T13:01:58.000Z</time>
      </trkpt>
      <trkpt lat="45.29063" lon="6.21693">
        <ele>1161.4000244141</ele>
        <time>2020-02-16T13:02:03.000Z</time>
      </trkpt>
      <trkpt lat="45.2906" lon="6.21695">
        <ele>1161.4000244141</ele>
        <time>2020-02-16T13:02:05.000Z</time>
      </trkpt>
      <trkpt lat="45.29058" lon="6.21697">
        <ele>1161.4000244141</ele>
        <time>2020-02-16T13:02:08.000Z</time>
      </trkpt>
      <trkpt lat="45.29059" lon="6.21697">
        <ele>1161.1999511719</ele>
        <time>2020-02-16T13:02:12.000Z</time>
      </trkpt>
      <trkpt lat="45.29059" lon="6.21697">
        <ele>1161.1999511719</ele>
        <time>2020-02-16T13:02:14.000Z</time>
      </trkpt>
      <trkpt lat="45.29054" lon="6.21701">
        <ele>1161.1999511719</ele>
        <time>2020-02-16T13:02:19.000Z</time>
      </trkpt>
      <trkpt lat="45.29049" lon="6.21705">
        <ele>1161</ele>
        <time>2020-02-16T13:02:24.000Z</time>
      </trkpt>
      <trkpt lat="45.29042" lon="6.21708">
        <ele>1160.1999511719</ele>
        <time>2020-02-16T13:02:29.000Z</time>
      </trkpt>
      <trkpt lat="45.29041" lon="6.21709">
        <ele>1160</ele>
        <time>2020-02-16T13:02:30.000Z</time>
      </trkpt>
      <trkpt lat="45.29034" lon="6.21713">
        <ele>1159.4000244141</ele>
        <time>2020-02-16T13:02:36.000Z</time>
      </trkpt>
      <trkpt lat="45.29028" lon="6.21718">
        <ele>1159</ele>
        <time>2020-02-16T13:02:41.000Z</time>
      </trkpt>
      <trkpt lat="45.29025" lon="6.21719">
        <ele>1158.8000488281</ele>
        <time>2020-02-16T13:02:43.000Z</time>
      </trkpt>
      <trkpt lat="45.29022" lon="6.21719">
        <ele>1158.5999755859</ele>
        <time>2020-02-16T13:02:48.000Z</time>
      </trkpt>
      <trkpt lat="45.29018" lon="6.2172">
        <ele>1159</ele>
        <time>2020-02-16T13:02:52.000Z</time>
      </trkpt>
      <trkpt lat="45.29016" lon="6.2172">
        <ele>1159.1999511719</ele>
        <time>2020-02-16T13:02:54.000Z</time>
      </trkpt>
      <trkpt lat="45.29011" lon="6.2172">
        <ele>1159.8000488281</ele>
        <time>2020-02-16T13:03:00.000Z</time>
      </trkpt>
      <trkpt lat="45.29007" lon="6.21719">
        <ele>1160</ele>
        <time>2020-02-16T13:03:03.000Z</time>
      </trkpt>
      <trkpt lat="45.29005" lon="6.21719">
        <ele>1160.1999511719</ele>
        <time>2020-02-16T13:03:05.000Z</time>
      </trkpt>
      <trkpt lat="45.28997" lon="6.21713">
        <ele>1161.1999511719</ele>
        <time>2020-02-16T13:03:13.000Z</time>
      </trkpt>
      <trkpt lat="45.28993" lon="6.21703">
        <ele>1162.1999511719</ele>
        <time>2020-02-16T13:03:20.000Z</time>
      </trkpt>
      <trkpt lat="45.28992" lon="6.217">
        <ele>1162.4000244141</ele>
        <time>2020-02-16T13:03:21.000Z</time>
      </trkpt>
      <trkpt lat="45.28991" lon="6.2169">
        <ele>1163</ele>
        <time>2020-02-16T13:03:27.000Z</time>
      </trkpt>
      <trkpt lat="45.28991" lon="6.21685">
        <ele>1163.4000244141</ele>
        <time>2020-02-16T13:03:29.000Z</time>
      </trkpt>
      <trkpt lat="45.28995" lon="6.21679">
        <ele>1164</ele>
        <time>2020-02-16T13:03:34.000Z</time>
      </trkpt>
      <trkpt lat="45.28995" lon="6.21679">
        <ele>1164.4000244141</ele>
        <time>2020-02-16T13:03:37.000Z</time>
      </trkpt>
      <trkpt lat="45.28995" lon="6.21678">
        <ele>1164.5999755859</ele>
        <time>2020-02-16T13:03:44.000Z</time>
      </trkpt>
      <trkpt lat="45.28996" lon="6.21675">
        <ele>1164.8000488281</ele>
        <time>2020-02-16T13:03:50.000Z</time>
      </trkpt>
      <trkpt lat="45.28996" lon="6.21674">
        <ele>1164.8000488281</ele>
        <time>2020-02-16T13:03:51.000Z</time>
      </trkpt>
      <trkpt lat="45.28994" lon="6.21668">
        <ele>1165.1999511719</ele>
        <time>2020-02-16T13:03:56.000Z</time>
      </trkpt>
      <trkpt lat="45.28993" lon="6.21666">
        <ele>1165.4000244141</ele>
        <time>2020-02-16T13:03:57.000Z</time>
      </trkpt>
      <trkpt lat="45.28991" lon="6.21661">
        <ele>1166</ele>
        <time>2020-02-16T13:04:02.000Z</time>
      </trkpt>
      <trkpt lat="45.2899" lon="6.21657">
        <ele>1166.5999755859</ele>
        <time>2020-02-16T13:04:05.000Z</time>
      </trkpt>
      <trkpt lat="45.28987" lon="6.21654">
        <ele>1167</ele>
        <time>2020-02-16T13:04:07.000Z</time>
      </trkpt>
      <trkpt lat="45.28985" lon="6.21652">
        <ele>1167.5999755859</ele>
        <time>2020-02-16T13:04:10.000Z</time>
      </trkpt>
      <trkpt lat="45.28982" lon="6.2165">
        <ele>1167.8000488281</ele>
        <time>2020-02-16T13:04:12.000Z</time>
      </trkpt>
      <trkpt lat="45.28979" lon="6.21644">
        <ele>1168.5999755859</ele>
        <time>2020-02-16T13:04:18.000Z</time>
      </trkpt>
      <trkpt lat="45.28978" lon="6.21644">
        <ele>1168.5999755859</ele>
        <time>2020-02-16T13:04:19.000Z</time>
      </trkpt>
      <trkpt lat="45.28971" lon="6.2164">
        <ele>1169</ele>
        <time>2020-02-16T13:04:25.000Z</time>
      </trkpt>
      <trkpt lat="45.28964" lon="6.21637">
        <ele>1169.8000488281</ele>
        <time>2020-02-16T13:04:31.000Z</time>
      </trkpt>
      <trkpt lat="45.28962" lon="6.21636">
        <ele>1169.8000488281</ele>
        <time>2020-02-16T13:04:32.000Z</time>
      </trkpt>
      <trkpt lat="45.28956" lon="6.21628">
        <ele>1170.5999755859</ele>
        <time>2020-02-16T13:04:39.000Z</time>
      </trkpt>
      <trkpt lat="45.28955" lon="6.21625">
        <ele>1170.8000488281</ele>
        <time>2020-02-16T13:04:41.000Z</time>
      </trkpt>
      <trkpt lat="45.28951" lon="6.21618">
        <ele>1171.1999511719</ele>
        <time>2020-02-16T13:04:46.000Z</time>
      </trkpt>
      <trkpt lat="45.28948" lon="6.21611">
        <ele>1171.8000488281</ele>
        <time>2020-02-16T13:04:51.000Z</time>
      </trkpt>
      <trkpt lat="45.28948" lon="6.21608">
        <ele>1172</ele>
        <time>2020-02-16T13:04:52.000Z</time>
      </trkpt>
      <trkpt lat="45.28944" lon="6.21596">
        <ele>1172.5999755859</ele>
        <time>2020-02-16T13:04:59.000Z</time>
      </trkpt>
      <trkpt lat="45.28944" lon="6.21594">
        <ele>1172.8000488281</ele>
        <time>2020-02-16T13:05:01.000Z</time>
      </trkpt>
      <trkpt lat="45.28941" lon="6.21588">
        <ele>1173.1999511719</ele>
        <time>2020-02-16T13:05:06.000Z</time>
      </trkpt>
      <trkpt lat="45.28938" lon="6.21581">
        <ele>1174</ele>
        <time>2020-02-16T13:05:11.000Z</time>
      </trkpt>
      <trkpt lat="45.28936" lon="6.21579">
        <ele>1174</ele>
        <time>2020-02-16T13:05:13.000Z</time>
      </trkpt>
      <trkpt lat="45.28932" lon="6.21569">
        <ele>1174.8000488281</ele>
        <time>2020-02-16T13:05:20.000Z</time>
      </trkpt>
      <trkpt lat="45.28931" lon="6.21569">
        <ele>1175</ele>
        <time>2020-02-16T13:05:21.000Z</time>
      </trkpt>
      <trkpt lat="45.28928" lon="6.21562">
        <ele>1175.4000244141</ele>
        <time>2020-02-16T13:05:26.000Z</time>
      </trkpt>
      <trkpt lat="45.28927" lon="6.21553">
        <ele>1176</ele>
        <time>2020-02-16T13:05:32.000Z</time>
      </trkpt>
      <trkpt lat="45.28927" lon="6.21548">
        <ele>1176.4000244141</ele>
        <time>2020-02-16T13:05:34.000Z</time>
      </trkpt>
      <trkpt lat="45.28925" lon="6.21536">
        <ele>1177</ele>
        <time>2020-02-16T13:05:41.000Z</time>
      </trkpt>
      <trkpt lat="45.28925" lon="6.21535">
        <ele>1177.1999511719</ele>
        <time>2020-02-16T13:05:42.000Z</time>
      </trkpt>
      <trkpt lat="45.28923" lon="6.21529">
        <ele>1177.8000488281</ele>
        <time>2020-02-16T13:05:47.000Z</time>
      </trkpt>
      <trkpt lat="45.28921" lon="6.21524">
        <ele>1178.1999511719</ele>
        <time>2020-02-16T13:05:53.000Z</time>
      </trkpt>
      <trkpt lat="45.28921" lon="6.2152">
        <ele>1178.8000488281</ele>
        <time>2020-02-16T13:06:00.000Z</time>
      </trkpt>
      <trkpt lat="45.28921" lon="6.21519">
        <ele>1179</ele>
        <time>2020-02-16T13:06:04.000Z</time>
      </trkpt>
      <trkpt lat="45.28921" lon="6.21519">
        <ele>1179.1999511719</ele>
        <time>2020-02-16T13:06:08.000Z</time>
      </trkpt>
      <trkpt lat="45.28921" lon="6.21519">
        <ele>1178.8000488281</ele>
        <time>2020-02-16T13:06:15.000Z</time>
      </trkpt>
      <trkpt lat="45.28921" lon="6.21519">
        <ele>1179.1999511719</ele>
        <time>2020-02-16T13:06:27.000Z</time>
      </trkpt>
      <trkpt lat="45.2892" lon="6.2152">
        <ele>1179</ele>
        <time>2020-02-16T13:06:44.000Z</time>
      </trkpt>
      <trkpt lat="45.2892" lon="6.2152">
        <ele>1179.1999511719</ele>
        <time>2020-02-16T13:06:55.000Z</time>
      </trkpt>
      <trkpt lat="45.2892" lon="6.2152">
        <ele>1179.4000244141</ele>
        <time>2020-02-16T13:07:10.000Z</time>
      </trkpt>
      <trkpt lat="45.2892" lon="6.2152">
        <ele>1179.1999511719</ele>
        <time>2020-02-16T13:07:27.000Z</time>
      </trkpt>
      <trkpt lat="45.2892" lon="6.2152">
        <ele>1179.8000488281</ele>
        <time>2020-02-16T13:07:43.000Z</time>
      </trkpt>
    </trkseg>
  </trk>
</gpx>